<?xml version="1.0" encoding="UTF-8" standalone="no" ?>
<gpx xmlns="http://www.topografix.com/GPX/1/1" xmlns:xsi="http://www.w3.org/2001/XMLSchema-instance" xsi:schemaLocation="http://www.topografix.com/GPX/1/1 http://www.topografix.com/GPX/1/1/gpx.xsd" version="1.1" creator="VisuGPX - https://www.visugpx.com">
  <metadata>
    <name>TET_E-04-CYL-N_20260503</name>
    <desc><![CDATA[

]]></desc>
  </metadata>
  <wpt lat="42.61943" lon="-2.89111">
    <ele>686.6</ele>
    <name><![CDATA[INFO_EasyGoBackPoint:GNR05:1A]]></name>
    <desc><![CDATA[EasyGoBackPoint:GNR05:1A]]></desc>
  </wpt>
  <wpt lat="42.61064" lon="-2.88649">
    <ele>574.6</ele>
    <name><![CDATA[INFO_EasyGoBackPoint:GNR05:1B]]></name>
    <desc><![CDATA[EasyGoBackPoint:GNR05:1B]]></desc>
  </wpt>
  <wpt lat="42.62236" lon="-5.30337">
    <ele>970.5</ele>
    <name><![CDATA[INFO_EasyGoBackPoint:GNR07:1A]]></name>
    <desc><![CDATA[EasyGoBackPoint:GNR07:1A]]></desc>
  </wpt>
  <wpt lat="42.62319" lon="-5.32407">
    <ele>946.2</ele>
    <name><![CDATA[INFO_EasyGoBackPoint:GNR07:1B]]></name>
    <desc><![CDATA[EasyGoBackPoint:GNR07:1B]]></desc>
  </wpt>
  <wpt lat="42.71047" lon="-5.48375">
    <ele>1086.1</ele>
    <name><![CDATA[INFO_EasyGoBackPoint:GNR07:2A]]></name>
    <desc><![CDATA[EasyGoBackPoint:GNR07:2A]]></desc>
  </wpt>
  <wpt lat="42.71441" lon="-5.50486">
    <ele>930.2</ele>
    <name><![CDATA[INFO_EasyGoBackPoint:GNR07:2B]]></name>
    <desc><![CDATA[EasyGoBackPoint:GNR07:2B]]></desc>
  </wpt>
  <wpt lat="42.79396" lon="-5.6498">
    <ele>972.6</ele>
    <name><![CDATA[INFO_EasyGoBackPoint:GNR07:3A]]></name>
    <desc><![CDATA[EasyGoBackPoint:GNR07:3A]]></desc>
  </wpt>
  <wpt lat="42.78755" lon="-5.65706">
    <ele>1098.1</ele>
    <name><![CDATA[INFO_EasyGoBackPoint:GNR07:3B1]]></name>
    <desc><![CDATA[EasyGoBackPoint:GNR07:3B]]></desc>
  </wpt>
  <wpt lat="42.66561" lon="-6.50306">
    <ele>627.3</ele>
    <name><![CDATA[INFO_EasyGoBackPoint:GNR07:4A]]></name>
    <desc><![CDATA[EasyGoBackPoint:GNR07:4A]]></desc>
  </wpt>
  <wpt lat="42.67177" lon="-6.50092">
    <ele>630.5</ele>
    <name><![CDATA[INFO_EasyGoBackPoint:GNR07:4B]]></name>
    <desc><![CDATA[EasyGoBackPoint:GNR07:4B]]></desc>
  </wpt>
  <wpt lat="42.61951" lon="-6.207">
    <ele>1046.3</ele>
    <name><![CDATA[INFO_EasyWayBackPoint:GNR07:5A]]></name>
  </wpt>
  <wpt lat="42.6102" lon="-6.21605">
    <ele>1065.6</ele>
    <name><![CDATA[INFO_EasyWayBackPoint:GNR07:5B]]></name>
  </wpt>
  <trk>
    <name><![CDATA[TET_E-04-CYL-N_20260503]]></name>
    <extensions>
      <line xmlns="http://www.topografix.com/GPX/gpx_style/0/2">
        <color>00FF00</color>
        <width>4</width>
      </line>
    </extensions>
    <trkseg>
      <trkpt lat="42.63661" lon="-2.85949">
        <ele>470.8</ele>
        <time>2023-06-14T20:16:59.000+02:00</time>
      </trkpt>
      <trkpt lat="42.63667" lon="-2.8597">
        <ele>471.3</ele>
        <time>2023-06-14T20:17:01.000+02:00</time>
      </trkpt>
      <trkpt lat="42.63667" lon="-2.85988">
        <ele>471.5</ele>
        <time>2023-06-14T20:17:03.000+02:00</time>
      </trkpt>
      <trkpt lat="42.63655" lon="-2.86018">
        <ele>473.3</ele>
        <time>2023-06-14T20:17:07.000+02:00</time>
      </trkpt>
      <trkpt lat="42.63552" lon="-2.86147">
        <ele>473.3</ele>
        <time>2023-06-14T20:17:28.000+02:00</time>
      </trkpt>
      <trkpt lat="42.6352" lon="-2.86211">
        <ele>477.5</ele>
        <time>2023-06-14T20:17:37.000+02:00</time>
      </trkpt>
      <trkpt lat="42.63496" lon="-2.86237">
        <ele>477.3</ele>
        <time>2023-06-14T20:17:42.000+02:00</time>
      </trkpt>
      <trkpt lat="42.63471" lon="-2.8625">
        <ele>477.5</ele>
        <time>2023-06-14T20:17:46.000+02:00</time>
      </trkpt>
      <trkpt lat="42.63455" lon="-2.86268">
        <ele>479.5</ele>
        <time>2023-06-14T20:17:49.000+02:00</time>
      </trkpt>
      <trkpt lat="42.63443" lon="-2.86294">
        <ele>481.8</ele>
        <time>2023-06-14T20:17:52.000+02:00</time>
      </trkpt>
      <trkpt lat="42.63427" lon="-2.86306">
        <ele>480.8</ele>
        <time>2023-06-14T20:17:55.000+02:00</time>
      </trkpt>
      <trkpt lat="42.63394" lon="-2.86316">
        <ele>477.8</ele>
        <time>2023-06-14T20:18:00.000+02:00</time>
      </trkpt>
      <trkpt lat="42.63383" lon="-2.86325">
        <ele>477.3</ele>
        <time>2023-06-14T20:18:02.000+02:00</time>
      </trkpt>
      <trkpt lat="42.63372" lon="-2.8635">
        <ele>478.3</ele>
        <time>2023-06-14T20:18:06.000+02:00</time>
      </trkpt>
      <trkpt lat="42.63357" lon="-2.864">
        <ele>482.3</ele>
        <time>2023-06-14T20:18:12.000+02:00</time>
      </trkpt>
      <trkpt lat="42.63327" lon="-2.86535">
        <ele>485.5</ele>
        <time>2023-06-14T20:18:27.000+02:00</time>
      </trkpt>
      <trkpt lat="42.63325" lon="-2.86574">
        <ele>488</ele>
        <time>2023-06-14T20:18:32.000+02:00</time>
      </trkpt>
      <trkpt lat="42.63329" lon="-2.86613">
        <ele>488.3</ele>
        <time>2023-06-14T20:18:36.000+02:00</time>
      </trkpt>
      <trkpt lat="42.63336" lon="-2.86664">
        <ele>489</ele>
        <time>2023-06-14T20:18:42.000+02:00</time>
      </trkpt>
      <trkpt lat="42.6334" lon="-2.86732">
        <ele>493</ele>
        <time>2023-06-14T20:18:50.000+02:00</time>
      </trkpt>
      <trkpt lat="42.63338" lon="-2.8676">
        <ele>493</ele>
        <time>2023-06-14T20:18:53.000+02:00</time>
      </trkpt>
      <trkpt lat="42.63333" lon="-2.86788">
        <ele>492.3</ele>
        <time>2023-06-14T20:18:56.000+02:00</time>
      </trkpt>
      <trkpt lat="42.63329" lon="-2.86839">
        <ele>494.8</ele>
        <time>2023-06-14T20:19:02.000+02:00</time>
      </trkpt>
      <trkpt lat="42.63325" lon="-2.86864">
        <ele>496.5</ele>
        <time>2023-06-14T20:19:05.000+02:00</time>
      </trkpt>
      <trkpt lat="42.63317" lon="-2.86884">
        <ele>498</ele>
        <time>2023-06-14T20:19:07.000+02:00</time>
      </trkpt>
      <trkpt lat="42.63304" lon="-2.86905">
        <ele>498.8</ele>
        <time>2023-06-14T20:19:11.000+02:00</time>
      </trkpt>
      <trkpt lat="42.63286" lon="-2.86948">
        <ele>499.3</ele>
        <time>2023-06-14T20:19:16.000+02:00</time>
      </trkpt>
      <trkpt lat="42.6328" lon="-2.87027">
        <ele>500.3</ele>
        <time>2023-06-14T20:19:25.000+02:00</time>
      </trkpt>
      <trkpt lat="42.63273" lon="-2.87058">
        <ele>500.8</ele>
        <time>2023-06-14T20:19:29.000+02:00</time>
      </trkpt>
      <trkpt lat="42.63261" lon="-2.87096">
        <ele>501.3</ele>
        <time>2023-06-14T20:19:33.000+02:00</time>
      </trkpt>
      <trkpt lat="42.63236" lon="-2.8717">
        <ele>504.5</ele>
        <time>2023-06-14T20:19:43.000+02:00</time>
      </trkpt>
      <trkpt lat="42.63206" lon="-2.87248">
        <ele>506.3</ele>
        <time>2023-06-14T20:19:52.000+02:00</time>
      </trkpt>
      <trkpt lat="42.632" lon="-2.87274">
        <ele>506</ele>
        <time>2023-06-14T20:19:55.000+02:00</time>
      </trkpt>
      <trkpt lat="42.63204" lon="-2.87325">
        <ele>508</ele>
        <time>2023-06-14T20:20:01.000+02:00</time>
      </trkpt>
      <trkpt lat="42.63203" lon="-2.87337">
        <ele>508.3</ele>
        <time>2023-06-14T20:20:03.000+02:00</time>
      </trkpt>
      <trkpt lat="42.63201" lon="-2.87348">
        <ele>508.3</ele>
        <time>2023-06-14T20:20:04.000+02:00</time>
      </trkpt>
      <trkpt lat="42.63186" lon="-2.87392">
        <ele>506.8</ele>
        <time>2023-06-14T20:20:09.000+02:00</time>
      </trkpt>
      <trkpt lat="42.63181" lon="-2.87419">
        <ele>506.5</ele>
        <time>2023-06-14T20:20:12.000+02:00</time>
      </trkpt>
      <trkpt lat="42.63181" lon="-2.87447">
        <ele>508</ele>
        <time>2023-06-14T20:20:16.000+02:00</time>
      </trkpt>
      <trkpt lat="42.6319" lon="-2.87525">
        <ele>512.8</ele>
        <time>2023-06-14T20:20:24.000+02:00</time>
      </trkpt>
      <trkpt lat="42.63191" lon="-2.87558">
        <ele>514.5</ele>
        <time>2023-06-14T20:20:28.000+02:00</time>
      </trkpt>
      <trkpt lat="42.63189" lon="-2.87575">
        <ele>515</ele>
        <time>2023-06-14T20:20:30.000+02:00</time>
      </trkpt>
      <trkpt lat="42.63184" lon="-2.87591">
        <ele>515.5</ele>
        <time>2023-06-14T20:20:32.000+02:00</time>
      </trkpt>
      <trkpt lat="42.63156" lon="-2.87649">
        <ele>516</ele>
        <time>2023-06-14T20:20:40.000+02:00</time>
      </trkpt>
      <trkpt lat="42.63154" lon="-2.8768">
        <ele>517</ele>
        <time>2023-06-14T20:20:43.000+02:00</time>
      </trkpt>
      <trkpt lat="42.63136" lon="-2.87777">
        <ele>517</ele>
        <time>2023-06-14T20:20:54.000+02:00</time>
      </trkpt>
      <trkpt lat="42.63133" lon="-2.87802">
        <ele>516.8</ele>
        <time>2023-06-14T20:20:57.000+02:00</time>
      </trkpt>
      <trkpt lat="42.63135" lon="-2.87809">
        <ele>516.8</ele>
        <time>2023-06-14T20:20:58.000+02:00</time>
      </trkpt>
      <trkpt lat="42.63138" lon="-2.87816">
        <ele>517</ele>
        <time>2023-06-14T20:20:59.000+02:00</time>
      </trkpt>
      <trkpt lat="42.6314" lon="-2.87817">
        <ele>517</ele>
        <time>2023-06-14T20:20:59.000+02:00</time>
      </trkpt>
      <trkpt lat="42.63151" lon="-2.87824">
        <ele>517</ele>
        <time>2023-06-14T20:21:01.000+02:00</time>
      </trkpt>
      <trkpt lat="42.63167" lon="-2.87835">
        <ele>517</ele>
        <time>2023-06-14T20:21:04.000+02:00</time>
      </trkpt>
      <trkpt lat="42.63193" lon="-2.87873">
        <ele>521.3</ele>
        <time>2023-06-14T20:21:10.000+02:00</time>
      </trkpt>
      <trkpt lat="42.63219" lon="-2.87922">
        <ele>522.8</ele>
        <time>2023-06-14T20:21:17.000+02:00</time>
      </trkpt>
      <trkpt lat="42.63222" lon="-2.87931">
        <ele>523.5</ele>
        <time>2023-06-14T20:21:18.000+02:00</time>
      </trkpt>
      <trkpt lat="42.63223" lon="-2.87941">
        <ele>524.3</ele>
        <time>2023-06-14T20:21:19.000+02:00</time>
      </trkpt>
      <trkpt lat="42.63221" lon="-2.87952">
        <ele>524.8</ele>
        <time>2023-06-14T20:21:20.000+02:00</time>
      </trkpt>
      <trkpt lat="42.63214" lon="-2.87974">
        <ele>526</ele>
        <time>2023-06-14T20:21:23.000+02:00</time>
      </trkpt>
      <trkpt lat="42.63213" lon="-2.87988">
        <ele>527</ele>
        <time>2023-06-14T20:21:24.000+02:00</time>
      </trkpt>
      <trkpt lat="42.63212" lon="-2.88001">
        <ele>528</ele>
        <time>2023-06-14T20:21:26.000+02:00</time>
      </trkpt>
      <trkpt lat="42.6321" lon="-2.88019">
        <ele>529.3</ele>
        <time>2023-06-14T20:21:28.000+02:00</time>
      </trkpt>
      <trkpt lat="42.63213" lon="-2.88033">
        <ele>530</ele>
        <time>2023-06-14T20:21:30.000+02:00</time>
      </trkpt>
      <trkpt lat="42.63217" lon="-2.88042">
        <ele>530.5</ele>
        <time>2023-06-14T20:21:31.000+02:00</time>
      </trkpt>
      <trkpt lat="42.63224" lon="-2.88053">
        <ele>531</ele>
        <time>2023-06-14T20:21:32.000+02:00</time>
      </trkpt>
      <trkpt lat="42.63237" lon="-2.88075">
        <ele>532</ele>
        <time>2023-06-14T20:21:36.000+02:00</time>
      </trkpt>
      <trkpt lat="42.63246" lon="-2.8812">
        <ele>537.8</ele>
        <time>2023-06-14T20:21:41.000+02:00</time>
      </trkpt>
      <trkpt lat="42.63248" lon="-2.88137">
        <ele>540.3</ele>
        <time>2023-06-14T20:21:43.000+02:00</time>
      </trkpt>
      <trkpt lat="42.63246" lon="-2.8815">
        <ele>542.5</ele>
        <time>2023-06-14T20:21:44.000+02:00</time>
      </trkpt>
      <trkpt lat="42.63241" lon="-2.88156">
        <ele>543.8</ele>
        <time>2023-06-14T20:21:45.000+02:00</time>
      </trkpt>
      <trkpt lat="42.63226" lon="-2.88161">
        <ele>545.5</ele>
        <time>2023-06-14T20:21:48.000+02:00</time>
      </trkpt>
      <trkpt lat="42.63174" lon="-2.88167">
        <ele>549.5</ele>
        <time>2023-06-14T20:21:55.000+02:00</time>
      </trkpt>
      <trkpt lat="42.63138" lon="-2.88174">
        <ele>553.3</ele>
        <time>2023-06-14T20:22:01.000+02:00</time>
      </trkpt>
      <trkpt lat="42.63124" lon="-2.88178">
        <ele>554.8</ele>
        <time>2023-06-14T20:22:03.000+02:00</time>
      </trkpt>
      <trkpt lat="42.63115" lon="-2.88183">
        <ele>556</ele>
        <time>2023-06-14T20:22:05.000+02:00</time>
      </trkpt>
      <trkpt lat="42.63105" lon="-2.88191">
        <ele>557.8</ele>
        <time>2023-06-14T20:22:07.000+02:00</time>
      </trkpt>
      <trkpt lat="42.63099" lon="-2.882">
        <ele>559.3</ele>
        <time>2023-06-14T20:22:08.000+02:00</time>
      </trkpt>
      <trkpt lat="42.63092" lon="-2.88214">
        <ele>561.3</ele>
        <time>2023-06-14T20:22:10.000+02:00</time>
      </trkpt>
      <trkpt lat="42.63087" lon="-2.88229">
        <ele>563.3</ele>
        <time>2023-06-14T20:22:12.000+02:00</time>
      </trkpt>
      <trkpt lat="42.63082" lon="-2.88248">
        <ele>565.8</ele>
        <time>2023-06-14T20:22:14.000+02:00</time>
      </trkpt>
      <trkpt lat="42.63082" lon="-2.88258">
        <ele>567</ele>
        <time>2023-06-14T20:22:15.000+02:00</time>
      </trkpt>
      <trkpt lat="42.63084" lon="-2.88287">
        <ele>570</ele>
        <time>2023-06-14T20:22:18.000+02:00</time>
      </trkpt>
      <trkpt lat="42.63089" lon="-2.88328">
        <ele>574.3</ele>
        <time>2023-06-14T20:22:23.000+02:00</time>
      </trkpt>
      <trkpt lat="42.63075" lon="-2.88387">
        <ele>581.5</ele>
        <time>2023-06-14T20:22:30.000+02:00</time>
      </trkpt>
      <trkpt lat="42.6307" lon="-2.88399">
        <ele>583.3</ele>
        <time>2023-06-14T20:22:31.000+02:00</time>
      </trkpt>
      <trkpt lat="42.63069" lon="-2.8841">
        <ele>584.5</ele>
        <time>2023-06-14T20:22:33.000+02:00</time>
      </trkpt>
      <trkpt lat="42.6307" lon="-2.88416">
        <ele>585</ele>
        <time>2023-06-14T20:22:34.000+02:00</time>
      </trkpt>
      <trkpt lat="42.63072" lon="-2.88425">
        <ele>585.5</ele>
        <time>2023-06-14T20:22:35.000+02:00</time>
      </trkpt>
      <trkpt lat="42.63083" lon="-2.88441">
        <ele>586</ele>
        <time>2023-06-14T20:22:38.000+02:00</time>
      </trkpt>
      <trkpt lat="42.63092" lon="-2.88457">
        <ele>586.8</ele>
        <time>2023-06-14T20:22:40.000+02:00</time>
      </trkpt>
      <trkpt lat="42.63094" lon="-2.88485">
        <ele>589</ele>
        <time>2023-06-14T20:22:43.000+02:00</time>
      </trkpt>
      <trkpt lat="42.63097" lon="-2.88496">
        <ele>589.5</ele>
        <time>2023-06-14T20:22:45.000+02:00</time>
      </trkpt>
      <trkpt lat="42.63099" lon="-2.88506">
        <ele>589.8</ele>
        <time>2023-06-14T20:22:46.000+02:00</time>
      </trkpt>
      <trkpt lat="42.631" lon="-2.88516">
        <ele>589.5</ele>
        <time>2023-06-14T20:22:47.000+02:00</time>
      </trkpt>
      <trkpt lat="42.63098" lon="-2.88527">
        <ele>589.5</ele>
        <time>2023-06-14T20:22:48.000+02:00</time>
      </trkpt>
      <trkpt lat="42.63091" lon="-2.88546">
        <ele>590</ele>
        <time>2023-06-14T20:22:51.000+02:00</time>
      </trkpt>
      <trkpt lat="42.63088" lon="-2.88553">
        <ele>590.3</ele>
        <time>2023-06-14T20:22:52.000+02:00</time>
      </trkpt>
      <trkpt lat="42.63068" lon="-2.88592">
        <ele>593</ele>
        <time>2023-06-14T20:22:58.000+02:00</time>
      </trkpt>
      <trkpt lat="42.63061" lon="-2.8861">
        <ele>594</ele>
        <time>2023-06-14T20:23:00.000+02:00</time>
      </trkpt>
      <trkpt lat="42.63055" lon="-2.8863">
        <ele>595</ele>
        <time>2023-06-14T20:23:03.000+02:00</time>
      </trkpt>
      <trkpt lat="42.63054" lon="-2.88638">
        <ele>595.3</ele>
        <time>2023-06-14T20:23:04.000+02:00</time>
      </trkpt>
      <trkpt lat="42.63054" lon="-2.88649">
        <ele>595.3</ele>
        <time>2023-06-14T20:23:06.000+02:00</time>
      </trkpt>
      <trkpt lat="42.63056" lon="-2.88659">
        <ele>595</ele>
        <time>2023-06-14T20:23:07.000+02:00</time>
      </trkpt>
      <trkpt lat="42.63073" lon="-2.8871">
        <ele>593</ele>
        <time>2023-06-14T20:23:13.000+02:00</time>
      </trkpt>
      <trkpt lat="42.63079" lon="-2.88734">
        <ele>592.5</ele>
        <time>2023-06-14T20:23:16.000+02:00</time>
      </trkpt>
      <trkpt lat="42.63081" lon="-2.88751">
        <ele>592.5</ele>
        <time>2023-06-14T20:23:18.000+02:00</time>
      </trkpt>
      <trkpt lat="42.6308" lon="-2.8876">
        <ele>592.3</ele>
        <time>2023-06-14T20:23:19.000+02:00</time>
      </trkpt>
      <trkpt lat="42.63079" lon="-2.88771">
        <ele>592.3</ele>
        <time>2023-06-14T20:23:20.000+02:00</time>
      </trkpt>
      <trkpt lat="42.63075" lon="-2.88786">
        <ele>592.5</ele>
        <time>2023-06-14T20:23:22.000+02:00</time>
      </trkpt>
      <trkpt lat="42.6307" lon="-2.88821">
        <ele>593</ele>
        <time>2023-06-14T20:23:26.000+02:00</time>
      </trkpt>
      <trkpt lat="42.6305" lon="-2.88878">
        <ele>596.8</ele>
        <time>2023-06-14T20:23:33.000+02:00</time>
      </trkpt>
      <trkpt lat="42.63047" lon="-2.88886">
        <ele>597</ele>
        <time>2023-06-14T20:23:34.000+02:00</time>
      </trkpt>
      <trkpt lat="42.63031" lon="-2.88943">
        <ele>598.5</ele>
        <time>2023-06-14T20:23:41.000+02:00</time>
      </trkpt>
      <trkpt lat="42.63009" lon="-2.8903">
        <ele>598.3</ele>
        <time>2023-06-14T20:23:51.000+02:00</time>
      </trkpt>
      <trkpt lat="42.63003" lon="-2.89046">
        <ele>598.5</ele>
        <time>2023-06-14T20:23:53.000+02:00</time>
      </trkpt>
      <trkpt lat="42.62994" lon="-2.89062">
        <ele>600.5</ele>
        <time>2023-06-14T20:23:56.000+02:00</time>
      </trkpt>
      <trkpt lat="42.62984" lon="-2.89084">
        <ele>603</ele>
        <time>2023-06-14T20:23:58.000+02:00</time>
      </trkpt>
      <trkpt lat="42.6298" lon="-2.89106">
        <ele>603.5</ele>
        <time>2023-06-14T20:24:01.000+02:00</time>
      </trkpt>
      <trkpt lat="42.62981" lon="-2.89139">
        <ele>602.3</ele>
        <time>2023-06-14T20:24:05.000+02:00</time>
      </trkpt>
      <trkpt lat="42.62982" lon="-2.89151">
        <ele>601.8</ele>
        <time>2023-06-14T20:24:06.000+02:00</time>
      </trkpt>
      <trkpt lat="42.62986" lon="-2.89169">
        <ele>600.8</ele>
        <time>2023-06-14T20:24:08.000+02:00</time>
      </trkpt>
      <trkpt lat="42.62987" lon="-2.89182">
        <ele>601.8</ele>
        <time>2023-06-14T20:24:10.000+02:00</time>
      </trkpt>
      <trkpt lat="42.62985" lon="-2.89202">
        <ele>603.3</ele>
        <time>2023-06-14T20:24:12.000+02:00</time>
      </trkpt>
      <trkpt lat="42.62983" lon="-2.89217">
        <ele>604.3</ele>
        <time>2023-06-14T20:24:14.000+02:00</time>
      </trkpt>
      <trkpt lat="42.6298" lon="-2.89226">
        <ele>605.3</ele>
        <time>2023-06-14T20:24:15.000+02:00</time>
      </trkpt>
      <trkpt lat="42.62964" lon="-2.89252">
        <ele>607.3</ele>
        <time>2023-06-14T20:24:19.000+02:00</time>
      </trkpt>
      <trkpt lat="42.62962" lon="-2.89259">
        <ele>608</ele>
        <time>2023-06-14T20:24:19.000+02:00</time>
      </trkpt>
      <trkpt lat="42.62961" lon="-2.89269">
        <ele>609</ele>
        <time>2023-06-14T20:24:20.000+02:00</time>
      </trkpt>
      <trkpt lat="42.62962" lon="-2.89279">
        <ele>609.8</ele>
        <time>2023-06-14T20:24:22.000+02:00</time>
      </trkpt>
      <trkpt lat="42.62964" lon="-2.89288">
        <ele>610.5</ele>
        <time>2023-06-14T20:24:23.000+02:00</time>
      </trkpt>
      <trkpt lat="42.62972" lon="-2.89311">
        <ele>612</ele>
        <time>2023-06-14T20:24:26.000+02:00</time>
      </trkpt>
      <trkpt lat="42.6298" lon="-2.89341">
        <ele>613.5</ele>
        <time>2023-06-14T20:24:29.000+02:00</time>
      </trkpt>
      <trkpt lat="42.62985" lon="-2.89363">
        <ele>613.8</ele>
        <time>2023-06-14T20:24:32.000+02:00</time>
      </trkpt>
      <trkpt lat="42.62994" lon="-2.89393">
        <ele>613.8</ele>
        <time>2023-06-14T20:24:35.000+02:00</time>
      </trkpt>
      <trkpt lat="42.62996" lon="-2.89404">
        <ele>614</ele>
        <time>2023-06-14T20:24:37.000+02:00</time>
      </trkpt>
      <trkpt lat="42.62995" lon="-2.8941">
        <ele>614.3</ele>
        <time>2023-06-14T20:24:38.000+02:00</time>
      </trkpt>
      <trkpt lat="42.62994" lon="-2.89416">
        <ele>614.5</ele>
        <time>2023-06-14T20:24:39.000+02:00</time>
      </trkpt>
      <trkpt lat="42.62984" lon="-2.89437">
        <ele>617</ele>
        <time>2023-06-14T20:24:42.000+02:00</time>
      </trkpt>
      <trkpt lat="42.62975" lon="-2.89454">
        <ele>619.3</ele>
        <time>2023-06-14T20:24:44.000+02:00</time>
      </trkpt>
      <trkpt lat="42.6296" lon="-2.89469">
        <ele>621.8</ele>
        <time>2023-06-14T20:24:47.000+02:00</time>
      </trkpt>
      <trkpt lat="42.6295" lon="-2.89475">
        <ele>623.3</ele>
        <time>2023-06-14T20:24:49.000+02:00</time>
      </trkpt>
      <trkpt lat="42.62939" lon="-2.89479">
        <ele>624.5</ele>
        <time>2023-06-14T20:24:50.000+02:00</time>
      </trkpt>
      <trkpt lat="42.62918" lon="-2.89478">
        <ele>626.3</ele>
        <time>2023-06-14T20:24:54.000+02:00</time>
      </trkpt>
      <trkpt lat="42.62898" lon="-2.89487">
        <ele>629</ele>
        <time>2023-06-14T20:24:57.000+02:00</time>
      </trkpt>
      <trkpt lat="42.62885" lon="-2.89491">
        <ele>631</ele>
        <time>2023-06-14T20:24:59.000+02:00</time>
      </trkpt>
      <trkpt lat="42.62874" lon="-2.89496">
        <ele>632.5</ele>
        <time>2023-06-14T20:25:01.000+02:00</time>
      </trkpt>
      <trkpt lat="42.62867" lon="-2.89494">
        <ele>633.3</ele>
        <time>2023-06-14T20:25:02.000+02:00</time>
      </trkpt>
      <trkpt lat="42.6286" lon="-2.89489">
        <ele>633.5</ele>
        <time>2023-06-14T20:25:03.000+02:00</time>
      </trkpt>
      <trkpt lat="42.62845" lon="-2.89477">
        <ele>634</ele>
        <time>2023-06-14T20:25:06.000+02:00</time>
      </trkpt>
      <trkpt lat="42.62834" lon="-2.89471">
        <ele>634.8</ele>
        <time>2023-06-14T20:25:07.000+02:00</time>
      </trkpt>
      <trkpt lat="42.62824" lon="-2.89468">
        <ele>637.5</ele>
        <time>2023-06-14T20:25:09.000+02:00</time>
      </trkpt>
      <trkpt lat="42.62816" lon="-2.89464">
        <ele>639.8</ele>
        <time>2023-06-14T20:25:10.000+02:00</time>
      </trkpt>
      <trkpt lat="42.62809" lon="-2.89458">
        <ele>641.3</ele>
        <time>2023-06-14T20:25:12.000+02:00</time>
      </trkpt>
      <trkpt lat="42.62805" lon="-2.8945">
        <ele>642</ele>
        <time>2023-06-14T20:25:13.000+02:00</time>
      </trkpt>
      <trkpt lat="42.62803" lon="-2.89448">
        <ele>642.3</ele>
        <time>2023-06-14T20:25:14.000+02:00</time>
      </trkpt>
      <trkpt lat="42.62799" lon="-2.89435">
        <ele>642.5</ele>
        <time>2023-06-14T20:25:16.000+02:00</time>
      </trkpt>
      <trkpt lat="42.62796" lon="-2.8942">
        <ele>642.3</ele>
        <time>2023-06-14T20:25:17.000+02:00</time>
      </trkpt>
      <trkpt lat="42.62796" lon="-2.89388">
        <ele>641.8</ele>
        <time>2023-06-14T20:25:21.000+02:00</time>
      </trkpt>
      <trkpt lat="42.62784" lon="-2.8932">
        <ele>645.8</ele>
        <time>2023-06-14T20:25:29.000+02:00</time>
      </trkpt>
      <trkpt lat="42.62778" lon="-2.89303">
        <ele>647.3</ele>
        <time>2023-06-14T20:25:31.000+02:00</time>
      </trkpt>
      <trkpt lat="42.6275" lon="-2.89243">
        <ele>652.8</ele>
        <time>2023-06-14T20:25:39.000+02:00</time>
      </trkpt>
      <trkpt lat="42.62742" lon="-2.89226">
        <ele>656</ele>
        <time>2023-06-14T20:25:41.000+02:00</time>
      </trkpt>
      <trkpt lat="42.62732" lon="-2.89209">
        <ele>658.5</ele>
        <time>2023-06-14T20:25:44.000+02:00</time>
      </trkpt>
      <trkpt lat="42.62723" lon="-2.89199">
        <ele>659.3</ele>
        <time>2023-06-14T20:25:45.000+02:00</time>
      </trkpt>
      <trkpt lat="42.62704" lon="-2.89188">
        <ele>659.5</ele>
        <time>2023-06-14T20:25:49.000+02:00</time>
      </trkpt>
      <trkpt lat="42.62695" lon="-2.89185">
        <ele>659.3</ele>
        <time>2023-06-14T20:25:50.000+02:00</time>
      </trkpt>
      <trkpt lat="42.62682" lon="-2.89184">
        <ele>659</ele>
        <time>2023-06-14T20:25:52.000+02:00</time>
      </trkpt>
      <trkpt lat="42.62652" lon="-2.89188">
        <ele>663.3</ele>
        <time>2023-06-14T20:25:57.000+02:00</time>
      </trkpt>
      <trkpt lat="42.62644" lon="-2.89185">
        <ele>664</ele>
        <time>2023-06-14T20:25:58.000+02:00</time>
      </trkpt>
      <trkpt lat="42.62637" lon="-2.89176">
        <ele>663.3</ele>
        <time>2023-06-14T20:25:59.000+02:00</time>
      </trkpt>
      <trkpt lat="42.62625" lon="-2.8915">
        <ele>664.5</ele>
        <time>2023-06-14T20:26:03.000+02:00</time>
      </trkpt>
      <trkpt lat="42.62613" lon="-2.89122">
        <ele>666.8</ele>
        <time>2023-06-14T20:26:06.000+02:00</time>
      </trkpt>
      <trkpt lat="42.62604" lon="-2.89102">
        <ele>667.3</ele>
        <time>2023-06-14T20:26:09.000+02:00</time>
      </trkpt>
      <trkpt lat="42.62596" lon="-2.89091">
        <ele>667.3</ele>
        <time>2023-06-14T20:26:11.000+02:00</time>
      </trkpt>
      <trkpt lat="42.62589" lon="-2.89085">
        <ele>667</ele>
        <time>2023-06-14T20:26:12.000+02:00</time>
      </trkpt>
      <trkpt lat="42.62581" lon="-2.8908">
        <ele>667.5</ele>
        <time>2023-06-14T20:26:13.000+02:00</time>
      </trkpt>
      <trkpt lat="42.62573" lon="-2.89077">
        <ele>668.5</ele>
        <time>2023-06-14T20:26:15.000+02:00</time>
      </trkpt>
      <trkpt lat="42.62566" lon="-2.89078">
        <ele>669.3</ele>
        <time>2023-06-14T20:26:16.000+02:00</time>
      </trkpt>
      <trkpt lat="42.62558" lon="-2.89081">
        <ele>669.8</ele>
        <time>2023-06-14T20:26:17.000+02:00</time>
      </trkpt>
      <trkpt lat="42.62549" lon="-2.89087">
        <ele>670.8</ele>
        <time>2023-06-14T20:26:19.000+02:00</time>
      </trkpt>
      <trkpt lat="42.62532" lon="-2.89102">
        <ele>673.5</ele>
        <time>2023-06-14T20:26:22.000+02:00</time>
      </trkpt>
      <trkpt lat="42.6252" lon="-2.89111">
        <ele>675.3</ele>
        <time>2023-06-14T20:26:24.000+02:00</time>
      </trkpt>
      <trkpt lat="42.62505" lon="-2.89116">
        <ele>677</ele>
        <time>2023-06-14T20:26:26.000+02:00</time>
      </trkpt>
      <trkpt lat="42.62495" lon="-2.89115">
        <ele>677.5</ele>
        <time>2023-06-14T20:26:28.000+02:00</time>
      </trkpt>
      <trkpt lat="42.62446" lon="-2.89094">
        <ele>677.8</ele>
        <time>2023-06-14T20:26:35.000+02:00</time>
      </trkpt>
      <trkpt lat="42.62433" lon="-2.89096">
        <ele>678.3</ele>
        <time>2023-06-14T20:26:37.000+02:00</time>
      </trkpt>
      <trkpt lat="42.62425" lon="-2.89101">
        <ele>679</ele>
        <time>2023-06-14T20:26:39.000+02:00</time>
      </trkpt>
      <trkpt lat="42.62412" lon="-2.89113">
        <ele>681</ele>
        <time>2023-06-14T20:26:41.000+02:00</time>
      </trkpt>
      <trkpt lat="42.62402" lon="-2.89124">
        <ele>683.5</ele>
        <time>2023-06-14T20:26:43.000+02:00</time>
      </trkpt>
      <trkpt lat="42.6239" lon="-2.89144">
        <ele>686.5</ele>
        <time>2023-06-14T20:26:46.000+02:00</time>
      </trkpt>
      <trkpt lat="42.62379" lon="-2.89167">
        <ele>689</ele>
        <time>2023-06-14T20:26:49.000+02:00</time>
      </trkpt>
      <trkpt lat="42.62349" lon="-2.8922">
        <ele>694.3</ele>
        <time>2023-06-14T20:26:57.000+02:00</time>
      </trkpt>
      <trkpt lat="42.62332" lon="-2.89247">
        <ele>695.3</ele>
        <time>2023-06-14T20:27:01.000+02:00</time>
      </trkpt>
      <trkpt lat="42.6232" lon="-2.89272">
        <ele>699.8</ele>
        <time>2023-06-14T20:27:04.000+02:00</time>
      </trkpt>
      <trkpt lat="42.62281" lon="-2.89322">
        <ele>707.5</ele>
        <time>2023-06-14T20:27:12.000+02:00</time>
      </trkpt>
      <trkpt lat="42.62262" lon="-2.89366">
        <ele>711.3</ele>
        <time>2023-06-14T20:27:18.000+02:00</time>
      </trkpt>
      <trkpt lat="42.62255" lon="-2.89378">
        <ele>711.5</ele>
        <time>2023-06-14T20:27:20.000+02:00</time>
      </trkpt>
      <trkpt lat="42.62248" lon="-2.89383">
        <ele>711.5</ele>
        <time>2023-06-14T20:27:21.000+02:00</time>
      </trkpt>
      <trkpt lat="42.62235" lon="-2.89391">
        <ele>712.8</ele>
        <time>2023-06-14T20:27:23.000+02:00</time>
      </trkpt>
      <trkpt lat="42.62218" lon="-2.89399">
        <ele>714</ele>
        <time>2023-06-14T20:27:26.000+02:00</time>
      </trkpt>
      <trkpt lat="42.62195" lon="-2.8941">
        <ele>715</ele>
        <time>2023-06-14T20:27:30.000+02:00</time>
      </trkpt>
      <trkpt lat="42.62179" lon="-2.89415">
        <ele>715.5</ele>
        <time>2023-06-14T20:27:32.000+02:00</time>
      </trkpt>
      <trkpt lat="42.62168" lon="-2.89413">
        <ele>716</ele>
        <time>2023-06-14T20:27:34.000+02:00</time>
      </trkpt>
      <trkpt lat="42.62155" lon="-2.89406">
        <ele>714.5</ele>
        <time>2023-06-14T20:27:36.000+02:00</time>
      </trkpt>
      <trkpt lat="42.6214" lon="-2.89398">
        <ele>712</ele>
        <time>2023-06-14T20:27:38.000+02:00</time>
      </trkpt>
      <trkpt lat="42.62131" lon="-2.89397">
        <ele>710.5</ele>
        <time>2023-06-14T20:27:40.000+02:00</time>
      </trkpt>
      <trkpt lat="42.62124" lon="-2.89398">
        <ele>709</ele>
        <time>2023-06-14T20:27:41.000+02:00</time>
      </trkpt>
      <trkpt lat="42.62119" lon="-2.89396">
        <ele>708</ele>
        <time>2023-06-14T20:27:42.000+02:00</time>
      </trkpt>
      <trkpt lat="42.62113" lon="-2.89392">
        <ele>707</ele>
        <time>2023-06-14T20:27:43.000+02:00</time>
      </trkpt>
      <trkpt lat="42.62108" lon="-2.89385">
        <ele>706.3</ele>
        <time>2023-06-14T20:27:44.000+02:00</time>
      </trkpt>
      <trkpt lat="42.62106" lon="-2.8938">
        <ele>706</ele>
        <time>2023-06-14T20:27:44.000+02:00</time>
      </trkpt>
      <trkpt lat="42.62104" lon="-2.89373">
        <ele>705.8</ele>
        <time>2023-06-14T20:27:45.000+02:00</time>
      </trkpt>
      <trkpt lat="42.62097" lon="-2.89344">
        <ele>705</ele>
        <time>2023-06-14T20:27:49.000+02:00</time>
      </trkpt>
      <trkpt lat="42.62081" lon="-2.89277">
        <ele>711</ele>
        <time>2023-06-14T20:27:56.000+02:00</time>
      </trkpt>
      <trkpt lat="42.62071" lon="-2.89245">
        <ele>712.3</ele>
        <time>2023-06-14T20:28:00.000+02:00</time>
      </trkpt>
      <trkpt lat="42.62064" lon="-2.8923">
        <ele>711.3</ele>
        <time>2023-06-14T20:28:02.000+02:00</time>
      </trkpt>
      <trkpt lat="42.62057" lon="-2.89219">
        <ele>709.5</ele>
        <time>2023-06-14T20:28:04.000+02:00</time>
      </trkpt>
      <trkpt lat="42.62041" lon="-2.89203">
        <ele>705</ele>
        <time>2023-06-14T20:28:07.000+02:00</time>
      </trkpt>
      <trkpt lat="42.62022" lon="-2.89191">
        <ele>698.8</ele>
        <time>2023-06-14T20:28:10.000+02:00</time>
      </trkpt>
      <trkpt lat="42.62006" lon="-2.89186">
        <ele>692.8</ele>
        <time>2023-06-14T20:28:13.000+02:00</time>
      </trkpt>
      <trkpt lat="42.61988" lon="-2.89185">
        <ele>688.3</ele>
        <time>2023-06-14T20:28:15.000+02:00</time>
      </trkpt>
      <trkpt lat="42.61971" lon="-2.89181">
        <ele>685.8</ele>
        <time>2023-06-14T20:28:18.000+02:00</time>
      </trkpt>
      <trkpt lat="42.61961" lon="-2.89168">
        <ele>685.5</ele>
        <time>2023-06-14T20:28:20.000+02:00</time>
      </trkpt>
      <trkpt lat="42.61954" lon="-2.89149">
        <ele>686</ele>
        <time>2023-06-14T20:28:23.000+02:00</time>
      </trkpt>
      <trkpt lat="42.61949" lon="-2.89129">
        <ele>686.8</ele>
        <time>2023-06-14T20:28:25.000+02:00</time>
      </trkpt>
      <trkpt lat="42.61943" lon="-2.89111">
        <ele>687.3</ele>
        <time>2023-06-14T20:28:27.000+02:00</time>
      </trkpt>
      <trkpt lat="42.61941" lon="-2.89109">
        <ele>687</ele>
        <time>2023-06-14T20:28:28.000+02:00</time>
      </trkpt>
      <trkpt lat="42.61943" lon="-2.89111">
        <ele>687.3</ele>
        <time>2023-06-14T20:28:29.000+02:00</time>
      </trkpt>
      <trkpt lat="42.61942" lon="-2.89122">
        <ele>686.3</ele>
        <time>2023-06-14T20:28:30.000+02:00</time>
      </trkpt>
      <trkpt lat="42.61942" lon="-2.89143">
        <ele>684.3</ele>
        <time>2023-06-14T20:28:33.000+02:00</time>
      </trkpt>
      <trkpt lat="42.61944" lon="-2.89159">
        <ele>683.5</ele>
        <time>2023-06-14T20:28:34.000+02:00</time>
      </trkpt>
      <trkpt lat="42.61949" lon="-2.89171">
        <ele>683</ele>
        <time>2023-06-14T20:28:36.000+02:00</time>
      </trkpt>
      <trkpt lat="42.61956" lon="-2.89184">
        <ele>682.8</ele>
        <time>2023-06-14T20:28:38.000+02:00</time>
      </trkpt>
      <trkpt lat="42.61962" lon="-2.89196">
        <ele>682.3</ele>
        <time>2023-06-14T20:28:39.000+02:00</time>
      </trkpt>
      <trkpt lat="42.61973" lon="-2.89204">
        <ele>683</ele>
        <time>2023-06-14T20:28:41.000+02:00</time>
      </trkpt>
      <trkpt lat="42.61999" lon="-2.89225">
        <ele>685</ele>
        <time>2023-06-14T20:28:46.000+02:00</time>
      </trkpt>
      <trkpt lat="42.62014" lon="-2.89244">
        <ele>688.5</ele>
        <time>2023-06-14T20:28:49.000+02:00</time>
      </trkpt>
      <trkpt lat="42.62023" lon="-2.89258">
        <ele>690.5</ele>
        <time>2023-06-14T20:28:51.000+02:00</time>
      </trkpt>
      <trkpt lat="42.62031" lon="-2.89277">
        <ele>692</ele>
        <time>2023-06-14T20:28:54.000+02:00</time>
      </trkpt>
      <trkpt lat="42.62035" lon="-2.89303">
        <ele>690.8</ele>
        <time>2023-06-14T20:28:57.000+02:00</time>
      </trkpt>
      <trkpt lat="42.62037" lon="-2.8933">
        <ele>688.5</ele>
        <time>2023-06-14T20:29:00.000+02:00</time>
      </trkpt>
      <trkpt lat="42.62042" lon="-2.89371">
        <ele>691</ele>
        <time>2023-06-14T20:29:04.000+02:00</time>
      </trkpt>
      <trkpt lat="42.62045" lon="-2.89391">
        <ele>692.5</ele>
        <time>2023-06-14T20:29:07.000+02:00</time>
      </trkpt>
      <trkpt lat="42.62046" lon="-2.89393">
        <ele>692.8</ele>
        <time>2023-06-14T20:29:07.000+02:00</time>
      </trkpt>
      <trkpt lat="42.62043" lon="-2.89401">
        <ele>692.5</ele>
        <time>2023-06-14T20:29:08.000+02:00</time>
      </trkpt>
      <trkpt lat="42.62038" lon="-2.89388">
        <ele>690.8</ele>
        <time>2023-06-14T20:29:09.000+02:00</time>
      </trkpt>
      <trkpt lat="42.62031" lon="-2.89362">
        <ele>687.8</ele>
        <time>2023-06-14T20:29:13.000+02:00</time>
      </trkpt>
      <trkpt lat="42.62016" lon="-2.89324">
        <ele>682.3</ele>
        <time>2023-06-14T20:29:17.000+02:00</time>
      </trkpt>
      <trkpt lat="42.62008" lon="-2.89299">
        <ele>681.5</ele>
        <time>2023-06-14T20:29:20.000+02:00</time>
      </trkpt>
      <trkpt lat="42.61995" lon="-2.89281">
        <ele>679.3</ele>
        <time>2023-06-14T20:29:23.000+02:00</time>
      </trkpt>
      <trkpt lat="42.61985" lon="-2.89271">
        <ele>678.3</ele>
        <time>2023-06-14T20:29:25.000+02:00</time>
      </trkpt>
      <trkpt lat="42.61971" lon="-2.8926">
        <ele>676.5</ele>
        <time>2023-06-14T20:29:28.000+02:00</time>
      </trkpt>
      <trkpt lat="42.6196" lon="-2.89256">
        <ele>674.5</ele>
        <time>2023-06-14T20:29:29.000+02:00</time>
      </trkpt>
      <trkpt lat="42.6194" lon="-2.8925">
        <ele>671</ele>
        <time>2023-06-14T20:29:33.000+02:00</time>
      </trkpt>
      <trkpt lat="42.61927" lon="-2.89248">
        <ele>669</ele>
        <time>2023-06-14T20:29:35.000+02:00</time>
      </trkpt>
      <trkpt lat="42.61923" lon="-2.89253">
        <ele>668</ele>
        <time>2023-06-14T20:29:36.000+02:00</time>
      </trkpt>
      <trkpt lat="42.61916" lon="-2.89273">
        <ele>667.3</ele>
        <time>2023-06-14T20:29:39.000+02:00</time>
      </trkpt>
      <trkpt lat="42.6191" lon="-2.89301">
        <ele>668.3</ele>
        <time>2023-06-14T20:29:42.000+02:00</time>
      </trkpt>
      <trkpt lat="42.61904" lon="-2.89302">
        <ele>668.5</ele>
        <time>2023-06-14T20:29:43.000+02:00</time>
      </trkpt>
      <trkpt lat="42.61886" lon="-2.89291">
        <ele>667.8</ele>
        <time>2023-06-14T20:29:46.000+02:00</time>
      </trkpt>
      <trkpt lat="42.61838" lon="-2.89253">
        <ele>658.3</ele>
        <time>2023-06-14T20:29:55.000+02:00</time>
      </trkpt>
      <trkpt lat="42.61784" lon="-2.89211">
        <ele>657.8</ele>
        <time>2023-06-14T20:30:04.000+02:00</time>
      </trkpt>
      <trkpt lat="42.61738" lon="-2.89179">
        <ele>653.3</ele>
        <time>2023-06-14T20:30:12.000+02:00</time>
      </trkpt>
      <trkpt lat="42.61732" lon="-2.89173">
        <ele>651.8</ele>
        <time>2023-06-14T20:30:13.000+02:00</time>
      </trkpt>
      <trkpt lat="42.61724" lon="-2.89166">
        <ele>650</ele>
        <time>2023-06-14T20:30:15.000+02:00</time>
      </trkpt>
      <trkpt lat="42.61708" lon="-2.89151">
        <ele>648.8</ele>
        <time>2023-06-14T20:30:18.000+02:00</time>
      </trkpt>
      <trkpt lat="42.61671" lon="-2.89139">
        <ele>643</ele>
        <time>2023-06-14T20:30:23.000+02:00</time>
      </trkpt>
      <trkpt lat="42.61641" lon="-2.89119">
        <ele>639.8</ele>
        <time>2023-06-14T20:30:28.000+02:00</time>
      </trkpt>
      <trkpt lat="42.61624" lon="-2.89097">
        <ele>636.3</ele>
        <time>2023-06-14T20:30:32.000+02:00</time>
      </trkpt>
      <trkpt lat="42.61599" lon="-2.89074">
        <ele>630.5</ele>
        <time>2023-06-14T20:30:37.000+02:00</time>
      </trkpt>
      <trkpt lat="42.61585" lon="-2.89063">
        <ele>627.5</ele>
        <time>2023-06-14T20:30:39.000+02:00</time>
      </trkpt>
      <trkpt lat="42.61571" lon="-2.8904">
        <ele>626</ele>
        <time>2023-06-14T20:30:43.000+02:00</time>
      </trkpt>
      <trkpt lat="42.61551" lon="-2.89015">
        <ele>623.8</ele>
        <time>2023-06-14T20:30:47.000+02:00</time>
      </trkpt>
      <trkpt lat="42.6154" lon="-2.89012">
        <ele>622.8</ele>
        <time>2023-06-14T20:30:48.000+02:00</time>
      </trkpt>
      <trkpt lat="42.61529" lon="-2.8901">
        <ele>622</ele>
        <time>2023-06-14T20:30:50.000+02:00</time>
      </trkpt>
      <trkpt lat="42.61504" lon="-2.88977">
        <ele>617.8</ele>
        <time>2023-06-14T20:30:55.000+02:00</time>
      </trkpt>
      <trkpt lat="42.61479" lon="-2.88961">
        <ele>615.8</ele>
        <time>2023-06-14T20:31:00.000+02:00</time>
      </trkpt>
      <trkpt lat="42.6146" lon="-2.88955">
        <ele>614.3</ele>
        <time>2023-06-14T20:31:03.000+02:00</time>
      </trkpt>
      <trkpt lat="42.61442" lon="-2.88943">
        <ele>612.5</ele>
        <time>2023-06-14T20:31:06.000+02:00</time>
      </trkpt>
      <trkpt lat="42.61425" lon="-2.88938">
        <ele>611</ele>
        <time>2023-06-14T20:31:08.000+02:00</time>
      </trkpt>
      <trkpt lat="42.61407" lon="-2.88925">
        <ele>608</ele>
        <time>2023-06-14T20:31:11.000+02:00</time>
      </trkpt>
      <trkpt lat="42.61388" lon="-2.8891">
        <ele>605.3</ele>
        <time>2023-06-14T20:31:15.000+02:00</time>
      </trkpt>
      <trkpt lat="42.6137" lon="-2.88905">
        <ele>603.3</ele>
        <time>2023-06-14T20:31:18.000+02:00</time>
      </trkpt>
      <trkpt lat="42.61358" lon="-2.8889">
        <ele>601.5</ele>
        <time>2023-06-14T20:31:20.000+02:00</time>
      </trkpt>
      <trkpt lat="42.61265" lon="-2.88806">
        <ele>589.8</ele>
        <time>2023-06-14T20:31:37.000+02:00</time>
      </trkpt>
      <trkpt lat="42.61226" lon="-2.88782">
        <ele>585.5</ele>
        <time>2023-06-14T20:31:44.000+02:00</time>
      </trkpt>
      <trkpt lat="42.61209" lon="-2.8878">
        <ele>584.5</ele>
        <time>2023-06-14T20:31:46.000+02:00</time>
      </trkpt>
      <trkpt lat="42.61187" lon="-2.88774">
        <ele>583</ele>
        <time>2023-06-14T20:31:50.000+02:00</time>
      </trkpt>
      <trkpt lat="42.61159" lon="-2.88762">
        <ele>581</ele>
        <time>2023-06-14T20:31:54.000+02:00</time>
      </trkpt>
      <trkpt lat="42.61154" lon="-2.88748">
        <ele>580</ele>
        <time>2023-06-14T20:31:56.000+02:00</time>
      </trkpt>
      <trkpt lat="42.61143" lon="-2.88722">
        <ele>579</ele>
        <time>2023-06-14T20:31:59.000+02:00</time>
      </trkpt>
      <trkpt lat="42.61131" lon="-2.88712">
        <ele>578</ele>
        <time>2023-06-14T20:32:02.000+02:00</time>
      </trkpt>
      <trkpt lat="42.61123" lon="-2.88706">
        <ele>577.5</ele>
        <time>2023-06-14T20:32:03.000+02:00</time>
      </trkpt>
      <trkpt lat="42.61114" lon="-2.88699">
        <ele>576.8</ele>
        <time>2023-06-14T20:32:05.000+02:00</time>
      </trkpt>
      <trkpt lat="42.61083" lon="-2.88672">
        <ele>575</ele>
        <time>2023-06-14T20:32:10.000+02:00</time>
      </trkpt>
      <trkpt lat="42.61068" lon="-2.88654">
        <ele>574</ele>
        <time>2023-06-14T20:32:13.000+02:00</time>
      </trkpt>
      <trkpt lat="42.61064" lon="-2.88649">
        <ele>573.5</ele>
        <time>2023-06-14T20:32:14.000+02:00</time>
      </trkpt>
      <trkpt lat="42.61061" lon="-2.88645">
        <ele>573.5</ele>
        <time>2023-06-14T20:32:15.000+02:00</time>
      </trkpt>
      <trkpt lat="42.61057" lon="-2.88639">
        <ele>573.3</ele>
        <time>2023-06-14T20:32:16.000+02:00</time>
      </trkpt>
      <trkpt lat="42.61054" lon="-2.88643">
        <ele>573</ele>
        <time>2023-06-14T20:32:16.000+02:00</time>
      </trkpt>
      <trkpt lat="42.61037" lon="-2.88669">
        <ele>572.5</ele>
        <time>2023-06-14T20:32:20.000+02:00</time>
      </trkpt>
      <trkpt lat="42.61035" lon="-2.88675">
        <ele>572.3</ele>
        <time>2023-06-14T20:32:21.000+02:00</time>
      </trkpt>
      <trkpt lat="42.61032" lon="-2.88684">
        <ele>572</ele>
        <time>2023-06-14T20:32:22.000+02:00</time>
      </trkpt>
      <trkpt lat="42.61033" lon="-2.88718">
        <ele>570.8</ele>
        <time>2023-06-14T20:32:26.000+02:00</time>
      </trkpt>
      <trkpt lat="42.61024" lon="-2.88737">
        <ele>569.3</ele>
        <time>2023-06-14T20:32:28.000+02:00</time>
      </trkpt>
      <trkpt lat="42.61021" lon="-2.88755">
        <ele>568</ele>
        <time>2023-06-14T20:32:30.000+02:00</time>
      </trkpt>
      <trkpt lat="42.61019" lon="-2.88782">
        <ele>566.5</ele>
        <time>2023-06-14T20:32:33.000+02:00</time>
      </trkpt>
      <trkpt lat="42.61019" lon="-2.88793">
        <ele>566</ele>
        <time>2023-06-14T20:32:35.000+02:00</time>
      </trkpt>
      <trkpt lat="42.61017" lon="-2.88856">
        <ele>562.8</ele>
        <time>2023-06-14T20:32:42.000+02:00</time>
      </trkpt>
      <trkpt lat="42.61005" lon="-2.8895">
        <ele>559.3</ele>
        <time>2023-06-14T20:32:53.000+02:00</time>
      </trkpt>
      <trkpt lat="42.60984" lon="-2.88981">
        <ele>558</ele>
        <time>2023-06-14T20:32:57.000+02:00</time>
      </trkpt>
      <trkpt lat="42.60967" lon="-2.89003">
        <ele>557.3</ele>
        <time>2023-06-14T20:33:01.000+02:00</time>
      </trkpt>
      <trkpt lat="42.60943" lon="-2.89017">
        <ele>556.8</ele>
        <time>2023-06-14T20:33:05.000+02:00</time>
      </trkpt>
      <trkpt lat="42.60913" lon="-2.89027">
        <ele>556.3</ele>
        <time>2023-06-14T20:33:10.000+02:00</time>
      </trkpt>
      <trkpt lat="42.60878" lon="-2.89031">
        <ele>556.3</ele>
        <time>2023-06-14T20:33:15.000+02:00</time>
      </trkpt>
      <trkpt lat="42.60869" lon="-2.8903">
        <ele>556</ele>
        <time>2023-06-14T20:33:16.000+02:00</time>
      </trkpt>
      <trkpt lat="42.60857" lon="-2.89028">
        <ele>555.8</ele>
        <time>2023-06-14T20:33:18.000+02:00</time>
      </trkpt>
      <trkpt lat="42.60834" lon="-2.89048">
        <ele>557.5</ele>
        <time>2023-06-14T20:33:22.000+02:00</time>
      </trkpt>
      <trkpt lat="42.60823" lon="-2.89086">
        <ele>560.5</ele>
        <time>2023-06-14T20:33:27.000+02:00</time>
      </trkpt>
      <trkpt lat="42.60819" lon="-2.89136">
        <ele>562</ele>
        <time>2023-06-14T20:33:33.000+02:00</time>
      </trkpt>
      <trkpt lat="42.60829" lon="-2.89343">
        <ele>567.3</ele>
        <time>2023-06-14T20:33:56.000+02:00</time>
      </trkpt>
      <trkpt lat="42.60844" lon="-2.8947">
        <ele>566.5</ele>
        <time>2023-06-14T20:34:10.000+02:00</time>
      </trkpt>
      <trkpt lat="42.60852" lon="-2.89526">
        <ele>567.3</ele>
        <time>2023-06-14T20:34:17.000+02:00</time>
      </trkpt>
      <trkpt lat="42.60846" lon="-2.89572">
        <ele>567.3</ele>
        <time>2023-06-14T20:34:22.000+02:00</time>
      </trkpt>
      <trkpt lat="42.6084" lon="-2.89644">
        <ele>567.5</ele>
        <time>2023-06-14T20:34:30.000+02:00</time>
      </trkpt>
      <trkpt lat="42.60828" lon="-2.89673">
        <ele>566.5</ele>
        <time>2023-06-14T20:34:34.000+02:00</time>
      </trkpt>
      <trkpt lat="42.60805" lon="-2.897">
        <ele>565</ele>
        <time>2023-06-14T20:34:39.000+02:00</time>
      </trkpt>
      <trkpt lat="42.60804" lon="-2.89702">
        <ele>565</ele>
        <time>2023-06-14T20:34:40.000+02:00</time>
      </trkpt>
      <trkpt lat="42.60797" lon="-2.89731">
        <ele>565</ele>
        <time>2023-06-14T20:34:43.000+02:00</time>
      </trkpt>
      <trkpt lat="42.60791" lon="-2.89766">
        <ele>565.5</ele>
        <time>2023-06-14T20:34:47.000+02:00</time>
      </trkpt>
      <trkpt lat="42.60802" lon="-2.89824">
        <ele>568.8</ele>
        <time>2023-06-14T20:34:54.000+02:00</time>
      </trkpt>
      <trkpt lat="42.60808" lon="-2.89884">
        <ele>570</ele>
        <time>2023-06-14T20:35:01.000+02:00</time>
      </trkpt>
      <trkpt lat="42.60816" lon="-2.89944">
        <ele>571</ele>
        <time>2023-06-14T20:35:08.000+02:00</time>
      </trkpt>
      <trkpt lat="42.60814" lon="-2.8998">
        <ele>571.5</ele>
        <time>2023-06-14T20:35:12.000+02:00</time>
      </trkpt>
      <trkpt lat="42.60803" lon="-2.90042">
        <ele>573.5</ele>
        <time>2023-06-14T20:35:19.000+02:00</time>
      </trkpt>
      <trkpt lat="42.60799" lon="-2.90053">
        <ele>574</ele>
        <time>2023-06-14T20:35:20.000+02:00</time>
      </trkpt>
      <trkpt lat="42.60803" lon="-2.90072">
        <ele>575.3</ele>
        <time>2023-06-14T20:35:23.000+02:00</time>
      </trkpt>
      <trkpt lat="42.608" lon="-2.90098">
        <ele>576</ele>
        <time>2023-06-14T20:35:25.000+02:00</time>
      </trkpt>
      <trkpt lat="42.60796" lon="-2.90107">
        <ele>576.3</ele>
        <time>2023-06-14T20:35:27.000+02:00</time>
      </trkpt>
      <trkpt lat="42.60765" lon="-2.90146">
        <ele>576</ele>
        <time>2023-06-14T20:35:33.000+02:00</time>
      </trkpt>
      <trkpt lat="42.6075" lon="-2.90161">
        <ele>575.8</ele>
        <time>2023-06-14T20:35:36.000+02:00</time>
      </trkpt>
      <trkpt lat="42.6072" lon="-2.90345">
        <ele>573</ele>
        <time>2023-06-14T20:35:57.000+02:00</time>
      </trkpt>
      <trkpt lat="42.6072" lon="-2.90375">
        <ele>573</ele>
        <time>2023-06-14T20:36:01.000+02:00</time>
      </trkpt>
      <trkpt lat="42.60721" lon="-2.90421">
        <ele>573.3</ele>
        <time>2023-06-14T20:36:06.000+02:00</time>
      </trkpt>
      <trkpt lat="42.60715" lon="-2.90444">
        <ele>573.5</ele>
        <time>2023-06-14T20:36:09.000+02:00</time>
      </trkpt>
      <trkpt lat="42.60701" lon="-2.90472">
        <ele>573.8</ele>
        <time>2023-06-14T20:36:12.000+02:00</time>
      </trkpt>
      <trkpt lat="42.60682" lon="-2.90499">
        <ele>573.5</ele>
        <time>2023-06-14T20:36:17.000+02:00</time>
      </trkpt>
      <trkpt lat="42.60606" lon="-2.9059">
        <ele>573.5</ele>
        <time>2023-06-14T20:36:32.000+02:00</time>
      </trkpt>
      <trkpt lat="42.60583" lon="-2.9063">
        <ele>576.3</ele>
        <time>2023-06-14T20:36:38.000+02:00</time>
      </trkpt>
      <trkpt lat="42.60536" lon="-2.90719">
        <ele>585.3</ele>
        <time>2023-06-14T20:36:50.000+02:00</time>
      </trkpt>
      <trkpt lat="42.60525" lon="-2.90739">
        <ele>586.8</ele>
        <time>2023-06-14T20:36:53.000+02:00</time>
      </trkpt>
      <trkpt lat="42.60488" lon="-2.90805">
        <ele>585.5</ele>
        <time>2023-06-14T20:37:02.000+02:00</time>
      </trkpt>
      <trkpt lat="42.60432" lon="-2.9089">
        <ele>579.3</ele>
        <time>2023-06-14T20:37:15.000+02:00</time>
      </trkpt>
      <trkpt lat="42.60371" lon="-2.90989">
        <ele>572</ele>
        <time>2023-06-14T20:37:30.000+02:00</time>
      </trkpt>
      <trkpt lat="42.60363" lon="-2.91001">
        <ele>571.3</ele>
        <time>2023-06-14T20:37:31.000+02:00</time>
      </trkpt>
      <trkpt lat="42.60345" lon="-2.91025">
        <ele>570.3</ele>
        <time>2023-06-14T20:37:35.000+02:00</time>
      </trkpt>
      <trkpt lat="42.60303" lon="-2.91055">
        <ele>568.5</ele>
        <time>2023-06-14T20:37:42.000+02:00</time>
      </trkpt>
      <trkpt lat="42.60237" lon="-2.91089">
        <ele>565.5</ele>
        <time>2023-06-14T20:37:53.000+02:00</time>
      </trkpt>
      <trkpt lat="42.60182" lon="-2.9112">
        <ele>562.3</ele>
        <time>2023-06-14T20:38:02.000+02:00</time>
      </trkpt>
      <trkpt lat="42.60152" lon="-2.91146">
        <ele>559</ele>
        <time>2023-06-14T20:38:08.000+02:00</time>
      </trkpt>
      <trkpt lat="42.60141" lon="-2.91165">
        <ele>557.3</ele>
        <time>2023-06-14T20:38:10.000+02:00</time>
      </trkpt>
      <trkpt lat="42.60136" lon="-2.91199">
        <ele>555.8</ele>
        <time>2023-06-14T20:38:14.000+02:00</time>
      </trkpt>
      <trkpt lat="42.60133" lon="-2.91258">
        <ele>554.5</ele>
        <time>2023-06-14T20:38:21.000+02:00</time>
      </trkpt>
      <trkpt lat="42.60098" lon="-2.91233">
        <ele>554.2</ele>
        <time>2023-06-14T20:38:27.000+02:00</time>
      </trkpt>
      <trkpt lat="42.60063" lon="-2.91209">
        <ele>553.2</ele>
        <time>2023-06-14T20:38:33.000+02:00</time>
      </trkpt>
      <trkpt lat="42.59981" lon="-2.91147">
        <ele>550.5</ele>
        <time>2023-06-14T20:38:47.000+02:00</time>
      </trkpt>
      <trkpt lat="42.59899" lon="-2.91085">
        <ele>547.4</ele>
        <time>2023-06-14T20:39:02.000+02:00</time>
      </trkpt>
      <trkpt lat="42.59883" lon="-2.91072">
        <ele>547.2</ele>
        <time>2023-06-14T20:39:05.000+02:00</time>
      </trkpt>
      <trkpt lat="42.59799" lon="-2.91045">
        <ele>545.2</ele>
        <time>2023-06-14T20:39:18.000+02:00</time>
      </trkpt>
      <trkpt lat="42.59715" lon="-2.91017">
        <ele>543.1</ele>
        <time>2023-06-14T20:39:31.000+02:00</time>
      </trkpt>
      <trkpt lat="42.59692" lon="-2.91141">
        <ele>539.9</ele>
        <time>2023-06-14T20:39:45.000+02:00</time>
      </trkpt>
      <trkpt lat="42.59669" lon="-2.91264">
        <ele>536.6</ele>
        <time>2023-06-14T20:40:00.000+02:00</time>
      </trkpt>
      <trkpt lat="42.59646" lon="-2.91387">
        <ele>534.3</ele>
        <time>2023-06-14T20:40:14.000+02:00</time>
      </trkpt>
      <trkpt lat="42.59636" lon="-2.91438">
        <ele>532.3</ele>
        <time>2023-06-14T20:40:20.000+02:00</time>
      </trkpt>
      <trkpt lat="42.59626" lon="-2.91489">
        <ele>531.3</ele>
        <time>2023-06-14T20:40:26.000+02:00</time>
      </trkpt>
      <trkpt lat="42.59625" lon="-2.91505">
        <ele>530.8</ele>
        <time>2023-06-14T20:40:28.000+02:00</time>
      </trkpt>
      <trkpt lat="42.59623" lon="-2.91515">
        <ele>530.5</ele>
        <time>2023-06-14T20:40:29.000+02:00</time>
      </trkpt>
      <trkpt lat="42.59618" lon="-2.91521">
        <ele>530</ele>
        <time>2023-06-14T20:40:30.000+02:00</time>
      </trkpt>
      <trkpt lat="42.59603" lon="-2.91532">
        <ele>529</ele>
        <time>2023-06-14T20:40:32.000+02:00</time>
      </trkpt>
      <trkpt lat="42.59592" lon="-2.9154">
        <ele>528</ele>
        <time>2023-06-14T20:40:34.000+02:00</time>
      </trkpt>
      <trkpt lat="42.59395" lon="-2.91726">
        <ele>514.8</ele>
        <time>2023-06-14T20:41:11.000+02:00</time>
      </trkpt>
      <trkpt lat="42.59282" lon="-2.91833">
        <ele>513.3</ele>
        <time>2023-06-14T20:41:32.000+02:00</time>
      </trkpt>
      <trkpt lat="42.59262" lon="-2.91852">
        <ele>513.3</ele>
        <time>2023-06-14T20:41:36.000+02:00</time>
      </trkpt>
      <trkpt lat="42.59249" lon="-2.91856">
        <ele>514.5</ele>
        <time>2023-06-14T20:41:38.000+02:00</time>
      </trkpt>
      <trkpt lat="42.59247" lon="-2.91842">
        <ele>513</ele>
        <time>2023-06-14T20:41:39.000+02:00</time>
      </trkpt>
      <trkpt lat="42.5924" lon="-2.9182">
        <ele>511.3</ele>
        <time>2023-06-14T20:41:42.000+02:00</time>
      </trkpt>
      <trkpt lat="42.59228" lon="-2.91804">
        <ele>510.5</ele>
        <time>2023-06-14T20:41:45.000+02:00</time>
      </trkpt>
      <trkpt lat="42.59217" lon="-2.91792">
        <ele>509.8</ele>
        <time>2023-06-14T20:41:47.000+02:00</time>
      </trkpt>
      <trkpt lat="42.59207" lon="-2.91781">
        <ele>509</ele>
        <time>2023-06-14T20:41:49.000+02:00</time>
      </trkpt>
      <trkpt lat="42.59205" lon="-2.9178">
        <ele>509</ele>
        <time>2023-06-14T20:41:49.000+02:00</time>
      </trkpt>
      <trkpt lat="42.59199" lon="-2.91776">
        <ele>508.5</ele>
        <time>2023-06-14T20:41:50.000+02:00</time>
      </trkpt>
      <trkpt lat="42.59132" lon="-2.91752">
        <ele>505.8</ele>
        <time>2023-06-14T20:42:01.000+02:00</time>
      </trkpt>
      <trkpt lat="42.59082" lon="-2.91738">
        <ele>504.8</ele>
        <time>2023-06-14T20:42:08.000+02:00</time>
      </trkpt>
      <trkpt lat="42.58942" lon="-2.91694">
        <ele>501.3</ele>
        <time>2023-06-14T20:42:30.000+02:00</time>
      </trkpt>
      <trkpt lat="42.58924" lon="-2.91688">
        <ele>500.5</ele>
        <time>2023-06-14T20:42:33.000+02:00</time>
      </trkpt>
      <trkpt lat="42.58843" lon="-2.91683">
        <ele>500</ele>
        <time>2023-06-14T20:42:46.000+02:00</time>
      </trkpt>
      <trkpt lat="42.58645" lon="-2.91681">
        <ele>492</ele>
        <time>2023-06-14T20:43:16.000+02:00</time>
      </trkpt>
      <trkpt lat="42.58624" lon="-2.91681">
        <ele>491.3</ele>
        <time>2023-06-14T20:43:19.000+02:00</time>
      </trkpt>
      <trkpt lat="42.58625" lon="-2.91689">
        <ele>491</ele>
        <time>2023-06-14T20:43:20.000+02:00</time>
      </trkpt>
      <trkpt lat="42.58614" lon="-2.91739">
        <ele>489</ele>
        <time>2023-06-14T20:43:26.000+02:00</time>
      </trkpt>
      <trkpt lat="42.58595" lon="-2.91813">
        <ele>485.8</ele>
        <time>2023-06-14T20:43:35.000+02:00</time>
      </trkpt>
      <trkpt lat="42.58588" lon="-2.9185">
        <ele>484.3</ele>
        <time>2023-06-14T20:43:39.000+02:00</time>
      </trkpt>
      <trkpt lat="42.58584" lon="-2.91935">
        <ele>482</ele>
        <time>2023-06-14T20:43:49.000+02:00</time>
      </trkpt>
      <trkpt lat="42.5858" lon="-2.92028">
        <ele>482.3</ele>
        <time>2023-06-14T20:43:59.000+02:00</time>
      </trkpt>
      <trkpt lat="42.58578" lon="-2.92124">
        <ele>480.5</ele>
        <time>2023-06-14T20:44:10.000+02:00</time>
      </trkpt>
      <trkpt lat="42.58562" lon="-2.92203">
        <ele>481</ele>
        <time>2023-06-14T20:44:19.000+02:00</time>
      </trkpt>
      <trkpt lat="42.58558" lon="-2.92237">
        <ele>481.5</ele>
        <time>2023-06-14T20:44:23.000+02:00</time>
      </trkpt>
      <trkpt lat="42.58557" lon="-2.92286">
        <ele>481.5</ele>
        <time>2023-06-14T20:44:28.000+02:00</time>
      </trkpt>
      <trkpt lat="42.58542" lon="-2.92413">
        <ele>481.8</ele>
        <time>2023-06-14T20:44:43.000+02:00</time>
      </trkpt>
      <trkpt lat="42.58526" lon="-2.92559">
        <ele>483.3</ele>
        <time>2023-06-14T20:44:59.000+02:00</time>
      </trkpt>
      <trkpt lat="42.58524" lon="-2.92913">
        <ele>486.5</ele>
        <time>2023-06-14T20:45:39.000+02:00</time>
      </trkpt>
      <trkpt lat="42.58466" lon="-2.93268">
        <ele>507.8</ele>
        <time>2023-06-14T20:46:20.000+02:00</time>
      </trkpt>
      <trkpt lat="42.5846" lon="-2.93287">
        <ele>509.5</ele>
        <time>2023-06-14T20:46:22.000+02:00</time>
      </trkpt>
      <trkpt lat="42.5845" lon="-2.93299">
        <ele>511</ele>
        <time>2023-06-14T20:46:25.000+02:00</time>
      </trkpt>
      <trkpt lat="42.58436" lon="-2.93308">
        <ele>512.3</ele>
        <time>2023-06-14T20:46:27.000+02:00</time>
      </trkpt>
      <trkpt lat="42.5842" lon="-2.93308">
        <ele>513.3</ele>
        <time>2023-06-14T20:46:29.000+02:00</time>
      </trkpt>
      <trkpt lat="42.58406" lon="-2.93319">
        <ele>514.8</ele>
        <time>2023-06-14T20:46:32.000+02:00</time>
      </trkpt>
      <trkpt lat="42.58395" lon="-2.93336">
        <ele>516.5</ele>
        <time>2023-06-14T20:46:34.000+02:00</time>
      </trkpt>
      <trkpt lat="42.58388" lon="-2.93359">
        <ele>519.3</ele>
        <time>2023-06-14T20:46:37.000+02:00</time>
      </trkpt>
      <trkpt lat="42.58383" lon="-2.93378">
        <ele>521.5</ele>
        <time>2023-06-14T20:46:39.000+02:00</time>
      </trkpt>
      <trkpt lat="42.58382" lon="-2.93398">
        <ele>523.5</ele>
        <time>2023-06-14T20:46:42.000+02:00</time>
      </trkpt>
      <trkpt lat="42.58383" lon="-2.93473">
        <ele>526</ele>
        <time>2023-06-14T20:46:50.000+02:00</time>
      </trkpt>
      <trkpt lat="42.58384" lon="-2.93486">
        <ele>526.3</ele>
        <time>2023-06-14T20:46:52.000+02:00</time>
      </trkpt>
      <trkpt lat="42.58405" lon="-2.93689">
        <ele>523.8</ele>
        <time>2023-06-14T20:47:15.000+02:00</time>
      </trkpt>
      <trkpt lat="42.58412" lon="-2.93731">
        <ele>524.5</ele>
        <time>2023-06-14T20:47:19.000+02:00</time>
      </trkpt>
      <trkpt lat="42.58414" lon="-2.9374">
        <ele>524.8</ele>
        <time>2023-06-14T20:47:21.000+02:00</time>
      </trkpt>
      <trkpt lat="42.58416" lon="-2.93747">
        <ele>524.8</ele>
        <time>2023-06-14T20:47:22.000+02:00</time>
      </trkpt>
      <trkpt lat="42.58423" lon="-2.93766">
        <ele>525</ele>
        <time>2023-06-14T20:47:25.000+02:00</time>
      </trkpt>
      <trkpt lat="42.58458" lon="-2.93847">
        <ele>526.5</ele>
        <time>2023-06-14T20:47:35.000+02:00</time>
      </trkpt>
      <trkpt lat="42.58467" lon="-2.93869">
        <ele>526.8</ele>
        <time>2023-06-14T20:47:38.000+02:00</time>
      </trkpt>
      <trkpt lat="42.58469" lon="-2.93877">
        <ele>526.8</ele>
        <time>2023-06-14T20:47:39.000+02:00</time>
      </trkpt>
      <trkpt lat="42.58469" lon="-2.93886">
        <ele>526.5</ele>
        <time>2023-06-14T20:47:40.000+02:00</time>
      </trkpt>
      <trkpt lat="42.58465" lon="-2.93897">
        <ele>526</ele>
        <time>2023-06-14T20:47:42.000+02:00</time>
      </trkpt>
      <trkpt lat="42.58463" lon="-2.93904">
        <ele>525.5</ele>
        <time>2023-06-14T20:47:43.000+02:00</time>
      </trkpt>
      <trkpt lat="42.58452" lon="-2.93931">
        <ele>523.8</ele>
        <time>2023-06-14T20:47:47.000+02:00</time>
      </trkpt>
      <trkpt lat="42.58444" lon="-2.93956">
        <ele>522.3</ele>
        <time>2023-06-14T20:47:50.000+02:00</time>
      </trkpt>
      <trkpt lat="42.58443" lon="-2.93969">
        <ele>521.8</ele>
        <time>2023-06-14T20:47:51.000+02:00</time>
      </trkpt>
      <trkpt lat="42.58444" lon="-2.93988">
        <ele>521.3</ele>
        <time>2023-06-14T20:47:54.000+02:00</time>
      </trkpt>
      <trkpt lat="42.58444" lon="-2.94003">
        <ele>520.5</ele>
        <time>2023-06-14T20:47:55.000+02:00</time>
      </trkpt>
      <trkpt lat="42.58443" lon="-2.94013">
        <ele>519.8</ele>
        <time>2023-06-14T20:47:56.000+02:00</time>
      </trkpt>
      <trkpt lat="42.58437" lon="-2.94035">
        <ele>517.5</ele>
        <time>2023-06-14T20:47:59.000+02:00</time>
      </trkpt>
      <trkpt lat="42.5843" lon="-2.94052">
        <ele>515.8</ele>
        <time>2023-06-14T20:48:01.000+02:00</time>
      </trkpt>
      <trkpt lat="42.58414" lon="-2.94083">
        <ele>513</ele>
        <time>2023-06-14T20:48:05.000+02:00</time>
      </trkpt>
      <trkpt lat="42.58398" lon="-2.94112">
        <ele>511.5</ele>
        <time>2023-06-14T20:48:09.000+02:00</time>
      </trkpt>
      <trkpt lat="42.58381" lon="-2.94142">
        <ele>510.3</ele>
        <time>2023-06-14T20:48:14.000+02:00</time>
      </trkpt>
      <trkpt lat="42.58371" lon="-2.94161">
        <ele>509.5</ele>
        <time>2023-06-14T20:48:16.000+02:00</time>
      </trkpt>
      <trkpt lat="42.58367" lon="-2.94167">
        <ele>509.3</ele>
        <time>2023-06-14T20:48:17.000+02:00</time>
      </trkpt>
      <trkpt lat="42.58366" lon="-2.94166">
        <ele>509.3</ele>
        <time>2023-06-14T20:48:17.000+02:00</time>
      </trkpt>
      <trkpt lat="42.58367" lon="-2.94167">
        <ele>509.3</ele>
        <time>2023-06-14T20:48:18.000+02:00</time>
      </trkpt>
      <trkpt lat="42.58391" lon="-2.94198">
        <ele>510</ele>
        <time>2023-06-14T20:48:23.000+02:00</time>
      </trkpt>
      <trkpt lat="42.58465" lon="-2.94282">
        <ele>511.5</ele>
        <time>2023-06-14T20:48:37.000+02:00</time>
      </trkpt>
      <trkpt lat="42.58552" lon="-2.94378">
        <ele>512.8</ele>
        <time>2023-06-14T20:48:54.000+02:00</time>
      </trkpt>
      <trkpt lat="42.58607" lon="-2.94442">
        <ele>513</ele>
        <time>2023-06-14T20:49:06.000+02:00</time>
      </trkpt>
      <trkpt lat="42.58621" lon="-2.94455">
        <ele>513.5</ele>
        <time>2023-06-14T20:49:08.000+02:00</time>
      </trkpt>
      <trkpt lat="42.58635" lon="-2.94472">
        <ele>513.8</ele>
        <time>2023-06-14T20:49:11.000+02:00</time>
      </trkpt>
      <trkpt lat="42.58645" lon="-2.94494">
        <ele>513.5</ele>
        <time>2023-06-14T20:49:14.000+02:00</time>
      </trkpt>
      <trkpt lat="42.58653" lon="-2.9451">
        <ele>513</ele>
        <time>2023-06-14T20:49:16.000+02:00</time>
      </trkpt>
      <trkpt lat="42.58681" lon="-2.94544">
        <ele>512</ele>
        <time>2023-06-14T20:49:22.000+02:00</time>
      </trkpt>
      <trkpt lat="42.58691" lon="-2.94558">
        <ele>511.5</ele>
        <time>2023-06-14T20:49:24.000+02:00</time>
      </trkpt>
      <trkpt lat="42.58708" lon="-2.94591">
        <ele>510.8</ele>
        <time>2023-06-14T20:49:29.000+02:00</time>
      </trkpt>
      <trkpt lat="42.59117" lon="-2.94816">
        <ele>514.5</ele>
        <time>2023-06-14T20:50:36.000+02:00</time>
      </trkpt>
      <trkpt lat="42.59123" lon="-2.9482">
        <ele>514.5</ele>
        <time>2023-06-14T20:50:37.000+02:00</time>
      </trkpt>
      <trkpt lat="42.59284" lon="-2.95069">
        <ele>519</ele>
        <time>2023-06-14T20:51:14.000+02:00</time>
      </trkpt>
      <trkpt lat="42.59298" lon="-2.9509">
        <ele>520</ele>
        <time>2023-06-14T20:51:17.000+02:00</time>
      </trkpt>
      <trkpt lat="42.59306" lon="-2.95097">
        <ele>520.5</ele>
        <time>2023-06-14T20:51:19.000+02:00</time>
      </trkpt>
      <trkpt lat="42.59356" lon="-2.95136">
        <ele>523.3</ele>
        <time>2023-06-14T20:51:28.000+02:00</time>
      </trkpt>
      <trkpt lat="42.59397" lon="-2.95167">
        <ele>526</ele>
        <time>2023-06-14T20:51:35.000+02:00</time>
      </trkpt>
      <trkpt lat="42.59429" lon="-2.95191">
        <ele>528.3</ele>
        <time>2023-06-14T20:51:40.000+02:00</time>
      </trkpt>
      <trkpt lat="42.59462" lon="-2.95214">
        <ele>529</ele>
        <time>2023-06-14T20:51:46.000+02:00</time>
      </trkpt>
      <trkpt lat="42.59471" lon="-2.95219">
        <ele>529.3</ele>
        <time>2023-06-14T20:51:48.000+02:00</time>
      </trkpt>
      <trkpt lat="42.59483" lon="-2.95231">
        <ele>529.3</ele>
        <time>2023-06-14T20:51:50.000+02:00</time>
      </trkpt>
      <trkpt lat="42.595" lon="-2.95253">
        <ele>528.8</ele>
        <time>2023-06-14T20:51:53.000+02:00</time>
      </trkpt>
      <trkpt lat="42.5953" lon="-2.95302">
        <ele>526.5</ele>
        <time>2023-06-14T20:52:01.000+02:00</time>
      </trkpt>
      <trkpt lat="42.5958" lon="-2.9539">
        <ele>525.3</ele>
        <time>2023-06-14T20:52:13.000+02:00</time>
      </trkpt>
      <trkpt lat="42.59609" lon="-2.95416">
        <ele>525.8</ele>
        <time>2023-06-14T20:52:18.000+02:00</time>
      </trkpt>
      <trkpt lat="42.59647" lon="-2.95445">
        <ele>527</ele>
        <time>2023-06-14T20:52:25.000+02:00</time>
      </trkpt>
      <trkpt lat="42.60034" lon="-2.95854">
        <ele>553.5</ele>
        <time>2023-06-14T20:53:40.000+02:00</time>
      </trkpt>
      <trkpt lat="42.60172" lon="-2.95983">
        <ele>548.3</ele>
        <time>2023-06-14T20:54:05.000+02:00</time>
      </trkpt>
      <trkpt lat="42.60224" lon="-2.96011">
        <ele>544.8</ele>
        <time>2023-06-14T20:54:14.000+02:00</time>
      </trkpt>
      <trkpt lat="42.60271" lon="-2.95996">
        <ele>544</ele>
        <time>2023-06-14T20:54:21.000+02:00</time>
      </trkpt>
      <trkpt lat="42.60309" lon="-2.95933">
        <ele>546.3</ele>
        <time>2023-06-14T20:54:31.000+02:00</time>
      </trkpt>
      <trkpt lat="42.60363" lon="-2.95914">
        <ele>546.8</ele>
        <time>2023-06-14T20:54:39.000+02:00</time>
      </trkpt>
      <trkpt lat="42.60454" lon="-2.95935">
        <ele>547.8</ele>
        <time>2023-06-14T20:54:53.000+02:00</time>
      </trkpt>
      <trkpt lat="42.60484" lon="-2.95942">
        <ele>548.3</ele>
        <time>2023-06-14T20:54:58.000+02:00</time>
      </trkpt>
      <trkpt lat="42.60517" lon="-2.95931">
        <ele>548.8</ele>
        <time>2023-06-14T20:55:03.000+02:00</time>
      </trkpt>
      <trkpt lat="42.60539" lon="-2.95899">
        <ele>549</ele>
        <time>2023-06-14T20:55:08.000+02:00</time>
      </trkpt>
      <trkpt lat="42.60558" lon="-2.95852">
        <ele>549.8</ele>
        <time>2023-06-14T20:55:14.000+02:00</time>
      </trkpt>
      <trkpt lat="42.60585" lon="-2.95826">
        <ele>550.5</ele>
        <time>2023-06-14T20:55:19.000+02:00</time>
      </trkpt>
      <trkpt lat="42.60637" lon="-2.95811">
        <ele>551.5</ele>
        <time>2023-06-14T20:55:27.000+02:00</time>
      </trkpt>
      <trkpt lat="42.60917" lon="-2.95807">
        <ele>565.5</ele>
        <time>2023-06-14T20:56:10.000+02:00</time>
      </trkpt>
      <trkpt lat="42.60931" lon="-2.95831">
        <ele>564.5</ele>
        <time>2023-06-14T20:56:13.000+02:00</time>
      </trkpt>
      <trkpt lat="42.60952" lon="-2.95842">
        <ele>564.5</ele>
        <time>2023-06-14T20:56:17.000+02:00</time>
      </trkpt>
      <trkpt lat="42.60966" lon="-2.95842">
        <ele>564.8</ele>
        <time>2023-06-14T20:56:19.000+02:00</time>
      </trkpt>
      <trkpt lat="42.60985" lon="-2.95841">
        <ele>565.3</ele>
        <time>2023-06-14T20:56:22.000+02:00</time>
      </trkpt>
      <trkpt lat="42.60997" lon="-2.95842">
        <ele>565.5</ele>
        <time>2023-06-14T20:56:24.000+02:00</time>
      </trkpt>
      <trkpt lat="42.61013" lon="-2.95846">
        <ele>566</ele>
        <time>2023-06-14T20:56:26.000+02:00</time>
      </trkpt>
      <trkpt lat="42.61024" lon="-2.95856">
        <ele>566.3</ele>
        <time>2023-06-14T20:56:28.000+02:00</time>
      </trkpt>
      <trkpt lat="42.61028" lon="-2.9586">
        <ele>566.3</ele>
        <time>2023-06-14T20:56:29.000+02:00</time>
      </trkpt>
      <trkpt lat="42.61046" lon="-2.95875">
        <ele>567</ele>
        <time>2023-06-14T20:56:32.000+02:00</time>
      </trkpt>
      <trkpt lat="42.61048" lon="-2.95877">
        <ele>567.3</ele>
        <time>2023-06-14T20:56:33.000+02:00</time>
      </trkpt>
      <trkpt lat="42.61051" lon="-2.95879">
        <ele>567.3</ele>
        <time>2023-06-14T20:56:33.000+02:00</time>
      </trkpt>
      <trkpt lat="42.61061" lon="-2.95882">
        <ele>568</ele>
        <time>2023-06-14T20:56:35.000+02:00</time>
      </trkpt>
      <trkpt lat="42.61074" lon="-2.95887">
        <ele>568.8</ele>
        <time>2023-06-14T20:56:37.000+02:00</time>
      </trkpt>
      <trkpt lat="42.61086" lon="-2.95896">
        <ele>569.5</ele>
        <time>2023-06-14T20:56:39.000+02:00</time>
      </trkpt>
      <trkpt lat="42.61094" lon="-2.95893">
        <ele>569.8</ele>
        <time>2023-06-14T20:56:40.000+02:00</time>
      </trkpt>
      <trkpt lat="42.61102" lon="-2.95893">
        <ele>570</ele>
        <time>2023-06-14T20:56:41.000+02:00</time>
      </trkpt>
      <trkpt lat="42.61109" lon="-2.95897">
        <ele>570.3</ele>
        <time>2023-06-14T20:56:42.000+02:00</time>
      </trkpt>
      <trkpt lat="42.6112" lon="-2.95908">
        <ele>571</ele>
        <time>2023-06-14T20:56:45.000+02:00</time>
      </trkpt>
      <trkpt lat="42.61138" lon="-2.95919">
        <ele>572</ele>
        <time>2023-06-14T20:56:48.000+02:00</time>
      </trkpt>
      <trkpt lat="42.61147" lon="-2.95924">
        <ele>572.3</ele>
        <time>2023-06-14T20:56:49.000+02:00</time>
      </trkpt>
      <trkpt lat="42.6116" lon="-2.95934">
        <ele>572.8</ele>
        <time>2023-06-14T20:56:51.000+02:00</time>
      </trkpt>
      <trkpt lat="42.61168" lon="-2.95938">
        <ele>573.3</ele>
        <time>2023-06-14T20:56:53.000+02:00</time>
      </trkpt>
      <trkpt lat="42.61186" lon="-2.95942">
        <ele>573.8</ele>
        <time>2023-06-14T20:56:55.000+02:00</time>
      </trkpt>
      <trkpt lat="42.61228" lon="-2.95946">
        <ele>575</ele>
        <time>2023-06-14T20:57:02.000+02:00</time>
      </trkpt>
      <trkpt lat="42.61312" lon="-2.9596">
        <ele>578.5</ele>
        <time>2023-06-14T20:57:15.000+02:00</time>
      </trkpt>
      <trkpt lat="42.61328" lon="-2.95965">
        <ele>579.3</ele>
        <time>2023-06-14T20:57:17.000+02:00</time>
      </trkpt>
      <trkpt lat="42.61358" lon="-2.95978">
        <ele>580.8</ele>
        <time>2023-06-14T20:57:22.000+02:00</time>
      </trkpt>
      <trkpt lat="42.6137" lon="-2.95981">
        <ele>581.5</ele>
        <time>2023-06-14T20:57:24.000+02:00</time>
      </trkpt>
      <trkpt lat="42.61429" lon="-2.95989">
        <ele>584.3</ele>
        <time>2023-06-14T20:57:33.000+02:00</time>
      </trkpt>
      <trkpt lat="42.61466" lon="-2.95991">
        <ele>585.8</ele>
        <time>2023-06-14T20:57:39.000+02:00</time>
      </trkpt>
      <trkpt lat="42.61484" lon="-2.9599">
        <ele>586.5</ele>
        <time>2023-06-14T20:57:41.000+02:00</time>
      </trkpt>
      <trkpt lat="42.6155" lon="-2.95978">
        <ele>590.5</ele>
        <time>2023-06-14T20:57:52.000+02:00</time>
      </trkpt>
      <trkpt lat="42.61561" lon="-2.95978">
        <ele>591.3</ele>
        <time>2023-06-14T20:57:53.000+02:00</time>
      </trkpt>
      <trkpt lat="42.61571" lon="-2.95978">
        <ele>592</ele>
        <time>2023-06-14T20:57:55.000+02:00</time>
      </trkpt>
      <trkpt lat="42.61597" lon="-2.95984">
        <ele>593.8</ele>
        <time>2023-06-14T20:57:59.000+02:00</time>
      </trkpt>
      <trkpt lat="42.61612" lon="-2.95986">
        <ele>594.8</ele>
        <time>2023-06-14T20:58:01.000+02:00</time>
      </trkpt>
      <trkpt lat="42.6164" lon="-2.95984">
        <ele>596.5</ele>
        <time>2023-06-14T20:58:05.000+02:00</time>
      </trkpt>
      <trkpt lat="42.61667" lon="-2.95984">
        <ele>598</ele>
        <time>2023-06-14T20:58:10.000+02:00</time>
      </trkpt>
      <trkpt lat="42.61682" lon="-2.95985">
        <ele>598.5</ele>
        <time>2023-06-14T20:58:12.000+02:00</time>
      </trkpt>
      <trkpt lat="42.61694" lon="-2.95992">
        <ele>599</ele>
        <time>2023-06-14T20:58:14.000+02:00</time>
      </trkpt>
      <trkpt lat="42.61705" lon="-2.96001">
        <ele>599.3</ele>
        <time>2023-06-14T20:58:16.000+02:00</time>
      </trkpt>
      <trkpt lat="42.61801" lon="-2.96063">
        <ele>606.8</ele>
        <time>2023-06-14T20:58:32.000+02:00</time>
      </trkpt>
      <trkpt lat="42.61815" lon="-2.96071">
        <ele>607.8</ele>
        <time>2023-06-14T20:58:34.000+02:00</time>
      </trkpt>
      <trkpt lat="42.61825" lon="-2.96074">
        <ele>608.3</ele>
        <time>2023-06-14T20:58:36.000+02:00</time>
      </trkpt>
      <trkpt lat="42.61833" lon="-2.96074">
        <ele>608.8</ele>
        <time>2023-06-14T20:58:37.000+02:00</time>
      </trkpt>
      <trkpt lat="42.61842" lon="-2.96071">
        <ele>609.3</ele>
        <time>2023-06-14T20:58:39.000+02:00</time>
      </trkpt>
      <trkpt lat="42.61863" lon="-2.96054">
        <ele>610.3</ele>
        <time>2023-06-14T20:58:42.000+02:00</time>
      </trkpt>
      <trkpt lat="42.61872" lon="-2.96048">
        <ele>610.8</ele>
        <time>2023-06-14T20:58:44.000+02:00</time>
      </trkpt>
      <trkpt lat="42.61882" lon="-2.96045">
        <ele>611.5</ele>
        <time>2023-06-14T20:58:45.000+02:00</time>
      </trkpt>
      <trkpt lat="42.619" lon="-2.96042">
        <ele>612.8</ele>
        <time>2023-06-14T20:58:48.000+02:00</time>
      </trkpt>
      <trkpt lat="42.61925" lon="-2.96041">
        <ele>615.3</ele>
        <time>2023-06-14T20:58:52.000+02:00</time>
      </trkpt>
      <trkpt lat="42.61943" lon="-2.96043">
        <ele>618.5</ele>
        <time>2023-06-14T20:58:55.000+02:00</time>
      </trkpt>
      <trkpt lat="42.61958" lon="-2.96047">
        <ele>621</ele>
        <time>2023-06-14T20:58:57.000+02:00</time>
      </trkpt>
      <trkpt lat="42.61971" lon="-2.96052">
        <ele>623</ele>
        <time>2023-06-14T20:58:59.000+02:00</time>
      </trkpt>
      <trkpt lat="42.61997" lon="-2.96067">
        <ele>627</ele>
        <time>2023-06-14T20:59:03.000+02:00</time>
      </trkpt>
      <trkpt lat="42.62064" lon="-2.96109">
        <ele>635.3</ele>
        <time>2023-06-14T20:59:15.000+02:00</time>
      </trkpt>
      <trkpt lat="42.62083" lon="-2.9612">
        <ele>637.3</ele>
        <time>2023-06-14T20:59:18.000+02:00</time>
      </trkpt>
      <trkpt lat="42.62116" lon="-2.96134">
        <ele>639.8</ele>
        <time>2023-06-14T20:59:23.000+02:00</time>
      </trkpt>
      <trkpt lat="42.62125" lon="-2.96135">
        <ele>640.8</ele>
        <time>2023-06-14T20:59:24.000+02:00</time>
      </trkpt>
      <trkpt lat="42.6214" lon="-2.96133">
        <ele>642.5</ele>
        <time>2023-06-14T20:59:27.000+02:00</time>
      </trkpt>
      <trkpt lat="42.6216" lon="-2.96132">
        <ele>644.8</ele>
        <time>2023-06-14T20:59:30.000+02:00</time>
      </trkpt>
      <trkpt lat="42.6217" lon="-2.96133">
        <ele>646</ele>
        <time>2023-06-14T20:59:31.000+02:00</time>
      </trkpt>
      <trkpt lat="42.62182" lon="-2.96135">
        <ele>647</ele>
        <time>2023-06-14T20:59:33.000+02:00</time>
      </trkpt>
      <trkpt lat="42.62191" lon="-2.96138">
        <ele>647.5</ele>
        <time>2023-06-14T20:59:35.000+02:00</time>
      </trkpt>
      <trkpt lat="42.6221" lon="-2.96145">
        <ele>649</ele>
        <time>2023-06-14T20:59:38.000+02:00</time>
      </trkpt>
      <trkpt lat="42.62215" lon="-2.96141">
        <ele>650</ele>
        <time>2023-06-14T20:59:39.000+02:00</time>
      </trkpt>
      <trkpt lat="42.62224" lon="-2.9613">
        <ele>652</ele>
        <time>2023-06-14T20:59:40.000+02:00</time>
      </trkpt>
      <trkpt lat="42.62229" lon="-2.96126">
        <ele>653</ele>
        <time>2023-06-14T20:59:41.000+02:00</time>
      </trkpt>
      <trkpt lat="42.62236" lon="-2.96126">
        <ele>653.8</ele>
        <time>2023-06-14T20:59:42.000+02:00</time>
      </trkpt>
      <trkpt lat="42.62246" lon="-2.96129">
        <ele>654.8</ele>
        <time>2023-06-14T20:59:44.000+02:00</time>
      </trkpt>
      <trkpt lat="42.62264" lon="-2.96139">
        <ele>655.5</ele>
        <time>2023-06-14T20:59:47.000+02:00</time>
      </trkpt>
      <trkpt lat="42.62274" lon="-2.96144">
        <ele>656.3</ele>
        <time>2023-06-14T20:59:49.000+02:00</time>
      </trkpt>
      <trkpt lat="42.6228" lon="-2.96147">
        <ele>656.8</ele>
        <time>2023-06-14T20:59:50.000+02:00</time>
      </trkpt>
      <trkpt lat="42.62294" lon="-2.96154">
        <ele>657.8</ele>
        <time>2023-06-14T20:59:52.000+02:00</time>
      </trkpt>
      <trkpt lat="42.62304" lon="-2.96162">
        <ele>658.5</ele>
        <time>2023-06-14T20:59:54.000+02:00</time>
      </trkpt>
      <trkpt lat="42.62306" lon="-2.96168">
        <ele>658.8</ele>
        <time>2023-06-14T20:59:55.000+02:00</time>
      </trkpt>
      <trkpt lat="42.62306" lon="-2.96185">
        <ele>658.8</ele>
        <time>2023-06-14T20:59:57.000+02:00</time>
      </trkpt>
      <trkpt lat="42.62305" lon="-2.96206">
        <ele>658.5</ele>
        <time>2023-06-14T21:00:00.000+02:00</time>
      </trkpt>
      <trkpt lat="42.62304" lon="-2.96227">
        <ele>658.5</ele>
        <time>2023-06-14T21:00:02.000+02:00</time>
      </trkpt>
      <trkpt lat="42.62306" lon="-2.96246">
        <ele>659</ele>
        <time>2023-06-14T21:00:04.000+02:00</time>
      </trkpt>
      <trkpt lat="42.62311" lon="-2.96263">
        <ele>658.3</ele>
        <time>2023-06-14T21:00:06.000+02:00</time>
      </trkpt>
      <trkpt lat="42.62314" lon="-2.96268">
        <ele>658</ele>
        <time>2023-06-14T21:00:07.000+02:00</time>
      </trkpt>
      <trkpt lat="42.6232" lon="-2.9628">
        <ele>657.3</ele>
        <time>2023-06-14T21:00:09.000+02:00</time>
      </trkpt>
      <trkpt lat="42.62329" lon="-2.96289">
        <ele>657.5</ele>
        <time>2023-06-14T21:00:10.000+02:00</time>
      </trkpt>
      <trkpt lat="42.62342" lon="-2.963">
        <ele>658</ele>
        <time>2023-06-14T21:00:13.000+02:00</time>
      </trkpt>
      <trkpt lat="42.62356" lon="-2.96304">
        <ele>659.8</ele>
        <time>2023-06-14T21:00:15.000+02:00</time>
      </trkpt>
      <trkpt lat="42.62374" lon="-2.96309">
        <ele>662</ele>
        <time>2023-06-14T21:00:18.000+02:00</time>
      </trkpt>
      <trkpt lat="42.62385" lon="-2.96313">
        <ele>663</ele>
        <time>2023-06-14T21:00:19.000+02:00</time>
      </trkpt>
      <trkpt lat="42.62399" lon="-2.96324">
        <ele>663.5</ele>
        <time>2023-06-14T21:00:22.000+02:00</time>
      </trkpt>
      <trkpt lat="42.62409" lon="-2.96335">
        <ele>663.5</ele>
        <time>2023-06-14T21:00:24.000+02:00</time>
      </trkpt>
      <trkpt lat="42.62416" lon="-2.96348">
        <ele>663.8</ele>
        <time>2023-06-14T21:00:26.000+02:00</time>
      </trkpt>
      <trkpt lat="42.62421" lon="-2.96363">
        <ele>663.3</ele>
        <time>2023-06-14T21:00:27.000+02:00</time>
      </trkpt>
      <trkpt lat="42.62424" lon="-2.96378">
        <ele>662.5</ele>
        <time>2023-06-14T21:00:29.000+02:00</time>
      </trkpt>
      <trkpt lat="42.62426" lon="-2.96396">
        <ele>661.5</ele>
        <time>2023-06-14T21:00:31.000+02:00</time>
      </trkpt>
      <trkpt lat="42.62428" lon="-2.96456">
        <ele>658</ele>
        <time>2023-06-14T21:00:38.000+02:00</time>
      </trkpt>
      <trkpt lat="42.62429" lon="-2.96466">
        <ele>657.5</ele>
        <time>2023-06-14T21:00:39.000+02:00</time>
      </trkpt>
      <trkpt lat="42.62432" lon="-2.96481">
        <ele>657</ele>
        <time>2023-06-14T21:00:41.000+02:00</time>
      </trkpt>
      <trkpt lat="42.62436" lon="-2.96494">
        <ele>656.5</ele>
        <time>2023-06-14T21:00:42.000+02:00</time>
      </trkpt>
      <trkpt lat="42.62447" lon="-2.96513">
        <ele>656</ele>
        <time>2023-06-14T21:00:45.000+02:00</time>
      </trkpt>
      <trkpt lat="42.62458" lon="-2.96528">
        <ele>656.3</ele>
        <time>2023-06-14T21:00:48.000+02:00</time>
      </trkpt>
      <trkpt lat="42.62468" lon="-2.96551">
        <ele>656.8</ele>
        <time>2023-06-14T21:00:51.000+02:00</time>
      </trkpt>
      <trkpt lat="42.62472" lon="-2.96567">
        <ele>656.8</ele>
        <time>2023-06-14T21:00:52.000+02:00</time>
      </trkpt>
      <trkpt lat="42.62472" lon="-2.96591">
        <ele>656.3</ele>
        <time>2023-06-14T21:00:55.000+02:00</time>
      </trkpt>
      <trkpt lat="42.62472" lon="-2.96665">
        <ele>654</ele>
        <time>2023-06-14T21:01:03.000+02:00</time>
      </trkpt>
      <trkpt lat="42.62473" lon="-2.96684">
        <ele>653.3</ele>
        <time>2023-06-14T21:01:06.000+02:00</time>
      </trkpt>
      <trkpt lat="42.62476" lon="-2.96699">
        <ele>653</ele>
        <time>2023-06-14T21:01:07.000+02:00</time>
      </trkpt>
      <trkpt lat="42.62481" lon="-2.96717">
        <ele>653</ele>
        <time>2023-06-14T21:01:10.000+02:00</time>
      </trkpt>
      <trkpt lat="42.6251" lon="-2.96784">
        <ele>652.3</ele>
        <time>2023-06-14T21:01:18.000+02:00</time>
      </trkpt>
      <trkpt lat="42.62522" lon="-2.96814">
        <ele>650.8</ele>
        <time>2023-06-14T21:01:22.000+02:00</time>
      </trkpt>
      <trkpt lat="42.62535" lon="-2.96842">
        <ele>649.5</ele>
        <time>2023-06-14T21:01:26.000+02:00</time>
      </trkpt>
      <trkpt lat="42.62544" lon="-2.96857">
        <ele>648.8</ele>
        <time>2023-06-14T21:01:28.000+02:00</time>
      </trkpt>
      <trkpt lat="42.62551" lon="-2.96864">
        <ele>648.8</ele>
        <time>2023-06-14T21:01:29.000+02:00</time>
      </trkpt>
      <trkpt lat="42.62555" lon="-2.96868">
        <ele>648.8</ele>
        <time>2023-06-14T21:01:30.000+02:00</time>
      </trkpt>
      <trkpt lat="42.62564" lon="-2.96874">
        <ele>649.3</ele>
        <time>2023-06-14T21:01:32.000+02:00</time>
      </trkpt>
      <trkpt lat="42.62574" lon="-2.96877">
        <ele>650.3</ele>
        <time>2023-06-14T21:01:33.000+02:00</time>
      </trkpt>
      <trkpt lat="42.62619" lon="-2.96885">
        <ele>654.3</ele>
        <time>2023-06-14T21:01:40.000+02:00</time>
      </trkpt>
      <trkpt lat="42.62631" lon="-2.96889">
        <ele>654.5</ele>
        <time>2023-06-14T21:01:42.000+02:00</time>
      </trkpt>
      <trkpt lat="42.62639" lon="-2.96893">
        <ele>654.5</ele>
        <time>2023-06-14T21:01:43.000+02:00</time>
      </trkpt>
      <trkpt lat="42.62647" lon="-2.96899">
        <ele>654</ele>
        <time>2023-06-14T21:01:45.000+02:00</time>
      </trkpt>
      <trkpt lat="42.62657" lon="-2.9691">
        <ele>652.5</ele>
        <time>2023-06-14T21:01:47.000+02:00</time>
      </trkpt>
      <trkpt lat="42.62663" lon="-2.96921">
        <ele>651.3</ele>
        <time>2023-06-14T21:01:48.000+02:00</time>
      </trkpt>
      <trkpt lat="42.62668" lon="-2.96932">
        <ele>651.5</ele>
        <time>2023-06-14T21:01:50.000+02:00</time>
      </trkpt>
      <trkpt lat="42.62671" lon="-2.96943">
        <ele>651.8</ele>
        <time>2023-06-14T21:01:51.000+02:00</time>
      </trkpt>
      <trkpt lat="42.62673" lon="-2.96957">
        <ele>651.5</ele>
        <time>2023-06-14T21:01:53.000+02:00</time>
      </trkpt>
      <trkpt lat="42.62673" lon="-2.9697">
        <ele>651</ele>
        <time>2023-06-14T21:01:54.000+02:00</time>
      </trkpt>
      <trkpt lat="42.62671" lon="-2.96983">
        <ele>649.8</ele>
        <time>2023-06-14T21:01:56.000+02:00</time>
      </trkpt>
      <trkpt lat="42.62668" lon="-2.96998">
        <ele>648.3</ele>
        <time>2023-06-14T21:01:57.000+02:00</time>
      </trkpt>
      <trkpt lat="42.62662" lon="-2.97012">
        <ele>647.8</ele>
        <time>2023-06-14T21:01:59.000+02:00</time>
      </trkpt>
      <trkpt lat="42.62644" lon="-2.97036">
        <ele>645.8</ele>
        <time>2023-06-14T21:02:03.000+02:00</time>
      </trkpt>
      <trkpt lat="42.62623" lon="-2.97064">
        <ele>642.8</ele>
        <time>2023-06-14T21:02:07.000+02:00</time>
      </trkpt>
      <trkpt lat="42.62613" lon="-2.9708">
        <ele>641.3</ele>
        <time>2023-06-14T21:02:10.000+02:00</time>
      </trkpt>
      <trkpt lat="42.62608" lon="-2.97092">
        <ele>640.3</ele>
        <time>2023-06-14T21:02:11.000+02:00</time>
      </trkpt>
      <trkpt lat="42.62605" lon="-2.97104">
        <ele>639.8</ele>
        <time>2023-06-14T21:02:13.000+02:00</time>
      </trkpt>
      <trkpt lat="42.62604" lon="-2.97115">
        <ele>639.8</ele>
        <time>2023-06-14T21:02:14.000+02:00</time>
      </trkpt>
      <trkpt lat="42.62604" lon="-2.97128">
        <ele>640</ele>
        <time>2023-06-14T21:02:15.000+02:00</time>
      </trkpt>
      <trkpt lat="42.62607" lon="-2.97144">
        <ele>640.5</ele>
        <time>2023-06-14T21:02:17.000+02:00</time>
      </trkpt>
      <trkpt lat="42.62612" lon="-2.97157">
        <ele>641</ele>
        <time>2023-06-14T21:02:19.000+02:00</time>
      </trkpt>
      <trkpt lat="42.62621" lon="-2.9718">
        <ele>641</ele>
        <time>2023-06-14T21:02:22.000+02:00</time>
      </trkpt>
      <trkpt lat="42.62626" lon="-2.97194">
        <ele>640.5</ele>
        <time>2023-06-14T21:02:24.000+02:00</time>
      </trkpt>
      <trkpt lat="42.62627" lon="-2.972">
        <ele>640.3</ele>
        <time>2023-06-14T21:02:25.000+02:00</time>
      </trkpt>
      <trkpt lat="42.62638" lon="-2.9721">
        <ele>640.3</ele>
        <time>2023-06-14T21:02:27.000+02:00</time>
      </trkpt>
      <trkpt lat="42.62658" lon="-2.97223">
        <ele>641</ele>
        <time>2023-06-14T21:02:31.000+02:00</time>
      </trkpt>
      <trkpt lat="42.62677" lon="-2.97224">
        <ele>642.5</ele>
        <time>2023-06-14T21:02:34.000+02:00</time>
      </trkpt>
      <trkpt lat="42.627" lon="-2.97228">
        <ele>644.8</ele>
        <time>2023-06-14T21:02:37.000+02:00</time>
      </trkpt>
      <trkpt lat="42.62721" lon="-2.97235">
        <ele>646.3</ele>
        <time>2023-06-14T21:02:40.000+02:00</time>
      </trkpt>
      <trkpt lat="42.62739" lon="-2.97245">
        <ele>647.3</ele>
        <time>2023-06-14T21:02:43.000+02:00</time>
      </trkpt>
      <trkpt lat="42.62756" lon="-2.97255">
        <ele>648</ele>
        <time>2023-06-14T21:02:46.000+02:00</time>
      </trkpt>
      <trkpt lat="42.62772" lon="-2.97268">
        <ele>648.5</ele>
        <time>2023-06-14T21:02:49.000+02:00</time>
      </trkpt>
      <trkpt lat="42.62991" lon="-2.97451">
        <ele>669.5</ele>
        <time>2023-06-14T21:03:28.000+02:00</time>
      </trkpt>
      <trkpt lat="42.63115" lon="-2.97552">
        <ele>680</ele>
        <time>2023-06-14T21:03:50.000+02:00</time>
      </trkpt>
      <trkpt lat="42.63123" lon="-2.97558">
        <ele>680.8</ele>
        <time>2023-06-14T21:03:52.000+02:00</time>
      </trkpt>
      <trkpt lat="42.63144" lon="-2.97573">
        <ele>683</ele>
        <time>2023-06-14T21:03:56.000+02:00</time>
      </trkpt>
      <trkpt lat="42.63149" lon="-2.97576">
        <ele>683.5</ele>
        <time>2023-06-14T21:03:57.000+02:00</time>
      </trkpt>
      <trkpt lat="42.63156" lon="-2.97579">
        <ele>684.3</ele>
        <time>2023-06-14T21:03:58.000+02:00</time>
      </trkpt>
      <trkpt lat="42.63185" lon="-2.97591">
        <ele>685.3</ele>
        <time>2023-06-14T21:04:03.000+02:00</time>
      </trkpt>
      <trkpt lat="42.63222" lon="-2.97602">
        <ele>684</ele>
        <time>2023-06-14T21:04:09.000+02:00</time>
      </trkpt>
      <trkpt lat="42.63254" lon="-2.97612">
        <ele>682.5</ele>
        <time>2023-06-14T21:04:14.000+02:00</time>
      </trkpt>
      <trkpt lat="42.63392" lon="-2.97643">
        <ele>669.8</ele>
        <time>2023-06-14T21:04:35.000+02:00</time>
      </trkpt>
      <trkpt lat="42.63417" lon="-2.97647">
        <ele>668.5</ele>
        <time>2023-06-14T21:04:39.000+02:00</time>
      </trkpt>
      <trkpt lat="42.63443" lon="-2.97648">
        <ele>667.8</ele>
        <time>2023-06-14T21:04:43.000+02:00</time>
      </trkpt>
      <trkpt lat="42.63446" lon="-2.97648">
        <ele>667.5</ele>
        <time>2023-06-14T21:04:43.000+02:00</time>
      </trkpt>
      <trkpt lat="42.63464" lon="-2.97645">
        <ele>666.8</ele>
        <time>2023-06-14T21:04:46.000+02:00</time>
      </trkpt>
      <trkpt lat="42.63483" lon="-2.9764">
        <ele>665.8</ele>
        <time>2023-06-14T21:04:49.000+02:00</time>
      </trkpt>
      <trkpt lat="42.63501" lon="-2.97634">
        <ele>664.3</ele>
        <time>2023-06-14T21:04:52.000+02:00</time>
      </trkpt>
      <trkpt lat="42.63524" lon="-2.97623">
        <ele>662.8</ele>
        <time>2023-06-14T21:04:56.000+02:00</time>
      </trkpt>
      <trkpt lat="42.63539" lon="-2.97612">
        <ele>661.5</ele>
        <time>2023-06-14T21:04:58.000+02:00</time>
      </trkpt>
      <trkpt lat="42.63561" lon="-2.97595">
        <ele>659.8</ele>
        <time>2023-06-14T21:05:02.000+02:00</time>
      </trkpt>
      <trkpt lat="42.63635" lon="-2.9752">
        <ele>658.8</ele>
        <time>2023-06-14T21:05:16.000+02:00</time>
      </trkpt>
      <trkpt lat="42.6373" lon="-2.97419">
        <ele>650.5</ele>
        <time>2023-06-14T21:05:35.000+02:00</time>
      </trkpt>
      <trkpt lat="42.63759" lon="-2.9739">
        <ele>648.5</ele>
        <time>2023-06-14T21:05:40.000+02:00</time>
      </trkpt>
      <trkpt lat="42.6378" lon="-2.97371">
        <ele>647</ele>
        <time>2023-06-14T21:05:44.000+02:00</time>
      </trkpt>
      <trkpt lat="42.638" lon="-2.97356">
        <ele>644.8</ele>
        <time>2023-06-14T21:05:48.000+02:00</time>
      </trkpt>
      <trkpt lat="42.63816" lon="-2.97347">
        <ele>642.8</ele>
        <time>2023-06-14T21:05:50.000+02:00</time>
      </trkpt>
      <trkpt lat="42.6385" lon="-2.97332">
        <ele>638.8</ele>
        <time>2023-06-14T21:05:56.000+02:00</time>
      </trkpt>
      <trkpt lat="42.63886" lon="-2.97316">
        <ele>637.5</ele>
        <time>2023-06-14T21:06:01.000+02:00</time>
      </trkpt>
      <trkpt lat="42.64033" lon="-2.97249">
        <ele>629.5</ele>
        <time>2023-06-14T21:06:25.000+02:00</time>
      </trkpt>
      <trkpt lat="42.64049" lon="-2.9724">
        <ele>629</ele>
        <time>2023-06-14T21:06:28.000+02:00</time>
      </trkpt>
      <trkpt lat="42.64062" lon="-2.97231">
        <ele>628.8</ele>
        <time>2023-06-14T21:06:30.000+02:00</time>
      </trkpt>
      <trkpt lat="42.64075" lon="-2.97218">
        <ele>628.5</ele>
        <time>2023-06-14T21:06:33.000+02:00</time>
      </trkpt>
      <trkpt lat="42.64089" lon="-2.97201">
        <ele>628.3</ele>
        <time>2023-06-14T21:06:35.000+02:00</time>
      </trkpt>
      <trkpt lat="42.64109" lon="-2.97172">
        <ele>627.3</ele>
        <time>2023-06-14T21:06:40.000+02:00</time>
      </trkpt>
      <trkpt lat="42.64128" lon="-2.9715">
        <ele>625.5</ele>
        <time>2023-06-14T21:06:44.000+02:00</time>
      </trkpt>
      <trkpt lat="42.64137" lon="-2.97143">
        <ele>624.8</ele>
        <time>2023-06-14T21:06:45.000+02:00</time>
      </trkpt>
      <trkpt lat="42.64152" lon="-2.97133">
        <ele>623.5</ele>
        <time>2023-06-14T21:06:48.000+02:00</time>
      </trkpt>
      <trkpt lat="42.64164" lon="-2.97127">
        <ele>622.5</ele>
        <time>2023-06-14T21:06:50.000+02:00</time>
      </trkpt>
      <trkpt lat="42.6418" lon="-2.97121">
        <ele>621.8</ele>
        <time>2023-06-14T21:06:52.000+02:00</time>
      </trkpt>
      <trkpt lat="42.64205" lon="-2.97117">
        <ele>620.3</ele>
        <time>2023-06-14T21:06:56.000+02:00</time>
      </trkpt>
      <trkpt lat="42.64261" lon="-2.97117">
        <ele>616.8</ele>
        <time>2023-06-14T21:07:05.000+02:00</time>
      </trkpt>
      <trkpt lat="42.64263" lon="-2.97134">
        <ele>616.5</ele>
        <time>2023-06-14T21:07:07.000+02:00</time>
      </trkpt>
      <trkpt lat="42.64257" lon="-2.97184">
        <ele>616.5</ele>
        <time>2023-06-14T21:07:12.000+02:00</time>
      </trkpt>
      <trkpt lat="42.64256" lon="-2.97221">
        <ele>617.8</ele>
        <time>2023-06-14T21:07:17.000+02:00</time>
      </trkpt>
      <trkpt lat="42.64258" lon="-2.97235">
        <ele>618.3</ele>
        <time>2023-06-14T21:07:18.000+02:00</time>
      </trkpt>
      <trkpt lat="42.64256" lon="-2.97246">
        <ele>618.5</ele>
        <time>2023-06-14T21:07:19.000+02:00</time>
      </trkpt>
      <trkpt lat="42.64253" lon="-2.97257">
        <ele>619.3</ele>
        <time>2023-06-14T21:07:21.000+02:00</time>
      </trkpt>
      <trkpt lat="42.64246" lon="-2.97272">
        <ele>620.5</ele>
        <time>2023-06-14T21:07:23.000+02:00</time>
      </trkpt>
      <trkpt lat="42.64212" lon="-2.97311">
        <ele>622.8</ele>
        <time>2023-06-14T21:07:30.000+02:00</time>
      </trkpt>
      <trkpt lat="42.64167" lon="-2.97445">
        <ele>632.3</ele>
        <time>2023-06-14T21:07:46.000+02:00</time>
      </trkpt>
      <trkpt lat="42.64156" lon="-2.97473">
        <ele>635.8</ele>
        <time>2023-06-14T21:07:50.000+02:00</time>
      </trkpt>
      <trkpt lat="42.64112" lon="-2.97563">
        <ele>640.3</ele>
        <time>2023-06-14T21:08:02.000+02:00</time>
      </trkpt>
      <trkpt lat="42.64089" lon="-2.97622">
        <ele>639</ele>
        <time>2023-06-14T21:08:09.000+02:00</time>
      </trkpt>
      <trkpt lat="42.64047" lon="-2.97726">
        <ele>645.3</ele>
        <time>2023-06-14T21:08:23.000+02:00</time>
      </trkpt>
      <trkpt lat="42.64034" lon="-2.97766">
        <ele>646.8</ele>
        <time>2023-06-14T21:08:28.000+02:00</time>
      </trkpt>
      <trkpt lat="42.6402" lon="-2.97796">
        <ele>647</ele>
        <time>2023-06-14T21:08:31.000+02:00</time>
      </trkpt>
      <trkpt lat="42.6401" lon="-2.97817">
        <ele>646.8</ele>
        <time>2023-06-14T21:08:34.000+02:00</time>
      </trkpt>
      <trkpt lat="42.63969" lon="-2.97871">
        <ele>648</ele>
        <time>2023-06-14T21:08:43.000+02:00</time>
      </trkpt>
      <trkpt lat="42.63953" lon="-2.97882">
        <ele>648.5</ele>
        <time>2023-06-14T21:08:46.000+02:00</time>
      </trkpt>
      <trkpt lat="42.63922" lon="-2.97884">
        <ele>648.3</ele>
        <time>2023-06-14T21:08:51.000+02:00</time>
      </trkpt>
      <trkpt lat="42.63914" lon="-2.97886">
        <ele>648.5</ele>
        <time>2023-06-14T21:08:52.000+02:00</time>
      </trkpt>
      <trkpt lat="42.63913" lon="-2.97887">
        <ele>649</ele>
        <time>2023-06-14T21:08:52.000+02:00</time>
      </trkpt>
      <trkpt lat="42.63908" lon="-2.979">
        <ele>650.3</ele>
        <time>2023-06-14T21:08:54.000+02:00</time>
      </trkpt>
      <trkpt lat="42.63911" lon="-2.97929">
        <ele>650</ele>
        <time>2023-06-14T21:08:57.000+02:00</time>
      </trkpt>
      <trkpt lat="42.63912" lon="-2.97933">
        <ele>649.8</ele>
        <time>2023-06-14T21:08:58.000+02:00</time>
      </trkpt>
      <trkpt lat="42.6392" lon="-2.97952">
        <ele>648.5</ele>
        <time>2023-06-14T21:09:01.000+02:00</time>
      </trkpt>
      <trkpt lat="42.63927" lon="-2.97994">
        <ele>647.8</ele>
        <time>2023-06-14T21:09:06.000+02:00</time>
      </trkpt>
      <trkpt lat="42.6393" lon="-2.98021">
        <ele>644.8</ele>
        <time>2023-06-14T21:09:09.000+02:00</time>
      </trkpt>
      <trkpt lat="42.63934" lon="-2.98041">
        <ele>642</ele>
        <time>2023-06-14T21:09:11.000+02:00</time>
      </trkpt>
      <trkpt lat="42.63949" lon="-2.98079">
        <ele>635</ele>
        <time>2023-06-14T21:09:16.000+02:00</time>
      </trkpt>
      <trkpt lat="42.63952" lon="-2.98095">
        <ele>632.3</ele>
        <time>2023-06-14T21:09:18.000+02:00</time>
      </trkpt>
      <trkpt lat="42.63946" lon="-2.98145">
        <ele>625.8</ele>
        <time>2023-06-14T21:09:24.000+02:00</time>
      </trkpt>
      <trkpt lat="42.63942" lon="-2.9816">
        <ele>624.3</ele>
        <time>2023-06-14T21:09:25.000+02:00</time>
      </trkpt>
      <trkpt lat="42.63945" lon="-2.98174">
        <ele>623.3</ele>
        <time>2023-06-14T21:09:27.000+02:00</time>
      </trkpt>
      <trkpt lat="42.63954" lon="-2.98182">
        <ele>622</ele>
        <time>2023-06-14T21:09:29.000+02:00</time>
      </trkpt>
      <trkpt lat="42.63974" lon="-2.98182">
        <ele>617</ele>
        <time>2023-06-14T21:09:32.000+02:00</time>
      </trkpt>
      <trkpt lat="42.63985" lon="-2.98182">
        <ele>614.3</ele>
        <time>2023-06-14T21:09:33.000+02:00</time>
      </trkpt>
      <trkpt lat="42.64036" lon="-2.9823">
        <ele>602.5</ele>
        <time>2023-06-14T21:09:43.000+02:00</time>
      </trkpt>
      <trkpt lat="42.64052" lon="-2.9824">
        <ele>598.8</ele>
        <time>2023-06-14T21:09:45.000+02:00</time>
      </trkpt>
      <trkpt lat="42.64098" lon="-2.98268">
        <ele>591.5</ele>
        <time>2023-06-14T21:09:53.000+02:00</time>
      </trkpt>
      <trkpt lat="42.6411" lon="-2.98273">
        <ele>590.5</ele>
        <time>2023-06-14T21:09:55.000+02:00</time>
      </trkpt>
      <trkpt lat="42.64124" lon="-2.98274">
        <ele>588</ele>
        <time>2023-06-14T21:09:57.000+02:00</time>
      </trkpt>
      <trkpt lat="42.64142" lon="-2.98271">
        <ele>584.5</ele>
        <time>2023-06-14T21:10:00.000+02:00</time>
      </trkpt>
      <trkpt lat="42.64203" lon="-2.98258">
        <ele>574</ele>
        <time>2023-06-14T21:10:09.000+02:00</time>
      </trkpt>
      <trkpt lat="42.64624" lon="-2.98167">
        <ele>530</ele>
        <time>2023-06-14T21:11:15.000+02:00</time>
      </trkpt>
      <trkpt lat="42.6465" lon="-2.98493">
        <ele>525.3</ele>
        <time>2023-06-14T21:11:51.000+02:00</time>
      </trkpt>
      <trkpt lat="42.64656" lon="-2.9856">
        <ele>526.3</ele>
        <time>2023-06-14T21:11:59.000+02:00</time>
      </trkpt>
      <trkpt lat="42.64662" lon="-2.98583">
        <ele>526.3</ele>
        <time>2023-06-14T21:12:02.000+02:00</time>
      </trkpt>
      <trkpt lat="42.64669" lon="-2.98609">
        <ele>524.8</ele>
        <time>2023-06-14T21:12:05.000+02:00</time>
      </trkpt>
      <trkpt lat="42.64681" lon="-2.98635">
        <ele>522.8</ele>
        <time>2023-06-14T21:12:08.000+02:00</time>
      </trkpt>
      <trkpt lat="42.64692" lon="-2.98659">
        <ele>520.3</ele>
        <time>2023-06-14T21:12:12.000+02:00</time>
      </trkpt>
      <trkpt lat="42.64716" lon="-2.98689">
        <ele>518.5</ele>
        <time>2023-06-14T21:12:17.000+02:00</time>
      </trkpt>
      <trkpt lat="42.6477" lon="-2.98731">
        <ele>513.5</ele>
        <time>2023-06-14T21:12:26.000+02:00</time>
      </trkpt>
      <trkpt lat="42.64793" lon="-2.98747">
        <ele>510.8</ele>
        <time>2023-06-14T21:12:30.000+02:00</time>
      </trkpt>
      <trkpt lat="42.64802" lon="-2.98754">
        <ele>509.3</ele>
        <time>2023-06-14T21:12:32.000+02:00</time>
      </trkpt>
      <trkpt lat="42.64811" lon="-2.98761">
        <ele>507.8</ele>
        <time>2023-06-14T21:12:33.000+02:00</time>
      </trkpt>
      <trkpt lat="42.6482" lon="-2.98769">
        <ele>506</ele>
        <time>2023-06-14T21:12:35.000+02:00</time>
      </trkpt>
      <trkpt lat="42.64845" lon="-2.98797">
        <ele>502</ele>
        <time>2023-06-14T21:12:40.000+02:00</time>
      </trkpt>
      <trkpt lat="42.6487" lon="-2.98826">
        <ele>499.8</ele>
        <time>2023-06-14T21:12:45.000+02:00</time>
      </trkpt>
      <trkpt lat="42.64909" lon="-2.98873">
        <ele>500.8</ele>
        <time>2023-06-14T21:12:53.000+02:00</time>
      </trkpt>
      <trkpt lat="42.64887" lon="-2.98895">
        <ele>501.8</ele>
        <time>2023-06-14T21:12:57.000+02:00</time>
      </trkpt>
      <trkpt lat="42.64878" lon="-2.98907">
        <ele>502</ele>
        <time>2023-06-14T21:12:59.000+02:00</time>
      </trkpt>
      <trkpt lat="42.64871" lon="-2.98919">
        <ele>502.5</ele>
        <time>2023-06-14T21:13:01.000+02:00</time>
      </trkpt>
      <trkpt lat="42.64847" lon="-2.98965">
        <ele>505.3</ele>
        <time>2023-06-14T21:13:07.000+02:00</time>
      </trkpt>
      <trkpt lat="42.64805" lon="-2.99048">
        <ele>510.8</ele>
        <time>2023-06-14T21:13:18.000+02:00</time>
      </trkpt>
      <trkpt lat="42.64788" lon="-2.99081">
        <ele>510.5</ele>
        <time>2023-06-14T21:13:23.000+02:00</time>
      </trkpt>
      <trkpt lat="42.64776" lon="-2.9911">
        <ele>510.5</ele>
        <time>2023-06-14T21:13:26.000+02:00</time>
      </trkpt>
      <trkpt lat="42.64756" lon="-2.99195">
        <ele>509</ele>
        <time>2023-06-14T21:13:37.000+02:00</time>
      </trkpt>
      <trkpt lat="42.64754" lon="-2.99207">
        <ele>508.3</ele>
        <time>2023-06-14T21:13:38.000+02:00</time>
      </trkpt>
      <trkpt lat="42.64754" lon="-2.99225">
        <ele>508.3</ele>
        <time>2023-06-14T21:13:40.000+02:00</time>
      </trkpt>
      <trkpt lat="42.64756" lon="-2.99233">
        <ele>508.8</ele>
        <time>2023-06-14T21:13:41.000+02:00</time>
      </trkpt>
      <trkpt lat="42.64758" lon="-2.9924">
        <ele>509.5</ele>
        <time>2023-06-14T21:13:42.000+02:00</time>
      </trkpt>
      <trkpt lat="42.64797" lon="-2.99327">
        <ele>514.8</ele>
        <time>2023-06-14T21:13:53.000+02:00</time>
      </trkpt>
      <trkpt lat="42.64816" lon="-2.99364">
        <ele>513.8</ele>
        <time>2023-06-14T21:13:58.000+02:00</time>
      </trkpt>
      <trkpt lat="42.64847" lon="-2.99427">
        <ele>510.8</ele>
        <time>2023-06-14T21:14:07.000+02:00</time>
      </trkpt>
      <trkpt lat="42.64902" lon="-2.99528">
        <ele>509</ele>
        <time>2023-06-14T21:14:21.000+02:00</time>
      </trkpt>
      <trkpt lat="42.64911" lon="-2.99542">
        <ele>508.3</ele>
        <time>2023-06-14T21:14:23.000+02:00</time>
      </trkpt>
      <trkpt lat="42.64977" lon="-2.99632">
        <ele>510</ele>
        <time>2023-06-14T21:14:37.000+02:00</time>
      </trkpt>
      <trkpt lat="42.65055" lon="-2.99734">
        <ele>512.3</ele>
        <time>2023-06-14T21:14:54.000+02:00</time>
      </trkpt>
      <trkpt lat="42.65067" lon="-2.99752">
        <ele>511.5</ele>
        <time>2023-06-14T21:14:57.000+02:00</time>
      </trkpt>
      <trkpt lat="42.65073" lon="-2.99765">
        <ele>511.8</ele>
        <time>2023-06-14T21:14:58.000+02:00</time>
      </trkpt>
      <trkpt lat="42.651" lon="-2.99821">
        <ele>513.5</ele>
        <time>2023-06-14T21:15:06.000+02:00</time>
      </trkpt>
      <trkpt lat="42.6512" lon="-2.99864">
        <ele>515.5</ele>
        <time>2023-06-14T21:15:11.000+02:00</time>
      </trkpt>
      <trkpt lat="42.65133" lon="-2.99894">
        <ele>515.3</ele>
        <time>2023-06-14T21:15:15.000+02:00</time>
      </trkpt>
      <trkpt lat="42.65136" lon="-2.99905">
        <ele>514.8</ele>
        <time>2023-06-14T21:15:17.000+02:00</time>
      </trkpt>
      <trkpt lat="42.65138" lon="-2.99916">
        <ele>514.3</ele>
        <time>2023-06-14T21:15:18.000+02:00</time>
      </trkpt>
      <trkpt lat="42.65137" lon="-2.99929">
        <ele>514</ele>
        <time>2023-06-14T21:15:19.000+02:00</time>
      </trkpt>
      <trkpt lat="42.65134" lon="-2.99943">
        <ele>513.8</ele>
        <time>2023-06-14T21:15:21.000+02:00</time>
      </trkpt>
      <trkpt lat="42.65137" lon="-2.99947">
        <ele>513.5</ele>
        <time>2023-06-14T21:15:22.000+02:00</time>
      </trkpt>
      <trkpt lat="42.65146" lon="-2.99969">
        <ele>512.8</ele>
        <time>2023-06-14T21:15:25.000+02:00</time>
      </trkpt>
      <trkpt lat="42.65149" lon="-2.99974">
        <ele>512.3</ele>
        <time>2023-06-14T21:15:26.000+02:00</time>
      </trkpt>
      <trkpt lat="42.65161" lon="-2.99983">
        <ele>511.3</ele>
        <time>2023-06-14T21:15:28.000+02:00</time>
      </trkpt>
      <trkpt lat="42.65174" lon="-2.99988">
        <ele>511.8</ele>
        <time>2023-06-14T21:15:30.000+02:00</time>
      </trkpt>
      <trkpt lat="42.65181" lon="-2.99991">
        <ele>512.3</ele>
        <time>2023-06-14T21:15:32.000+02:00</time>
      </trkpt>
      <trkpt lat="42.65199" lon="-3.00005">
        <ele>513.5</ele>
        <time>2023-06-14T21:15:35.000+02:00</time>
      </trkpt>
      <trkpt lat="42.65244" lon="-3.0005">
        <ele>513.5</ele>
        <time>2023-06-14T21:15:43.000+02:00</time>
      </trkpt>
      <trkpt lat="42.65249" lon="-3.00057">
        <ele>513</ele>
        <time>2023-06-14T21:15:44.000+02:00</time>
      </trkpt>
      <trkpt lat="42.65267" lon="-3.00085">
        <ele>512.8</ele>
        <time>2023-06-14T21:15:49.000+02:00</time>
      </trkpt>
      <trkpt lat="42.65286" lon="-3.0012">
        <ele>514</ele>
        <time>2023-06-14T21:15:53.000+02:00</time>
      </trkpt>
      <trkpt lat="42.65356" lon="-3.00243">
        <ele>516.3</ele>
        <time>2023-06-14T21:16:11.000+02:00</time>
      </trkpt>
      <trkpt lat="42.6539" lon="-3.00304">
        <ele>521.5</ele>
        <time>2023-06-14T21:16:20.000+02:00</time>
      </trkpt>
      <trkpt lat="42.65397" lon="-3.00332">
        <ele>522.5</ele>
        <time>2023-06-14T21:16:23.000+02:00</time>
      </trkpt>
      <trkpt lat="42.65404" lon="-3.00364">
        <ele>522.3</ele>
        <time>2023-06-14T21:16:27.000+02:00</time>
      </trkpt>
      <trkpt lat="42.65421" lon="-3.00466">
        <ele>520.8</ele>
        <time>2023-06-14T21:16:38.000+02:00</time>
      </trkpt>
      <trkpt lat="42.65425" lon="-3.00481">
        <ele>521</ele>
        <time>2023-06-14T21:16:40.000+02:00</time>
      </trkpt>
      <trkpt lat="42.65433" lon="-3.00503">
        <ele>521.5</ele>
        <time>2023-06-14T21:16:43.000+02:00</time>
      </trkpt>
      <trkpt lat="42.65464" lon="-3.0055">
        <ele>527</ele>
        <time>2023-06-14T21:16:50.000+02:00</time>
      </trkpt>
      <trkpt lat="42.65546" lon="-3.00664">
        <ele>533.5</ele>
        <time>2023-06-14T21:17:08.000+02:00</time>
      </trkpt>
      <trkpt lat="42.65564" lon="-3.00694">
        <ele>533.3</ele>
        <time>2023-06-14T21:17:12.000+02:00</time>
      </trkpt>
      <trkpt lat="42.65648" lon="-3.00859">
        <ele>526.5</ele>
        <time>2023-06-14T21:17:35.000+02:00</time>
      </trkpt>
      <trkpt lat="42.65671" lon="-3.00905">
        <ele>524.5</ele>
        <time>2023-06-14T21:17:41.000+02:00</time>
      </trkpt>
      <trkpt lat="42.65696" lon="-3.00951">
        <ele>524</ele>
        <time>2023-06-14T21:17:48.000+02:00</time>
      </trkpt>
      <trkpt lat="42.65756" lon="-3.01038">
        <ele>526</ele>
        <time>2023-06-14T21:18:01.000+02:00</time>
      </trkpt>
      <trkpt lat="42.65796" lon="-3.01089">
        <ele>528.3</ele>
        <time>2023-06-14T21:18:09.000+02:00</time>
      </trkpt>
      <trkpt lat="42.65823" lon="-3.01075">
        <ele>530.8</ele>
        <time>2023-06-14T21:18:14.000+02:00</time>
      </trkpt>
      <trkpt lat="42.65842" lon="-3.01079">
        <ele>531.8</ele>
        <time>2023-06-14T21:18:17.000+02:00</time>
      </trkpt>
      <trkpt lat="42.65871" lon="-3.01088">
        <ele>533</ele>
        <time>2023-06-14T21:18:21.000+02:00</time>
      </trkpt>
      <trkpt lat="42.65891" lon="-3.01107">
        <ele>533.3</ele>
        <time>2023-06-14T21:18:25.000+02:00</time>
      </trkpt>
      <trkpt lat="42.65898" lon="-3.01109">
        <ele>533.5</ele>
        <time>2023-06-14T21:18:26.000+02:00</time>
      </trkpt>
      <trkpt lat="42.65917" lon="-3.01078">
        <ele>536.3</ele>
        <time>2023-06-14T21:18:31.000+02:00</time>
      </trkpt>
      <trkpt lat="42.65933" lon="-3.0107">
        <ele>536.3</ele>
        <time>2023-06-14T21:18:33.000+02:00</time>
      </trkpt>
      <trkpt lat="42.65967" lon="-3.01054">
        <ele>536.5</ele>
        <time>2023-06-14T21:18:39.000+02:00</time>
      </trkpt>
      <trkpt lat="42.65987" lon="-3.01062">
        <ele>535.8</ele>
        <time>2023-06-14T21:18:42.000+02:00</time>
      </trkpt>
      <trkpt lat="42.66009" lon="-3.01069">
        <ele>534.8</ele>
        <time>2023-06-14T21:18:45.000+02:00</time>
      </trkpt>
      <trkpt lat="42.66035" lon="-3.0106">
        <ele>535</ele>
        <time>2023-06-14T21:18:49.000+02:00</time>
      </trkpt>
      <trkpt lat="42.66074" lon="-3.01064">
        <ele>533.8</ele>
        <time>2023-06-14T21:18:55.000+02:00</time>
      </trkpt>
      <trkpt lat="42.66128" lon="-3.01065">
        <ele>530</ele>
        <time>2023-06-14T21:19:04.000+02:00</time>
      </trkpt>
      <trkpt lat="42.66157" lon="-3.01043">
        <ele>529.5</ele>
        <time>2023-06-14T21:19:09.000+02:00</time>
      </trkpt>
      <trkpt lat="42.66182" lon="-3.01034">
        <ele>528.3</ele>
        <time>2023-06-14T21:19:13.000+02:00</time>
      </trkpt>
      <trkpt lat="42.66225" lon="-3.01035">
        <ele>525.3</ele>
        <time>2023-06-14T21:19:19.000+02:00</time>
      </trkpt>
      <trkpt lat="42.66256" lon="-3.01029">
        <ele>523.8</ele>
        <time>2023-06-14T21:19:24.000+02:00</time>
      </trkpt>
      <trkpt lat="42.66302" lon="-3.01027">
        <ele>522.8</ele>
        <time>2023-06-14T21:19:31.000+02:00</time>
      </trkpt>
      <trkpt lat="42.6632" lon="-3.01011">
        <ele>523.5</ele>
        <time>2023-06-14T21:19:34.000+02:00</time>
      </trkpt>
      <trkpt lat="42.66343" lon="-3.00987">
        <ele>524</ele>
        <time>2023-06-14T21:19:39.000+02:00</time>
      </trkpt>
      <trkpt lat="42.66361" lon="-3.00958">
        <ele>524.3</ele>
        <time>2023-06-14T21:19:43.000+02:00</time>
      </trkpt>
      <trkpt lat="42.66387" lon="-3.00943">
        <ele>523.5</ele>
        <time>2023-06-14T21:19:47.000+02:00</time>
      </trkpt>
      <trkpt lat="42.66424" lon="-3.00903">
        <ele>522.5</ele>
        <time>2023-06-14T21:19:54.000+02:00</time>
      </trkpt>
      <trkpt lat="42.66475" lon="-3.00925">
        <ele>516.3</ele>
        <time>2023-06-14T21:20:03.000+02:00</time>
      </trkpt>
      <trkpt lat="42.66338" lon="-3.01667">
        <ele>501.8</ele>
        <time>2023-06-14T21:21:29.000+02:00</time>
      </trkpt>
      <trkpt lat="42.6631" lon="-3.01817">
        <ele>503.5</ele>
        <time>2023-06-14T21:21:46.000+02:00</time>
      </trkpt>
      <trkpt lat="42.66303" lon="-3.01859">
        <ele>504.5</ele>
        <time>2023-06-14T21:21:51.000+02:00</time>
      </trkpt>
      <trkpt lat="42.66508" lon="-3.01906">
        <ele>501</ele>
        <time>2023-06-14T21:22:23.000+02:00</time>
      </trkpt>
      <trkpt lat="42.66523" lon="-3.0191">
        <ele>500.5</ele>
        <time>2023-06-14T21:22:25.000+02:00</time>
      </trkpt>
      <trkpt lat="42.6653" lon="-3.0191">
        <ele>500.3</ele>
        <time>2023-06-14T21:22:26.000+02:00</time>
      </trkpt>
      <trkpt lat="42.66535" lon="-3.0191">
        <ele>500</ele>
        <time>2023-06-14T21:22:27.000+02:00</time>
      </trkpt>
      <trkpt lat="42.66567" lon="-3.01919">
        <ele>498.8</ele>
        <time>2023-06-14T21:22:32.000+02:00</time>
      </trkpt>
      <trkpt lat="42.66683" lon="-3.01943">
        <ele>496.5</ele>
        <time>2023-06-14T21:22:50.000+02:00</time>
      </trkpt>
      <trkpt lat="42.66613" lon="-3.0274">
        <ele>512.3</ele>
        <time>2023-06-14T21:24:20.000+02:00</time>
      </trkpt>
      <trkpt lat="42.66682" lon="-3.0276">
        <ele>513.3</ele>
        <time>2023-06-14T21:24:31.000+02:00</time>
      </trkpt>
      <trkpt lat="42.66786" lon="-3.0279">
        <ele>510.5</ele>
        <time>2023-06-14T21:24:47.000+02:00</time>
      </trkpt>
      <trkpt lat="42.66938" lon="-3.02833">
        <ele>507.3</ele>
        <time>2023-06-14T21:25:11.000+02:00</time>
      </trkpt>
      <trkpt lat="42.67085" lon="-3.02876">
        <ele>505.8</ele>
        <time>2023-06-14T21:25:34.000+02:00</time>
      </trkpt>
      <trkpt lat="42.67127" lon="-3.02888">
        <ele>503.3</ele>
        <time>2023-06-14T21:25:40.000+02:00</time>
      </trkpt>
      <trkpt lat="42.67146" lon="-3.02893">
        <ele>502</ele>
        <time>2023-06-14T21:25:43.000+02:00</time>
      </trkpt>
      <trkpt lat="42.67146" lon="-3.02912">
        <ele>502</ele>
        <time>2023-06-14T21:25:45.000+02:00</time>
      </trkpt>
      <trkpt lat="42.67143" lon="-3.02924">
        <ele>502.3</ele>
        <time>2023-06-14T21:25:47.000+02:00</time>
      </trkpt>
      <trkpt lat="42.67137" lon="-3.02935">
        <ele>502.5</ele>
        <time>2023-06-14T21:25:48.000+02:00</time>
      </trkpt>
      <trkpt lat="42.67128" lon="-3.02943">
        <ele>503</ele>
        <time>2023-06-14T21:25:50.000+02:00</time>
      </trkpt>
      <trkpt lat="42.67094" lon="-3.02964">
        <ele>504.8</ele>
        <time>2023-06-14T21:25:56.000+02:00</time>
      </trkpt>
      <trkpt lat="42.67072" lon="-3.02983">
        <ele>505.5</ele>
        <time>2023-06-14T21:26:00.000+02:00</time>
      </trkpt>
      <trkpt lat="42.6701" lon="-3.03064">
        <ele>505.3</ele>
        <time>2023-06-14T21:26:13.000+02:00</time>
      </trkpt>
      <trkpt lat="42.66999" lon="-3.03075">
        <ele>505.3</ele>
        <time>2023-06-14T21:26:15.000+02:00</time>
      </trkpt>
      <trkpt lat="42.66957" lon="-3.03104">
        <ele>507.8</ele>
        <time>2023-06-14T21:26:22.000+02:00</time>
      </trkpt>
      <trkpt lat="42.66933" lon="-3.03121">
        <ele>509.3</ele>
        <time>2023-06-14T21:26:26.000+02:00</time>
      </trkpt>
      <trkpt lat="42.669" lon="-3.03142">
        <ele>511.8</ele>
        <time>2023-06-14T21:26:32.000+02:00</time>
      </trkpt>
      <trkpt lat="42.66884" lon="-3.03151">
        <ele>513.3</ele>
        <time>2023-06-14T21:26:34.000+02:00</time>
      </trkpt>
      <trkpt lat="42.66841" lon="-3.03172">
        <ele>518.5</ele>
        <time>2023-06-14T21:26:41.000+02:00</time>
      </trkpt>
      <trkpt lat="42.66836" lon="-3.03177">
        <ele>519.3</ele>
        <time>2023-06-14T21:26:42.000+02:00</time>
      </trkpt>
      <trkpt lat="42.66835" lon="-3.0318">
        <ele>519.5</ele>
        <time>2023-06-14T21:26:43.000+02:00</time>
      </trkpt>
      <trkpt lat="42.66835" lon="-3.0318">
        <ele>519.5</ele>
        <time>2023-06-14T21:26:43.000+02:00</time>
      </trkpt>
      <trkpt lat="42.66918" lon="-3.03298">
        <ele>517.4</ele>
        <time>2023-06-14T21:27:01.000+02:00</time>
      </trkpt>
      <trkpt lat="42.66981" lon="-3.03456">
        <ele>521.5</ele>
        <time>2023-06-14T21:27:21.000+02:00</time>
      </trkpt>
      <trkpt lat="42.67462" lon="-3.03598">
        <ele>514.9</ele>
        <time>2023-06-14T21:28:36.000+02:00</time>
      </trkpt>
      <trkpt lat="42.67675" lon="-3.03522">
        <ele>502.6</ele>
        <time>2023-06-14T21:29:10.000+02:00</time>
      </trkpt>
      <trkpt lat="42.67973" lon="-3.03752">
        <ele>512</ele>
        <time>2023-06-14T21:30:02.000+02:00</time>
      </trkpt>
      <trkpt lat="42.68968" lon="-3.04048">
        <ele>498.8</ele>
        <time>2023-06-14T21:32:38.000+02:00</time>
      </trkpt>
      <trkpt lat="42.69076" lon="-3.0385">
        <ele>505.5</ele>
        <time>2023-06-14T21:33:06.000+02:00</time>
      </trkpt>
      <trkpt lat="42.69108" lon="-3.03723">
        <ele>512.5</ele>
        <time>2023-06-14T21:33:21.000+02:00</time>
      </trkpt>
      <trkpt lat="42.69182" lon="-3.03622">
        <ele>517.4</ele>
        <time>2023-06-14T21:33:37.000+02:00</time>
      </trkpt>
      <trkpt lat="42.6929" lon="-3.03619">
        <ele>515.5</ele>
        <time>2023-06-14T21:33:53.000+02:00</time>
      </trkpt>
      <trkpt lat="42.69556" lon="-3.03834">
        <ele>527</ele>
        <time>2023-06-14T21:34:40.000+02:00</time>
      </trkpt>
      <trkpt lat="42.69672" lon="-3.03988">
        <ele>527.3</ele>
        <time>2023-06-14T21:35:05.000+02:00</time>
      </trkpt>
      <trkpt lat="42.6969" lon="-3.0394">
        <ele>531.8</ele>
        <time>2023-06-14T21:35:11.000+02:00</time>
      </trkpt>
      <trkpt lat="42.69731" lon="-3.03953">
        <ele>530.4</ele>
        <time>2023-06-14T21:35:18.000+02:00</time>
      </trkpt>
      <trkpt lat="42.69774" lon="-3.04008">
        <ele>526</ele>
        <time>2023-06-14T21:35:27.000+02:00</time>
      </trkpt>
      <trkpt lat="42.69782" lon="-3.04066">
        <ele>526.2</ele>
        <time>2023-06-14T21:35:34.000+02:00</time>
      </trkpt>
      <trkpt lat="42.69832" lon="-3.04031">
        <ele>528</ele>
        <time>2023-06-14T21:35:42.000+02:00</time>
      </trkpt>
      <trkpt lat="42.69839" lon="-3.03969">
        <ele>530</ele>
        <time>2023-06-14T21:35:49.000+02:00</time>
      </trkpt>
      <trkpt lat="42.69949" lon="-3.03898">
        <ele>534.2</ele>
        <time>2023-06-14T21:36:08.000+02:00</time>
      </trkpt>
      <trkpt lat="42.70127" lon="-3.03653">
        <ele>538.9</ele>
        <time>2023-06-14T21:36:46.000+02:00</time>
      </trkpt>
      <trkpt lat="42.70335" lon="-3.03531">
        <ele>537.7</ele>
        <time>2023-06-14T21:37:21.000+02:00</time>
      </trkpt>
      <trkpt lat="42.70408" lon="-3.03436">
        <ele>549.2</ele>
        <time>2023-06-14T21:37:37.000+02:00</time>
      </trkpt>
      <trkpt lat="42.70541" lon="-3.03425">
        <ele>560.6</ele>
        <time>2023-06-14T21:37:57.000+02:00</time>
      </trkpt>
      <trkpt lat="42.70784" lon="-3.03609">
        <ele>571.7</ele>
        <time>2023-06-14T21:38:39.000+02:00</time>
      </trkpt>
      <trkpt lat="42.70843" lon="-3.03748">
        <ele>574.2</ele>
        <time>2023-06-14T21:38:57.000+02:00</time>
      </trkpt>
      <trkpt lat="42.70821" lon="-3.03883">
        <ele>572.3</ele>
        <time>2023-06-14T21:39:13.000+02:00</time>
      </trkpt>
      <trkpt lat="42.70843" lon="-3.03972">
        <ele>571</ele>
        <time>2023-06-14T21:39:23.000+02:00</time>
      </trkpt>
      <trkpt lat="42.7082" lon="-3.04056">
        <ele>571.4</ele>
        <time>2023-06-14T21:39:33.000+02:00</time>
      </trkpt>
      <trkpt lat="42.70903" lon="-3.04209">
        <ele>572.4</ele>
        <time>2023-06-14T21:39:55.000+02:00</time>
      </trkpt>
      <trkpt lat="42.70899" lon="-3.04302">
        <ele>569.5</ele>
        <time>2023-06-14T21:40:05.000+02:00</time>
      </trkpt>
      <trkpt lat="42.70936" lon="-3.04434">
        <ele>570.2</ele>
        <time>2023-06-14T21:40:21.000+02:00</time>
      </trkpt>
      <trkpt lat="42.70921" lon="-3.04526">
        <ele>571.4</ele>
        <time>2023-06-14T21:40:32.000+02:00</time>
      </trkpt>
      <trkpt lat="42.70941" lon="-3.04634">
        <ele>569.3</ele>
        <time>2023-06-14T21:40:44.000+02:00</time>
      </trkpt>
      <trkpt lat="42.70898" lon="-3.0469">
        <ele>569.5</ele>
        <time>2023-06-14T21:40:53.000+02:00</time>
      </trkpt>
      <trkpt lat="42.70902" lon="-3.04729">
        <ele>572.2</ele>
        <time>2023-06-14T21:40:58.000+02:00</time>
      </trkpt>
      <trkpt lat="42.70991" lon="-3.04925">
        <ele>580.1</ele>
        <time>2023-06-14T21:41:23.000+02:00</time>
      </trkpt>
      <trkpt lat="42.71018" lon="-3.05115">
        <ele>574.8</ele>
        <time>2023-06-14T21:41:45.000+02:00</time>
      </trkpt>
      <trkpt lat="42.71064" lon="-3.05208">
        <ele>564.8</ele>
        <time>2023-06-14T21:41:58.000+02:00</time>
      </trkpt>
      <trkpt lat="42.71019" lon="-3.05291">
        <ele>565.8</ele>
        <time>2023-06-14T21:42:09.000+02:00</time>
      </trkpt>
      <trkpt lat="42.71025" lon="-3.0536">
        <ele>561.8</ele>
        <time>2023-06-14T21:42:17.000+02:00</time>
      </trkpt>
      <trkpt lat="42.71032" lon="-3.05379">
        <ele>561.3</ele>
        <time>2023-06-14T21:42:19.000+02:00</time>
      </trkpt>
      <trkpt lat="42.7106" lon="-3.05417">
        <ele>560.3</ele>
        <time>2023-06-14T21:42:25.000+02:00</time>
      </trkpt>
      <trkpt lat="42.71073" lon="-3.05431">
        <ele>558.8</ele>
        <time>2023-06-14T21:42:28.000+02:00</time>
      </trkpt>
      <trkpt lat="42.71094" lon="-3.05441">
        <ele>557.8</ele>
        <time>2023-06-14T21:42:31.000+02:00</time>
      </trkpt>
      <trkpt lat="42.71165" lon="-3.0546">
        <ele>555</ele>
        <time>2023-06-14T21:42:42.000+02:00</time>
      </trkpt>
      <trkpt lat="42.7119" lon="-3.05471">
        <ele>554.5</ele>
        <time>2023-06-14T21:42:46.000+02:00</time>
      </trkpt>
      <trkpt lat="42.71211" lon="-3.05494">
        <ele>551</ele>
        <time>2023-06-14T21:42:51.000+02:00</time>
      </trkpt>
      <trkpt lat="42.71224" lon="-3.05523">
        <ele>546.3</ele>
        <time>2023-06-14T21:42:54.000+02:00</time>
      </trkpt>
      <trkpt lat="42.71237" lon="-3.05544">
        <ele>542.8</ele>
        <time>2023-06-14T21:42:57.000+02:00</time>
      </trkpt>
      <trkpt lat="42.71253" lon="-3.05558">
        <ele>540</ele>
        <time>2023-06-14T21:43:00.000+02:00</time>
      </trkpt>
      <trkpt lat="42.71284" lon="-3.05562">
        <ele>537</ele>
        <time>2023-06-14T21:43:05.000+02:00</time>
      </trkpt>
      <trkpt lat="42.71326" lon="-3.0556">
        <ele>534.5</ele>
        <time>2023-06-14T21:43:12.000+02:00</time>
      </trkpt>
      <trkpt lat="42.71362" lon="-3.05554">
        <ele>536.3</ele>
        <time>2023-06-14T21:43:17.000+02:00</time>
      </trkpt>
      <trkpt lat="42.71377" lon="-3.05568">
        <ele>533.8</ele>
        <time>2023-06-14T21:43:20.000+02:00</time>
      </trkpt>
      <trkpt lat="42.71401" lon="-3.05601">
        <ele>529.8</ele>
        <time>2023-06-14T21:43:25.000+02:00</time>
      </trkpt>
      <trkpt lat="42.71424" lon="-3.05673">
        <ele>520.8</ele>
        <time>2023-06-14T21:43:34.000+02:00</time>
      </trkpt>
      <trkpt lat="42.7143" lon="-3.05696">
        <ele>519</ele>
        <time>2023-06-14T21:43:37.000+02:00</time>
      </trkpt>
      <trkpt lat="42.71427" lon="-3.05733">
        <ele>516</ele>
        <time>2023-06-14T21:43:41.000+02:00</time>
      </trkpt>
      <trkpt lat="42.71427" lon="-3.05764">
        <ele>513.8</ele>
        <time>2023-06-14T21:43:44.000+02:00</time>
      </trkpt>
      <trkpt lat="42.71453" lon="-3.05784">
        <ele>512</ele>
        <time>2023-06-14T21:43:49.000+02:00</time>
      </trkpt>
      <trkpt lat="42.71468" lon="-3.05802">
        <ele>510.5</ele>
        <time>2023-06-14T21:43:52.000+02:00</time>
      </trkpt>
      <trkpt lat="42.71473" lon="-3.05808">
        <ele>510</ele>
        <time>2023-06-14T21:43:53.000+02:00</time>
      </trkpt>
      <trkpt lat="42.71494" lon="-3.05772">
        <ele>511.8</ele>
        <time>2023-06-14T21:43:58.000+02:00</time>
      </trkpt>
      <trkpt lat="42.71516" lon="-3.05745">
        <ele>512.8</ele>
        <time>2023-06-14T21:44:03.000+02:00</time>
      </trkpt>
      <trkpt lat="42.71517" lon="-3.05744">
        <ele>512.8</ele>
        <time>2023-06-14T21:44:03.000+02:00</time>
      </trkpt>
      <trkpt lat="42.71537" lon="-3.05733">
        <ele>513.5</ele>
        <time>2023-06-14T21:44:06.000+02:00</time>
      </trkpt>
      <trkpt lat="42.71541" lon="-3.05732">
        <ele>513.3</ele>
        <time>2023-06-14T21:44:07.000+02:00</time>
      </trkpt>
      <trkpt lat="42.71572" lon="-3.05727">
        <ele>512.5</ele>
        <time>2023-06-14T21:44:11.000+02:00</time>
      </trkpt>
      <trkpt lat="42.71598" lon="-3.05724">
        <ele>512</ele>
        <time>2023-06-14T21:44:15.000+02:00</time>
      </trkpt>
      <trkpt lat="42.71605" lon="-3.05728">
        <ele>511.5</ele>
        <time>2023-06-14T21:44:17.000+02:00</time>
      </trkpt>
      <trkpt lat="42.71616" lon="-3.05735">
        <ele>510.5</ele>
        <time>2023-06-14T21:44:18.000+02:00</time>
      </trkpt>
      <trkpt lat="42.71628" lon="-3.05745">
        <ele>509</ele>
        <time>2023-06-14T21:44:21.000+02:00</time>
      </trkpt>
      <trkpt lat="42.71643" lon="-3.05754">
        <ele>507.8</ele>
        <time>2023-06-14T21:44:23.000+02:00</time>
      </trkpt>
      <trkpt lat="42.7167" lon="-3.05764">
        <ele>506.8</ele>
        <time>2023-06-14T21:44:27.000+02:00</time>
      </trkpt>
      <trkpt lat="42.71682" lon="-3.0576">
        <ele>506</ele>
        <time>2023-06-14T21:44:29.000+02:00</time>
      </trkpt>
      <trkpt lat="42.71702" lon="-3.05755">
        <ele>504.8</ele>
        <time>2023-06-14T21:44:32.000+02:00</time>
      </trkpt>
      <trkpt lat="42.71716" lon="-3.05779">
        <ele>503.3</ele>
        <time>2023-06-14T21:44:36.000+02:00</time>
      </trkpt>
      <trkpt lat="42.71737" lon="-3.05756">
        <ele>502</ele>
        <time>2023-06-14T21:44:40.000+02:00</time>
      </trkpt>
      <trkpt lat="42.71813" lon="-3.05668">
        <ele>500.5</ele>
        <time>2023-06-14T21:44:55.000+02:00</time>
      </trkpt>
      <trkpt lat="42.71864" lon="-3.05611">
        <ele>501.3</ele>
        <time>2023-06-14T21:45:05.000+02:00</time>
      </trkpt>
      <trkpt lat="42.71884" lon="-3.05589">
        <ele>501.8</ele>
        <time>2023-06-14T21:45:09.000+02:00</time>
      </trkpt>
      <trkpt lat="42.719" lon="-3.05573">
        <ele>502</ele>
        <time>2023-06-14T21:45:12.000+02:00</time>
      </trkpt>
      <trkpt lat="42.71935" lon="-3.05544">
        <ele>501.5</ele>
        <time>2023-06-14T21:45:19.000+02:00</time>
      </trkpt>
      <trkpt lat="42.72013" lon="-3.05484">
        <ele>499.3</ele>
        <time>2023-06-14T21:45:32.000+02:00</time>
      </trkpt>
      <trkpt lat="42.72016" lon="-3.05481">
        <ele>499</ele>
        <time>2023-06-14T21:45:33.000+02:00</time>
      </trkpt>
      <trkpt lat="42.72172" lon="-3.0536">
        <ele>498.5</ele>
        <time>2023-06-14T21:46:00.000+02:00</time>
      </trkpt>
      <trkpt lat="42.72205" lon="-3.05337">
        <ele>498.8</ele>
        <time>2023-06-14T21:46:06.000+02:00</time>
      </trkpt>
      <trkpt lat="42.72231" lon="-3.05314">
        <ele>499</ele>
        <time>2023-06-14T21:46:11.000+02:00</time>
      </trkpt>
      <trkpt lat="42.72265" lon="-3.05279">
        <ele>499</ele>
        <time>2023-06-14T21:46:17.000+02:00</time>
      </trkpt>
      <trkpt lat="42.7228" lon="-3.05263">
        <ele>498.8</ele>
        <time>2023-06-14T21:46:20.000+02:00</time>
      </trkpt>
      <trkpt lat="42.72299" lon="-3.05239">
        <ele>499</ele>
        <time>2023-06-14T21:46:24.000+02:00</time>
      </trkpt>
      <trkpt lat="42.72323" lon="-3.05205">
        <ele>499.3</ele>
        <time>2023-06-14T21:46:29.000+02:00</time>
      </trkpt>
      <trkpt lat="42.72339" lon="-3.05181">
        <ele>499.5</ele>
        <time>2023-06-14T21:46:33.000+02:00</time>
      </trkpt>
      <trkpt lat="42.72451" lon="-3.05007">
        <ele>498.3</ele>
        <time>2023-06-14T21:46:59.000+02:00</time>
      </trkpt>
      <trkpt lat="42.72556" lon="-3.04849">
        <ele>499.3</ele>
        <time>2023-06-14T21:47:23.000+02:00</time>
      </trkpt>
      <trkpt lat="42.72612" lon="-3.04766">
        <ele>501.8</ele>
        <time>2023-06-14T21:47:35.000+02:00</time>
      </trkpt>
      <trkpt lat="42.72615" lon="-3.04761">
        <ele>501.8</ele>
        <time>2023-06-14T21:47:36.000+02:00</time>
      </trkpt>
      <trkpt lat="42.72642" lon="-3.04721">
        <ele>501.5</ele>
        <time>2023-06-14T21:47:42.000+02:00</time>
      </trkpt>
      <trkpt lat="42.72756" lon="-3.04551">
        <ele>495.5</ele>
        <time>2023-06-14T21:48:08.000+02:00</time>
      </trkpt>
      <trkpt lat="42.72776" lon="-3.04524">
        <ele>495.5</ele>
        <time>2023-06-14T21:48:12.000+02:00</time>
      </trkpt>
      <trkpt lat="42.72796" lon="-3.04499">
        <ele>495.5</ele>
        <time>2023-06-14T21:48:17.000+02:00</time>
      </trkpt>
      <trkpt lat="42.72816" lon="-3.0448">
        <ele>495.3</ele>
        <time>2023-06-14T21:48:20.000+02:00</time>
      </trkpt>
      <trkpt lat="42.72835" lon="-3.04463">
        <ele>495.5</ele>
        <time>2023-06-14T21:48:24.000+02:00</time>
      </trkpt>
      <trkpt lat="42.72855" lon="-3.0445">
        <ele>496.5</ele>
        <time>2023-06-14T21:48:27.000+02:00</time>
      </trkpt>
      <trkpt lat="42.72882" lon="-3.04434">
        <ele>497.5</ele>
        <time>2023-06-14T21:48:32.000+02:00</time>
      </trkpt>
      <trkpt lat="42.72902" lon="-3.04428">
        <ele>498.5</ele>
        <time>2023-06-14T21:48:35.000+02:00</time>
      </trkpt>
      <trkpt lat="42.7292" lon="-3.04423">
        <ele>499</ele>
        <time>2023-06-14T21:48:38.000+02:00</time>
      </trkpt>
      <trkpt lat="42.72942" lon="-3.04419">
        <ele>499</ele>
        <time>2023-06-14T21:48:41.000+02:00</time>
      </trkpt>
      <trkpt lat="42.72966" lon="-3.04418">
        <ele>499</ele>
        <time>2023-06-14T21:48:45.000+02:00</time>
      </trkpt>
      <trkpt lat="42.72994" lon="-3.04419">
        <ele>499</ele>
        <time>2023-06-14T21:48:49.000+02:00</time>
      </trkpt>
      <trkpt lat="42.73019" lon="-3.04424">
        <ele>498.8</ele>
        <time>2023-06-14T21:48:53.000+02:00</time>
      </trkpt>
      <trkpt lat="42.73045" lon="-3.04432">
        <ele>498.5</ele>
        <time>2023-06-14T21:48:57.000+02:00</time>
      </trkpt>
      <trkpt lat="42.73143" lon="-3.04468">
        <ele>498.3</ele>
        <time>2023-06-14T21:49:12.000+02:00</time>
      </trkpt>
      <trkpt lat="42.7318" lon="-3.04483">
        <ele>498.3</ele>
        <time>2023-06-14T21:49:18.000+02:00</time>
      </trkpt>
      <trkpt lat="42.73198" lon="-3.04489">
        <ele>498.3</ele>
        <time>2023-06-14T21:49:21.000+02:00</time>
      </trkpt>
      <trkpt lat="42.73252" lon="-3.0451">
        <ele>498.3</ele>
        <time>2023-06-14T21:49:30.000+02:00</time>
      </trkpt>
      <trkpt lat="42.73289" lon="-3.04524">
        <ele>498.3</ele>
        <time>2023-06-14T21:49:36.000+02:00</time>
      </trkpt>
      <trkpt lat="42.73288" lon="-3.04537">
        <ele>498.5</ele>
        <time>2023-06-14T21:49:37.000+02:00</time>
      </trkpt>
      <trkpt lat="42.73291" lon="-3.04556">
        <ele>498.5</ele>
        <time>2023-06-14T21:49:39.000+02:00</time>
      </trkpt>
      <trkpt lat="42.73297" lon="-3.04574">
        <ele>498.5</ele>
        <time>2023-06-14T21:49:41.000+02:00</time>
      </trkpt>
      <trkpt lat="42.73312" lon="-3.0461">
        <ele>498.5</ele>
        <time>2023-06-14T21:49:46.000+02:00</time>
      </trkpt>
      <trkpt lat="42.73323" lon="-3.04637">
        <ele>498.3</ele>
        <time>2023-06-14T21:49:50.000+02:00</time>
      </trkpt>
      <trkpt lat="42.7338" lon="-3.04752">
        <ele>498.3</ele>
        <time>2023-06-14T21:50:05.000+02:00</time>
      </trkpt>
      <trkpt lat="42.73385" lon="-3.04765">
        <ele>498</ele>
        <time>2023-06-14T21:50:07.000+02:00</time>
      </trkpt>
      <trkpt lat="42.73389" lon="-3.04778">
        <ele>498</ele>
        <time>2023-06-14T21:50:08.000+02:00</time>
      </trkpt>
      <trkpt lat="42.7339" lon="-3.04788">
        <ele>498.3</ele>
        <time>2023-06-14T21:50:10.000+02:00</time>
      </trkpt>
      <trkpt lat="42.73387" lon="-3.04812">
        <ele>498.5</ele>
        <time>2023-06-14T21:50:12.000+02:00</time>
      </trkpt>
      <trkpt lat="42.73366" lon="-3.04977">
        <ele>500</ele>
        <time>2023-06-14T21:50:31.000+02:00</time>
      </trkpt>
      <trkpt lat="42.73356" lon="-3.0504">
        <ele>501.3</ele>
        <time>2023-06-14T21:50:38.000+02:00</time>
      </trkpt>
      <trkpt lat="42.73352" lon="-3.05057">
        <ele>501.8</ele>
        <time>2023-06-14T21:50:40.000+02:00</time>
      </trkpt>
      <trkpt lat="42.73348" lon="-3.05067">
        <ele>501.8</ele>
        <time>2023-06-14T21:50:42.000+02:00</time>
      </trkpt>
      <trkpt lat="42.73343" lon="-3.05065">
        <ele>501.8</ele>
        <time>2023-06-14T21:50:43.000+02:00</time>
      </trkpt>
      <trkpt lat="42.73348" lon="-3.05067">
        <ele>501.8</ele>
        <time>2023-06-14T21:50:44.000+02:00</time>
      </trkpt>
      <trkpt lat="42.73317" lon="-3.05131">
        <ele>505</ele>
        <time>2023-06-14T21:50:53.000+02:00</time>
      </trkpt>
      <trkpt lat="42.73314" lon="-3.05139">
        <ele>505.5</ele>
        <time>2023-06-14T21:50:54.000+02:00</time>
      </trkpt>
      <trkpt lat="42.73318" lon="-3.05149">
        <ele>506</ele>
        <time>2023-06-14T21:50:55.000+02:00</time>
      </trkpt>
      <trkpt lat="42.73343" lon="-3.05191">
        <ele>507.8</ele>
        <time>2023-06-14T21:51:01.000+02:00</time>
      </trkpt>
      <trkpt lat="42.73398" lon="-3.05279">
        <ele>513.3</ele>
        <time>2023-06-14T21:51:14.000+02:00</time>
      </trkpt>
      <trkpt lat="42.73407" lon="-3.05295">
        <ele>514.3</ele>
        <time>2023-06-14T21:51:16.000+02:00</time>
      </trkpt>
      <trkpt lat="42.73417" lon="-3.05306">
        <ele>515</ele>
        <time>2023-06-14T21:51:18.000+02:00</time>
      </trkpt>
      <trkpt lat="42.7343" lon="-3.05317">
        <ele>515.5</ele>
        <time>2023-06-14T21:51:21.000+02:00</time>
      </trkpt>
      <trkpt lat="42.73438" lon="-3.05326">
        <ele>516</ele>
        <time>2023-06-14T21:51:22.000+02:00</time>
      </trkpt>
      <trkpt lat="42.73459" lon="-3.05348">
        <ele>517.5</ele>
        <time>2023-06-14T21:51:26.000+02:00</time>
      </trkpt>
      <trkpt lat="42.73471" lon="-3.05363">
        <ele>518.8</ele>
        <time>2023-06-14T21:51:29.000+02:00</time>
      </trkpt>
      <trkpt lat="42.73473" lon="-3.05376">
        <ele>519.5</ele>
        <time>2023-06-14T21:51:30.000+02:00</time>
      </trkpt>
      <trkpt lat="42.73474" lon="-3.05411">
        <ele>521.3</ele>
        <time>2023-06-14T21:51:34.000+02:00</time>
      </trkpt>
      <trkpt lat="42.73475" lon="-3.05424">
        <ele>521.8</ele>
        <time>2023-06-14T21:51:36.000+02:00</time>
      </trkpt>
      <trkpt lat="42.73483" lon="-3.05441">
        <ele>522.5</ele>
        <time>2023-06-14T21:51:38.000+02:00</time>
      </trkpt>
      <trkpt lat="42.73488" lon="-3.05458">
        <ele>523</ele>
        <time>2023-06-14T21:51:40.000+02:00</time>
      </trkpt>
      <trkpt lat="42.7349" lon="-3.05472">
        <ele>523.3</ele>
        <time>2023-06-14T21:51:42.000+02:00</time>
      </trkpt>
      <trkpt lat="42.7349" lon="-3.05491">
        <ele>523.5</ele>
        <time>2023-06-14T21:51:44.000+02:00</time>
      </trkpt>
      <trkpt lat="42.73487" lon="-3.0551">
        <ele>524.3</ele>
        <time>2023-06-14T21:51:46.000+02:00</time>
      </trkpt>
      <trkpt lat="42.73487" lon="-3.05519">
        <ele>524.8</ele>
        <time>2023-06-14T21:51:47.000+02:00</time>
      </trkpt>
      <trkpt lat="42.73494" lon="-3.05547">
        <ele>526</ele>
        <time>2023-06-14T21:51:50.000+02:00</time>
      </trkpt>
      <trkpt lat="42.73496" lon="-3.05568">
        <ele>527.3</ele>
        <time>2023-06-14T21:51:53.000+02:00</time>
      </trkpt>
      <trkpt lat="42.73499" lon="-3.05589">
        <ele>528.5</ele>
        <time>2023-06-14T21:51:55.000+02:00</time>
      </trkpt>
      <trkpt lat="42.73508" lon="-3.05613">
        <ele>530.5</ele>
        <time>2023-06-14T21:51:58.000+02:00</time>
      </trkpt>
      <trkpt lat="42.73516" lon="-3.0563">
        <ele>531.8</ele>
        <time>2023-06-14T21:52:00.000+02:00</time>
      </trkpt>
      <trkpt lat="42.73521" lon="-3.0564">
        <ele>532.5</ele>
        <time>2023-06-14T21:52:02.000+02:00</time>
      </trkpt>
      <trkpt lat="42.73538" lon="-3.05687">
        <ele>535.3</ele>
        <time>2023-06-14T21:52:08.000+02:00</time>
      </trkpt>
      <trkpt lat="42.73555" lon="-3.05716">
        <ele>535.5</ele>
        <time>2023-06-14T21:52:12.000+02:00</time>
      </trkpt>
      <trkpt lat="42.73565" lon="-3.05703">
        <ele>534</ele>
        <time>2023-06-14T21:52:14.000+02:00</time>
      </trkpt>
      <trkpt lat="42.73582" lon="-3.05677">
        <ele>531.5</ele>
        <time>2023-06-14T21:52:18.000+02:00</time>
      </trkpt>
      <trkpt lat="42.73587" lon="-3.05671">
        <ele>531</ele>
        <time>2023-06-14T21:52:19.000+02:00</time>
      </trkpt>
      <trkpt lat="42.73593" lon="-3.0567">
        <ele>530.5</ele>
        <time>2023-06-14T21:52:20.000+02:00</time>
      </trkpt>
      <trkpt lat="42.73608" lon="-3.0568">
        <ele>530.3</ele>
        <time>2023-06-14T21:52:22.000+02:00</time>
      </trkpt>
      <trkpt lat="42.7362" lon="-3.05685">
        <ele>530</ele>
        <time>2023-06-14T21:52:24.000+02:00</time>
      </trkpt>
      <trkpt lat="42.73628" lon="-3.05683">
        <ele>529.8</ele>
        <time>2023-06-14T21:52:25.000+02:00</time>
      </trkpt>
      <trkpt lat="42.73636" lon="-3.0568">
        <ele>529</ele>
        <time>2023-06-14T21:52:27.000+02:00</time>
      </trkpt>
      <trkpt lat="42.73644" lon="-3.05673">
        <ele>528.3</ele>
        <time>2023-06-14T21:52:28.000+02:00</time>
      </trkpt>
      <trkpt lat="42.73649" lon="-3.05663">
        <ele>527.5</ele>
        <time>2023-06-14T21:52:29.000+02:00</time>
      </trkpt>
      <trkpt lat="42.73654" lon="-3.05642">
        <ele>525.5</ele>
        <time>2023-06-14T21:52:32.000+02:00</time>
      </trkpt>
      <trkpt lat="42.73658" lon="-3.05628">
        <ele>524.5</ele>
        <time>2023-06-14T21:52:34.000+02:00</time>
      </trkpt>
      <trkpt lat="42.73665" lon="-3.05618">
        <ele>523.5</ele>
        <time>2023-06-14T21:52:35.000+02:00</time>
      </trkpt>
      <trkpt lat="42.73675" lon="-3.0561">
        <ele>522.8</ele>
        <time>2023-06-14T21:52:37.000+02:00</time>
      </trkpt>
      <trkpt lat="42.73684" lon="-3.05609">
        <ele>522.8</ele>
        <time>2023-06-14T21:52:38.000+02:00</time>
      </trkpt>
      <trkpt lat="42.73697" lon="-3.05609">
        <ele>522.8</ele>
        <time>2023-06-14T21:52:40.000+02:00</time>
      </trkpt>
      <trkpt lat="42.73709" lon="-3.05612">
        <ele>522.8</ele>
        <time>2023-06-14T21:52:42.000+02:00</time>
      </trkpt>
      <trkpt lat="42.73723" lon="-3.05621">
        <ele>523</ele>
        <time>2023-06-14T21:52:45.000+02:00</time>
      </trkpt>
      <trkpt lat="42.73737" lon="-3.05633">
        <ele>523.3</ele>
        <time>2023-06-14T21:52:47.000+02:00</time>
      </trkpt>
      <trkpt lat="42.73763" lon="-3.05663">
        <ele>523.5</ele>
        <time>2023-06-14T21:52:52.000+02:00</time>
      </trkpt>
      <trkpt lat="42.73781" lon="-3.05688">
        <ele>525.5</ele>
        <time>2023-06-14T21:52:56.000+02:00</time>
      </trkpt>
      <trkpt lat="42.73801" lon="-3.05725">
        <ele>528.5</ele>
        <time>2023-06-14T21:53:01.000+02:00</time>
      </trkpt>
      <trkpt lat="42.73808" lon="-3.05742">
        <ele>530.3</ele>
        <time>2023-06-14T21:53:04.000+02:00</time>
      </trkpt>
      <trkpt lat="42.73826" lon="-3.05773">
        <ele>532</ele>
        <time>2023-06-14T21:53:08.000+02:00</time>
      </trkpt>
      <trkpt lat="42.73859" lon="-3.05805">
        <ele>534.3</ele>
        <time>2023-06-14T21:53:14.000+02:00</time>
      </trkpt>
      <trkpt lat="42.7389" lon="-3.05851">
        <ele>534.3</ele>
        <time>2023-06-14T21:53:21.000+02:00</time>
      </trkpt>
      <trkpt lat="42.73895" lon="-3.05858">
        <ele>533.5</ele>
        <time>2023-06-14T21:53:22.000+02:00</time>
      </trkpt>
      <trkpt lat="42.73903" lon="-3.05866">
        <ele>532.8</ele>
        <time>2023-06-14T21:53:24.000+02:00</time>
      </trkpt>
      <trkpt lat="42.73916" lon="-3.05875">
        <ele>531.5</ele>
        <time>2023-06-14T21:53:26.000+02:00</time>
      </trkpt>
      <trkpt lat="42.73958" lon="-3.05895">
        <ele>529.5</ele>
        <time>2023-06-14T21:53:33.000+02:00</time>
      </trkpt>
      <trkpt lat="42.73976" lon="-3.059">
        <ele>529</ele>
        <time>2023-06-14T21:53:36.000+02:00</time>
      </trkpt>
      <trkpt lat="42.73985" lon="-3.05905">
        <ele>528.3</ele>
        <time>2023-06-14T21:53:37.000+02:00</time>
      </trkpt>
      <trkpt lat="42.74001" lon="-3.05929">
        <ele>526</ele>
        <time>2023-06-14T21:53:41.000+02:00</time>
      </trkpt>
      <trkpt lat="42.74013" lon="-3.0594">
        <ele>524.5</ele>
        <time>2023-06-14T21:53:43.000+02:00</time>
      </trkpt>
      <trkpt lat="42.74023" lon="-3.05948">
        <ele>523.3</ele>
        <time>2023-06-14T21:53:45.000+02:00</time>
      </trkpt>
      <trkpt lat="42.74032" lon="-3.05952">
        <ele>522.5</ele>
        <time>2023-06-14T21:53:46.000+02:00</time>
      </trkpt>
      <trkpt lat="42.74038" lon="-3.05953">
        <ele>522.3</ele>
        <time>2023-06-14T21:53:47.000+02:00</time>
      </trkpt>
      <trkpt lat="42.74042" lon="-3.05953">
        <ele>522</ele>
        <time>2023-06-14T21:53:48.000+02:00</time>
      </trkpt>
      <trkpt lat="42.74056" lon="-3.05949">
        <ele>521.5</ele>
        <time>2023-06-14T21:53:50.000+02:00</time>
      </trkpt>
      <trkpt lat="42.74065" lon="-3.05947">
        <ele>521</ele>
        <time>2023-06-14T21:53:51.000+02:00</time>
      </trkpt>
      <trkpt lat="42.74067" lon="-3.05946">
        <ele>521</ele>
        <time>2023-06-14T21:53:52.000+02:00</time>
      </trkpt>
      <trkpt lat="42.74105" lon="-3.05952">
        <ele>517.3</ele>
        <time>2023-06-14T21:53:57.000+02:00</time>
      </trkpt>
      <trkpt lat="42.74151" lon="-3.05963">
        <ele>511.3</ele>
        <time>2023-06-14T21:54:05.000+02:00</time>
      </trkpt>
      <trkpt lat="42.74166" lon="-3.05969">
        <ele>509.5</ele>
        <time>2023-06-14T21:54:07.000+02:00</time>
      </trkpt>
      <trkpt lat="42.74188" lon="-3.05983">
        <ele>508</ele>
        <time>2023-06-14T21:54:11.000+02:00</time>
      </trkpt>
      <trkpt lat="42.74207" lon="-3.05998">
        <ele>507.5</ele>
        <time>2023-06-14T21:54:14.000+02:00</time>
      </trkpt>
      <trkpt lat="42.74228" lon="-3.06004">
        <ele>506.5</ele>
        <time>2023-06-14T21:54:17.000+02:00</time>
      </trkpt>
      <trkpt lat="42.74249" lon="-3.06018">
        <ele>505.5</ele>
        <time>2023-06-14T21:54:21.000+02:00</time>
      </trkpt>
      <trkpt lat="42.74265" lon="-3.06028">
        <ele>504.8</ele>
        <time>2023-06-14T21:54:24.000+02:00</time>
      </trkpt>
      <trkpt lat="42.74289" lon="-3.06039">
        <ele>504.3</ele>
        <time>2023-06-14T21:54:27.000+02:00</time>
      </trkpt>
      <trkpt lat="42.74314" lon="-3.06052">
        <ele>503.8</ele>
        <time>2023-06-14T21:54:31.000+02:00</time>
      </trkpt>
      <trkpt lat="42.74321" lon="-3.06053">
        <ele>503.8</ele>
        <time>2023-06-14T21:54:33.000+02:00</time>
      </trkpt>
      <trkpt lat="42.74327" lon="-3.06053">
        <ele>503.5</ele>
        <time>2023-06-14T21:54:34.000+02:00</time>
      </trkpt>
      <trkpt lat="42.74343" lon="-3.06047">
        <ele>503</ele>
        <time>2023-06-14T21:54:36.000+02:00</time>
      </trkpt>
      <trkpt lat="42.74358" lon="-3.06043">
        <ele>502.3</ele>
        <time>2023-06-14T21:54:38.000+02:00</time>
      </trkpt>
      <trkpt lat="42.74368" lon="-3.06042">
        <ele>501.8</ele>
        <time>2023-06-14T21:54:40.000+02:00</time>
      </trkpt>
      <trkpt lat="42.74376" lon="-3.06045">
        <ele>501.5</ele>
        <time>2023-06-14T21:54:41.000+02:00</time>
      </trkpt>
      <trkpt lat="42.74411" lon="-3.06077">
        <ele>502.5</ele>
        <time>2023-06-14T21:54:48.000+02:00</time>
      </trkpt>
      <trkpt lat="42.74418" lon="-3.06082">
        <ele>502.8</ele>
        <time>2023-06-14T21:54:49.000+02:00</time>
      </trkpt>
      <trkpt lat="42.74425" lon="-3.06085">
        <ele>502.8</ele>
        <time>2023-06-14T21:54:50.000+02:00</time>
      </trkpt>
      <trkpt lat="42.74433" lon="-3.06087">
        <ele>502.8</ele>
        <time>2023-06-14T21:54:51.000+02:00</time>
      </trkpt>
      <trkpt lat="42.74449" lon="-3.06088">
        <ele>502.5</ele>
        <time>2023-06-14T21:54:54.000+02:00</time>
      </trkpt>
      <trkpt lat="42.74465" lon="-3.06091">
        <ele>502.3</ele>
        <time>2023-06-14T21:54:56.000+02:00</time>
      </trkpt>
      <trkpt lat="42.74465" lon="-3.06076">
        <ele>501.8</ele>
        <time>2023-06-14T21:54:58.000+02:00</time>
      </trkpt>
      <trkpt lat="42.74465" lon="-3.06066">
        <ele>501</ele>
        <time>2023-06-14T21:54:59.000+02:00</time>
      </trkpt>
      <trkpt lat="42.74478" lon="-3.06044">
        <ele>499.5</ele>
        <time>2023-06-14T21:55:02.000+02:00</time>
      </trkpt>
      <trkpt lat="42.7449" lon="-3.06019">
        <ele>498</ele>
        <time>2023-06-14T21:55:05.000+02:00</time>
      </trkpt>
      <trkpt lat="42.74498" lon="-3.05987">
        <ele>496</ele>
        <time>2023-06-14T21:55:09.000+02:00</time>
      </trkpt>
      <trkpt lat="42.74504" lon="-3.05972">
        <ele>495</ele>
        <time>2023-06-14T21:55:11.000+02:00</time>
      </trkpt>
      <trkpt lat="42.7451" lon="-3.05962">
        <ele>494.3</ele>
        <time>2023-06-14T21:55:12.000+02:00</time>
      </trkpt>
      <trkpt lat="42.74522" lon="-3.05948">
        <ele>493</ele>
        <time>2023-06-14T21:55:15.000+02:00</time>
      </trkpt>
      <trkpt lat="42.74536" lon="-3.05924">
        <ele>491.5</ele>
        <time>2023-06-14T21:55:18.000+02:00</time>
      </trkpt>
      <trkpt lat="42.74564" lon="-3.05882">
        <ele>490.3</ele>
        <time>2023-06-14T21:55:25.000+02:00</time>
      </trkpt>
      <trkpt lat="42.74575" lon="-3.05867">
        <ele>489.8</ele>
        <time>2023-06-14T21:55:27.000+02:00</time>
      </trkpt>
      <trkpt lat="42.74588" lon="-3.05853">
        <ele>489.3</ele>
        <time>2023-06-14T21:55:30.000+02:00</time>
      </trkpt>
      <trkpt lat="42.74597" lon="-3.05847">
        <ele>489.5</ele>
        <time>2023-06-14T21:55:31.000+02:00</time>
      </trkpt>
      <trkpt lat="42.746" lon="-3.05847">
        <ele>489.5</ele>
        <time>2023-06-14T21:55:32.000+02:00</time>
      </trkpt>
      <trkpt lat="42.74611" lon="-3.05845">
        <ele>490</ele>
        <time>2023-06-14T21:55:33.000+02:00</time>
      </trkpt>
      <trkpt lat="42.74625" lon="-3.0584">
        <ele>490.3</ele>
        <time>2023-06-14T21:55:35.000+02:00</time>
      </trkpt>
      <trkpt lat="42.74641" lon="-3.05829">
        <ele>490.3</ele>
        <time>2023-06-14T21:55:38.000+02:00</time>
      </trkpt>
      <trkpt lat="42.74653" lon="-3.05817">
        <ele>490</ele>
        <time>2023-06-14T21:55:40.000+02:00</time>
      </trkpt>
      <trkpt lat="42.74659" lon="-3.05804">
        <ele>489.8</ele>
        <time>2023-06-14T21:55:42.000+02:00</time>
      </trkpt>
      <trkpt lat="42.74666" lon="-3.05767">
        <ele>488.5</ele>
        <time>2023-06-14T21:55:47.000+02:00</time>
      </trkpt>
      <trkpt lat="42.74672" lon="-3.0575">
        <ele>488.3</ele>
        <time>2023-06-14T21:55:49.000+02:00</time>
      </trkpt>
      <trkpt lat="42.74675" lon="-3.05738">
        <ele>488.5</ele>
        <time>2023-06-14T21:55:50.000+02:00</time>
      </trkpt>
      <trkpt lat="42.74676" lon="-3.05727">
        <ele>488.5</ele>
        <time>2023-06-14T21:55:51.000+02:00</time>
      </trkpt>
      <trkpt lat="42.74675" lon="-3.05687">
        <ele>487.8</ele>
        <time>2023-06-14T21:55:56.000+02:00</time>
      </trkpt>
      <trkpt lat="42.74676" lon="-3.05677">
        <ele>487.8</ele>
        <time>2023-06-14T21:55:57.000+02:00</time>
      </trkpt>
      <trkpt lat="42.74681" lon="-3.05658">
        <ele>487.8</ele>
        <time>2023-06-14T21:55:59.000+02:00</time>
      </trkpt>
      <trkpt lat="42.74688" lon="-3.05639">
        <ele>487.5</ele>
        <time>2023-06-14T21:56:02.000+02:00</time>
      </trkpt>
      <trkpt lat="42.74703" lon="-3.05612">
        <ele>488.3</ele>
        <time>2023-06-14T21:56:05.000+02:00</time>
      </trkpt>
      <trkpt lat="42.74735" lon="-3.05556">
        <ele>490</ele>
        <time>2023-06-14T21:56:13.000+02:00</time>
      </trkpt>
      <trkpt lat="42.74745" lon="-3.05538">
        <ele>490</ele>
        <time>2023-06-14T21:56:16.000+02:00</time>
      </trkpt>
      <trkpt lat="42.7475" lon="-3.05519">
        <ele>489</ele>
        <time>2023-06-14T21:56:18.000+02:00</time>
      </trkpt>
      <trkpt lat="42.74754" lon="-3.05479">
        <ele>488.5</ele>
        <time>2023-06-14T21:56:23.000+02:00</time>
      </trkpt>
      <trkpt lat="42.74756" lon="-3.05466">
        <ele>489</ele>
        <time>2023-06-14T21:56:24.000+02:00</time>
      </trkpt>
      <trkpt lat="42.74762" lon="-3.05455">
        <ele>490</ele>
        <time>2023-06-14T21:56:26.000+02:00</time>
      </trkpt>
      <trkpt lat="42.74773" lon="-3.05441">
        <ele>491.5</ele>
        <time>2023-06-14T21:56:28.000+02:00</time>
      </trkpt>
      <trkpt lat="42.74777" lon="-3.05426">
        <ele>492</ele>
        <time>2023-06-14T21:56:30.000+02:00</time>
      </trkpt>
      <trkpt lat="42.74778" lon="-3.05403">
        <ele>492</ele>
        <time>2023-06-14T21:56:32.000+02:00</time>
      </trkpt>
      <trkpt lat="42.74778" lon="-3.0537">
        <ele>491.8</ele>
        <time>2023-06-14T21:56:36.000+02:00</time>
      </trkpt>
      <trkpt lat="42.74774" lon="-3.05331">
        <ele>490.8</ele>
        <time>2023-06-14T21:56:41.000+02:00</time>
      </trkpt>
      <trkpt lat="42.74774" lon="-3.05316">
        <ele>490.5</ele>
        <time>2023-06-14T21:56:42.000+02:00</time>
      </trkpt>
      <trkpt lat="42.74777" lon="-3.05303">
        <ele>490.3</ele>
        <time>2023-06-14T21:56:44.000+02:00</time>
      </trkpt>
      <trkpt lat="42.74794" lon="-3.05259">
        <ele>490.3</ele>
        <time>2023-06-14T21:56:49.000+02:00</time>
      </trkpt>
      <trkpt lat="42.74798" lon="-3.05239">
        <ele>490</ele>
        <time>2023-06-14T21:56:52.000+02:00</time>
      </trkpt>
      <trkpt lat="42.74797" lon="-3.05189">
        <ele>488.3</ele>
        <time>2023-06-14T21:56:57.000+02:00</time>
      </trkpt>
      <trkpt lat="42.74798" lon="-3.05153">
        <ele>486.8</ele>
        <time>2023-06-14T21:57:01.000+02:00</time>
      </trkpt>
      <trkpt lat="42.74808" lon="-3.05113">
        <ele>485.5</ele>
        <time>2023-06-14T21:57:06.000+02:00</time>
      </trkpt>
      <trkpt lat="42.7482" lon="-3.05074">
        <ele>484.3</ele>
        <time>2023-06-14T21:57:11.000+02:00</time>
      </trkpt>
      <trkpt lat="42.7483" lon="-3.05053">
        <ele>484.3</ele>
        <time>2023-06-14T21:57:14.000+02:00</time>
      </trkpt>
      <trkpt lat="42.7486" lon="-3.0501">
        <ele>482</ele>
        <time>2023-06-14T21:57:20.000+02:00</time>
      </trkpt>
      <trkpt lat="42.74845" lon="-3.05003">
        <ele>481.8</ele>
        <time>2023-06-14T21:57:23.000+02:00</time>
      </trkpt>
      <trkpt lat="42.74858" lon="-3.05">
        <ele>481.3</ele>
        <time>2023-06-14T21:57:25.000+02:00</time>
      </trkpt>
      <trkpt lat="42.74864" lon="-3.04999">
        <ele>481.3</ele>
        <time>2023-06-14T21:57:26.000+02:00</time>
      </trkpt>
      <trkpt lat="42.74873" lon="-3.04995">
        <ele>480.8</ele>
        <time>2023-06-14T21:57:27.000+02:00</time>
      </trkpt>
      <trkpt lat="42.74888" lon="-3.04986">
        <ele>479.3</ele>
        <time>2023-06-14T21:57:30.000+02:00</time>
      </trkpt>
      <trkpt lat="42.749" lon="-3.04976">
        <ele>478</ele>
        <time>2023-06-14T21:57:32.000+02:00</time>
      </trkpt>
      <trkpt lat="42.74915" lon="-3.04955">
        <ele>475</ele>
        <time>2023-06-14T21:57:35.000+02:00</time>
      </trkpt>
      <trkpt lat="42.74991" lon="-3.04786">
        <ele>473.2</ele>
        <time>2023-06-14T21:57:57.000+02:00</time>
      </trkpt>
      <trkpt lat="42.75069" lon="-3.0477">
        <ele>474</ele>
        <time>2023-06-14T21:58:09.000+02:00</time>
      </trkpt>
      <trkpt lat="42.75226" lon="-3.04807">
        <ele>474</ele>
        <time>2023-06-14T21:58:34.000+02:00</time>
      </trkpt>
      <trkpt lat="42.75446" lon="-3.04786">
        <ele>475</ele>
        <time>2023-06-14T21:59:07.000+02:00</time>
      </trkpt>
      <trkpt lat="42.75657" lon="-3.04718">
        <ele>475</ele>
        <time>2023-06-14T21:59:41.000+02:00</time>
      </trkpt>
      <trkpt lat="42.75684" lon="-3.04688">
        <ele>475</ele>
        <time>2023-06-14T21:59:46.000+02:00</time>
      </trkpt>
      <trkpt lat="42.76183" lon="-3.0458">
        <ele>475.3</ele>
        <time>2023-06-14T22:01:03.000+02:00</time>
      </trkpt>
      <trkpt lat="42.76648" lon="-3.04702">
        <ele>474.9</ele>
        <time>2023-06-14T22:02:15.000+02:00</time>
      </trkpt>
      <trkpt lat="42.76634" lon="-3.04817">
        <ele>475</ele>
        <time>2023-06-14T22:02:29.000+02:00</time>
      </trkpt>
      <trkpt lat="42.76744" lon="-3.04907">
        <ele>477</ele>
        <time>2023-06-14T22:02:48.000+02:00</time>
      </trkpt>
      <trkpt lat="42.76925" lon="-3.04848">
        <ele>483.3</ele>
        <time>2023-06-14T22:03:17.000+02:00</time>
      </trkpt>
      <trkpt lat="42.76989" lon="-3.04854">
        <ele>486.6</ele>
        <time>2023-06-14T22:03:26.000+02:00</time>
      </trkpt>
      <trkpt lat="42.76893" lon="-3.04899">
        <ele>487.7</ele>
        <time>2023-06-14T22:03:42.000+02:00</time>
      </trkpt>
      <trkpt lat="42.76873" lon="-3.04947">
        <ele>495.7</ele>
        <time>2023-06-14T22:03:48.000+02:00</time>
      </trkpt>
      <trkpt lat="42.77024" lon="-3.05275">
        <ele>527</ele>
        <time>2023-06-14T22:04:32.000+02:00</time>
      </trkpt>
      <trkpt lat="42.77168" lon="-3.05529">
        <ele>549.1</ele>
        <time>2023-06-14T22:05:08.000+02:00</time>
      </trkpt>
      <trkpt lat="42.77212" lon="-3.05543">
        <ele>547.9</ele>
        <time>2023-06-14T22:05:14.000+02:00</time>
      </trkpt>
      <trkpt lat="42.77282" lon="-3.0551">
        <ele>551.7</ele>
        <time>2023-06-14T22:05:26.000+02:00</time>
      </trkpt>
      <trkpt lat="42.7735" lon="-3.05633">
        <ele>569</ele>
        <time>2023-06-14T22:05:43.000+02:00</time>
      </trkpt>
      <trkpt lat="42.77416" lon="-3.05676">
        <ele>577.6</ele>
        <time>2023-06-14T22:05:54.000+02:00</time>
      </trkpt>
      <trkpt lat="42.77424" lon="-3.05724">
        <ele>580.5</ele>
        <time>2023-06-14T22:06:00.000+02:00</time>
      </trkpt>
      <trkpt lat="42.77483" lon="-3.05804">
        <ele>583.1</ele>
        <time>2023-06-14T22:06:13.000+02:00</time>
      </trkpt>
      <trkpt lat="42.77482" lon="-3.05856">
        <ele>589.2</ele>
        <time>2023-06-14T22:06:18.000+02:00</time>
      </trkpt>
      <trkpt lat="42.77419" lon="-3.05952">
        <ele>596</ele>
        <time>2023-06-14T22:06:33.000+02:00</time>
      </trkpt>
      <trkpt lat="42.77308" lon="-3.0602">
        <ele>601.6</ele>
        <time>2023-06-14T22:06:51.000+02:00</time>
      </trkpt>
      <trkpt lat="42.77414" lon="-3.06325">
        <ele>573.8</ele>
        <time>2023-06-14T22:07:29.000+02:00</time>
      </trkpt>
      <trkpt lat="42.77845" lon="-3.06595">
        <ele>603.7</ele>
        <time>2023-06-14T22:08:42.000+02:00</time>
      </trkpt>
      <trkpt lat="42.77914" lon="-3.06667">
        <ele>612.2</ele>
        <time>2023-06-14T22:08:55.000+02:00</time>
      </trkpt>
      <trkpt lat="42.77919" lon="-3.06758">
        <ele>613.7</ele>
        <time>2023-06-14T22:09:05.000+02:00</time>
      </trkpt>
      <trkpt lat="42.78034" lon="-3.06842">
        <ele>604.6</ele>
        <time>2023-06-14T22:09:25.000+02:00</time>
      </trkpt>
      <trkpt lat="42.77512" lon="-3.06837">
        <ele>569.5</ele>
        <time>2023-06-14T22:10:45.000+02:00</time>
      </trkpt>
      <trkpt lat="42.77387" lon="-3.06925">
        <ele>570.7</ele>
        <time>2023-06-14T22:11:06.000+02:00</time>
      </trkpt>
      <trkpt lat="42.7718" lon="-3.06941">
        <ele>571.9</ele>
        <time>2023-06-14T22:11:38.000+02:00</time>
      </trkpt>
      <trkpt lat="42.77154" lon="-3.07039">
        <ele>567.5</ele>
        <time>2023-06-14T22:11:50.000+02:00</time>
      </trkpt>
      <trkpt lat="42.77085" lon="-3.07064">
        <ele>562.8</ele>
        <time>2023-06-14T22:12:01.000+02:00</time>
      </trkpt>
      <trkpt lat="42.76714" lon="-3.0702">
        <ele>526.2</ele>
        <time>2023-06-14T22:12:58.000+02:00</time>
      </trkpt>
      <trkpt lat="42.76594" lon="-3.07197">
        <ele>505.4</ele>
        <time>2023-06-14T22:13:25.000+02:00</time>
      </trkpt>
      <trkpt lat="42.76519" lon="-3.07231">
        <ele>494.9</ele>
        <time>2023-06-14T22:13:37.000+02:00</time>
      </trkpt>
      <trkpt lat="42.7648" lon="-3.07208">
        <ele>490.7</ele>
        <time>2023-06-14T22:13:43.000+02:00</time>
      </trkpt>
      <trkpt lat="42.76477" lon="-3.07248">
        <ele>488.1</ele>
        <time>2023-06-14T22:13:48.000+02:00</time>
      </trkpt>
      <trkpt lat="42.76731" lon="-3.07635">
        <ele>482.2</ele>
        <time>2023-06-14T22:14:46.000+02:00</time>
      </trkpt>
      <trkpt lat="42.76767" lon="-3.0778">
        <ele>483.4</ele>
        <time>2023-06-14T22:15:03.000+02:00</time>
      </trkpt>
      <trkpt lat="42.76765" lon="-3.0803">
        <ele>484.8</ele>
        <time>2023-06-14T22:15:31.000+02:00</time>
      </trkpt>
      <trkpt lat="42.76739" lon="-3.08114">
        <ele>484.8</ele>
        <time>2023-06-14T22:15:42.000+02:00</time>
      </trkpt>
      <trkpt lat="42.76624" lon="-3.082">
        <ele>482.9</ele>
        <time>2023-06-14T22:16:02.000+02:00</time>
      </trkpt>
      <trkpt lat="42.76144" lon="-3.08255">
        <ele>479.5</ele>
        <time>2023-06-14T22:17:15.000+02:00</time>
      </trkpt>
      <trkpt lat="42.76032" lon="-3.08374">
        <ele>482.4</ele>
        <time>2023-06-14T22:17:37.000+02:00</time>
      </trkpt>
      <trkpt lat="42.75919" lon="-3.08424">
        <ele>484.3</ele>
        <time>2023-06-14T22:17:55.000+02:00</time>
      </trkpt>
      <trkpt lat="42.75885" lon="-3.08483">
        <ele>484.9</ele>
        <time>2023-06-14T22:18:03.000+02:00</time>
      </trkpt>
      <trkpt lat="42.75895" lon="-3.08593">
        <ele>485.9</ele>
        <time>2023-06-14T22:18:16.000+02:00</time>
      </trkpt>
      <trkpt lat="42.75998" lon="-3.08743">
        <ele>487.1</ele>
        <time>2023-06-14T22:18:39.000+02:00</time>
      </trkpt>
      <trkpt lat="42.7612" lon="-3.08808">
        <ele>488.6</ele>
        <time>2023-06-14T22:18:59.000+02:00</time>
      </trkpt>
      <trkpt lat="42.76201" lon="-3.08906">
        <ele>489</ele>
        <time>2023-06-14T22:19:16.000+02:00</time>
      </trkpt>
      <trkpt lat="42.7637" lon="-3.08953">
        <ele>487.7</ele>
        <time>2023-06-14T22:19:42.000+02:00</time>
      </trkpt>
      <trkpt lat="42.76522" lon="-3.09041">
        <ele>487.1</ele>
        <time>2023-06-14T22:20:07.000+02:00</time>
      </trkpt>
      <trkpt lat="42.76663" lon="-3.09493">
        <ele>503.8</ele>
        <time>2023-06-14T22:21:02.000+02:00</time>
      </trkpt>
      <trkpt lat="42.76768" lon="-3.09598">
        <ele>515.1</ele>
        <time>2023-06-14T22:21:22.000+02:00</time>
      </trkpt>
      <trkpt lat="42.76761" lon="-3.09738">
        <ele>519.7</ele>
        <time>2023-06-14T22:21:38.000+02:00</time>
      </trkpt>
      <trkpt lat="42.76814" lon="-3.10034">
        <ele>520</ele>
        <time>2023-06-14T22:22:12.000+02:00</time>
      </trkpt>
      <trkpt lat="42.76786" lon="-3.10254">
        <ele>513.9</ele>
        <time>2023-06-14T22:22:37.000+02:00</time>
      </trkpt>
      <trkpt lat="42.76728" lon="-3.10311">
        <ele>513.1</ele>
        <time>2023-06-14T22:22:48.000+02:00</time>
      </trkpt>
      <trkpt lat="42.76674" lon="-3.10422">
        <ele>513.4</ele>
        <time>2023-06-14T22:23:03.000+02:00</time>
      </trkpt>
      <trkpt lat="42.76533" lon="-3.10573">
        <ele>514.1</ele>
        <time>2023-06-14T22:23:30.000+02:00</time>
      </trkpt>
      <trkpt lat="42.76538" lon="-3.10831">
        <ele>516.6</ele>
        <time>2023-06-14T22:23:59.000+02:00</time>
      </trkpt>
      <trkpt lat="42.76474" lon="-3.11036">
        <ele>518.3</ele>
        <time>2023-06-14T22:24:24.000+02:00</time>
      </trkpt>
      <trkpt lat="42.76372" lon="-3.11144">
        <ele>515.4</ele>
        <time>2023-06-14T22:24:44.000+02:00</time>
      </trkpt>
      <trkpt lat="42.76221" lon="-3.11387">
        <ele>512.8</ele>
        <time>2023-06-14T22:25:20.000+02:00</time>
      </trkpt>
      <trkpt lat="42.76058" lon="-3.11489">
        <ele>515.3</ele>
        <time>2023-06-14T22:25:47.000+02:00</time>
      </trkpt>
      <trkpt lat="42.76006" lon="-3.11608">
        <ele>518.9</ele>
        <time>2023-06-14T22:26:03.000+02:00</time>
      </trkpt>
      <trkpt lat="42.75986" lon="-3.11872">
        <ele>518.9</ele>
        <time>2023-06-14T22:26:33.000+02:00</time>
      </trkpt>
      <trkpt lat="42.76003" lon="-3.1196">
        <ele>517.3</ele>
        <time>2023-06-14T22:26:43.000+02:00</time>
      </trkpt>
      <trkpt lat="42.76065" lon="-3.1204">
        <ele>513.4</ele>
        <time>2023-06-14T22:26:56.000+02:00</time>
      </trkpt>
      <trkpt lat="42.75958" lon="-3.12341">
        <ele>518.1</ele>
        <time>2023-06-14T22:27:33.000+02:00</time>
      </trkpt>
      <trkpt lat="42.7595" lon="-3.12495">
        <ele>519.4</ele>
        <time>2023-06-14T22:27:51.000+02:00</time>
      </trkpt>
      <trkpt lat="42.76015" lon="-3.12692">
        <ele>518</ele>
        <time>2023-06-14T22:28:15.000+02:00</time>
      </trkpt>
      <trkpt lat="42.7595" lon="-3.12956">
        <ele>523.6</ele>
        <time>2023-06-14T22:28:46.000+02:00</time>
      </trkpt>
      <trkpt lat="42.75887" lon="-3.13051">
        <ele>517.8</ele>
        <time>2023-06-14T22:29:00.000+02:00</time>
      </trkpt>
      <trkpt lat="42.75934" lon="-3.13188">
        <ele>516</ele>
        <time>2023-06-14T22:29:17.000+02:00</time>
      </trkpt>
      <trkpt lat="42.7592" lon="-3.13441">
        <ele>516.7</ele>
        <time>2023-06-14T22:29:46.000+02:00</time>
      </trkpt>
      <trkpt lat="42.75877" lon="-3.13773">
        <ele>523.8</ele>
        <time>2023-06-14T22:30:24.000+02:00</time>
      </trkpt>
      <trkpt lat="42.75803" lon="-3.13948">
        <ele>512.6</ele>
        <time>2023-06-14T22:30:46.000+02:00</time>
      </trkpt>
      <trkpt lat="42.75763" lon="-3.14173">
        <ele>517.3</ele>
        <time>2023-06-14T22:31:12.000+02:00</time>
      </trkpt>
      <trkpt lat="42.75764" lon="-3.14449">
        <ele>517.5</ele>
        <time>2023-06-14T22:31:43.000+02:00</time>
      </trkpt>
      <trkpt lat="42.75706" lon="-3.148">
        <ele>519</ele>
        <time>2023-06-14T22:32:24.000+02:00</time>
      </trkpt>
      <trkpt lat="42.75718" lon="-3.14924">
        <ele>522.6</ele>
        <time>2023-06-14T22:32:38.000+02:00</time>
      </trkpt>
      <trkpt lat="42.75757" lon="-3.15083">
        <ele>534.5</ele>
        <time>2023-06-14T22:32:56.000+02:00</time>
      </trkpt>
      <trkpt lat="42.75917" lon="-3.15465">
        <ele>514</ele>
        <time>2023-06-14T22:33:46.000+02:00</time>
      </trkpt>
      <trkpt lat="42.75985" lon="-3.15534">
        <ele>516.2</ele>
        <time>2023-06-14T22:33:59.000+02:00</time>
      </trkpt>
      <trkpt lat="42.76073" lon="-3.15734">
        <ele>514.1</ele>
        <time>2023-06-14T22:34:25.000+02:00</time>
      </trkpt>
      <trkpt lat="42.76207" lon="-3.15809">
        <ele>516.2</ele>
        <time>2023-06-14T22:34:47.000+02:00</time>
      </trkpt>
      <trkpt lat="42.76311" lon="-3.16101">
        <ele>519.9</ele>
        <time>2023-06-14T22:35:23.000+02:00</time>
      </trkpt>
      <trkpt lat="42.76474" lon="-3.16317">
        <ele>517</ele>
        <time>2023-06-14T22:35:58.000+02:00</time>
      </trkpt>
      <trkpt lat="42.76543" lon="-3.16511">
        <ele>512.9</ele>
        <time>2023-06-14T22:36:23.000+02:00</time>
      </trkpt>
      <trkpt lat="42.76619" lon="-3.16532">
        <ele>517.3</ele>
        <time>2023-06-14T22:36:34.000+02:00</time>
      </trkpt>
      <trkpt lat="42.76718" lon="-3.1651">
        <ele>522.6</ele>
        <time>2023-06-14T22:36:50.000+02:00</time>
      </trkpt>
      <trkpt lat="42.76757" lon="-3.16462">
        <ele>526</ele>
        <time>2023-06-14T22:36:58.000+02:00</time>
      </trkpt>
      <trkpt lat="42.76797" lon="-3.16553">
        <ele>523.4</ele>
        <time>2023-06-14T22:37:10.000+02:00</time>
      </trkpt>
      <trkpt lat="42.76797" lon="-3.16654">
        <ele>527.4</ele>
        <time>2023-06-14T22:37:21.000+02:00</time>
      </trkpt>
      <trkpt lat="42.76779" lon="-3.16698">
        <ele>531</ele>
        <time>2023-06-14T22:37:27.000+02:00</time>
      </trkpt>
      <trkpt lat="42.76739" lon="-3.16703">
        <ele>534.8</ele>
        <time>2023-06-14T22:37:33.000+02:00</time>
      </trkpt>
      <trkpt lat="42.76684" lon="-3.16759">
        <ele>545</ele>
        <time>2023-06-14T22:37:43.000+02:00</time>
      </trkpt>
      <trkpt lat="42.76619" lon="-3.16759">
        <ele>548.8</ele>
        <time>2023-06-14T22:37:53.000+02:00</time>
      </trkpt>
      <trkpt lat="42.76642" lon="-3.16825">
        <ele>556.6</ele>
        <time>2023-06-14T22:38:01.000+02:00</time>
      </trkpt>
      <trkpt lat="42.76687" lon="-3.16886">
        <ele>561.5</ele>
        <time>2023-06-14T22:38:11.000+02:00</time>
      </trkpt>
      <trkpt lat="42.76773" lon="-3.16936">
        <ele>563.3</ele>
        <time>2023-06-14T22:38:25.000+02:00</time>
      </trkpt>
      <trkpt lat="42.76765" lon="-3.17004">
        <ele>563.8</ele>
        <time>2023-06-14T22:38:33.000+02:00</time>
      </trkpt>
      <trkpt lat="42.76809" lon="-3.17115">
        <ele>566.2</ele>
        <time>2023-06-14T22:38:47.000+02:00</time>
      </trkpt>
      <trkpt lat="42.76902" lon="-3.17162">
        <ele>572.1</ele>
        <time>2023-06-14T22:39:02.000+02:00</time>
      </trkpt>
      <trkpt lat="42.76978" lon="-3.17259">
        <ele>576.1</ele>
        <time>2023-06-14T22:39:18.000+02:00</time>
      </trkpt>
      <trkpt lat="42.77071" lon="-3.17508">
        <ele>559.1</ele>
        <time>2023-06-14T22:39:50.000+02:00</time>
      </trkpt>
      <trkpt lat="42.77192" lon="-3.17505">
        <ele>544.9</ele>
        <time>2023-06-14T22:40:08.000+02:00</time>
      </trkpt>
      <trkpt lat="42.77202" lon="-3.17527">
        <ele>542.8</ele>
        <time>2023-06-14T22:40:11.000+02:00</time>
      </trkpt>
      <trkpt lat="42.77207" lon="-3.17679">
        <ele>535.1</ele>
        <time>2023-06-14T22:40:28.000+02:00</time>
      </trkpt>
      <trkpt lat="42.77178" lon="-3.17747">
        <ele>537</ele>
        <time>2023-06-14T22:40:37.000+02:00</time>
      </trkpt>
      <trkpt lat="42.77198" lon="-3.17815">
        <ele>544.7</ele>
        <time>2023-06-14T22:40:45.000+02:00</time>
      </trkpt>
      <trkpt lat="42.77138" lon="-3.17832">
        <ele>539.8</ele>
        <time>2023-06-14T22:40:55.000+02:00</time>
      </trkpt>
      <trkpt lat="42.77103" lon="-3.18151">
        <ele>529.4</ele>
        <time>2023-06-14T22:41:31.000+02:00</time>
      </trkpt>
      <trkpt lat="42.77162" lon="-3.18543">
        <ele>542.3</ele>
        <time>2023-06-14T22:42:16.000+02:00</time>
      </trkpt>
      <trkpt lat="42.77163" lon="-3.18545">
        <ele>542.3</ele>
        <time>2023-06-14T22:42:16.000+02:00</time>
      </trkpt>
      <trkpt lat="42.77166" lon="-3.18557">
        <ele>542.3</ele>
        <time>2023-06-14T22:42:17.000+02:00</time>
      </trkpt>
      <trkpt lat="42.77203" lon="-3.18611">
        <ele>539</ele>
        <time>2023-06-14T22:42:26.000+02:00</time>
      </trkpt>
      <trkpt lat="42.77354" lon="-3.18803">
        <ele>531.5</ele>
        <time>2023-06-14T22:42:57.000+02:00</time>
      </trkpt>
      <trkpt lat="42.77362" lon="-3.18834">
        <ele>531.3</ele>
        <time>2023-06-14T22:43:01.000+02:00</time>
      </trkpt>
      <trkpt lat="42.77372" lon="-3.18907">
        <ele>532</ele>
        <time>2023-06-14T22:43:09.000+02:00</time>
      </trkpt>
      <trkpt lat="42.77373" lon="-3.18913">
        <ele>531.8</ele>
        <time>2023-06-14T22:43:10.000+02:00</time>
      </trkpt>
      <trkpt lat="42.77372" lon="-3.18907">
        <ele>532</ele>
        <time>2023-06-14T22:43:11.000+02:00</time>
      </trkpt>
      <trkpt lat="42.77455" lon="-3.18965">
        <ele>537.5</ele>
        <time>2023-06-14T22:43:25.000+02:00</time>
      </trkpt>
      <trkpt lat="42.77763" lon="-3.19365">
        <ele>543.8</ele>
        <time>2023-06-14T22:44:30.000+02:00</time>
      </trkpt>
      <trkpt lat="42.77862" lon="-3.19504">
        <ele>561.5</ele>
        <time>2023-06-14T22:44:52.000+02:00</time>
      </trkpt>
      <trkpt lat="42.77964" lon="-3.19562">
        <ele>564.8</ele>
        <time>2023-06-14T22:45:08.000+02:00</time>
      </trkpt>
      <trkpt lat="42.77964" lon="-3.19562">
        <ele>564.8</ele>
        <time>2023-06-14T22:45:08.000+02:00</time>
      </trkpt>
      <trkpt lat="42.78073" lon="-3.19881">
        <ele>535</ele>
        <time>2023-06-14T22:45:48.000+02:00</time>
      </trkpt>
      <trkpt lat="42.78107" lon="-3.19946">
        <ele>533.3</ele>
        <time>2023-06-14T22:45:57.000+02:00</time>
      </trkpt>
      <trkpt lat="42.78118" lon="-3.19943">
        <ele>533.3</ele>
        <time>2023-06-14T22:45:59.000+02:00</time>
      </trkpt>
      <trkpt lat="42.78121" lon="-3.19942">
        <ele>533.5</ele>
        <time>2023-06-14T22:45:59.000+02:00</time>
      </trkpt>
      <trkpt lat="42.78205" lon="-3.20052">
        <ele>529.5</ele>
        <time>2023-06-14T22:46:17.000+02:00</time>
      </trkpt>
      <trkpt lat="42.78212" lon="-3.20056">
        <ele>529.3</ele>
        <time>2023-06-14T22:46:18.000+02:00</time>
      </trkpt>
      <trkpt lat="42.78222" lon="-3.20064">
        <ele>528.8</ele>
        <time>2023-06-14T22:46:20.000+02:00</time>
      </trkpt>
      <trkpt lat="42.78241" lon="-3.20071">
        <ele>528.8</ele>
        <time>2023-06-14T22:46:23.000+02:00</time>
      </trkpt>
      <trkpt lat="42.78267" lon="-3.20069">
        <ele>529.3</ele>
        <time>2023-06-14T22:46:27.000+02:00</time>
      </trkpt>
      <trkpt lat="42.78284" lon="-3.20076">
        <ele>528.8</ele>
        <time>2023-06-14T22:46:29.000+02:00</time>
      </trkpt>
      <trkpt lat="42.78329" lon="-3.20135">
        <ele>527</ele>
        <time>2023-06-14T22:46:39.000+02:00</time>
      </trkpt>
      <trkpt lat="42.78562" lon="-3.20446">
        <ele>536.8</ele>
        <time>2023-06-14T22:47:29.000+02:00</time>
      </trkpt>
      <trkpt lat="42.78597" lon="-3.20489">
        <ele>539.5</ele>
        <time>2023-06-14T22:47:36.000+02:00</time>
      </trkpt>
      <trkpt lat="42.78604" lon="-3.20502">
        <ele>540.3</ele>
        <time>2023-06-14T22:47:38.000+02:00</time>
      </trkpt>
      <trkpt lat="42.78605" lon="-3.20512">
        <ele>540.3</ele>
        <time>2023-06-14T22:47:39.000+02:00</time>
      </trkpt>
      <trkpt lat="42.78789" lon="-3.20584">
        <ele>550.4</ele>
        <time>2023-06-14T22:48:08.000+02:00</time>
      </trkpt>
      <trkpt lat="42.79046" lon="-3.20726">
        <ele>555.8</ele>
        <time>2023-06-14T22:48:51.000+02:00</time>
      </trkpt>
      <trkpt lat="42.79056" lon="-3.20751">
        <ele>555.8</ele>
        <time>2023-06-14T22:48:54.000+02:00</time>
      </trkpt>
      <trkpt lat="42.7907" lon="-3.2077">
        <ele>555.8</ele>
        <time>2023-06-14T22:48:57.000+02:00</time>
      </trkpt>
      <trkpt lat="42.79136" lon="-3.20832">
        <ele>556</ele>
        <time>2023-06-14T22:49:09.000+02:00</time>
      </trkpt>
      <trkpt lat="42.79137" lon="-3.20836">
        <ele>556</ele>
        <time>2023-06-14T22:49:10.000+02:00</time>
      </trkpt>
      <trkpt lat="42.79144" lon="-3.20858">
        <ele>556.8</ele>
        <time>2023-06-14T22:49:13.000+02:00</time>
      </trkpt>
      <trkpt lat="42.79137" lon="-3.20891">
        <ele>556.8</ele>
        <time>2023-06-14T22:49:17.000+02:00</time>
      </trkpt>
      <trkpt lat="42.79096" lon="-3.20976">
        <ele>562.5</ele>
        <time>2023-06-14T22:49:28.000+02:00</time>
      </trkpt>
      <trkpt lat="42.79179" lon="-3.2097">
        <ele>564.4</ele>
        <time>2023-06-14T22:49:41.000+02:00</time>
      </trkpt>
      <trkpt lat="42.79227" lon="-3.21083">
        <ele>554.5</ele>
        <time>2023-06-14T22:49:56.000+02:00</time>
      </trkpt>
      <trkpt lat="42.79408" lon="-3.21236">
        <ele>553.7</ele>
        <time>2023-06-14T22:50:28.000+02:00</time>
      </trkpt>
      <trkpt lat="42.79444" lon="-3.21407">
        <ele>562.2</ele>
        <time>2023-06-14T22:50:48.000+02:00</time>
      </trkpt>
      <trkpt lat="42.79634" lon="-3.21696">
        <ele>589.7</ele>
        <time>2023-06-14T22:51:32.000+02:00</time>
      </trkpt>
      <trkpt lat="42.7928" lon="-3.21856">
        <ele>574.1</ele>
        <time>2023-06-14T22:52:29.000+02:00</time>
      </trkpt>
      <trkpt lat="42.79109" lon="-3.21881">
        <ele>567.9</ele>
        <time>2023-06-14T22:52:55.000+02:00</time>
      </trkpt>
      <trkpt lat="42.79032" lon="-3.21833">
        <ele>563.3</ele>
        <time>2023-06-14T22:53:08.000+02:00</time>
      </trkpt>
      <trkpt lat="42.78979" lon="-3.2195">
        <ele>560.3</ele>
        <time>2023-06-14T22:53:23.000+02:00</time>
      </trkpt>
      <trkpt lat="42.79243" lon="-3.2265">
        <ele>547.8</ele>
        <time>2023-06-14T22:54:51.000+02:00</time>
      </trkpt>
      <trkpt lat="42.79385" lon="-3.22749">
        <ele>535.1</ele>
        <time>2023-06-14T22:55:16.000+02:00</time>
      </trkpt>
      <trkpt lat="42.7941" lon="-3.22938">
        <ele>533.8</ele>
        <time>2023-06-14T22:55:37.000+02:00</time>
      </trkpt>
      <trkpt lat="42.79639" lon="-3.22935">
        <ele>535.3</ele>
        <time>2023-06-14T22:56:12.000+02:00</time>
      </trkpt>
      <trkpt lat="42.79741" lon="-3.22974">
        <ele>536.7</ele>
        <time>2023-06-14T22:56:28.000+02:00</time>
      </trkpt>
      <trkpt lat="42.79671" lon="-3.23181">
        <ele>536.6</ele>
        <time>2023-06-14T22:56:54.000+02:00</time>
      </trkpt>
      <trkpt lat="42.79645" lon="-3.23603">
        <ele>533.1</ele>
        <time>2023-06-14T22:57:41.000+02:00</time>
      </trkpt>
      <trkpt lat="42.79746" lon="-3.24265">
        <ele>533</ele>
        <time>2023-06-14T22:58:57.000+02:00</time>
      </trkpt>
      <trkpt lat="42.79839" lon="-3.24619">
        <ele>538.2</ele>
        <time>2023-06-14T22:59:39.000+02:00</time>
      </trkpt>
      <trkpt lat="42.79855" lon="-3.25068">
        <ele>546.7</ele>
        <time>2023-06-14T23:00:30.000+02:00</time>
      </trkpt>
      <trkpt lat="42.79874" lon="-3.25113">
        <ele>546.6</ele>
        <time>2023-06-14T23:00:36.000+02:00</time>
      </trkpt>
      <trkpt lat="42.80076" lon="-3.25314">
        <ele>556.8</ele>
        <time>2023-06-14T23:01:14.000+02:00</time>
      </trkpt>
      <trkpt lat="42.80218" lon="-3.25314">
        <ele>563.6</ele>
        <time>2023-06-14T23:01:36.000+02:00</time>
      </trkpt>
      <trkpt lat="42.80333" lon="-3.25476">
        <ele>573</ele>
        <time>2023-06-14T23:02:01.000+02:00</time>
      </trkpt>
      <trkpt lat="42.80415" lon="-3.25661">
        <ele>582.6</ele>
        <time>2023-06-14T23:02:25.000+02:00</time>
      </trkpt>
      <trkpt lat="42.80216" lon="-3.25905">
        <ele>581.4</ele>
        <time>2023-06-14T23:03:06.000+02:00</time>
      </trkpt>
      <trkpt lat="42.80271" lon="-3.26104">
        <ele>595</ele>
        <time>2023-06-14T23:03:30.000+02:00</time>
      </trkpt>
      <trkpt lat="42.8038" lon="-3.26131">
        <ele>605.5</ele>
        <time>2023-06-14T23:03:47.000+02:00</time>
      </trkpt>
      <trkpt lat="42.80439" lon="-3.26043">
        <ele>614.5</ele>
        <time>2023-06-14T23:04:00.000+02:00</time>
      </trkpt>
      <trkpt lat="42.80564" lon="-3.26195">
        <ele>623.1</ele>
        <time>2023-06-14T23:04:26.000+02:00</time>
      </trkpt>
      <trkpt lat="42.80673" lon="-3.26143">
        <ele>625.5</ele>
        <time>2023-06-14T23:04:43.000+02:00</time>
      </trkpt>
      <trkpt lat="42.80763" lon="-3.26017">
        <ele>630.1</ele>
        <time>2023-06-14T23:05:03.000+02:00</time>
      </trkpt>
      <trkpt lat="42.80855" lon="-3.26026">
        <ele>640.2</ele>
        <time>2023-06-14T23:05:17.000+02:00</time>
      </trkpt>
      <trkpt lat="42.80911" lon="-3.25964">
        <ele>642.4</ele>
        <time>2023-06-14T23:05:28.000+02:00</time>
      </trkpt>
      <trkpt lat="42.80991" lon="-3.25734">
        <ele>641.9</ele>
        <time>2023-06-14T23:05:57.000+02:00</time>
      </trkpt>
      <trkpt lat="42.81059" lon="-3.2561">
        <ele>644.2</ele>
        <time>2023-06-14T23:06:14.000+02:00</time>
      </trkpt>
      <trkpt lat="42.81057" lon="-3.25552">
        <ele>641.9</ele>
        <time>2023-06-14T23:06:21.000+02:00</time>
      </trkpt>
      <trkpt lat="42.81124" lon="-3.25503">
        <ele>642.5</ele>
        <time>2023-06-14T23:06:32.000+02:00</time>
      </trkpt>
      <trkpt lat="42.8116" lon="-3.25283">
        <ele>631.9</ele>
        <time>2023-06-14T23:06:58.000+02:00</time>
      </trkpt>
      <trkpt lat="42.81232" lon="-3.25208">
        <ele>626.3</ele>
        <time>2023-06-14T23:07:11.000+02:00</time>
      </trkpt>
      <trkpt lat="42.81677" lon="-3.25496">
        <ele>616.3</ele>
        <time>2023-06-14T23:08:27.000+02:00</time>
      </trkpt>
      <trkpt lat="42.81626" lon="-3.25705">
        <ele>630.1</ele>
        <time>2023-06-14T23:08:51.000+02:00</time>
      </trkpt>
      <trkpt lat="42.81647" lon="-3.25785">
        <ele>636.8</ele>
        <time>2023-06-14T23:09:01.000+02:00</time>
      </trkpt>
      <trkpt lat="42.82018" lon="-3.259">
        <ele>644.2</ele>
        <time>2023-06-14T23:09:59.000+02:00</time>
      </trkpt>
      <trkpt lat="42.82104" lon="-3.25828">
        <ele>645.1</ele>
        <time>2023-06-14T23:10:15.000+02:00</time>
      </trkpt>
      <trkpt lat="42.82232" lon="-3.25318">
        <ele>612.8</ele>
        <time>2023-06-14T23:11:15.000+02:00</time>
      </trkpt>
      <trkpt lat="42.82431" lon="-3.25529">
        <ele>617.6</ele>
        <time>2023-06-14T23:11:53.000+02:00</time>
      </trkpt>
      <trkpt lat="42.82426" lon="-3.25441">
        <ele>614.6</ele>
        <time>2023-06-14T23:12:03.000+02:00</time>
      </trkpt>
      <trkpt lat="42.82642" lon="-3.2556">
        <ele>622.7</ele>
        <time>2023-06-14T23:12:39.000+02:00</time>
      </trkpt>
      <trkpt lat="42.8284" lon="-3.25613">
        <ele>639.4</ele>
        <time>2023-06-14T23:13:10.000+02:00</time>
      </trkpt>
      <trkpt lat="42.83064" lon="-3.25749">
        <ele>653.9</ele>
        <time>2023-06-14T23:13:47.000+02:00</time>
      </trkpt>
      <trkpt lat="42.83409" lon="-3.25844">
        <ele>693</ele>
        <time>2023-06-14T23:14:41.000+02:00</time>
      </trkpt>
      <trkpt lat="42.8357" lon="-3.26077">
        <ele>688.6</ele>
        <time>2023-06-14T23:15:17.000+02:00</time>
      </trkpt>
      <trkpt lat="42.8365" lon="-3.2599">
        <ele>697.3</ele>
        <time>2023-06-14T23:15:32.000+02:00</time>
      </trkpt>
      <trkpt lat="42.83689" lon="-3.26013">
        <ele>696.2</ele>
        <time>2023-06-14T23:15:39.000+02:00</time>
      </trkpt>
      <trkpt lat="42.83918" lon="-3.25953">
        <ele>712.2</ele>
        <time>2023-06-14T23:16:15.000+02:00</time>
      </trkpt>
      <trkpt lat="42.83926" lon="-3.25851">
        <ele>723.6</ele>
        <time>2023-06-14T23:16:26.000+02:00</time>
      </trkpt>
      <trkpt lat="42.83851" lon="-3.25703">
        <ele>736.3</ele>
        <time>2023-06-14T23:16:46.000+02:00</time>
      </trkpt>
      <trkpt lat="42.83917" lon="-3.25645">
        <ele>743.2</ele>
        <time>2023-06-14T23:16:58.000+02:00</time>
      </trkpt>
      <trkpt lat="42.84053" lon="-3.25652">
        <ele>741.5</ele>
        <time>2023-06-14T23:17:19.000+02:00</time>
      </trkpt>
      <trkpt lat="42.84367" lon="-3.26074">
        <ele>730.1</ele>
        <time>2023-06-14T23:18:26.000+02:00</time>
      </trkpt>
      <trkpt lat="42.84702" lon="-3.26289">
        <ele>757.3</ele>
        <time>2023-06-14T23:19:23.000+02:00</time>
      </trkpt>
      <trkpt lat="42.84753" lon="-3.26431">
        <ele>751.2</ele>
        <time>2023-06-14T23:19:41.000+02:00</time>
      </trkpt>
      <trkpt lat="42.85101" lon="-3.268">
        <ele>740.1</ele>
        <time>2023-06-14T23:20:48.000+02:00</time>
      </trkpt>
      <trkpt lat="42.85053" lon="-3.27024">
        <ele>726</ele>
        <time>2023-06-14T23:21:14.000+02:00</time>
      </trkpt>
      <trkpt lat="42.85055" lon="-3.27173">
        <ele>713.5</ele>
        <time>2023-06-14T23:21:31.000+02:00</time>
      </trkpt>
      <trkpt lat="42.84988" lon="-3.27228">
        <ele>707.6</ele>
        <time>2023-06-14T23:21:43.000+02:00</time>
      </trkpt>
      <trkpt lat="42.84971" lon="-3.27349">
        <ele>701.1</ele>
        <time>2023-06-14T23:21:57.000+02:00</time>
      </trkpt>
      <trkpt lat="42.84904" lon="-3.27409">
        <ele>703.6</ele>
        <time>2023-06-14T23:22:09.000+02:00</time>
      </trkpt>
      <trkpt lat="42.84919" lon="-3.27468">
        <ele>700.2</ele>
        <time>2023-06-14T23:22:16.000+02:00</time>
      </trkpt>
      <trkpt lat="42.84889" lon="-3.27589">
        <ele>694.8</ele>
        <time>2023-06-14T23:22:30.000+02:00</time>
      </trkpt>
      <trkpt lat="42.84944" lon="-3.27561">
        <ele>687.3</ele>
        <time>2023-06-14T23:22:39.000+02:00</time>
      </trkpt>
      <trkpt lat="42.84986" lon="-3.27626">
        <ele>681.8</ele>
        <time>2023-06-14T23:22:49.000+02:00</time>
      </trkpt>
      <trkpt lat="42.84983" lon="-3.27828">
        <ele>676.3</ele>
        <time>2023-06-14T23:23:12.000+02:00</time>
      </trkpt>
      <trkpt lat="42.8507" lon="-3.27818">
        <ele>674.2</ele>
        <time>2023-06-14T23:23:25.000+02:00</time>
      </trkpt>
      <trkpt lat="42.85114" lon="-3.27902">
        <ele>672.2</ele>
        <time>2023-06-14T23:23:37.000+02:00</time>
      </trkpt>
      <trkpt lat="42.85291" lon="-3.28073">
        <ele>689.1</ele>
        <time>2023-06-14T23:24:10.000+02:00</time>
      </trkpt>
      <trkpt lat="42.85387" lon="-3.28056">
        <ele>695.9</ele>
        <time>2023-06-14T23:24:25.000+02:00</time>
      </trkpt>
      <trkpt lat="42.85574" lon="-3.28146">
        <ele>689.9</ele>
        <time>2023-06-14T23:24:55.000+02:00</time>
      </trkpt>
      <trkpt lat="42.85625" lon="-3.2811">
        <ele>686.1</ele>
        <time>2023-06-14T23:25:04.000+02:00</time>
      </trkpt>
      <trkpt lat="42.85781" lon="-3.28189">
        <ele>678.9</ele>
        <time>2023-06-14T23:25:29.000+02:00</time>
      </trkpt>
      <trkpt lat="42.85933" lon="-3.28092">
        <ele>686.2</ele>
        <time>2023-06-14T23:25:55.000+02:00</time>
      </trkpt>
      <trkpt lat="42.86055" lon="-3.28081">
        <ele>699.1</ele>
        <time>2023-06-14T23:26:14.000+02:00</time>
      </trkpt>
      <trkpt lat="42.86096" lon="-3.27999">
        <ele>714</ele>
        <time>2023-06-14T23:26:25.000+02:00</time>
      </trkpt>
      <trkpt lat="42.86075" lon="-3.27883">
        <ele>726.7</ele>
        <time>2023-06-14T23:26:38.000+02:00</time>
      </trkpt>
      <trkpt lat="42.86158" lon="-3.27808">
        <ele>733.3</ele>
        <time>2023-06-14T23:26:53.000+02:00</time>
      </trkpt>
      <trkpt lat="42.86228" lon="-3.27843">
        <ele>739.1</ele>
        <time>2023-06-14T23:27:04.000+02:00</time>
      </trkpt>
      <trkpt lat="42.86312" lon="-3.27812">
        <ele>751.1</ele>
        <time>2023-06-14T23:27:18.000+02:00</time>
      </trkpt>
      <trkpt lat="42.86494" lon="-3.27873">
        <ele>777.8</ele>
        <time>2023-06-14T23:27:46.000+02:00</time>
      </trkpt>
      <trkpt lat="42.86574" lon="-3.27941">
        <ele>786.9</ele>
        <time>2023-06-14T23:28:01.000+02:00</time>
      </trkpt>
      <trkpt lat="42.86653" lon="-3.27966">
        <ele>789.3</ele>
        <time>2023-06-14T23:28:13.000+02:00</time>
      </trkpt>
      <trkpt lat="42.86751" lon="-3.28027">
        <ele>799.5</ele>
        <time>2023-06-14T23:28:30.000+02:00</time>
      </trkpt>
      <trkpt lat="42.86903" lon="-3.28177">
        <ele>818.3</ele>
        <time>2023-06-14T23:28:58.000+02:00</time>
      </trkpt>
      <trkpt lat="42.87003" lon="-3.28225">
        <ele>826.7</ele>
        <time>2023-06-14T23:29:15.000+02:00</time>
      </trkpt>
      <trkpt lat="42.87209" lon="-3.28238">
        <ele>846.4</ele>
        <time>2023-06-14T23:29:46.000+02:00</time>
      </trkpt>
      <trkpt lat="42.87281" lon="-3.283">
        <ele>858.5</ele>
        <time>2023-06-14T23:29:59.000+02:00</time>
      </trkpt>
      <trkpt lat="42.87409" lon="-3.28334">
        <ele>862.6</ele>
        <time>2023-06-14T23:30:19.000+02:00</time>
      </trkpt>
      <trkpt lat="42.87508" lon="-3.28415">
        <ele>876.4</ele>
        <time>2023-06-14T23:30:37.000+02:00</time>
      </trkpt>
      <trkpt lat="42.87603" lon="-3.28386">
        <ele>877</ele>
        <time>2023-06-14T23:30:52.000+02:00</time>
      </trkpt>
      <trkpt lat="42.878" lon="-3.28567">
        <ele>879.2</ele>
        <time>2023-06-14T23:31:28.000+02:00</time>
      </trkpt>
      <trkpt lat="42.87811" lon="-3.2867">
        <ele>867.6</ele>
        <time>2023-06-14T23:31:39.000+02:00</time>
      </trkpt>
      <trkpt lat="42.87764" lon="-3.28652">
        <ele>863.6</ele>
        <time>2023-06-14T23:31:47.000+02:00</time>
      </trkpt>
      <trkpt lat="42.87756" lon="-3.28676">
        <ele>861.6</ele>
        <time>2023-06-14T23:31:50.000+02:00</time>
      </trkpt>
      <trkpt lat="42.87794" lon="-3.28744">
        <ele>850</ele>
        <time>2023-06-14T23:31:59.000+02:00</time>
      </trkpt>
      <trkpt lat="42.87769" lon="-3.28796">
        <ele>842.4</ele>
        <time>2023-06-14T23:32:06.000+02:00</time>
      </trkpt>
      <trkpt lat="42.87731" lon="-3.28805">
        <ele>833.3</ele>
        <time>2023-06-14T23:32:12.000+02:00</time>
      </trkpt>
      <trkpt lat="42.87734" lon="-3.28845">
        <ele>831.9</ele>
        <time>2023-06-14T23:32:17.000+02:00</time>
      </trkpt>
      <trkpt lat="42.87687" lon="-3.28827">
        <ele>823.4</ele>
        <time>2023-06-14T23:32:24.000+02:00</time>
      </trkpt>
      <trkpt lat="42.87661" lon="-3.2886">
        <ele>814.2</ele>
        <time>2023-06-14T23:32:30.000+02:00</time>
      </trkpt>
      <trkpt lat="42.87554" lon="-3.28869">
        <ele>801.3</ele>
        <time>2023-06-14T23:32:46.000+02:00</time>
      </trkpt>
      <trkpt lat="42.8751" lon="-3.28903">
        <ele>794.1</ele>
        <time>2023-06-14T23:32:54.000+02:00</time>
      </trkpt>
      <trkpt lat="42.87541" lon="-3.29071">
        <ele>789.3</ele>
        <time>2023-06-14T23:33:13.000+02:00</time>
      </trkpt>
      <trkpt lat="42.87489" lon="-3.29122">
        <ele>777.5</ele>
        <time>2023-06-14T23:33:23.000+02:00</time>
      </trkpt>
      <trkpt lat="42.87407" lon="-3.2911">
        <ele>763.8</ele>
        <time>2023-06-14T23:33:36.000+02:00</time>
      </trkpt>
      <trkpt lat="42.8725" lon="-3.28998">
        <ele>743</ele>
        <time>2023-06-14T23:34:03.000+02:00</time>
      </trkpt>
      <trkpt lat="42.87206" lon="-3.29014">
        <ele>734.3</ele>
        <time>2023-06-14T23:34:09.000+02:00</time>
      </trkpt>
      <trkpt lat="42.87224" lon="-3.29086">
        <ele>729.4</ele>
        <time>2023-06-14T23:34:18.000+02:00</time>
      </trkpt>
      <trkpt lat="42.87209" lon="-3.29121">
        <ele>729.6</ele>
        <time>2023-06-14T23:34:22.000+02:00</time>
      </trkpt>
      <trkpt lat="42.87128" lon="-3.29113">
        <ele>733.3</ele>
        <time>2023-06-14T23:34:35.000+02:00</time>
      </trkpt>
      <trkpt lat="42.87068" lon="-3.29184">
        <ele>734.8</ele>
        <time>2023-06-14T23:34:47.000+02:00</time>
      </trkpt>
      <trkpt lat="42.87035" lon="-3.29145">
        <ele>728.1</ele>
        <time>2023-06-14T23:34:54.000+02:00</time>
      </trkpt>
      <trkpt lat="42.86984" lon="-3.29149">
        <ele>721.5</ele>
        <time>2023-06-14T23:35:01.000+02:00</time>
      </trkpt>
      <trkpt lat="42.86872" lon="-3.29226">
        <ele>711.6</ele>
        <time>2023-06-14T23:35:21.000+02:00</time>
      </trkpt>
      <trkpt lat="42.86862" lon="-3.29264">
        <ele>707</ele>
        <time>2023-06-14T23:35:25.000+02:00</time>
      </trkpt>
      <trkpt lat="42.87133" lon="-3.29461">
        <ele>719.1</ele>
        <time>2023-06-14T23:36:12.000+02:00</time>
      </trkpt>
      <trkpt lat="42.87226" lon="-3.29546">
        <ele>723.3</ele>
        <time>2023-06-14T23:36:29.000+02:00</time>
      </trkpt>
      <trkpt lat="42.87249" lon="-3.29606">
        <ele>727.8</ele>
        <time>2023-06-14T23:36:37.000+02:00</time>
      </trkpt>
      <trkpt lat="42.87232" lon="-3.29813">
        <ele>733.3</ele>
        <time>2023-06-14T23:37:00.000+02:00</time>
      </trkpt>
      <trkpt lat="42.87191" lon="-3.29817">
        <ele>730.6</ele>
        <time>2023-06-14T23:37:06.000+02:00</time>
      </trkpt>
      <trkpt lat="42.87185" lon="-3.29893">
        <ele>728.3</ele>
        <time>2023-06-14T23:37:15.000+02:00</time>
      </trkpt>
      <trkpt lat="42.87044" lon="-3.30186">
        <ele>740.8</ele>
        <time>2023-06-14T23:37:54.000+02:00</time>
      </trkpt>
      <trkpt lat="42.87089" lon="-3.30239">
        <ele>739.7</ele>
        <time>2023-06-14T23:38:03.000+02:00</time>
      </trkpt>
      <trkpt lat="42.87164" lon="-3.30459">
        <ele>763.2</ele>
        <time>2023-06-14T23:38:31.000+02:00</time>
      </trkpt>
      <trkpt lat="42.87252" lon="-3.3056">
        <ele>764.8</ele>
        <time>2023-06-14T23:38:48.000+02:00</time>
      </trkpt>
      <trkpt lat="42.87443" lon="-3.30701">
        <ele>732.1</ele>
        <time>2023-06-14T23:39:21.000+02:00</time>
      </trkpt>
      <trkpt lat="42.87589" lon="-3.30742">
        <ele>707.9</ele>
        <time>2023-06-14T23:39:44.000+02:00</time>
      </trkpt>
      <trkpt lat="42.87697" lon="-3.30875">
        <ele>702.1</ele>
        <time>2023-06-14T23:40:06.000+02:00</time>
      </trkpt>
      <trkpt lat="42.8778" lon="-3.31072">
        <ele>694.7</ele>
        <time>2023-06-14T23:40:32.000+02:00</time>
      </trkpt>
      <trkpt lat="42.87954" lon="-3.3122">
        <ele>698.9</ele>
        <time>2023-06-14T23:41:03.000+02:00</time>
      </trkpt>
      <trkpt lat="42.87985" lon="-3.31403">
        <ele>677.9</ele>
        <time>2023-06-14T23:41:24.000+02:00</time>
      </trkpt>
      <trkpt lat="42.88084" lon="-3.31309">
        <ele>652.3</ele>
        <time>2023-06-14T23:41:42.000+02:00</time>
      </trkpt>
      <trkpt lat="42.88146" lon="-3.31381">
        <ele>642.7</ele>
        <time>2023-06-14T23:41:55.000+02:00</time>
      </trkpt>
      <trkpt lat="42.88119" lon="-3.31547">
        <ele>619.4</ele>
        <time>2023-06-14T23:42:14.000+02:00</time>
      </trkpt>
      <trkpt lat="42.88205" lon="-3.31897">
        <ele>606.8</ele>
        <time>2023-06-14T23:42:55.000+02:00</time>
      </trkpt>
      <trkpt lat="42.88216" lon="-3.32212">
        <ele>598.4</ele>
        <time>2023-06-14T23:43:31.000+02:00</time>
      </trkpt>
      <trkpt lat="42.88115" lon="-3.32368">
        <ele>587</ele>
        <time>2023-06-14T23:43:54.000+02:00</time>
      </trkpt>
      <trkpt lat="42.87867" lon="-3.32459">
        <ele>586</ele>
        <time>2023-06-14T23:44:33.000+02:00</time>
      </trkpt>
      <trkpt lat="42.876" lon="-3.32927">
        <ele>583.3</ele>
        <time>2023-06-14T23:45:40.000+02:00</time>
      </trkpt>
      <trkpt lat="42.87371" lon="-3.33116">
        <ele>580.7</ele>
        <time>2023-06-14T23:46:20.000+02:00</time>
      </trkpt>
      <trkpt lat="42.87419" lon="-3.33145">
        <ele>579.7</ele>
        <time>2023-06-14T23:46:28.000+02:00</time>
      </trkpt>
      <trkpt lat="42.87445" lon="-3.33127">
        <ele>581.3</ele>
        <time>2023-06-14T23:46:33.000+02:00</time>
      </trkpt>
      <trkpt lat="42.872" lon="-3.33416">
        <ele>579.9</ele>
        <time>2023-06-14T23:47:22.000+02:00</time>
      </trkpt>
      <trkpt lat="42.8719" lon="-3.3361">
        <ele>598.6</ele>
        <time>2023-06-14T23:47:44.000+02:00</time>
      </trkpt>
      <trkpt lat="42.87288" lon="-3.33802">
        <ele>616.6</ele>
        <time>2023-06-14T23:48:10.000+02:00</time>
      </trkpt>
      <trkpt lat="42.87444" lon="-3.33954">
        <ele>644.9</ele>
        <time>2023-06-14T23:48:40.000+02:00</time>
      </trkpt>
      <trkpt lat="42.87666" lon="-3.34041">
        <ele>675</ele>
        <time>2023-06-14T23:49:15.000+02:00</time>
      </trkpt>
      <trkpt lat="42.87769" lon="-3.34151">
        <ele>674.4</ele>
        <time>2023-06-14T23:49:35.000+02:00</time>
      </trkpt>
      <trkpt lat="42.87901" lon="-3.34167">
        <ele>674.9</ele>
        <time>2023-06-14T23:49:55.000+02:00</time>
      </trkpt>
      <trkpt lat="42.87943" lon="-3.34292">
        <ele>676.5</ele>
        <time>2023-06-14T23:50:11.000+02:00</time>
      </trkpt>
      <trkpt lat="42.8799" lon="-3.34361">
        <ele>678.7</ele>
        <time>2023-06-14T23:50:21.000+02:00</time>
      </trkpt>
      <trkpt lat="42.87963" lon="-3.34468">
        <ele>675.4</ele>
        <time>2023-06-14T23:50:34.000+02:00</time>
      </trkpt>
      <trkpt lat="42.87982" lon="-3.34541">
        <ele>674.2</ele>
        <time>2023-06-14T23:50:43.000+02:00</time>
      </trkpt>
      <trkpt lat="42.88103" lon="-3.34589">
        <ele>675.9</ele>
        <time>2023-06-14T23:51:02.000+02:00</time>
      </trkpt>
      <trkpt lat="42.88147" lon="-3.34557">
        <ele>676.1</ele>
        <time>2023-06-14T23:51:09.000+02:00</time>
      </trkpt>
      <trkpt lat="42.88223" lon="-3.34582">
        <ele>676</ele>
        <time>2023-06-14T23:51:21.000+02:00</time>
      </trkpt>
      <trkpt lat="42.88465" lon="-3.34537">
        <ele>658.1</ele>
        <time>2023-06-14T23:51:59.000+02:00</time>
      </trkpt>
      <trkpt lat="42.88645" lon="-3.34711">
        <ele>635.3</ele>
        <time>2023-06-14T23:52:32.000+02:00</time>
      </trkpt>
      <trkpt lat="42.88667" lon="-3.34695">
        <ele>633.2</ele>
        <time>2023-06-14T23:52:36.000+02:00</time>
      </trkpt>
      <trkpt lat="42.89044" lon="-3.34811">
        <ele>649.7</ele>
        <time>2023-06-14T23:53:35.000+02:00</time>
      </trkpt>
      <trkpt lat="42.89167" lon="-3.34813">
        <ele>655</ele>
        <time>2023-06-14T23:53:54.000+02:00</time>
      </trkpt>
      <trkpt lat="42.8939" lon="-3.35461">
        <ele>711.9</ele>
        <time>2023-06-14T23:55:14.000+02:00</time>
      </trkpt>
      <trkpt lat="42.89421" lon="-3.35446">
        <ele>715.7</ele>
        <time>2023-06-14T23:55:19.000+02:00</time>
      </trkpt>
      <trkpt lat="42.8944" lon="-3.35312">
        <ele>719.6</ele>
        <time>2023-06-14T23:55:35.000+02:00</time>
      </trkpt>
      <trkpt lat="42.89422" lon="-3.35255">
        <ele>722.7</ele>
        <time>2023-06-14T23:55:42.000+02:00</time>
      </trkpt>
      <trkpt lat="42.89436" lon="-3.35183">
        <ele>732</ele>
        <time>2023-06-14T23:55:50.000+02:00</time>
      </trkpt>
      <trkpt lat="42.89394" lon="-3.35039">
        <ele>739.6</ele>
        <time>2023-06-14T23:56:07.000+02:00</time>
      </trkpt>
      <trkpt lat="42.89427" lon="-3.35023">
        <ele>742.2</ele>
        <time>2023-06-14T23:56:12.000+02:00</time>
      </trkpt>
      <trkpt lat="42.89447" lon="-3.35068">
        <ele>747.7</ele>
        <time>2023-06-14T23:56:18.000+02:00</time>
      </trkpt>
      <trkpt lat="42.89602" lon="-3.35116">
        <ele>757.3</ele>
        <time>2023-06-14T23:56:43.000+02:00</time>
      </trkpt>
      <trkpt lat="42.89601" lon="-3.35119">
        <ele>758</ele>
        <time>2023-06-14T23:56:43.000+02:00</time>
      </trkpt>
      <trkpt lat="42.89598" lon="-3.35122">
        <ele>759</ele>
        <time>2023-06-14T23:56:44.000+02:00</time>
      </trkpt>
      <trkpt lat="42.89593" lon="-3.35124">
        <ele>760</ele>
        <time>2023-06-14T23:56:45.000+02:00</time>
      </trkpt>
      <trkpt lat="42.89579" lon="-3.35132">
        <ele>762.5</ele>
        <time>2023-06-14T23:56:48.000+02:00</time>
      </trkpt>
      <trkpt lat="42.89575" lon="-3.35137">
        <ele>763</ele>
        <time>2023-06-14T23:56:49.000+02:00</time>
      </trkpt>
      <trkpt lat="42.89574" lon="-3.35142">
        <ele>763.5</ele>
        <time>2023-06-14T23:56:50.000+02:00</time>
      </trkpt>
      <trkpt lat="42.89573" lon="-3.35152">
        <ele>765</ele>
        <time>2023-06-14T23:56:51.000+02:00</time>
      </trkpt>
      <trkpt lat="42.89565" lon="-3.35191">
        <ele>767</ele>
        <time>2023-06-14T23:56:56.000+02:00</time>
      </trkpt>
      <trkpt lat="42.89563" lon="-3.35199">
        <ele>767</ele>
        <time>2023-06-14T23:56:57.000+02:00</time>
      </trkpt>
      <trkpt lat="42.89564" lon="-3.35216">
        <ele>768</ele>
        <time>2023-06-14T23:56:59.000+02:00</time>
      </trkpt>
      <trkpt lat="42.89572" lon="-3.35249">
        <ele>771.8</ele>
        <time>2023-06-14T23:57:02.000+02:00</time>
      </trkpt>
      <trkpt lat="42.89576" lon="-3.3527">
        <ele>774.5</ele>
        <time>2023-06-14T23:57:05.000+02:00</time>
      </trkpt>
      <trkpt lat="42.89576" lon="-3.35285">
        <ele>775.8</ele>
        <time>2023-06-14T23:57:07.000+02:00</time>
      </trkpt>
      <trkpt lat="42.89575" lon="-3.35297">
        <ele>776.5</ele>
        <time>2023-06-14T23:57:08.000+02:00</time>
      </trkpt>
      <trkpt lat="42.89573" lon="-3.35307">
        <ele>776.8</ele>
        <time>2023-06-14T23:57:09.000+02:00</time>
      </trkpt>
      <trkpt lat="42.89569" lon="-3.35322">
        <ele>776.5</ele>
        <time>2023-06-14T23:57:11.000+02:00</time>
      </trkpt>
      <trkpt lat="42.89547" lon="-3.35397">
        <ele>776</ele>
        <time>2023-06-14T23:57:20.000+02:00</time>
      </trkpt>
      <trkpt lat="42.89545" lon="-3.35406">
        <ele>776.5</ele>
        <time>2023-06-14T23:57:21.000+02:00</time>
      </trkpt>
      <trkpt lat="42.89545" lon="-3.35416">
        <ele>777.3</ele>
        <time>2023-06-14T23:57:22.000+02:00</time>
      </trkpt>
      <trkpt lat="42.89545" lon="-3.35424">
        <ele>777.3</ele>
        <time>2023-06-14T23:57:23.000+02:00</time>
      </trkpt>
      <trkpt lat="42.89547" lon="-3.35434">
        <ele>777.8</ele>
        <time>2023-06-14T23:57:24.000+02:00</time>
      </trkpt>
      <trkpt lat="42.89551" lon="-3.3545">
        <ele>779</ele>
        <time>2023-06-14T23:57:26.000+02:00</time>
      </trkpt>
      <trkpt lat="42.89568" lon="-3.35494">
        <ele>785.8</ele>
        <time>2023-06-14T23:57:32.000+02:00</time>
      </trkpt>
      <trkpt lat="42.89572" lon="-3.35509">
        <ele>786.8</ele>
        <time>2023-06-14T23:57:33.000+02:00</time>
      </trkpt>
      <trkpt lat="42.89574" lon="-3.35524">
        <ele>786.3</ele>
        <time>2023-06-14T23:57:35.000+02:00</time>
      </trkpt>
      <trkpt lat="42.89574" lon="-3.35539">
        <ele>785</ele>
        <time>2023-06-14T23:57:37.000+02:00</time>
      </trkpt>
      <trkpt lat="42.89575" lon="-3.35551">
        <ele>784.3</ele>
        <time>2023-06-14T23:57:38.000+02:00</time>
      </trkpt>
      <trkpt lat="42.89577" lon="-3.35561">
        <ele>784</ele>
        <time>2023-06-14T23:57:39.000+02:00</time>
      </trkpt>
      <trkpt lat="42.89579" lon="-3.3557">
        <ele>784.3</ele>
        <time>2023-06-14T23:57:40.000+02:00</time>
      </trkpt>
      <trkpt lat="42.89583" lon="-3.35583">
        <ele>785</ele>
        <time>2023-06-14T23:57:42.000+02:00</time>
      </trkpt>
      <trkpt lat="42.89605" lon="-3.35636">
        <ele>791</ele>
        <time>2023-06-14T23:57:49.000+02:00</time>
      </trkpt>
      <trkpt lat="42.89616" lon="-3.35664">
        <ele>793.5</ele>
        <time>2023-06-14T23:57:52.000+02:00</time>
      </trkpt>
      <trkpt lat="42.89631" lon="-3.35711">
        <ele>795</ele>
        <time>2023-06-14T23:57:58.000+02:00</time>
      </trkpt>
      <trkpt lat="42.89639" lon="-3.35727">
        <ele>796.3</ele>
        <time>2023-06-14T23:58:00.000+02:00</time>
      </trkpt>
      <trkpt lat="42.89653" lon="-3.35747">
        <ele>799.5</ele>
        <time>2023-06-14T23:58:03.000+02:00</time>
      </trkpt>
      <trkpt lat="42.89669" lon="-3.35773">
        <ele>804.5</ele>
        <time>2023-06-14T23:58:07.000+02:00</time>
      </trkpt>
      <trkpt lat="42.89681" lon="-3.35794">
        <ele>808</ele>
        <time>2023-06-14T23:58:10.000+02:00</time>
      </trkpt>
      <trkpt lat="42.89686" lon="-3.35806">
        <ele>809.3</ele>
        <time>2023-06-14T23:58:12.000+02:00</time>
      </trkpt>
      <trkpt lat="42.89689" lon="-3.35818">
        <ele>809.5</ele>
        <time>2023-06-14T23:58:13.000+02:00</time>
      </trkpt>
      <trkpt lat="42.89689" lon="-3.35826">
        <ele>809.3</ele>
        <time>2023-06-14T23:58:14.000+02:00</time>
      </trkpt>
      <trkpt lat="42.89688" lon="-3.35835">
        <ele>808.8</ele>
        <time>2023-06-14T23:58:15.000+02:00</time>
      </trkpt>
      <trkpt lat="42.89684" lon="-3.35847">
        <ele>809</ele>
        <time>2023-06-14T23:58:16.000+02:00</time>
      </trkpt>
      <trkpt lat="42.89661" lon="-3.35895">
        <ele>809.5</ele>
        <time>2023-06-14T23:58:23.000+02:00</time>
      </trkpt>
      <trkpt lat="42.8963" lon="-3.35967">
        <ele>814.5</ele>
        <time>2023-06-14T23:58:32.000+02:00</time>
      </trkpt>
      <trkpt lat="42.89625" lon="-3.35976">
        <ele>815.8</ele>
        <time>2023-06-14T23:58:33.000+02:00</time>
      </trkpt>
      <trkpt lat="42.8962" lon="-3.35984">
        <ele>816.5</ele>
        <time>2023-06-14T23:58:35.000+02:00</time>
      </trkpt>
      <trkpt lat="42.89606" lon="-3.35996">
        <ele>817</ele>
        <time>2023-06-14T23:58:37.000+02:00</time>
      </trkpt>
      <trkpt lat="42.89599" lon="-3.36">
        <ele>817</ele>
        <time>2023-06-14T23:58:38.000+02:00</time>
      </trkpt>
      <trkpt lat="42.89582" lon="-3.36009">
        <ele>817</ele>
        <time>2023-06-14T23:58:41.000+02:00</time>
      </trkpt>
      <trkpt lat="42.89552" lon="-3.36025">
        <ele>820.3</ele>
        <time>2023-06-14T23:58:46.000+02:00</time>
      </trkpt>
      <trkpt lat="42.89505" lon="-3.36049">
        <ele>824.8</ele>
        <time>2023-06-14T23:58:54.000+02:00</time>
      </trkpt>
      <trkpt lat="42.89496" lon="-3.36052">
        <ele>825.5</ele>
        <time>2023-06-14T23:58:55.000+02:00</time>
      </trkpt>
      <trkpt lat="42.89483" lon="-3.36054">
        <ele>826.8</ele>
        <time>2023-06-14T23:58:57.000+02:00</time>
      </trkpt>
      <trkpt lat="42.89459" lon="-3.36054">
        <ele>827.8</ele>
        <time>2023-06-14T23:59:01.000+02:00</time>
      </trkpt>
      <trkpt lat="42.89426" lon="-3.36047">
        <ele>828</ele>
        <time>2023-06-14T23:59:06.000+02:00</time>
      </trkpt>
      <trkpt lat="42.89419" lon="-3.36047">
        <ele>828.3</ele>
        <time>2023-06-14T23:59:07.000+02:00</time>
      </trkpt>
      <trkpt lat="42.89414" lon="-3.36049">
        <ele>828.3</ele>
        <time>2023-06-14T23:59:08.000+02:00</time>
      </trkpt>
      <trkpt lat="42.89409" lon="-3.36053">
        <ele>827.8</ele>
        <time>2023-06-14T23:59:09.000+02:00</time>
      </trkpt>
      <trkpt lat="42.89403" lon="-3.3606">
        <ele>827.8</ele>
        <time>2023-06-14T23:59:10.000+02:00</time>
      </trkpt>
      <trkpt lat="42.89393" lon="-3.36075">
        <ele>828</ele>
        <time>2023-06-14T23:59:12.000+02:00</time>
      </trkpt>
      <trkpt lat="42.89374" lon="-3.36108">
        <ele>828.5</ele>
        <time>2023-06-14T23:59:17.000+02:00</time>
      </trkpt>
      <trkpt lat="42.8937" lon="-3.36119">
        <ele>829.3</ele>
        <time>2023-06-14T23:59:18.000+02:00</time>
      </trkpt>
      <trkpt lat="42.89365" lon="-3.36141">
        <ele>831.5</ele>
        <time>2023-06-14T23:59:21.000+02:00</time>
      </trkpt>
      <trkpt lat="42.89361" lon="-3.36151">
        <ele>832.5</ele>
        <time>2023-06-14T23:59:22.000+02:00</time>
      </trkpt>
      <trkpt lat="42.89354" lon="-3.36161">
        <ele>833</ele>
        <time>2023-06-14T23:59:24.000+02:00</time>
      </trkpt>
      <trkpt lat="42.89327" lon="-3.36189">
        <ele>833.3</ele>
        <time>2023-06-14T23:59:29.000+02:00</time>
      </trkpt>
      <trkpt lat="42.89314" lon="-3.36201">
        <ele>833.3</ele>
        <time>2023-06-14T23:59:31.000+02:00</time>
      </trkpt>
      <trkpt lat="42.89298" lon="-3.36212">
        <ele>833.3</ele>
        <time>2023-06-14T23:59:34.000+02:00</time>
      </trkpt>
      <trkpt lat="42.89284" lon="-3.36221">
        <ele>833</ele>
        <time>2023-06-14T23:59:36.000+02:00</time>
      </trkpt>
      <trkpt lat="42.89252" lon="-3.36236">
        <ele>833</ele>
        <time>2023-06-14T23:59:41.000+02:00</time>
      </trkpt>
      <trkpt lat="42.89242" lon="-3.36246">
        <ele>832</ele>
        <time>2023-06-14T23:59:43.000+02:00</time>
      </trkpt>
      <trkpt lat="42.89237" lon="-3.36255">
        <ele>831.3</ele>
        <time>2023-06-14T23:59:45.000+02:00</time>
      </trkpt>
      <trkpt lat="42.89234" lon="-3.36266">
        <ele>830.8</ele>
        <time>2023-06-14T23:59:46.000+02:00</time>
      </trkpt>
      <trkpt lat="42.89232" lon="-3.36285">
        <ele>831</ele>
        <time>2023-06-14T23:59:48.000+02:00</time>
      </trkpt>
      <trkpt lat="42.89228" lon="-3.36339">
        <ele>832.8</ele>
        <time>2023-06-14T23:59:54.000+02:00</time>
      </trkpt>
      <trkpt lat="42.89227" lon="-3.36368">
        <ele>833.3</ele>
        <time>2023-06-14T23:59:57.000+02:00</time>
      </trkpt>
      <trkpt lat="42.89226" lon="-3.36395">
        <ele>834</ele>
        <time>2023-06-15T00:00:00.000+02:00</time>
      </trkpt>
      <trkpt lat="42.8923" lon="-3.36443">
        <ele>836</ele>
        <time>2023-06-15T00:00:06.000+02:00</time>
      </trkpt>
      <trkpt lat="42.89233" lon="-3.3647">
        <ele>837</ele>
        <time>2023-06-15T00:00:09.000+02:00</time>
      </trkpt>
      <trkpt lat="42.89233" lon="-3.36478">
        <ele>837.3</ele>
        <time>2023-06-15T00:00:10.000+02:00</time>
      </trkpt>
      <trkpt lat="42.89232" lon="-3.36486">
        <ele>837.5</ele>
        <time>2023-06-15T00:00:11.000+02:00</time>
      </trkpt>
      <trkpt lat="42.8923" lon="-3.36491">
        <ele>837.5</ele>
        <time>2023-06-15T00:00:11.000+02:00</time>
      </trkpt>
      <trkpt lat="42.89226" lon="-3.36498">
        <ele>837.5</ele>
        <time>2023-06-15T00:00:12.000+02:00</time>
      </trkpt>
      <trkpt lat="42.89116" lon="-3.36624">
        <ele>839.8</ele>
        <time>2023-06-15T00:00:34.000+02:00</time>
      </trkpt>
      <trkpt lat="42.89087" lon="-3.36658">
        <ele>844</ele>
        <time>2023-06-15T00:00:40.000+02:00</time>
      </trkpt>
      <trkpt lat="42.89062" lon="-3.36685">
        <ele>845.8</ele>
        <time>2023-06-15T00:00:45.000+02:00</time>
      </trkpt>
      <trkpt lat="42.89048" lon="-3.36698">
        <ele>846.3</ele>
        <time>2023-06-15T00:00:48.000+02:00</time>
      </trkpt>
      <trkpt lat="42.89035" lon="-3.36707">
        <ele>846.8</ele>
        <time>2023-06-15T00:00:50.000+02:00</time>
      </trkpt>
      <trkpt lat="42.89027" lon="-3.36711">
        <ele>847</ele>
        <time>2023-06-15T00:00:51.000+02:00</time>
      </trkpt>
      <trkpt lat="42.89019" lon="-3.36713">
        <ele>847.5</ele>
        <time>2023-06-15T00:00:52.000+02:00</time>
      </trkpt>
      <trkpt lat="42.89009" lon="-3.36714">
        <ele>847.8</ele>
        <time>2023-06-15T00:00:54.000+02:00</time>
      </trkpt>
      <trkpt lat="42.8899" lon="-3.36712">
        <ele>847.8</ele>
        <time>2023-06-15T00:00:57.000+02:00</time>
      </trkpt>
      <trkpt lat="42.88973" lon="-3.36707">
        <ele>846.8</ele>
        <time>2023-06-15T00:00:59.000+02:00</time>
      </trkpt>
      <trkpt lat="42.8895" lon="-3.36702">
        <ele>845.5</ele>
        <time>2023-06-15T00:01:03.000+02:00</time>
      </trkpt>
      <trkpt lat="42.88925" lon="-3.36701">
        <ele>844</ele>
        <time>2023-06-15T00:01:07.000+02:00</time>
      </trkpt>
      <trkpt lat="42.88889" lon="-3.36702">
        <ele>842.5</ele>
        <time>2023-06-15T00:01:12.000+02:00</time>
      </trkpt>
      <trkpt lat="42.88832" lon="-3.36708">
        <ele>839</ele>
        <time>2023-06-15T00:01:21.000+02:00</time>
      </trkpt>
      <trkpt lat="42.88785" lon="-3.3671">
        <ele>839</ele>
        <time>2023-06-15T00:01:28.000+02:00</time>
      </trkpt>
      <trkpt lat="42.88771" lon="-3.36713">
        <ele>838.3</ele>
        <time>2023-06-15T00:01:30.000+02:00</time>
      </trkpt>
      <trkpt lat="42.88763" lon="-3.36715">
        <ele>837.8</ele>
        <time>2023-06-15T00:01:32.000+02:00</time>
      </trkpt>
      <trkpt lat="42.88746" lon="-3.36726">
        <ele>834.3</ele>
        <time>2023-06-15T00:01:34.000+02:00</time>
      </trkpt>
      <trkpt lat="42.88738" lon="-3.3673">
        <ele>833</ele>
        <time>2023-06-15T00:01:36.000+02:00</time>
      </trkpt>
      <trkpt lat="42.88689" lon="-3.36736">
        <ele>830.5</ele>
        <time>2023-06-15T00:01:43.000+02:00</time>
      </trkpt>
      <trkpt lat="42.88667" lon="-3.36739">
        <ele>829.5</ele>
        <time>2023-06-15T00:01:47.000+02:00</time>
      </trkpt>
      <trkpt lat="42.88643" lon="-3.36739">
        <ele>829.8</ele>
        <time>2023-06-15T00:01:50.000+02:00</time>
      </trkpt>
      <trkpt lat="42.88616" lon="-3.36734">
        <ele>831.3</ele>
        <time>2023-06-15T00:01:55.000+02:00</time>
      </trkpt>
      <trkpt lat="42.88603" lon="-3.36732">
        <ele>831.8</ele>
        <time>2023-06-15T00:01:57.000+02:00</time>
      </trkpt>
      <trkpt lat="42.88593" lon="-3.36732">
        <ele>831.8</ele>
        <time>2023-06-15T00:01:58.000+02:00</time>
      </trkpt>
      <trkpt lat="42.88584" lon="-3.36735">
        <ele>831</ele>
        <time>2023-06-15T00:01:59.000+02:00</time>
      </trkpt>
      <trkpt lat="42.88577" lon="-3.36738">
        <ele>831.8</ele>
        <time>2023-06-15T00:02:01.000+02:00</time>
      </trkpt>
      <trkpt lat="42.88567" lon="-3.36747">
        <ele>832.5</ele>
        <time>2023-06-15T00:02:02.000+02:00</time>
      </trkpt>
      <trkpt lat="42.88562" lon="-3.36759">
        <ele>831.8</ele>
        <time>2023-06-15T00:02:04.000+02:00</time>
      </trkpt>
      <trkpt lat="42.88557" lon="-3.36786">
        <ele>829.5</ele>
        <time>2023-06-15T00:02:07.000+02:00</time>
      </trkpt>
      <trkpt lat="42.88554" lon="-3.36819">
        <ele>826.3</ele>
        <time>2023-06-15T00:02:11.000+02:00</time>
      </trkpt>
      <trkpt lat="42.88553" lon="-3.36857">
        <ele>820.8</ele>
        <time>2023-06-15T00:02:15.000+02:00</time>
      </trkpt>
      <trkpt lat="42.88551" lon="-3.36867">
        <ele>819.8</ele>
        <time>2023-06-15T00:02:16.000+02:00</time>
      </trkpt>
      <trkpt lat="42.88547" lon="-3.36878">
        <ele>819.3</ele>
        <time>2023-06-15T00:02:18.000+02:00</time>
      </trkpt>
      <trkpt lat="42.88539" lon="-3.3689">
        <ele>819.3</ele>
        <time>2023-06-15T00:02:19.000+02:00</time>
      </trkpt>
      <trkpt lat="42.885" lon="-3.36941">
        <ele>819.8</ele>
        <time>2023-06-15T00:02:28.000+02:00</time>
      </trkpt>
      <trkpt lat="42.88486" lon="-3.36959">
        <ele>817.8</ele>
        <time>2023-06-15T00:02:31.000+02:00</time>
      </trkpt>
      <trkpt lat="42.88469" lon="-3.36978">
        <ele>815</ele>
        <time>2023-06-15T00:02:34.000+02:00</time>
      </trkpt>
      <trkpt lat="42.88456" lon="-3.36986">
        <ele>813.5</ele>
        <time>2023-06-15T00:02:36.000+02:00</time>
      </trkpt>
      <trkpt lat="42.88447" lon="-3.3699">
        <ele>813</ele>
        <time>2023-06-15T00:02:38.000+02:00</time>
      </trkpt>
      <trkpt lat="42.88415" lon="-3.36999">
        <ele>811.3</ele>
        <time>2023-06-15T00:02:43.000+02:00</time>
      </trkpt>
      <trkpt lat="42.88403" lon="-3.37001">
        <ele>810.5</ele>
        <time>2023-06-15T00:02:44.000+02:00</time>
      </trkpt>
      <trkpt lat="42.88382" lon="-3.37003">
        <ele>810</ele>
        <time>2023-06-15T00:02:48.000+02:00</time>
      </trkpt>
      <trkpt lat="42.88318" lon="-3.37003">
        <ele>808.5</ele>
        <time>2023-06-15T00:02:57.000+02:00</time>
      </trkpt>
      <trkpt lat="42.88287" lon="-3.37006">
        <ele>806</ele>
        <time>2023-06-15T00:03:02.000+02:00</time>
      </trkpt>
      <trkpt lat="42.88275" lon="-3.37005">
        <ele>805.5</ele>
        <time>2023-06-15T00:03:04.000+02:00</time>
      </trkpt>
      <trkpt lat="42.8827" lon="-3.37004">
        <ele>805.5</ele>
        <time>2023-06-15T00:03:05.000+02:00</time>
      </trkpt>
      <trkpt lat="42.88264" lon="-3.37">
        <ele>805.8</ele>
        <time>2023-06-15T00:03:06.000+02:00</time>
      </trkpt>
      <trkpt lat="42.88257" lon="-3.36993">
        <ele>806.8</ele>
        <time>2023-06-15T00:03:07.000+02:00</time>
      </trkpt>
      <trkpt lat="42.88243" lon="-3.36976">
        <ele>808.5</ele>
        <time>2023-06-15T00:03:10.000+02:00</time>
      </trkpt>
      <trkpt lat="42.88239" lon="-3.36972">
        <ele>808.8</ele>
        <time>2023-06-15T00:03:11.000+02:00</time>
      </trkpt>
      <trkpt lat="42.88236" lon="-3.36972">
        <ele>808.5</ele>
        <time>2023-06-15T00:03:12.000+02:00</time>
      </trkpt>
      <trkpt lat="42.88233" lon="-3.36974">
        <ele>807.8</ele>
        <time>2023-06-15T00:03:13.000+02:00</time>
      </trkpt>
      <trkpt lat="42.88232" lon="-3.36977">
        <ele>807</ele>
        <time>2023-06-15T00:03:13.000+02:00</time>
      </trkpt>
      <trkpt lat="42.88231" lon="-3.36983">
        <ele>805.8</ele>
        <time>2023-06-15T00:03:14.000+02:00</time>
      </trkpt>
      <trkpt lat="42.88236" lon="-3.36992">
        <ele>804.8</ele>
        <time>2023-06-15T00:03:15.000+02:00</time>
      </trkpt>
      <trkpt lat="42.88257" lon="-3.37033">
        <ele>800.3</ele>
        <time>2023-06-15T00:03:21.000+02:00</time>
      </trkpt>
      <trkpt lat="42.88263" lon="-3.3704">
        <ele>799.5</ele>
        <time>2023-06-15T00:03:22.000+02:00</time>
      </trkpt>
      <trkpt lat="42.88269" lon="-3.37045">
        <ele>799</ele>
        <time>2023-06-15T00:03:23.000+02:00</time>
      </trkpt>
      <trkpt lat="42.88278" lon="-3.37047">
        <ele>799</ele>
        <time>2023-06-15T00:03:24.000+02:00</time>
      </trkpt>
      <trkpt lat="42.88316" lon="-3.37054">
        <ele>799</ele>
        <time>2023-06-15T00:03:30.000+02:00</time>
      </trkpt>
      <trkpt lat="42.88326" lon="-3.37058">
        <ele>798.5</ele>
        <time>2023-06-15T00:03:32.000+02:00</time>
      </trkpt>
      <trkpt lat="42.88348" lon="-3.3707">
        <ele>796.3</ele>
        <time>2023-06-15T00:03:35.000+02:00</time>
      </trkpt>
      <trkpt lat="42.88365" lon="-3.37078">
        <ele>794.5</ele>
        <time>2023-06-15T00:03:38.000+02:00</time>
      </trkpt>
      <trkpt lat="42.88378" lon="-3.37082">
        <ele>793.8</ele>
        <time>2023-06-15T00:03:40.000+02:00</time>
      </trkpt>
      <trkpt lat="42.88386" lon="-3.37083">
        <ele>793.3</ele>
        <time>2023-06-15T00:03:41.000+02:00</time>
      </trkpt>
      <trkpt lat="42.88394" lon="-3.37085">
        <ele>793</ele>
        <time>2023-06-15T00:03:43.000+02:00</time>
      </trkpt>
      <trkpt lat="42.88416" lon="-3.37086">
        <ele>792.5</ele>
        <time>2023-06-15T00:03:46.000+02:00</time>
      </trkpt>
      <trkpt lat="42.8843" lon="-3.37088">
        <ele>792.8</ele>
        <time>2023-06-15T00:03:48.000+02:00</time>
      </trkpt>
      <trkpt lat="42.88438" lon="-3.37092">
        <ele>792.8</ele>
        <time>2023-06-15T00:03:49.000+02:00</time>
      </trkpt>
      <trkpt lat="42.88445" lon="-3.37097">
        <ele>792.5</ele>
        <time>2023-06-15T00:03:51.000+02:00</time>
      </trkpt>
      <trkpt lat="42.88451" lon="-3.37104">
        <ele>791.8</ele>
        <time>2023-06-15T00:03:52.000+02:00</time>
      </trkpt>
      <trkpt lat="42.88456" lon="-3.37112">
        <ele>790.8</ele>
        <time>2023-06-15T00:03:53.000+02:00</time>
      </trkpt>
      <trkpt lat="42.88461" lon="-3.37123">
        <ele>789.5</ele>
        <time>2023-06-15T00:03:54.000+02:00</time>
      </trkpt>
      <trkpt lat="42.88466" lon="-3.37139">
        <ele>787.5</ele>
        <time>2023-06-15T00:03:56.000+02:00</time>
      </trkpt>
      <trkpt lat="42.88472" lon="-3.37155">
        <ele>785.5</ele>
        <time>2023-06-15T00:03:58.000+02:00</time>
      </trkpt>
      <trkpt lat="42.88476" lon="-3.37161">
        <ele>784.8</ele>
        <time>2023-06-15T00:03:59.000+02:00</time>
      </trkpt>
      <trkpt lat="42.88481" lon="-3.37165">
        <ele>784.5</ele>
        <time>2023-06-15T00:04:00.000+02:00</time>
      </trkpt>
      <trkpt lat="42.88486" lon="-3.37167">
        <ele>784.3</ele>
        <time>2023-06-15T00:04:01.000+02:00</time>
      </trkpt>
      <trkpt lat="42.88491" lon="-3.37168">
        <ele>784.5</ele>
        <time>2023-06-15T00:04:02.000+02:00</time>
      </trkpt>
      <trkpt lat="42.8851" lon="-3.37166">
        <ele>784.5</ele>
        <time>2023-06-15T00:04:05.000+02:00</time>
      </trkpt>
      <trkpt lat="42.88531" lon="-3.37162">
        <ele>783.5</ele>
        <time>2023-06-15T00:04:08.000+02:00</time>
      </trkpt>
      <trkpt lat="42.88551" lon="-3.37155">
        <ele>783</ele>
        <time>2023-06-15T00:04:11.000+02:00</time>
      </trkpt>
      <trkpt lat="42.88564" lon="-3.37148">
        <ele>783</ele>
        <time>2023-06-15T00:04:13.000+02:00</time>
      </trkpt>
      <trkpt lat="42.88584" lon="-3.37134">
        <ele>782.5</ele>
        <time>2023-06-15T00:04:17.000+02:00</time>
      </trkpt>
      <trkpt lat="42.88608" lon="-3.37114">
        <ele>783.3</ele>
        <time>2023-06-15T00:04:21.000+02:00</time>
      </trkpt>
      <trkpt lat="42.88627" lon="-3.37095">
        <ele>782.8</ele>
        <time>2023-06-15T00:04:24.000+02:00</time>
      </trkpt>
      <trkpt lat="42.88632" lon="-3.37092">
        <ele>782.5</ele>
        <time>2023-06-15T00:04:25.000+02:00</time>
      </trkpt>
      <trkpt lat="42.88636" lon="-3.37091">
        <ele>782.3</ele>
        <time>2023-06-15T00:04:26.000+02:00</time>
      </trkpt>
      <trkpt lat="42.8864" lon="-3.37092">
        <ele>782</ele>
        <time>2023-06-15T00:04:27.000+02:00</time>
      </trkpt>
      <trkpt lat="42.88643" lon="-3.37095">
        <ele>781.8</ele>
        <time>2023-06-15T00:04:28.000+02:00</time>
      </trkpt>
      <trkpt lat="42.88645" lon="-3.37102">
        <ele>781.5</ele>
        <time>2023-06-15T00:04:29.000+02:00</time>
      </trkpt>
      <trkpt lat="42.88645" lon="-3.37111">
        <ele>781.3</ele>
        <time>2023-06-15T00:04:30.000+02:00</time>
      </trkpt>
      <trkpt lat="42.88643" lon="-3.37119">
        <ele>781.3</ele>
        <time>2023-06-15T00:04:31.000+02:00</time>
      </trkpt>
      <trkpt lat="42.88639" lon="-3.37133">
        <ele>781.3</ele>
        <time>2023-06-15T00:04:33.000+02:00</time>
      </trkpt>
      <trkpt lat="42.88627" lon="-3.37159">
        <ele>780.8</ele>
        <time>2023-06-15T00:04:36.000+02:00</time>
      </trkpt>
      <trkpt lat="42.886" lon="-3.37212">
        <ele>776</ele>
        <time>2023-06-15T00:04:43.000+02:00</time>
      </trkpt>
      <trkpt lat="42.88582" lon="-3.37244">
        <ele>769.8</ele>
        <time>2023-06-15T00:04:48.000+02:00</time>
      </trkpt>
      <trkpt lat="42.88539" lon="-3.37318">
        <ele>766.8</ele>
        <time>2023-06-15T00:04:58.000+02:00</time>
      </trkpt>
      <trkpt lat="42.8849" lon="-3.37396">
        <ele>757.5</ele>
        <time>2023-06-15T00:05:10.000+02:00</time>
      </trkpt>
      <trkpt lat="42.88484" lon="-3.37407">
        <ele>756.5</ele>
        <time>2023-06-15T00:05:11.000+02:00</time>
      </trkpt>
      <trkpt lat="42.88476" lon="-3.37425">
        <ele>755.8</ele>
        <time>2023-06-15T00:05:14.000+02:00</time>
      </trkpt>
      <trkpt lat="42.88469" lon="-3.3745">
        <ele>755</ele>
        <time>2023-06-15T00:05:17.000+02:00</time>
      </trkpt>
      <trkpt lat="42.88456" lon="-3.37501">
        <ele>753</ele>
        <time>2023-06-15T00:05:23.000+02:00</time>
      </trkpt>
      <trkpt lat="42.8845" lon="-3.37526">
        <ele>751.3</ele>
        <time>2023-06-15T00:05:26.000+02:00</time>
      </trkpt>
      <trkpt lat="42.88447" lon="-3.37544">
        <ele>750</ele>
        <time>2023-06-15T00:05:28.000+02:00</time>
      </trkpt>
      <trkpt lat="42.88445" lon="-3.37562">
        <ele>749</ele>
        <time>2023-06-15T00:05:30.000+02:00</time>
      </trkpt>
      <trkpt lat="42.88445" lon="-3.37574">
        <ele>748.5</ele>
        <time>2023-06-15T00:05:31.000+02:00</time>
      </trkpt>
      <trkpt lat="42.88446" lon="-3.3759">
        <ele>747.8</ele>
        <time>2023-06-15T00:05:33.000+02:00</time>
      </trkpt>
      <trkpt lat="42.8845" lon="-3.3764">
        <ele>746.5</ele>
        <time>2023-06-15T00:05:39.000+02:00</time>
      </trkpt>
      <trkpt lat="42.88454" lon="-3.37705">
        <ele>744.8</ele>
        <time>2023-06-15T00:05:46.000+02:00</time>
      </trkpt>
      <trkpt lat="42.88456" lon="-3.3776">
        <ele>743</ele>
        <time>2023-06-15T00:05:52.000+02:00</time>
      </trkpt>
      <trkpt lat="42.88456" lon="-3.37801">
        <ele>741</ele>
        <time>2023-06-15T00:05:57.000+02:00</time>
      </trkpt>
      <trkpt lat="42.88455" lon="-3.37873">
        <ele>737.3</ele>
        <time>2023-06-15T00:06:05.000+02:00</time>
      </trkpt>
      <trkpt lat="42.88456" lon="-3.37898">
        <ele>736</ele>
        <time>2023-06-15T00:06:08.000+02:00</time>
      </trkpt>
      <trkpt lat="42.8846" lon="-3.37967">
        <ele>731.3</ele>
        <time>2023-06-15T00:06:15.000+02:00</time>
      </trkpt>
      <trkpt lat="42.88461" lon="-3.38015">
        <ele>727.5</ele>
        <time>2023-06-15T00:06:21.000+02:00</time>
      </trkpt>
      <trkpt lat="42.88461" lon="-3.38039">
        <ele>725.8</ele>
        <time>2023-06-15T00:06:23.000+02:00</time>
      </trkpt>
      <trkpt lat="42.8846" lon="-3.38055">
        <ele>724.5</ele>
        <time>2023-06-15T00:06:25.000+02:00</time>
      </trkpt>
      <trkpt lat="42.88459" lon="-3.38072">
        <ele>723.3</ele>
        <time>2023-06-15T00:06:27.000+02:00</time>
      </trkpt>
      <trkpt lat="42.88455" lon="-3.38101">
        <ele>720.3</ele>
        <time>2023-06-15T00:06:30.000+02:00</time>
      </trkpt>
      <trkpt lat="42.88452" lon="-3.38138">
        <ele>716.8</ele>
        <time>2023-06-15T00:06:35.000+02:00</time>
      </trkpt>
      <trkpt lat="42.88451" lon="-3.38155">
        <ele>715</ele>
        <time>2023-06-15T00:06:36.000+02:00</time>
      </trkpt>
      <trkpt lat="42.88449" lon="-3.38197">
        <ele>710.8</ele>
        <time>2023-06-15T00:06:41.000+02:00</time>
      </trkpt>
      <trkpt lat="42.88448" lon="-3.38203">
        <ele>710.3</ele>
        <time>2023-06-15T00:06:42.000+02:00</time>
      </trkpt>
      <trkpt lat="42.88443" lon="-3.38214">
        <ele>709</ele>
        <time>2023-06-15T00:06:43.000+02:00</time>
      </trkpt>
      <trkpt lat="42.88436" lon="-3.38224">
        <ele>707.8</ele>
        <time>2023-06-15T00:06:45.000+02:00</time>
      </trkpt>
      <trkpt lat="42.88417" lon="-3.38251">
        <ele>704.8</ele>
        <time>2023-06-15T00:06:49.000+02:00</time>
      </trkpt>
      <trkpt lat="42.88402" lon="-3.38279">
        <ele>705</ele>
        <time>2023-06-15T00:06:53.000+02:00</time>
      </trkpt>
      <trkpt lat="42.88386" lon="-3.38312">
        <ele>703.5</ele>
        <time>2023-06-15T00:06:57.000+02:00</time>
      </trkpt>
      <trkpt lat="42.8837" lon="-3.38348">
        <ele>703.3</ele>
        <time>2023-06-15T00:07:02.000+02:00</time>
      </trkpt>
      <trkpt lat="42.88365" lon="-3.38358">
        <ele>704.5</ele>
        <time>2023-06-15T00:07:03.000+02:00</time>
      </trkpt>
      <trkpt lat="42.88358" lon="-3.38368">
        <ele>705.3</ele>
        <time>2023-06-15T00:07:05.000+02:00</time>
      </trkpt>
      <trkpt lat="42.88347" lon="-3.38379">
        <ele>705.8</ele>
        <time>2023-06-15T00:07:07.000+02:00</time>
      </trkpt>
      <trkpt lat="42.88332" lon="-3.38389">
        <ele>705</ele>
        <time>2023-06-15T00:07:10.000+02:00</time>
      </trkpt>
      <trkpt lat="42.88311" lon="-3.384">
        <ele>704.5</ele>
        <time>2023-06-15T00:07:13.000+02:00</time>
      </trkpt>
      <trkpt lat="42.88281" lon="-3.38414">
        <ele>701.8</ele>
        <time>2023-06-15T00:07:18.000+02:00</time>
      </trkpt>
      <trkpt lat="42.88268" lon="-3.38422">
        <ele>701.3</ele>
        <time>2023-06-15T00:07:20.000+02:00</time>
      </trkpt>
      <trkpt lat="42.88255" lon="-3.38432">
        <ele>701.8</ele>
        <time>2023-06-15T00:07:22.000+02:00</time>
      </trkpt>
      <trkpt lat="42.88221" lon="-3.38465">
        <ele>703.8</ele>
        <time>2023-06-15T00:07:29.000+02:00</time>
      </trkpt>
      <trkpt lat="42.88196" lon="-3.38491">
        <ele>701.5</ele>
        <time>2023-06-15T00:07:33.000+02:00</time>
      </trkpt>
      <trkpt lat="42.88174" lon="-3.38517">
        <ele>699.3</ele>
        <time>2023-06-15T00:07:38.000+02:00</time>
      </trkpt>
      <trkpt lat="42.88151" lon="-3.38553">
        <ele>700.3</ele>
        <time>2023-06-15T00:07:43.000+02:00</time>
      </trkpt>
      <trkpt lat="42.88138" lon="-3.38571">
        <ele>700.3</ele>
        <time>2023-06-15T00:07:46.000+02:00</time>
      </trkpt>
      <trkpt lat="42.88121" lon="-3.38588">
        <ele>699.3</ele>
        <time>2023-06-15T00:07:49.000+02:00</time>
      </trkpt>
      <trkpt lat="42.88108" lon="-3.386">
        <ele>699.3</ele>
        <time>2023-06-15T00:07:52.000+02:00</time>
      </trkpt>
      <trkpt lat="42.88096" lon="-3.38609">
        <ele>698.5</ele>
        <time>2023-06-15T00:07:54.000+02:00</time>
      </trkpt>
      <trkpt lat="42.88079" lon="-3.3862">
        <ele>697</ele>
        <time>2023-06-15T00:07:57.000+02:00</time>
      </trkpt>
      <trkpt lat="42.88038" lon="-3.38643">
        <ele>695.8</ele>
        <time>2023-06-15T00:08:03.000+02:00</time>
      </trkpt>
      <trkpt lat="42.88024" lon="-3.38649">
        <ele>694.8</ele>
        <time>2023-06-15T00:08:06.000+02:00</time>
      </trkpt>
      <trkpt lat="42.87992" lon="-3.38658">
        <ele>691.5</ele>
        <time>2023-06-15T00:08:11.000+02:00</time>
      </trkpt>
      <trkpt lat="42.87948" lon="-3.38672">
        <ele>690</ele>
        <time>2023-06-15T00:08:18.000+02:00</time>
      </trkpt>
      <trkpt lat="42.87879" lon="-3.38698">
        <ele>689.3</ele>
        <time>2023-06-15T00:08:28.000+02:00</time>
      </trkpt>
      <trkpt lat="42.87862" lon="-3.38704">
        <ele>688.3</ele>
        <time>2023-06-15T00:08:31.000+02:00</time>
      </trkpt>
      <trkpt lat="42.87808" lon="-3.38717">
        <ele>684.5</ele>
        <time>2023-06-15T00:08:40.000+02:00</time>
      </trkpt>
      <trkpt lat="42.87727" lon="-3.38741">
        <ele>678</ele>
        <time>2023-06-15T00:08:52.000+02:00</time>
      </trkpt>
      <trkpt lat="42.8771" lon="-3.38746">
        <ele>677</ele>
        <time>2023-06-15T00:08:55.000+02:00</time>
      </trkpt>
      <trkpt lat="42.87677" lon="-3.38753">
        <ele>674.8</ele>
        <time>2023-06-15T00:09:00.000+02:00</time>
      </trkpt>
      <trkpt lat="42.87667" lon="-3.38754">
        <ele>674</ele>
        <time>2023-06-15T00:09:02.000+02:00</time>
      </trkpt>
      <trkpt lat="42.87649" lon="-3.38754">
        <ele>673</ele>
        <time>2023-06-15T00:09:04.000+02:00</time>
      </trkpt>
      <trkpt lat="42.87619" lon="-3.38752">
        <ele>671.3</ele>
        <time>2023-06-15T00:09:09.000+02:00</time>
      </trkpt>
      <trkpt lat="42.87589" lon="-3.3875">
        <ele>669.3</ele>
        <time>2023-06-15T00:09:14.000+02:00</time>
      </trkpt>
      <trkpt lat="42.87556" lon="-3.38759">
        <ele>669</ele>
        <time>2023-06-15T00:09:19.000+02:00</time>
      </trkpt>
      <trkpt lat="42.87539" lon="-3.38762">
        <ele>669</ele>
        <time>2023-06-15T00:09:21.000+02:00</time>
      </trkpt>
      <trkpt lat="42.87527" lon="-3.38762">
        <ele>669</ele>
        <time>2023-06-15T00:09:23.000+02:00</time>
      </trkpt>
      <trkpt lat="42.87503" lon="-3.38762">
        <ele>668.8</ele>
        <time>2023-06-15T00:09:27.000+02:00</time>
      </trkpt>
      <trkpt lat="42.87495" lon="-3.38763">
        <ele>668.8</ele>
        <time>2023-06-15T00:09:28.000+02:00</time>
      </trkpt>
      <trkpt lat="42.87455" lon="-3.38769">
        <ele>668.8</ele>
        <time>2023-06-15T00:09:34.000+02:00</time>
      </trkpt>
      <trkpt lat="42.87434" lon="-3.38776">
        <ele>669.3</ele>
        <time>2023-06-15T00:09:37.000+02:00</time>
      </trkpt>
      <trkpt lat="42.87407" lon="-3.38789">
        <ele>669.3</ele>
        <time>2023-06-15T00:09:42.000+02:00</time>
      </trkpt>
      <trkpt lat="42.87382" lon="-3.38805">
        <ele>667.8</ele>
        <time>2023-06-15T00:09:46.000+02:00</time>
      </trkpt>
      <trkpt lat="42.87379" lon="-3.38809">
        <ele>667.8</ele>
        <time>2023-06-15T00:09:47.000+02:00</time>
      </trkpt>
      <trkpt lat="42.87368" lon="-3.38823">
        <ele>667</ele>
        <time>2023-06-15T00:09:49.000+02:00</time>
      </trkpt>
      <trkpt lat="42.87361" lon="-3.38835">
        <ele>666.5</ele>
        <time>2023-06-15T00:09:51.000+02:00</time>
      </trkpt>
      <trkpt lat="42.87334" lon="-3.38889">
        <ele>666.3</ele>
        <time>2023-06-15T00:09:58.000+02:00</time>
      </trkpt>
      <trkpt lat="42.87319" lon="-3.38912">
        <ele>666.5</ele>
        <time>2023-06-15T00:10:01.000+02:00</time>
      </trkpt>
      <trkpt lat="42.8731" lon="-3.38924">
        <ele>666</ele>
        <time>2023-06-15T00:10:03.000+02:00</time>
      </trkpt>
      <trkpt lat="42.8716" lon="-3.3908">
        <ele>656.5</ele>
        <time>2023-06-15T00:10:32.000+02:00</time>
      </trkpt>
      <trkpt lat="42.87123" lon="-3.39118">
        <ele>656</ele>
        <time>2023-06-15T00:10:39.000+02:00</time>
      </trkpt>
      <trkpt lat="42.8702" lon="-3.39224">
        <ele>649.8</ele>
        <time>2023-06-15T00:10:59.000+02:00</time>
      </trkpt>
      <trkpt lat="42.86909" lon="-3.39337">
        <ele>643.5</ele>
        <time>2023-06-15T00:11:20.000+02:00</time>
      </trkpt>
      <trkpt lat="42.86882" lon="-3.39368">
        <ele>642.8</ele>
        <time>2023-06-15T00:11:25.000+02:00</time>
      </trkpt>
      <trkpt lat="42.86873" lon="-3.39376">
        <ele>642.5</ele>
        <time>2023-06-15T00:11:27.000+02:00</time>
      </trkpt>
      <trkpt lat="42.86848" lon="-3.39395">
        <ele>641.5</ele>
        <time>2023-06-15T00:11:32.000+02:00</time>
      </trkpt>
      <trkpt lat="42.86752" lon="-3.39469">
        <ele>638</ele>
        <time>2023-06-15T00:11:48.000+02:00</time>
      </trkpt>
      <trkpt lat="42.86708" lon="-3.39501">
        <ele>636.5</ele>
        <time>2023-06-15T00:11:56.000+02:00</time>
      </trkpt>
      <trkpt lat="42.86553" lon="-3.39619">
        <ele>632.8</ele>
        <time>2023-06-15T00:12:23.000+02:00</time>
      </trkpt>
      <trkpt lat="42.86447" lon="-3.39699">
        <ele>633.8</ele>
        <time>2023-06-15T00:12:42.000+02:00</time>
      </trkpt>
      <trkpt lat="42.86404" lon="-3.39733">
        <ele>635</ele>
        <time>2023-06-15T00:12:49.000+02:00</time>
      </trkpt>
      <trkpt lat="42.86384" lon="-3.39749">
        <ele>635.8</ele>
        <time>2023-06-15T00:12:53.000+02:00</time>
      </trkpt>
      <trkpt lat="42.86408" lon="-3.39771">
        <ele>635.5</ele>
        <time>2023-06-15T00:12:57.000+02:00</time>
      </trkpt>
      <trkpt lat="42.86457" lon="-3.39798">
        <ele>638</ele>
        <time>2023-06-15T00:13:05.000+02:00</time>
      </trkpt>
      <trkpt lat="42.86531" lon="-3.39934">
        <ele>644.8</ele>
        <time>2023-06-15T00:13:24.000+02:00</time>
      </trkpt>
      <trkpt lat="42.8661" lon="-3.40002">
        <ele>648.5</ele>
        <time>2023-06-15T00:13:38.000+02:00</time>
      </trkpt>
      <trkpt lat="42.867" lon="-3.4">
        <ele>652.3</ele>
        <time>2023-06-15T00:13:52.000+02:00</time>
      </trkpt>
      <trkpt lat="42.86801" lon="-3.40057">
        <ele>657.8</ele>
        <time>2023-06-15T00:14:09.000+02:00</time>
      </trkpt>
      <trkpt lat="42.8684" lon="-3.40056">
        <ele>660.3</ele>
        <time>2023-06-15T00:14:15.000+02:00</time>
      </trkpt>
      <trkpt lat="42.86901" lon="-3.401">
        <ele>665.5</ele>
        <time>2023-06-15T00:14:25.000+02:00</time>
      </trkpt>
      <trkpt lat="42.86935" lon="-3.40095">
        <ele>668.8</ele>
        <time>2023-06-15T00:14:31.000+02:00</time>
      </trkpt>
      <trkpt lat="42.8696" lon="-3.40117">
        <ele>669.3</ele>
        <time>2023-06-15T00:14:35.000+02:00</time>
      </trkpt>
      <trkpt lat="42.87034" lon="-3.40279">
        <ele>674.8</ele>
        <time>2023-06-15T00:14:57.000+02:00</time>
      </trkpt>
      <trkpt lat="42.87085" lon="-3.4039">
        <ele>678.8</ele>
        <time>2023-06-15T00:15:11.000+02:00</time>
      </trkpt>
      <trkpt lat="42.87101" lon="-3.40487">
        <ele>681.3</ele>
        <time>2023-06-15T00:15:22.000+02:00</time>
      </trkpt>
      <trkpt lat="42.87237" lon="-3.40638">
        <ele>683.8</ele>
        <time>2023-06-15T00:15:49.000+02:00</time>
      </trkpt>
      <trkpt lat="42.8727" lon="-3.40723">
        <ele>683</ele>
        <time>2023-06-15T00:16:00.000+02:00</time>
      </trkpt>
      <trkpt lat="42.87308" lon="-3.40758">
        <ele>684.5</ele>
        <time>2023-06-15T00:16:07.000+02:00</time>
      </trkpt>
      <trkpt lat="42.87343" lon="-3.4083">
        <ele>686.8</ele>
        <time>2023-06-15T00:16:17.000+02:00</time>
      </trkpt>
      <trkpt lat="42.8739" lon="-3.40877">
        <ele>690.3</ele>
        <time>2023-06-15T00:16:26.000+02:00</time>
      </trkpt>
      <trkpt lat="42.87525" lon="-3.40936">
        <ele>693.3</ele>
        <time>2023-06-15T00:16:47.000+02:00</time>
      </trkpt>
      <trkpt lat="42.87584" lon="-3.41068">
        <ele>697.3</ele>
        <time>2023-06-15T00:17:04.000+02:00</time>
      </trkpt>
      <trkpt lat="42.87617" lon="-3.41092">
        <ele>698.5</ele>
        <time>2023-06-15T00:17:10.000+02:00</time>
      </trkpt>
      <trkpt lat="42.87636" lon="-3.41106">
        <ele>698</ele>
        <time>2023-06-15T00:17:13.000+02:00</time>
      </trkpt>
      <trkpt lat="42.87677" lon="-3.41098">
        <ele>699.8</ele>
        <time>2023-06-15T00:17:20.000+02:00</time>
      </trkpt>
      <trkpt lat="42.87737" lon="-3.41133">
        <ele>699.8</ele>
        <time>2023-06-15T00:17:30.000+02:00</time>
      </trkpt>
      <trkpt lat="42.87879" lon="-3.41309">
        <ele>703.8</ele>
        <time>2023-06-15T00:17:59.000+02:00</time>
      </trkpt>
      <trkpt lat="42.87906" lon="-3.41335">
        <ele>705</ele>
        <time>2023-06-15T00:18:04.000+02:00</time>
      </trkpt>
      <trkpt lat="42.87938" lon="-3.41371">
        <ele>704.8</ele>
        <time>2023-06-15T00:18:10.000+02:00</time>
      </trkpt>
      <trkpt lat="42.87955" lon="-3.41385">
        <ele>704</ele>
        <time>2023-06-15T00:18:13.000+02:00</time>
      </trkpt>
      <trkpt lat="42.87967" lon="-3.41391">
        <ele>703.5</ele>
        <time>2023-06-15T00:18:15.000+02:00</time>
      </trkpt>
      <trkpt lat="42.87979" lon="-3.41394">
        <ele>703.3</ele>
        <time>2023-06-15T00:18:17.000+02:00</time>
      </trkpt>
      <trkpt lat="42.87987" lon="-3.41393">
        <ele>703</ele>
        <time>2023-06-15T00:18:19.000+02:00</time>
      </trkpt>
      <trkpt lat="42.87996" lon="-3.41389">
        <ele>702.8</ele>
        <time>2023-06-15T00:18:20.000+02:00</time>
      </trkpt>
      <trkpt lat="42.88002" lon="-3.41382">
        <ele>702.5</ele>
        <time>2023-06-15T00:18:21.000+02:00</time>
      </trkpt>
      <trkpt lat="42.88009" lon="-3.41365">
        <ele>702.3</ele>
        <time>2023-06-15T00:18:23.000+02:00</time>
      </trkpt>
      <trkpt lat="42.88015" lon="-3.41357">
        <ele>702.5</ele>
        <time>2023-06-15T00:18:25.000+02:00</time>
      </trkpt>
      <trkpt lat="42.88021" lon="-3.41354">
        <ele>702.8</ele>
        <time>2023-06-15T00:18:26.000+02:00</time>
      </trkpt>
      <trkpt lat="42.88025" lon="-3.41354">
        <ele>702.8</ele>
        <time>2023-06-15T00:18:26.000+02:00</time>
      </trkpt>
      <trkpt lat="42.8803" lon="-3.41369">
        <ele>702.5</ele>
        <time>2023-06-15T00:18:28.000+02:00</time>
      </trkpt>
      <trkpt lat="42.88044" lon="-3.41396">
        <ele>701.5</ele>
        <time>2023-06-15T00:18:32.000+02:00</time>
      </trkpt>
      <trkpt lat="42.88045" lon="-3.41407">
        <ele>701</ele>
        <time>2023-06-15T00:18:33.000+02:00</time>
      </trkpt>
      <trkpt lat="42.88048" lon="-3.41482">
        <ele>695.3</ele>
        <time>2023-06-15T00:18:41.000+02:00</time>
      </trkpt>
      <trkpt lat="42.88052" lon="-3.41509">
        <ele>692.5</ele>
        <time>2023-06-15T00:18:44.000+02:00</time>
      </trkpt>
      <trkpt lat="42.88057" lon="-3.41529">
        <ele>690</ele>
        <time>2023-06-15T00:18:47.000+02:00</time>
      </trkpt>
      <trkpt lat="42.88072" lon="-3.41557">
        <ele>686.5</ele>
        <time>2023-06-15T00:18:51.000+02:00</time>
      </trkpt>
      <trkpt lat="42.88074" lon="-3.41566">
        <ele>685.5</ele>
        <time>2023-06-15T00:18:52.000+02:00</time>
      </trkpt>
      <trkpt lat="42.88072" lon="-3.4159">
        <ele>683.8</ele>
        <time>2023-06-15T00:18:54.000+02:00</time>
      </trkpt>
      <trkpt lat="42.88076" lon="-3.41626">
        <ele>682</ele>
        <time>2023-06-15T00:18:59.000+02:00</time>
      </trkpt>
      <trkpt lat="42.88087" lon="-3.41678">
        <ele>681.3</ele>
        <time>2023-06-15T00:19:05.000+02:00</time>
      </trkpt>
      <trkpt lat="42.881" lon="-3.41707">
        <ele>682</ele>
        <time>2023-06-15T00:19:08.000+02:00</time>
      </trkpt>
      <trkpt lat="42.88101" lon="-3.41725">
        <ele>682</ele>
        <time>2023-06-15T00:19:10.000+02:00</time>
      </trkpt>
      <trkpt lat="42.88112" lon="-3.4176">
        <ele>682.3</ele>
        <time>2023-06-15T00:19:15.000+02:00</time>
      </trkpt>
      <trkpt lat="42.88128" lon="-3.418">
        <ele>681.8</ele>
        <time>2023-06-15T00:19:20.000+02:00</time>
      </trkpt>
      <trkpt lat="42.88129" lon="-3.41803">
        <ele>681.8</ele>
        <time>2023-06-15T00:19:21.000+02:00</time>
      </trkpt>
      <trkpt lat="42.88135" lon="-3.41809">
        <ele>681.8</ele>
        <time>2023-06-15T00:19:22.000+02:00</time>
      </trkpt>
      <trkpt lat="42.88139" lon="-3.41819">
        <ele>681.5</ele>
        <time>2023-06-15T00:19:23.000+02:00</time>
      </trkpt>
      <trkpt lat="42.88142" lon="-3.41842">
        <ele>679.5</ele>
        <time>2023-06-15T00:19:26.000+02:00</time>
      </trkpt>
      <trkpt lat="42.88156" lon="-3.41871">
        <ele>675.8</ele>
        <time>2023-06-15T00:19:30.000+02:00</time>
      </trkpt>
      <trkpt lat="42.88163" lon="-3.41892">
        <ele>672.8</ele>
        <time>2023-06-15T00:19:32.000+02:00</time>
      </trkpt>
      <trkpt lat="42.8818" lon="-3.41926">
        <ele>668.3</ele>
        <time>2023-06-15T00:19:37.000+02:00</time>
      </trkpt>
      <trkpt lat="42.88363" lon="-3.42071">
        <ele>655.5</ele>
        <time>2023-06-15T00:20:10.000+02:00</time>
      </trkpt>
      <trkpt lat="42.88377" lon="-3.42086">
        <ele>654.8</ele>
        <time>2023-06-15T00:20:12.000+02:00</time>
      </trkpt>
      <trkpt lat="42.88383" lon="-3.42102">
        <ele>654.3</ele>
        <time>2023-06-15T00:20:14.000+02:00</time>
      </trkpt>
      <trkpt lat="42.88387" lon="-3.42146">
        <ele>652.5</ele>
        <time>2023-06-15T00:20:19.000+02:00</time>
      </trkpt>
      <trkpt lat="42.88396" lon="-3.42184">
        <ele>651.5</ele>
        <time>2023-06-15T00:20:24.000+02:00</time>
      </trkpt>
      <trkpt lat="42.88409" lon="-3.42213">
        <ele>651.3</ele>
        <time>2023-06-15T00:20:27.000+02:00</time>
      </trkpt>
      <trkpt lat="42.88428" lon="-3.42255">
        <ele>651</ele>
        <time>2023-06-15T00:20:33.000+02:00</time>
      </trkpt>
      <trkpt lat="42.88435" lon="-3.42258">
        <ele>651</ele>
        <time>2023-06-15T00:20:34.000+02:00</time>
      </trkpt>
      <trkpt lat="42.88592" lon="-3.42333">
        <ele>655.3</ele>
        <time>2023-06-15T00:20:59.000+02:00</time>
      </trkpt>
      <trkpt lat="42.88737" lon="-3.42405">
        <ele>660.3</ele>
        <time>2023-06-15T00:21:23.000+02:00</time>
      </trkpt>
      <trkpt lat="42.88806" lon="-3.42438">
        <ele>663.5</ele>
        <time>2023-06-15T00:21:34.000+02:00</time>
      </trkpt>
      <trkpt lat="42.88897" lon="-3.4248">
        <ele>668</ele>
        <time>2023-06-15T00:21:49.000+02:00</time>
      </trkpt>
      <trkpt lat="42.88954" lon="-3.42494">
        <ele>669</ele>
        <time>2023-06-15T00:21:58.000+02:00</time>
      </trkpt>
      <trkpt lat="42.89119" lon="-3.42536">
        <ele>672.3</ele>
        <time>2023-06-15T00:22:23.000+02:00</time>
      </trkpt>
      <trkpt lat="42.89217" lon="-3.42559">
        <ele>674</ele>
        <time>2023-06-15T00:22:39.000+02:00</time>
      </trkpt>
      <trkpt lat="42.89234" lon="-3.42564">
        <ele>674.3</ele>
        <time>2023-06-15T00:22:41.000+02:00</time>
      </trkpt>
      <trkpt lat="42.89246" lon="-3.42571">
        <ele>674.5</ele>
        <time>2023-06-15T00:22:43.000+02:00</time>
      </trkpt>
      <trkpt lat="42.89254" lon="-3.42576">
        <ele>674.8</ele>
        <time>2023-06-15T00:22:45.000+02:00</time>
      </trkpt>
      <trkpt lat="42.89373" lon="-3.42712">
        <ele>679.3</ele>
        <time>2023-06-15T00:23:08.000+02:00</time>
      </trkpt>
      <trkpt lat="42.89491" lon="-3.42845">
        <ele>668.8</ele>
        <time>2023-06-15T00:23:32.000+02:00</time>
      </trkpt>
      <trkpt lat="42.89753" lon="-3.43137">
        <ele>661.8</ele>
        <time>2023-06-15T00:24:23.000+02:00</time>
      </trkpt>
      <trkpt lat="42.89858" lon="-3.43257">
        <ele>657.8</ele>
        <time>2023-06-15T00:24:44.000+02:00</time>
      </trkpt>
      <trkpt lat="42.89915" lon="-3.4332">
        <ele>657</ele>
        <time>2023-06-15T00:24:55.000+02:00</time>
      </trkpt>
      <trkpt lat="42.90002" lon="-3.43417">
        <ele>656</ele>
        <time>2023-06-15T00:25:13.000+02:00</time>
      </trkpt>
      <trkpt lat="42.90076" lon="-3.43501">
        <ele>659.8</ele>
        <time>2023-06-15T00:25:27.000+02:00</time>
      </trkpt>
      <trkpt lat="42.9008" lon="-3.43506">
        <ele>660</ele>
        <time>2023-06-15T00:25:28.000+02:00</time>
      </trkpt>
      <trkpt lat="42.90094" lon="-3.43521">
        <ele>661.3</ele>
        <time>2023-06-15T00:25:31.000+02:00</time>
      </trkpt>
      <trkpt lat="42.90109" lon="-3.4354">
        <ele>662.5</ele>
        <time>2023-06-15T00:25:34.000+02:00</time>
      </trkpt>
      <trkpt lat="42.90125" lon="-3.43554">
        <ele>663.3</ele>
        <time>2023-06-15T00:25:37.000+02:00</time>
      </trkpt>
      <trkpt lat="42.90237" lon="-3.43633">
        <ele>666.8</ele>
        <time>2023-06-15T00:25:56.000+02:00</time>
      </trkpt>
      <trkpt lat="42.90377" lon="-3.43733">
        <ele>664.3</ele>
        <time>2023-06-15T00:26:20.000+02:00</time>
      </trkpt>
      <trkpt lat="42.90389" lon="-3.43742">
        <ele>664</ele>
        <time>2023-06-15T00:26:22.000+02:00</time>
      </trkpt>
      <trkpt lat="42.90441" lon="-3.4378">
        <ele>664</ele>
        <time>2023-06-15T00:26:31.000+02:00</time>
      </trkpt>
      <trkpt lat="42.90468" lon="-3.438">
        <ele>664</ele>
        <time>2023-06-15T00:26:36.000+02:00</time>
      </trkpt>
      <trkpt lat="42.90554" lon="-3.43841">
        <ele>667.5</ele>
        <time>2023-06-15T00:26:50.000+02:00</time>
      </trkpt>
      <trkpt lat="42.90584" lon="-3.4386">
        <ele>669.3</ele>
        <time>2023-06-15T00:26:55.000+02:00</time>
      </trkpt>
      <trkpt lat="42.90606" lon="-3.43881">
        <ele>670.5</ele>
        <time>2023-06-15T00:26:59.000+02:00</time>
      </trkpt>
      <trkpt lat="42.90634" lon="-3.43913">
        <ele>671.8</ele>
        <time>2023-06-15T00:27:05.000+02:00</time>
      </trkpt>
      <trkpt lat="42.90662" lon="-3.43941">
        <ele>672.8</ele>
        <time>2023-06-15T00:27:10.000+02:00</time>
      </trkpt>
      <trkpt lat="42.90703" lon="-3.43974">
        <ele>674.8</ele>
        <time>2023-06-15T00:27:17.000+02:00</time>
      </trkpt>
      <trkpt lat="42.90711" lon="-3.43979">
        <ele>675</ele>
        <time>2023-06-15T00:27:19.000+02:00</time>
      </trkpt>
      <trkpt lat="42.90741" lon="-3.44013">
        <ele>674</ele>
        <time>2023-06-15T00:27:25.000+02:00</time>
      </trkpt>
      <trkpt lat="42.90756" lon="-3.44025">
        <ele>673.3</ele>
        <time>2023-06-15T00:27:27.000+02:00</time>
      </trkpt>
      <trkpt lat="42.90765" lon="-3.44037">
        <ele>672.8</ele>
        <time>2023-06-15T00:27:29.000+02:00</time>
      </trkpt>
      <trkpt lat="42.90773" lon="-3.44051">
        <ele>671.8</ele>
        <time>2023-06-15T00:27:31.000+02:00</time>
      </trkpt>
      <trkpt lat="42.90778" lon="-3.44067">
        <ele>671</ele>
        <time>2023-06-15T00:27:33.000+02:00</time>
      </trkpt>
      <trkpt lat="42.90783" lon="-3.44093">
        <ele>670</ele>
        <time>2023-06-15T00:27:36.000+02:00</time>
      </trkpt>
      <trkpt lat="42.90787" lon="-3.44129">
        <ele>670</ele>
        <time>2023-06-15T00:27:40.000+02:00</time>
      </trkpt>
      <trkpt lat="42.90794" lon="-3.44144">
        <ele>670.3</ele>
        <time>2023-06-15T00:27:42.000+02:00</time>
      </trkpt>
      <trkpt lat="42.90817" lon="-3.44185">
        <ele>671.3</ele>
        <time>2023-06-15T00:27:48.000+02:00</time>
      </trkpt>
      <trkpt lat="42.90832" lon="-3.44205">
        <ele>671</ele>
        <time>2023-06-15T00:27:51.000+02:00</time>
      </trkpt>
      <trkpt lat="42.90873" lon="-3.44253">
        <ele>667.8</ele>
        <time>2023-06-15T00:27:59.000+02:00</time>
      </trkpt>
      <trkpt lat="42.90902" lon="-3.44289">
        <ele>663.8</ele>
        <time>2023-06-15T00:28:05.000+02:00</time>
      </trkpt>
      <trkpt lat="42.90931" lon="-3.44329">
        <ele>658.8</ele>
        <time>2023-06-15T00:28:12.000+02:00</time>
      </trkpt>
      <trkpt lat="42.90938" lon="-3.44338">
        <ele>658</ele>
        <time>2023-06-15T00:28:13.000+02:00</time>
      </trkpt>
      <trkpt lat="42.90949" lon="-3.4435">
        <ele>657.5</ele>
        <time>2023-06-15T00:28:15.000+02:00</time>
      </trkpt>
      <trkpt lat="42.90968" lon="-3.44368">
        <ele>656.8</ele>
        <time>2023-06-15T00:28:19.000+02:00</time>
      </trkpt>
      <trkpt lat="42.90985" lon="-3.44387">
        <ele>656</ele>
        <time>2023-06-15T00:28:22.000+02:00</time>
      </trkpt>
      <trkpt lat="42.91027" lon="-3.44455">
        <ele>656.5</ele>
        <time>2023-06-15T00:28:32.000+02:00</time>
      </trkpt>
      <trkpt lat="42.91047" lon="-3.44484">
        <ele>657.5</ele>
        <time>2023-06-15T00:28:37.000+02:00</time>
      </trkpt>
      <trkpt lat="42.91061" lon="-3.4451">
        <ele>657.8</ele>
        <time>2023-06-15T00:28:40.000+02:00</time>
      </trkpt>
      <trkpt lat="42.91072" lon="-3.44533">
        <ele>658.3</ele>
        <time>2023-06-15T00:28:43.000+02:00</time>
      </trkpt>
      <trkpt lat="42.91084" lon="-3.44555">
        <ele>659</ele>
        <time>2023-06-15T00:28:46.000+02:00</time>
      </trkpt>
      <trkpt lat="42.91088" lon="-3.4457">
        <ele>659</ele>
        <time>2023-06-15T00:28:48.000+02:00</time>
      </trkpt>
      <trkpt lat="42.91097" lon="-3.44624">
        <ele>659.5</ele>
        <time>2023-06-15T00:28:54.000+02:00</time>
      </trkpt>
      <trkpt lat="42.91102" lon="-3.44643">
        <ele>659.8</ele>
        <time>2023-06-15T00:28:57.000+02:00</time>
      </trkpt>
      <trkpt lat="42.91108" lon="-3.44662">
        <ele>660</ele>
        <time>2023-06-15T00:28:59.000+02:00</time>
      </trkpt>
      <trkpt lat="42.91123" lon="-3.44704">
        <ele>659.5</ele>
        <time>2023-06-15T00:29:04.000+02:00</time>
      </trkpt>
      <trkpt lat="42.91146" lon="-3.44756">
        <ele>659</ele>
        <time>2023-06-15T00:29:11.000+02:00</time>
      </trkpt>
      <trkpt lat="42.91152" lon="-3.44765">
        <ele>659</ele>
        <time>2023-06-15T00:29:12.000+02:00</time>
      </trkpt>
      <trkpt lat="42.91169" lon="-3.44795">
        <ele>658.8</ele>
        <time>2023-06-15T00:29:17.000+02:00</time>
      </trkpt>
      <trkpt lat="42.91181" lon="-3.44807">
        <ele>658.8</ele>
        <time>2023-06-15T00:29:19.000+02:00</time>
      </trkpt>
      <trkpt lat="42.91194" lon="-3.44815">
        <ele>659</ele>
        <time>2023-06-15T00:29:21.000+02:00</time>
      </trkpt>
      <trkpt lat="42.91283" lon="-3.44843">
        <ele>660.8</ele>
        <time>2023-06-15T00:29:35.000+02:00</time>
      </trkpt>
      <trkpt lat="42.91269" lon="-3.44877">
        <ele>659</ele>
        <time>2023-06-15T00:29:40.000+02:00</time>
      </trkpt>
      <trkpt lat="42.91257" lon="-3.44912">
        <ele>657.3</ele>
        <time>2023-06-15T00:29:44.000+02:00</time>
      </trkpt>
      <trkpt lat="42.91245" lon="-3.44955">
        <ele>654.5</ele>
        <time>2023-06-15T00:29:49.000+02:00</time>
      </trkpt>
      <trkpt lat="42.91226" lon="-3.45055">
        <ele>649.5</ele>
        <time>2023-06-15T00:30:01.000+02:00</time>
      </trkpt>
      <trkpt lat="42.91224" lon="-3.45082">
        <ele>648.5</ele>
        <time>2023-06-15T00:30:04.000+02:00</time>
      </trkpt>
      <trkpt lat="42.91225" lon="-3.45115">
        <ele>647.3</ele>
        <time>2023-06-15T00:30:07.000+02:00</time>
      </trkpt>
      <trkpt lat="42.91224" lon="-3.45155">
        <ele>645.5</ele>
        <time>2023-06-15T00:30:12.000+02:00</time>
      </trkpt>
      <trkpt lat="42.9122" lon="-3.45216">
        <ele>642.5</ele>
        <time>2023-06-15T00:30:19.000+02:00</time>
      </trkpt>
      <trkpt lat="42.91215" lon="-3.45272">
        <ele>640</ele>
        <time>2023-06-15T00:30:25.000+02:00</time>
      </trkpt>
      <trkpt lat="42.91205" lon="-3.45326">
        <ele>638.5</ele>
        <time>2023-06-15T00:30:31.000+02:00</time>
      </trkpt>
      <trkpt lat="42.91205" lon="-3.45344">
        <ele>637.8</ele>
        <time>2023-06-15T00:30:33.000+02:00</time>
      </trkpt>
      <trkpt lat="42.91208" lon="-3.45352">
        <ele>637.3</ele>
        <time>2023-06-15T00:30:34.000+02:00</time>
      </trkpt>
      <trkpt lat="42.91224" lon="-3.45386">
        <ele>635.5</ele>
        <time>2023-06-15T00:30:39.000+02:00</time>
      </trkpt>
      <trkpt lat="42.91229" lon="-3.454">
        <ele>634.8</ele>
        <time>2023-06-15T00:30:40.000+02:00</time>
      </trkpt>
      <trkpt lat="42.9123" lon="-3.45413">
        <ele>634</ele>
        <time>2023-06-15T00:30:42.000+02:00</time>
      </trkpt>
      <trkpt lat="42.91229" lon="-3.45425">
        <ele>633.5</ele>
        <time>2023-06-15T00:30:43.000+02:00</time>
      </trkpt>
      <trkpt lat="42.91198" lon="-3.45527">
        <ele>629.8</ele>
        <time>2023-06-15T00:30:56.000+02:00</time>
      </trkpt>
      <trkpt lat="42.91191" lon="-3.45558">
        <ele>628.8</ele>
        <time>2023-06-15T00:30:59.000+02:00</time>
      </trkpt>
      <trkpt lat="42.91186" lon="-3.45582">
        <ele>627.8</ele>
        <time>2023-06-15T00:31:02.000+02:00</time>
      </trkpt>
      <trkpt lat="42.91186" lon="-3.45609">
        <ele>626.8</ele>
        <time>2023-06-15T00:31:05.000+02:00</time>
      </trkpt>
      <trkpt lat="42.91189" lon="-3.45646">
        <ele>625.5</ele>
        <time>2023-06-15T00:31:09.000+02:00</time>
      </trkpt>
      <trkpt lat="42.91191" lon="-3.45758">
        <ele>622</ele>
        <time>2023-06-15T00:31:22.000+02:00</time>
      </trkpt>
      <trkpt lat="42.91191" lon="-3.45795">
        <ele>620.3</ele>
        <time>2023-06-15T00:31:26.000+02:00</time>
      </trkpt>
      <trkpt lat="42.91186" lon="-3.4586">
        <ele>617</ele>
        <time>2023-06-15T00:31:33.000+02:00</time>
      </trkpt>
      <trkpt lat="42.91186" lon="-3.45867">
        <ele>616.8</ele>
        <time>2023-06-15T00:31:34.000+02:00</time>
      </trkpt>
      <trkpt lat="42.91164" lon="-3.45934">
        <ele>613</ele>
        <time>2023-06-15T00:31:42.000+02:00</time>
      </trkpt>
      <trkpt lat="42.91156" lon="-3.45948">
        <ele>612.5</ele>
        <time>2023-06-15T00:31:44.000+02:00</time>
      </trkpt>
      <trkpt lat="42.91145" lon="-3.4596">
        <ele>612</ele>
        <time>2023-06-15T00:31:46.000+02:00</time>
      </trkpt>
      <trkpt lat="42.9114" lon="-3.45967">
        <ele>611.8</ele>
        <time>2023-06-15T00:31:47.000+02:00</time>
      </trkpt>
      <trkpt lat="42.91137" lon="-3.45977">
        <ele>611.3</ele>
        <time>2023-06-15T00:31:49.000+02:00</time>
      </trkpt>
      <trkpt lat="42.91134" lon="-3.46005">
        <ele>610.3</ele>
        <time>2023-06-15T00:31:52.000+02:00</time>
      </trkpt>
      <trkpt lat="42.91134" lon="-3.46015">
        <ele>610</ele>
        <time>2023-06-15T00:31:53.000+02:00</time>
      </trkpt>
      <trkpt lat="42.91139" lon="-3.46034">
        <ele>610</ele>
        <time>2023-06-15T00:31:55.000+02:00</time>
      </trkpt>
      <trkpt lat="42.9114" lon="-3.46048">
        <ele>609.8</ele>
        <time>2023-06-15T00:31:57.000+02:00</time>
      </trkpt>
      <trkpt lat="42.91139" lon="-3.46064">
        <ele>609.8</ele>
        <time>2023-06-15T00:31:58.000+02:00</time>
      </trkpt>
      <trkpt lat="42.91138" lon="-3.46074">
        <ele>609.5</ele>
        <time>2023-06-15T00:32:00.000+02:00</time>
      </trkpt>
      <trkpt lat="42.91133" lon="-3.46088">
        <ele>609.5</ele>
        <time>2023-06-15T00:32:01.000+02:00</time>
      </trkpt>
      <trkpt lat="42.91116" lon="-3.46145">
        <ele>609.8</ele>
        <time>2023-06-15T00:32:08.000+02:00</time>
      </trkpt>
      <trkpt lat="42.91097" lon="-3.46222">
        <ele>609.5</ele>
        <time>2023-06-15T00:32:17.000+02:00</time>
      </trkpt>
      <trkpt lat="42.91091" lon="-3.46239">
        <ele>609.3</ele>
        <time>2023-06-15T00:32:19.000+02:00</time>
      </trkpt>
      <trkpt lat="42.91064" lon="-3.46292">
        <ele>607.8</ele>
        <time>2023-06-15T00:32:27.000+02:00</time>
      </trkpt>
      <trkpt lat="42.91026" lon="-3.46309">
        <ele>606.8</ele>
        <time>2023-06-15T00:32:33.000+02:00</time>
      </trkpt>
      <trkpt lat="42.90994" lon="-3.46334">
        <ele>606.5</ele>
        <time>2023-06-15T00:32:38.000+02:00</time>
      </trkpt>
      <trkpt lat="42.90978" lon="-3.46344">
        <ele>605.8</ele>
        <time>2023-06-15T00:32:41.000+02:00</time>
      </trkpt>
      <trkpt lat="42.90951" lon="-3.46347">
        <ele>604.5</ele>
        <time>2023-06-15T00:32:45.000+02:00</time>
      </trkpt>
      <trkpt lat="42.90961" lon="-3.46371">
        <ele>605</ele>
        <time>2023-06-15T00:32:48.000+02:00</time>
      </trkpt>
      <trkpt lat="42.90945" lon="-3.46392">
        <ele>604.8</ele>
        <time>2023-06-15T00:32:52.000+02:00</time>
      </trkpt>
      <trkpt lat="42.90927" lon="-3.46424">
        <ele>604.5</ele>
        <time>2023-06-15T00:32:56.000+02:00</time>
      </trkpt>
      <trkpt lat="42.90908" lon="-3.46448">
        <ele>602.8</ele>
        <time>2023-06-15T00:33:00.000+02:00</time>
      </trkpt>
      <trkpt lat="42.90903" lon="-3.46464">
        <ele>602</ele>
        <time>2023-06-15T00:33:02.000+02:00</time>
      </trkpt>
      <trkpt lat="42.90902" lon="-3.46482">
        <ele>601.3</ele>
        <time>2023-06-15T00:33:04.000+02:00</time>
      </trkpt>
      <trkpt lat="42.90906" lon="-3.46518">
        <ele>599.5</ele>
        <time>2023-06-15T00:33:08.000+02:00</time>
      </trkpt>
      <trkpt lat="42.90928" lon="-3.46577">
        <ele>596.5</ele>
        <time>2023-06-15T00:33:16.000+02:00</time>
      </trkpt>
      <trkpt lat="42.90937" lon="-3.46598">
        <ele>595.8</ele>
        <time>2023-06-15T00:33:18.000+02:00</time>
      </trkpt>
      <trkpt lat="42.90955" lon="-3.46628">
        <ele>595.3</ele>
        <time>2023-06-15T00:33:23.000+02:00</time>
      </trkpt>
      <trkpt lat="42.90982" lon="-3.46661">
        <ele>594.8</ele>
        <time>2023-06-15T00:33:28.000+02:00</time>
      </trkpt>
      <trkpt lat="42.90997" lon="-3.46676">
        <ele>594.8</ele>
        <time>2023-06-15T00:33:31.000+02:00</time>
      </trkpt>
      <trkpt lat="42.91001" lon="-3.46687">
        <ele>595</ele>
        <time>2023-06-15T00:33:32.000+02:00</time>
      </trkpt>
      <trkpt lat="42.91002" lon="-3.4671">
        <ele>595</ele>
        <time>2023-06-15T00:33:35.000+02:00</time>
      </trkpt>
      <trkpt lat="42.91" lon="-3.46735">
        <ele>594.8</ele>
        <time>2023-06-15T00:33:38.000+02:00</time>
      </trkpt>
      <trkpt lat="42.90996" lon="-3.46755">
        <ele>594.8</ele>
        <time>2023-06-15T00:33:40.000+02:00</time>
      </trkpt>
      <trkpt lat="42.90979" lon="-3.4677">
        <ele>594</ele>
        <time>2023-06-15T00:33:43.000+02:00</time>
      </trkpt>
      <trkpt lat="42.90948" lon="-3.4678">
        <ele>593</ele>
        <time>2023-06-15T00:33:48.000+02:00</time>
      </trkpt>
      <trkpt lat="42.90945" lon="-3.46788">
        <ele>592.8</ele>
        <time>2023-06-15T00:33:49.000+02:00</time>
      </trkpt>
      <trkpt lat="42.90944" lon="-3.46796">
        <ele>592.5</ele>
        <time>2023-06-15T00:33:50.000+02:00</time>
      </trkpt>
      <trkpt lat="42.90946" lon="-3.46815">
        <ele>592.3</ele>
        <time>2023-06-15T00:33:52.000+02:00</time>
      </trkpt>
      <trkpt lat="42.90948" lon="-3.46846">
        <ele>591.5</ele>
        <time>2023-06-15T00:33:56.000+02:00</time>
      </trkpt>
      <trkpt lat="42.90947" lon="-3.46862">
        <ele>591</ele>
        <time>2023-06-15T00:33:57.000+02:00</time>
      </trkpt>
      <trkpt lat="42.90939" lon="-3.4688">
        <ele>590.3</ele>
        <time>2023-06-15T00:34:00.000+02:00</time>
      </trkpt>
      <trkpt lat="42.90921" lon="-3.46911">
        <ele>589</ele>
        <time>2023-06-15T00:34:04.000+02:00</time>
      </trkpt>
      <trkpt lat="42.90908" lon="-3.46942">
        <ele>587.5</ele>
        <time>2023-06-15T00:34:08.000+02:00</time>
      </trkpt>
      <trkpt lat="42.90904" lon="-3.46958">
        <ele>586.8</ele>
        <time>2023-06-15T00:34:10.000+02:00</time>
      </trkpt>
      <trkpt lat="42.90895" lon="-3.46973">
        <ele>585.8</ele>
        <time>2023-06-15T00:34:12.000+02:00</time>
      </trkpt>
      <trkpt lat="42.90884" lon="-3.46982">
        <ele>585.3</ele>
        <time>2023-06-15T00:34:14.000+02:00</time>
      </trkpt>
      <trkpt lat="42.90876" lon="-3.47008">
        <ele>584.3</ele>
        <time>2023-06-15T00:34:17.000+02:00</time>
      </trkpt>
      <trkpt lat="42.90873" lon="-3.47032">
        <ele>583.5</ele>
        <time>2023-06-15T00:34:20.000+02:00</time>
      </trkpt>
      <trkpt lat="42.90871" lon="-3.47048">
        <ele>583</ele>
        <time>2023-06-15T00:34:22.000+02:00</time>
      </trkpt>
      <trkpt lat="42.90873" lon="-3.47076">
        <ele>582</ele>
        <time>2023-06-15T00:34:25.000+02:00</time>
      </trkpt>
      <trkpt lat="42.90881" lon="-3.47114">
        <ele>581.3</ele>
        <time>2023-06-15T00:34:29.000+02:00</time>
      </trkpt>
      <trkpt lat="42.90889" lon="-3.47141">
        <ele>580.8</ele>
        <time>2023-06-15T00:34:33.000+02:00</time>
      </trkpt>
      <trkpt lat="42.90893" lon="-3.47159">
        <ele>580.5</ele>
        <time>2023-06-15T00:34:35.000+02:00</time>
      </trkpt>
      <trkpt lat="42.90897" lon="-3.47188">
        <ele>580</ele>
        <time>2023-06-15T00:34:38.000+02:00</time>
      </trkpt>
      <trkpt lat="42.90903" lon="-3.47222">
        <ele>579.3</ele>
        <time>2023-06-15T00:34:42.000+02:00</time>
      </trkpt>
      <trkpt lat="42.90915" lon="-3.47271">
        <ele>578.3</ele>
        <time>2023-06-15T00:34:48.000+02:00</time>
      </trkpt>
      <trkpt lat="42.90918" lon="-3.47313">
        <ele>577.3</ele>
        <time>2023-06-15T00:34:53.000+02:00</time>
      </trkpt>
      <trkpt lat="42.90925" lon="-3.47328">
        <ele>577</ele>
        <time>2023-06-15T00:34:55.000+02:00</time>
      </trkpt>
      <trkpt lat="42.90944" lon="-3.4735">
        <ele>576.5</ele>
        <time>2023-06-15T00:34:58.000+02:00</time>
      </trkpt>
      <trkpt lat="42.9096" lon="-3.47367">
        <ele>576</ele>
        <time>2023-06-15T00:35:01.000+02:00</time>
      </trkpt>
      <trkpt lat="42.9098" lon="-3.47393">
        <ele>575.5</ele>
        <time>2023-06-15T00:35:06.000+02:00</time>
      </trkpt>
      <trkpt lat="42.90984" lon="-3.47401">
        <ele>575.3</ele>
        <time>2023-06-15T00:35:07.000+02:00</time>
      </trkpt>
      <trkpt lat="42.90985" lon="-3.47414">
        <ele>575</ele>
        <time>2023-06-15T00:35:08.000+02:00</time>
      </trkpt>
      <trkpt lat="42.9098" lon="-3.47429">
        <ele>574.5</ele>
        <time>2023-06-15T00:35:10.000+02:00</time>
      </trkpt>
      <trkpt lat="42.9098" lon="-3.47446">
        <ele>574.3</ele>
        <time>2023-06-15T00:35:12.000+02:00</time>
      </trkpt>
      <trkpt lat="42.90987" lon="-3.47474">
        <ele>573.5</ele>
        <time>2023-06-15T00:35:15.000+02:00</time>
      </trkpt>
      <trkpt lat="42.90987" lon="-3.47488">
        <ele>573.3</ele>
        <time>2023-06-15T00:35:17.000+02:00</time>
      </trkpt>
      <trkpt lat="42.90986" lon="-3.47521">
        <ele>572.5</ele>
        <time>2023-06-15T00:35:21.000+02:00</time>
      </trkpt>
      <trkpt lat="42.90989" lon="-3.47554">
        <ele>572.3</ele>
        <time>2023-06-15T00:35:24.000+02:00</time>
      </trkpt>
      <trkpt lat="42.9099" lon="-3.47591">
        <ele>571.8</ele>
        <time>2023-06-15T00:35:28.000+02:00</time>
      </trkpt>
      <trkpt lat="42.90988" lon="-3.47617">
        <ele>571.3</ele>
        <time>2023-06-15T00:35:31.000+02:00</time>
      </trkpt>
      <trkpt lat="42.90989" lon="-3.4764">
        <ele>571</ele>
        <time>2023-06-15T00:35:34.000+02:00</time>
      </trkpt>
      <trkpt lat="42.90993" lon="-3.47667">
        <ele>570.8</ele>
        <time>2023-06-15T00:35:37.000+02:00</time>
      </trkpt>
      <trkpt lat="42.91001" lon="-3.47694">
        <ele>570.3</ele>
        <time>2023-06-15T00:35:40.000+02:00</time>
      </trkpt>
      <trkpt lat="42.91038" lon="-3.4777">
        <ele>569</ele>
        <time>2023-06-15T00:35:50.000+02:00</time>
      </trkpt>
      <trkpt lat="42.91039" lon="-3.47779">
        <ele>569</ele>
        <time>2023-06-15T00:35:51.000+02:00</time>
      </trkpt>
      <trkpt lat="42.9104" lon="-3.47787">
        <ele>569</ele>
        <time>2023-06-15T00:35:52.000+02:00</time>
      </trkpt>
      <trkpt lat="42.91041" lon="-3.47799">
        <ele>569.3</ele>
        <time>2023-06-15T00:35:54.000+02:00</time>
      </trkpt>
      <trkpt lat="42.91042" lon="-3.4784">
        <ele>569.5</ele>
        <time>2023-06-15T00:35:58.000+02:00</time>
      </trkpt>
      <trkpt lat="42.91044" lon="-3.47846">
        <ele>569.5</ele>
        <time>2023-06-15T00:35:59.000+02:00</time>
      </trkpt>
      <trkpt lat="42.91044" lon="-3.47846">
        <ele>569.5</ele>
        <time>2023-06-15T00:35:59.000+02:00</time>
      </trkpt>
      <trkpt lat="42.90967" lon="-3.47891">
        <ele>571</ele>
        <time>2023-06-15T00:36:12.000+02:00</time>
      </trkpt>
      <trkpt lat="42.90846" lon="-3.47893">
        <ele>571</ele>
        <time>2023-06-15T00:36:30.000+02:00</time>
      </trkpt>
      <trkpt lat="42.90836" lon="-3.48005">
        <ele>571.2</ele>
        <time>2023-06-15T00:36:43.000+02:00</time>
      </trkpt>
      <trkpt lat="42.90874" lon="-3.48097">
        <ele>570</ele>
        <time>2023-06-15T00:36:55.000+02:00</time>
      </trkpt>
      <trkpt lat="42.90676" lon="-3.48448">
        <ele>568.9</ele>
        <time>2023-06-15T00:37:44.000+02:00</time>
      </trkpt>
      <trkpt lat="42.90568" lon="-3.48469">
        <ele>569</ele>
        <time>2023-06-15T00:38:01.000+02:00</time>
      </trkpt>
      <trkpt lat="42.90516" lon="-3.48379">
        <ele>568</ele>
        <time>2023-06-15T00:38:14.000+02:00</time>
      </trkpt>
      <trkpt lat="42.9053" lon="-3.48291">
        <ele>569.1</ele>
        <time>2023-06-15T00:38:24.000+02:00</time>
      </trkpt>
      <trkpt lat="42.90361" lon="-3.48079">
        <ele>570.8</ele>
        <time>2023-06-15T00:38:59.000+02:00</time>
      </trkpt>
      <trkpt lat="42.9031" lon="-3.48129">
        <ele>568.1</ele>
        <time>2023-06-15T00:39:09.000+02:00</time>
      </trkpt>
      <trkpt lat="42.90185" lon="-3.4817">
        <ele>566.9</ele>
        <time>2023-06-15T00:39:29.000+02:00</time>
      </trkpt>
      <trkpt lat="42.90139" lon="-3.48249">
        <ele>567</ele>
        <time>2023-06-15T00:39:40.000+02:00</time>
      </trkpt>
      <trkpt lat="42.90105" lon="-3.48207">
        <ele>566.6</ele>
        <time>2023-06-15T00:39:47.000+02:00</time>
      </trkpt>
      <trkpt lat="42.90036" lon="-3.48198">
        <ele>566.9</ele>
        <time>2023-06-15T00:39:57.000+02:00</time>
      </trkpt>
      <trkpt lat="42.89868" lon="-3.47977">
        <ele>567.2</ele>
        <time>2023-06-15T00:40:33.000+02:00</time>
      </trkpt>
      <trkpt lat="42.89652" lon="-3.48276">
        <ele>564.5</ele>
        <time>2023-06-15T00:41:20.000+02:00</time>
      </trkpt>
      <trkpt lat="42.89661" lon="-3.49207">
        <ele>567.1</ele>
        <time>2023-06-15T00:43:04.000+02:00</time>
      </trkpt>
      <trkpt lat="42.89692" lon="-3.49398">
        <ele>567.8</ele>
        <time>2023-06-15T00:43:26.000+02:00</time>
      </trkpt>
      <trkpt lat="42.8976" lon="-3.49603">
        <ele>568.3</ele>
        <time>2023-06-15T00:43:52.000+02:00</time>
      </trkpt>
      <trkpt lat="42.89744" lon="-3.49623">
        <ele>567.7</ele>
        <time>2023-06-15T00:43:55.000+02:00</time>
      </trkpt>
      <trkpt lat="42.89701" lon="-3.49582">
        <ele>567</ele>
        <time>2023-06-15T00:44:03.000+02:00</time>
      </trkpt>
      <trkpt lat="42.89658" lon="-3.49586">
        <ele>566</ele>
        <time>2023-06-15T00:44:09.000+02:00</time>
      </trkpt>
      <trkpt lat="42.89338" lon="-3.49837">
        <ele>570.8</ele>
        <time>2023-06-15T00:45:06.000+02:00</time>
      </trkpt>
      <trkpt lat="42.89268" lon="-3.4985">
        <ele>573.7</ele>
        <time>2023-06-15T00:45:17.000+02:00</time>
      </trkpt>
      <trkpt lat="42.89274" lon="-3.49866">
        <ele>574.7</ele>
        <time>2023-06-15T00:45:19.000+02:00</time>
      </trkpt>
      <trkpt lat="42.89413" lon="-3.49999">
        <ele>586.1</ele>
        <time>2023-06-15T00:45:45.000+02:00</time>
      </trkpt>
      <trkpt lat="42.89792" lon="-3.50167">
        <ele>582</ele>
        <time>2023-06-15T00:46:46.000+02:00</time>
      </trkpt>
      <trkpt lat="42.89955" lon="-3.50355">
        <ele>576.7</ele>
        <time>2023-06-15T00:47:18.000+02:00</time>
      </trkpt>
      <trkpt lat="42.901" lon="-3.50448">
        <ele>572.8</ele>
        <time>2023-06-15T00:47:43.000+02:00</time>
      </trkpt>
      <trkpt lat="42.90148" lon="-3.50577">
        <ele>569.8</ele>
        <time>2023-06-15T00:47:59.000+02:00</time>
      </trkpt>
      <trkpt lat="42.90296" lon="-3.50786">
        <ele>571</ele>
        <time>2023-06-15T00:48:31.000+02:00</time>
      </trkpt>
      <trkpt lat="42.90509" lon="-3.5123">
        <ele>583.8</ele>
        <time>2023-06-15T00:49:31.000+02:00</time>
      </trkpt>
      <trkpt lat="42.90496" lon="-3.51339">
        <ele>592</ele>
        <time>2023-06-15T00:49:43.000+02:00</time>
      </trkpt>
      <trkpt lat="42.90366" lon="-3.51343">
        <ele>600.1</ele>
        <time>2023-06-15T00:50:03.000+02:00</time>
      </trkpt>
      <trkpt lat="42.90363" lon="-3.51394">
        <ele>596.1</ele>
        <time>2023-06-15T00:50:09.000+02:00</time>
      </trkpt>
      <trkpt lat="42.90319" lon="-3.51428">
        <ele>596.4</ele>
        <time>2023-06-15T00:50:17.000+02:00</time>
      </trkpt>
      <trkpt lat="42.90314" lon="-3.51489">
        <ele>594.1</ele>
        <time>2023-06-15T00:50:24.000+02:00</time>
      </trkpt>
      <trkpt lat="42.90655" lon="-3.5157">
        <ele>577.7</ele>
        <time>2023-06-15T00:51:16.000+02:00</time>
      </trkpt>
      <trkpt lat="42.90686" lon="-3.51618">
        <ele>581.7</ele>
        <time>2023-06-15T00:51:23.000+02:00</time>
      </trkpt>
      <trkpt lat="42.90759" lon="-3.51656">
        <ele>579.9</ele>
        <time>2023-06-15T00:51:35.000+02:00</time>
      </trkpt>
      <trkpt lat="42.90801" lon="-3.51763">
        <ele>578.5</ele>
        <time>2023-06-15T00:51:49.000+02:00</time>
      </trkpt>
      <trkpt lat="42.91024" lon="-3.51835">
        <ele>574.2</ele>
        <time>2023-06-15T00:52:24.000+02:00</time>
      </trkpt>
      <trkpt lat="42.91102" lon="-3.51906">
        <ele>573.6</ele>
        <time>2023-06-15T00:52:38.000+02:00</time>
      </trkpt>
      <trkpt lat="42.9131" lon="-3.52164">
        <ele>573</ele>
        <time>2023-06-15T00:53:21.000+02:00</time>
      </trkpt>
      <trkpt lat="42.91308" lon="-3.52298">
        <ele>574.6</ele>
        <time>2023-06-15T00:53:36.000+02:00</time>
      </trkpt>
      <trkpt lat="42.9145" lon="-3.52284">
        <ele>573.2</ele>
        <time>2023-06-15T00:53:58.000+02:00</time>
      </trkpt>
      <trkpt lat="42.91551" lon="-3.5232">
        <ele>574</ele>
        <time>2023-06-15T00:54:14.000+02:00</time>
      </trkpt>
      <trkpt lat="42.91503" lon="-3.52372">
        <ele>574</ele>
        <time>2023-06-15T00:54:23.000+02:00</time>
      </trkpt>
      <trkpt lat="42.91378" lon="-3.52641">
        <ele>579.3</ele>
        <time>2023-06-15T00:54:59.000+02:00</time>
      </trkpt>
      <trkpt lat="42.91358" lon="-3.52794">
        <ele>582.1</ele>
        <time>2023-06-15T00:55:16.000+02:00</time>
      </trkpt>
      <trkpt lat="42.91414" lon="-3.5287">
        <ele>584.6</ele>
        <time>2023-06-15T00:55:28.000+02:00</time>
      </trkpt>
      <trkpt lat="42.91496" lon="-3.52925">
        <ele>585.9</ele>
        <time>2023-06-15T00:55:42.000+02:00</time>
      </trkpt>
      <trkpt lat="42.9171" lon="-3.52988">
        <ele>589.7</ele>
        <time>2023-06-15T00:56:16.000+02:00</time>
      </trkpt>
      <trkpt lat="42.91633" lon="-3.53292">
        <ele>602.3</ele>
        <time>2023-06-15T00:56:52.000+02:00</time>
      </trkpt>
      <trkpt lat="42.9159" lon="-3.53358">
        <ele>610.7</ele>
        <time>2023-06-15T00:57:02.000+02:00</time>
      </trkpt>
      <trkpt lat="42.91646" lon="-3.53561">
        <ele>612</ele>
        <time>2023-06-15T00:57:26.000+02:00</time>
      </trkpt>
      <trkpt lat="42.91622" lon="-3.53638">
        <ele>611</ele>
        <time>2023-06-15T00:57:35.000+02:00</time>
      </trkpt>
      <trkpt lat="42.91567" lon="-3.5368">
        <ele>610.7</ele>
        <time>2023-06-15T00:57:45.000+02:00</time>
      </trkpt>
      <trkpt lat="42.91607" lon="-3.53759">
        <ele>608.5</ele>
        <time>2023-06-15T00:57:56.000+02:00</time>
      </trkpt>
      <trkpt lat="42.91482" lon="-3.53638">
        <ele>598.4</ele>
        <time>2023-06-15T00:58:19.000+02:00</time>
      </trkpt>
      <trkpt lat="42.91456" lon="-3.53678">
        <ele>596.9</ele>
        <time>2023-06-15T00:58:25.000+02:00</time>
      </trkpt>
      <trkpt lat="42.91422" lon="-3.53654">
        <ele>594.3</ele>
        <time>2023-06-15T00:58:31.000+02:00</time>
      </trkpt>
      <trkpt lat="42.91181" lon="-3.5394">
        <ele>600.5</ele>
        <time>2023-06-15T00:59:20.000+02:00</time>
      </trkpt>
      <trkpt lat="42.91184" lon="-3.54006">
        <ele>601.5</ele>
        <time>2023-06-15T00:59:27.000+02:00</time>
      </trkpt>
      <trkpt lat="42.91013" lon="-3.54328">
        <ele>615.7</ele>
        <time>2023-06-15T01:00:12.000+02:00</time>
      </trkpt>
      <trkpt lat="42.90967" lon="-3.54517">
        <ele>616.8</ele>
        <time>2023-06-15T01:00:34.000+02:00</time>
      </trkpt>
      <trkpt lat="42.90895" lon="-3.54689">
        <ele>614.7</ele>
        <time>2023-06-15T01:00:56.000+02:00</time>
      </trkpt>
      <trkpt lat="42.90828" lon="-3.54925">
        <ele>613</ele>
        <time>2023-06-15T01:01:25.000+02:00</time>
      </trkpt>
      <trkpt lat="42.90811" lon="-3.5509">
        <ele>613.6</ele>
        <time>2023-06-15T01:01:43.000+02:00</time>
      </trkpt>
      <trkpt lat="42.9073" lon="-3.55444">
        <ele>616.3</ele>
        <time>2023-06-15T01:02:25.000+02:00</time>
      </trkpt>
      <trkpt lat="42.9049" lon="-3.56148">
        <ele>621.2</ele>
        <time>2023-06-15T01:03:52.000+02:00</time>
      </trkpt>
      <trkpt lat="42.90167" lon="-3.5636">
        <ele>626</ele>
        <time>2023-06-15T01:04:46.000+02:00</time>
      </trkpt>
      <trkpt lat="42.89856" lon="-3.56665">
        <ele>630</ele>
        <time>2023-06-15T01:05:45.000+02:00</time>
      </trkpt>
      <trkpt lat="42.89509" lon="-3.56872">
        <ele>639.2</ele>
        <time>2023-06-15T01:06:43.000+02:00</time>
      </trkpt>
      <trkpt lat="42.89437" lon="-3.57077">
        <ele>658.6</ele>
        <time>2023-06-15T01:07:08.000+02:00</time>
      </trkpt>
      <trkpt lat="42.89395" lon="-3.57068">
        <ele>659.6</ele>
        <time>2023-06-15T01:07:15.000+02:00</time>
      </trkpt>
      <trkpt lat="42.89401" lon="-3.5713">
        <ele>662.9</ele>
        <time>2023-06-15T01:07:22.000+02:00</time>
      </trkpt>
      <trkpt lat="42.89314" lon="-3.57176">
        <ele>669.1</ele>
        <time>2023-06-15T01:07:36.000+02:00</time>
      </trkpt>
      <trkpt lat="42.89073" lon="-3.57523">
        <ele>693.8</ele>
        <time>2023-06-15T01:08:30.000+02:00</time>
      </trkpt>
      <trkpt lat="42.88892" lon="-3.58034">
        <ele>709.2</ele>
        <time>2023-06-15T01:09:33.000+02:00</time>
      </trkpt>
      <trkpt lat="42.8885" lon="-3.58338">
        <ele>705.3</ele>
        <time>2023-06-15T01:10:08.000+02:00</time>
      </trkpt>
      <trkpt lat="42.88787" lon="-3.58394">
        <ele>700.6</ele>
        <time>2023-06-15T01:10:19.000+02:00</time>
      </trkpt>
      <trkpt lat="42.88899" lon="-3.58588">
        <ele>686.7</ele>
        <time>2023-06-15T01:10:47.000+02:00</time>
      </trkpt>
      <trkpt lat="42.88971" lon="-3.5879">
        <ele>672.9</ele>
        <time>2023-06-15T01:11:12.000+02:00</time>
      </trkpt>
      <trkpt lat="42.88995" lon="-3.58803">
        <ele>670.4</ele>
        <time>2023-06-15T01:11:16.000+02:00</time>
      </trkpt>
      <trkpt lat="42.89012" lon="-3.58756">
        <ele>673</ele>
        <time>2023-06-15T01:11:22.000+02:00</time>
      </trkpt>
      <trkpt lat="42.89035" lon="-3.58752">
        <ele>668.9</ele>
        <time>2023-06-15T01:11:25.000+02:00</time>
      </trkpt>
      <trkpt lat="42.8908" lon="-3.58979">
        <ele>653.3</ele>
        <time>2023-06-15T01:11:52.000+02:00</time>
      </trkpt>
      <trkpt lat="42.89293" lon="-3.59339">
        <ele>626.9</ele>
        <time>2023-06-15T01:12:43.000+02:00</time>
      </trkpt>
      <trkpt lat="42.88315" lon="-3.59822">
        <ele>591.8</ele>
        <time>2023-06-15T01:15:22.000+02:00</time>
      </trkpt>
      <trkpt lat="42.88118" lon="-3.59788">
        <ele>596.3</ele>
        <time>2023-06-15T01:15:53.000+02:00</time>
      </trkpt>
      <trkpt lat="42.88059" lon="-3.59845">
        <ele>599.2</ele>
        <time>2023-06-15T01:16:04.000+02:00</time>
      </trkpt>
      <trkpt lat="42.88041" lon="-3.59919">
        <ele>599.7</ele>
        <time>2023-06-15T01:16:12.000+02:00</time>
      </trkpt>
      <trkpt lat="42.88017" lon="-3.59932">
        <ele>601.1</ele>
        <time>2023-06-15T01:16:16.000+02:00</time>
      </trkpt>
      <trkpt lat="42.87949" lon="-3.59896">
        <ele>603.3</ele>
        <time>2023-06-15T01:16:28.000+02:00</time>
      </trkpt>
      <trkpt lat="42.87799" lon="-3.59659">
        <ele>590.2</ele>
        <time>2023-06-15T01:17:03.000+02:00</time>
      </trkpt>
      <trkpt lat="42.87637" lon="-3.59585">
        <ele>589.8</ele>
        <time>2023-06-15T01:17:29.000+02:00</time>
      </trkpt>
      <trkpt lat="42.87177" lon="-3.59586">
        <ele>593.6</ele>
        <time>2023-06-15T01:18:39.000+02:00</time>
      </trkpt>
      <trkpt lat="42.87042" lon="-3.59481">
        <ele>593</ele>
        <time>2023-06-15T01:19:03.000+02:00</time>
      </trkpt>
      <trkpt lat="42.86849" lon="-3.59247">
        <ele>591.2</ele>
        <time>2023-06-15T01:19:42.000+02:00</time>
      </trkpt>
      <trkpt lat="42.86717" lon="-3.59181">
        <ele>592.9</ele>
        <time>2023-06-15T01:20:04.000+02:00</time>
      </trkpt>
      <trkpt lat="42.86347" lon="-3.59244">
        <ele>587.7</ele>
        <time>2023-06-15T01:21:01.000+02:00</time>
      </trkpt>
      <trkpt lat="42.86149" lon="-3.59228">
        <ele>583.5</ele>
        <time>2023-06-15T01:21:31.000+02:00</time>
      </trkpt>
      <trkpt lat="42.85942" lon="-3.59155">
        <ele>587</ele>
        <time>2023-06-15T01:22:04.000+02:00</time>
      </trkpt>
      <trkpt lat="42.85917" lon="-3.59269">
        <ele>587.1</ele>
        <time>2023-06-15T01:22:17.000+02:00</time>
      </trkpt>
      <trkpt lat="42.85705" lon="-3.59263">
        <ele>585.4</ele>
        <time>2023-06-15T01:22:49.000+02:00</time>
      </trkpt>
      <trkpt lat="42.85594" lon="-3.59442">
        <ele>583.2</ele>
        <time>2023-06-15T01:23:15.000+02:00</time>
      </trkpt>
      <trkpt lat="42.8546" lon="-3.5956">
        <ele>582.1</ele>
        <time>2023-06-15T01:23:40.000+02:00</time>
      </trkpt>
      <trkpt lat="42.85332" lon="-3.59606">
        <ele>584.1</ele>
        <time>2023-06-15T01:24:00.000+02:00</time>
      </trkpt>
      <trkpt lat="42.85119" lon="-3.60276">
        <ele>614.8</ele>
        <time>2023-06-15T01:25:22.000+02:00</time>
      </trkpt>
      <trkpt lat="42.85052" lon="-3.60399">
        <ele>620.4</ele>
        <time>2023-06-15T01:25:39.000+02:00</time>
      </trkpt>
      <trkpt lat="42.84428" lon="-3.60639">
        <ele>643.7</ele>
        <time>2023-06-15T01:27:18.000+02:00</time>
      </trkpt>
      <trkpt lat="42.84306" lon="-3.60864">
        <ele>666.6</ele>
        <time>2023-06-15T01:27:49.000+02:00</time>
      </trkpt>
      <trkpt lat="42.84138" lon="-3.61042">
        <ele>690.7</ele>
        <time>2023-06-15T01:28:22.000+02:00</time>
      </trkpt>
      <trkpt lat="42.84106" lon="-3.61021">
        <ele>692.6</ele>
        <time>2023-06-15T01:28:27.000+02:00</time>
      </trkpt>
      <trkpt lat="42.84108" lon="-3.60915">
        <ele>699.7</ele>
        <time>2023-06-15T01:28:39.000+02:00</time>
      </trkpt>
      <trkpt lat="42.84078" lon="-3.60891">
        <ele>703.5</ele>
        <time>2023-06-15T01:28:45.000+02:00</time>
      </trkpt>
      <trkpt lat="42.83987" lon="-3.60966">
        <ele>716.4</ele>
        <time>2023-06-15T01:29:01.000+02:00</time>
      </trkpt>
      <trkpt lat="42.83887" lon="-3.6098">
        <ele>726.6</ele>
        <time>2023-06-15T01:29:16.000+02:00</time>
      </trkpt>
      <trkpt lat="42.83899" lon="-3.61026">
        <ele>732.3</ele>
        <time>2023-06-15T01:29:22.000+02:00</time>
      </trkpt>
      <trkpt lat="42.83992" lon="-3.61048">
        <ele>736.2</ele>
        <time>2023-06-15T01:29:36.000+02:00</time>
      </trkpt>
      <trkpt lat="42.83988" lon="-3.61105">
        <ele>739.2</ele>
        <time>2023-06-15T01:29:43.000+02:00</time>
      </trkpt>
      <trkpt lat="42.83881" lon="-3.61069">
        <ele>747.1</ele>
        <time>2023-06-15T01:29:59.000+02:00</time>
      </trkpt>
      <trkpt lat="42.83817" lon="-3.61156">
        <ele>756.3</ele>
        <time>2023-06-15T01:30:13.000+02:00</time>
      </trkpt>
      <trkpt lat="42.83763" lon="-3.61171">
        <ele>762.1</ele>
        <time>2023-06-15T01:30:22.000+02:00</time>
      </trkpt>
      <trkpt lat="42.83601" lon="-3.61108">
        <ele>777.1</ele>
        <time>2023-06-15T01:30:47.000+02:00</time>
      </trkpt>
      <trkpt lat="42.83586" lon="-3.61166">
        <ele>780</ele>
        <time>2023-06-15T01:30:54.000+02:00</time>
      </trkpt>
      <trkpt lat="42.8364" lon="-3.61279">
        <ele>787.8</ele>
        <time>2023-06-15T01:31:09.000+02:00</time>
      </trkpt>
      <trkpt lat="42.83662" lon="-3.61385">
        <ele>792.2</ele>
        <time>2023-06-15T01:31:22.000+02:00</time>
      </trkpt>
      <trkpt lat="42.83566" lon="-3.61485">
        <ele>803.6</ele>
        <time>2023-06-15T01:31:40.000+02:00</time>
      </trkpt>
      <trkpt lat="42.83123" lon="-3.61305">
        <ele>836.2</ele>
        <time>2023-06-15T01:32:51.000+02:00</time>
      </trkpt>
      <trkpt lat="42.82955" lon="-3.61186">
        <ele>850.2</ele>
        <time>2023-06-15T01:33:20.000+02:00</time>
      </trkpt>
      <trkpt lat="42.8285" lon="-3.61073">
        <ele>859.1</ele>
        <time>2023-06-15T01:33:40.000+02:00</time>
      </trkpt>
      <trkpt lat="42.82817" lon="-3.61076">
        <ele>862.3</ele>
        <time>2023-06-15T01:33:45.000+02:00</time>
      </trkpt>
      <trkpt lat="42.82817" lon="-3.61125">
        <ele>867.2</ele>
        <time>2023-06-15T01:33:51.000+02:00</time>
      </trkpt>
      <trkpt lat="42.82866" lon="-3.61161">
        <ele>866.4</ele>
        <time>2023-06-15T01:33:59.000+02:00</time>
      </trkpt>
      <trkpt lat="42.83059" lon="-3.61451">
        <ele>886.9</ele>
        <time>2023-06-15T01:34:43.000+02:00</time>
      </trkpt>
      <trkpt lat="42.83201" lon="-3.6156">
        <ele>898.6</ele>
        <time>2023-06-15T01:35:08.000+02:00</time>
      </trkpt>
      <trkpt lat="42.83169" lon="-3.61601">
        <ele>902.3</ele>
        <time>2023-06-15T01:35:15.000+02:00</time>
      </trkpt>
      <trkpt lat="42.83116" lon="-3.61551">
        <ele>902.8</ele>
        <time>2023-06-15T01:35:25.000+02:00</time>
      </trkpt>
      <trkpt lat="42.83012" lon="-3.61525">
        <ele>910.2</ele>
        <time>2023-06-15T01:35:41.000+02:00</time>
      </trkpt>
      <trkpt lat="42.82759" lon="-3.61394">
        <ele>929.3</ele>
        <time>2023-06-15T01:36:22.000+02:00</time>
      </trkpt>
      <trkpt lat="42.8268" lon="-3.61323">
        <ele>933.8</ele>
        <time>2023-06-15T01:36:37.000+02:00</time>
      </trkpt>
      <trkpt lat="42.82638" lon="-3.61353">
        <ele>938.5</ele>
        <time>2023-06-15T01:36:44.000+02:00</time>
      </trkpt>
      <trkpt lat="42.82723" lon="-3.61537">
        <ele>952</ele>
        <time>2023-06-15T01:37:08.000+02:00</time>
      </trkpt>
      <trkpt lat="42.82848" lon="-3.617">
        <ele>964.1</ele>
        <time>2023-06-15T01:37:35.000+02:00</time>
      </trkpt>
      <trkpt lat="42.83055" lon="-3.61876">
        <ele>979.3</ele>
        <time>2023-06-15T01:38:12.000+02:00</time>
      </trkpt>
      <trkpt lat="42.83071" lon="-3.61977">
        <ele>982.3</ele>
        <time>2023-06-15T01:38:24.000+02:00</time>
      </trkpt>
      <trkpt lat="42.83024" lon="-3.62063">
        <ele>981.1</ele>
        <time>2023-06-15T01:38:36.000+02:00</time>
      </trkpt>
      <trkpt lat="42.82755" lon="-3.6216">
        <ele>986.7</ele>
        <time>2023-06-15T01:39:18.000+02:00</time>
      </trkpt>
      <trkpt lat="42.82416" lon="-3.62182">
        <ele>987.8</ele>
        <time>2023-06-15T01:40:10.000+02:00</time>
      </trkpt>
      <trkpt lat="42.82327" lon="-3.62164">
        <ele>989.7</ele>
        <time>2023-06-15T01:40:24.000+02:00</time>
      </trkpt>
      <trkpt lat="42.82232" lon="-3.62219">
        <ele>993</ele>
        <time>2023-06-15T01:40:39.000+02:00</time>
      </trkpt>
      <trkpt lat="42.8206" lon="-3.62255">
        <ele>996.8</ele>
        <time>2023-06-15T01:41:06.000+02:00</time>
      </trkpt>
      <trkpt lat="42.81931" lon="-3.62217">
        <ele>996.4</ele>
        <time>2023-06-15T01:41:26.000+02:00</time>
      </trkpt>
      <trkpt lat="42.81875" lon="-3.62012">
        <ele>997</ele>
        <time>2023-06-15T01:41:51.000+02:00</time>
      </trkpt>
      <trkpt lat="42.81747" lon="-3.61897">
        <ele>997.4</ele>
        <time>2023-06-15T01:42:14.000+02:00</time>
      </trkpt>
      <trkpt lat="42.81143" lon="-3.61707">
        <ele>986.4</ele>
        <time>2023-06-15T01:43:49.000+02:00</time>
      </trkpt>
      <trkpt lat="42.80307" lon="-3.61543">
        <ele>978</ele>
        <time>2023-06-15T01:45:58.000+02:00</time>
      </trkpt>
      <trkpt lat="42.78896" lon="-3.62128">
        <ele>1000.5</ele>
        <time>2023-06-15T01:49:43.000+02:00</time>
      </trkpt>
      <trkpt lat="42.78367" lon="-3.61936">
        <ele>998.6</ele>
        <time>2023-06-15T01:51:07.000+02:00</time>
      </trkpt>
      <trkpt lat="42.77507" lon="-3.61565">
        <ele>1020</ele>
        <time>2023-06-15T01:53:25.000+02:00</time>
      </trkpt>
      <trkpt lat="42.76517" lon="-3.61642">
        <ele>1020.3</ele>
        <time>2023-06-15T01:55:56.000+02:00</time>
      </trkpt>
      <trkpt lat="42.75541" lon="-3.61345">
        <ele>1043.9</ele>
        <time>2023-06-15T01:58:29.000+02:00</time>
      </trkpt>
      <trkpt lat="42.75368" lon="-3.6132">
        <ele>1048.6</ele>
        <time>2023-06-15T01:58:56.000+02:00</time>
      </trkpt>
      <trkpt lat="42.745" lon="-3.61422">
        <ele>1035.5</ele>
        <time>2023-06-15T02:01:09.000+02:00</time>
      </trkpt>
      <trkpt lat="42.74059" lon="-3.61294">
        <ele>1038.9</ele>
        <time>2023-06-15T02:02:18.000+02:00</time>
      </trkpt>
      <trkpt lat="42.73669" lon="-3.61394">
        <ele>1043.8</ele>
        <time>2023-06-15T02:03:18.000+02:00</time>
      </trkpt>
      <trkpt lat="42.73464" lon="-3.61335">
        <ele>1055.4</ele>
        <time>2023-06-15T02:03:50.000+02:00</time>
      </trkpt>
      <trkpt lat="42.73108" lon="-3.61303">
        <ele>1063</ele>
        <time>2023-06-15T02:04:45.000+02:00</time>
      </trkpt>
      <trkpt lat="42.72835" lon="-3.61354">
        <ele>1053.5</ele>
        <time>2023-06-15T02:05:27.000+02:00</time>
      </trkpt>
      <trkpt lat="42.72636" lon="-3.61278">
        <ele>1033.8</ele>
        <time>2023-06-15T02:05:59.000+02:00</time>
      </trkpt>
      <trkpt lat="42.7239" lon="-3.61368">
        <ele>1023.7</ele>
        <time>2023-06-15T02:06:38.000+02:00</time>
      </trkpt>
      <trkpt lat="42.72018" lon="-3.61376">
        <ele>1041</ele>
        <time>2023-06-15T02:07:34.000+02:00</time>
      </trkpt>
      <trkpt lat="42.72188" lon="-3.61846">
        <ele>1041.7</ele>
        <time>2023-06-15T02:08:33.000+02:00</time>
      </trkpt>
      <trkpt lat="42.72562" lon="-3.62208">
        <ele>1031.8</ele>
        <time>2023-06-15T02:09:43.000+02:00</time>
      </trkpt>
      <trkpt lat="42.72735" lon="-3.62481">
        <ele>1028.9</ele>
        <time>2023-06-15T02:10:24.000+02:00</time>
      </trkpt>
      <trkpt lat="42.72934" lon="-3.62579">
        <ele>1023.7</ele>
        <time>2023-06-15T02:10:56.000+02:00</time>
      </trkpt>
      <trkpt lat="42.73002" lon="-3.62658">
        <ele>1033</ele>
        <time>2023-06-15T02:11:10.000+02:00</time>
      </trkpt>
      <trkpt lat="42.73033" lon="-3.62785">
        <ele>1035.2</ele>
        <time>2023-06-15T02:11:25.000+02:00</time>
      </trkpt>
      <trkpt lat="42.73055" lon="-3.63001">
        <ele>1042.1</ele>
        <time>2023-06-15T02:11:49.000+02:00</time>
      </trkpt>
      <trkpt lat="42.72929" lon="-3.63407">
        <ele>1079.9</ele>
        <time>2023-06-15T02:12:39.000+02:00</time>
      </trkpt>
      <trkpt lat="42.7277" lon="-3.63671">
        <ele>1107.9</ele>
        <time>2023-06-15T02:13:17.000+02:00</time>
      </trkpt>
      <trkpt lat="42.7258" lon="-3.6388">
        <ele>1129.8</ele>
        <time>2023-06-15T02:13:54.000+02:00</time>
      </trkpt>
      <trkpt lat="42.72583" lon="-3.63967">
        <ele>1132</ele>
        <time>2023-06-15T02:14:04.000+02:00</time>
      </trkpt>
      <trkpt lat="42.72699" lon="-3.64283">
        <ele>1123.7</ele>
        <time>2023-06-15T02:14:44.000+02:00</time>
      </trkpt>
      <trkpt lat="42.72671" lon="-3.64345">
        <ele>1121.6</ele>
        <time>2023-06-15T02:14:52.000+02:00</time>
      </trkpt>
      <trkpt lat="42.72565" lon="-3.64476">
        <ele>1112.4</ele>
        <time>2023-06-15T02:15:14.000+02:00</time>
      </trkpt>
      <trkpt lat="42.72468" lon="-3.6469">
        <ele>1092.3</ele>
        <time>2023-06-15T02:15:42.000+02:00</time>
      </trkpt>
      <trkpt lat="42.72347" lon="-3.64763">
        <ele>1084.6</ele>
        <time>2023-06-15T02:16:02.000+02:00</time>
      </trkpt>
      <trkpt lat="42.7222" lon="-3.64774">
        <ele>1072.1</ele>
        <time>2023-06-15T02:16:22.000+02:00</time>
      </trkpt>
      <trkpt lat="42.721" lon="-3.64888">
        <ele>1059.6</ele>
        <time>2023-06-15T02:16:44.000+02:00</time>
      </trkpt>
      <trkpt lat="42.71841" lon="-3.65067">
        <ele>1046.3</ele>
        <time>2023-06-15T02:17:28.000+02:00</time>
      </trkpt>
      <trkpt lat="42.71674" lon="-3.64826">
        <ele>1044.5</ele>
        <time>2023-06-15T02:18:06.000+02:00</time>
      </trkpt>
      <trkpt lat="42.71497" lon="-3.6446">
        <ele>1045.9</ele>
        <time>2023-06-15T02:18:55.000+02:00</time>
      </trkpt>
      <trkpt lat="42.70921" lon="-3.6347">
        <ele>1044.2</ele>
        <time>2023-06-15T02:21:17.000+02:00</time>
      </trkpt>
      <trkpt lat="42.70814" lon="-3.63655">
        <ele>1042</ele>
        <time>2023-06-15T02:21:43.000+02:00</time>
      </trkpt>
      <trkpt lat="42.70594" lon="-3.63833">
        <ele>1034</ele>
        <time>2023-06-15T02:22:22.000+02:00</time>
      </trkpt>
      <trkpt lat="42.70591" lon="-3.63871">
        <ele>1033.7</ele>
        <time>2023-06-15T02:22:26.000+02:00</time>
      </trkpt>
      <trkpt lat="42.7071" lon="-3.64194">
        <ele>1034.3</ele>
        <time>2023-06-15T02:23:07.000+02:00</time>
      </trkpt>
      <trkpt lat="42.70705" lon="-3.64363">
        <ele>1040.6</ele>
        <time>2023-06-15T02:23:26.000+02:00</time>
      </trkpt>
      <trkpt lat="42.70442" lon="-3.64531">
        <ele>1023</ele>
        <time>2023-06-15T02:24:10.000+02:00</time>
      </trkpt>
      <trkpt lat="42.70194" lon="-3.64809">
        <ele>1005.1</ele>
        <time>2023-06-15T02:24:59.000+02:00</time>
      </trkpt>
      <trkpt lat="42.70118" lon="-3.64978">
        <ele>994.4</ele>
        <time>2023-06-15T02:25:22.000+02:00</time>
      </trkpt>
      <trkpt lat="42.69991" lon="-3.65117">
        <ele>982.9</ele>
        <time>2023-06-15T02:25:47.000+02:00</time>
      </trkpt>
      <trkpt lat="42.69973" lon="-3.65215">
        <ele>987.8</ele>
        <time>2023-06-15T02:25:58.000+02:00</time>
      </trkpt>
      <trkpt lat="42.6992" lon="-3.65323">
        <ele>992.1</ele>
        <time>2023-06-15T02:26:12.000+02:00</time>
      </trkpt>
      <trkpt lat="42.69814" lon="-3.65411">
        <ele>996.7</ele>
        <time>2023-06-15T02:26:32.000+02:00</time>
      </trkpt>
      <trkpt lat="42.69666" lon="-3.65966">
        <ele>982.5</ele>
        <time>2023-06-15T02:27:38.000+02:00</time>
      </trkpt>
      <trkpt lat="42.69481" lon="-3.66119">
        <ele>977.1</ele>
        <time>2023-06-15T02:28:11.000+02:00</time>
      </trkpt>
      <trkpt lat="42.69503" lon="-3.66204">
        <ele>969.9</ele>
        <time>2023-06-15T02:28:21.000+02:00</time>
      </trkpt>
      <trkpt lat="42.69481" lon="-3.66285">
        <ele>967.7</ele>
        <time>2023-06-15T02:28:31.000+02:00</time>
      </trkpt>
      <trkpt lat="42.69504" lon="-3.66487">
        <ele>980.2</ele>
        <time>2023-06-15T02:28:54.000+02:00</time>
      </trkpt>
      <trkpt lat="42.69476" lon="-3.66707">
        <ele>990.8</ele>
        <time>2023-06-15T02:29:19.000+02:00</time>
      </trkpt>
      <trkpt lat="42.69508" lon="-3.66728">
        <ele>995.1</ele>
        <time>2023-06-15T02:29:24.000+02:00</time>
      </trkpt>
      <trkpt lat="42.69559" lon="-3.66713">
        <ele>998.6</ele>
        <time>2023-06-15T02:29:32.000+02:00</time>
      </trkpt>
      <trkpt lat="42.69442" lon="-3.67141">
        <ele>1010</ele>
        <time>2023-06-15T02:30:23.000+02:00</time>
      </trkpt>
      <trkpt lat="42.69484" lon="-3.6737">
        <ele>999.2</ele>
        <time>2023-06-15T02:30:50.000+02:00</time>
      </trkpt>
      <trkpt lat="42.69575" lon="-3.67445">
        <ele>991.4</ele>
        <time>2023-06-15T02:31:06.000+02:00</time>
      </trkpt>
      <trkpt lat="42.69593" lon="-3.67493">
        <ele>986.6</ele>
        <time>2023-06-15T02:31:12.000+02:00</time>
      </trkpt>
      <trkpt lat="42.69595" lon="-3.67729">
        <ele>975.3</ele>
        <time>2023-06-15T02:31:39.000+02:00</time>
      </trkpt>
      <trkpt lat="42.69617" lon="-3.67811">
        <ele>972.7</ele>
        <time>2023-06-15T02:31:49.000+02:00</time>
      </trkpt>
      <trkpt lat="42.69548" lon="-3.67924">
        <ele>963.1</ele>
        <time>2023-06-15T02:32:05.000+02:00</time>
      </trkpt>
      <trkpt lat="42.6954" lon="-3.67985">
        <ele>960.8</ele>
        <time>2023-06-15T02:32:12.000+02:00</time>
      </trkpt>
      <trkpt lat="42.69598" lon="-3.68239">
        <ele>942.9</ele>
        <time>2023-06-15T02:32:42.000+02:00</time>
      </trkpt>
      <trkpt lat="42.69643" lon="-3.68285">
        <ele>938.2</ele>
        <time>2023-06-15T02:32:50.000+02:00</time>
      </trkpt>
      <trkpt lat="42.6961" lon="-3.68357">
        <ele>930</ele>
        <time>2023-06-15T02:33:00.000+02:00</time>
      </trkpt>
      <trkpt lat="42.69631" lon="-3.68504">
        <ele>921.2</ele>
        <time>2023-06-15T02:33:17.000+02:00</time>
      </trkpt>
      <trkpt lat="42.69625" lon="-3.68952">
        <ele>894</ele>
        <time>2023-06-15T02:34:07.000+02:00</time>
      </trkpt>
      <trkpt lat="42.69675" lon="-3.69374">
        <ele>869.4</ele>
        <time>2023-06-15T02:34:55.000+02:00</time>
      </trkpt>
      <trkpt lat="42.69657" lon="-3.69524">
        <ele>860.3</ele>
        <time>2023-06-15T02:35:12.000+02:00</time>
      </trkpt>
      <trkpt lat="42.69758" lon="-3.69676">
        <ele>851.5</ele>
        <time>2023-06-15T02:35:35.000+02:00</time>
      </trkpt>
      <trkpt lat="42.70023" lon="-3.69866">
        <ele>829.8</ele>
        <time>2023-06-15T02:36:21.000+02:00</time>
      </trkpt>
      <trkpt lat="42.70044" lon="-3.69918">
        <ele>829.2</ele>
        <time>2023-06-15T02:36:28.000+02:00</time>
      </trkpt>
      <trkpt lat="42.70037" lon="-3.7003">
        <ele>822.4</ele>
        <time>2023-06-15T02:36:40.000+02:00</time>
      </trkpt>
      <trkpt lat="42.70174" lon="-3.70148">
        <ele>812.9</ele>
        <time>2023-06-15T02:37:05.000+02:00</time>
      </trkpt>
      <trkpt lat="42.70251" lon="-3.70177">
        <ele>811.8</ele>
        <time>2023-06-15T02:37:17.000+02:00</time>
      </trkpt>
      <trkpt lat="42.70336" lon="-3.70409">
        <ele>811.3</ele>
        <time>2023-06-15T02:37:46.000+02:00</time>
      </trkpt>
      <trkpt lat="42.70309" lon="-3.70658">
        <ele>805.2</ele>
        <time>2023-06-15T02:38:15.000+02:00</time>
      </trkpt>
      <trkpt lat="42.70194" lon="-3.71077">
        <ele>799.6</ele>
        <time>2023-06-15T02:39:05.000+02:00</time>
      </trkpt>
      <trkpt lat="42.70175" lon="-3.71282">
        <ele>797.8</ele>
        <time>2023-06-15T02:39:28.000+02:00</time>
      </trkpt>
      <trkpt lat="42.7023" lon="-3.7147">
        <ele>798.8</ele>
        <time>2023-06-15T02:39:51.000+02:00</time>
      </trkpt>
      <trkpt lat="42.70338" lon="-3.71652">
        <ele>794.9</ele>
        <time>2023-06-15T02:40:17.000+02:00</time>
      </trkpt>
      <trkpt lat="42.70329" lon="-3.71815">
        <ele>793</ele>
        <time>2023-06-15T02:40:35.000+02:00</time>
      </trkpt>
      <trkpt lat="42.70346" lon="-3.71901">
        <ele>792.6</ele>
        <time>2023-06-15T02:40:45.000+02:00</time>
      </trkpt>
      <trkpt lat="42.70388" lon="-3.71984">
        <ele>792.1</ele>
        <time>2023-06-15T02:40:57.000+02:00</time>
      </trkpt>
      <trkpt lat="42.70466" lon="-3.72045">
        <ele>791.1</ele>
        <time>2023-06-15T02:41:10.000+02:00</time>
      </trkpt>
      <trkpt lat="42.70492" lon="-3.72295">
        <ele>790.3</ele>
        <time>2023-06-15T02:41:39.000+02:00</time>
      </trkpt>
      <trkpt lat="42.70634" lon="-3.72466">
        <ele>788.6</ele>
        <time>2023-06-15T02:42:08.000+02:00</time>
      </trkpt>
      <trkpt lat="42.70729" lon="-3.72814">
        <ele>785.9</ele>
        <time>2023-06-15T02:42:49.000+02:00</time>
      </trkpt>
      <trkpt lat="42.70846" lon="-3.72911">
        <ele>785.7</ele>
        <time>2023-06-15T02:43:10.000+02:00</time>
      </trkpt>
      <trkpt lat="42.70897" lon="-3.73144">
        <ele>781.9</ele>
        <time>2023-06-15T02:43:38.000+02:00</time>
      </trkpt>
      <trkpt lat="42.71008" lon="-3.73433">
        <ele>784.7</ele>
        <time>2023-06-15T02:44:14.000+02:00</time>
      </trkpt>
      <trkpt lat="42.70998" lon="-3.7369">
        <ele>778.2</ele>
        <time>2023-06-15T02:44:43.000+02:00</time>
      </trkpt>
      <trkpt lat="42.71125" lon="-3.73987">
        <ele>772.7</ele>
        <time>2023-06-15T02:45:22.000+02:00</time>
      </trkpt>
      <trkpt lat="42.7117" lon="-3.74199">
        <ele>770.9</ele>
        <time>2023-06-15T02:45:47.000+02:00</time>
      </trkpt>
      <trkpt lat="42.71285" lon="-3.74475">
        <ele>766.1</ele>
        <time>2023-06-15T02:46:22.000+02:00</time>
      </trkpt>
      <trkpt lat="42.71292" lon="-3.7454">
        <ele>763.9</ele>
        <time>2023-06-15T02:46:30.000+02:00</time>
      </trkpt>
      <trkpt lat="42.71252" lon="-3.74776">
        <ele>765.6</ele>
        <time>2023-06-15T02:46:57.000+02:00</time>
      </trkpt>
      <trkpt lat="42.71229" lon="-3.74708">
        <ele>780.1</ele>
        <time>2023-06-15T02:47:05.000+02:00</time>
      </trkpt>
      <trkpt lat="42.71229" lon="-3.74553">
        <ele>791.9</ele>
        <time>2023-06-15T02:47:23.000+02:00</time>
      </trkpt>
      <trkpt lat="42.71206" lon="-3.74537">
        <ele>793.9</ele>
        <time>2023-06-15T02:47:27.000+02:00</time>
      </trkpt>
      <trkpt lat="42.71069" lon="-3.74824">
        <ele>827.4</ele>
        <time>2023-06-15T02:48:05.000+02:00</time>
      </trkpt>
      <trkpt lat="42.71016" lon="-3.75019">
        <ele>857.4</ele>
        <time>2023-06-15T02:48:28.000+02:00</time>
      </trkpt>
      <trkpt lat="42.70874" lon="-3.75052">
        <ele>875.4</ele>
        <time>2023-06-15T02:48:50.000+02:00</time>
      </trkpt>
      <trkpt lat="42.70689" lon="-3.75186">
        <ele>893.6</ele>
        <time>2023-06-15T02:49:22.000+02:00</time>
      </trkpt>
      <trkpt lat="42.70402" lon="-3.7533">
        <ele>936.2</ele>
        <time>2023-06-15T02:50:09.000+02:00</time>
      </trkpt>
      <trkpt lat="42.70165" lon="-3.75237">
        <ele>947.2</ele>
        <time>2023-06-15T02:50:47.000+02:00</time>
      </trkpt>
      <trkpt lat="42.70016" lon="-3.75221">
        <ele>958.3</ele>
        <time>2023-06-15T02:51:10.000+02:00</time>
      </trkpt>
      <trkpt lat="42.69892" lon="-3.75275">
        <ele>968.7</ele>
        <time>2023-06-15T02:51:30.000+02:00</time>
      </trkpt>
      <trkpt lat="42.69752" lon="-3.75247">
        <ele>973.9</ele>
        <time>2023-06-15T02:51:51.000+02:00</time>
      </trkpt>
      <trkpt lat="42.69578" lon="-3.75161">
        <ele>977.8</ele>
        <time>2023-06-15T02:52:19.000+02:00</time>
      </trkpt>
      <trkpt lat="42.69436" lon="-3.75178">
        <ele>980.7</ele>
        <time>2023-06-15T02:52:41.000+02:00</time>
      </trkpt>
      <trkpt lat="42.69203" lon="-3.75231">
        <ele>973.3</ele>
        <time>2023-06-15T02:53:17.000+02:00</time>
      </trkpt>
      <trkpt lat="42.69006" lon="-3.75333">
        <ele>967.6</ele>
        <time>2023-06-15T02:53:50.000+02:00</time>
      </trkpt>
      <trkpt lat="42.68884" lon="-3.7536">
        <ele>972.2</ele>
        <time>2023-06-15T02:54:08.000+02:00</time>
      </trkpt>
      <trkpt lat="42.68692" lon="-3.75561">
        <ele>975.9</ele>
        <time>2023-06-15T02:54:45.000+02:00</time>
      </trkpt>
      <trkpt lat="42.68627" lon="-3.75592">
        <ele>975.4</ele>
        <time>2023-06-15T02:54:56.000+02:00</time>
      </trkpt>
      <trkpt lat="42.68566" lon="-3.7557">
        <ele>976.4</ele>
        <time>2023-06-15T02:55:06.000+02:00</time>
      </trkpt>
      <trkpt lat="42.68512" lon="-3.75505">
        <ele>978.7</ele>
        <time>2023-06-15T02:55:17.000+02:00</time>
      </trkpt>
      <trkpt lat="42.68344" lon="-3.75595">
        <ele>984</ele>
        <time>2023-06-15T02:55:44.000+02:00</time>
      </trkpt>
      <trkpt lat="42.6808" lon="-3.75643">
        <ele>992.6</ele>
        <time>2023-06-15T02:56:25.000+02:00</time>
      </trkpt>
      <trkpt lat="42.67949" lon="-3.75632">
        <ele>998.7</ele>
        <time>2023-06-15T02:56:45.000+02:00</time>
      </trkpt>
      <trkpt lat="42.67865" lon="-3.75692">
        <ele>995.2</ele>
        <time>2023-06-15T02:56:59.000+02:00</time>
      </trkpt>
      <trkpt lat="42.67658" lon="-3.7595">
        <ele>999.2</ele>
        <time>2023-06-15T02:57:42.000+02:00</time>
      </trkpt>
      <trkpt lat="42.67534" lon="-3.76191">
        <ele>1001.7</ele>
        <time>2023-06-15T02:58:15.000+02:00</time>
      </trkpt>
      <trkpt lat="42.67416" lon="-3.76505">
        <ele>1009</ele>
        <time>2023-06-15T02:58:55.000+02:00</time>
      </trkpt>
      <trkpt lat="42.67236" lon="-3.76734">
        <ele>1012.3</ele>
        <time>2023-06-15T02:59:33.000+02:00</time>
      </trkpt>
      <trkpt lat="42.67034" lon="-3.76849">
        <ele>1004</ele>
        <time>2023-06-15T03:00:06.000+02:00</time>
      </trkpt>
      <trkpt lat="42.66869" lon="-3.77041">
        <ele>1007.8</ele>
        <time>2023-06-15T03:00:39.000+02:00</time>
      </trkpt>
      <trkpt lat="42.66875" lon="-3.77132">
        <ele>1005.8</ele>
        <time>2023-06-15T03:00:49.000+02:00</time>
      </trkpt>
      <trkpt lat="42.66704" lon="-3.77409">
        <ele>992.4</ele>
        <time>2023-06-15T03:01:30.000+02:00</time>
      </trkpt>
      <trkpt lat="42.66681" lon="-3.77594">
        <ele>987.2</ele>
        <time>2023-06-15T03:01:51.000+02:00</time>
      </trkpt>
      <trkpt lat="42.6662" lon="-3.77691">
        <ele>988.1</ele>
        <time>2023-06-15T03:02:06.000+02:00</time>
      </trkpt>
      <trkpt lat="42.666" lon="-3.77871">
        <ele>995.4</ele>
        <time>2023-06-15T03:02:26.000+02:00</time>
      </trkpt>
      <trkpt lat="42.66363" lon="-3.78134">
        <ele>996.7</ele>
        <time>2023-06-15T03:03:13.000+02:00</time>
      </trkpt>
      <trkpt lat="42.66311" lon="-3.78047">
        <ele>995.7</ele>
        <time>2023-06-15T03:03:25.000+02:00</time>
      </trkpt>
      <trkpt lat="42.66294" lon="-3.78169">
        <ele>998</ele>
        <time>2023-06-15T03:03:39.000+02:00</time>
      </trkpt>
      <trkpt lat="42.66246" lon="-3.78289">
        <ele>998</ele>
        <time>2023-06-15T03:03:55.000+02:00</time>
      </trkpt>
      <trkpt lat="42.65911" lon="-3.79006">
        <ele>1019.2</ele>
        <time>2023-06-15T03:05:30.000+02:00</time>
      </trkpt>
      <trkpt lat="42.6567" lon="-3.79406">
        <ele>1023</ele>
        <time>2023-06-15T03:06:28.000+02:00</time>
      </trkpt>
      <trkpt lat="42.65442" lon="-3.80011">
        <ele>1029</ele>
        <time>2023-06-15T03:07:45.000+02:00</time>
      </trkpt>
      <trkpt lat="42.65394" lon="-3.80235">
        <ele>1025.1</ele>
        <time>2023-06-15T03:08:11.000+02:00</time>
      </trkpt>
      <trkpt lat="42.65379" lon="-3.80477">
        <ele>1023</ele>
        <time>2023-06-15T03:08:38.000+02:00</time>
      </trkpt>
      <trkpt lat="42.65236" lon="-3.80739">
        <ele>1019.3</ele>
        <time>2023-06-15T03:09:15.000+02:00</time>
      </trkpt>
      <trkpt lat="42.65281" lon="-3.80971">
        <ele>1010.9</ele>
        <time>2023-06-15T03:09:42.000+02:00</time>
      </trkpt>
      <trkpt lat="42.65281" lon="-3.81104">
        <ele>1004.4</ele>
        <time>2023-06-15T03:09:57.000+02:00</time>
      </trkpt>
      <trkpt lat="42.65362" lon="-3.81197">
        <ele>994.3</ele>
        <time>2023-06-15T03:10:13.000+02:00</time>
      </trkpt>
      <trkpt lat="42.65431" lon="-3.81429">
        <ele>980.2</ele>
        <time>2023-06-15T03:10:41.000+02:00</time>
      </trkpt>
      <trkpt lat="42.65416" lon="-3.81747">
        <ele>943</ele>
        <time>2023-06-15T03:11:17.000+02:00</time>
      </trkpt>
      <trkpt lat="42.65353" lon="-3.81875">
        <ele>926.4</ele>
        <time>2023-06-15T03:11:34.000+02:00</time>
      </trkpt>
      <trkpt lat="42.65354" lon="-3.81948">
        <ele>918.4</ele>
        <time>2023-06-15T03:11:42.000+02:00</time>
      </trkpt>
      <trkpt lat="42.65298" lon="-3.82004">
        <ele>909.4</ele>
        <time>2023-06-15T03:11:53.000+02:00</time>
      </trkpt>
      <trkpt lat="42.65295" lon="-3.82047">
        <ele>903.1</ele>
        <time>2023-06-15T03:11:58.000+02:00</time>
      </trkpt>
      <trkpt lat="42.65254" lon="-3.82036">
        <ele>899.3</ele>
        <time>2023-06-15T03:12:04.000+02:00</time>
      </trkpt>
      <trkpt lat="42.65261" lon="-3.81976">
        <ele>898.6</ele>
        <time>2023-06-15T03:12:11.000+02:00</time>
      </trkpt>
      <trkpt lat="42.65243" lon="-3.81952">
        <ele>898.3</ele>
        <time>2023-06-15T03:12:15.000+02:00</time>
      </trkpt>
      <trkpt lat="42.65169" lon="-3.82009">
        <ele>881.9</ele>
        <time>2023-06-15T03:12:28.000+02:00</time>
      </trkpt>
      <trkpt lat="42.65036" lon="-3.82013">
        <ele>865</ele>
        <time>2023-06-15T03:12:48.000+02:00</time>
      </trkpt>
      <trkpt lat="42.65061" lon="-3.8204">
        <ele>862.7</ele>
        <time>2023-06-15T03:12:53.000+02:00</time>
      </trkpt>
      <trkpt lat="42.65032" lon="-3.82096">
        <ele>861.1</ele>
        <time>2023-06-15T03:13:01.000+02:00</time>
      </trkpt>
      <trkpt lat="42.65044" lon="-3.82164">
        <ele>865.6</ele>
        <time>2023-06-15T03:13:09.000+02:00</time>
      </trkpt>
      <trkpt lat="42.6501" lon="-3.82164">
        <ele>870.5</ele>
        <time>2023-06-15T03:13:14.000+02:00</time>
      </trkpt>
      <trkpt lat="42.64987" lon="-3.82218">
        <ele>879.8</ele>
        <time>2023-06-15T03:13:21.000+02:00</time>
      </trkpt>
      <trkpt lat="42.65022" lon="-3.82356">
        <ele>892</ele>
        <time>2023-06-15T03:13:37.000+02:00</time>
      </trkpt>
      <trkpt lat="42.65069" lon="-3.82382">
        <ele>894.9</ele>
        <time>2023-06-15T03:13:45.000+02:00</time>
      </trkpt>
      <trkpt lat="42.65072" lon="-3.82624">
        <ele>911.2</ele>
        <time>2023-06-15T03:14:12.000+02:00</time>
      </trkpt>
      <trkpt lat="42.65005" lon="-3.82804">
        <ele>931</ele>
        <time>2023-06-15T03:14:35.000+02:00</time>
      </trkpt>
      <trkpt lat="42.64842" lon="-3.82921">
        <ele>951.8</ele>
        <time>2023-06-15T03:15:03.000+02:00</time>
      </trkpt>
      <trkpt lat="42.64784" lon="-3.82925">
        <ele>956.9</ele>
        <time>2023-06-15T03:15:12.000+02:00</time>
      </trkpt>
      <trkpt lat="42.64718" lon="-3.82881">
        <ele>963.8</ele>
        <time>2023-06-15T03:15:23.000+02:00</time>
      </trkpt>
      <trkpt lat="42.6459" lon="-3.82959">
        <ele>978.2</ele>
        <time>2023-06-15T03:15:45.000+02:00</time>
      </trkpt>
      <trkpt lat="42.64529" lon="-3.82945">
        <ele>981.9</ele>
        <time>2023-06-15T03:15:54.000+02:00</time>
      </trkpt>
      <trkpt lat="42.64433" lon="-3.83062">
        <ele>999.2</ele>
        <time>2023-06-15T03:16:14.000+02:00</time>
      </trkpt>
      <trkpt lat="42.64359" lon="-3.83109">
        <ele>1004.8</ele>
        <time>2023-06-15T03:16:26.000+02:00</time>
      </trkpt>
      <trkpt lat="42.64249" lon="-3.83121">
        <ele>1008.2</ele>
        <time>2023-06-15T03:16:43.000+02:00</time>
      </trkpt>
      <trkpt lat="42.64025" lon="-3.83062">
        <ele>1020.4</ele>
        <time>2023-06-15T03:17:18.000+02:00</time>
      </trkpt>
      <trkpt lat="42.63895" lon="-3.83095">
        <ele>1023.5</ele>
        <time>2023-06-15T03:17:38.000+02:00</time>
      </trkpt>
      <trkpt lat="42.63779" lon="-3.8301">
        <ele>1018.4</ele>
        <time>2023-06-15T03:17:58.000+02:00</time>
      </trkpt>
      <trkpt lat="42.63504" lon="-3.82654">
        <ele>1004.5</ele>
        <time>2023-06-15T03:18:56.000+02:00</time>
      </trkpt>
      <trkpt lat="42.63423" lon="-3.8262">
        <ele>997.8</ele>
        <time>2023-06-15T03:19:09.000+02:00</time>
      </trkpt>
      <trkpt lat="42.63324" lon="-3.82693">
        <ele>982.2</ele>
        <time>2023-06-15T03:19:27.000+02:00</time>
      </trkpt>
      <trkpt lat="42.63284" lon="-3.82792">
        <ele>968.4</ele>
        <time>2023-06-15T03:19:39.000+02:00</time>
      </trkpt>
      <trkpt lat="42.63255" lon="-3.82958">
        <ele>957.8</ele>
        <time>2023-06-15T03:19:59.000+02:00</time>
      </trkpt>
      <trkpt lat="42.63086" lon="-3.83096">
        <ele>949</ele>
        <time>2023-06-15T03:20:29.000+02:00</time>
      </trkpt>
      <trkpt lat="42.62876" lon="-3.83579">
        <ele>955.2</ele>
        <time>2023-06-15T03:21:32.000+02:00</time>
      </trkpt>
      <trkpt lat="42.62666" lon="-3.8383">
        <ele>942.2</ele>
        <time>2023-06-15T03:22:15.000+02:00</time>
      </trkpt>
      <trkpt lat="42.62629" lon="-3.83963">
        <ele>940.1</ele>
        <time>2023-06-15T03:22:31.000+02:00</time>
      </trkpt>
      <trkpt lat="42.62599" lon="-3.83996">
        <ele>941.9</ele>
        <time>2023-06-15T03:22:37.000+02:00</time>
      </trkpt>
      <trkpt lat="42.62523" lon="-3.84331">
        <ele>935.1</ele>
        <time>2023-06-15T03:23:16.000+02:00</time>
      </trkpt>
      <trkpt lat="42.62346" lon="-3.84401">
        <ele>931.8</ele>
        <time>2023-06-15T03:23:44.000+02:00</time>
      </trkpt>
      <trkpt lat="42.62257" lon="-3.84398">
        <ele>933</ele>
        <time>2023-06-15T03:23:58.000+02:00</time>
      </trkpt>
      <trkpt lat="42.62195" lon="-3.84472">
        <ele>936</ele>
        <time>2023-06-15T03:24:10.000+02:00</time>
      </trkpt>
      <trkpt lat="42.62016" lon="-3.84562">
        <ele>952.1</ele>
        <time>2023-06-15T03:24:40.000+02:00</time>
      </trkpt>
      <trkpt lat="42.62022" lon="-3.84619">
        <ele>952.3</ele>
        <time>2023-06-15T03:24:46.000+02:00</time>
      </trkpt>
      <trkpt lat="42.62091" lon="-3.84745">
        <ele>944.6</ele>
        <time>2023-06-15T03:25:04.000+02:00</time>
      </trkpt>
      <trkpt lat="42.62117" lon="-3.84887">
        <ele>945.7</ele>
        <time>2023-06-15T03:25:20.000+02:00</time>
      </trkpt>
      <trkpt lat="42.6213" lon="-3.85072">
        <ele>945.9</ele>
        <time>2023-06-15T03:25:41.000+02:00</time>
      </trkpt>
      <trkpt lat="42.62113" lon="-3.85281">
        <ele>949</ele>
        <time>2023-06-15T03:26:05.000+02:00</time>
      </trkpt>
      <trkpt lat="42.62149" lon="-3.85639">
        <ele>950.3</ele>
        <time>2023-06-15T03:26:45.000+02:00</time>
      </trkpt>
      <trkpt lat="42.62252" lon="-3.85849">
        <ele>940.2</ele>
        <time>2023-06-15T03:27:14.000+02:00</time>
      </trkpt>
      <trkpt lat="42.62321" lon="-3.8605">
        <ele>935</ele>
        <time>2023-06-15T03:27:39.000+02:00</time>
      </trkpt>
      <trkpt lat="42.62258" lon="-3.86149">
        <ele>939.5</ele>
        <time>2023-06-15T03:27:53.000+02:00</time>
      </trkpt>
      <trkpt lat="42.62255" lon="-3.86193">
        <ele>942.1</ele>
        <time>2023-06-15T03:27:58.000+02:00</time>
      </trkpt>
      <trkpt lat="42.62326" lon="-3.86543">
        <ele>948.5</ele>
        <time>2023-06-15T03:28:39.000+02:00</time>
      </trkpt>
      <trkpt lat="42.62333" lon="-3.86789">
        <ele>947</ele>
        <time>2023-06-15T03:29:07.000+02:00</time>
      </trkpt>
      <trkpt lat="42.62298" lon="-3.86954">
        <ele>947.7</ele>
        <time>2023-06-15T03:29:26.000+02:00</time>
      </trkpt>
      <trkpt lat="42.62301" lon="-3.87046">
        <ele>947.6</ele>
        <time>2023-06-15T03:29:36.000+02:00</time>
      </trkpt>
      <trkpt lat="42.62221" lon="-3.87307">
        <ele>950</ele>
        <time>2023-06-15T03:30:08.000+02:00</time>
      </trkpt>
      <trkpt lat="42.62334" lon="-3.87395">
        <ele>951.3</ele>
        <time>2023-06-15T03:30:28.000+02:00</time>
      </trkpt>
      <trkpt lat="42.62411" lon="-3.87851">
        <ele>953.6</ele>
        <time>2023-06-15T03:31:21.000+02:00</time>
      </trkpt>
      <trkpt lat="42.62411" lon="-3.88085">
        <ele>955.5</ele>
        <time>2023-06-15T03:31:47.000+02:00</time>
      </trkpt>
      <trkpt lat="42.62392" lon="-3.88139">
        <ele>954.1</ele>
        <time>2023-06-15T03:31:54.000+02:00</time>
      </trkpt>
      <trkpt lat="42.62275" lon="-3.88146">
        <ele>954.9</ele>
        <time>2023-06-15T03:32:12.000+02:00</time>
      </trkpt>
      <trkpt lat="42.62133" lon="-3.88285">
        <ele>961.9</ele>
        <time>2023-06-15T03:32:38.000+02:00</time>
      </trkpt>
      <trkpt lat="42.61986" lon="-3.8829">
        <ele>961.7</ele>
        <time>2023-06-15T03:33:01.000+02:00</time>
      </trkpt>
      <trkpt lat="42.61943" lon="-3.88464">
        <ele>966</ele>
        <time>2023-06-15T03:33:22.000+02:00</time>
      </trkpt>
      <trkpt lat="42.61957" lon="-3.88629">
        <ele>962.7</ele>
        <time>2023-06-15T03:33:40.000+02:00</time>
      </trkpt>
      <trkpt lat="42.61875" lon="-3.88854">
        <ele>966</ele>
        <time>2023-06-15T03:34:08.000+02:00</time>
      </trkpt>
      <trkpt lat="42.6193" lon="-3.88873">
        <ele>963.7</ele>
        <time>2023-06-15T03:34:17.000+02:00</time>
      </trkpt>
      <trkpt lat="42.61985" lon="-3.88891">
        <ele>962</ele>
        <time>2023-06-15T03:34:26.000+02:00</time>
      </trkpt>
      <trkpt lat="42.62031" lon="-3.89002">
        <ele>964.1</ele>
        <time>2023-06-15T03:34:40.000+02:00</time>
      </trkpt>
      <trkpt lat="42.62077" lon="-3.89113">
        <ele>969.1</ele>
        <time>2023-06-15T03:34:54.000+02:00</time>
      </trkpt>
      <trkpt lat="42.62077" lon="-3.89113">
        <ele>969.2</ele>
        <time>2023-06-15T03:34:55.000+02:00</time>
      </trkpt>
      <trkpt lat="42.62043" lon="-3.89161">
        <ele>970.9</ele>
        <time>2023-06-15T03:35:02.000+02:00</time>
      </trkpt>
      <trkpt lat="42.62009" lon="-3.89208">
        <ele>972</ele>
        <time>2023-06-15T03:35:09.000+02:00</time>
      </trkpt>
      <trkpt lat="42.61766" lon="-3.89545">
        <ele>982.4</ele>
        <time>2023-06-15T03:36:02.000+02:00</time>
      </trkpt>
      <trkpt lat="42.61717" lon="-3.90121">
        <ele>978.6</ele>
        <time>2023-06-15T03:37:08.000+02:00</time>
      </trkpt>
      <trkpt lat="42.61715" lon="-3.90279">
        <ele>976.1</ele>
        <time>2023-06-15T03:37:25.000+02:00</time>
      </trkpt>
      <trkpt lat="42.61736" lon="-3.90165">
        <ele>978.6</ele>
        <time>2023-06-15T03:37:39.000+02:00</time>
      </trkpt>
      <trkpt lat="42.61807" lon="-3.90074">
        <ele>984.2</ele>
        <time>2023-06-15T03:37:53.000+02:00</time>
      </trkpt>
      <trkpt lat="42.61936" lon="-3.90009">
        <ele>1005.2</ele>
        <time>2023-06-15T03:38:14.000+02:00</time>
      </trkpt>
      <trkpt lat="42.61969" lon="-3.89909">
        <ele>1017.6</ele>
        <time>2023-06-15T03:38:27.000+02:00</time>
      </trkpt>
      <trkpt lat="42.62042" lon="-3.90089">
        <ele>1037.9</ele>
        <time>2023-06-15T03:38:50.000+02:00</time>
      </trkpt>
      <trkpt lat="42.62126" lon="-3.90201">
        <ele>1039</ele>
        <time>2023-06-15T03:39:08.000+02:00</time>
      </trkpt>
      <trkpt lat="42.62108" lon="-3.90332">
        <ele>1043.4</ele>
        <time>2023-06-15T03:39:23.000+02:00</time>
      </trkpt>
      <trkpt lat="42.62189" lon="-3.90585">
        <ele>1028.4</ele>
        <time>2023-06-15T03:39:54.000+02:00</time>
      </trkpt>
      <trkpt lat="42.62219" lon="-3.90543">
        <ele>1033.5</ele>
        <time>2023-06-15T03:40:00.000+02:00</time>
      </trkpt>
      <trkpt lat="42.62251" lon="-3.90326">
        <ele>1059.2</ele>
        <time>2023-06-15T03:40:25.000+02:00</time>
      </trkpt>
      <trkpt lat="42.62279" lon="-3.9028">
        <ele>1062.3</ele>
        <time>2023-06-15T03:40:32.000+02:00</time>
      </trkpt>
      <trkpt lat="42.62368" lon="-3.90341">
        <ele>1072.5</ele>
        <time>2023-06-15T03:40:47.000+02:00</time>
      </trkpt>
      <trkpt lat="42.62383" lon="-3.90658">
        <ele>1068.3</ele>
        <time>2023-06-15T03:41:23.000+02:00</time>
      </trkpt>
      <trkpt lat="42.62423" lon="-3.90759">
        <ele>1064.5</ele>
        <time>2023-06-15T03:41:36.000+02:00</time>
      </trkpt>
      <trkpt lat="42.62472" lon="-3.90805">
        <ele>1060.1</ele>
        <time>2023-06-15T03:41:45.000+02:00</time>
      </trkpt>
      <trkpt lat="42.62565" lon="-3.90828">
        <ele>1054.7</ele>
        <time>2023-06-15T03:42:00.000+02:00</time>
      </trkpt>
      <trkpt lat="42.62788" lon="-3.90667">
        <ele>1029.5</ele>
        <time>2023-06-15T03:42:38.000+02:00</time>
      </trkpt>
      <trkpt lat="42.62723" lon="-3.91652">
        <ele>1049.9</ele>
        <time>2023-06-15T03:44:29.000+02:00</time>
      </trkpt>
      <trkpt lat="42.62771" lon="-3.92605">
        <ele>1047.5</ele>
        <time>2023-06-15T03:46:17.000+02:00</time>
      </trkpt>
      <trkpt lat="42.62933" lon="-3.93321">
        <ele>1029.7</ele>
        <time>2023-06-15T03:47:41.000+02:00</time>
      </trkpt>
      <trkpt lat="42.62977" lon="-3.9339">
        <ele>1026.3</ele>
        <time>2023-06-15T03:47:51.000+02:00</time>
      </trkpt>
      <trkpt lat="42.63145" lon="-3.93859">
        <ele>1018.2</ele>
        <time>2023-06-15T03:48:50.000+02:00</time>
      </trkpt>
      <trkpt lat="42.63218" lon="-3.94268">
        <ele>1009.2</ele>
        <time>2023-06-15T03:49:37.000+02:00</time>
      </trkpt>
      <trkpt lat="42.63256" lon="-3.94368">
        <ele>1003.9</ele>
        <time>2023-06-15T03:49:50.000+02:00</time>
      </trkpt>
      <trkpt lat="42.63324" lon="-3.94431">
        <ele>1001.6</ele>
        <time>2023-06-15T03:50:02.000+02:00</time>
      </trkpt>
      <trkpt lat="42.63465" lon="-3.94512">
        <ele>1000</ele>
        <time>2023-06-15T03:50:26.000+02:00</time>
      </trkpt>
      <trkpt lat="42.63554" lon="-3.94498">
        <ele>999.1</ele>
        <time>2023-06-15T03:50:39.000+02:00</time>
      </trkpt>
      <trkpt lat="42.63791" lon="-3.94607">
        <ele>994.4</ele>
        <time>2023-06-15T03:51:18.000+02:00</time>
      </trkpt>
      <trkpt lat="42.63912" lon="-3.94698">
        <ele>993.8</ele>
        <time>2023-06-15T03:51:39.000+02:00</time>
      </trkpt>
      <trkpt lat="42.64055" lon="-3.94862">
        <ele>996.1</ele>
        <time>2023-06-15T03:52:07.000+02:00</time>
      </trkpt>
      <trkpt lat="42.64449" lon="-3.95479">
        <ele>1016.8</ele>
        <time>2023-06-15T03:53:39.000+02:00</time>
      </trkpt>
      <trkpt lat="42.64556" lon="-3.95723">
        <ele>1025.1</ele>
        <time>2023-06-15T03:54:11.000+02:00</time>
      </trkpt>
      <trkpt lat="42.64723" lon="-3.95997">
        <ele>1012.1</ele>
        <time>2023-06-15T03:54:51.000+02:00</time>
      </trkpt>
      <trkpt lat="42.64883" lon="-3.96396">
        <ele>996.1</ele>
        <time>2023-06-15T03:55:42.000+02:00</time>
      </trkpt>
      <trkpt lat="42.64866" lon="-3.96466">
        <ele>997.6</ele>
        <time>2023-06-15T03:55:50.000+02:00</time>
      </trkpt>
      <trkpt lat="42.64659" lon="-3.96618">
        <ele>1012.8</ele>
        <time>2023-06-15T03:56:26.000+02:00</time>
      </trkpt>
      <trkpt lat="42.64557" lon="-3.96681">
        <ele>1015</ele>
        <time>2023-06-15T03:56:44.000+02:00</time>
      </trkpt>
      <trkpt lat="42.64449" lon="-3.96699">
        <ele>1017.1</ele>
        <time>2023-06-15T03:57:00.000+02:00</time>
      </trkpt>
      <trkpt lat="42.6444" lon="-3.96797">
        <ele>1022.1</ele>
        <time>2023-06-15T03:57:11.000+02:00</time>
      </trkpt>
      <trkpt lat="42.64519" lon="-3.96985">
        <ele>1023.1</ele>
        <time>2023-06-15T03:57:36.000+02:00</time>
      </trkpt>
      <trkpt lat="42.64547" lon="-3.97397">
        <ele>1034.1</ele>
        <time>2023-06-15T03:58:22.000+02:00</time>
      </trkpt>
      <trkpt lat="42.64626" lon="-3.97699">
        <ele>1039.2</ele>
        <time>2023-06-15T03:58:58.000+02:00</time>
      </trkpt>
      <trkpt lat="42.64617" lon="-3.97807">
        <ele>1043.6</ele>
        <time>2023-06-15T03:59:10.000+02:00</time>
      </trkpt>
      <trkpt lat="42.64699" lon="-3.97961">
        <ele>1033</ele>
        <time>2023-06-15T03:59:32.000+02:00</time>
      </trkpt>
      <trkpt lat="42.64756" lon="-3.9802">
        <ele>1026.3</ele>
        <time>2023-06-15T03:59:43.000+02:00</time>
      </trkpt>
      <trkpt lat="42.64895" lon="-3.98544">
        <ele>1004.9</ele>
        <time>2023-06-15T04:00:45.000+02:00</time>
      </trkpt>
      <trkpt lat="42.64934" lon="-3.98607">
        <ele>1003.4</ele>
        <time>2023-06-15T04:00:55.000+02:00</time>
      </trkpt>
      <trkpt lat="42.64919" lon="-3.98711">
        <ele>1006.6</ele>
        <time>2023-06-15T04:01:07.000+02:00</time>
      </trkpt>
      <trkpt lat="42.64992" lon="-3.99212">
        <ele>1027.5</ele>
        <time>2023-06-15T04:02:04.000+02:00</time>
      </trkpt>
      <trkpt lat="42.6494" lon="-3.99228">
        <ele>1022.5</ele>
        <time>2023-06-15T04:02:12.000+02:00</time>
      </trkpt>
      <trkpt lat="42.64866" lon="-3.99488">
        <ele>1013.5</ele>
        <time>2023-06-15T04:02:44.000+02:00</time>
      </trkpt>
      <trkpt lat="42.64847" lon="-3.99726">
        <ele>1012.6</ele>
        <time>2023-06-15T04:03:10.000+02:00</time>
      </trkpt>
      <trkpt lat="42.64766" lon="-3.99931">
        <ele>1017.6</ele>
        <time>2023-06-15T04:03:37.000+02:00</time>
      </trkpt>
      <trkpt lat="42.64776" lon="-4.0009">
        <ele>1020.4</ele>
        <time>2023-06-15T04:03:54.000+02:00</time>
      </trkpt>
      <trkpt lat="42.64965" lon="-4.00658">
        <ele>1020.5</ele>
        <time>2023-06-15T04:05:05.000+02:00</time>
      </trkpt>
      <trkpt lat="42.65231" lon="-4.01011">
        <ele>1020</ele>
        <time>2023-06-15T04:06:01.000+02:00</time>
      </trkpt>
      <trkpt lat="42.65259" lon="-4.00996">
        <ele>1020</ele>
        <time>2023-06-15T04:06:06.000+02:00</time>
      </trkpt>
      <trkpt lat="42.65267" lon="-4.0092">
        <ele>1019.1</ele>
        <time>2023-06-15T04:06:15.000+02:00</time>
      </trkpt>
      <trkpt lat="42.65408" lon="-4.00805">
        <ele>1022</ele>
        <time>2023-06-15T04:06:40.000+02:00</time>
      </trkpt>
      <trkpt lat="42.65472" lon="-4.01139">
        <ele>1026.9</ele>
        <time>2023-06-15T04:07:18.000+02:00</time>
      </trkpt>
      <trkpt lat="42.65543" lon="-4.01202">
        <ele>1035.4</ele>
        <time>2023-06-15T04:07:31.000+02:00</time>
      </trkpt>
      <trkpt lat="42.65618" lon="-4.01359">
        <ele>1037.1</ele>
        <time>2023-06-15T04:07:52.000+02:00</time>
      </trkpt>
      <trkpt lat="42.65685" lon="-4.01857">
        <ele>1055.8</ele>
        <time>2023-06-15T04:08:49.000+02:00</time>
      </trkpt>
      <trkpt lat="42.65739" lon="-4.01958">
        <ele>1051.4</ele>
        <time>2023-06-15T04:09:03.000+02:00</time>
      </trkpt>
      <trkpt lat="42.65764" lon="-4.02144">
        <ele>1045</ele>
        <time>2023-06-15T04:09:25.000+02:00</time>
      </trkpt>
      <trkpt lat="42.65741" lon="-4.02293">
        <ele>1031.2</ele>
        <time>2023-06-15T04:09:42.000+02:00</time>
      </trkpt>
      <trkpt lat="42.65757" lon="-4.02525">
        <ele>1018.7</ele>
        <time>2023-06-15T04:10:08.000+02:00</time>
      </trkpt>
      <trkpt lat="42.65739" lon="-4.02633">
        <ele>1010</ele>
        <time>2023-06-15T04:10:20.000+02:00</time>
      </trkpt>
      <trkpt lat="42.65846" lon="-4.02993">
        <ele>1001.6</ele>
        <time>2023-06-15T04:11:04.000+02:00</time>
      </trkpt>
      <trkpt lat="42.65863" lon="-4.03123">
        <ele>999.7</ele>
        <time>2023-06-15T04:11:19.000+02:00</time>
      </trkpt>
      <trkpt lat="42.65936" lon="-4.0321">
        <ele>1004.3</ele>
        <time>2023-06-15T04:11:34.000+02:00</time>
      </trkpt>
      <trkpt lat="42.65966" lon="-4.03289">
        <ele>1009.3</ele>
        <time>2023-06-15T04:11:44.000+02:00</time>
      </trkpt>
      <trkpt lat="42.65807" lon="-4.03386">
        <ele>998</ele>
        <time>2023-06-15T04:12:10.000+02:00</time>
      </trkpt>
      <trkpt lat="42.65606" lon="-4.03436">
        <ele>987.3</ele>
        <time>2023-06-15T04:12:41.000+02:00</time>
      </trkpt>
      <trkpt lat="42.65576" lon="-4.03507">
        <ele>983.4</ele>
        <time>2023-06-15T04:12:51.000+02:00</time>
      </trkpt>
      <trkpt lat="42.65572" lon="-4.03608">
        <ele>980.9</ele>
        <time>2023-06-15T04:13:02.000+02:00</time>
      </trkpt>
      <trkpt lat="42.65521" lon="-4.0363">
        <ele>976.8</ele>
        <time>2023-06-15T04:13:10.000+02:00</time>
      </trkpt>
      <trkpt lat="42.6545" lon="-4.03611">
        <ele>975.8</ele>
        <time>2023-06-15T04:13:21.000+02:00</time>
      </trkpt>
      <trkpt lat="42.65402" lon="-4.03713">
        <ele>974.9</ele>
        <time>2023-06-15T04:13:35.000+02:00</time>
      </trkpt>
      <trkpt lat="42.65262" lon="-4.03824">
        <ele>976.6</ele>
        <time>2023-06-15T04:14:00.000+02:00</time>
      </trkpt>
      <trkpt lat="42.65202" lon="-4.03994">
        <ele>983.3</ele>
        <time>2023-06-15T04:14:21.000+02:00</time>
      </trkpt>
      <trkpt lat="42.652" lon="-4.04063">
        <ele>987.3</ele>
        <time>2023-06-15T04:14:29.000+02:00</time>
      </trkpt>
      <trkpt lat="42.65302" lon="-4.04266">
        <ele>988.7</ele>
        <time>2023-06-15T04:14:56.000+02:00</time>
      </trkpt>
      <trkpt lat="42.65382" lon="-4.04312">
        <ele>990.8</ele>
        <time>2023-06-15T04:15:09.000+02:00</time>
      </trkpt>
      <trkpt lat="42.65539" lon="-4.04299">
        <ele>988.3</ele>
        <time>2023-06-15T04:15:34.000+02:00</time>
      </trkpt>
      <trkpt lat="42.65531" lon="-4.04365">
        <ele>982.5</ele>
        <time>2023-06-15T04:15:41.000+02:00</time>
      </trkpt>
      <trkpt lat="42.65567" lon="-4.0443">
        <ele>982.1</ele>
        <time>2023-06-15T04:15:50.000+02:00</time>
      </trkpt>
      <trkpt lat="42.65617" lon="-4.04397">
        <ele>978.8</ele>
        <time>2023-06-15T04:15:59.000+02:00</time>
      </trkpt>
      <trkpt lat="42.6568" lon="-4.04401">
        <ele>975.6</ele>
        <time>2023-06-15T04:16:08.000+02:00</time>
      </trkpt>
      <trkpt lat="42.65762" lon="-4.04475">
        <ele>972</ele>
        <time>2023-06-15T04:16:23.000+02:00</time>
      </trkpt>
      <trkpt lat="42.65736" lon="-4.04566">
        <ele>974.6</ele>
        <time>2023-06-15T04:16:34.000+02:00</time>
      </trkpt>
      <trkpt lat="42.65647" lon="-4.04701">
        <ele>986.3</ele>
        <time>2023-06-15T04:16:55.000+02:00</time>
      </trkpt>
      <trkpt lat="42.6586" lon="-4.05002">
        <ele>967.1</ele>
        <time>2023-06-15T04:17:42.000+02:00</time>
      </trkpt>
      <trkpt lat="42.66068" lon="-4.05539">
        <ele>968.3</ele>
        <time>2023-06-15T04:18:50.000+02:00</time>
      </trkpt>
      <trkpt lat="42.66134" lon="-4.05589">
        <ele>965</ele>
        <time>2023-06-15T04:19:01.000+02:00</time>
      </trkpt>
      <trkpt lat="42.66255" lon="-4.05756">
        <ele>963.1</ele>
        <time>2023-06-15T04:19:28.000+02:00</time>
      </trkpt>
      <trkpt lat="42.66362" lon="-4.06263">
        <ele>960.9</ele>
        <time>2023-06-15T04:20:27.000+02:00</time>
      </trkpt>
      <trkpt lat="42.66367" lon="-4.0664">
        <ele>958.6</ele>
        <time>2023-06-15T04:21:09.000+02:00</time>
      </trkpt>
      <trkpt lat="42.66398" lon="-4.06884">
        <ele>957.2</ele>
        <time>2023-06-15T04:21:37.000+02:00</time>
      </trkpt>
      <trkpt lat="42.66629" lon="-4.07493">
        <ele>960.6</ele>
        <time>2023-06-15T04:22:54.000+02:00</time>
      </trkpt>
      <trkpt lat="42.66618" lon="-4.07792">
        <ele>970.2</ele>
        <time>2023-06-15T04:23:28.000+02:00</time>
      </trkpt>
      <trkpt lat="42.66668" lon="-4.07877">
        <ele>966.3</ele>
        <time>2023-06-15T04:23:40.000+02:00</time>
      </trkpt>
      <trkpt lat="42.66744" lon="-4.07919">
        <ele>960.1</ele>
        <time>2023-06-15T04:23:53.000+02:00</time>
      </trkpt>
      <trkpt lat="42.66773" lon="-4.08029">
        <ele>954.1</ele>
        <time>2023-06-15T04:24:06.000+02:00</time>
      </trkpt>
      <trkpt lat="42.66918" lon="-4.08072">
        <ele>949</ele>
        <time>2023-06-15T04:24:28.000+02:00</time>
      </trkpt>
      <trkpt lat="42.67358" lon="-4.07768">
        <ele>957</ele>
        <time>2023-06-15T04:25:44.000+02:00</time>
      </trkpt>
      <trkpt lat="42.67614" lon="-4.07754">
        <ele>972.4</ele>
        <time>2023-06-15T04:26:23.000+02:00</time>
      </trkpt>
      <trkpt lat="42.67753" lon="-4.07688">
        <ele>982.9</ele>
        <time>2023-06-15T04:26:45.000+02:00</time>
      </trkpt>
      <trkpt lat="42.67783" lon="-4.07641">
        <ele>986.4</ele>
        <time>2023-06-15T04:26:52.000+02:00</time>
      </trkpt>
      <trkpt lat="42.6776" lon="-4.0732">
        <ele>1003.4</ele>
        <time>2023-06-15T04:27:29.000+02:00</time>
      </trkpt>
      <trkpt lat="42.67792" lon="-4.07061">
        <ele>1014.9</ele>
        <time>2023-06-15T04:27:58.000+02:00</time>
      </trkpt>
      <trkpt lat="42.67956" lon="-4.06776">
        <ele>1036.1</ele>
        <time>2023-06-15T04:28:39.000+02:00</time>
      </trkpt>
      <trkpt lat="42.67969" lon="-4.06655">
        <ele>1041.1</ele>
        <time>2023-06-15T04:28:52.000+02:00</time>
      </trkpt>
      <trkpt lat="42.68007" lon="-4.06642">
        <ele>1054.8</ele>
        <time>2023-06-15T04:28:59.000+02:00</time>
      </trkpt>
      <trkpt lat="42.68013" lon="-4.06654">
        <ele>1056</ele>
        <time>2023-06-15T04:29:00.000+02:00</time>
      </trkpt>
      <trkpt lat="42.68034" lon="-4.06732">
        <ele>1055.5</ele>
        <time>2023-06-15T04:29:10.000+02:00</time>
      </trkpt>
      <trkpt lat="42.68044" lon="-4.06764">
        <ele>1055.5</ele>
        <time>2023-06-15T04:29:13.000+02:00</time>
      </trkpt>
      <trkpt lat="42.68068" lon="-4.06836">
        <ele>1055.5</ele>
        <time>2023-06-15T04:29:22.000+02:00</time>
      </trkpt>
      <trkpt lat="42.68122" lon="-4.07025">
        <ele>1069</ele>
        <time>2023-06-15T04:29:45.000+02:00</time>
      </trkpt>
      <trkpt lat="42.68142" lon="-4.07096">
        <ele>1069.8</ele>
        <time>2023-06-15T04:29:54.000+02:00</time>
      </trkpt>
      <trkpt lat="42.68149" lon="-4.0713">
        <ele>1072.3</ele>
        <time>2023-06-15T04:29:58.000+02:00</time>
      </trkpt>
      <trkpt lat="42.68163" lon="-4.07208">
        <ele>1075.5</ele>
        <time>2023-06-15T04:30:07.000+02:00</time>
      </trkpt>
      <trkpt lat="42.68187" lon="-4.07335">
        <ele>1084.8</ele>
        <time>2023-06-15T04:30:21.000+02:00</time>
      </trkpt>
      <trkpt lat="42.68191" lon="-4.07345">
        <ele>1084.8</ele>
        <time>2023-06-15T04:30:23.000+02:00</time>
      </trkpt>
      <trkpt lat="42.68197" lon="-4.07355">
        <ele>1084.8</ele>
        <time>2023-06-15T04:30:24.000+02:00</time>
      </trkpt>
      <trkpt lat="42.68204" lon="-4.07365">
        <ele>1084.8</ele>
        <time>2023-06-15T04:30:26.000+02:00</time>
      </trkpt>
      <trkpt lat="42.68223" lon="-4.07382">
        <ele>1084.8</ele>
        <time>2023-06-15T04:30:29.000+02:00</time>
      </trkpt>
      <trkpt lat="42.68241" lon="-4.074">
        <ele>1084.3</ele>
        <time>2023-06-15T04:30:33.000+02:00</time>
      </trkpt>
      <trkpt lat="42.68259" lon="-4.07419">
        <ele>1085.3</ele>
        <time>2023-06-15T04:30:36.000+02:00</time>
      </trkpt>
      <trkpt lat="42.68279" lon="-4.07444">
        <ele>1089</ele>
        <time>2023-06-15T04:30:40.000+02:00</time>
      </trkpt>
      <trkpt lat="42.68303" lon="-4.07477">
        <ele>1092.5</ele>
        <time>2023-06-15T04:30:45.000+02:00</time>
      </trkpt>
      <trkpt lat="42.68321" lon="-4.07501">
        <ele>1094.5</ele>
        <time>2023-06-15T04:30:49.000+02:00</time>
      </trkpt>
      <trkpt lat="42.68332" lon="-4.07519">
        <ele>1095.3</ele>
        <time>2023-06-15T04:30:52.000+02:00</time>
      </trkpt>
      <trkpt lat="42.68372" lon="-4.076">
        <ele>1099.8</ele>
        <time>2023-06-15T04:31:03.000+02:00</time>
      </trkpt>
      <trkpt lat="42.6838" lon="-4.07611">
        <ele>1101</ele>
        <time>2023-06-15T04:31:05.000+02:00</time>
      </trkpt>
      <trkpt lat="42.68393" lon="-4.07633">
        <ele>1102.5</ele>
        <time>2023-06-15T04:31:08.000+02:00</time>
      </trkpt>
      <trkpt lat="42.68396" lon="-4.07646">
        <ele>1102.3</ele>
        <time>2023-06-15T04:31:09.000+02:00</time>
      </trkpt>
      <trkpt lat="42.684" lon="-4.07666">
        <ele>1101</ele>
        <time>2023-06-15T04:31:12.000+02:00</time>
      </trkpt>
      <trkpt lat="42.68405" lon="-4.07682">
        <ele>1100.3</ele>
        <time>2023-06-15T04:31:14.000+02:00</time>
      </trkpt>
      <trkpt lat="42.68418" lon="-4.07706">
        <ele>1100.3</ele>
        <time>2023-06-15T04:31:17.000+02:00</time>
      </trkpt>
      <trkpt lat="42.68434" lon="-4.07735">
        <ele>1099.3</ele>
        <time>2023-06-15T04:31:21.000+02:00</time>
      </trkpt>
      <trkpt lat="42.68448" lon="-4.07767">
        <ele>1099.3</ele>
        <time>2023-06-15T04:31:25.000+02:00</time>
      </trkpt>
      <trkpt lat="42.68473" lon="-4.07825">
        <ele>1100.5</ele>
        <time>2023-06-15T04:31:33.000+02:00</time>
      </trkpt>
      <trkpt lat="42.68492" lon="-4.07874">
        <ele>1100.3</ele>
        <time>2023-06-15T04:31:39.000+02:00</time>
      </trkpt>
      <trkpt lat="42.68506" lon="-4.07911">
        <ele>1098.8</ele>
        <time>2023-06-15T04:31:44.000+02:00</time>
      </trkpt>
      <trkpt lat="42.68513" lon="-4.07922">
        <ele>1098.8</ele>
        <time>2023-06-15T04:31:45.000+02:00</time>
      </trkpt>
      <trkpt lat="42.68529" lon="-4.0794">
        <ele>1100</ele>
        <time>2023-06-15T04:31:48.000+02:00</time>
      </trkpt>
      <trkpt lat="42.68606" lon="-4.0801">
        <ele>1112.3</ele>
        <time>2023-06-15T04:32:02.000+02:00</time>
      </trkpt>
      <trkpt lat="42.6869" lon="-4.08085">
        <ele>1118</ele>
        <time>2023-06-15T04:32:18.000+02:00</time>
      </trkpt>
      <trkpt lat="42.68704" lon="-4.08094">
        <ele>1118</ele>
        <time>2023-06-15T04:32:20.000+02:00</time>
      </trkpt>
      <trkpt lat="42.68717" lon="-4.08098">
        <ele>1118.3</ele>
        <time>2023-06-15T04:32:22.000+02:00</time>
      </trkpt>
      <trkpt lat="42.68731" lon="-4.081">
        <ele>1118.3</ele>
        <time>2023-06-15T04:32:24.000+02:00</time>
      </trkpt>
      <trkpt lat="42.68735" lon="-4.081">
        <ele>1118.3</ele>
        <time>2023-06-15T04:32:25.000+02:00</time>
      </trkpt>
      <trkpt lat="42.68752" lon="-4.08098">
        <ele>1118.3</ele>
        <time>2023-06-15T04:32:28.000+02:00</time>
      </trkpt>
      <trkpt lat="42.68767" lon="-4.08091">
        <ele>1117.8</ele>
        <time>2023-06-15T04:32:30.000+02:00</time>
      </trkpt>
      <trkpt lat="42.68814" lon="-4.08061">
        <ele>1116.8</ele>
        <time>2023-06-15T04:32:38.000+02:00</time>
      </trkpt>
      <trkpt lat="42.68883" lon="-4.08018">
        <ele>1114</ele>
        <time>2023-06-15T04:32:50.000+02:00</time>
      </trkpt>
      <trkpt lat="42.68997" lon="-4.07946">
        <ele>1101.8</ele>
        <time>2023-06-15T04:33:09.000+02:00</time>
      </trkpt>
      <trkpt lat="42.69006" lon="-4.07942">
        <ele>1099.5</ele>
        <time>2023-06-15T04:33:10.000+02:00</time>
      </trkpt>
      <trkpt lat="42.69016" lon="-4.07942">
        <ele>1097</ele>
        <time>2023-06-15T04:33:12.000+02:00</time>
      </trkpt>
      <trkpt lat="42.69029" lon="-4.07945">
        <ele>1094.5</ele>
        <time>2023-06-15T04:33:14.000+02:00</time>
      </trkpt>
      <trkpt lat="42.69042" lon="-4.0795">
        <ele>1092</ele>
        <time>2023-06-15T04:33:16.000+02:00</time>
      </trkpt>
      <trkpt lat="42.69051" lon="-4.07958">
        <ele>1091</ele>
        <time>2023-06-15T04:33:18.000+02:00</time>
      </trkpt>
      <trkpt lat="42.69057" lon="-4.07966">
        <ele>1090.8</ele>
        <time>2023-06-15T04:33:19.000+02:00</time>
      </trkpt>
      <trkpt lat="42.69063" lon="-4.07978">
        <ele>1091</ele>
        <time>2023-06-15T04:33:20.000+02:00</time>
      </trkpt>
      <trkpt lat="42.69068" lon="-4.07992">
        <ele>1092</ele>
        <time>2023-06-15T04:33:22.000+02:00</time>
      </trkpt>
      <trkpt lat="42.69071" lon="-4.08012">
        <ele>1093.5</ele>
        <time>2023-06-15T04:33:24.000+02:00</time>
      </trkpt>
      <trkpt lat="42.69076" lon="-4.08024">
        <ele>1093.5</ele>
        <time>2023-06-15T04:33:26.000+02:00</time>
      </trkpt>
      <trkpt lat="42.69084" lon="-4.08042">
        <ele>1093.5</ele>
        <time>2023-06-15T04:33:28.000+02:00</time>
      </trkpt>
      <trkpt lat="42.69097" lon="-4.08066">
        <ele>1094</ele>
        <time>2023-06-15T04:33:32.000+02:00</time>
      </trkpt>
      <trkpt lat="42.69115" lon="-4.08089">
        <ele>1094</ele>
        <time>2023-06-15T04:33:36.000+02:00</time>
      </trkpt>
      <trkpt lat="42.69128" lon="-4.08104">
        <ele>1093.8</ele>
        <time>2023-06-15T04:33:38.000+02:00</time>
      </trkpt>
      <trkpt lat="42.69149" lon="-4.08122">
        <ele>1093.5</ele>
        <time>2023-06-15T04:33:42.000+02:00</time>
      </trkpt>
      <trkpt lat="42.6916" lon="-4.08126">
        <ele>1093</ele>
        <time>2023-06-15T04:33:44.000+02:00</time>
      </trkpt>
      <trkpt lat="42.69171" lon="-4.08128">
        <ele>1091.8</ele>
        <time>2023-06-15T04:33:45.000+02:00</time>
      </trkpt>
      <trkpt lat="42.69179" lon="-4.08124">
        <ele>1089.8</ele>
        <time>2023-06-15T04:33:47.000+02:00</time>
      </trkpt>
      <trkpt lat="42.69187" lon="-4.08117">
        <ele>1087.5</ele>
        <time>2023-06-15T04:33:48.000+02:00</time>
      </trkpt>
      <trkpt lat="42.69193" lon="-4.08106">
        <ele>1085.5</ele>
        <time>2023-06-15T04:33:50.000+02:00</time>
      </trkpt>
      <trkpt lat="42.69197" lon="-4.08093">
        <ele>1084.3</ele>
        <time>2023-06-15T04:33:51.000+02:00</time>
      </trkpt>
      <trkpt lat="42.69198" lon="-4.08076">
        <ele>1083</ele>
        <time>2023-06-15T04:33:53.000+02:00</time>
      </trkpt>
      <trkpt lat="42.69198" lon="-4.08061">
        <ele>1082</ele>
        <time>2023-06-15T04:33:55.000+02:00</time>
      </trkpt>
      <trkpt lat="42.69195" lon="-4.0805">
        <ele>1081.8</ele>
        <time>2023-06-15T04:33:56.000+02:00</time>
      </trkpt>
      <trkpt lat="42.69182" lon="-4.08019">
        <ele>1081.5</ele>
        <time>2023-06-15T04:34:00.000+02:00</time>
      </trkpt>
      <trkpt lat="42.69139" lon="-4.07926">
        <ele>1079.5</ele>
        <time>2023-06-15T04:34:12.000+02:00</time>
      </trkpt>
      <trkpt lat="42.69127" lon="-4.07899">
        <ele>1077</ele>
        <time>2023-06-15T04:34:16.000+02:00</time>
      </trkpt>
      <trkpt lat="42.69124" lon="-4.07883">
        <ele>1075.3</ele>
        <time>2023-06-15T04:34:18.000+02:00</time>
      </trkpt>
      <trkpt lat="42.69121" lon="-4.07857">
        <ele>1072.8</ele>
        <time>2023-06-15T04:34:21.000+02:00</time>
      </trkpt>
      <trkpt lat="42.69115" lon="-4.07794">
        <ele>1066.8</ele>
        <time>2023-06-15T04:34:28.000+02:00</time>
      </trkpt>
      <trkpt lat="42.6911" lon="-4.07726">
        <ele>1060</ele>
        <time>2023-06-15T04:34:36.000+02:00</time>
      </trkpt>
      <trkpt lat="42.69111" lon="-4.07703">
        <ele>1057.3</ele>
        <time>2023-06-15T04:34:38.000+02:00</time>
      </trkpt>
      <trkpt lat="42.69112" lon="-4.0769">
        <ele>1056</ele>
        <time>2023-06-15T04:34:40.000+02:00</time>
      </trkpt>
      <trkpt lat="42.69116" lon="-4.07681">
        <ele>1055</ele>
        <time>2023-06-15T04:34:41.000+02:00</time>
      </trkpt>
      <trkpt lat="42.69121" lon="-4.07676">
        <ele>1054.3</ele>
        <time>2023-06-15T04:34:42.000+02:00</time>
      </trkpt>
      <trkpt lat="42.69127" lon="-4.07673">
        <ele>1053.8</ele>
        <time>2023-06-15T04:34:43.000+02:00</time>
      </trkpt>
      <trkpt lat="42.69136" lon="-4.07671">
        <ele>1053.3</ele>
        <time>2023-06-15T04:34:44.000+02:00</time>
      </trkpt>
      <trkpt lat="42.69162" lon="-4.07674">
        <ele>1053.5</ele>
        <time>2023-06-15T04:34:48.000+02:00</time>
      </trkpt>
      <trkpt lat="42.69177" lon="-4.07678">
        <ele>1054.3</ele>
        <time>2023-06-15T04:34:50.000+02:00</time>
      </trkpt>
      <trkpt lat="42.69185" lon="-4.07683">
        <ele>1055.3</ele>
        <time>2023-06-15T04:34:52.000+02:00</time>
      </trkpt>
      <trkpt lat="42.69217" lon="-4.0771">
        <ele>1058.8</ele>
        <time>2023-06-15T04:34:58.000+02:00</time>
      </trkpt>
      <trkpt lat="42.6924" lon="-4.07729">
        <ele>1059.3</ele>
        <time>2023-06-15T04:35:02.000+02:00</time>
      </trkpt>
      <trkpt lat="42.69248" lon="-4.07739">
        <ele>1059.5</ele>
        <time>2023-06-15T04:35:03.000+02:00</time>
      </trkpt>
      <trkpt lat="42.69255" lon="-4.07751">
        <ele>1059.5</ele>
        <time>2023-06-15T04:35:05.000+02:00</time>
      </trkpt>
      <trkpt lat="42.6926" lon="-4.07761">
        <ele>1059</ele>
        <time>2023-06-15T04:35:06.000+02:00</time>
      </trkpt>
      <trkpt lat="42.69265" lon="-4.07776">
        <ele>1058.3</ele>
        <time>2023-06-15T04:35:08.000+02:00</time>
      </trkpt>
      <trkpt lat="42.69269" lon="-4.07793">
        <ele>1057.5</ele>
        <time>2023-06-15T04:35:10.000+02:00</time>
      </trkpt>
      <trkpt lat="42.69271" lon="-4.07814">
        <ele>1056.8</ele>
        <time>2023-06-15T04:35:13.000+02:00</time>
      </trkpt>
      <trkpt lat="42.69273" lon="-4.07879">
        <ele>1055.8</ele>
        <time>2023-06-15T04:35:20.000+02:00</time>
      </trkpt>
      <trkpt lat="42.69275" lon="-4.07898">
        <ele>1055</ele>
        <time>2023-06-15T04:35:22.000+02:00</time>
      </trkpt>
      <trkpt lat="42.69279" lon="-4.07927">
        <ele>1053.3</ele>
        <time>2023-06-15T04:35:25.000+02:00</time>
      </trkpt>
      <trkpt lat="42.69286" lon="-4.07961">
        <ele>1050.3</ele>
        <time>2023-06-15T04:35:29.000+02:00</time>
      </trkpt>
      <trkpt lat="42.69289" lon="-4.07982">
        <ele>1048.5</ele>
        <time>2023-06-15T04:35:32.000+02:00</time>
      </trkpt>
      <trkpt lat="42.6929" lon="-4.08002">
        <ele>1047.3</ele>
        <time>2023-06-15T04:35:34.000+02:00</time>
      </trkpt>
      <trkpt lat="42.69291" lon="-4.08044">
        <ele>1045.8</ele>
        <time>2023-06-15T04:35:39.000+02:00</time>
      </trkpt>
      <trkpt lat="42.69293" lon="-4.08065">
        <ele>1044.3</ele>
        <time>2023-06-15T04:35:41.000+02:00</time>
      </trkpt>
      <trkpt lat="42.69311" lon="-4.08175">
        <ele>1033</ele>
        <time>2023-06-15T04:35:54.000+02:00</time>
      </trkpt>
      <trkpt lat="42.69318" lon="-4.08196">
        <ele>1031</ele>
        <time>2023-06-15T04:35:56.000+02:00</time>
      </trkpt>
      <trkpt lat="42.69327" lon="-4.08215">
        <ele>1027.8</ele>
        <time>2023-06-15T04:35:59.000+02:00</time>
      </trkpt>
      <trkpt lat="42.69357" lon="-4.08271">
        <ele>1024.5</ele>
        <time>2023-06-15T04:36:07.000+02:00</time>
      </trkpt>
      <trkpt lat="42.69365" lon="-4.08283">
        <ele>1024.3</ele>
        <time>2023-06-15T04:36:08.000+02:00</time>
      </trkpt>
      <trkpt lat="42.69373" lon="-4.08291">
        <ele>1023</ele>
        <time>2023-06-15T04:36:10.000+02:00</time>
      </trkpt>
      <trkpt lat="42.69407" lon="-4.08314">
        <ele>1016.3</ele>
        <time>2023-06-15T04:36:16.000+02:00</time>
      </trkpt>
      <trkpt lat="42.69416" lon="-4.08322">
        <ele>1015.3</ele>
        <time>2023-06-15T04:36:17.000+02:00</time>
      </trkpt>
      <trkpt lat="42.69424" lon="-4.08336">
        <ele>1016.5</ele>
        <time>2023-06-15T04:36:19.000+02:00</time>
      </trkpt>
      <trkpt lat="42.69466" lon="-4.08403">
        <ele>1018.5</ele>
        <time>2023-06-15T04:36:29.000+02:00</time>
      </trkpt>
      <trkpt lat="42.69538" lon="-4.08515">
        <ele>1017.5</ele>
        <time>2023-06-15T04:36:46.000+02:00</time>
      </trkpt>
      <trkpt lat="42.69564" lon="-4.08554">
        <ele>1013</ele>
        <time>2023-06-15T04:36:52.000+02:00</time>
      </trkpt>
      <trkpt lat="42.69571" lon="-4.08566">
        <ele>1011.3</ele>
        <time>2023-06-15T04:36:54.000+02:00</time>
      </trkpt>
      <trkpt lat="42.69583" lon="-4.08593">
        <ele>1008.3</ele>
        <time>2023-06-15T04:36:57.000+02:00</time>
      </trkpt>
      <trkpt lat="42.69591" lon="-4.08607">
        <ele>1009.8</ele>
        <time>2023-06-15T04:36:59.000+02:00</time>
      </trkpt>
      <trkpt lat="42.69599" lon="-4.08615">
        <ele>1010.5</ele>
        <time>2023-06-15T04:37:01.000+02:00</time>
      </trkpt>
      <trkpt lat="42.69606" lon="-4.08622">
        <ele>1010.5</ele>
        <time>2023-06-15T04:37:02.000+02:00</time>
      </trkpt>
      <trkpt lat="42.69609" lon="-4.08622">
        <ele>1010.3</ele>
        <time>2023-06-15T04:37:02.000+02:00</time>
      </trkpt>
      <trkpt lat="42.69616" lon="-4.08638">
        <ele>1011</ele>
        <time>2023-06-15T04:37:05.000+02:00</time>
      </trkpt>
      <trkpt lat="42.69629" lon="-4.08663">
        <ele>1010.5</ele>
        <time>2023-06-15T04:37:08.000+02:00</time>
      </trkpt>
      <trkpt lat="42.69664" lon="-4.08711">
        <ele>1006.8</ele>
        <time>2023-06-15T04:37:16.000+02:00</time>
      </trkpt>
      <trkpt lat="42.69683" lon="-4.0874">
        <ele>1011.3</ele>
        <time>2023-06-15T04:37:20.000+02:00</time>
      </trkpt>
      <trkpt lat="42.69696" lon="-4.08761">
        <ele>1014.5</ele>
        <time>2023-06-15T04:37:23.000+02:00</time>
      </trkpt>
      <trkpt lat="42.69711" lon="-4.08794">
        <ele>1016.5</ele>
        <time>2023-06-15T04:37:27.000+02:00</time>
      </trkpt>
      <trkpt lat="42.69716" lon="-4.08816">
        <ele>1016.3</ele>
        <time>2023-06-15T04:37:30.000+02:00</time>
      </trkpt>
      <trkpt lat="42.69722" lon="-4.08841">
        <ele>1015.8</ele>
        <time>2023-06-15T04:37:33.000+02:00</time>
      </trkpt>
      <trkpt lat="42.69727" lon="-4.0886">
        <ele>1016</ele>
        <time>2023-06-15T04:37:35.000+02:00</time>
      </trkpt>
      <trkpt lat="42.69733" lon="-4.08881">
        <ele>1015.5</ele>
        <time>2023-06-15T04:37:38.000+02:00</time>
      </trkpt>
      <trkpt lat="42.69748" lon="-4.08915">
        <ele>1011.5</ele>
        <time>2023-06-15T04:37:42.000+02:00</time>
      </trkpt>
      <trkpt lat="42.69776" lon="-4.0897">
        <ele>1021</ele>
        <time>2023-06-15T04:37:50.000+02:00</time>
      </trkpt>
      <trkpt lat="42.69806" lon="-4.0903">
        <ele>1026.3</ele>
        <time>2023-06-15T04:37:58.000+02:00</time>
      </trkpt>
      <trkpt lat="42.69816" lon="-4.09053">
        <ele>1025.3</ele>
        <time>2023-06-15T04:38:01.000+02:00</time>
      </trkpt>
      <trkpt lat="42.6982" lon="-4.09066">
        <ele>1024</ele>
        <time>2023-06-15T04:38:02.000+02:00</time>
      </trkpt>
      <trkpt lat="42.69826" lon="-4.09097">
        <ele>1022.5</ele>
        <time>2023-06-15T04:38:06.000+02:00</time>
      </trkpt>
      <trkpt lat="42.69838" lon="-4.09142">
        <ele>1024.5</ele>
        <time>2023-06-15T04:38:11.000+02:00</time>
      </trkpt>
      <trkpt lat="42.69847" lon="-4.09169">
        <ele>1028</ele>
        <time>2023-06-15T04:38:15.000+02:00</time>
      </trkpt>
      <trkpt lat="42.69857" lon="-4.09198">
        <ele>1031.8</ele>
        <time>2023-06-15T04:38:18.000+02:00</time>
      </trkpt>
      <trkpt lat="42.69862" lon="-4.09212">
        <ele>1032.8</ele>
        <time>2023-06-15T04:38:20.000+02:00</time>
      </trkpt>
      <trkpt lat="42.69867" lon="-4.09224">
        <ele>1033</ele>
        <time>2023-06-15T04:38:22.000+02:00</time>
      </trkpt>
      <trkpt lat="42.69874" lon="-4.09234">
        <ele>1032.8</ele>
        <time>2023-06-15T04:38:23.000+02:00</time>
      </trkpt>
      <trkpt lat="42.69882" lon="-4.09241">
        <ele>1032</ele>
        <time>2023-06-15T04:38:25.000+02:00</time>
      </trkpt>
      <trkpt lat="42.69896" lon="-4.09253">
        <ele>1030</ele>
        <time>2023-06-15T04:38:27.000+02:00</time>
      </trkpt>
      <trkpt lat="42.69919" lon="-4.09269">
        <ele>1029</ele>
        <time>2023-06-15T04:38:31.000+02:00</time>
      </trkpt>
      <trkpt lat="42.69927" lon="-4.09278">
        <ele>1030.5</ele>
        <time>2023-06-15T04:38:33.000+02:00</time>
      </trkpt>
      <trkpt lat="42.69936" lon="-4.0929">
        <ele>1031.8</ele>
        <time>2023-06-15T04:38:35.000+02:00</time>
      </trkpt>
      <trkpt lat="42.69967" lon="-4.09337">
        <ele>1033.5</ele>
        <time>2023-06-15T04:38:42.000+02:00</time>
      </trkpt>
      <trkpt lat="42.69993" lon="-4.09371">
        <ele>1035</ele>
        <time>2023-06-15T04:38:47.000+02:00</time>
      </trkpt>
      <trkpt lat="42.7001" lon="-4.09396">
        <ele>1036.3</ele>
        <time>2023-06-15T04:38:51.000+02:00</time>
      </trkpt>
      <trkpt lat="42.70051" lon="-4.09486">
        <ele>1043.3</ele>
        <time>2023-06-15T04:39:03.000+02:00</time>
      </trkpt>
      <trkpt lat="42.70064" lon="-4.09505">
        <ele>1041.8</ele>
        <time>2023-06-15T04:39:06.000+02:00</time>
      </trkpt>
      <trkpt lat="42.70077" lon="-4.09522">
        <ele>1040.3</ele>
        <time>2023-06-15T04:39:09.000+02:00</time>
      </trkpt>
      <trkpt lat="42.70086" lon="-4.09539">
        <ele>1040.3</ele>
        <time>2023-06-15T04:39:11.000+02:00</time>
      </trkpt>
      <trkpt lat="42.70108" lon="-4.09585">
        <ele>1045</ele>
        <time>2023-06-15T04:39:17.000+02:00</time>
      </trkpt>
      <trkpt lat="42.70116" lon="-4.09599">
        <ele>1046.8</ele>
        <time>2023-06-15T04:39:19.000+02:00</time>
      </trkpt>
      <trkpt lat="42.70132" lon="-4.09621">
        <ele>1048.3</ele>
        <time>2023-06-15T04:39:23.000+02:00</time>
      </trkpt>
      <trkpt lat="42.7014" lon="-4.09638">
        <ele>1048.8</ele>
        <time>2023-06-15T04:39:25.000+02:00</time>
      </trkpt>
      <trkpt lat="42.70149" lon="-4.09655">
        <ele>1048.8</ele>
        <time>2023-06-15T04:39:27.000+02:00</time>
      </trkpt>
      <trkpt lat="42.7016" lon="-4.09683">
        <ele>1048.8</ele>
        <time>2023-06-15T04:39:31.000+02:00</time>
      </trkpt>
      <trkpt lat="42.70192" lon="-4.09773">
        <ele>1055.5</ele>
        <time>2023-06-15T04:39:42.000+02:00</time>
      </trkpt>
      <trkpt lat="42.70196" lon="-4.09781">
        <ele>1056.3</ele>
        <time>2023-06-15T04:39:43.000+02:00</time>
      </trkpt>
      <trkpt lat="42.70197" lon="-4.09783">
        <ele>1056.5</ele>
        <time>2023-06-15T04:39:43.000+02:00</time>
      </trkpt>
      <trkpt lat="42.70215" lon="-4.09809">
        <ele>1057.5</ele>
        <time>2023-06-15T04:39:47.000+02:00</time>
      </trkpt>
      <trkpt lat="42.70234" lon="-4.09862">
        <ele>1056.3</ele>
        <time>2023-06-15T04:39:54.000+02:00</time>
      </trkpt>
      <trkpt lat="42.70251" lon="-4.09902">
        <ele>1052.8</ele>
        <time>2023-06-15T04:39:59.000+02:00</time>
      </trkpt>
      <trkpt lat="42.70279" lon="-4.0997">
        <ele>1061</ele>
        <time>2023-06-15T04:40:08.000+02:00</time>
      </trkpt>
      <trkpt lat="42.70287" lon="-4.10001">
        <ele>1062.5</ele>
        <time>2023-06-15T04:40:12.000+02:00</time>
      </trkpt>
      <trkpt lat="42.70291" lon="-4.10014">
        <ele>1063.8</ele>
        <time>2023-06-15T04:40:13.000+02:00</time>
      </trkpt>
      <trkpt lat="42.7031" lon="-4.10055">
        <ele>1064.5</ele>
        <time>2023-06-15T04:40:19.000+02:00</time>
      </trkpt>
      <trkpt lat="42.70317" lon="-4.10073">
        <ele>1063.5</ele>
        <time>2023-06-15T04:40:21.000+02:00</time>
      </trkpt>
      <trkpt lat="42.70336" lon="-4.10121">
        <ele>1063.8</ele>
        <time>2023-06-15T04:40:27.000+02:00</time>
      </trkpt>
      <trkpt lat="42.70349" lon="-4.10159">
        <ele>1068</ele>
        <time>2023-06-15T04:40:32.000+02:00</time>
      </trkpt>
      <trkpt lat="42.70362" lon="-4.10185">
        <ele>1071.3</ele>
        <time>2023-06-15T04:40:35.000+02:00</time>
      </trkpt>
      <trkpt lat="42.70368" lon="-4.10204">
        <ele>1072.5</ele>
        <time>2023-06-15T04:40:38.000+02:00</time>
      </trkpt>
      <trkpt lat="42.70374" lon="-4.10224">
        <ele>1073.3</ele>
        <time>2023-06-15T04:40:40.000+02:00</time>
      </trkpt>
      <trkpt lat="42.70384" lon="-4.10256">
        <ele>1073.3</ele>
        <time>2023-06-15T04:40:44.000+02:00</time>
      </trkpt>
      <trkpt lat="42.70393" lon="-4.10279">
        <ele>1073</ele>
        <time>2023-06-15T04:40:47.000+02:00</time>
      </trkpt>
      <trkpt lat="42.7041" lon="-4.10318">
        <ele>1070.8</ele>
        <time>2023-06-15T04:40:52.000+02:00</time>
      </trkpt>
      <trkpt lat="42.70416" lon="-4.1033">
        <ele>1069.3</ele>
        <time>2023-06-15T04:40:53.000+02:00</time>
      </trkpt>
      <trkpt lat="42.70423" lon="-4.10341">
        <ele>1070.5</ele>
        <time>2023-06-15T04:40:55.000+02:00</time>
      </trkpt>
      <trkpt lat="42.70436" lon="-4.10363">
        <ele>1074</ele>
        <time>2023-06-15T04:40:58.000+02:00</time>
      </trkpt>
      <trkpt lat="42.70456" lon="-4.10412">
        <ele>1079</ele>
        <time>2023-06-15T04:41:05.000+02:00</time>
      </trkpt>
      <trkpt lat="42.70481" lon="-4.10463">
        <ele>1079.8</ele>
        <time>2023-06-15T04:41:12.000+02:00</time>
      </trkpt>
      <trkpt lat="42.70493" lon="-4.10488">
        <ele>1078.3</ele>
        <time>2023-06-15T04:41:15.000+02:00</time>
      </trkpt>
      <trkpt lat="42.70502" lon="-4.1051">
        <ele>1077.3</ele>
        <time>2023-06-15T04:41:18.000+02:00</time>
      </trkpt>
      <trkpt lat="42.70511" lon="-4.10534">
        <ele>1078.8</ele>
        <time>2023-06-15T04:41:21.000+02:00</time>
      </trkpt>
      <trkpt lat="42.70535" lon="-4.1059">
        <ele>1082.8</ele>
        <time>2023-06-15T04:41:28.000+02:00</time>
      </trkpt>
      <trkpt lat="42.70568" lon="-4.10673">
        <ele>1086</ele>
        <time>2023-06-15T04:41:39.000+02:00</time>
      </trkpt>
      <trkpt lat="42.70574" lon="-4.10692">
        <ele>1085.5</ele>
        <time>2023-06-15T04:41:41.000+02:00</time>
      </trkpt>
      <trkpt lat="42.70581" lon="-4.10716">
        <ele>1084.8</ele>
        <time>2023-06-15T04:41:44.000+02:00</time>
      </trkpt>
      <trkpt lat="42.70595" lon="-4.10759">
        <ele>1085.3</ele>
        <time>2023-06-15T04:41:49.000+02:00</time>
      </trkpt>
      <trkpt lat="42.70625" lon="-4.10841">
        <ele>1089</ele>
        <time>2023-06-15T04:41:59.000+02:00</time>
      </trkpt>
      <trkpt lat="42.70634" lon="-4.1087">
        <ele>1090.5</ele>
        <time>2023-06-15T04:42:03.000+02:00</time>
      </trkpt>
      <trkpt lat="42.70638" lon="-4.10882">
        <ele>1090.8</ele>
        <time>2023-06-15T04:42:04.000+02:00</time>
      </trkpt>
      <trkpt lat="42.70645" lon="-4.10893">
        <ele>1090.8</ele>
        <time>2023-06-15T04:42:06.000+02:00</time>
      </trkpt>
      <trkpt lat="42.70654" lon="-4.10908">
        <ele>1090.3</ele>
        <time>2023-06-15T04:42:08.000+02:00</time>
      </trkpt>
      <trkpt lat="42.70688" lon="-4.10983">
        <ele>1094</ele>
        <time>2023-06-15T04:42:18.000+02:00</time>
      </trkpt>
      <trkpt lat="42.70706" lon="-4.11023">
        <ele>1096</ele>
        <time>2023-06-15T04:42:23.000+02:00</time>
      </trkpt>
      <trkpt lat="42.70716" lon="-4.11063">
        <ele>1097</ele>
        <time>2023-06-15T04:42:28.000+02:00</time>
      </trkpt>
      <trkpt lat="42.70722" lon="-4.11084">
        <ele>1097.3</ele>
        <time>2023-06-15T04:42:31.000+02:00</time>
      </trkpt>
      <trkpt lat="42.70733" lon="-4.11112">
        <ele>1097</ele>
        <time>2023-06-15T04:42:34.000+02:00</time>
      </trkpt>
      <trkpt lat="42.70747" lon="-4.11155">
        <ele>1095.5</ele>
        <time>2023-06-15T04:42:40.000+02:00</time>
      </trkpt>
      <trkpt lat="42.70757" lon="-4.11179">
        <ele>1095.8</ele>
        <time>2023-06-15T04:42:43.000+02:00</time>
      </trkpt>
      <trkpt lat="42.70786" lon="-4.11241">
        <ele>1101.3</ele>
        <time>2023-06-15T04:42:51.000+02:00</time>
      </trkpt>
      <trkpt lat="42.70796" lon="-4.11268">
        <ele>1103.3</ele>
        <time>2023-06-15T04:42:54.000+02:00</time>
      </trkpt>
      <trkpt lat="42.70807" lon="-4.11303">
        <ele>1104</ele>
        <time>2023-06-15T04:42:59.000+02:00</time>
      </trkpt>
      <trkpt lat="42.70827" lon="-4.11363">
        <ele>1102</ele>
        <time>2023-06-15T04:43:06.000+02:00</time>
      </trkpt>
      <trkpt lat="42.70838" lon="-4.11392">
        <ele>1100</ele>
        <time>2023-06-15T04:43:10.000+02:00</time>
      </trkpt>
      <trkpt lat="42.7085" lon="-4.11426">
        <ele>1099.8</ele>
        <time>2023-06-15T04:43:14.000+02:00</time>
      </trkpt>
      <trkpt lat="42.70871" lon="-4.1149">
        <ele>1102.8</ele>
        <time>2023-06-15T04:43:22.000+02:00</time>
      </trkpt>
      <trkpt lat="42.70878" lon="-4.1151">
        <ele>1103.5</ele>
        <time>2023-06-15T04:43:24.000+02:00</time>
      </trkpt>
      <trkpt lat="42.70897" lon="-4.11576">
        <ele>1103.8</ele>
        <time>2023-06-15T04:43:32.000+02:00</time>
      </trkpt>
      <trkpt lat="42.70903" lon="-4.11609">
        <ele>1103.8</ele>
        <time>2023-06-15T04:43:36.000+02:00</time>
      </trkpt>
      <trkpt lat="42.70925" lon="-4.11682">
        <ele>1103</ele>
        <time>2023-06-15T04:43:45.000+02:00</time>
      </trkpt>
      <trkpt lat="42.70959" lon="-4.11806">
        <ele>1108.8</ele>
        <time>2023-06-15T04:44:00.000+02:00</time>
      </trkpt>
      <trkpt lat="42.70965" lon="-4.11828">
        <ele>1110.5</ele>
        <time>2023-06-15T04:44:02.000+02:00</time>
      </trkpt>
      <trkpt lat="42.70971" lon="-4.11865">
        <ele>1111.5</ele>
        <time>2023-06-15T04:44:07.000+02:00</time>
      </trkpt>
      <trkpt lat="42.70983" lon="-4.1192">
        <ele>1112</ele>
        <time>2023-06-15T04:44:13.000+02:00</time>
      </trkpt>
      <trkpt lat="42.70995" lon="-4.12001">
        <ele>1109</ele>
        <time>2023-06-15T04:44:22.000+02:00</time>
      </trkpt>
      <trkpt lat="42.71001" lon="-4.12047">
        <ele>1108.5</ele>
        <time>2023-06-15T04:44:28.000+02:00</time>
      </trkpt>
      <trkpt lat="42.71002" lon="-4.12063">
        <ele>1108.3</ele>
        <time>2023-06-15T04:44:29.000+02:00</time>
      </trkpt>
      <trkpt lat="42.71" lon="-4.12099">
        <ele>1108.8</ele>
        <time>2023-06-15T04:44:33.000+02:00</time>
      </trkpt>
      <trkpt lat="42.71002" lon="-4.12116">
        <ele>1110.3</ele>
        <time>2023-06-15T04:44:35.000+02:00</time>
      </trkpt>
      <trkpt lat="42.71005" lon="-4.12133">
        <ele>1111.5</ele>
        <time>2023-06-15T04:44:37.000+02:00</time>
      </trkpt>
      <trkpt lat="42.71006" lon="-4.12145">
        <ele>1112.3</ele>
        <time>2023-06-15T04:44:39.000+02:00</time>
      </trkpt>
      <trkpt lat="42.71007" lon="-4.12197">
        <ele>1112.8</ele>
        <time>2023-06-15T04:44:44.000+02:00</time>
      </trkpt>
      <trkpt lat="42.7101" lon="-4.1223">
        <ele>1112</ele>
        <time>2023-06-15T04:44:48.000+02:00</time>
      </trkpt>
      <trkpt lat="42.7101" lon="-4.12246">
        <ele>1111.5</ele>
        <time>2023-06-15T04:44:50.000+02:00</time>
      </trkpt>
      <trkpt lat="42.71011" lon="-4.1226">
        <ele>1111.5</ele>
        <time>2023-06-15T04:44:51.000+02:00</time>
      </trkpt>
      <trkpt lat="42.71024" lon="-4.12342">
        <ele>1113.5</ele>
        <time>2023-06-15T04:45:01.000+02:00</time>
      </trkpt>
      <trkpt lat="42.7103" lon="-4.12366">
        <ele>1114.3</ele>
        <time>2023-06-15T04:45:04.000+02:00</time>
      </trkpt>
      <trkpt lat="42.71035" lon="-4.12384">
        <ele>1115.3</ele>
        <time>2023-06-15T04:45:06.000+02:00</time>
      </trkpt>
      <trkpt lat="42.71044" lon="-4.12411">
        <ele>1116.5</ele>
        <time>2023-06-15T04:45:09.000+02:00</time>
      </trkpt>
      <trkpt lat="42.71051" lon="-4.12444">
        <ele>1117.5</ele>
        <time>2023-06-15T04:45:13.000+02:00</time>
      </trkpt>
      <trkpt lat="42.71057" lon="-4.12497">
        <ele>1117.8</ele>
        <time>2023-06-15T04:45:19.000+02:00</time>
      </trkpt>
      <trkpt lat="42.71067" lon="-4.12541">
        <ele>1117.8</ele>
        <time>2023-06-15T04:45:24.000+02:00</time>
      </trkpt>
      <trkpt lat="42.71072" lon="-4.12569">
        <ele>1117.3</ele>
        <time>2023-06-15T04:45:28.000+02:00</time>
      </trkpt>
      <trkpt lat="42.71074" lon="-4.12577">
        <ele>1117</ele>
        <time>2023-06-15T04:45:29.000+02:00</time>
      </trkpt>
      <trkpt lat="42.71075" lon="-4.12588">
        <ele>1117</ele>
        <time>2023-06-15T04:45:31.000+02:00</time>
      </trkpt>
      <trkpt lat="42.71077" lon="-4.12614">
        <ele>1116.5</ele>
        <time>2023-06-15T04:45:34.000+02:00</time>
      </trkpt>
      <trkpt lat="42.71079" lon="-4.12627">
        <ele>1116</ele>
        <time>2023-06-15T04:45:35.000+02:00</time>
      </trkpt>
      <trkpt lat="42.71081" lon="-4.12635">
        <ele>1115.8</ele>
        <time>2023-06-15T04:45:36.000+02:00</time>
      </trkpt>
      <trkpt lat="42.71088" lon="-4.12648">
        <ele>1116</ele>
        <time>2023-06-15T04:45:38.000+02:00</time>
      </trkpt>
      <trkpt lat="42.71102" lon="-4.12673">
        <ele>1117.8</ele>
        <time>2023-06-15T04:45:41.000+02:00</time>
      </trkpt>
      <trkpt lat="42.71108" lon="-4.12684">
        <ele>1118.5</ele>
        <time>2023-06-15T04:45:43.000+02:00</time>
      </trkpt>
      <trkpt lat="42.71112" lon="-4.12697">
        <ele>1119</ele>
        <time>2023-06-15T04:45:45.000+02:00</time>
      </trkpt>
      <trkpt lat="42.71117" lon="-4.12722">
        <ele>1119.5</ele>
        <time>2023-06-15T04:45:47.000+02:00</time>
      </trkpt>
      <trkpt lat="42.71124" lon="-4.12751">
        <ele>1120.3</ele>
        <time>2023-06-15T04:45:51.000+02:00</time>
      </trkpt>
      <trkpt lat="42.71167" lon="-4.12911">
        <ele>1122</ele>
        <time>2023-06-15T04:46:10.000+02:00</time>
      </trkpt>
      <trkpt lat="42.71177" lon="-4.12951">
        <ele>1123</ele>
        <time>2023-06-15T04:46:15.000+02:00</time>
      </trkpt>
      <trkpt lat="42.71197" lon="-4.13049">
        <ele>1125.3</ele>
        <time>2023-06-15T04:46:26.000+02:00</time>
      </trkpt>
      <trkpt lat="42.71206" lon="-4.13088">
        <ele>1126.5</ele>
        <time>2023-06-15T04:46:31.000+02:00</time>
      </trkpt>
      <trkpt lat="42.71215" lon="-4.13127">
        <ele>1128</ele>
        <time>2023-06-15T04:46:35.000+02:00</time>
      </trkpt>
      <trkpt lat="42.71225" lon="-4.13178">
        <ele>1129</ele>
        <time>2023-06-15T04:46:41.000+02:00</time>
      </trkpt>
      <trkpt lat="42.7123" lon="-4.1321">
        <ele>1129</ele>
        <time>2023-06-15T04:46:45.000+02:00</time>
      </trkpt>
      <trkpt lat="42.71242" lon="-4.13247">
        <ele>1128.8</ele>
        <time>2023-06-15T04:46:49.000+02:00</time>
      </trkpt>
      <trkpt lat="42.7125" lon="-4.13277">
        <ele>1129.3</ele>
        <time>2023-06-15T04:46:53.000+02:00</time>
      </trkpt>
      <trkpt lat="42.71268" lon="-4.1336">
        <ele>1128.8</ele>
        <time>2023-06-15T04:47:03.000+02:00</time>
      </trkpt>
      <trkpt lat="42.71283" lon="-4.13426">
        <ele>1130</ele>
        <time>2023-06-15T04:47:11.000+02:00</time>
      </trkpt>
      <trkpt lat="42.71292" lon="-4.13461">
        <ele>1130.5</ele>
        <time>2023-06-15T04:47:15.000+02:00</time>
      </trkpt>
      <trkpt lat="42.71304" lon="-4.13493">
        <ele>1131.5</ele>
        <time>2023-06-15T04:47:19.000+02:00</time>
      </trkpt>
      <trkpt lat="42.71307" lon="-4.13503">
        <ele>1132</ele>
        <time>2023-06-15T04:47:20.000+02:00</time>
      </trkpt>
      <trkpt lat="42.7131" lon="-4.13516">
        <ele>1132.5</ele>
        <time>2023-06-15T04:47:22.000+02:00</time>
      </trkpt>
      <trkpt lat="42.71313" lon="-4.1354">
        <ele>1133.3</ele>
        <time>2023-06-15T04:47:24.000+02:00</time>
      </trkpt>
      <trkpt lat="42.71328" lon="-4.13604">
        <ele>1135.8</ele>
        <time>2023-06-15T04:47:32.000+02:00</time>
      </trkpt>
      <trkpt lat="42.71348" lon="-4.13698">
        <ele>1132.3</ele>
        <time>2023-06-15T04:47:43.000+02:00</time>
      </trkpt>
      <trkpt lat="42.71364" lon="-4.13781">
        <ele>1127</ele>
        <time>2023-06-15T04:47:52.000+02:00</time>
      </trkpt>
      <trkpt lat="42.71373" lon="-4.13839">
        <ele>1128.3</ele>
        <time>2023-06-15T04:47:59.000+02:00</time>
      </trkpt>
      <trkpt lat="42.7138" lon="-4.13868">
        <ele>1128.5</ele>
        <time>2023-06-15T04:48:02.000+02:00</time>
      </trkpt>
      <trkpt lat="42.71386" lon="-4.13894">
        <ele>1128.3</ele>
        <time>2023-06-15T04:48:06.000+02:00</time>
      </trkpt>
      <trkpt lat="42.71394" lon="-4.13938">
        <ele>1130.5</ele>
        <time>2023-06-15T04:48:11.000+02:00</time>
      </trkpt>
      <trkpt lat="42.71405" lon="-4.14014">
        <ele>1136.5</ele>
        <time>2023-06-15T04:48:19.000+02:00</time>
      </trkpt>
      <trkpt lat="42.7141" lon="-4.14052">
        <ele>1136.3</ele>
        <time>2023-06-15T04:48:24.000+02:00</time>
      </trkpt>
      <trkpt lat="42.71418" lon="-4.14171">
        <ele>1132.3</ele>
        <time>2023-06-15T04:48:37.000+02:00</time>
      </trkpt>
      <trkpt lat="42.71424" lon="-4.14267">
        <ele>1131.8</ele>
        <time>2023-06-15T04:48:48.000+02:00</time>
      </trkpt>
      <trkpt lat="42.71431" lon="-4.14332">
        <ele>1126.5</ele>
        <time>2023-06-15T04:48:55.000+02:00</time>
      </trkpt>
      <trkpt lat="42.71435" lon="-4.14406">
        <ele>1123.5</ele>
        <time>2023-06-15T04:49:04.000+02:00</time>
      </trkpt>
      <trkpt lat="42.71441" lon="-4.14477">
        <ele>1125.8</ele>
        <time>2023-06-15T04:49:12.000+02:00</time>
      </trkpt>
      <trkpt lat="42.71444" lon="-4.145">
        <ele>1127</ele>
        <time>2023-06-15T04:49:14.000+02:00</time>
      </trkpt>
      <trkpt lat="42.71451" lon="-4.1454">
        <ele>1127.3</ele>
        <time>2023-06-15T04:49:19.000+02:00</time>
      </trkpt>
      <trkpt lat="42.71456" lon="-4.14575">
        <ele>1128</ele>
        <time>2023-06-15T04:49:23.000+02:00</time>
      </trkpt>
      <trkpt lat="42.71461" lon="-4.14611">
        <ele>1128.8</ele>
        <time>2023-06-15T04:49:27.000+02:00</time>
      </trkpt>
      <trkpt lat="42.71465" lon="-4.1464">
        <ele>1129</ele>
        <time>2023-06-15T04:49:30.000+02:00</time>
      </trkpt>
      <trkpt lat="42.71475" lon="-4.14713">
        <ele>1128.5</ele>
        <time>2023-06-15T04:49:39.000+02:00</time>
      </trkpt>
      <trkpt lat="42.7148" lon="-4.14742">
        <ele>1127.8</ele>
        <time>2023-06-15T04:49:42.000+02:00</time>
      </trkpt>
      <trkpt lat="42.71484" lon="-4.14774">
        <ele>1127</ele>
        <time>2023-06-15T04:49:46.000+02:00</time>
      </trkpt>
      <trkpt lat="42.71501" lon="-4.14951">
        <ele>1123.3</ele>
        <time>2023-06-15T04:50:06.000+02:00</time>
      </trkpt>
      <trkpt lat="42.71507" lon="-4.15">
        <ele>1121.5</ele>
        <time>2023-06-15T04:50:11.000+02:00</time>
      </trkpt>
      <trkpt lat="42.71511" lon="-4.15044">
        <ele>1119</ele>
        <time>2023-06-15T04:50:16.000+02:00</time>
      </trkpt>
      <trkpt lat="42.71513" lon="-4.15069">
        <ele>1117.5</ele>
        <time>2023-06-15T04:50:19.000+02:00</time>
      </trkpt>
      <trkpt lat="42.71517" lon="-4.1508">
        <ele>1116.5</ele>
        <time>2023-06-15T04:50:20.000+02:00</time>
      </trkpt>
      <trkpt lat="42.71522" lon="-4.15106">
        <ele>1115.8</ele>
        <time>2023-06-15T04:50:23.000+02:00</time>
      </trkpt>
      <trkpt lat="42.71535" lon="-4.15186">
        <ele>1116</ele>
        <time>2023-06-15T04:50:33.000+02:00</time>
      </trkpt>
      <trkpt lat="42.71539" lon="-4.15232">
        <ele>1117.5</ele>
        <time>2023-06-15T04:50:38.000+02:00</time>
      </trkpt>
      <trkpt lat="42.71543" lon="-4.15255">
        <ele>1118.5</ele>
        <time>2023-06-15T04:50:40.000+02:00</time>
      </trkpt>
      <trkpt lat="42.7155" lon="-4.1528">
        <ele>1119</ele>
        <time>2023-06-15T04:50:43.000+02:00</time>
      </trkpt>
      <trkpt lat="42.71553" lon="-4.15296">
        <ele>1119</ele>
        <time>2023-06-15T04:50:45.000+02:00</time>
      </trkpt>
      <trkpt lat="42.71557" lon="-4.15328">
        <ele>1119</ele>
        <time>2023-06-15T04:50:49.000+02:00</time>
      </trkpt>
      <trkpt lat="42.71563" lon="-4.15395">
        <ele>1116.5</ele>
        <time>2023-06-15T04:50:56.000+02:00</time>
      </trkpt>
      <trkpt lat="42.71566" lon="-4.15458">
        <ele>1116</ele>
        <time>2023-06-15T04:51:04.000+02:00</time>
      </trkpt>
      <trkpt lat="42.71573" lon="-4.15508">
        <ele>1116</ele>
        <time>2023-06-15T04:51:09.000+02:00</time>
      </trkpt>
      <trkpt lat="42.71582" lon="-4.15566">
        <ele>1114.3</ele>
        <time>2023-06-15T04:51:16.000+02:00</time>
      </trkpt>
      <trkpt lat="42.71587" lon="-4.15618">
        <ele>1110.3</ele>
        <time>2023-06-15T04:51:22.000+02:00</time>
      </trkpt>
      <trkpt lat="42.71593" lon="-4.15657">
        <ele>1107</ele>
        <time>2023-06-15T04:51:26.000+02:00</time>
      </trkpt>
      <trkpt lat="42.71599" lon="-4.15728">
        <ele>1102.8</ele>
        <time>2023-06-15T04:51:34.000+02:00</time>
      </trkpt>
      <trkpt lat="42.71603" lon="-4.15767">
        <ele>1102</ele>
        <time>2023-06-15T04:51:39.000+02:00</time>
      </trkpt>
      <trkpt lat="42.71606" lon="-4.15834">
        <ele>1104</ele>
        <time>2023-06-15T04:51:46.000+02:00</time>
      </trkpt>
      <trkpt lat="42.71613" lon="-4.15904">
        <ele>1104</ele>
        <time>2023-06-15T04:51:54.000+02:00</time>
      </trkpt>
      <trkpt lat="42.7162" lon="-4.15975">
        <ele>1106.5</ele>
        <time>2023-06-15T04:52:02.000+02:00</time>
      </trkpt>
      <trkpt lat="42.71623" lon="-4.16">
        <ele>1107.8</ele>
        <time>2023-06-15T04:52:05.000+02:00</time>
      </trkpt>
      <trkpt lat="42.71629" lon="-4.16031">
        <ele>1107.3</ele>
        <time>2023-06-15T04:52:09.000+02:00</time>
      </trkpt>
      <trkpt lat="42.71632" lon="-4.1605">
        <ele>1106.8</ele>
        <time>2023-06-15T04:52:11.000+02:00</time>
      </trkpt>
      <trkpt lat="42.71633" lon="-4.16062">
        <ele>1106.3</ele>
        <time>2023-06-15T04:52:12.000+02:00</time>
      </trkpt>
      <trkpt lat="42.71632" lon="-4.16091">
        <ele>1105.3</ele>
        <time>2023-06-15T04:52:15.000+02:00</time>
      </trkpt>
      <trkpt lat="42.71638" lon="-4.16163">
        <ele>1105.3</ele>
        <time>2023-06-15T04:52:24.000+02:00</time>
      </trkpt>
      <trkpt lat="42.71643" lon="-4.16207">
        <ele>1104.5</ele>
        <time>2023-06-15T04:52:29.000+02:00</time>
      </trkpt>
      <trkpt lat="42.71644" lon="-4.16217">
        <ele>1104.3</ele>
        <time>2023-06-15T04:52:30.000+02:00</time>
      </trkpt>
      <trkpt lat="42.71646" lon="-4.16312">
        <ele>1101.3</ele>
        <time>2023-06-15T04:52:40.000+02:00</time>
      </trkpt>
      <trkpt lat="42.71648" lon="-4.16333">
        <ele>1100.5</ele>
        <time>2023-06-15T04:52:43.000+02:00</time>
      </trkpt>
      <trkpt lat="42.71652" lon="-4.16374">
        <ele>1100</ele>
        <time>2023-06-15T04:52:47.000+02:00</time>
      </trkpt>
      <trkpt lat="42.71652" lon="-4.16403">
        <ele>1099.5</ele>
        <time>2023-06-15T04:52:51.000+02:00</time>
      </trkpt>
      <trkpt lat="42.71654" lon="-4.16426">
        <ele>1099</ele>
        <time>2023-06-15T04:52:53.000+02:00</time>
      </trkpt>
      <trkpt lat="42.71654" lon="-4.16451">
        <ele>1098.3</ele>
        <time>2023-06-15T04:52:56.000+02:00</time>
      </trkpt>
      <trkpt lat="42.71654" lon="-4.16534">
        <ele>1096.3</ele>
        <time>2023-06-15T04:53:05.000+02:00</time>
      </trkpt>
      <trkpt lat="42.71655" lon="-4.16556">
        <ele>1095.8</ele>
        <time>2023-06-15T04:53:08.000+02:00</time>
      </trkpt>
      <trkpt lat="42.71656" lon="-4.16567">
        <ele>1095.5</ele>
        <time>2023-06-15T04:53:09.000+02:00</time>
      </trkpt>
      <trkpt lat="42.7166" lon="-4.16595">
        <ele>1095</ele>
        <time>2023-06-15T04:53:12.000+02:00</time>
      </trkpt>
      <trkpt lat="42.71659" lon="-4.16632">
        <ele>1094</ele>
        <time>2023-06-15T04:53:17.000+02:00</time>
      </trkpt>
      <trkpt lat="42.71655" lon="-4.16654">
        <ele>1093.8</ele>
        <time>2023-06-15T04:53:19.000+02:00</time>
      </trkpt>
      <trkpt lat="42.71653" lon="-4.16671">
        <ele>1093.3</ele>
        <time>2023-06-15T04:53:21.000+02:00</time>
      </trkpt>
      <trkpt lat="42.71654" lon="-4.16698">
        <ele>1092</ele>
        <time>2023-06-15T04:53:24.000+02:00</time>
      </trkpt>
      <trkpt lat="42.71653" lon="-4.16728">
        <ele>1090.8</ele>
        <time>2023-06-15T04:53:27.000+02:00</time>
      </trkpt>
      <trkpt lat="42.71651" lon="-4.16754">
        <ele>1089.8</ele>
        <time>2023-06-15T04:53:30.000+02:00</time>
      </trkpt>
      <trkpt lat="42.7165" lon="-4.16785">
        <ele>1090.3</ele>
        <time>2023-06-15T04:53:34.000+02:00</time>
      </trkpt>
      <trkpt lat="42.71648" lon="-4.16858">
        <ele>1090.8</ele>
        <time>2023-06-15T04:53:42.000+02:00</time>
      </trkpt>
      <trkpt lat="42.71644" lon="-4.16908">
        <ele>1090.3</ele>
        <time>2023-06-15T04:53:48.000+02:00</time>
      </trkpt>
      <trkpt lat="42.71644" lon="-4.16915">
        <ele>1090.3</ele>
        <time>2023-06-15T04:53:49.000+02:00</time>
      </trkpt>
      <trkpt lat="42.71647" lon="-4.16929">
        <ele>1090.5</ele>
        <time>2023-06-15T04:53:51.000+02:00</time>
      </trkpt>
      <trkpt lat="42.71652" lon="-4.16974">
        <ele>1091</ele>
        <time>2023-06-15T04:53:56.000+02:00</time>
      </trkpt>
      <trkpt lat="42.71654" lon="-4.16989">
        <ele>1091.3</ele>
        <time>2023-06-15T04:53:58.000+02:00</time>
      </trkpt>
      <trkpt lat="42.71662" lon="-4.17049">
        <ele>1090</ele>
        <time>2023-06-15T04:54:05.000+02:00</time>
      </trkpt>
      <trkpt lat="42.7167" lon="-4.17086">
        <ele>1090</ele>
        <time>2023-06-15T04:54:09.000+02:00</time>
      </trkpt>
      <trkpt lat="42.71675" lon="-4.17115">
        <ele>1090.8</ele>
        <time>2023-06-15T04:54:12.000+02:00</time>
      </trkpt>
      <trkpt lat="42.7168" lon="-4.17145">
        <ele>1091.5</ele>
        <time>2023-06-15T04:54:16.000+02:00</time>
      </trkpt>
      <trkpt lat="42.71685" lon="-4.17169">
        <ele>1092</ele>
        <time>2023-06-15T04:54:19.000+02:00</time>
      </trkpt>
      <trkpt lat="42.71693" lon="-4.17226">
        <ele>1094.5</ele>
        <time>2023-06-15T04:54:25.000+02:00</time>
      </trkpt>
      <trkpt lat="42.71696" lon="-4.17248">
        <ele>1095</ele>
        <time>2023-06-15T04:54:28.000+02:00</time>
      </trkpt>
      <trkpt lat="42.71701" lon="-4.1728">
        <ele>1095.8</ele>
        <time>2023-06-15T04:54:31.000+02:00</time>
      </trkpt>
      <trkpt lat="42.71706" lon="-4.17314">
        <ele>1095.8</ele>
        <time>2023-06-15T04:54:35.000+02:00</time>
      </trkpt>
      <trkpt lat="42.71706" lon="-4.17322">
        <ele>1095.8</ele>
        <time>2023-06-15T04:54:36.000+02:00</time>
      </trkpt>
      <trkpt lat="42.71706" lon="-4.1733">
        <ele>1095.8</ele>
        <time>2023-06-15T04:54:37.000+02:00</time>
      </trkpt>
      <trkpt lat="42.71708" lon="-4.17334">
        <ele>1095.8</ele>
        <time>2023-06-15T04:54:38.000+02:00</time>
      </trkpt>
      <trkpt lat="42.71711" lon="-4.17334">
        <ele>1096</ele>
        <time>2023-06-15T04:54:39.000+02:00</time>
      </trkpt>
      <trkpt lat="42.71713" lon="-4.17331">
        <ele>1096.3</ele>
        <time>2023-06-15T04:54:39.000+02:00</time>
      </trkpt>
      <trkpt lat="42.71719" lon="-4.17315">
        <ele>1097</ele>
        <time>2023-06-15T04:54:42.000+02:00</time>
      </trkpt>
      <trkpt lat="42.71736" lon="-4.17284">
        <ele>1099.8</ele>
        <time>2023-06-15T04:54:46.000+02:00</time>
      </trkpt>
      <trkpt lat="42.71746" lon="-4.1727">
        <ele>1101.3</ele>
        <time>2023-06-15T04:54:48.000+02:00</time>
      </trkpt>
      <trkpt lat="42.71758" lon="-4.17257">
        <ele>1099.3</ele>
        <time>2023-06-15T04:54:50.000+02:00</time>
      </trkpt>
      <trkpt lat="42.71771" lon="-4.17241">
        <ele>1094.3</ele>
        <time>2023-06-15T04:54:53.000+02:00</time>
      </trkpt>
      <trkpt lat="42.71783" lon="-4.17219">
        <ele>1091.5</ele>
        <time>2023-06-15T04:54:56.000+02:00</time>
      </trkpt>
      <trkpt lat="42.71794" lon="-4.17191">
        <ele>1090.5</ele>
        <time>2023-06-15T04:55:00.000+02:00</time>
      </trkpt>
      <trkpt lat="42.71807" lon="-4.17153">
        <ele>1091.3</ele>
        <time>2023-06-15T04:55:04.000+02:00</time>
      </trkpt>
      <trkpt lat="42.71809" lon="-4.17151">
        <ele>1090.8</ele>
        <time>2023-06-15T04:55:05.000+02:00</time>
      </trkpt>
      <trkpt lat="42.71811" lon="-4.17154">
        <ele>1089.8</ele>
        <time>2023-06-15T04:55:06.000+02:00</time>
      </trkpt>
      <trkpt lat="42.71811" lon="-4.17163">
        <ele>1089</ele>
        <time>2023-06-15T04:55:07.000+02:00</time>
      </trkpt>
      <trkpt lat="42.71799" lon="-4.17233">
        <ele>1083.5</ele>
        <time>2023-06-15T04:55:15.000+02:00</time>
      </trkpt>
      <trkpt lat="42.71791" lon="-4.1727">
        <ele>1083.8</ele>
        <time>2023-06-15T04:55:20.000+02:00</time>
      </trkpt>
      <trkpt lat="42.7179" lon="-4.17296">
        <ele>1083</ele>
        <time>2023-06-15T04:55:23.000+02:00</time>
      </trkpt>
      <trkpt lat="42.71781" lon="-4.17345">
        <ele>1083.3</ele>
        <time>2023-06-15T04:55:28.000+02:00</time>
      </trkpt>
      <trkpt lat="42.71773" lon="-4.1737">
        <ele>1082.8</ele>
        <time>2023-06-15T04:55:31.000+02:00</time>
      </trkpt>
      <trkpt lat="42.71773" lon="-4.17375">
        <ele>1082</ele>
        <time>2023-06-15T04:55:32.000+02:00</time>
      </trkpt>
      <trkpt lat="42.71778" lon="-4.17374">
        <ele>1080</ele>
        <time>2023-06-15T04:55:33.000+02:00</time>
      </trkpt>
      <trkpt lat="42.71781" lon="-4.1737">
        <ele>1079.5</ele>
        <time>2023-06-15T04:55:33.000+02:00</time>
      </trkpt>
      <trkpt lat="42.71795" lon="-4.17337">
        <ele>1078.5</ele>
        <time>2023-06-15T04:55:38.000+02:00</time>
      </trkpt>
      <trkpt lat="42.71801" lon="-4.1732">
        <ele>1076.8</ele>
        <time>2023-06-15T04:55:40.000+02:00</time>
      </trkpt>
      <trkpt lat="42.71807" lon="-4.17309">
        <ele>1074.8</ele>
        <time>2023-06-15T04:55:41.000+02:00</time>
      </trkpt>
      <trkpt lat="42.71812" lon="-4.17302">
        <ele>1072.8</ele>
        <time>2023-06-15T04:55:42.000+02:00</time>
      </trkpt>
      <trkpt lat="42.71838" lon="-4.17274">
        <ele>1063</ele>
        <time>2023-06-15T04:55:47.000+02:00</time>
      </trkpt>
      <trkpt lat="42.71849" lon="-4.17257">
        <ele>1059.5</ele>
        <time>2023-06-15T04:55:50.000+02:00</time>
      </trkpt>
      <trkpt lat="42.71863" lon="-4.17228">
        <ele>1058.3</ele>
        <time>2023-06-15T04:55:54.000+02:00</time>
      </trkpt>
      <trkpt lat="42.71873" lon="-4.17204">
        <ele>1058</ele>
        <time>2023-06-15T04:55:57.000+02:00</time>
      </trkpt>
      <trkpt lat="42.7188" lon="-4.17183">
        <ele>1058.3</ele>
        <time>2023-06-15T04:56:00.000+02:00</time>
      </trkpt>
      <trkpt lat="42.71892" lon="-4.1715">
        <ele>1057</ele>
        <time>2023-06-15T04:56:04.000+02:00</time>
      </trkpt>
      <trkpt lat="42.71905" lon="-4.17099">
        <ele>1055.3</ele>
        <time>2023-06-15T04:56:10.000+02:00</time>
      </trkpt>
      <trkpt lat="42.71922" lon="-4.17063">
        <ele>1049.8</ele>
        <time>2023-06-15T04:56:15.000+02:00</time>
      </trkpt>
      <trkpt lat="42.71926" lon="-4.17058">
        <ele>1048.5</ele>
        <time>2023-06-15T04:56:16.000+02:00</time>
      </trkpt>
      <trkpt lat="42.7193" lon="-4.17058">
        <ele>1047</ele>
        <time>2023-06-15T04:56:17.000+02:00</time>
      </trkpt>
      <trkpt lat="42.71932" lon="-4.17062">
        <ele>1045.8</ele>
        <time>2023-06-15T04:56:18.000+02:00</time>
      </trkpt>
      <trkpt lat="42.71942" lon="-4.17104">
        <ele>1039.8</ele>
        <time>2023-06-15T04:56:22.000+02:00</time>
      </trkpt>
      <trkpt lat="42.71944" lon="-4.17119">
        <ele>1038</ele>
        <time>2023-06-15T04:56:24.000+02:00</time>
      </trkpt>
      <trkpt lat="42.71948" lon="-4.1713">
        <ele>1035.8</ele>
        <time>2023-06-15T04:56:26.000+02:00</time>
      </trkpt>
      <trkpt lat="42.71951" lon="-4.17134">
        <ele>1034.3</ele>
        <time>2023-06-15T04:56:27.000+02:00</time>
      </trkpt>
      <trkpt lat="42.7196" lon="-4.17138">
        <ele>1030.8</ele>
        <time>2023-06-15T04:56:29.000+02:00</time>
      </trkpt>
      <trkpt lat="42.71967" lon="-4.17136">
        <ele>1028.3</ele>
        <time>2023-06-15T04:56:30.000+02:00</time>
      </trkpt>
      <trkpt lat="42.71976" lon="-4.17127">
        <ele>1025.3</ele>
        <time>2023-06-15T04:56:32.000+02:00</time>
      </trkpt>
      <trkpt lat="42.71991" lon="-4.17115">
        <ele>1020.3</ele>
        <time>2023-06-15T04:56:34.000+02:00</time>
      </trkpt>
      <trkpt lat="42.72032" lon="-4.17063">
        <ele>1007.3</ele>
        <time>2023-06-15T04:56:43.000+02:00</time>
      </trkpt>
      <trkpt lat="42.72041" lon="-4.17052">
        <ele>1004</ele>
        <time>2023-06-15T04:56:45.000+02:00</time>
      </trkpt>
      <trkpt lat="42.72047" lon="-4.17043">
        <ele>1002</ele>
        <time>2023-06-15T04:56:46.000+02:00</time>
      </trkpt>
      <trkpt lat="42.72051" lon="-4.17034">
        <ele>1000.3</ele>
        <time>2023-06-15T04:56:47.000+02:00</time>
      </trkpt>
      <trkpt lat="42.72053" lon="-4.17022">
        <ele>999.5</ele>
        <time>2023-06-15T04:56:48.000+02:00</time>
      </trkpt>
      <trkpt lat="42.72051" lon="-4.17011">
        <ele>1000</ele>
        <time>2023-06-15T04:56:50.000+02:00</time>
      </trkpt>
      <trkpt lat="42.72046" lon="-4.16997">
        <ele>1001.8</ele>
        <time>2023-06-15T04:56:52.000+02:00</time>
      </trkpt>
      <trkpt lat="42.72031" lon="-4.16963">
        <ele>1008.3</ele>
        <time>2023-06-15T04:56:56.000+02:00</time>
      </trkpt>
      <trkpt lat="42.7203" lon="-4.16953">
        <ele>1008.8</ele>
        <time>2023-06-15T04:56:57.000+02:00</time>
      </trkpt>
      <trkpt lat="42.72031" lon="-4.16936">
        <ele>1008.8</ele>
        <time>2023-06-15T04:56:59.000+02:00</time>
      </trkpt>
      <trkpt lat="42.72037" lon="-4.169">
        <ele>1006.8</ele>
        <time>2023-06-15T04:57:03.000+02:00</time>
      </trkpt>
      <trkpt lat="42.7204" lon="-4.16891">
        <ele>1006</ele>
        <time>2023-06-15T04:57:04.000+02:00</time>
      </trkpt>
      <trkpt lat="42.72046" lon="-4.16879">
        <ele>1003.5</ele>
        <time>2023-06-15T04:57:06.000+02:00</time>
      </trkpt>
      <trkpt lat="42.72061" lon="-4.1686">
        <ele>997</ele>
        <time>2023-06-15T04:57:09.000+02:00</time>
      </trkpt>
      <trkpt lat="42.72071" lon="-4.1684">
        <ele>992.5</ele>
        <time>2023-06-15T04:57:12.000+02:00</time>
      </trkpt>
      <trkpt lat="42.72078" lon="-4.16822">
        <ele>989</ele>
        <time>2023-06-15T04:57:14.000+02:00</time>
      </trkpt>
      <trkpt lat="42.72085" lon="-4.16788">
        <ele>984.5</ele>
        <time>2023-06-15T04:57:18.000+02:00</time>
      </trkpt>
      <trkpt lat="42.72087" lon="-4.16768">
        <ele>983</ele>
        <time>2023-06-15T04:57:20.000+02:00</time>
      </trkpt>
      <trkpt lat="42.72089" lon="-4.16749">
        <ele>982.3</ele>
        <time>2023-06-15T04:57:22.000+02:00</time>
      </trkpt>
      <trkpt lat="42.72092" lon="-4.1673">
        <ele>982.5</ele>
        <time>2023-06-15T04:57:25.000+02:00</time>
      </trkpt>
      <trkpt lat="42.72097" lon="-4.16714">
        <ele>982.3</ele>
        <time>2023-06-15T04:57:26.000+02:00</time>
      </trkpt>
      <trkpt lat="42.72102" lon="-4.167">
        <ele>981.8</ele>
        <time>2023-06-15T04:57:28.000+02:00</time>
      </trkpt>
      <trkpt lat="42.72107" lon="-4.16688">
        <ele>981</ele>
        <time>2023-06-15T04:57:30.000+02:00</time>
      </trkpt>
      <trkpt lat="42.72114" lon="-4.16673">
        <ele>980.3</ele>
        <time>2023-06-15T04:57:32.000+02:00</time>
      </trkpt>
      <trkpt lat="42.72124" lon="-4.16638">
        <ele>979</ele>
        <time>2023-06-15T04:57:36.000+02:00</time>
      </trkpt>
      <trkpt lat="42.72127" lon="-4.16626">
        <ele>978.8</ele>
        <time>2023-06-15T04:57:37.000+02:00</time>
      </trkpt>
      <trkpt lat="42.72132" lon="-4.16563">
        <ele>978</ele>
        <time>2023-06-15T04:57:45.000+02:00</time>
      </trkpt>
      <trkpt lat="42.72133" lon="-4.16533">
        <ele>976.5</ele>
        <time>2023-06-15T04:57:48.000+02:00</time>
      </trkpt>
      <trkpt lat="42.72132" lon="-4.16517">
        <ele>976</ele>
        <time>2023-06-15T04:57:50.000+02:00</time>
      </trkpt>
      <trkpt lat="42.7213" lon="-4.16504">
        <ele>975.8</ele>
        <time>2023-06-15T04:57:51.000+02:00</time>
      </trkpt>
      <trkpt lat="42.72126" lon="-4.16492">
        <ele>975.3</ele>
        <time>2023-06-15T04:57:53.000+02:00</time>
      </trkpt>
      <trkpt lat="42.72123" lon="-4.16478">
        <ele>974</ele>
        <time>2023-06-15T04:57:54.000+02:00</time>
      </trkpt>
      <trkpt lat="42.72116" lon="-4.16436">
        <ele>970</ele>
        <time>2023-06-15T04:57:59.000+02:00</time>
      </trkpt>
      <trkpt lat="42.72111" lon="-4.16398">
        <ele>968.3</ele>
        <time>2023-06-15T04:58:03.000+02:00</time>
      </trkpt>
      <trkpt lat="42.72108" lon="-4.16358">
        <ele>968</ele>
        <time>2023-06-15T04:58:08.000+02:00</time>
      </trkpt>
      <trkpt lat="42.72109" lon="-4.16344">
        <ele>967.8</ele>
        <time>2023-06-15T04:58:10.000+02:00</time>
      </trkpt>
      <trkpt lat="42.7212" lon="-4.16299">
        <ele>966.3</ele>
        <time>2023-06-15T04:58:15.000+02:00</time>
      </trkpt>
      <trkpt lat="42.72122" lon="-4.16287">
        <ele>966</ele>
        <time>2023-06-15T04:58:16.000+02:00</time>
      </trkpt>
      <trkpt lat="42.72122" lon="-4.16276">
        <ele>966.3</ele>
        <time>2023-06-15T04:58:18.000+02:00</time>
      </trkpt>
      <trkpt lat="42.72122" lon="-4.16255">
        <ele>966.8</ele>
        <time>2023-06-15T04:58:20.000+02:00</time>
      </trkpt>
      <trkpt lat="42.72118" lon="-4.16219">
        <ele>965.8</ele>
        <time>2023-06-15T04:58:24.000+02:00</time>
      </trkpt>
      <trkpt lat="42.72115" lon="-4.16204">
        <ele>965.5</ele>
        <time>2023-06-15T04:58:26.000+02:00</time>
      </trkpt>
      <trkpt lat="42.72109" lon="-4.16191">
        <ele>965.5</ele>
        <time>2023-06-15T04:58:27.000+02:00</time>
      </trkpt>
      <trkpt lat="42.72099" lon="-4.16167">
        <ele>964.8</ele>
        <time>2023-06-15T04:58:31.000+02:00</time>
      </trkpt>
      <trkpt lat="42.72097" lon="-4.16158">
        <ele>965</ele>
        <time>2023-06-15T04:58:32.000+02:00</time>
      </trkpt>
      <trkpt lat="42.72098" lon="-4.16147">
        <ele>965</ele>
        <time>2023-06-15T04:58:33.000+02:00</time>
      </trkpt>
      <trkpt lat="42.72099" lon="-4.16137">
        <ele>964.8</ele>
        <time>2023-06-15T04:58:34.000+02:00</time>
      </trkpt>
      <trkpt lat="42.72102" lon="-4.16128">
        <ele>964.8</ele>
        <time>2023-06-15T04:58:35.000+02:00</time>
      </trkpt>
      <trkpt lat="42.72107" lon="-4.16116">
        <ele>964.5</ele>
        <time>2023-06-15T04:58:37.000+02:00</time>
      </trkpt>
      <trkpt lat="42.72112" lon="-4.16105">
        <ele>964.3</ele>
        <time>2023-06-15T04:58:38.000+02:00</time>
      </trkpt>
      <trkpt lat="42.72116" lon="-4.16098">
        <ele>964.3</ele>
        <time>2023-06-15T04:58:39.000+02:00</time>
      </trkpt>
      <trkpt lat="42.72132" lon="-4.16081">
        <ele>963.5</ele>
        <time>2023-06-15T04:58:42.000+02:00</time>
      </trkpt>
      <trkpt lat="42.72154" lon="-4.1606">
        <ele>961.3</ele>
        <time>2023-06-15T04:58:46.000+02:00</time>
      </trkpt>
      <trkpt lat="42.72163" lon="-4.16051">
        <ele>960</ele>
        <time>2023-06-15T04:58:48.000+02:00</time>
      </trkpt>
      <trkpt lat="42.72171" lon="-4.16041">
        <ele>959</ele>
        <time>2023-06-15T04:58:50.000+02:00</time>
      </trkpt>
      <trkpt lat="42.72175" lon="-4.16031">
        <ele>958</ele>
        <time>2023-06-15T04:58:51.000+02:00</time>
      </trkpt>
      <trkpt lat="42.72177" lon="-4.16025">
        <ele>957.5</ele>
        <time>2023-06-15T04:58:52.000+02:00</time>
      </trkpt>
      <trkpt lat="42.72178" lon="-4.16014">
        <ele>956.8</ele>
        <time>2023-06-15T04:58:53.000+02:00</time>
      </trkpt>
      <trkpt lat="42.72176" lon="-4.16003">
        <ele>956.3</ele>
        <time>2023-06-15T04:58:54.000+02:00</time>
      </trkpt>
      <trkpt lat="42.72164" lon="-4.15946">
        <ele>954.5</ele>
        <time>2023-06-15T04:59:01.000+02:00</time>
      </trkpt>
      <trkpt lat="42.72162" lon="-4.15924">
        <ele>953.5</ele>
        <time>2023-06-15T04:59:03.000+02:00</time>
      </trkpt>
      <trkpt lat="42.72164" lon="-4.15899">
        <ele>952.8</ele>
        <time>2023-06-15T04:59:06.000+02:00</time>
      </trkpt>
      <trkpt lat="42.72162" lon="-4.15885">
        <ele>952.8</ele>
        <time>2023-06-15T04:59:08.000+02:00</time>
      </trkpt>
      <trkpt lat="42.72187" lon="-4.15868">
        <ele>952</ele>
        <time>2023-06-15T04:59:12.000+02:00</time>
      </trkpt>
      <trkpt lat="42.7219" lon="-4.1588">
        <ele>951.8</ele>
        <time>2023-06-15T04:59:13.000+02:00</time>
      </trkpt>
      <trkpt lat="42.72198" lon="-4.15895">
        <ele>951.5</ele>
        <time>2023-06-15T04:59:16.000+02:00</time>
      </trkpt>
      <trkpt lat="42.72205" lon="-4.15907">
        <ele>951.3</ele>
        <time>2023-06-15T04:59:17.000+02:00</time>
      </trkpt>
      <trkpt lat="42.72213" lon="-4.15917">
        <ele>950.8</ele>
        <time>2023-06-15T04:59:19.000+02:00</time>
      </trkpt>
      <trkpt lat="42.72227" lon="-4.15921">
        <ele>950.3</ele>
        <time>2023-06-15T04:59:21.000+02:00</time>
      </trkpt>
      <trkpt lat="42.72227" lon="-4.15926">
        <ele>950.3</ele>
        <time>2023-06-15T04:59:22.000+02:00</time>
      </trkpt>
      <trkpt lat="42.72241" lon="-4.15965">
        <ele>950.5</ele>
        <time>2023-06-15T04:59:27.000+02:00</time>
      </trkpt>
      <trkpt lat="42.72248" lon="-4.15987">
        <ele>950.8</ele>
        <time>2023-06-15T04:59:29.000+02:00</time>
      </trkpt>
      <trkpt lat="42.7226" lon="-4.16043">
        <ele>951.5</ele>
        <time>2023-06-15T04:59:36.000+02:00</time>
      </trkpt>
      <trkpt lat="42.72266" lon="-4.16071">
        <ele>951.8</ele>
        <time>2023-06-15T04:59:39.000+02:00</time>
      </trkpt>
      <trkpt lat="42.72273" lon="-4.16118">
        <ele>952.8</ele>
        <time>2023-06-15T04:59:44.000+02:00</time>
      </trkpt>
      <trkpt lat="42.72276" lon="-4.16137">
        <ele>952.8</ele>
        <time>2023-06-15T04:59:47.000+02:00</time>
      </trkpt>
      <trkpt lat="42.7228" lon="-4.16169">
        <ele>953.3</ele>
        <time>2023-06-15T04:59:50.000+02:00</time>
      </trkpt>
      <trkpt lat="42.72284" lon="-4.16209">
        <ele>952</ele>
        <time>2023-06-15T04:59:55.000+02:00</time>
      </trkpt>
      <trkpt lat="42.72288" lon="-4.16258">
        <ele>950.8</ele>
        <time>2023-06-15T05:00:00.000+02:00</time>
      </trkpt>
      <trkpt lat="42.72292" lon="-4.1633">
        <ele>951.3</ele>
        <time>2023-06-15T05:00:08.000+02:00</time>
      </trkpt>
      <trkpt lat="42.72296" lon="-4.16411">
        <ele>953</ele>
        <time>2023-06-15T05:00:18.000+02:00</time>
      </trkpt>
      <trkpt lat="42.72298" lon="-4.16488">
        <ele>955.3</ele>
        <time>2023-06-15T05:00:26.000+02:00</time>
      </trkpt>
      <trkpt lat="42.72298" lon="-4.16544">
        <ele>955.8</ele>
        <time>2023-06-15T05:00:32.000+02:00</time>
      </trkpt>
      <trkpt lat="42.72296" lon="-4.16581">
        <ele>955.8</ele>
        <time>2023-06-15T05:00:37.000+02:00</time>
      </trkpt>
      <trkpt lat="42.72292" lon="-4.16639">
        <ele>957</ele>
        <time>2023-06-15T05:00:43.000+02:00</time>
      </trkpt>
      <trkpt lat="42.72286" lon="-4.16704">
        <ele>957.5</ele>
        <time>2023-06-15T05:00:50.000+02:00</time>
      </trkpt>
      <trkpt lat="42.72283" lon="-4.16732">
        <ele>957.3</ele>
        <time>2023-06-15T05:00:54.000+02:00</time>
      </trkpt>
      <trkpt lat="42.72271" lon="-4.16805">
        <ele>957</ele>
        <time>2023-06-15T05:01:02.000+02:00</time>
      </trkpt>
      <trkpt lat="42.72268" lon="-4.16828">
        <ele>956.8</ele>
        <time>2023-06-15T05:01:05.000+02:00</time>
      </trkpt>
      <trkpt lat="42.72264" lon="-4.16941">
        <ele>958.3</ele>
        <time>2023-06-15T05:01:17.000+02:00</time>
      </trkpt>
      <trkpt lat="42.72263" lon="-4.16963">
        <ele>958.3</ele>
        <time>2023-06-15T05:01:20.000+02:00</time>
      </trkpt>
      <trkpt lat="42.7226" lon="-4.16986">
        <ele>958.5</ele>
        <time>2023-06-15T05:01:23.000+02:00</time>
      </trkpt>
      <trkpt lat="42.7225" lon="-4.17046">
        <ele>959.3</ele>
        <time>2023-06-15T05:01:29.000+02:00</time>
      </trkpt>
      <trkpt lat="42.72217" lon="-4.17217">
        <ele>963.3</ele>
        <time>2023-06-15T05:01:49.000+02:00</time>
      </trkpt>
      <trkpt lat="42.72205" lon="-4.17273">
        <ele>961.8</ele>
        <time>2023-06-15T05:01:56.000+02:00</time>
      </trkpt>
      <trkpt lat="42.7219" lon="-4.17328">
        <ele>961.8</ele>
        <time>2023-06-15T05:02:02.000+02:00</time>
      </trkpt>
      <trkpt lat="42.72184" lon="-4.1735">
        <ele>961.8</ele>
        <time>2023-06-15T05:02:05.000+02:00</time>
      </trkpt>
      <trkpt lat="42.7218" lon="-4.17371">
        <ele>961.5</ele>
        <time>2023-06-15T05:02:07.000+02:00</time>
      </trkpt>
      <trkpt lat="42.72177" lon="-4.17395">
        <ele>961</ele>
        <time>2023-06-15T05:02:10.000+02:00</time>
      </trkpt>
      <trkpt lat="42.72175" lon="-4.1744">
        <ele>958</ele>
        <time>2023-06-15T05:02:15.000+02:00</time>
      </trkpt>
      <trkpt lat="42.72175" lon="-4.17464">
        <ele>956.8</ele>
        <time>2023-06-15T05:02:18.000+02:00</time>
      </trkpt>
      <trkpt lat="42.72173" lon="-4.17492">
        <ele>954.5</ele>
        <time>2023-06-15T05:02:21.000+02:00</time>
      </trkpt>
      <trkpt lat="42.72169" lon="-4.1752">
        <ele>954</ele>
        <time>2023-06-15T05:02:24.000+02:00</time>
      </trkpt>
      <trkpt lat="42.72163" lon="-4.17549">
        <ele>954.8</ele>
        <time>2023-06-15T05:02:28.000+02:00</time>
      </trkpt>
      <trkpt lat="42.72159" lon="-4.17569">
        <ele>955.5</ele>
        <time>2023-06-15T05:02:30.000+02:00</time>
      </trkpt>
      <trkpt lat="42.7215" lon="-4.17596">
        <ele>956.5</ele>
        <time>2023-06-15T05:02:33.000+02:00</time>
      </trkpt>
      <trkpt lat="42.72096" lon="-4.17749">
        <ele>958.5</ele>
        <time>2023-06-15T05:02:52.000+02:00</time>
      </trkpt>
      <trkpt lat="42.72005" lon="-4.17989">
        <ele>957</ele>
        <time>2023-06-15T05:03:23.000+02:00</time>
      </trkpt>
      <trkpt lat="42.71982" lon="-4.18058">
        <ele>956.3</ele>
        <time>2023-06-15T05:03:31.000+02:00</time>
      </trkpt>
      <trkpt lat="42.71917" lon="-4.18233">
        <ele>954</ele>
        <time>2023-06-15T05:03:53.000+02:00</time>
      </trkpt>
      <trkpt lat="42.71888" lon="-4.18307">
        <ele>957</ele>
        <time>2023-06-15T05:04:03.000+02:00</time>
      </trkpt>
      <trkpt lat="42.71856" lon="-4.18375">
        <ele>958.3</ele>
        <time>2023-06-15T05:04:12.000+02:00</time>
      </trkpt>
      <trkpt lat="42.71829" lon="-4.18429">
        <ele>957.8</ele>
        <time>2023-06-15T05:04:19.000+02:00</time>
      </trkpt>
      <trkpt lat="42.71793" lon="-4.18495">
        <ele>958</ele>
        <time>2023-06-15T05:04:28.000+02:00</time>
      </trkpt>
      <trkpt lat="42.71703" lon="-4.18661">
        <ele>962.3</ele>
        <time>2023-06-15T05:04:51.000+02:00</time>
      </trkpt>
      <trkpt lat="42.71626" lon="-4.18801">
        <ele>965.8</ele>
        <time>2023-06-15T05:05:11.000+02:00</time>
      </trkpt>
      <trkpt lat="42.71608" lon="-4.18833">
        <ele>966.3</ele>
        <time>2023-06-15T05:05:16.000+02:00</time>
      </trkpt>
      <trkpt lat="42.71592" lon="-4.18868">
        <ele>966.8</ele>
        <time>2023-06-15T05:05:20.000+02:00</time>
      </trkpt>
      <trkpt lat="42.71574" lon="-4.18909">
        <ele>967.3</ele>
        <time>2023-06-15T05:05:26.000+02:00</time>
      </trkpt>
      <trkpt lat="42.71558" lon="-4.18945">
        <ele>969.5</ele>
        <time>2023-06-15T05:05:30.000+02:00</time>
      </trkpt>
      <trkpt lat="42.71519" lon="-4.19043">
        <ele>972.8</ele>
        <time>2023-06-15T05:05:43.000+02:00</time>
      </trkpt>
      <trkpt lat="42.71494" lon="-4.19109">
        <ele>973.8</ele>
        <time>2023-06-15T05:05:51.000+02:00</time>
      </trkpt>
      <trkpt lat="42.71488" lon="-4.19128">
        <ele>974.3</ele>
        <time>2023-06-15T05:05:53.000+02:00</time>
      </trkpt>
      <trkpt lat="42.71485" lon="-4.19144">
        <ele>974.5</ele>
        <time>2023-06-15T05:05:55.000+02:00</time>
      </trkpt>
      <trkpt lat="42.7148" lon="-4.19175">
        <ele>975</ele>
        <time>2023-06-15T05:05:59.000+02:00</time>
      </trkpt>
      <trkpt lat="42.71472" lon="-4.19243">
        <ele>976.3</ele>
        <time>2023-06-15T05:06:07.000+02:00</time>
      </trkpt>
      <trkpt lat="42.71468" lon="-4.19277">
        <ele>976.5</ele>
        <time>2023-06-15T05:06:10.000+02:00</time>
      </trkpt>
      <trkpt lat="42.71462" lon="-4.19302">
        <ele>976.3</ele>
        <time>2023-06-15T05:06:13.000+02:00</time>
      </trkpt>
      <trkpt lat="42.71453" lon="-4.19326">
        <ele>976.5</ele>
        <time>2023-06-15T05:06:16.000+02:00</time>
      </trkpt>
      <trkpt lat="42.7144" lon="-4.19349">
        <ele>976.3</ele>
        <time>2023-06-15T05:06:20.000+02:00</time>
      </trkpt>
      <trkpt lat="42.71423" lon="-4.1938">
        <ele>975.8</ele>
        <time>2023-06-15T05:06:24.000+02:00</time>
      </trkpt>
      <trkpt lat="42.71386" lon="-4.19442">
        <ele>973.8</ele>
        <time>2023-06-15T05:06:33.000+02:00</time>
      </trkpt>
      <trkpt lat="42.71372" lon="-4.19467">
        <ele>972.5</ele>
        <time>2023-06-15T05:06:36.000+02:00</time>
      </trkpt>
      <trkpt lat="42.71366" lon="-4.19479">
        <ele>971.8</ele>
        <time>2023-06-15T05:06:38.000+02:00</time>
      </trkpt>
      <trkpt lat="42.71362" lon="-4.1949">
        <ele>971</ele>
        <time>2023-06-15T05:06:39.000+02:00</time>
      </trkpt>
      <trkpt lat="42.71358" lon="-4.19509">
        <ele>970</ele>
        <time>2023-06-15T05:06:42.000+02:00</time>
      </trkpt>
      <trkpt lat="42.7134" lon="-4.19671">
        <ele>966</ele>
        <time>2023-06-15T05:07:00.000+02:00</time>
      </trkpt>
      <trkpt lat="42.71337" lon="-4.19693">
        <ele>965.8</ele>
        <time>2023-06-15T05:07:03.000+02:00</time>
      </trkpt>
      <trkpt lat="42.71334" lon="-4.19707">
        <ele>965.5</ele>
        <time>2023-06-15T05:07:04.000+02:00</time>
      </trkpt>
      <trkpt lat="42.71327" lon="-4.19736">
        <ele>965.8</ele>
        <time>2023-06-15T05:07:08.000+02:00</time>
      </trkpt>
      <trkpt lat="42.71319" lon="-4.19756">
        <ele>966</ele>
        <time>2023-06-15T05:07:10.000+02:00</time>
      </trkpt>
      <trkpt lat="42.71311" lon="-4.19775">
        <ele>966.3</ele>
        <time>2023-06-15T05:07:13.000+02:00</time>
      </trkpt>
      <trkpt lat="42.71274" lon="-4.19865">
        <ele>965.8</ele>
        <time>2023-06-15T05:07:24.000+02:00</time>
      </trkpt>
      <trkpt lat="42.71262" lon="-4.19896">
        <ele>965</ele>
        <time>2023-06-15T05:07:28.000+02:00</time>
      </trkpt>
      <trkpt lat="42.71241" lon="-4.19968">
        <ele>965</ele>
        <time>2023-06-15T05:07:37.000+02:00</time>
      </trkpt>
      <trkpt lat="42.71233" lon="-4.19995">
        <ele>964.3</ele>
        <time>2023-06-15T05:07:40.000+02:00</time>
      </trkpt>
      <trkpt lat="42.71218" lon="-4.20051">
        <ele>963</ele>
        <time>2023-06-15T05:07:47.000+02:00</time>
      </trkpt>
      <trkpt lat="42.71213" lon="-4.20067">
        <ele>962</ele>
        <time>2023-06-15T05:07:49.000+02:00</time>
      </trkpt>
      <trkpt lat="42.71231" lon="-4.20065">
        <ele>962</ele>
        <time>2023-06-15T05:07:52.000+02:00</time>
      </trkpt>
      <trkpt lat="42.71242" lon="-4.20067">
        <ele>961.8</ele>
        <time>2023-06-15T05:07:53.000+02:00</time>
      </trkpt>
      <trkpt lat="42.71257" lon="-4.2007">
        <ele>962</ele>
        <time>2023-06-15T05:07:56.000+02:00</time>
      </trkpt>
      <trkpt lat="42.71262" lon="-4.20068">
        <ele>962.5</ele>
        <time>2023-06-15T05:07:57.000+02:00</time>
      </trkpt>
      <trkpt lat="42.71288" lon="-4.2005">
        <ele>965</ele>
        <time>2023-06-15T05:08:02.000+02:00</time>
      </trkpt>
      <trkpt lat="42.71297" lon="-4.20043">
        <ele>966</ele>
        <time>2023-06-15T05:08:03.000+02:00</time>
      </trkpt>
      <trkpt lat="42.71335" lon="-4.20003">
        <ele>970</ele>
        <time>2023-06-15T05:08:11.000+02:00</time>
      </trkpt>
      <trkpt lat="42.71349" lon="-4.1999">
        <ele>973</ele>
        <time>2023-06-15T05:08:13.000+02:00</time>
      </trkpt>
      <trkpt lat="42.71359" lon="-4.19978">
        <ele>975.3</ele>
        <time>2023-06-15T05:08:15.000+02:00</time>
      </trkpt>
      <trkpt lat="42.71387" lon="-4.19943">
        <ele>980.5</ele>
        <time>2023-06-15T05:08:21.000+02:00</time>
      </trkpt>
      <trkpt lat="42.714" lon="-4.19931">
        <ele>983</ele>
        <time>2023-06-15T05:08:24.000+02:00</time>
      </trkpt>
      <trkpt lat="42.71408" lon="-4.19923">
        <ele>984.5</ele>
        <time>2023-06-15T05:08:25.000+02:00</time>
      </trkpt>
      <trkpt lat="42.71446" lon="-4.19878">
        <ele>989.8</ele>
        <time>2023-06-15T05:08:33.000+02:00</time>
      </trkpt>
      <trkpt lat="42.71462" lon="-4.19865">
        <ele>992.3</ele>
        <time>2023-06-15T05:08:36.000+02:00</time>
      </trkpt>
      <trkpt lat="42.71469" lon="-4.19856">
        <ele>993</ele>
        <time>2023-06-15T05:08:37.000+02:00</time>
      </trkpt>
      <trkpt lat="42.71478" lon="-4.19839">
        <ele>993.8</ele>
        <time>2023-06-15T05:08:40.000+02:00</time>
      </trkpt>
      <trkpt lat="42.71507" lon="-4.19794">
        <ele>998</ele>
        <time>2023-06-15T05:08:46.000+02:00</time>
      </trkpt>
      <trkpt lat="42.71512" lon="-4.19784">
        <ele>999</ele>
        <time>2023-06-15T05:08:48.000+02:00</time>
      </trkpt>
      <trkpt lat="42.7152" lon="-4.19762">
        <ele>1000</ele>
        <time>2023-06-15T05:08:50.000+02:00</time>
      </trkpt>
      <trkpt lat="42.71526" lon="-4.19751">
        <ele>1000.5</ele>
        <time>2023-06-15T05:08:52.000+02:00</time>
      </trkpt>
      <trkpt lat="42.7153" lon="-4.19739">
        <ele>1001</ele>
        <time>2023-06-15T05:08:53.000+02:00</time>
      </trkpt>
      <trkpt lat="42.71532" lon="-4.19726">
        <ele>1001.3</ele>
        <time>2023-06-15T05:08:55.000+02:00</time>
      </trkpt>
      <trkpt lat="42.71536" lon="-4.19714">
        <ele>1001.8</ele>
        <time>2023-06-15T05:08:56.000+02:00</time>
      </trkpt>
      <trkpt lat="42.71546" lon="-4.19694">
        <ele>1003.5</ele>
        <time>2023-06-15T05:08:59.000+02:00</time>
      </trkpt>
      <trkpt lat="42.71559" lon="-4.19678">
        <ele>1006</ele>
        <time>2023-06-15T05:09:02.000+02:00</time>
      </trkpt>
      <trkpt lat="42.71577" lon="-4.19663">
        <ele>1010</ele>
        <time>2023-06-15T05:09:05.000+02:00</time>
      </trkpt>
      <trkpt lat="42.7161" lon="-4.19625">
        <ele>1017.8</ele>
        <time>2023-06-15T05:09:11.000+02:00</time>
      </trkpt>
      <trkpt lat="42.71627" lon="-4.19609">
        <ele>1022</ele>
        <time>2023-06-15T05:09:15.000+02:00</time>
      </trkpt>
      <trkpt lat="42.71648" lon="-4.19587">
        <ele>1027</ele>
        <time>2023-06-15T05:09:19.000+02:00</time>
      </trkpt>
      <trkpt lat="42.71664" lon="-4.19567">
        <ele>1028.5</ele>
        <time>2023-06-15T05:09:22.000+02:00</time>
      </trkpt>
      <trkpt lat="42.71682" lon="-4.19548">
        <ele>1031</ele>
        <time>2023-06-15T05:09:26.000+02:00</time>
      </trkpt>
      <trkpt lat="42.71704" lon="-4.1952">
        <ele>1033</ele>
        <time>2023-06-15T05:09:30.000+02:00</time>
      </trkpt>
      <trkpt lat="42.71723" lon="-4.19503">
        <ele>1036.5</ele>
        <time>2023-06-15T05:09:34.000+02:00</time>
      </trkpt>
      <trkpt lat="42.71741" lon="-4.19489">
        <ele>1039.5</ele>
        <time>2023-06-15T05:09:37.000+02:00</time>
      </trkpt>
      <trkpt lat="42.71754" lon="-4.19482">
        <ele>1041.3</ele>
        <time>2023-06-15T05:09:39.000+02:00</time>
      </trkpt>
      <trkpt lat="42.7179" lon="-4.19469">
        <ele>1045.3</ele>
        <time>2023-06-15T05:09:45.000+02:00</time>
      </trkpt>
      <trkpt lat="42.718" lon="-4.19468">
        <ele>1047</ele>
        <time>2023-06-15T05:09:46.000+02:00</time>
      </trkpt>
      <trkpt lat="42.71824" lon="-4.19468">
        <ele>1052.3</ele>
        <time>2023-06-15T05:09:50.000+02:00</time>
      </trkpt>
      <trkpt lat="42.71836" lon="-4.19464">
        <ele>1054</ele>
        <time>2023-06-15T05:09:52.000+02:00</time>
      </trkpt>
      <trkpt lat="42.71853" lon="-4.19452">
        <ele>1055.8</ele>
        <time>2023-06-15T05:09:55.000+02:00</time>
      </trkpt>
      <trkpt lat="42.71872" lon="-4.19438">
        <ele>1058.3</ele>
        <time>2023-06-15T05:09:58.000+02:00</time>
      </trkpt>
      <trkpt lat="42.71882" lon="-4.19427">
        <ele>1059.8</ele>
        <time>2023-06-15T05:10:00.000+02:00</time>
      </trkpt>
      <trkpt lat="42.71896" lon="-4.1941">
        <ele>1062.5</ele>
        <time>2023-06-15T05:10:03.000+02:00</time>
      </trkpt>
      <trkpt lat="42.71903" lon="-4.19405">
        <ele>1064.3</ele>
        <time>2023-06-15T05:10:04.000+02:00</time>
      </trkpt>
      <trkpt lat="42.71911" lon="-4.19402">
        <ele>1066.3</ele>
        <time>2023-06-15T05:10:05.000+02:00</time>
      </trkpt>
      <trkpt lat="42.71925" lon="-4.19399">
        <ele>1067.3</ele>
        <time>2023-06-15T05:10:07.000+02:00</time>
      </trkpt>
      <trkpt lat="42.71937" lon="-4.19394">
        <ele>1066.8</ele>
        <time>2023-06-15T05:10:09.000+02:00</time>
      </trkpt>
      <trkpt lat="42.71976" lon="-4.1936">
        <ele>1068.5</ele>
        <time>2023-06-15T05:10:16.000+02:00</time>
      </trkpt>
      <trkpt lat="42.72004" lon="-4.19334">
        <ele>1072</ele>
        <time>2023-06-15T05:10:22.000+02:00</time>
      </trkpt>
      <trkpt lat="42.72014" lon="-4.19327">
        <ele>1070.5</ele>
        <time>2023-06-15T05:10:23.000+02:00</time>
      </trkpt>
      <trkpt lat="42.7202" lon="-4.19319">
        <ele>1070</ele>
        <time>2023-06-15T05:10:25.000+02:00</time>
      </trkpt>
      <trkpt lat="42.72029" lon="-4.19303">
        <ele>1069.8</ele>
        <time>2023-06-15T05:10:27.000+02:00</time>
      </trkpt>
      <trkpt lat="42.72037" lon="-4.19292">
        <ele>1069.5</ele>
        <time>2023-06-15T05:10:29.000+02:00</time>
      </trkpt>
      <trkpt lat="42.72044" lon="-4.19285">
        <ele>1069.3</ele>
        <time>2023-06-15T05:10:30.000+02:00</time>
      </trkpt>
      <trkpt lat="42.72052" lon="-4.1928">
        <ele>1068.8</ele>
        <time>2023-06-15T05:10:31.000+02:00</time>
      </trkpt>
      <trkpt lat="42.72062" lon="-4.19277">
        <ele>1067.5</ele>
        <time>2023-06-15T05:10:33.000+02:00</time>
      </trkpt>
      <trkpt lat="42.72086" lon="-4.1928">
        <ele>1064</ele>
        <time>2023-06-15T05:10:37.000+02:00</time>
      </trkpt>
      <trkpt lat="42.72097" lon="-4.19279">
        <ele>1064</ele>
        <time>2023-06-15T05:10:38.000+02:00</time>
      </trkpt>
      <trkpt lat="42.72117" lon="-4.19269">
        <ele>1065.3</ele>
        <time>2023-06-15T05:10:41.000+02:00</time>
      </trkpt>
      <trkpt lat="42.72142" lon="-4.1926">
        <ele>1066.5</ele>
        <time>2023-06-15T05:10:45.000+02:00</time>
      </trkpt>
      <trkpt lat="42.72157" lon="-4.19252">
        <ele>1067.5</ele>
        <time>2023-06-15T05:10:48.000+02:00</time>
      </trkpt>
      <trkpt lat="42.72207" lon="-4.19216">
        <ele>1068.3</ele>
        <time>2023-06-15T05:10:57.000+02:00</time>
      </trkpt>
      <trkpt lat="42.72233" lon="-4.19195">
        <ele>1067</ele>
        <time>2023-06-15T05:11:01.000+02:00</time>
      </trkpt>
      <trkpt lat="42.72243" lon="-4.19189">
        <ele>1066</ele>
        <time>2023-06-15T05:11:03.000+02:00</time>
      </trkpt>
      <trkpt lat="42.72272" lon="-4.19177">
        <ele>1063.3</ele>
        <time>2023-06-15T05:11:07.000+02:00</time>
      </trkpt>
      <trkpt lat="42.7228" lon="-4.19171">
        <ele>1063</ele>
        <time>2023-06-15T05:11:09.000+02:00</time>
      </trkpt>
      <trkpt lat="42.72287" lon="-4.19164">
        <ele>1062.5</ele>
        <time>2023-06-15T05:11:10.000+02:00</time>
      </trkpt>
      <trkpt lat="42.72292" lon="-4.19157">
        <ele>1062</ele>
        <time>2023-06-15T05:11:11.000+02:00</time>
      </trkpt>
      <trkpt lat="42.72301" lon="-4.19146">
        <ele>1061</ele>
        <time>2023-06-15T05:11:13.000+02:00</time>
      </trkpt>
      <trkpt lat="42.72309" lon="-4.19141">
        <ele>1060.3</ele>
        <time>2023-06-15T05:11:14.000+02:00</time>
      </trkpt>
      <trkpt lat="42.72316" lon="-4.1914">
        <ele>1059.8</ele>
        <time>2023-06-15T05:11:15.000+02:00</time>
      </trkpt>
      <trkpt lat="42.72325" lon="-4.19143">
        <ele>1058.8</ele>
        <time>2023-06-15T05:11:17.000+02:00</time>
      </trkpt>
      <trkpt lat="42.72339" lon="-4.19149">
        <ele>1056.3</ele>
        <time>2023-06-15T05:11:19.000+02:00</time>
      </trkpt>
      <trkpt lat="42.72347" lon="-4.1915">
        <ele>1053.8</ele>
        <time>2023-06-15T05:11:20.000+02:00</time>
      </trkpt>
      <trkpt lat="42.72353" lon="-4.19149">
        <ele>1052</ele>
        <time>2023-06-15T05:11:21.000+02:00</time>
      </trkpt>
      <trkpt lat="42.7236" lon="-4.19142">
        <ele>1050.8</ele>
        <time>2023-06-15T05:11:23.000+02:00</time>
      </trkpt>
      <trkpt lat="42.72376" lon="-4.19123">
        <ele>1048.8</ele>
        <time>2023-06-15T05:11:26.000+02:00</time>
      </trkpt>
      <trkpt lat="42.72383" lon="-4.1911">
        <ele>1048.8</ele>
        <time>2023-06-15T05:11:28.000+02:00</time>
      </trkpt>
      <trkpt lat="42.72388" lon="-4.19099">
        <ele>1049.3</ele>
        <time>2023-06-15T05:11:29.000+02:00</time>
      </trkpt>
      <trkpt lat="42.72397" lon="-4.1909">
        <ele>1049</ele>
        <time>2023-06-15T05:11:31.000+02:00</time>
      </trkpt>
      <trkpt lat="42.72454" lon="-4.19079">
        <ele>1039.5</ele>
        <time>2023-06-15T05:11:40.000+02:00</time>
      </trkpt>
      <trkpt lat="42.7252" lon="-4.19122">
        <ele>1027.2</ele>
        <time>2023-06-15T05:11:51.000+02:00</time>
      </trkpt>
      <trkpt lat="42.7263" lon="-4.19137">
        <ele>1013.5</ele>
        <time>2023-06-15T05:12:08.000+02:00</time>
      </trkpt>
      <trkpt lat="42.72705" lon="-4.1918">
        <ele>1000.1</ele>
        <time>2023-06-15T05:12:20.000+02:00</time>
      </trkpt>
      <trkpt lat="42.72708" lon="-4.19246">
        <ele>1000.3</ele>
        <time>2023-06-15T05:12:27.000+02:00</time>
      </trkpt>
      <trkpt lat="42.72867" lon="-4.19189">
        <ele>994</ele>
        <time>2023-06-15T05:12:52.000+02:00</time>
      </trkpt>
      <trkpt lat="42.72894" lon="-4.19222">
        <ele>996.9</ele>
        <time>2023-06-15T05:12:58.000+02:00</time>
      </trkpt>
      <trkpt lat="42.7287" lon="-4.19386">
        <ele>1003.9</ele>
        <time>2023-06-15T05:13:17.000+02:00</time>
      </trkpt>
      <trkpt lat="42.73001" lon="-4.19476">
        <ele>1010.3</ele>
        <time>2023-06-15T05:13:39.000+02:00</time>
      </trkpt>
      <trkpt lat="42.73085" lon="-4.19471">
        <ele>1002.8</ele>
        <time>2023-06-15T05:13:52.000+02:00</time>
      </trkpt>
      <trkpt lat="42.73163" lon="-4.19405">
        <ele>991.5</ele>
        <time>2023-06-15T05:14:06.000+02:00</time>
      </trkpt>
      <trkpt lat="42.73236" lon="-4.19418">
        <ele>981.1</ele>
        <time>2023-06-15T05:14:17.000+02:00</time>
      </trkpt>
      <trkpt lat="42.73309" lon="-4.19376">
        <ele>977.8</ele>
        <time>2023-06-15T05:14:29.000+02:00</time>
      </trkpt>
      <trkpt lat="42.73506" lon="-4.1917">
        <ele>965.3</ele>
        <time>2023-06-15T05:15:07.000+02:00</time>
      </trkpt>
      <trkpt lat="42.73641" lon="-4.19152">
        <ele>960.6</ele>
        <time>2023-06-15T05:15:28.000+02:00</time>
      </trkpt>
      <trkpt lat="42.73607" lon="-4.19055">
        <ele>960.2</ele>
        <time>2023-06-15T05:15:40.000+02:00</time>
      </trkpt>
      <trkpt lat="42.73611" lon="-4.19005">
        <ele>961.8</ele>
        <time>2023-06-15T05:15:46.000+02:00</time>
      </trkpt>
      <trkpt lat="42.73756" lon="-4.18834">
        <ele>969.4</ele>
        <time>2023-06-15T05:16:15.000+02:00</time>
      </trkpt>
      <trkpt lat="42.73847" lon="-4.1867">
        <ele>960</ele>
        <time>2023-06-15T05:16:38.000+02:00</time>
      </trkpt>
      <trkpt lat="42.73904" lon="-4.18157">
        <ele>947.8</ele>
        <time>2023-06-15T05:17:36.000+02:00</time>
      </trkpt>
      <trkpt lat="42.73928" lon="-4.17672">
        <ele>931.7</ele>
        <time>2023-06-15T05:18:31.000+02:00</time>
      </trkpt>
      <trkpt lat="42.73816" lon="-4.17299">
        <ele>921.8</ele>
        <time>2023-06-15T05:19:16.000+02:00</time>
      </trkpt>
      <trkpt lat="42.7382" lon="-4.17208">
        <ele>919.2</ele>
        <time>2023-06-15T05:19:26.000+02:00</time>
      </trkpt>
      <trkpt lat="42.74423" lon="-4.1651">
        <ele>908</ele>
        <time>2023-06-15T05:21:27.000+02:00</time>
      </trkpt>
      <trkpt lat="42.74552" lon="-4.16358">
        <ele>910.1</ele>
        <time>2023-06-15T05:21:59.000+02:00</time>
      </trkpt>
      <trkpt lat="42.74633" lon="-4.16271">
        <ele>911</ele>
        <time>2023-06-15T05:22:21.000+02:00</time>
      </trkpt>
      <trkpt lat="42.74692" lon="-4.16207">
        <ele>912.5</ele>
        <time>2023-06-15T05:22:39.000+02:00</time>
      </trkpt>
      <trkpt lat="42.74984" lon="-4.16777">
        <ele>916</ele>
        <time>2023-06-15T05:22:51.000+02:00</time>
      </trkpt>
      <trkpt lat="42.75049" lon="-4.16933">
        <ele>911.1</ele>
        <time>2023-06-15T05:23:21.000+02:00</time>
      </trkpt>
      <trkpt lat="42.75165" lon="-4.17235">
        <ele>910.9</ele>
        <time>2023-06-15T05:23:45.000+02:00</time>
      </trkpt>
      <trkpt lat="42.75267" lon="-4.17474">
        <ele>916.6</ele>
        <time>2023-06-15T05:24:06.000+02:00</time>
      </trkpt>
      <trkpt lat="42.75527" lon="-4.17776">
        <ele>913.1</ele>
        <time>2023-06-15T05:24:58.000+02:00</time>
      </trkpt>
      <trkpt lat="42.75651" lon="-4.18104">
        <ele>905.7</ele>
        <time>2023-06-15T05:25:08.000+02:00</time>
      </trkpt>
      <trkpt lat="42.7579" lon="-4.18004">
        <ele>906</ele>
        <time>2023-06-15T05:25:24.000+02:00</time>
      </trkpt>
      <trkpt lat="42.75881" lon="-4.18222">
        <ele>906</ele>
        <time>2023-06-15T05:26:30.000+02:00</time>
      </trkpt>
      <trkpt lat="42.76069" lon="-4.18473">
        <ele>907.5</ele>
        <time>2023-06-15T05:27:13.000+02:00</time>
      </trkpt>
      <trkpt lat="42.76093" lon="-4.1847">
        <ele>907.9</ele>
        <time>2023-06-15T05:28:26.000+02:00</time>
      </trkpt>
      <trkpt lat="42.76238" lon="-4.18242">
        <ele>909.2</ele>
        <time>2023-06-15T05:29:00.000+02:00</time>
      </trkpt>
      <trkpt lat="42.76434" lon="-4.1851">
        <ele>910.3</ele>
        <time>2023-06-15T05:29:43.000+02:00</time>
      </trkpt>
      <trkpt lat="42.76595" lon="-4.18465">
        <ele>913.9</ele>
        <time>2023-06-15T05:30:08.000+02:00</time>
      </trkpt>
      <trkpt lat="42.7664" lon="-4.18514">
        <ele>914.5</ele>
        <time>2023-06-15T05:30:17.000+02:00</time>
      </trkpt>
      <trkpt lat="42.76765" lon="-4.1881">
        <ele>908.6</ele>
        <time>2023-06-15T05:30:55.000+02:00</time>
      </trkpt>
      <trkpt lat="42.77123" lon="-4.19246">
        <ele>926.7</ele>
        <time>2023-06-15T05:32:08.000+02:00</time>
      </trkpt>
      <trkpt lat="42.77309" lon="-4.19522">
        <ele>928.2</ele>
        <time>2023-06-15T05:32:50.000+02:00</time>
      </trkpt>
      <trkpt lat="42.7749" lon="-4.1954">
        <ele>922.7</ele>
        <time>2023-06-15T05:33:18.000+02:00</time>
      </trkpt>
      <trkpt lat="42.77737" lon="-4.1952">
        <ele>930.1</ele>
        <time>2023-06-15T05:33:56.000+02:00</time>
      </trkpt>
      <trkpt lat="42.77702" lon="-4.19829">
        <ele>920.6</ele>
        <time>2023-06-15T05:34:31.000+02:00</time>
      </trkpt>
      <trkpt lat="42.79026" lon="-4.20733">
        <ele>927.6</ele>
        <time>2023-06-15T05:38:17.000+02:00</time>
      </trkpt>
      <trkpt lat="42.79224" lon="-4.21199">
        <ele>914.8</ele>
        <time>2023-06-15T05:39:18.000+02:00</time>
      </trkpt>
      <trkpt lat="42.79672" lon="-4.20879">
        <ele>924.1</ele>
        <time>2023-06-15T05:40:35.000+02:00</time>
      </trkpt>
      <trkpt lat="42.80225" lon="-4.21384">
        <ele>896</ele>
        <time>2023-06-15T05:42:17.000+02:00</time>
      </trkpt>
      <trkpt lat="42.80611" lon="-4.21557">
        <ele>896.1</ele>
        <time>2023-06-15T05:43:19.000+02:00</time>
      </trkpt>
      <trkpt lat="42.80645" lon="-4.21751">
        <ele>907.7</ele>
        <time>2023-06-15T05:43:41.000+02:00</time>
      </trkpt>
      <trkpt lat="42.80741" lon="-4.21799">
        <ele>921.6</ele>
        <time>2023-06-15T05:43:57.000+02:00</time>
      </trkpt>
      <trkpt lat="42.80731" lon="-4.21886">
        <ele>930.4</ele>
        <time>2023-06-15T05:44:06.000+02:00</time>
      </trkpt>
      <trkpt lat="42.80789" lon="-4.21863">
        <ele>935.7</ele>
        <time>2023-06-15T05:44:16.000+02:00</time>
      </trkpt>
      <trkpt lat="42.80684" lon="-4.221">
        <ele>951</ele>
        <time>2023-06-15T05:44:47.000+02:00</time>
      </trkpt>
      <trkpt lat="42.80663" lon="-4.22274">
        <ele>957.7</ele>
        <time>2023-06-15T05:45:06.000+02:00</time>
      </trkpt>
      <trkpt lat="42.80764" lon="-4.22415">
        <ele>959</ele>
        <time>2023-06-15T05:45:28.000+02:00</time>
      </trkpt>
      <trkpt lat="42.80805" lon="-4.22413">
        <ele>954.9</ele>
        <time>2023-06-15T05:45:35.000+02:00</time>
      </trkpt>
      <trkpt lat="42.80883" lon="-4.22347">
        <ele>947.6</ele>
        <time>2023-06-15T05:45:49.000+02:00</time>
      </trkpt>
      <trkpt lat="42.81015" lon="-4.22428">
        <ele>939.6</ele>
        <time>2023-06-15T05:46:11.000+02:00</time>
      </trkpt>
      <trkpt lat="42.81019" lon="-4.22467">
        <ele>938</ele>
        <time>2023-06-15T05:46:15.000+02:00</time>
      </trkpt>
      <trkpt lat="42.80943" lon="-4.2255">
        <ele>937.2</ele>
        <time>2023-06-15T05:46:30.000+02:00</time>
      </trkpt>
      <trkpt lat="42.80921" lon="-4.22777">
        <ele>925.8</ele>
        <time>2023-06-15T05:46:56.000+02:00</time>
      </trkpt>
      <trkpt lat="42.80937" lon="-4.23008">
        <ele>914.5</ele>
        <time>2023-06-15T05:47:22.000+02:00</time>
      </trkpt>
      <trkpt lat="42.80993" lon="-4.23082">
        <ele>911.3</ele>
        <time>2023-06-15T05:47:34.000+02:00</time>
      </trkpt>
      <trkpt lat="42.81125" lon="-4.23112">
        <ele>909</ele>
        <time>2023-06-15T05:47:54.000+02:00</time>
      </trkpt>
      <trkpt lat="42.81083" lon="-4.23311">
        <ele>906</ele>
        <time>2023-06-15T05:48:17.000+02:00</time>
      </trkpt>
      <trkpt lat="42.81176" lon="-4.23428">
        <ele>905</ele>
        <time>2023-06-15T05:48:37.000+02:00</time>
      </trkpt>
      <trkpt lat="42.81256" lon="-4.23595">
        <ele>905.3</ele>
        <time>2023-06-15T05:48:59.000+02:00</time>
      </trkpt>
      <trkpt lat="42.81281" lon="-4.23694">
        <ele>907.5</ele>
        <time>2023-06-15T05:49:11.000+02:00</time>
      </trkpt>
      <trkpt lat="42.81351" lon="-4.23814">
        <ele>911.6</ele>
        <time>2023-06-15T05:49:28.000+02:00</time>
      </trkpt>
      <trkpt lat="42.81365" lon="-4.23909">
        <ele>909.7</ele>
        <time>2023-06-15T05:49:39.000+02:00</time>
      </trkpt>
      <trkpt lat="42.81486" lon="-4.23984">
        <ele>910.8</ele>
        <time>2023-06-15T05:49:59.000+02:00</time>
      </trkpt>
      <trkpt lat="42.81527" lon="-4.24079">
        <ele>912</ele>
        <time>2023-06-15T05:50:12.000+02:00</time>
      </trkpt>
      <trkpt lat="42.81493" lon="-4.24403">
        <ele>917.5</ele>
        <time>2023-06-15T05:50:48.000+02:00</time>
      </trkpt>
      <trkpt lat="42.81417" lon="-4.2458">
        <ele>919</ele>
        <time>2023-06-15T05:51:11.000+02:00</time>
      </trkpt>
      <trkpt lat="42.81366" lon="-4.246">
        <ele>915.3</ele>
        <time>2023-06-15T05:51:19.000+02:00</time>
      </trkpt>
      <trkpt lat="42.81366" lon="-4.24783">
        <ele>919.1</ele>
        <time>2023-06-15T05:51:40.000+02:00</time>
      </trkpt>
      <trkpt lat="42.81449" lon="-4.25063">
        <ele>926.3</ele>
        <time>2023-06-15T05:52:14.000+02:00</time>
      </trkpt>
      <trkpt lat="42.8158" lon="-4.24981">
        <ele>929.1</ele>
        <time>2023-06-15T05:52:36.000+02:00</time>
      </trkpt>
      <trkpt lat="42.81626" lon="-4.25104">
        <ele>941.5</ele>
        <time>2023-06-15T05:52:51.000+02:00</time>
      </trkpt>
      <trkpt lat="42.81759" lon="-4.25131">
        <ele>954.3</ele>
        <time>2023-06-15T05:53:12.000+02:00</time>
      </trkpt>
      <trkpt lat="42.81701" lon="-4.25304">
        <ele>968.7</ele>
        <time>2023-06-15T05:53:33.000+02:00</time>
      </trkpt>
      <trkpt lat="42.81614" lon="-4.25368">
        <ele>976.6</ele>
        <time>2023-06-15T05:53:48.000+02:00</time>
      </trkpt>
      <trkpt lat="42.81589" lon="-4.25445">
        <ele>979.4</ele>
        <time>2023-06-15T05:53:58.000+02:00</time>
      </trkpt>
      <trkpt lat="42.81656" lon="-4.25538">
        <ele>978.5</ele>
        <time>2023-06-15T05:54:12.000+02:00</time>
      </trkpt>
      <trkpt lat="42.81801" lon="-4.25616">
        <ele>968.5</ele>
        <time>2023-06-15T05:54:36.000+02:00</time>
      </trkpt>
      <trkpt lat="42.81832" lon="-4.25743">
        <ele>959.2</ele>
        <time>2023-06-15T05:54:51.000+02:00</time>
      </trkpt>
      <trkpt lat="42.81662" lon="-4.25806">
        <ele>954</ele>
        <time>2023-06-15T05:55:18.000+02:00</time>
      </trkpt>
      <trkpt lat="42.81423" lon="-4.26018">
        <ele>948.4</ele>
        <time>2023-06-15T05:56:02.000+02:00</time>
      </trkpt>
      <trkpt lat="42.81559" lon="-4.26212">
        <ele>950.8</ele>
        <time>2023-06-15T05:56:32.000+02:00</time>
      </trkpt>
      <trkpt lat="42.8157" lon="-4.26283">
        <ele>949.7</ele>
        <time>2023-06-15T05:56:40.000+02:00</time>
      </trkpt>
      <trkpt lat="42.81467" lon="-4.26446">
        <ele>944.6</ele>
        <time>2023-06-15T05:57:04.000+02:00</time>
      </trkpt>
      <trkpt lat="42.81462" lon="-4.26606">
        <ele>943.7</ele>
        <time>2023-06-15T05:57:22.000+02:00</time>
      </trkpt>
      <trkpt lat="42.8148" lon="-4.26667">
        <ele>945.6</ele>
        <time>2023-06-15T05:57:29.000+02:00</time>
      </trkpt>
      <trkpt lat="42.81571" lon="-4.26829">
        <ele>950.2</ele>
        <time>2023-06-15T05:57:52.000+02:00</time>
      </trkpt>
      <trkpt lat="42.81648" lon="-4.26917">
        <ele>944</ele>
        <time>2023-06-15T05:58:07.000+02:00</time>
      </trkpt>
      <trkpt lat="42.81659" lon="-4.26968">
        <ele>939.2</ele>
        <time>2023-06-15T05:58:13.000+02:00</time>
      </trkpt>
      <trkpt lat="42.81714" lon="-4.26967">
        <ele>938.9</ele>
        <time>2023-06-15T05:58:22.000+02:00</time>
      </trkpt>
      <trkpt lat="42.81816" lon="-4.27218">
        <ele>948.2</ele>
        <time>2023-06-15T05:58:54.000+02:00</time>
      </trkpt>
      <trkpt lat="42.81899" lon="-4.27227">
        <ele>947.7</ele>
        <time>2023-06-15T05:59:07.000+02:00</time>
      </trkpt>
      <trkpt lat="42.81898" lon="-4.27268">
        <ele>948.7</ele>
        <time>2023-06-15T05:59:11.000+02:00</time>
      </trkpt>
      <trkpt lat="42.81858" lon="-4.27326">
        <ele>946.5</ele>
        <time>2023-06-15T05:59:20.000+02:00</time>
      </trkpt>
      <trkpt lat="42.81991" lon="-4.27438">
        <ele>938.1</ele>
        <time>2023-06-15T05:59:44.000+02:00</time>
      </trkpt>
      <trkpt lat="42.8205" lon="-4.27574">
        <ele>939.9</ele>
        <time>2023-06-15T06:00:02.000+02:00</time>
      </trkpt>
      <trkpt lat="42.82074" lon="-4.27757">
        <ele>935.1</ele>
        <time>2023-06-15T06:00:23.000+02:00</time>
      </trkpt>
      <trkpt lat="42.82152" lon="-4.27785">
        <ele>940.8</ele>
        <time>2023-06-15T06:00:35.000+02:00</time>
      </trkpt>
      <trkpt lat="42.82319" lon="-4.27784">
        <ele>949</ele>
        <time>2023-06-15T06:01:00.000+02:00</time>
      </trkpt>
      <trkpt lat="42.82303" lon="-4.27857">
        <ele>946.3</ele>
        <time>2023-06-15T06:01:09.000+02:00</time>
      </trkpt>
      <trkpt lat="42.82494" lon="-4.27862">
        <ele>947.2</ele>
        <time>2023-06-15T06:01:38.000+02:00</time>
      </trkpt>
      <trkpt lat="42.82666" lon="-4.28002">
        <ele>941.3</ele>
        <time>2023-06-15T06:02:09.000+02:00</time>
      </trkpt>
      <trkpt lat="42.82809" lon="-4.28027">
        <ele>945</ele>
        <time>2023-06-15T06:02:31.000+02:00</time>
      </trkpt>
      <trkpt lat="42.8283" lon="-4.28074">
        <ele>943.3</ele>
        <time>2023-06-15T06:02:37.000+02:00</time>
      </trkpt>
      <trkpt lat="42.8278" lon="-4.28164">
        <ele>931.4</ele>
        <time>2023-06-15T06:02:50.000+02:00</time>
      </trkpt>
      <trkpt lat="42.82836" lon="-4.28247">
        <ele>929.3</ele>
        <time>2023-06-15T06:03:02.000+02:00</time>
      </trkpt>
      <trkpt lat="42.82904" lon="-4.28319">
        <ele>929.7</ele>
        <time>2023-06-15T06:03:16.000+02:00</time>
      </trkpt>
      <trkpt lat="42.82994" lon="-4.28342">
        <ele>931</ele>
        <time>2023-06-15T06:03:29.000+02:00</time>
      </trkpt>
      <trkpt lat="42.83189" lon="-4.28504">
        <ele>939.4</ele>
        <time>2023-06-15T06:04:04.000+02:00</time>
      </trkpt>
      <trkpt lat="42.83423" lon="-4.28812">
        <ele>933.8</ele>
        <time>2023-06-15T06:04:54.000+02:00</time>
      </trkpt>
      <trkpt lat="42.83525" lon="-4.28809">
        <ele>934.9</ele>
        <time>2023-06-15T06:05:10.000+02:00</time>
      </trkpt>
      <trkpt lat="42.83596" lon="-4.28645">
        <ele>943.6</ele>
        <time>2023-06-15T06:05:31.000+02:00</time>
      </trkpt>
      <trkpt lat="42.83763" lon="-4.2881">
        <ele>953.8</ele>
        <time>2023-06-15T06:06:03.000+02:00</time>
      </trkpt>
      <trkpt lat="42.83802" lon="-4.288">
        <ele>951.9</ele>
        <time>2023-06-15T06:06:09.000+02:00</time>
      </trkpt>
      <trkpt lat="42.83874" lon="-4.28704">
        <ele>949.8</ele>
        <time>2023-06-15T06:06:24.000+02:00</time>
      </trkpt>
      <trkpt lat="42.83983" lon="-4.28822">
        <ele>968.8</ele>
        <time>2023-06-15T06:06:45.000+02:00</time>
      </trkpt>
      <trkpt lat="42.84078" lon="-4.28973">
        <ele>975.6</ele>
        <time>2023-06-15T06:07:08.000+02:00</time>
      </trkpt>
      <trkpt lat="42.84216" lon="-4.29273">
        <ele>986.8</ele>
        <time>2023-06-15T06:07:47.000+02:00</time>
      </trkpt>
      <trkpt lat="42.84277" lon="-4.29513">
        <ele>988.5</ele>
        <time>2023-06-15T06:08:16.000+02:00</time>
      </trkpt>
      <trkpt lat="42.84302" lon="-4.29872">
        <ele>970.8</ele>
        <time>2023-06-15T06:08:56.000+02:00</time>
      </trkpt>
      <trkpt lat="42.84336" lon="-4.29898">
        <ele>968.5</ele>
        <time>2023-06-15T06:09:02.000+02:00</time>
      </trkpt>
      <trkpt lat="42.84319" lon="-4.30014">
        <ele>967.8</ele>
        <time>2023-06-15T06:09:15.000+02:00</time>
      </trkpt>
      <trkpt lat="42.84375" lon="-4.30181">
        <ele>976</ele>
        <time>2023-06-15T06:09:36.000+02:00</time>
      </trkpt>
      <trkpt lat="42.84404" lon="-4.30663">
        <ele>958</ele>
        <time>2023-06-15T06:10:30.000+02:00</time>
      </trkpt>
      <trkpt lat="42.8438" lon="-4.30802">
        <ele>951.3</ele>
        <time>2023-06-15T06:10:46.000+02:00</time>
      </trkpt>
      <trkpt lat="42.84415" lon="-4.30809">
        <ele>952.3</ele>
        <time>2023-06-15T06:10:51.000+02:00</time>
      </trkpt>
      <trkpt lat="42.84425" lon="-4.30891">
        <ele>957.1</ele>
        <time>2023-06-15T06:11:01.000+02:00</time>
      </trkpt>
      <trkpt lat="42.84611" lon="-4.31091">
        <ele>958.3</ele>
        <time>2023-06-15T06:11:37.000+02:00</time>
      </trkpt>
      <trkpt lat="42.84676" lon="-4.31452">
        <ele>958</ele>
        <time>2023-06-15T06:12:18.000+02:00</time>
      </trkpt>
      <trkpt lat="42.84727" lon="-4.31924">
        <ele>961.8</ele>
        <time>2023-06-15T06:13:12.000+02:00</time>
      </trkpt>
      <trkpt lat="42.84849" lon="-4.32218">
        <ele>964.7</ele>
        <time>2023-06-15T06:13:50.000+02:00</time>
      </trkpt>
      <trkpt lat="42.8468" lon="-4.32498">
        <ele>972.4</ele>
        <time>2023-06-15T06:14:30.000+02:00</time>
      </trkpt>
      <trkpt lat="42.84868" lon="-4.33193">
        <ele>972.7</ele>
        <time>2023-06-15T06:15:53.000+02:00</time>
      </trkpt>
      <trkpt lat="42.85316" lon="-4.33052">
        <ele>974.8</ele>
        <time>2023-06-15T06:17:04.000+02:00</time>
      </trkpt>
      <trkpt lat="42.85316" lon="-4.3388">
        <ele>982.1</ele>
        <time>2023-06-15T06:18:36.000+02:00</time>
      </trkpt>
      <trkpt lat="42.85222" lon="-4.34165">
        <ele>979.9</ele>
        <time>2023-06-15T06:19:11.000+02:00</time>
      </trkpt>
      <trkpt lat="42.85418" lon="-4.34424">
        <ele>997.8</ele>
        <time>2023-06-15T06:19:53.000+02:00</time>
      </trkpt>
      <trkpt lat="42.85544" lon="-4.34399">
        <ele>997.7</ele>
        <time>2023-06-15T06:20:12.000+02:00</time>
      </trkpt>
      <trkpt lat="42.85601" lon="-4.34435">
        <ele>999.1</ele>
        <time>2023-06-15T06:20:22.000+02:00</time>
      </trkpt>
      <trkpt lat="42.85733" lon="-4.35047">
        <ele>1008.5</ele>
        <time>2023-06-15T06:21:34.000+02:00</time>
      </trkpt>
      <trkpt lat="42.85664" lon="-4.35266">
        <ele>1008.5</ele>
        <time>2023-06-15T06:22:00.000+02:00</time>
      </trkpt>
      <trkpt lat="42.8571" lon="-4.3559">
        <ele>1007.5</ele>
        <time>2023-06-15T06:22:37.000+02:00</time>
      </trkpt>
      <trkpt lat="42.85667" lon="-4.35723">
        <ele>1004</ele>
        <time>2023-06-15T06:22:53.000+02:00</time>
      </trkpt>
      <trkpt lat="42.85734" lon="-4.36319">
        <ele>966.8</ele>
        <time>2023-06-15T06:24:01.000+02:00</time>
      </trkpt>
      <trkpt lat="42.8571" lon="-4.36595">
        <ele>964.2</ele>
        <time>2023-06-15T06:24:32.000+02:00</time>
      </trkpt>
      <trkpt lat="42.85724" lon="-4.3667">
        <ele>958.9</ele>
        <time>2023-06-15T06:24:41.000+02:00</time>
      </trkpt>
      <trkpt lat="42.85686" lon="-4.36731">
        <ele>958.5</ele>
        <time>2023-06-15T06:24:50.000+02:00</time>
      </trkpt>
      <trkpt lat="42.85642" lon="-4.367">
        <ele>960.7</ele>
        <time>2023-06-15T06:24:57.000+02:00</time>
      </trkpt>
      <trkpt lat="42.85623" lon="-4.36645">
        <ele>964.3</ele>
        <time>2023-06-15T06:25:04.000+02:00</time>
      </trkpt>
      <trkpt lat="42.85215" lon="-4.36795">
        <ele>960.4</ele>
        <time>2023-06-15T06:26:09.000+02:00</time>
      </trkpt>
      <trkpt lat="42.8524" lon="-4.37025">
        <ele>956.4</ele>
        <time>2023-06-15T06:26:35.000+02:00</time>
      </trkpt>
      <trkpt lat="42.85228" lon="-4.37107">
        <ele>952.7</ele>
        <time>2023-06-15T06:26:44.000+02:00</time>
      </trkpt>
      <trkpt lat="42.85424" lon="-4.37406">
        <ele>951.9</ele>
        <time>2023-06-15T06:27:29.000+02:00</time>
      </trkpt>
      <trkpt lat="42.8532" lon="-4.37494">
        <ele>951</ele>
        <time>2023-06-15T06:27:48.000+02:00</time>
      </trkpt>
      <trkpt lat="42.85373" lon="-4.3776">
        <ele>952.6</ele>
        <time>2023-06-15T06:28:19.000+02:00</time>
      </trkpt>
      <trkpt lat="42.85361" lon="-4.37844">
        <ele>949</ele>
        <time>2023-06-15T06:28:28.000+02:00</time>
      </trkpt>
      <trkpt lat="42.85227" lon="-4.37914">
        <ele>946.3</ele>
        <time>2023-06-15T06:28:50.000+02:00</time>
      </trkpt>
      <trkpt lat="42.85156" lon="-4.37916">
        <ele>945</ele>
        <time>2023-06-15T06:29:01.000+02:00</time>
      </trkpt>
      <trkpt lat="42.84922" lon="-4.37822">
        <ele>944</ele>
        <time>2023-06-15T06:29:38.000+02:00</time>
      </trkpt>
      <trkpt lat="42.84743" lon="-4.37925">
        <ele>945.1</ele>
        <time>2023-06-15T06:30:08.000+02:00</time>
      </trkpt>
      <trkpt lat="42.84833" lon="-4.38183">
        <ele>943.6</ele>
        <time>2023-06-15T06:30:40.000+02:00</time>
      </trkpt>
      <trkpt lat="42.84881" lon="-4.38798">
        <ele>946</ele>
        <time>2023-06-15T06:31:49.000+02:00</time>
      </trkpt>
      <trkpt lat="42.8484" lon="-4.38964">
        <ele>946.8</ele>
        <time>2023-06-15T06:32:09.000+02:00</time>
      </trkpt>
      <trkpt lat="42.84639" lon="-4.39278">
        <ele>948</ele>
        <time>2023-06-15T06:32:56.000+02:00</time>
      </trkpt>
      <trkpt lat="42.84581" lon="-4.39439">
        <ele>949.2</ele>
        <time>2023-06-15T06:33:16.000+02:00</time>
      </trkpt>
      <trkpt lat="42.84563" lon="-4.39641">
        <ele>949.4</ele>
        <time>2023-06-15T06:33:39.000+02:00</time>
      </trkpt>
      <trkpt lat="42.84604" lon="-4.39977">
        <ele>950</ele>
        <time>2023-06-15T06:34:17.000+02:00</time>
      </trkpt>
      <trkpt lat="42.84562" lon="-4.4012">
        <ele>951</ele>
        <time>2023-06-15T06:34:34.000+02:00</time>
      </trkpt>
      <trkpt lat="42.8453" lon="-4.40445">
        <ele>950.9</ele>
        <time>2023-06-15T06:35:11.000+02:00</time>
      </trkpt>
      <trkpt lat="42.84569" lon="-4.40785">
        <ele>952.4</ele>
        <time>2023-06-15T06:35:49.000+02:00</time>
      </trkpt>
      <trkpt lat="42.84647" lon="-4.40915">
        <ele>952.3</ele>
        <time>2023-06-15T06:36:08.000+02:00</time>
      </trkpt>
      <trkpt lat="42.84675" lon="-4.41092">
        <ele>955.3</ele>
        <time>2023-06-15T06:36:28.000+02:00</time>
      </trkpt>
      <trkpt lat="42.84552" lon="-4.41135">
        <ele>958.4</ele>
        <time>2023-06-15T06:36:48.000+02:00</time>
      </trkpt>
      <trkpt lat="42.84291" lon="-4.41539">
        <ele>964.4</ele>
        <time>2023-06-15T06:37:48.000+02:00</time>
      </trkpt>
      <trkpt lat="42.84067" lon="-4.41698">
        <ele>976.1</ele>
        <time>2023-06-15T06:38:27.000+02:00</time>
      </trkpt>
      <trkpt lat="42.83988" lon="-4.41789">
        <ele>984.9</ele>
        <time>2023-06-15T06:38:42.000+02:00</time>
      </trkpt>
      <trkpt lat="42.8395" lon="-4.41906">
        <ele>981.2</ele>
        <time>2023-06-15T06:38:57.000+02:00</time>
      </trkpt>
      <trkpt lat="42.83816" lon="-4.41883">
        <ele>972.4</ele>
        <time>2023-06-15T06:39:17.000+02:00</time>
      </trkpt>
      <trkpt lat="42.83529" lon="-4.42235">
        <ele>976</ele>
        <time>2023-06-15T06:40:16.000+02:00</time>
      </trkpt>
      <trkpt lat="42.83478" lon="-4.4225">
        <ele>977.6</ele>
        <time>2023-06-15T06:40:24.000+02:00</time>
      </trkpt>
      <trkpt lat="42.83359" lon="-4.42222">
        <ele>981</ele>
        <time>2023-06-15T06:40:43.000+02:00</time>
      </trkpt>
      <trkpt lat="42.83032" lon="-4.42017">
        <ele>993.3</ele>
        <time>2023-06-15T06:41:38.000+02:00</time>
      </trkpt>
      <trkpt lat="42.8281" lon="-4.41973">
        <ele>1002.8</ele>
        <time>2023-06-15T06:42:12.000+02:00</time>
      </trkpt>
      <trkpt lat="42.82712" lon="-4.41906">
        <ele>1010.2</ele>
        <time>2023-06-15T06:42:29.000+02:00</time>
      </trkpt>
      <trkpt lat="42.82604" lon="-4.41778">
        <ele>1020.1</ele>
        <time>2023-06-15T06:42:51.000+02:00</time>
      </trkpt>
      <trkpt lat="42.82525" lon="-4.41617">
        <ele>1014.7</ele>
        <time>2023-06-15T06:43:13.000+02:00</time>
      </trkpt>
      <trkpt lat="42.82585" lon="-4.41453">
        <ele>996.2</ele>
        <time>2023-06-15T06:43:33.000+02:00</time>
      </trkpt>
      <trkpt lat="42.82516" lon="-4.41312">
        <ele>999</ele>
        <time>2023-06-15T06:43:52.000+02:00</time>
      </trkpt>
      <trkpt lat="42.82478" lon="-4.41128">
        <ele>1000.4</ele>
        <time>2023-06-15T06:44:13.000+02:00</time>
      </trkpt>
      <trkpt lat="42.82524" lon="-4.41018">
        <ele>996.1</ele>
        <time>2023-06-15T06:44:28.000+02:00</time>
      </trkpt>
      <trkpt lat="42.82478" lon="-4.41005">
        <ele>1001.4</ele>
        <time>2023-06-15T06:44:35.000+02:00</time>
      </trkpt>
      <trkpt lat="42.82463" lon="-4.40779">
        <ele>988.4</ele>
        <time>2023-06-15T06:45:00.000+02:00</time>
      </trkpt>
      <trkpt lat="42.82362" lon="-4.40566">
        <ele>987.1</ele>
        <time>2023-06-15T06:45:29.000+02:00</time>
      </trkpt>
      <trkpt lat="42.82264" lon="-4.40432">
        <ele>987.4</ele>
        <time>2023-06-15T06:45:50.000+02:00</time>
      </trkpt>
      <trkpt lat="42.82263" lon="-4.40326">
        <ele>983.8</ele>
        <time>2023-06-15T06:46:02.000+02:00</time>
      </trkpt>
      <trkpt lat="42.82218" lon="-4.40192">
        <ele>983.2</ele>
        <time>2023-06-15T06:46:18.000+02:00</time>
      </trkpt>
      <trkpt lat="42.82186" lon="-4.39966">
        <ele>975.7</ele>
        <time>2023-06-15T06:46:44.000+02:00</time>
      </trkpt>
      <trkpt lat="42.82151" lon="-4.39887">
        <ele>975</ele>
        <time>2023-06-15T06:46:54.000+02:00</time>
      </trkpt>
      <trkpt lat="42.81998" lon="-4.39695">
        <ele>980.5</ele>
        <time>2023-06-15T06:47:26.000+02:00</time>
      </trkpt>
      <trkpt lat="42.81905" lon="-4.39432">
        <ele>979.1</ele>
        <time>2023-06-15T06:47:59.000+02:00</time>
      </trkpt>
      <trkpt lat="42.81868" lon="-4.39384">
        <ele>980.9</ele>
        <time>2023-06-15T06:48:07.000+02:00</time>
      </trkpt>
      <trkpt lat="42.81834" lon="-4.39274">
        <ele>982.1</ele>
        <time>2023-06-15T06:48:20.000+02:00</time>
      </trkpt>
      <trkpt lat="42.81838" lon="-4.39202">
        <ele>984.5</ele>
        <time>2023-06-15T06:48:28.000+02:00</time>
      </trkpt>
      <trkpt lat="42.8176" lon="-4.39025">
        <ele>981.7</ele>
        <time>2023-06-15T06:48:51.000+02:00</time>
      </trkpt>
      <trkpt lat="42.8174" lon="-4.38798">
        <ele>971</ele>
        <time>2023-06-15T06:49:17.000+02:00</time>
      </trkpt>
      <trkpt lat="42.81522" lon="-4.38496">
        <ele>964.8</ele>
        <time>2023-06-15T06:50:04.000+02:00</time>
      </trkpt>
      <trkpt lat="42.81294" lon="-4.37981">
        <ele>956.6</ele>
        <time>2023-06-15T06:51:12.000+02:00</time>
      </trkpt>
      <trkpt lat="42.8118" lon="-4.38043">
        <ele>962.9</ele>
        <time>2023-06-15T06:51:31.000+02:00</time>
      </trkpt>
      <trkpt lat="42.8115" lon="-4.38021">
        <ele>967.9</ele>
        <time>2023-06-15T06:51:36.000+02:00</time>
      </trkpt>
      <trkpt lat="42.81108" lon="-4.37883">
        <ele>981.1</ele>
        <time>2023-06-15T06:51:53.000+02:00</time>
      </trkpt>
      <trkpt lat="42.8109" lon="-4.38017">
        <ele>987.5</ele>
        <time>2023-06-15T06:52:08.000+02:00</time>
      </trkpt>
      <trkpt lat="42.81112" lon="-4.38116">
        <ele>993.4</ele>
        <time>2023-06-15T06:52:19.000+02:00</time>
      </trkpt>
      <trkpt lat="42.81059" lon="-4.38338">
        <ele>998.4</ele>
        <time>2023-06-15T06:52:46.000+02:00</time>
      </trkpt>
      <trkpt lat="42.81068" lon="-4.38388">
        <ele>1001.2</ele>
        <time>2023-06-15T06:52:51.000+02:00</time>
      </trkpt>
      <trkpt lat="42.8103" lon="-4.38588">
        <ele>1009</ele>
        <time>2023-06-15T06:53:15.000+02:00</time>
      </trkpt>
      <trkpt lat="42.80923" lon="-4.3894">
        <ele>1020.6</ele>
        <time>2023-06-15T06:53:57.000+02:00</time>
      </trkpt>
      <trkpt lat="42.8092" lon="-4.39045">
        <ele>1023.5</ele>
        <time>2023-06-15T06:54:09.000+02:00</time>
      </trkpt>
      <trkpt lat="42.80828" lon="-4.3919">
        <ele>1023.7</ele>
        <time>2023-06-15T06:54:31.000+02:00</time>
      </trkpt>
      <trkpt lat="42.80803" lon="-4.39283">
        <ele>1025.1</ele>
        <time>2023-06-15T06:54:42.000+02:00</time>
      </trkpt>
      <trkpt lat="42.80824" lon="-4.39369">
        <ele>1028.6</ele>
        <time>2023-06-15T06:54:52.000+02:00</time>
      </trkpt>
      <trkpt lat="42.81005" lon="-4.39707">
        <ele>1042.9</ele>
        <time>2023-06-15T06:55:39.000+02:00</time>
      </trkpt>
      <trkpt lat="42.81233" lon="-4.40232">
        <ele>1064.7</ele>
        <time>2023-06-15T06:56:47.000+02:00</time>
      </trkpt>
      <trkpt lat="42.81259" lon="-4.40394">
        <ele>1073.7</ele>
        <time>2023-06-15T06:57:06.000+02:00</time>
      </trkpt>
      <trkpt lat="42.81409" lon="-4.40866">
        <ele>1119.5</ele>
        <time>2023-06-15T06:58:03.000+02:00</time>
      </trkpt>
      <trkpt lat="42.8141" lon="-4.41016">
        <ele>1125.5</ele>
        <time>2023-06-15T06:58:20.000+02:00</time>
      </trkpt>
      <trkpt lat="42.81524" lon="-4.41435">
        <ele>1172.3</ele>
        <time>2023-06-15T06:59:10.000+02:00</time>
      </trkpt>
      <trkpt lat="42.81635" lon="-4.41661">
        <ele>1165.8</ele>
        <time>2023-06-15T06:59:41.000+02:00</time>
      </trkpt>
      <trkpt lat="42.81739" lon="-4.41693">
        <ele>1153</ele>
        <time>2023-06-15T06:59:57.000+02:00</time>
      </trkpt>
      <trkpt lat="42.81787" lon="-4.42527">
        <ele>1119.6</ele>
        <time>2023-06-15T07:01:31.000+02:00</time>
      </trkpt>
      <trkpt lat="42.81759" lon="-4.42824">
        <ele>1125.7</ele>
        <time>2023-06-15T07:02:04.000+02:00</time>
      </trkpt>
      <trkpt lat="42.81611" lon="-4.42977">
        <ele>1120.4</ele>
        <time>2023-06-15T07:02:33.000+02:00</time>
      </trkpt>
      <trkpt lat="42.81556" lon="-4.43098">
        <ele>1116</ele>
        <time>2023-06-15T07:02:49.000+02:00</time>
      </trkpt>
      <trkpt lat="42.81397" lon="-4.43094">
        <ele>1102.9</ele>
        <time>2023-06-15T07:03:13.000+02:00</time>
      </trkpt>
      <trkpt lat="42.81243" lon="-4.43153">
        <ele>1105.5</ele>
        <time>2023-06-15T07:03:37.000+02:00</time>
      </trkpt>
      <trkpt lat="42.81156" lon="-4.4322">
        <ele>1107.5</ele>
        <time>2023-06-15T07:03:53.000+02:00</time>
      </trkpt>
      <trkpt lat="42.81083" lon="-4.43372">
        <ele>1108.8</ele>
        <time>2023-06-15T07:04:13.000+02:00</time>
      </trkpt>
      <trkpt lat="42.80995" lon="-4.43425">
        <ele>1113.4</ele>
        <time>2023-06-15T07:04:28.000+02:00</time>
      </trkpt>
      <trkpt lat="42.80844" lon="-4.43383">
        <ele>1099.6</ele>
        <time>2023-06-15T07:04:51.000+02:00</time>
      </trkpt>
      <trkpt lat="42.80824" lon="-4.43409">
        <ele>1096.1</ele>
        <time>2023-06-15T07:04:56.000+02:00</time>
      </trkpt>
      <trkpt lat="42.80817" lon="-4.43566">
        <ele>1089</ele>
        <time>2023-06-15T07:05:13.000+02:00</time>
      </trkpt>
      <trkpt lat="42.80541" lon="-4.43535">
        <ele>1101.1</ele>
        <time>2023-06-15T07:05:56.000+02:00</time>
      </trkpt>
      <trkpt lat="42.80478" lon="-4.43501">
        <ele>1096.4</ele>
        <time>2023-06-15T07:06:06.000+02:00</time>
      </trkpt>
      <trkpt lat="42.80495" lon="-4.43591">
        <ele>1091.1</ele>
        <time>2023-06-15T07:06:16.000+02:00</time>
      </trkpt>
      <trkpt lat="42.8059" lon="-4.43705">
        <ele>1090.3</ele>
        <time>2023-06-15T07:06:36.000+02:00</time>
      </trkpt>
      <trkpt lat="42.80583" lon="-4.43736">
        <ele>1087.9</ele>
        <time>2023-06-15T07:06:39.000+02:00</time>
      </trkpt>
      <trkpt lat="42.8035" lon="-4.43676">
        <ele>1068.1</ele>
        <time>2023-06-15T07:07:16.000+02:00</time>
      </trkpt>
      <trkpt lat="42.80336" lon="-4.43692">
        <ele>1066.2</ele>
        <time>2023-06-15T07:07:18.000+02:00</time>
      </trkpt>
      <trkpt lat="42.80445" lon="-4.43803">
        <ele>1071.5</ele>
        <time>2023-06-15T07:07:39.000+02:00</time>
      </trkpt>
      <trkpt lat="42.80633" lon="-4.44132">
        <ele>1081.5</ele>
        <time>2023-06-15T07:08:26.000+02:00</time>
      </trkpt>
      <trkpt lat="42.80656" lon="-4.44197">
        <ele>1083.7</ele>
        <time>2023-06-15T07:08:34.000+02:00</time>
      </trkpt>
      <trkpt lat="42.80622" lon="-4.44268">
        <ele>1086.9</ele>
        <time>2023-06-15T07:08:44.000+02:00</time>
      </trkpt>
      <trkpt lat="42.80746" lon="-4.44486">
        <ele>1094.5</ele>
        <time>2023-06-15T07:09:15.000+02:00</time>
      </trkpt>
      <trkpt lat="42.80812" lon="-4.44756">
        <ele>1111.6</ele>
        <time>2023-06-15T07:09:46.000+02:00</time>
      </trkpt>
      <trkpt lat="42.80901" lon="-4.44908">
        <ele>1127.5</ele>
        <time>2023-06-15T07:10:08.000+02:00</time>
      </trkpt>
      <trkpt lat="42.80915" lon="-4.45029">
        <ele>1139.4</ele>
        <time>2023-06-15T07:10:22.000+02:00</time>
      </trkpt>
      <trkpt lat="42.81067" lon="-4.45144">
        <ele>1145.2</ele>
        <time>2023-06-15T07:10:49.000+02:00</time>
      </trkpt>
      <trkpt lat="42.81163" lon="-4.45169">
        <ele>1150.4</ele>
        <time>2023-06-15T07:11:03.000+02:00</time>
      </trkpt>
      <trkpt lat="42.81312" lon="-4.45346">
        <ele>1162.4</ele>
        <time>2023-06-15T07:11:34.000+02:00</time>
      </trkpt>
      <trkpt lat="42.81307" lon="-4.45452">
        <ele>1159.5</ele>
        <time>2023-06-15T07:11:46.000+02:00</time>
      </trkpt>
      <trkpt lat="42.81435" lon="-4.45551">
        <ele>1151.7</ele>
        <time>2023-06-15T07:12:08.000+02:00</time>
      </trkpt>
      <trkpt lat="42.81427" lon="-4.45745">
        <ele>1147.9</ele>
        <time>2023-06-15T07:12:30.000+02:00</time>
      </trkpt>
      <trkpt lat="42.81465" lon="-4.45793">
        <ele>1147.3</ele>
        <time>2023-06-15T07:12:38.000+02:00</time>
      </trkpt>
      <trkpt lat="42.81485" lon="-4.45928">
        <ele>1149.9</ele>
        <time>2023-06-15T07:12:53.000+02:00</time>
      </trkpt>
      <trkpt lat="42.81547" lon="-4.46069">
        <ele>1153.4</ele>
        <time>2023-06-15T07:13:12.000+02:00</time>
      </trkpt>
      <trkpt lat="42.81517" lon="-4.46327">
        <ele>1161.5</ele>
        <time>2023-06-15T07:13:41.000+02:00</time>
      </trkpt>
      <trkpt lat="42.81524" lon="-4.46459">
        <ele>1159.5</ele>
        <time>2023-06-15T07:13:56.000+02:00</time>
      </trkpt>
      <trkpt lat="42.81496" lon="-4.46568">
        <ele>1156.3</ele>
        <time>2023-06-15T07:14:09.000+02:00</time>
      </trkpt>
      <trkpt lat="42.81512" lon="-4.4669">
        <ele>1160.7</ele>
        <time>2023-06-15T07:14:23.000+02:00</time>
      </trkpt>
      <trkpt lat="42.81412" lon="-4.46919">
        <ele>1156.5</ele>
        <time>2023-06-15T07:14:53.000+02:00</time>
      </trkpt>
      <trkpt lat="42.81393" lon="-4.47149">
        <ele>1151.9</ele>
        <time>2023-06-15T07:15:18.000+02:00</time>
      </trkpt>
      <trkpt lat="42.81319" lon="-4.47402">
        <ele>1138.1</ele>
        <time>2023-06-15T07:15:49.000+02:00</time>
      </trkpt>
      <trkpt lat="42.81344" lon="-4.47561">
        <ele>1129.7</ele>
        <time>2023-06-15T07:16:07.000+02:00</time>
      </trkpt>
      <trkpt lat="42.81306" lon="-4.47685">
        <ele>1122.4</ele>
        <time>2023-06-15T07:16:22.000+02:00</time>
      </trkpt>
      <trkpt lat="42.81336" lon="-4.47997">
        <ele>1098.9</ele>
        <time>2023-06-15T07:16:58.000+02:00</time>
      </trkpt>
      <trkpt lat="42.81298" lon="-4.48184">
        <ele>1084.8</ele>
        <time>2023-06-15T07:17:19.000+02:00</time>
      </trkpt>
      <trkpt lat="42.81347" lon="-4.48246">
        <ele>1080.2</ele>
        <time>2023-06-15T07:17:30.000+02:00</time>
      </trkpt>
      <trkpt lat="42.81434" lon="-4.48455">
        <ele>1068.4</ele>
        <time>2023-06-15T07:17:56.000+02:00</time>
      </trkpt>
      <trkpt lat="42.81342" lon="-4.48545">
        <ele>1068.4</ele>
        <time>2023-06-15T07:18:14.000+02:00</time>
      </trkpt>
      <trkpt lat="42.81351" lon="-4.48664">
        <ele>1064.9</ele>
        <time>2023-06-15T07:18:27.000+02:00</time>
      </trkpt>
      <trkpt lat="42.81279" lon="-4.48776">
        <ele>1064</ele>
        <time>2023-06-15T07:18:44.000+02:00</time>
      </trkpt>
      <trkpt lat="42.80943" lon="-4.49148">
        <ele>1055.1</ele>
        <time>2023-06-15T07:19:50.000+02:00</time>
      </trkpt>
      <trkpt lat="42.80493" lon="-4.49558">
        <ele>1051.7</ele>
        <time>2023-06-15T07:21:13.000+02:00</time>
      </trkpt>
      <trkpt lat="42.80446" lon="-4.49679">
        <ele>1047.5</ele>
        <time>2023-06-15T07:21:28.000+02:00</time>
      </trkpt>
      <trkpt lat="42.80161" lon="-4.50019">
        <ele>1042.5</ele>
        <time>2023-06-15T07:22:26.000+02:00</time>
      </trkpt>
      <trkpt lat="42.8" lon="-4.50269">
        <ele>1040</ele>
        <time>2023-06-15T07:23:03.000+02:00</time>
      </trkpt>
      <trkpt lat="42.79776" lon="-4.50509">
        <ele>1038.2</ele>
        <time>2023-06-15T07:23:47.000+02:00</time>
      </trkpt>
      <trkpt lat="42.79735" lon="-4.50761">
        <ele>1037.1</ele>
        <time>2023-06-15T07:24:16.000+02:00</time>
      </trkpt>
      <trkpt lat="42.79623" lon="-4.50901">
        <ele>1036.7</ele>
        <time>2023-06-15T07:24:39.000+02:00</time>
      </trkpt>
      <trkpt lat="42.79568" lon="-4.5112">
        <ele>1034</ele>
        <time>2023-06-15T07:25:05.000+02:00</time>
      </trkpt>
      <trkpt lat="42.79609" lon="-4.51288">
        <ele>1033.9</ele>
        <time>2023-06-15T07:25:25.000+02:00</time>
      </trkpt>
      <trkpt lat="42.7971" lon="-4.51281">
        <ele>1036.6</ele>
        <time>2023-06-15T07:25:40.000+02:00</time>
      </trkpt>
      <trkpt lat="42.79744" lon="-4.51219">
        <ele>1038.4</ele>
        <time>2023-06-15T07:25:49.000+02:00</time>
      </trkpt>
      <trkpt lat="42.7984" lon="-4.51162">
        <ele>1041.5</ele>
        <time>2023-06-15T07:26:05.000+02:00</time>
      </trkpt>
      <trkpt lat="42.79921" lon="-4.51819">
        <ele>1056.6</ele>
        <time>2023-06-15T07:27:20.000+02:00</time>
      </trkpt>
      <trkpt lat="42.80102" lon="-4.51913">
        <ele>1063.3</ele>
        <time>2023-06-15T07:27:49.000+02:00</time>
      </trkpt>
      <trkpt lat="42.80133" lon="-4.52253">
        <ele>1077.3</ele>
        <time>2023-06-15T07:28:28.000+02:00</time>
      </trkpt>
      <trkpt lat="42.80182" lon="-4.52482">
        <ele>1088.5</ele>
        <time>2023-06-15T07:28:54.000+02:00</time>
      </trkpt>
      <trkpt lat="42.80216" lon="-4.52585">
        <ele>1091.9</ele>
        <time>2023-06-15T07:29:07.000+02:00</time>
      </trkpt>
      <trkpt lat="42.80262" lon="-4.52642">
        <ele>1096.4</ele>
        <time>2023-06-15T07:29:17.000+02:00</time>
      </trkpt>
      <trkpt lat="42.80339" lon="-4.52895">
        <ele>1102</ele>
        <time>2023-06-15T07:29:47.000+02:00</time>
      </trkpt>
      <trkpt lat="42.80378" lon="-4.52917">
        <ele>1102.4</ele>
        <time>2023-06-15T07:29:54.000+02:00</time>
      </trkpt>
      <trkpt lat="42.8037" lon="-4.53041">
        <ele>1107.6</ele>
        <time>2023-06-15T07:30:08.000+02:00</time>
      </trkpt>
      <trkpt lat="42.80433" lon="-4.53162">
        <ele>1108.8</ele>
        <time>2023-06-15T07:30:24.000+02:00</time>
      </trkpt>
      <trkpt lat="42.80582" lon="-4.53303">
        <ele>1108.8</ele>
        <time>2023-06-15T07:30:52.000+02:00</time>
      </trkpt>
      <trkpt lat="42.80615" lon="-4.53374">
        <ele>1111</ele>
        <time>2023-06-15T07:31:02.000+02:00</time>
      </trkpt>
      <trkpt lat="42.80609" lon="-4.53568">
        <ele>1117.2</ele>
        <time>2023-06-15T07:31:23.000+02:00</time>
      </trkpt>
      <trkpt lat="42.80749" lon="-4.53925">
        <ele>1088.7</ele>
        <time>2023-06-15T07:32:09.000+02:00</time>
      </trkpt>
      <trkpt lat="42.80756" lon="-4.54063">
        <ele>1091.5</ele>
        <time>2023-06-15T07:32:24.000+02:00</time>
      </trkpt>
      <trkpt lat="42.80818" lon="-4.54124">
        <ele>1097.8</ele>
        <time>2023-06-15T07:32:36.000+02:00</time>
      </trkpt>
      <trkpt lat="42.81075" lon="-4.54571">
        <ele>1129.3</ele>
        <time>2023-06-15T07:33:40.000+02:00</time>
      </trkpt>
      <trkpt lat="42.81128" lon="-4.54856">
        <ele>1112.6</ele>
        <time>2023-06-15T07:34:13.000+02:00</time>
      </trkpt>
      <trkpt lat="42.81229" lon="-4.54832">
        <ele>1110.1</ele>
        <time>2023-06-15T07:34:28.000+02:00</time>
      </trkpt>
      <trkpt lat="42.81282" lon="-4.54885">
        <ele>1111</ele>
        <time>2023-06-15T07:34:38.000+02:00</time>
      </trkpt>
      <trkpt lat="42.8135" lon="-4.55137">
        <ele>1112.1</ele>
        <time>2023-06-15T07:35:08.000+02:00</time>
      </trkpt>
      <trkpt lat="42.81361" lon="-4.553">
        <ele>1120.8</ele>
        <time>2023-06-15T07:35:27.000+02:00</time>
      </trkpt>
      <trkpt lat="42.81396" lon="-4.55376">
        <ele>1120.8</ele>
        <time>2023-06-15T07:35:37.000+02:00</time>
      </trkpt>
      <trkpt lat="42.81322" lon="-4.55481">
        <ele>1121.5</ele>
        <time>2023-06-15T07:35:53.000+02:00</time>
      </trkpt>
      <trkpt lat="42.81319" lon="-4.55639">
        <ele>1127.5</ele>
        <time>2023-06-15T07:36:11.000+02:00</time>
      </trkpt>
      <trkpt lat="42.81481" lon="-4.56017">
        <ele>1148.4</ele>
        <time>2023-06-15T07:37:00.000+02:00</time>
      </trkpt>
      <trkpt lat="42.8146" lon="-4.56075">
        <ele>1150.3</ele>
        <time>2023-06-15T07:37:07.000+02:00</time>
      </trkpt>
      <trkpt lat="42.81476" lon="-4.56276">
        <ele>1157.4</ele>
        <time>2023-06-15T07:37:30.000+02:00</time>
      </trkpt>
      <trkpt lat="42.81409" lon="-4.5647">
        <ele>1148.5</ele>
        <time>2023-06-15T07:37:54.000+02:00</time>
      </trkpt>
      <trkpt lat="42.81381" lon="-4.56673">
        <ele>1134.4</ele>
        <time>2023-06-15T07:38:17.000+02:00</time>
      </trkpt>
      <trkpt lat="42.81392" lon="-4.57182">
        <ele>1125.1</ele>
        <time>2023-06-15T07:39:14.000+02:00</time>
      </trkpt>
      <trkpt lat="42.81267" lon="-4.57626">
        <ele>1125.9</ele>
        <time>2023-06-15T07:40:07.000+02:00</time>
      </trkpt>
      <trkpt lat="42.8125" lon="-4.57784">
        <ele>1126</ele>
        <time>2023-06-15T07:40:25.000+02:00</time>
      </trkpt>
      <trkpt lat="42.81183" lon="-4.57948">
        <ele>1125.2</ele>
        <time>2023-06-15T07:40:46.000+02:00</time>
      </trkpt>
      <trkpt lat="42.81015" lon="-4.58103">
        <ele>1122.5</ele>
        <time>2023-06-15T07:41:17.000+02:00</time>
      </trkpt>
      <trkpt lat="42.8096" lon="-4.58289">
        <ele>1120</ele>
        <time>2023-06-15T07:41:40.000+02:00</time>
      </trkpt>
      <trkpt lat="42.81001" lon="-4.58428">
        <ele>1127.2</ele>
        <time>2023-06-15T07:41:56.000+02:00</time>
      </trkpt>
      <trkpt lat="42.81108" lon="-4.59199">
        <ele>1169.7</ele>
        <time>2023-06-15T07:43:24.000+02:00</time>
      </trkpt>
      <trkpt lat="42.81214" lon="-4.59655">
        <ele>1186.8</ele>
        <time>2023-06-15T07:44:18.000+02:00</time>
      </trkpt>
      <trkpt lat="42.81162" lon="-4.59806">
        <ele>1159</ele>
        <time>2023-06-15T07:44:37.000+02:00</time>
      </trkpt>
      <trkpt lat="42.81182" lon="-4.59876">
        <ele>1154.3</ele>
        <time>2023-06-15T07:44:45.000+02:00</time>
      </trkpt>
      <trkpt lat="42.81228" lon="-4.59922">
        <ele>1156</ele>
        <time>2023-06-15T07:44:54.000+02:00</time>
      </trkpt>
      <trkpt lat="42.81238" lon="-4.60065">
        <ele>1144.6</ele>
        <time>2023-06-15T07:45:10.000+02:00</time>
      </trkpt>
      <trkpt lat="42.8131" lon="-4.60259">
        <ele>1150.8</ele>
        <time>2023-06-15T07:45:34.000+02:00</time>
      </trkpt>
      <trkpt lat="42.8137" lon="-4.60626">
        <ele>1140.9</ele>
        <time>2023-06-15T07:46:16.000+02:00</time>
      </trkpt>
      <trkpt lat="42.81469" lon="-4.61029">
        <ele>1141.4</ele>
        <time>2023-06-15T07:47:04.000+02:00</time>
      </trkpt>
      <trkpt lat="42.81492" lon="-4.61086">
        <ele>1139.6</ele>
        <time>2023-06-15T07:47:11.000+02:00</time>
      </trkpt>
      <trkpt lat="42.81618" lon="-4.61135">
        <ele>1140.8</ele>
        <time>2023-06-15T07:47:31.000+02:00</time>
      </trkpt>
      <trkpt lat="42.81612" lon="-4.61152">
        <ele>1140.5</ele>
        <time>2023-06-15T07:47:33.000+02:00</time>
      </trkpt>
      <trkpt lat="42.81693" lon="-4.61214">
        <ele>1142.7</ele>
        <time>2023-06-15T07:47:48.000+02:00</time>
      </trkpt>
      <trkpt lat="42.81783" lon="-4.61562">
        <ele>1146.9</ele>
        <time>2023-06-15T07:48:29.000+02:00</time>
      </trkpt>
      <trkpt lat="42.81922" lon="-4.61768">
        <ele>1148.6</ele>
        <time>2023-06-15T07:49:00.000+02:00</time>
      </trkpt>
      <trkpt lat="42.81966" lon="-4.61773">
        <ele>1150</ele>
        <time>2023-06-15T07:49:07.000+02:00</time>
      </trkpt>
      <trkpt lat="42.82068" lon="-4.62125">
        <ele>1149.2</ele>
        <time>2023-06-15T07:49:50.000+02:00</time>
      </trkpt>
      <trkpt lat="42.82121" lon="-4.62203">
        <ele>1150.4</ele>
        <time>2023-06-15T07:50:01.000+02:00</time>
      </trkpt>
      <trkpt lat="42.82188" lon="-4.62413">
        <ele>1155.5</ele>
        <time>2023-06-15T07:50:27.000+02:00</time>
      </trkpt>
      <trkpt lat="42.82137" lon="-4.62639">
        <ele>1152.9</ele>
        <time>2023-06-15T07:50:54.000+02:00</time>
      </trkpt>
      <trkpt lat="42.82137" lon="-4.6274">
        <ele>1157.5</ele>
        <time>2023-06-15T07:51:05.000+02:00</time>
      </trkpt>
      <trkpt lat="42.82208" lon="-4.63052">
        <ele>1160.1</ele>
        <time>2023-06-15T07:51:42.000+02:00</time>
      </trkpt>
      <trkpt lat="42.82281" lon="-4.63166">
        <ele>1164.2</ele>
        <time>2023-06-15T07:51:58.000+02:00</time>
      </trkpt>
      <trkpt lat="42.82228" lon="-4.63325">
        <ele>1160.5</ele>
        <time>2023-06-15T07:52:18.000+02:00</time>
      </trkpt>
      <trkpt lat="42.82183" lon="-4.63389">
        <ele>1156.6</ele>
        <time>2023-06-15T07:52:28.000+02:00</time>
      </trkpt>
      <trkpt lat="42.82097" lon="-4.63397">
        <ele>1161.5</ele>
        <time>2023-06-15T07:52:41.000+02:00</time>
      </trkpt>
      <trkpt lat="42.82084" lon="-4.63424">
        <ele>1162.2</ele>
        <time>2023-06-15T07:52:45.000+02:00</time>
      </trkpt>
      <trkpt lat="42.82112" lon="-4.6361">
        <ele>1167.8</ele>
        <time>2023-06-15T07:53:06.000+02:00</time>
      </trkpt>
      <trkpt lat="42.82077" lon="-4.63792">
        <ele>1167.8</ele>
        <time>2023-06-15T07:53:27.000+02:00</time>
      </trkpt>
      <trkpt lat="42.82103" lon="-4.64069">
        <ele>1158.6</ele>
        <time>2023-06-15T07:53:58.000+02:00</time>
      </trkpt>
      <trkpt lat="42.82187" lon="-4.63887">
        <ele>1164.2</ele>
        <time>2023-06-15T07:54:23.000+02:00</time>
      </trkpt>
      <trkpt lat="42.82208" lon="-4.63748">
        <ele>1166.3</ele>
        <time>2023-06-15T07:54:38.000+02:00</time>
      </trkpt>
      <trkpt lat="42.82236" lon="-4.63694">
        <ele>1163.5</ele>
        <time>2023-06-15T07:54:46.000+02:00</time>
      </trkpt>
      <trkpt lat="42.82668" lon="-4.63153">
        <ele>1182.9</ele>
        <time>2023-06-15T07:56:16.000+02:00</time>
      </trkpt>
      <trkpt lat="42.82693" lon="-4.62963">
        <ele>1187.3</ele>
        <time>2023-06-15T07:56:37.000+02:00</time>
      </trkpt>
      <trkpt lat="42.82757" lon="-4.62758">
        <ele>1187.3</ele>
        <time>2023-06-15T07:57:02.000+02:00</time>
      </trkpt>
      <trkpt lat="42.82808" lon="-4.6274">
        <ele>1185</ele>
        <time>2023-06-15T07:57:10.000+02:00</time>
      </trkpt>
      <trkpt lat="42.82934" lon="-4.63101">
        <ele>1187.7</ele>
        <time>2023-06-15T07:57:55.000+02:00</time>
      </trkpt>
      <trkpt lat="42.82942" lon="-4.63212">
        <ele>1182.1</ele>
        <time>2023-06-15T07:58:08.000+02:00</time>
      </trkpt>
      <trkpt lat="42.82893" lon="-4.6367">
        <ele>1188.1</ele>
        <time>2023-06-15T07:58:59.000+02:00</time>
      </trkpt>
      <trkpt lat="42.82724" lon="-4.64695">
        <ele>1158</ele>
        <time>2023-06-15T08:00:57.000+02:00</time>
      </trkpt>
      <trkpt lat="42.82738" lon="-4.64902">
        <ele>1164.5</ele>
        <time>2023-06-15T08:01:20.000+02:00</time>
      </trkpt>
      <trkpt lat="42.82711" lon="-4.65391">
        <ele>1174.7</ele>
        <time>2023-06-15T08:02:15.000+02:00</time>
      </trkpt>
      <trkpt lat="42.82663" lon="-4.65368">
        <ele>1182.6</ele>
        <time>2023-06-15T08:02:23.000+02:00</time>
      </trkpt>
      <trkpt lat="42.82592" lon="-4.65408">
        <ele>1176.6</ele>
        <time>2023-06-15T08:02:35.000+02:00</time>
      </trkpt>
      <trkpt lat="42.82405" lon="-4.65392">
        <ele>1157</ele>
        <time>2023-06-15T08:03:04.000+02:00</time>
      </trkpt>
      <trkpt lat="42.82371" lon="-4.6607">
        <ele>1159.7</ele>
        <time>2023-06-15T08:04:20.000+02:00</time>
      </trkpt>
      <trkpt lat="42.8224" lon="-4.66046">
        <ele>1152.9</ele>
        <time>2023-06-15T08:04:40.000+02:00</time>
      </trkpt>
      <trkpt lat="42.82064" lon="-4.66242">
        <ele>1144.4</ele>
        <time>2023-06-15T08:05:15.000+02:00</time>
      </trkpt>
      <trkpt lat="42.81814" lon="-4.66249">
        <ele>1134</ele>
        <time>2023-06-15T08:05:53.000+02:00</time>
      </trkpt>
      <trkpt lat="42.81779" lon="-4.66008">
        <ele>1133.7</ele>
        <time>2023-06-15T08:06:20.000+02:00</time>
      </trkpt>
      <trkpt lat="42.81692" lon="-4.65803">
        <ele>1138</ele>
        <time>2023-06-15T08:06:47.000+02:00</time>
      </trkpt>
      <trkpt lat="42.81681" lon="-4.65668">
        <ele>1136.5</ele>
        <time>2023-06-15T08:07:02.000+02:00</time>
      </trkpt>
      <trkpt lat="42.81486" lon="-4.65587">
        <ele>1132</ele>
        <time>2023-06-15T08:07:33.000+02:00</time>
      </trkpt>
      <trkpt lat="42.81382" lon="-4.65611">
        <ele>1127</ele>
        <time>2023-06-15T08:07:50.000+02:00</time>
      </trkpt>
      <trkpt lat="42.81347" lon="-4.66105">
        <ele>1134.8</ele>
        <time>2023-06-15T08:08:45.000+02:00</time>
      </trkpt>
      <trkpt lat="42.81247" lon="-4.66121">
        <ele>1130</ele>
        <time>2023-06-15T08:09:00.000+02:00</time>
      </trkpt>
      <trkpt lat="42.8111" lon="-4.66042">
        <ele>1119.9</ele>
        <time>2023-06-15T08:09:23.000+02:00</time>
      </trkpt>
      <trkpt lat="42.81006" lon="-4.66062">
        <ele>1110.9</ele>
        <time>2023-06-15T08:09:39.000+02:00</time>
      </trkpt>
      <trkpt lat="42.80913" lon="-4.65955">
        <ele>1113.8</ele>
        <time>2023-06-15T08:09:58.000+02:00</time>
      </trkpt>
      <trkpt lat="42.80782" lon="-4.65881">
        <ele>1120.2</ele>
        <time>2023-06-15T08:10:19.000+02:00</time>
      </trkpt>
      <trkpt lat="42.80748" lon="-4.66006">
        <ele>1121.8</ele>
        <time>2023-06-15T08:10:34.000+02:00</time>
      </trkpt>
      <trkpt lat="42.80685" lon="-4.66126">
        <ele>1118.9</ele>
        <time>2023-06-15T08:10:51.000+02:00</time>
      </trkpt>
      <trkpt lat="42.80641" lon="-4.66163">
        <ele>1123.6</ele>
        <time>2023-06-15T08:10:59.000+02:00</time>
      </trkpt>
      <trkpt lat="42.80573" lon="-4.66159">
        <ele>1128.8</ele>
        <time>2023-06-15T08:11:09.000+02:00</time>
      </trkpt>
      <trkpt lat="42.80635" lon="-4.66589">
        <ele>1137.9</ele>
        <time>2023-06-15T08:11:58.000+02:00</time>
      </trkpt>
      <trkpt lat="42.80615" lon="-4.66882">
        <ele>1135.4</ele>
        <time>2023-06-15T08:12:31.000+02:00</time>
      </trkpt>
      <trkpt lat="42.80394" lon="-4.67026">
        <ele>1130.3</ele>
        <time>2023-06-15T08:13:09.000+02:00</time>
      </trkpt>
      <trkpt lat="42.80435" lon="-4.67147">
        <ele>1129.4</ele>
        <time>2023-06-15T08:13:24.000+02:00</time>
      </trkpt>
      <trkpt lat="42.80439" lon="-4.6733">
        <ele>1128.4</ele>
        <time>2023-06-15T08:13:44.000+02:00</time>
      </trkpt>
      <trkpt lat="42.80256" lon="-4.67572">
        <ele>1126.9</ele>
        <time>2023-06-15T08:14:23.000+02:00</time>
      </trkpt>
      <trkpt lat="42.80105" lon="-4.67539">
        <ele>1112.4</ele>
        <time>2023-06-15T08:14:47.000+02:00</time>
      </trkpt>
      <trkpt lat="42.80013" lon="-4.67483">
        <ele>1102.2</ele>
        <time>2023-06-15T08:15:02.000+02:00</time>
      </trkpt>
      <trkpt lat="42.79985" lon="-4.67396">
        <ele>1093.6</ele>
        <time>2023-06-15T08:15:13.000+02:00</time>
      </trkpt>
      <trkpt lat="42.79936" lon="-4.6739">
        <ele>1092.5</ele>
        <time>2023-06-15T08:15:20.000+02:00</time>
      </trkpt>
      <trkpt lat="42.79317" lon="-4.67602">
        <ele>1052.7</ele>
        <time>2023-06-15T08:16:58.000+02:00</time>
      </trkpt>
      <trkpt lat="42.79532" lon="-4.67824">
        <ele>1055.9</ele>
        <time>2023-06-15T08:17:39.000+02:00</time>
      </trkpt>
      <trkpt lat="42.79585" lon="-4.67819">
        <ele>1057.7</ele>
        <time>2023-06-15T08:17:47.000+02:00</time>
      </trkpt>
      <trkpt lat="42.79845" lon="-4.68137">
        <ele>1059.9</ele>
        <time>2023-06-15T08:18:40.000+02:00</time>
      </trkpt>
      <trkpt lat="42.79835" lon="-4.68228">
        <ele>1064.3</ele>
        <time>2023-06-15T08:18:51.000+02:00</time>
      </trkpt>
      <trkpt lat="42.79627" lon="-4.68176">
        <ele>1063.2</ele>
        <time>2023-06-15T08:19:23.000+02:00</time>
      </trkpt>
      <trkpt lat="42.7959" lon="-4.68223">
        <ele>1068.1</ele>
        <time>2023-06-15T08:19:31.000+02:00</time>
      </trkpt>
      <trkpt lat="42.79394" lon="-4.68236">
        <ele>1080.6</ele>
        <time>2023-06-15T08:20:01.000+02:00</time>
      </trkpt>
      <trkpt lat="42.79431" lon="-4.68431">
        <ele>1079.8</ele>
        <time>2023-06-15T08:20:23.000+02:00</time>
      </trkpt>
      <trkpt lat="42.79581" lon="-4.68573">
        <ele>1074.2</ele>
        <time>2023-06-15T08:20:51.000+02:00</time>
      </trkpt>
      <trkpt lat="42.79522" lon="-4.68886">
        <ele>1093.3</ele>
        <time>2023-06-15T08:21:27.000+02:00</time>
      </trkpt>
      <trkpt lat="42.79553" lon="-4.68949">
        <ele>1098.1</ele>
        <time>2023-06-15T08:21:36.000+02:00</time>
      </trkpt>
      <trkpt lat="42.79528" lon="-4.69025">
        <ele>1104.8</ele>
        <time>2023-06-15T08:21:45.000+02:00</time>
      </trkpt>
      <trkpt lat="42.79524" lon="-4.69279">
        <ele>1127.2</ele>
        <time>2023-06-15T08:22:14.000+02:00</time>
      </trkpt>
      <trkpt lat="42.79608" lon="-4.69314">
        <ele>1135</ele>
        <time>2023-06-15T08:22:27.000+02:00</time>
      </trkpt>
      <trkpt lat="42.79632" lon="-4.69352">
        <ele>1135</ele>
        <time>2023-06-15T08:22:33.000+02:00</time>
      </trkpt>
      <trkpt lat="42.7964" lon="-4.69377">
        <ele>1134.4</ele>
        <time>2023-06-15T08:22:36.000+02:00</time>
      </trkpt>
      <trkpt lat="42.7959" lon="-4.6942">
        <ele>1134.7</ele>
        <time>2023-06-15T08:22:45.000+02:00</time>
      </trkpt>
      <trkpt lat="42.79589" lon="-4.69453">
        <ele>1133.7</ele>
        <time>2023-06-15T08:22:49.000+02:00</time>
      </trkpt>
      <trkpt lat="42.79692" lon="-4.69633">
        <ele>1132.1</ele>
        <time>2023-06-15T08:23:14.000+02:00</time>
      </trkpt>
      <trkpt lat="42.79612" lon="-4.69978">
        <ele>1136.9</ele>
        <time>2023-06-15T08:23:55.000+02:00</time>
      </trkpt>
      <trkpt lat="42.7961" lon="-4.70078">
        <ele>1133.2</ele>
        <time>2023-06-15T08:24:06.000+02:00</time>
      </trkpt>
      <trkpt lat="42.7964" lon="-4.70146">
        <ele>1130.4</ele>
        <time>2023-06-15T08:24:15.000+02:00</time>
      </trkpt>
      <trkpt lat="42.79624" lon="-4.70173">
        <ele>1127</ele>
        <time>2023-06-15T08:24:19.000+02:00</time>
      </trkpt>
      <trkpt lat="42.79639" lon="-4.70231">
        <ele>1122.7</ele>
        <time>2023-06-15T08:24:26.000+02:00</time>
      </trkpt>
      <trkpt lat="42.79608" lon="-4.70306">
        <ele>1113</ele>
        <time>2023-06-15T08:24:35.000+02:00</time>
      </trkpt>
      <trkpt lat="42.79648" lon="-4.70331">
        <ele>1115.9</ele>
        <time>2023-06-15T08:24:42.000+02:00</time>
      </trkpt>
      <trkpt lat="42.79728" lon="-4.70545">
        <ele>1126.3</ele>
        <time>2023-06-15T08:25:09.000+02:00</time>
      </trkpt>
      <trkpt lat="42.79675" lon="-4.70742">
        <ele>1139.5</ele>
        <time>2023-06-15T08:25:33.000+02:00</time>
      </trkpt>
      <trkpt lat="42.7933" lon="-4.71079">
        <ele>1138</ele>
        <time>2023-06-15T08:26:37.000+02:00</time>
      </trkpt>
      <trkpt lat="42.79313" lon="-4.71133">
        <ele>1136.3</ele>
        <time>2023-06-15T08:26:44.000+02:00</time>
      </trkpt>
      <trkpt lat="42.79259" lon="-4.71129">
        <ele>1133.1</ele>
        <time>2023-06-15T08:26:52.000+02:00</time>
      </trkpt>
      <trkpt lat="42.79146" lon="-4.71251">
        <ele>1134</ele>
        <time>2023-06-15T08:27:14.000+02:00</time>
      </trkpt>
      <trkpt lat="42.78975" lon="-4.71672">
        <ele>1115.7</ele>
        <time>2023-06-15T08:28:08.000+02:00</time>
      </trkpt>
      <trkpt lat="42.78995" lon="-4.71731">
        <ele>1111.8</ele>
        <time>2023-06-15T08:28:15.000+02:00</time>
      </trkpt>
      <trkpt lat="42.78958" lon="-4.7193">
        <ele>1114.3</ele>
        <time>2023-06-15T08:28:38.000+02:00</time>
      </trkpt>
      <trkpt lat="42.7897" lon="-4.72182">
        <ele>1103.8</ele>
        <time>2023-06-15T08:29:07.000+02:00</time>
      </trkpt>
      <trkpt lat="42.78794" lon="-4.72182">
        <ele>1107.6</ele>
        <time>2023-06-15T08:29:34.000+02:00</time>
      </trkpt>
      <trkpt lat="42.78724" lon="-4.7232">
        <ele>1107.2</ele>
        <time>2023-06-15T08:29:53.000+02:00</time>
      </trkpt>
      <trkpt lat="42.78784" lon="-4.71993">
        <ele>1094</ele>
        <time>2023-06-15T08:30:30.000+02:00</time>
      </trkpt>
      <trkpt lat="42.78688" lon="-4.72198">
        <ele>1082.4</ele>
        <time>2023-06-15T08:30:58.000+02:00</time>
      </trkpt>
      <trkpt lat="42.78516" lon="-4.72401">
        <ele>1061.2</ele>
        <time>2023-06-15T08:31:33.000+02:00</time>
      </trkpt>
      <trkpt lat="42.78501" lon="-4.72481">
        <ele>1056.5</ele>
        <time>2023-06-15T08:31:42.000+02:00</time>
      </trkpt>
      <trkpt lat="42.7845" lon="-4.72429">
        <ele>1050.9</ele>
        <time>2023-06-15T08:31:52.000+02:00</time>
      </trkpt>
      <trkpt lat="42.78398" lon="-4.72489">
        <ele>1047.3</ele>
        <time>2023-06-15T08:32:02.000+02:00</time>
      </trkpt>
      <trkpt lat="42.78349" lon="-4.7262">
        <ele>1047.2</ele>
        <time>2023-06-15T08:32:18.000+02:00</time>
      </trkpt>
      <trkpt lat="42.78374" lon="-4.72694">
        <ele>1052.1</ele>
        <time>2023-06-15T08:32:28.000+02:00</time>
      </trkpt>
      <trkpt lat="42.78307" lon="-4.72681">
        <ele>1057.9</ele>
        <time>2023-06-15T08:32:38.000+02:00</time>
      </trkpt>
      <trkpt lat="42.78181" lon="-4.72824">
        <ele>1059.5</ele>
        <time>2023-06-15T08:33:03.000+02:00</time>
      </trkpt>
      <trkpt lat="42.78118" lon="-4.72978">
        <ele>1058.9</ele>
        <time>2023-06-15T08:33:23.000+02:00</time>
      </trkpt>
      <trkpt lat="42.77924" lon="-4.7321">
        <ele>1068.8</ele>
        <time>2023-06-15T08:34:02.000+02:00</time>
      </trkpt>
      <trkpt lat="42.77594" lon="-4.734">
        <ele>1079.2</ele>
        <time>2023-06-15T08:34:57.000+02:00</time>
      </trkpt>
      <trkpt lat="42.77445" lon="-4.73531">
        <ele>1084.4</ele>
        <time>2023-06-15T08:35:24.000+02:00</time>
      </trkpt>
      <trkpt lat="42.77275" lon="-4.73595">
        <ele>1091.5</ele>
        <time>2023-06-15T08:35:51.000+02:00</time>
      </trkpt>
      <trkpt lat="42.77161" lon="-4.73605">
        <ele>1095.7</ele>
        <time>2023-06-15T08:36:09.000+02:00</time>
      </trkpt>
      <trkpt lat="42.77027" lon="-4.73755">
        <ele>1105.8</ele>
        <time>2023-06-15T08:36:35.000+02:00</time>
      </trkpt>
      <trkpt lat="42.76836" lon="-4.738">
        <ele>1123.5</ele>
        <time>2023-06-15T08:37:05.000+02:00</time>
      </trkpt>
      <trkpt lat="42.76861" lon="-4.74235">
        <ele>1142.4</ele>
        <time>2023-06-15T08:37:54.000+02:00</time>
      </trkpt>
      <trkpt lat="42.76743" lon="-4.7459">
        <ele>1161.2</ele>
        <time>2023-06-15T08:38:37.000+02:00</time>
      </trkpt>
      <trkpt lat="42.76438" lon="-4.7461">
        <ele>1143.8</ele>
        <time>2023-06-15T08:39:24.000+02:00</time>
      </trkpt>
      <trkpt lat="42.76419" lon="-4.74703">
        <ele>1143.6</ele>
        <time>2023-06-15T08:39:35.000+02:00</time>
      </trkpt>
      <trkpt lat="42.76527" lon="-4.74838">
        <ele>1139.9</ele>
        <time>2023-06-15T08:39:57.000+02:00</time>
      </trkpt>
      <trkpt lat="42.7625" lon="-4.7483">
        <ele>1121.3</ele>
        <time>2023-06-15T08:40:40.000+02:00</time>
      </trkpt>
      <trkpt lat="42.7618" lon="-4.7487">
        <ele>1117.8</ele>
        <time>2023-06-15T08:40:51.000+02:00</time>
      </trkpt>
      <trkpt lat="42.75991" lon="-4.75136">
        <ele>1127.8</ele>
        <time>2023-06-15T08:41:33.000+02:00</time>
      </trkpt>
      <trkpt lat="42.7588" lon="-4.75427">
        <ele>1147.4</ele>
        <time>2023-06-15T08:42:10.000+02:00</time>
      </trkpt>
      <trkpt lat="42.75726" lon="-4.75574">
        <ele>1155</ele>
        <time>2023-06-15T08:42:38.000+02:00</time>
      </trkpt>
      <trkpt lat="42.75616" lon="-4.75819">
        <ele>1159</ele>
        <time>2023-06-15T08:43:11.000+02:00</time>
      </trkpt>
      <trkpt lat="42.75566" lon="-4.7599">
        <ele>1158.4</ele>
        <time>2023-06-15T08:43:31.000+02:00</time>
      </trkpt>
      <trkpt lat="42.75393" lon="-4.76711">
        <ele>1155.1</ele>
        <time>2023-06-15T08:44:56.000+02:00</time>
      </trkpt>
      <trkpt lat="42.75295" lon="-4.76988">
        <ele>1156.7</ele>
        <time>2023-06-15T08:45:31.000+02:00</time>
      </trkpt>
      <trkpt lat="42.75129" lon="-4.77267">
        <ele>1150.4</ele>
        <time>2023-06-15T08:46:11.000+02:00</time>
      </trkpt>
      <trkpt lat="42.75085" lon="-4.77464">
        <ele>1141</ele>
        <time>2023-06-15T08:46:34.000+02:00</time>
      </trkpt>
      <trkpt lat="42.7489" lon="-4.77607">
        <ele>1153.8</ele>
        <time>2023-06-15T08:47:08.000+02:00</time>
      </trkpt>
      <trkpt lat="42.74796" lon="-4.77828">
        <ele>1157</ele>
        <time>2023-06-15T08:47:37.000+02:00</time>
      </trkpt>
      <trkpt lat="42.74581" lon="-4.78082">
        <ele>1153</ele>
        <time>2023-06-15T08:48:20.000+02:00</time>
      </trkpt>
      <trkpt lat="42.74183" lon="-4.78275">
        <ele>1149</ele>
        <time>2023-06-15T08:49:25.000+02:00</time>
      </trkpt>
      <trkpt lat="42.74059" lon="-4.7837">
        <ele>1149.4</ele>
        <time>2023-06-15T08:49:46.000+02:00</time>
      </trkpt>
      <trkpt lat="42.73691" lon="-4.78943">
        <ele>1150</ele>
        <time>2023-06-15T08:51:12.000+02:00</time>
      </trkpt>
      <trkpt lat="42.73666" lon="-4.79164">
        <ele>1150</ele>
        <time>2023-06-15T08:51:37.000+02:00</time>
      </trkpt>
      <trkpt lat="42.73537" lon="-4.79317">
        <ele>1151</ele>
        <time>2023-06-15T08:52:03.000+02:00</time>
      </trkpt>
      <trkpt lat="42.73488" lon="-4.79298">
        <ele>1150.2</ele>
        <time>2023-06-15T08:52:11.000+02:00</time>
      </trkpt>
      <trkpt lat="42.73022" lon="-4.79733">
        <ele>1130.2</ele>
        <time>2023-06-15T08:53:37.000+02:00</time>
      </trkpt>
      <trkpt lat="42.72927" lon="-4.7979">
        <ele>1124.4</ele>
        <time>2023-06-15T08:53:53.000+02:00</time>
      </trkpt>
      <trkpt lat="42.72895" lon="-4.79744">
        <ele>1125</ele>
        <time>2023-06-15T08:54:00.000+02:00</time>
      </trkpt>
      <trkpt lat="42.72736" lon="-4.79674">
        <ele>1121.6</ele>
        <time>2023-06-15T08:54:26.000+02:00</time>
      </trkpt>
      <trkpt lat="42.72679" lon="-4.79508">
        <ele>1120.3</ele>
        <time>2023-06-15T08:54:46.000+02:00</time>
      </trkpt>
      <trkpt lat="42.72594" lon="-4.79511">
        <ele>1119</ele>
        <time>2023-06-15T08:54:59.000+02:00</time>
      </trkpt>
      <trkpt lat="42.72475" lon="-4.79465">
        <ele>1118.3</ele>
        <time>2023-06-15T08:55:18.000+02:00</time>
      </trkpt>
      <trkpt lat="42.72129" lon="-4.79142">
        <ele>1114</ele>
        <time>2023-06-15T08:56:22.000+02:00</time>
      </trkpt>
      <trkpt lat="42.72003" lon="-4.79115">
        <ele>1113.1</ele>
        <time>2023-06-15T08:56:42.000+02:00</time>
      </trkpt>
      <trkpt lat="42.71946" lon="-4.7905">
        <ele>1114</ele>
        <time>2023-06-15T08:56:53.000+02:00</time>
      </trkpt>
      <trkpt lat="42.7182" lon="-4.78753">
        <ele>1110.5</ele>
        <time>2023-06-15T08:57:31.000+02:00</time>
      </trkpt>
      <trkpt lat="42.71819" lon="-4.78578">
        <ele>1109.1</ele>
        <time>2023-06-15T08:57:51.000+02:00</time>
      </trkpt>
      <trkpt lat="42.71781" lon="-4.78529">
        <ele>1111.1</ele>
        <time>2023-06-15T08:57:59.000+02:00</time>
      </trkpt>
      <trkpt lat="42.71706" lon="-4.78517">
        <ele>1111.3</ele>
        <time>2023-06-15T08:58:11.000+02:00</time>
      </trkpt>
      <trkpt lat="42.7166" lon="-4.78549">
        <ele>1106.4</ele>
        <time>2023-06-15T08:58:19.000+02:00</time>
      </trkpt>
      <trkpt lat="42.71435" lon="-4.78406">
        <ele>1105.3</ele>
        <time>2023-06-15T08:58:57.000+02:00</time>
      </trkpt>
      <trkpt lat="42.71327" lon="-4.78392">
        <ele>1102</ele>
        <time>2023-06-15T08:59:13.000+02:00</time>
      </trkpt>
      <trkpt lat="42.71201" lon="-4.78432">
        <ele>1099.5</ele>
        <time>2023-06-15T08:59:33.000+02:00</time>
      </trkpt>
      <trkpt lat="42.7107" lon="-4.78355">
        <ele>1098.1</ele>
        <time>2023-06-15T08:59:55.000+02:00</time>
      </trkpt>
      <trkpt lat="42.70967" lon="-4.78078">
        <ele>1095</ele>
        <time>2023-06-15T09:00:30.000+02:00</time>
      </trkpt>
      <trkpt lat="42.7087" lon="-4.7796">
        <ele>1093.7</ele>
        <time>2023-06-15T09:00:49.000+02:00</time>
      </trkpt>
      <trkpt lat="42.70671" lon="-4.77853">
        <ele>1091.4</ele>
        <time>2023-06-15T09:01:22.000+02:00</time>
      </trkpt>
      <trkpt lat="42.70507" lon="-4.77889">
        <ele>1087.8</ele>
        <time>2023-06-15T09:01:47.000+02:00</time>
      </trkpt>
      <trkpt lat="42.70472" lon="-4.77747">
        <ele>1087.2</ele>
        <time>2023-06-15T09:02:04.000+02:00</time>
      </trkpt>
      <trkpt lat="42.70359" lon="-4.77665">
        <ele>1084.2</ele>
        <time>2023-06-15T09:02:24.000+02:00</time>
      </trkpt>
      <trkpt lat="42.7034" lon="-4.7755">
        <ele>1083.3</ele>
        <time>2023-06-15T09:02:37.000+02:00</time>
      </trkpt>
      <trkpt lat="42.703" lon="-4.77473">
        <ele>1082.8</ele>
        <time>2023-06-15T09:02:48.000+02:00</time>
      </trkpt>
      <trkpt lat="42.70304" lon="-4.773">
        <ele>1080.9</ele>
        <time>2023-06-15T09:03:07.000+02:00</time>
      </trkpt>
      <trkpt lat="42.70256" lon="-4.77245">
        <ele>1079.2</ele>
        <time>2023-06-15T09:03:17.000+02:00</time>
      </trkpt>
      <trkpt lat="42.70217" lon="-4.77139">
        <ele>1077.8</ele>
        <time>2023-06-15T09:03:30.000+02:00</time>
      </trkpt>
      <trkpt lat="42.70158" lon="-4.77108">
        <ele>1077</ele>
        <time>2023-06-15T09:03:40.000+02:00</time>
      </trkpt>
      <trkpt lat="42.70116" lon="-4.77032">
        <ele>1077</ele>
        <time>2023-06-15T09:03:50.000+02:00</time>
      </trkpt>
      <trkpt lat="42.70023" lon="-4.76943">
        <ele>1073.8</ele>
        <time>2023-06-15T09:04:08.000+02:00</time>
      </trkpt>
      <trkpt lat="42.69925" lon="-4.76754">
        <ele>1072</ele>
        <time>2023-06-15T09:04:34.000+02:00</time>
      </trkpt>
      <trkpt lat="42.69932" lon="-4.76727">
        <ele>1071.6</ele>
        <time>2023-06-15T09:04:37.000+02:00</time>
      </trkpt>
      <trkpt lat="42.69829" lon="-4.76758">
        <ele>1074.7</ele>
        <time>2023-06-15T09:04:53.000+02:00</time>
      </trkpt>
      <trkpt lat="42.69512" lon="-4.76962">
        <ele>1092.6</ele>
        <time>2023-06-15T09:05:47.000+02:00</time>
      </trkpt>
      <trkpt lat="42.69384" lon="-4.77125">
        <ele>1101</ele>
        <time>2023-06-15T09:06:13.000+02:00</time>
      </trkpt>
      <trkpt lat="42.69314" lon="-4.77169">
        <ele>1102</ele>
        <time>2023-06-15T09:06:25.000+02:00</time>
      </trkpt>
      <trkpt lat="42.68602" lon="-4.79482">
        <ele>1097.4</ele>
        <time>2023-06-15T09:11:07.000+02:00</time>
      </trkpt>
      <trkpt lat="42.68723" lon="-4.79632">
        <ele>1096.5</ele>
        <time>2023-06-15T09:11:32.000+02:00</time>
      </trkpt>
      <trkpt lat="42.688" lon="-4.8055">
        <ele>1100.8</ele>
        <time>2023-06-15T09:13:16.000+02:00</time>
      </trkpt>
      <trkpt lat="42.68765" lon="-4.80531">
        <ele>1100.4</ele>
        <time>2023-06-15T09:13:21.000+02:00</time>
      </trkpt>
      <trkpt lat="42.68743" lon="-4.80597">
        <ele>1097.3</ele>
        <time>2023-06-15T09:13:29.000+02:00</time>
      </trkpt>
      <trkpt lat="42.68633" lon="-4.80682">
        <ele>1089.4</ele>
        <time>2023-06-15T09:13:49.000+02:00</time>
      </trkpt>
      <trkpt lat="42.68491" lon="-4.80948">
        <ele>1075</ele>
        <time>2023-06-15T09:14:26.000+02:00</time>
      </trkpt>
      <trkpt lat="42.68332" lon="-4.8166">
        <ele>1033.8</ele>
        <time>2023-06-15T09:15:49.000+02:00</time>
      </trkpt>
      <trkpt lat="42.6815" lon="-4.81676">
        <ele>1022.5</ele>
        <time>2023-06-15T09:16:17.000+02:00</time>
      </trkpt>
      <trkpt lat="42.68086" lon="-4.81738">
        <ele>1015.5</ele>
        <time>2023-06-15T09:16:29.000+02:00</time>
      </trkpt>
      <trkpt lat="42.68124" lon="-4.81754">
        <ele>1014.9</ele>
        <time>2023-06-15T09:16:35.000+02:00</time>
      </trkpt>
      <trkpt lat="42.68165" lon="-4.81879">
        <ele>1015</ele>
        <time>2023-06-15T09:16:51.000+02:00</time>
      </trkpt>
      <trkpt lat="42.68161" lon="-4.81997">
        <ele>1014.1</ele>
        <time>2023-06-15T09:17:04.000+02:00</time>
      </trkpt>
      <trkpt lat="42.68135" lon="-4.82057">
        <ele>1014.9</ele>
        <time>2023-06-15T09:17:12.000+02:00</time>
      </trkpt>
      <trkpt lat="42.68116" lon="-4.82258">
        <ele>1014</ele>
        <time>2023-06-15T09:17:34.000+02:00</time>
      </trkpt>
      <trkpt lat="42.6799" lon="-4.82905">
        <ele>1023.2</ele>
        <time>2023-06-15T09:18:50.000+02:00</time>
      </trkpt>
      <trkpt lat="42.68057" lon="-4.8292">
        <ele>1026.8</ele>
        <time>2023-06-15T09:19:00.000+02:00</time>
      </trkpt>
      <trkpt lat="42.68146" lon="-4.8299">
        <ele>1030.4</ele>
        <time>2023-06-15T09:19:16.000+02:00</time>
      </trkpt>
      <trkpt lat="42.68175" lon="-4.83048">
        <ele>1035.5</ele>
        <time>2023-06-15T09:19:23.000+02:00</time>
      </trkpt>
      <trkpt lat="42.68209" lon="-4.83297">
        <ele>1051.6</ele>
        <time>2023-06-15T09:19:52.000+02:00</time>
      </trkpt>
      <trkpt lat="42.68332" lon="-4.83534">
        <ele>1065.3</ele>
        <time>2023-06-15T09:20:24.000+02:00</time>
      </trkpt>
      <trkpt lat="42.68207" lon="-4.83859">
        <ele>1066.5</ele>
        <time>2023-06-15T09:21:06.000+02:00</time>
      </trkpt>
      <trkpt lat="42.68199" lon="-4.84018">
        <ele>1067.6</ele>
        <time>2023-06-15T09:21:24.000+02:00</time>
      </trkpt>
      <trkpt lat="42.6824" lon="-4.844">
        <ele>1073.2</ele>
        <time>2023-06-15T09:22:07.000+02:00</time>
      </trkpt>
      <trkpt lat="42.68135" lon="-4.84833">
        <ele>1083</ele>
        <time>2023-06-15T09:22:58.000+02:00</time>
      </trkpt>
      <trkpt lat="42.6839" lon="-4.8594">
        <ele>1091.8</ele>
        <time>2023-06-15T09:25:09.000+02:00</time>
      </trkpt>
      <trkpt lat="42.6845" lon="-4.86028">
        <ele>1095.2</ele>
        <time>2023-06-15T09:25:22.000+02:00</time>
      </trkpt>
      <trkpt lat="42.68617" lon="-4.8617">
        <ele>1106.1</ele>
        <time>2023-06-15T09:25:52.000+02:00</time>
      </trkpt>
      <trkpt lat="42.68644" lon="-4.86251">
        <ele>1109</ele>
        <time>2023-06-15T09:26:02.000+02:00</time>
      </trkpt>
      <trkpt lat="42.68595" lon="-4.86758">
        <ele>1112</ele>
        <time>2023-06-15T09:27:00.000+02:00</time>
      </trkpt>
      <trkpt lat="42.68702" lon="-4.87279">
        <ele>1110</ele>
        <time>2023-06-15T09:28:00.000+02:00</time>
      </trkpt>
      <trkpt lat="42.68908" lon="-4.8734">
        <ele>1112</ele>
        <time>2023-06-15T09:28:33.000+02:00</time>
      </trkpt>
      <trkpt lat="42.69237" lon="-4.8731">
        <ele>1116.6</ele>
        <time>2023-06-15T09:29:23.000+02:00</time>
      </trkpt>
      <trkpt lat="42.69345" lon="-4.87269">
        <ele>1117</ele>
        <time>2023-06-15T09:29:40.000+02:00</time>
      </trkpt>
      <trkpt lat="42.69443" lon="-4.87289">
        <ele>1118.4</ele>
        <time>2023-06-15T09:29:55.000+02:00</time>
      </trkpt>
      <trkpt lat="42.69593" lon="-4.87269">
        <ele>1119.8</ele>
        <time>2023-06-15T09:30:18.000+02:00</time>
      </trkpt>
      <trkpt lat="42.69765" lon="-4.87209">
        <ele>1121.3</ele>
        <time>2023-06-15T09:30:45.000+02:00</time>
      </trkpt>
      <trkpt lat="42.69887" lon="-4.87199">
        <ele>1123</ele>
        <time>2023-06-15T09:31:04.000+02:00</time>
      </trkpt>
      <trkpt lat="42.70067" lon="-4.87328">
        <ele>1119.6</ele>
        <time>2023-06-15T09:31:35.000+02:00</time>
      </trkpt>
      <trkpt lat="42.70264" lon="-4.87527">
        <ele>1110</ele>
        <time>2023-06-15T09:32:13.000+02:00</time>
      </trkpt>
      <trkpt lat="42.70352" lon="-4.87741">
        <ele>1100.2</ele>
        <time>2023-06-15T09:32:40.000+02:00</time>
      </trkpt>
      <trkpt lat="42.70447" lon="-4.87787">
        <ele>1099</ele>
        <time>2023-06-15T09:32:55.000+02:00</time>
      </trkpt>
      <trkpt lat="42.7065" lon="-4.88107">
        <ele>1117.9</ele>
        <time>2023-06-15T09:33:43.000+02:00</time>
      </trkpt>
      <trkpt lat="42.70846" lon="-4.88191">
        <ele>1122.9</ele>
        <time>2023-06-15T09:34:14.000+02:00</time>
      </trkpt>
      <trkpt lat="42.71139" lon="-4.88418">
        <ele>1128</ele>
        <time>2023-06-15T09:35:06.000+02:00</time>
      </trkpt>
      <trkpt lat="42.71309" lon="-4.88513">
        <ele>1131.1</ele>
        <time>2023-06-15T09:35:34.000+02:00</time>
      </trkpt>
      <trkpt lat="42.71741" lon="-4.88566">
        <ele>1138</ele>
        <time>2023-06-15T09:36:40.000+02:00</time>
      </trkpt>
      <trkpt lat="42.71961" lon="-4.88752">
        <ele>1134.5</ele>
        <time>2023-06-15T09:37:20.000+02:00</time>
      </trkpt>
      <trkpt lat="42.72007" lon="-4.88842">
        <ele>1135.3</ele>
        <time>2023-06-15T09:37:32.000+02:00</time>
      </trkpt>
      <trkpt lat="42.72164" lon="-4.89031">
        <ele>1141.1</ele>
        <time>2023-06-15T09:38:04.000+02:00</time>
      </trkpt>
      <trkpt lat="42.71336" lon="-4.89783">
        <ele>1135.1</ele>
        <time>2023-06-15T09:40:36.000+02:00</time>
      </trkpt>
      <trkpt lat="42.70553" lon="-4.89638">
        <ele>1122</ele>
        <time>2023-06-15T09:42:37.000+02:00</time>
      </trkpt>
      <trkpt lat="42.70222" lon="-4.89611">
        <ele>1116</ele>
        <time>2023-06-15T09:43:28.000+02:00</time>
      </trkpt>
      <trkpt lat="42.69963" lon="-4.89684">
        <ele>1115</ele>
        <time>2023-06-15T09:44:08.000+02:00</time>
      </trkpt>
      <trkpt lat="42.69717" lon="-4.89796">
        <ele>1114</ele>
        <time>2023-06-15T09:44:48.000+02:00</time>
      </trkpt>
      <trkpt lat="42.69526" lon="-4.89934">
        <ele>1113.6</ele>
        <time>2023-06-15T09:45:21.000+02:00</time>
      </trkpt>
      <trkpt lat="42.69308" lon="-4.90148">
        <ele>1113</ele>
        <time>2023-06-15T09:46:02.000+02:00</time>
      </trkpt>
      <trkpt lat="42.69151" lon="-4.90375">
        <ele>1112</ele>
        <time>2023-06-15T09:46:37.000+02:00</time>
      </trkpt>
      <trkpt lat="42.68952" lon="-4.90809">
        <ele>1110.3</ele>
        <time>2023-06-15T09:47:34.000+02:00</time>
      </trkpt>
      <trkpt lat="42.68781" lon="-4.91319">
        <ele>1108.5</ele>
        <time>2023-06-15T09:48:37.000+02:00</time>
      </trkpt>
      <trkpt lat="42.68694" lon="-4.91875">
        <ele>1107</ele>
        <time>2023-06-15T09:49:41.000+02:00</time>
      </trkpt>
      <trkpt lat="42.68691" lon="-4.92217">
        <ele>1106</ele>
        <time>2023-06-15T09:50:20.000+02:00</time>
      </trkpt>
      <trkpt lat="42.68667" lon="-4.92235">
        <ele>1106</ele>
        <time>2023-06-15T09:50:24.000+02:00</time>
      </trkpt>
      <trkpt lat="42.68358" lon="-4.9312">
        <ele>1075.4</ele>
        <time>2023-06-15T09:52:14.000+02:00</time>
      </trkpt>
      <trkpt lat="42.68363" lon="-4.93525">
        <ele>1049</ele>
        <time>2023-06-15T09:52:59.000+02:00</time>
      </trkpt>
      <trkpt lat="42.67978" lon="-4.93637">
        <ele>1042</ele>
        <time>2023-06-15T09:54:00.000+02:00</time>
      </trkpt>
      <trkpt lat="42.67616" lon="-4.93877">
        <ele>1035.4</ele>
        <time>2023-06-15T09:55:01.000+02:00</time>
      </trkpt>
      <trkpt lat="42.6749" lon="-4.94081">
        <ele>1031.6</ele>
        <time>2023-06-15T09:55:31.000+02:00</time>
      </trkpt>
      <trkpt lat="42.67277" lon="-4.94244">
        <ele>1028.9</ele>
        <time>2023-06-15T09:56:08.000+02:00</time>
      </trkpt>
      <trkpt lat="42.67251" lon="-4.94313">
        <ele>1025.7</ele>
        <time>2023-06-15T09:56:17.000+02:00</time>
      </trkpt>
      <trkpt lat="42.67124" lon="-4.94479">
        <ele>1025.2</ele>
        <time>2023-06-15T09:56:44.000+02:00</time>
      </trkpt>
      <trkpt lat="42.66962" lon="-4.94798">
        <ele>1018.7</ele>
        <time>2023-06-15T09:57:28.000+02:00</time>
      </trkpt>
      <trkpt lat="42.66819" lon="-4.94904">
        <ele>1017.2</ele>
        <time>2023-06-15T09:57:52.000+02:00</time>
      </trkpt>
      <trkpt lat="42.66778" lon="-4.94963">
        <ele>1016.7</ele>
        <time>2023-06-15T09:58:02.000+02:00</time>
      </trkpt>
      <trkpt lat="42.66717" lon="-4.95159">
        <ele>1012.9</ele>
        <time>2023-06-15T09:58:25.000+02:00</time>
      </trkpt>
      <trkpt lat="42.6658" lon="-4.95295">
        <ele>1010</ele>
        <time>2023-06-15T09:58:51.000+02:00</time>
      </trkpt>
      <trkpt lat="42.66417" lon="-4.95353">
        <ele>1008</ele>
        <time>2023-06-15T09:59:17.000+02:00</time>
      </trkpt>
      <trkpt lat="42.66352" lon="-4.95418">
        <ele>1006.3</ele>
        <time>2023-06-15T09:59:30.000+02:00</time>
      </trkpt>
      <trkpt lat="42.6616" lon="-4.95522">
        <ele>1006.4</ele>
        <time>2023-06-15T10:00:01.000+02:00</time>
      </trkpt>
      <trkpt lat="42.6596" lon="-4.95728">
        <ele>1000.2</ele>
        <time>2023-06-15T10:00:39.000+02:00</time>
      </trkpt>
      <trkpt lat="42.65709" lon="-4.95844">
        <ele>995.8</ele>
        <time>2023-06-15T10:01:20.000+02:00</time>
      </trkpt>
      <trkpt lat="42.65601" lon="-4.95958">
        <ele>993.6</ele>
        <time>2023-06-15T10:01:41.000+02:00</time>
      </trkpt>
      <trkpt lat="42.65396" lon="-4.96065">
        <ele>991.2</ele>
        <time>2023-06-15T10:02:14.000+02:00</time>
      </trkpt>
      <trkpt lat="42.65311" lon="-4.96173">
        <ele>988.8</ele>
        <time>2023-06-15T10:02:32.000+02:00</time>
      </trkpt>
      <trkpt lat="42.65226" lon="-4.96178">
        <ele>988.8</ele>
        <time>2023-06-15T10:02:45.000+02:00</time>
      </trkpt>
      <trkpt lat="42.65031" lon="-4.96302">
        <ele>984.3</ele>
        <time>2023-06-15T10:03:18.000+02:00</time>
      </trkpt>
      <trkpt lat="42.64836" lon="-4.96535">
        <ele>980.1</ele>
        <time>2023-06-15T10:03:58.000+02:00</time>
      </trkpt>
      <trkpt lat="42.64737" lon="-4.9655">
        <ele>979</ele>
        <time>2023-06-15T10:04:13.000+02:00</time>
      </trkpt>
      <trkpt lat="42.64668" lon="-4.966">
        <ele>978</ele>
        <time>2023-06-15T10:04:25.000+02:00</time>
      </trkpt>
      <trkpt lat="42.64459" lon="-4.9691">
        <ele>973.9</ele>
        <time>2023-06-15T10:05:12.000+02:00</time>
      </trkpt>
      <trkpt lat="42.64199" lon="-4.9694">
        <ele>970.8</ele>
        <time>2023-06-15T10:05:52.000+02:00</time>
      </trkpt>
      <trkpt lat="42.63785" lon="-4.97071">
        <ele>966.2</ele>
        <time>2023-06-15T10:06:57.000+02:00</time>
      </trkpt>
      <trkpt lat="42.63698" lon="-4.97196">
        <ele>963.1</ele>
        <time>2023-06-15T10:07:16.000+02:00</time>
      </trkpt>
      <trkpt lat="42.63605" lon="-4.97222">
        <ele>962</ele>
        <time>2023-06-15T10:07:31.000+02:00</time>
      </trkpt>
      <trkpt lat="42.63451" lon="-4.97365">
        <ele>958.6</ele>
        <time>2023-06-15T10:07:59.000+02:00</time>
      </trkpt>
      <trkpt lat="42.63347" lon="-4.97522">
        <ele>956.4</ele>
        <time>2023-06-15T10:08:23.000+02:00</time>
      </trkpt>
      <trkpt lat="42.63279" lon="-4.97551">
        <ele>955</ele>
        <time>2023-06-15T10:08:34.000+02:00</time>
      </trkpt>
      <trkpt lat="42.63198" lon="-4.97674">
        <ele>952.7</ele>
        <time>2023-06-15T10:08:53.000+02:00</time>
      </trkpt>
      <trkpt lat="42.62845" lon="-4.97856">
        <ele>947.7</ele>
        <time>2023-06-15T10:09:50.000+02:00</time>
      </trkpt>
      <trkpt lat="42.62587" lon="-4.98073">
        <ele>943.4</ele>
        <time>2023-06-15T10:10:37.000+02:00</time>
      </trkpt>
      <trkpt lat="42.62539" lon="-4.98084">
        <ele>944.1</ele>
        <time>2023-06-15T10:10:44.000+02:00</time>
      </trkpt>
      <trkpt lat="42.62213" lon="-4.98434">
        <ele>938.4</ele>
        <time>2023-06-15T10:11:47.000+02:00</time>
      </trkpt>
      <trkpt lat="42.61991" lon="-4.98496">
        <ele>941.1</ele>
        <time>2023-06-15T10:12:22.000+02:00</time>
      </trkpt>
      <trkpt lat="42.61852" lon="-4.98598">
        <ele>938.5</ele>
        <time>2023-06-15T10:12:46.000+02:00</time>
      </trkpt>
      <trkpt lat="42.61373" lon="-4.99357">
        <ele>922.8</ele>
        <time>2023-06-15T10:14:39.000+02:00</time>
      </trkpt>
      <trkpt lat="42.60963" lon="-4.99811">
        <ele>923.9</ele>
        <time>2023-06-15T10:15:59.000+02:00</time>
      </trkpt>
      <trkpt lat="42.60851" lon="-4.99894">
        <ele>925.8</ele>
        <time>2023-06-15T10:16:19.000+02:00</time>
      </trkpt>
      <trkpt lat="42.60356" lon="-4.99888">
        <ele>925.2</ele>
        <time>2023-06-15T10:17:35.000+02:00</time>
      </trkpt>
      <trkpt lat="42.60133" lon="-4.99996">
        <ele>935.8</ele>
        <time>2023-06-15T10:18:11.000+02:00</time>
      </trkpt>
      <trkpt lat="42.59936" lon="-5.00172">
        <ele>941</ele>
        <time>2023-06-15T10:18:47.000+02:00</time>
      </trkpt>
      <trkpt lat="42.59561" lon="-5.00319">
        <ele>932.3</ele>
        <time>2023-06-15T10:19:46.000+02:00</time>
      </trkpt>
      <trkpt lat="42.59473" lon="-5.00454">
        <ele>926.3</ele>
        <time>2023-06-15T10:20:07.000+02:00</time>
      </trkpt>
      <trkpt lat="42.59417" lon="-5.00805">
        <ele>917</ele>
        <time>2023-06-15T10:20:47.000+02:00</time>
      </trkpt>
      <trkpt lat="42.59418" lon="-5.00959">
        <ele>915.1</ele>
        <time>2023-06-15T10:21:05.000+02:00</time>
      </trkpt>
      <trkpt lat="42.59351" lon="-5.01118">
        <ele>911.9</ele>
        <time>2023-06-15T10:21:25.000+02:00</time>
      </trkpt>
      <trkpt lat="42.59328" lon="-5.01238">
        <ele>909.9</ele>
        <time>2023-06-15T10:21:39.000+02:00</time>
      </trkpt>
      <trkpt lat="42.59233" lon="-5.01427">
        <ele>906.4</ele>
        <time>2023-06-15T10:22:05.000+02:00</time>
      </trkpt>
      <trkpt lat="42.59023" lon="-5.01592">
        <ele>900.2</ele>
        <time>2023-06-15T10:22:42.000+02:00</time>
      </trkpt>
      <trkpt lat="42.58961" lon="-5.01604">
        <ele>898.9</ele>
        <time>2023-06-15T10:22:51.000+02:00</time>
      </trkpt>
      <trkpt lat="42.58881" lon="-5.01667">
        <ele>897</ele>
        <time>2023-06-15T10:23:06.000+02:00</time>
      </trkpt>
      <trkpt lat="42.58833" lon="-5.0176">
        <ele>895.6</ele>
        <time>2023-06-15T10:23:18.000+02:00</time>
      </trkpt>
      <trkpt lat="42.5861" lon="-5.01804">
        <ele>892.9</ele>
        <time>2023-06-15T10:23:53.000+02:00</time>
      </trkpt>
      <trkpt lat="42.585" lon="-5.01901">
        <ele>891</ele>
        <time>2023-06-15T10:24:13.000+02:00</time>
      </trkpt>
      <trkpt lat="42.58352" lon="-5.02121">
        <ele>888.7</ele>
        <time>2023-06-15T10:24:46.000+02:00</time>
      </trkpt>
      <trkpt lat="42.58279" lon="-5.02327">
        <ele>886</ele>
        <time>2023-06-15T10:25:12.000+02:00</time>
      </trkpt>
      <trkpt lat="42.58285" lon="-5.02459">
        <ele>884.9</ele>
        <time>2023-06-15T10:25:27.000+02:00</time>
      </trkpt>
      <trkpt lat="42.58221" lon="-5.02623">
        <ele>882.1</ele>
        <time>2023-06-15T10:25:48.000+02:00</time>
      </trkpt>
      <trkpt lat="42.58227" lon="-5.02737">
        <ele>881.8</ele>
        <time>2023-06-15T10:26:01.000+02:00</time>
      </trkpt>
      <trkpt lat="42.58153" lon="-5.03024">
        <ele>877.6</ele>
        <time>2023-06-15T10:26:35.000+02:00</time>
      </trkpt>
      <trkpt lat="42.57845" lon="-5.03378">
        <ele>872.2</ele>
        <time>2023-06-15T10:27:37.000+02:00</time>
      </trkpt>
      <trkpt lat="42.57661" lon="-5.03793">
        <ele>869</ele>
        <time>2023-06-15T10:28:31.000+02:00</time>
      </trkpt>
      <trkpt lat="42.57559" lon="-5.04087">
        <ele>868</ele>
        <time>2023-06-15T10:29:08.000+02:00</time>
      </trkpt>
      <trkpt lat="42.575" lon="-5.04453">
        <ele>867</ele>
        <time>2023-06-15T10:29:50.000+02:00</time>
      </trkpt>
      <trkpt lat="42.56738" lon="-5.0462">
        <ele>863.9</ele>
        <time>2023-06-15T10:31:48.000+02:00</time>
      </trkpt>
      <trkpt lat="42.56865" lon="-5.04684">
        <ele>862.8</ele>
        <time>2023-06-15T10:32:09.000+02:00</time>
      </trkpt>
      <trkpt lat="42.56941" lon="-5.04877">
        <ele>861.4</ele>
        <time>2023-06-15T10:32:33.000+02:00</time>
      </trkpt>
      <trkpt lat="42.56886" lon="-5.04969">
        <ele>860.2</ele>
        <time>2023-06-15T10:32:46.000+02:00</time>
      </trkpt>
      <trkpt lat="42.56894" lon="-5.05379">
        <ele>874.5</ele>
        <time>2023-06-15T10:33:33.000+02:00</time>
      </trkpt>
      <trkpt lat="42.56874" lon="-5.0549">
        <ele>879.1</ele>
        <time>2023-06-15T10:33:45.000+02:00</time>
      </trkpt>
      <trkpt lat="42.56878" lon="-5.05878">
        <ele>891.8</ele>
        <time>2023-06-15T10:34:29.000+02:00</time>
      </trkpt>
      <trkpt lat="42.5696" lon="-5.05917">
        <ele>894</ele>
        <time>2023-06-15T10:34:43.000+02:00</time>
      </trkpt>
      <trkpt lat="42.56959" lon="-5.06409">
        <ele>885.4</ele>
        <time>2023-06-15T10:35:38.000+02:00</time>
      </trkpt>
      <trkpt lat="42.5691" lon="-5.06556">
        <ele>889.8</ele>
        <time>2023-06-15T10:35:56.000+02:00</time>
      </trkpt>
      <trkpt lat="42.57005" lon="-5.06563">
        <ele>890.3</ele>
        <time>2023-06-15T10:36:10.000+02:00</time>
      </trkpt>
      <trkpt lat="42.57256" lon="-5.06959">
        <ele>895.4</ele>
        <time>2023-06-15T10:37:09.000+02:00</time>
      </trkpt>
      <trkpt lat="42.5734" lon="-5.07239">
        <ele>896.5</ele>
        <time>2023-06-15T10:37:43.000+02:00</time>
      </trkpt>
      <trkpt lat="42.57311" lon="-5.08586">
        <ele>907.8</ele>
        <time>2023-06-15T10:40:15.000+02:00</time>
      </trkpt>
      <trkpt lat="42.5721" lon="-5.09019">
        <ele>911.3</ele>
        <time>2023-06-15T10:41:06.000+02:00</time>
      </trkpt>
      <trkpt lat="42.57217" lon="-5.09155">
        <ele>913.1</ele>
        <time>2023-06-15T10:41:21.000+02:00</time>
      </trkpt>
      <trkpt lat="42.57286" lon="-5.09379">
        <ele>917.9</ele>
        <time>2023-06-15T10:41:49.000+02:00</time>
      </trkpt>
      <trkpt lat="42.57391" lon="-5.09551">
        <ele>914.8</ele>
        <time>2023-06-15T10:42:14.000+02:00</time>
      </trkpt>
      <trkpt lat="42.57645" lon="-5.10156">
        <ele>923.5</ele>
        <time>2023-06-15T10:43:32.000+02:00</time>
      </trkpt>
      <trkpt lat="42.57827" lon="-5.10507">
        <ele>922.4</ele>
        <time>2023-06-15T10:44:21.000+02:00</time>
      </trkpt>
      <trkpt lat="42.57678" lon="-5.1082">
        <ele>931.8</ele>
        <time>2023-06-15T10:45:02.000+02:00</time>
      </trkpt>
      <trkpt lat="42.57374" lon="-5.11064">
        <ele>943</ele>
        <time>2023-06-15T10:45:56.000+02:00</time>
      </trkpt>
      <trkpt lat="42.57051" lon="-5.10976">
        <ele>963.4</ele>
        <time>2023-06-15T10:46:47.000+02:00</time>
      </trkpt>
      <trkpt lat="42.57056" lon="-5.11066">
        <ele>966.4</ele>
        <time>2023-06-15T10:46:57.000+02:00</time>
      </trkpt>
      <trkpt lat="42.57013" lon="-5.11335">
        <ele>973.7</ele>
        <time>2023-06-15T10:47:28.000+02:00</time>
      </trkpt>
      <trkpt lat="42.57124" lon="-5.11838">
        <ele>980.5</ele>
        <time>2023-06-15T10:48:27.000+02:00</time>
      </trkpt>
      <trkpt lat="42.57133" lon="-5.12197">
        <ele>991.1</ele>
        <time>2023-06-15T10:49:07.000+02:00</time>
      </trkpt>
      <trkpt lat="42.57229" lon="-5.12424">
        <ele>994.2</ele>
        <time>2023-06-15T10:49:37.000+02:00</time>
      </trkpt>
      <trkpt lat="42.57547" lon="-5.12888">
        <ele>994.4</ele>
        <time>2023-06-15T10:50:48.000+02:00</time>
      </trkpt>
      <trkpt lat="42.57562" lon="-5.12984">
        <ele>996.1</ele>
        <time>2023-06-15T10:50:59.000+02:00</time>
      </trkpt>
      <trkpt lat="42.57543" lon="-5.13299">
        <ele>996.1</ele>
        <time>2023-06-15T10:51:35.000+02:00</time>
      </trkpt>
      <trkpt lat="42.57344" lon="-5.13468">
        <ele>990.7</ele>
        <time>2023-06-15T10:52:11.000+02:00</time>
      </trkpt>
      <trkpt lat="42.57302" lon="-5.13833">
        <ele>991</ele>
        <time>2023-06-15T10:52:52.000+02:00</time>
      </trkpt>
      <trkpt lat="42.57248" lon="-5.13826">
        <ele>989.9</ele>
        <time>2023-06-15T10:53:00.000+02:00</time>
      </trkpt>
      <trkpt lat="42.57191" lon="-5.13969">
        <ele>988.9</ele>
        <time>2023-06-15T10:53:19.000+02:00</time>
      </trkpt>
      <trkpt lat="42.57062" lon="-5.14105">
        <ele>989</ele>
        <time>2023-06-15T10:53:44.000+02:00</time>
      </trkpt>
      <trkpt lat="42.57027" lon="-5.14202">
        <ele>989</ele>
        <time>2023-06-15T10:53:56.000+02:00</time>
      </trkpt>
      <trkpt lat="42.56859" lon="-5.14403">
        <ele>991</ele>
        <time>2023-06-15T10:54:30.000+02:00</time>
      </trkpt>
      <trkpt lat="42.56737" lon="-5.14698">
        <ele>991</ele>
        <time>2023-06-15T10:55:08.000+02:00</time>
      </trkpt>
      <trkpt lat="42.56756" lon="-5.14733">
        <ele>991</ele>
        <time>2023-06-15T10:55:13.000+02:00</time>
      </trkpt>
      <trkpt lat="42.56862" lon="-5.14617">
        <ele>992</ele>
        <time>2023-06-15T10:55:34.000+02:00</time>
      </trkpt>
      <trkpt lat="42.57096" lon="-5.14509">
        <ele>992</ele>
        <time>2023-06-15T10:56:12.000+02:00</time>
      </trkpt>
      <trkpt lat="42.56948" lon="-5.14847">
        <ele>990.9</ele>
        <time>2023-06-15T10:56:56.000+02:00</time>
      </trkpt>
      <trkpt lat="42.57146" lon="-5.15528">
        <ele>990.7</ele>
        <time>2023-06-15T10:58:18.000+02:00</time>
      </trkpt>
      <trkpt lat="42.57159" lon="-5.15701">
        <ele>990.6</ele>
        <time>2023-06-15T10:58:38.000+02:00</time>
      </trkpt>
      <trkpt lat="42.57222" lon="-5.15866">
        <ele>989</ele>
        <time>2023-06-15T10:58:59.000+02:00</time>
      </trkpt>
      <trkpt lat="42.57236" lon="-5.16057">
        <ele>986</ele>
        <time>2023-06-15T10:59:20.000+02:00</time>
      </trkpt>
      <trkpt lat="42.57274" lon="-5.16169">
        <ele>983.8</ele>
        <time>2023-06-15T10:59:34.000+02:00</time>
      </trkpt>
      <trkpt lat="42.57277" lon="-5.16254">
        <ele>980.7</ele>
        <time>2023-06-15T10:59:44.000+02:00</time>
      </trkpt>
      <trkpt lat="42.57253" lon="-5.16322">
        <ele>976.1</ele>
        <time>2023-06-15T10:59:52.000+02:00</time>
      </trkpt>
      <trkpt lat="42.57281" lon="-5.16682">
        <ele>972.5</ele>
        <time>2023-06-15T11:00:33.000+02:00</time>
      </trkpt>
      <trkpt lat="42.57271" lon="-5.172">
        <ele>954.2</ele>
        <time>2023-06-15T11:01:31.000+02:00</time>
      </trkpt>
      <trkpt lat="42.57559" lon="-5.17404">
        <ele>953.5</ele>
        <time>2023-06-15T11:02:21.000+02:00</time>
      </trkpt>
      <trkpt lat="42.57704" lon="-5.17601">
        <ele>952.1</ele>
        <time>2023-06-15T11:02:52.000+02:00</time>
      </trkpt>
      <trkpt lat="42.57578" lon="-5.18181">
        <ele>949</ele>
        <time>2023-06-15T11:04:00.000+02:00</time>
      </trkpt>
      <trkpt lat="42.57591" lon="-5.18359">
        <ele>948</ele>
        <time>2023-06-15T11:04:20.000+02:00</time>
      </trkpt>
      <trkpt lat="42.57631" lon="-5.18503">
        <ele>947</ele>
        <time>2023-06-15T11:04:38.000+02:00</time>
      </trkpt>
      <trkpt lat="42.57689" lon="-5.18633">
        <ele>946</ele>
        <time>2023-06-15T11:04:55.000+02:00</time>
      </trkpt>
      <trkpt lat="42.57798" lon="-5.18772">
        <ele>943.8</ele>
        <time>2023-06-15T11:05:18.000+02:00</time>
      </trkpt>
      <trkpt lat="42.57759" lon="-5.19003">
        <ele>943.7</ele>
        <time>2023-06-15T11:05:44.000+02:00</time>
      </trkpt>
      <trkpt lat="42.5789" lon="-5.19109">
        <ele>924.8</ele>
        <time>2023-06-15T11:06:08.000+02:00</time>
      </trkpt>
      <trkpt lat="42.58048" lon="-5.19172">
        <ele>903.6</ele>
        <time>2023-06-15T11:06:33.000+02:00</time>
      </trkpt>
      <trkpt lat="42.58074" lon="-5.19252">
        <ele>901.3</ele>
        <time>2023-06-15T11:06:43.000+02:00</time>
      </trkpt>
      <trkpt lat="42.58105" lon="-5.19257">
        <ele>901</ele>
        <time>2023-06-15T11:06:48.000+02:00</time>
      </trkpt>
      <trkpt lat="42.58096" lon="-5.1933">
        <ele>901</ele>
        <time>2023-06-15T11:06:56.000+02:00</time>
      </trkpt>
      <trkpt lat="42.58154" lon="-5.19488">
        <ele>904.3</ele>
        <time>2023-06-15T11:07:16.000+02:00</time>
      </trkpt>
      <trkpt lat="42.58319" lon="-5.19492">
        <ele>917.6</ele>
        <time>2023-06-15T11:07:41.000+02:00</time>
      </trkpt>
      <trkpt lat="42.58441" lon="-5.1957">
        <ele>940.1</ele>
        <time>2023-06-15T11:08:02.000+02:00</time>
      </trkpt>
      <trkpt lat="42.58649" lon="-5.19602">
        <ele>935.4</ele>
        <time>2023-06-15T11:08:34.000+02:00</time>
      </trkpt>
      <trkpt lat="42.58738" lon="-5.19646">
        <ele>928.1</ele>
        <time>2023-06-15T11:08:48.000+02:00</time>
      </trkpt>
      <trkpt lat="42.58881" lon="-5.19905">
        <ele>913.6</ele>
        <time>2023-06-15T11:09:24.000+02:00</time>
      </trkpt>
      <trkpt lat="42.58943" lon="-5.20174">
        <ele>935.3</ele>
        <time>2023-06-15T11:09:56.000+02:00</time>
      </trkpt>
      <trkpt lat="42.59193" lon="-5.20402">
        <ele>935</ele>
        <time>2023-06-15T11:10:42.000+02:00</time>
      </trkpt>
      <trkpt lat="42.5952" lon="-5.21019">
        <ele>915.1</ele>
        <time>2023-06-15T11:12:08.000+02:00</time>
      </trkpt>
      <trkpt lat="42.59539" lon="-5.21141">
        <ele>912.8</ele>
        <time>2023-06-15T11:12:22.000+02:00</time>
      </trkpt>
      <trkpt lat="42.59522" lon="-5.21246">
        <ele>912.7</ele>
        <time>2023-06-15T11:12:34.000+02:00</time>
      </trkpt>
      <trkpt lat="42.5956" lon="-5.2127">
        <ele>911.2</ele>
        <time>2023-06-15T11:12:40.000+02:00</time>
      </trkpt>
      <trkpt lat="42.59345" lon="-5.21773">
        <ele>903.3</ele>
        <time>2023-06-15T11:13:45.000+02:00</time>
      </trkpt>
      <trkpt lat="42.59666" lon="-5.21932">
        <ele>883</ele>
        <time>2023-06-15T11:14:38.000+02:00</time>
      </trkpt>
      <trkpt lat="42.59676" lon="-5.22107">
        <ele>880.3</ele>
        <time>2023-06-15T11:14:57.000+02:00</time>
      </trkpt>
      <trkpt lat="42.59719" lon="-5.22138">
        <ele>877.1</ele>
        <time>2023-06-15T11:15:05.000+02:00</time>
      </trkpt>
      <trkpt lat="42.5976" lon="-5.22258">
        <ele>873.9</ele>
        <time>2023-06-15T11:15:20.000+02:00</time>
      </trkpt>
      <trkpt lat="42.60149" lon="-5.2206">
        <ele>878.5</ele>
        <time>2023-06-15T11:16:23.000+02:00</time>
      </trkpt>
      <trkpt lat="42.60305" lon="-5.22174">
        <ele>870.7</ele>
        <time>2023-06-15T11:16:50.000+02:00</time>
      </trkpt>
      <trkpt lat="42.60302" lon="-5.22198">
        <ele>870.1</ele>
        <time>2023-06-15T11:16:53.000+02:00</time>
      </trkpt>
      <trkpt lat="42.60417" lon="-5.22142">
        <ele>865</ele>
        <time>2023-06-15T11:17:12.000+02:00</time>
      </trkpt>
      <trkpt lat="42.60434" lon="-5.21999">
        <ele>866.1</ele>
        <time>2023-06-15T11:17:28.000+02:00</time>
      </trkpt>
      <trkpt lat="42.60509" lon="-5.21969">
        <ele>861.6</ele>
        <time>2023-06-15T11:17:40.000+02:00</time>
      </trkpt>
      <trkpt lat="42.60543" lon="-5.2201">
        <ele>860.8</ele>
        <time>2023-06-15T11:17:47.000+02:00</time>
      </trkpt>
      <trkpt lat="42.60646" lon="-5.21977">
        <ele>862.8</ele>
        <time>2023-06-15T11:18:03.000+02:00</time>
      </trkpt>
      <trkpt lat="42.60878" lon="-5.2185">
        <ele>874</ele>
        <time>2023-06-15T11:18:41.000+02:00</time>
      </trkpt>
      <trkpt lat="42.61162" lon="-5.21641">
        <ele>878.2</ele>
        <time>2023-06-15T11:19:30.000+02:00</time>
      </trkpt>
      <trkpt lat="42.61358" lon="-5.21422">
        <ele>869.1</ele>
        <time>2023-06-15T11:20:09.000+02:00</time>
      </trkpt>
      <trkpt lat="42.61566" lon="-5.21329">
        <ele>868</ele>
        <time>2023-06-15T11:20:43.000+02:00</time>
      </trkpt>
      <trkpt lat="42.6176" lon="-5.21732">
        <ele>860.4</ele>
        <time>2023-06-15T11:21:37.000+02:00</time>
      </trkpt>
      <trkpt lat="42.62402" lon="-5.22683">
        <ele>853</ele>
        <time>2023-06-15T11:24:02.000+02:00</time>
      </trkpt>
      <trkpt lat="42.62398" lon="-5.22717">
        <ele>853</ele>
        <time>2023-06-15T11:24:06.000+02:00</time>
      </trkpt>
      <trkpt lat="42.62299" lon="-5.22822">
        <ele>852.2</ele>
        <time>2023-06-15T11:24:25.000+02:00</time>
      </trkpt>
      <trkpt lat="42.61491" lon="-5.24469">
        <ele>848</ele>
        <time>2023-06-15T11:28:08.000+02:00</time>
      </trkpt>
      <trkpt lat="42.61412" lon="-5.24474">
        <ele>847</ele>
        <time>2023-06-15T11:28:20.000+02:00</time>
      </trkpt>
      <trkpt lat="42.61277" lon="-5.24543">
        <ele>846</ele>
        <time>2023-06-15T11:28:42.000+02:00</time>
      </trkpt>
      <trkpt lat="42.61102" lon="-5.2509">
        <ele>844.7</ele>
        <time>2023-06-15T11:29:49.000+02:00</time>
      </trkpt>
      <trkpt lat="42.60912" lon="-5.25424">
        <ele>844</ele>
        <time>2023-06-15T11:30:36.000+02:00</time>
      </trkpt>
      <trkpt lat="42.6084" lon="-5.25655">
        <ele>844.5</ele>
        <time>2023-06-15T11:31:05.000+02:00</time>
      </trkpt>
      <trkpt lat="42.60708" lon="-5.25724">
        <ele>844</ele>
        <time>2023-06-15T11:31:26.000+02:00</time>
      </trkpt>
      <trkpt lat="42.60646" lon="-5.25829">
        <ele>843.6</ele>
        <time>2023-06-15T11:31:41.000+02:00</time>
      </trkpt>
      <trkpt lat="42.60559" lon="-5.25906">
        <ele>843</ele>
        <time>2023-06-15T11:31:57.000+02:00</time>
      </trkpt>
      <trkpt lat="42.60326" lon="-5.26544">
        <ele>844.7</ele>
        <time>2023-06-15T11:33:17.000+02:00</time>
      </trkpt>
      <trkpt lat="42.60588" lon="-5.26908">
        <ele>849.2</ele>
        <time>2023-06-15T11:34:15.000+02:00</time>
      </trkpt>
      <trkpt lat="42.60867" lon="-5.27019">
        <ele>856</ele>
        <time>2023-06-15T11:34:59.000+02:00</time>
      </trkpt>
      <trkpt lat="42.61051" lon="-5.27043">
        <ele>859.9</ele>
        <time>2023-06-15T11:35:27.000+02:00</time>
      </trkpt>
      <trkpt lat="42.61164" lon="-5.27109">
        <ele>861.1</ele>
        <time>2023-06-15T11:35:46.000+02:00</time>
      </trkpt>
      <trkpt lat="42.61348" lon="-5.27148">
        <ele>866.2</ele>
        <time>2023-06-15T11:36:15.000+02:00</time>
      </trkpt>
      <trkpt lat="42.61497" lon="-5.27301">
        <ele>867.8</ele>
        <time>2023-06-15T11:36:43.000+02:00</time>
      </trkpt>
      <trkpt lat="42.61547" lon="-5.27511">
        <ele>865</ele>
        <time>2023-06-15T11:37:08.000+02:00</time>
      </trkpt>
      <trkpt lat="42.6154" lon="-5.27537">
        <ele>865.3</ele>
        <time>2023-06-15T11:37:11.000+02:00</time>
      </trkpt>
      <trkpt lat="42.61514" lon="-5.27534">
        <ele>865.2</ele>
        <time>2023-06-15T11:37:15.000+02:00</time>
      </trkpt>
      <trkpt lat="42.6178" lon="-5.27681">
        <ele>870.6</ele>
        <time>2023-06-15T11:37:59.000+02:00</time>
      </trkpt>
      <trkpt lat="42.62069" lon="-5.27745">
        <ele>875.9</ele>
        <time>2023-06-15T11:38:44.000+02:00</time>
      </trkpt>
      <trkpt lat="42.6215" lon="-5.27795">
        <ele>877.4</ele>
        <time>2023-06-15T11:38:57.000+02:00</time>
      </trkpt>
      <trkpt lat="42.62224" lon="-5.27888">
        <ele>877.9</ele>
        <time>2023-06-15T11:39:13.000+02:00</time>
      </trkpt>
      <trkpt lat="42.62264" lon="-5.27896">
        <ele>878.2</ele>
        <time>2023-06-15T11:39:19.000+02:00</time>
      </trkpt>
      <trkpt lat="42.62262" lon="-5.2804">
        <ele>886.7</ele>
        <time>2023-06-15T11:39:35.000+02:00</time>
      </trkpt>
      <trkpt lat="42.62186" lon="-5.2819">
        <ele>891.3</ele>
        <time>2023-06-15T11:39:56.000+02:00</time>
      </trkpt>
      <trkpt lat="42.62211" lon="-5.28403">
        <ele>903.7</ele>
        <time>2023-06-15T11:40:20.000+02:00</time>
      </trkpt>
      <trkpt lat="42.6216" lon="-5.28622">
        <ele>905.2</ele>
        <time>2023-06-15T11:40:46.000+02:00</time>
      </trkpt>
      <trkpt lat="42.62144" lon="-5.28831">
        <ele>916.4</ele>
        <time>2023-06-15T11:41:09.000+02:00</time>
      </trkpt>
      <trkpt lat="42.62035" lon="-5.29052">
        <ele>920.1</ele>
        <time>2023-06-15T11:41:39.000+02:00</time>
      </trkpt>
      <trkpt lat="42.62046" lon="-5.2941">
        <ele>930.2</ele>
        <time>2023-06-15T11:42:20.000+02:00</time>
      </trkpt>
      <trkpt lat="42.62029" lon="-5.29505">
        <ele>931.2</ele>
        <time>2023-06-15T11:42:30.000+02:00</time>
      </trkpt>
      <trkpt lat="42.62206" lon="-5.29564">
        <ele>939.9</ele>
        <time>2023-06-15T11:42:58.000+02:00</time>
      </trkpt>
      <trkpt lat="42.62277" lon="-5.29627">
        <ele>944.7</ele>
        <time>2023-06-15T11:43:11.000+02:00</time>
      </trkpt>
      <trkpt lat="42.62342" lon="-5.29814">
        <ele>953.2</ele>
        <time>2023-06-15T11:43:34.000+02:00</time>
      </trkpt>
      <trkpt lat="42.62305" lon="-5.29903">
        <ele>954.5</ele>
        <time>2023-06-15T11:43:46.000+02:00</time>
      </trkpt>
      <trkpt lat="42.62512" lon="-5.30084">
        <ele>967.3</ele>
        <time>2023-06-15T11:44:24.000+02:00</time>
      </trkpt>
      <trkpt lat="42.62613" lon="-5.3022">
        <ele>976.1</ele>
        <time>2023-06-15T11:44:45.000+02:00</time>
      </trkpt>
      <trkpt lat="42.62532" lon="-5.30277">
        <ele>977.3</ele>
        <time>2023-06-15T11:44:59.000+02:00</time>
      </trkpt>
      <trkpt lat="42.62229" lon="-5.30343">
        <ele>971</ele>
        <time>2023-06-15T11:45:46.000+02:00</time>
      </trkpt>
      <trkpt lat="42.62235" lon="-5.30475">
        <ele>968.8</ele>
        <time>2023-06-15T11:46:01.000+02:00</time>
      </trkpt>
      <trkpt lat="42.62121" lon="-5.30764">
        <ele>929.1</ele>
        <time>2023-06-15T11:46:38.000+02:00</time>
      </trkpt>
      <trkpt lat="42.62155" lon="-5.3095">
        <ele>920.8</ele>
        <time>2023-06-15T11:46:59.000+02:00</time>
      </trkpt>
      <trkpt lat="42.62112" lon="-5.31002">
        <ele>922</ele>
        <time>2023-06-15T11:47:08.000+02:00</time>
      </trkpt>
      <trkpt lat="42.62043" lon="-5.31206">
        <ele>928</ele>
        <time>2023-06-15T11:47:33.000+02:00</time>
      </trkpt>
      <trkpt lat="42.62028" lon="-5.31744">
        <ele>935</ele>
        <time>2023-06-15T11:48:34.000+02:00</time>
      </trkpt>
      <trkpt lat="42.62052" lon="-5.31888">
        <ele>935.6</ele>
        <time>2023-06-15T11:48:51.000+02:00</time>
      </trkpt>
      <trkpt lat="42.62141" lon="-5.32117">
        <ele>941</ele>
        <time>2023-06-15T11:49:20.000+02:00</time>
      </trkpt>
      <trkpt lat="42.62319" lon="-5.32407">
        <ele>942.5</ele>
        <time>2023-06-15T11:50:02.000+02:00</time>
      </trkpt>
      <trkpt lat="42.62299" lon="-5.32473">
        <ele>942.8</ele>
        <time>2023-06-15T11:50:10.000+02:00</time>
      </trkpt>
      <trkpt lat="42.62129" lon="-5.32682">
        <ele>953</ele>
        <time>2023-06-15T11:50:45.000+02:00</time>
      </trkpt>
      <trkpt lat="42.62047" lon="-5.32841">
        <ele>961.8</ele>
        <time>2023-06-15T11:51:07.000+02:00</time>
      </trkpt>
      <trkpt lat="42.62102" lon="-5.33129">
        <ele>968.8</ele>
        <time>2023-06-15T11:51:41.000+02:00</time>
      </trkpt>
      <trkpt lat="42.62141" lon="-5.33626">
        <ele>975</ele>
        <time>2023-06-15T11:52:37.000+02:00</time>
      </trkpt>
      <trkpt lat="42.62208" lon="-5.33735">
        <ele>976.8</ele>
        <time>2023-06-15T11:52:53.000+02:00</time>
      </trkpt>
      <trkpt lat="42.62214" lon="-5.33883">
        <ele>975.5</ele>
        <time>2023-06-15T11:53:09.000+02:00</time>
      </trkpt>
      <trkpt lat="42.62278" lon="-5.3411">
        <ele>958.1</ele>
        <time>2023-06-15T11:53:37.000+02:00</time>
      </trkpt>
      <trkpt lat="42.62458" lon="-5.34421">
        <ele>940.3</ele>
        <time>2023-06-15T11:54:21.000+02:00</time>
      </trkpt>
      <trkpt lat="42.62794" lon="-5.34853">
        <ele>913.7</ele>
        <time>2023-06-15T11:55:32.000+02:00</time>
      </trkpt>
      <trkpt lat="42.62873" lon="-5.34904">
        <ele>911.9</ele>
        <time>2023-06-15T11:55:45.000+02:00</time>
      </trkpt>
      <trkpt lat="42.62876" lon="-5.3496">
        <ele>910.5</ele>
        <time>2023-06-15T11:55:51.000+02:00</time>
      </trkpt>
      <trkpt lat="42.62819" lon="-5.35165">
        <ele>905.5</ele>
        <time>2023-06-15T11:56:16.000+02:00</time>
      </trkpt>
      <trkpt lat="42.62929" lon="-5.3529">
        <ele>911.8</ele>
        <time>2023-06-15T11:56:38.000+02:00</time>
      </trkpt>
      <trkpt lat="42.63012" lon="-5.35434">
        <ele>925.1</ele>
        <time>2023-06-15T11:56:59.000+02:00</time>
      </trkpt>
      <trkpt lat="42.63132" lon="-5.35487">
        <ele>931</ele>
        <time>2023-06-15T11:57:18.000+02:00</time>
      </trkpt>
      <trkpt lat="42.63168" lon="-5.35581">
        <ele>937.7</ele>
        <time>2023-06-15T11:57:30.000+02:00</time>
      </trkpt>
      <trkpt lat="42.63302" lon="-5.35583">
        <ele>945.6</ele>
        <time>2023-06-15T11:57:50.000+02:00</time>
      </trkpt>
      <trkpt lat="42.63411" lon="-5.35633">
        <ele>946.9</ele>
        <time>2023-06-15T11:58:08.000+02:00</time>
      </trkpt>
      <trkpt lat="42.63486" lon="-5.35739">
        <ele>937.6</ele>
        <time>2023-06-15T11:58:24.000+02:00</time>
      </trkpt>
      <trkpt lat="42.63539" lon="-5.35695">
        <ele>933.1</ele>
        <time>2023-06-15T11:58:34.000+02:00</time>
      </trkpt>
      <trkpt lat="42.63625" lon="-5.35692">
        <ele>922.2</ele>
        <time>2023-06-15T11:58:47.000+02:00</time>
      </trkpt>
      <trkpt lat="42.63762" lon="-5.35767">
        <ele>916.9</ele>
        <time>2023-06-15T11:59:10.000+02:00</time>
      </trkpt>
      <trkpt lat="42.63866" lon="-5.35751">
        <ele>915.1</ele>
        <time>2023-06-15T11:59:26.000+02:00</time>
      </trkpt>
      <trkpt lat="42.63916" lon="-5.35837">
        <ele>905.7</ele>
        <time>2023-06-15T11:59:38.000+02:00</time>
      </trkpt>
      <trkpt lat="42.63906" lon="-5.35918">
        <ele>899.2</ele>
        <time>2023-06-15T11:59:47.000+02:00</time>
      </trkpt>
      <trkpt lat="42.63943" lon="-5.36027">
        <ele>889</ele>
        <time>2023-06-15T12:00:01.000+02:00</time>
      </trkpt>
      <trkpt lat="42.64042" lon="-5.36208">
        <ele>883.2</ele>
        <time>2023-06-15T12:00:26.000+02:00</time>
      </trkpt>
      <trkpt lat="42.64093" lon="-5.36406">
        <ele>870.9</ele>
        <time>2023-06-15T12:00:50.000+02:00</time>
      </trkpt>
      <trkpt lat="42.64239" lon="-5.36709">
        <ele>849.9</ele>
        <time>2023-06-15T12:01:30.000+02:00</time>
      </trkpt>
      <trkpt lat="42.64246" lon="-5.36761">
        <ele>846.3</ele>
        <time>2023-06-15T12:01:36.000+02:00</time>
      </trkpt>
      <trkpt lat="42.64202" lon="-5.36918">
        <ele>841.7</ele>
        <time>2023-06-15T12:01:55.000+02:00</time>
      </trkpt>
      <trkpt lat="42.64202" lon="-5.37091">
        <ele>840.5</ele>
        <time>2023-06-15T12:02:15.000+02:00</time>
      </trkpt>
      <trkpt lat="42.64243" lon="-5.37135">
        <ele>838.1</ele>
        <time>2023-06-15T12:02:23.000+02:00</time>
      </trkpt>
      <trkpt lat="42.64277" lon="-5.37286">
        <ele>838</ele>
        <time>2023-06-15T12:02:40.000+02:00</time>
      </trkpt>
      <trkpt lat="42.64255" lon="-5.3756">
        <ele>838</ele>
        <time>2023-06-15T12:03:11.000+02:00</time>
      </trkpt>
      <trkpt lat="42.64499" lon="-5.37459">
        <ele>838</ele>
        <time>2023-06-15T12:03:51.000+02:00</time>
      </trkpt>
      <trkpt lat="42.64597" lon="-5.37298">
        <ele>839</ele>
        <time>2023-06-15T12:04:14.000+02:00</time>
      </trkpt>
      <trkpt lat="42.6479" lon="-5.37273">
        <ele>840.4</ele>
        <time>2023-06-15T12:04:44.000+02:00</time>
      </trkpt>
      <trkpt lat="42.64946" lon="-5.37427">
        <ele>842.7</ele>
        <time>2023-06-15T12:05:13.000+02:00</time>
      </trkpt>
      <trkpt lat="42.6523" lon="-5.37553">
        <ele>844.6</ele>
        <time>2023-06-15T12:05:59.000+02:00</time>
      </trkpt>
      <trkpt lat="42.65511" lon="-5.38043">
        <ele>845</ele>
        <time>2023-06-15T12:07:09.000+02:00</time>
      </trkpt>
      <trkpt lat="42.65526" lon="-5.38296">
        <ele>846.6</ele>
        <time>2023-06-15T12:07:37.000+02:00</time>
      </trkpt>
      <trkpt lat="42.65556" lon="-5.38333">
        <ele>848</ele>
        <time>2023-06-15T12:07:43.000+02:00</time>
      </trkpt>
      <trkpt lat="42.65662" lon="-5.38434">
        <ele>850.8</ele>
        <time>2023-06-15T12:08:03.000+02:00</time>
      </trkpt>
      <trkpt lat="42.6579" lon="-5.38454">
        <ele>852.2</ele>
        <time>2023-06-15T12:08:23.000+02:00</time>
      </trkpt>
      <trkpt lat="42.65965" lon="-5.38566">
        <ele>854</ele>
        <time>2023-06-15T12:08:52.000+02:00</time>
      </trkpt>
      <trkpt lat="42.6602" lon="-5.38563">
        <ele>854.7</ele>
        <time>2023-06-15T12:09:01.000+02:00</time>
      </trkpt>
      <trkpt lat="42.66026" lon="-5.38602">
        <ele>855</ele>
        <time>2023-06-15T12:09:05.000+02:00</time>
      </trkpt>
      <trkpt lat="42.66322" lon="-5.38351">
        <ele>855</ele>
        <time>2023-06-15T12:09:58.000+02:00</time>
      </trkpt>
      <trkpt lat="42.66318" lon="-5.38257">
        <ele>855</ele>
        <time>2023-06-15T12:10:09.000+02:00</time>
      </trkpt>
      <trkpt lat="42.66541" lon="-5.38174">
        <ele>856</ele>
        <time>2023-06-15T12:10:44.000+02:00</time>
      </trkpt>
      <trkpt lat="42.67044" lon="-5.37905">
        <ele>858.6</ele>
        <time>2023-06-15T12:12:07.000+02:00</time>
      </trkpt>
      <trkpt lat="42.6731" lon="-5.37834">
        <ele>858</ele>
        <time>2023-06-15T12:12:48.000+02:00</time>
      </trkpt>
      <trkpt lat="42.67304" lon="-5.37946">
        <ele>860.9</ele>
        <time>2023-06-15T12:13:01.000+02:00</time>
      </trkpt>
      <trkpt lat="42.67442" lon="-5.38058">
        <ele>862</ele>
        <time>2023-06-15T12:13:26.000+02:00</time>
      </trkpt>
      <trkpt lat="42.67552" lon="-5.38022">
        <ele>862.8</ele>
        <time>2023-06-15T12:13:43.000+02:00</time>
      </trkpt>
      <trkpt lat="42.67673" lon="-5.38023">
        <ele>863</ele>
        <time>2023-06-15T12:14:01.000+02:00</time>
      </trkpt>
      <trkpt lat="42.67794" lon="-5.37904">
        <ele>861.5</ele>
        <time>2023-06-15T12:14:24.000+02:00</time>
      </trkpt>
      <trkpt lat="42.67884" lon="-5.37967">
        <ele>864</ele>
        <time>2023-06-15T12:14:40.000+02:00</time>
      </trkpt>
      <trkpt lat="42.67816" lon="-5.38148">
        <ele>865.8</ele>
        <time>2023-06-15T12:15:02.000+02:00</time>
      </trkpt>
      <trkpt lat="42.68283" lon="-5.37973">
        <ele>867.44140625</ele>
        <time>2026-08-24T18:36:55.585+02:00</time>
      </trkpt>
      <trkpt lat="42.68139" lon="-5.38099">
        <ele>865.2578125</ele>
        <time>2026-08-24T18:36:55.585+02:00</time>
      </trkpt>
      <trkpt lat="42.6791" lon="-5.38368">
        <ele>867</ele>
        <time>2023-06-15T12:15:31.000+02:00</time>
      </trkpt>
      <trkpt lat="42.67898" lon="-5.38387">
        <ele>867</ele>
        <time>2023-06-15T12:15:34.000+02:00</time>
      </trkpt>
      <trkpt lat="42.67948" lon="-5.38467">
        <ele>868</ele>
        <time>2023-06-15T12:15:46.000+02:00</time>
      </trkpt>
      <trkpt lat="42.68044" lon="-5.38489">
        <ele>868.6</ele>
        <time>2023-06-15T12:16:01.000+02:00</time>
      </trkpt>
      <trkpt lat="42.68254" lon="-5.38446">
        <ele>870.9</ele>
        <time>2023-06-15T12:16:33.000+02:00</time>
      </trkpt>
      <trkpt lat="42.68449" lon="-5.3849">
        <ele>871.2</ele>
        <time>2023-06-15T12:17:03.000+02:00</time>
      </trkpt>
      <trkpt lat="42.68798" lon="-5.38696">
        <ele>874.1</ele>
        <time>2023-06-15T12:18:01.000+02:00</time>
      </trkpt>
      <trkpt lat="42.68965" lon="-5.3887">
        <ele>877.3</ele>
        <time>2023-06-15T12:18:34.000+02:00</time>
      </trkpt>
      <trkpt lat="42.69033" lon="-5.38996">
        <ele>882.7</ele>
        <time>2023-06-15T12:18:51.000+02:00</time>
      </trkpt>
      <trkpt lat="42.69199" lon="-5.39124">
        <ele>887.4</ele>
        <time>2023-06-15T12:19:20.000+02:00</time>
      </trkpt>
      <trkpt lat="42.69224" lon="-5.39207">
        <ele>889.5</ele>
        <time>2023-06-15T12:19:30.000+02:00</time>
      </trkpt>
      <trkpt lat="42.6919" lon="-5.39242">
        <ele>892</ele>
        <time>2023-06-15T12:19:37.000+02:00</time>
      </trkpt>
      <trkpt lat="42.69149" lon="-5.39255">
        <ele>895.8</ele>
        <time>2023-06-15T12:19:43.000+02:00</time>
      </trkpt>
      <trkpt lat="42.69025" lon="-5.39217">
        <ele>906.5</ele>
        <time>2023-06-15T12:20:03.000+02:00</time>
      </trkpt>
      <trkpt lat="42.6895" lon="-5.39239">
        <ele>910</ele>
        <time>2023-06-15T12:20:14.000+02:00</time>
      </trkpt>
      <trkpt lat="42.68864" lon="-5.3934">
        <ele>913.8</ele>
        <time>2023-06-15T12:20:32.000+02:00</time>
      </trkpt>
      <trkpt lat="42.68873" lon="-5.39512">
        <ele>924.4</ele>
        <time>2023-06-15T12:20:51.000+02:00</time>
      </trkpt>
      <trkpt lat="42.68911" lon="-5.39632">
        <ele>931.4</ele>
        <time>2023-06-15T12:21:06.000+02:00</time>
      </trkpt>
      <trkpt lat="42.68966" lon="-5.40045">
        <ele>943.7</ele>
        <time>2023-06-15T12:21:53.000+02:00</time>
      </trkpt>
      <trkpt lat="42.69142" lon="-5.40248">
        <ele>943.8</ele>
        <time>2023-06-15T12:22:28.000+02:00</time>
      </trkpt>
      <trkpt lat="42.69246" lon="-5.40307">
        <ele>945.1</ele>
        <time>2023-06-15T12:22:45.000+02:00</time>
      </trkpt>
      <trkpt lat="42.6943" lon="-5.40352">
        <ele>942.2</ele>
        <time>2023-06-15T12:23:14.000+02:00</time>
      </trkpt>
      <trkpt lat="42.69738" lon="-5.40532">
        <ele>943</ele>
        <time>2023-06-15T12:24:05.000+02:00</time>
      </trkpt>
      <trkpt lat="42.69877" lon="-5.40401">
        <ele>933.4</ele>
        <time>2023-06-15T12:24:31.000+02:00</time>
      </trkpt>
      <trkpt lat="42.69981" lon="-5.40388">
        <ele>929.3</ele>
        <time>2023-06-15T12:24:47.000+02:00</time>
      </trkpt>
      <trkpt lat="42.7007" lon="-5.4028">
        <ele>930.1</ele>
        <time>2023-06-15T12:25:05.000+02:00</time>
      </trkpt>
      <trkpt lat="42.70189" lon="-5.40267">
        <ele>927.7</ele>
        <time>2023-06-15T12:25:23.000+02:00</time>
      </trkpt>
      <trkpt lat="42.70132" lon="-5.40329">
        <ele>931.4</ele>
        <time>2023-06-15T12:25:35.000+02:00</time>
      </trkpt>
      <trkpt lat="42.70077" lon="-5.40592">
        <ele>941.3</ele>
        <time>2023-06-15T12:26:05.000+02:00</time>
      </trkpt>
      <trkpt lat="42.70068" lon="-5.40936">
        <ele>954.7</ele>
        <time>2023-06-15T12:26:44.000+02:00</time>
      </trkpt>
      <trkpt lat="42.70023" lon="-5.41047">
        <ele>956</ele>
        <time>2023-06-15T12:26:58.000+02:00</time>
      </trkpt>
      <trkpt lat="42.69995" lon="-5.4134">
        <ele>958</ele>
        <time>2023-06-15T12:27:31.000+02:00</time>
      </trkpt>
      <trkpt lat="42.70258" lon="-5.42199">
        <ele>965</ele>
        <time>2023-06-15T12:29:16.000+02:00</time>
      </trkpt>
      <trkpt lat="42.7051" lon="-5.42604">
        <ele>971</ele>
        <time>2023-06-15T12:30:16.000+02:00</time>
      </trkpt>
      <trkpt lat="42.7057" lon="-5.42866">
        <ele>973.5</ele>
        <time>2023-06-15T12:30:46.000+02:00</time>
      </trkpt>
      <trkpt lat="42.70648" lon="-5.43081">
        <ele>977.3</ele>
        <time>2023-06-15T12:31:13.000+02:00</time>
      </trkpt>
      <trkpt lat="42.70322" lon="-5.43316">
        <ele>977</ele>
        <time>2023-06-15T12:32:10.000+02:00</time>
      </trkpt>
      <trkpt lat="42.69813" lon="-5.42979">
        <ele>966.4</ele>
        <time>2023-06-15T12:33:36.000+02:00</time>
      </trkpt>
      <trkpt lat="42.69681" lon="-5.42826">
        <ele>961.7</ele>
        <time>2023-06-15T12:34:03.000+02:00</time>
      </trkpt>
      <trkpt lat="42.69653" lon="-5.42752">
        <ele>960</ele>
        <time>2023-06-15T12:34:12.000+02:00</time>
      </trkpt>
      <trkpt lat="42.69312" lon="-5.42904">
        <ele>924.6</ele>
        <time>2023-06-15T12:35:07.000+02:00</time>
      </trkpt>
      <trkpt lat="42.69475" lon="-5.43189">
        <ele>931.5</ele>
        <time>2023-06-15T12:35:48.000+02:00</time>
      </trkpt>
      <trkpt lat="42.69525" lon="-5.4339">
        <ele>941.2</ele>
        <time>2023-06-15T12:36:11.000+02:00</time>
      </trkpt>
      <trkpt lat="42.69633" lon="-5.43609">
        <ele>942.6</ele>
        <time>2023-06-15T12:36:41.000+02:00</time>
      </trkpt>
      <trkpt lat="42.69655" lon="-5.4391">
        <ele>950.6</ele>
        <time>2023-06-15T12:37:15.000+02:00</time>
      </trkpt>
      <trkpt lat="42.69729" lon="-5.44356">
        <ele>957.8</ele>
        <time>2023-06-15T12:38:06.000+02:00</time>
      </trkpt>
      <trkpt lat="42.69711" lon="-5.44585">
        <ele>967.5</ele>
        <time>2023-06-15T12:38:32.000+02:00</time>
      </trkpt>
      <trkpt lat="42.69846" lon="-5.44656">
        <ele>968.5</ele>
        <time>2023-06-15T12:38:54.000+02:00</time>
      </trkpt>
      <trkpt lat="42.6995" lon="-5.44874">
        <ele>979</ele>
        <time>2023-06-15T12:39:24.000+02:00</time>
      </trkpt>
      <trkpt lat="42.70039" lon="-5.45217">
        <ele>988.5</ele>
        <time>2023-06-15T12:40:04.000+02:00</time>
      </trkpt>
      <trkpt lat="42.70133" lon="-5.45349">
        <ele>995.6</ele>
        <time>2023-06-15T12:40:25.000+02:00</time>
      </trkpt>
      <trkpt lat="42.7014" lon="-5.45428">
        <ele>999.7</ele>
        <time>2023-06-15T12:40:34.000+02:00</time>
      </trkpt>
      <trkpt lat="42.70176" lon="-5.45485">
        <ele>1002.7</ele>
        <time>2023-06-15T12:40:42.000+02:00</time>
      </trkpt>
      <trkpt lat="42.70193" lon="-5.45729">
        <ele>1014.3</ele>
        <time>2023-06-15T12:41:10.000+02:00</time>
      </trkpt>
      <trkpt lat="42.70549" lon="-5.46391">
        <ele>1037.9</ele>
        <time>2023-06-15T12:42:42.000+02:00</time>
      </trkpt>
      <trkpt lat="42.70628" lon="-5.46626">
        <ele>1046.5</ele>
        <time>2023-06-15T12:43:11.000+02:00</time>
      </trkpt>
      <trkpt lat="42.70742" lon="-5.46808">
        <ele>1055.1</ele>
        <time>2023-06-15T12:43:38.000+02:00</time>
      </trkpt>
      <trkpt lat="42.71114" lon="-5.46583">
        <ele>1051.2</ele>
        <time>2023-06-15T12:44:40.000+02:00</time>
      </trkpt>
      <trkpt lat="42.71147" lon="-5.46815">
        <ele>1061.1</ele>
        <time>2023-06-15T12:45:06.000+02:00</time>
      </trkpt>
      <trkpt lat="42.71082" lon="-5.48107">
        <ele>1086</ele>
        <time>2023-06-15T12:47:32.000+02:00</time>
      </trkpt>
      <trkpt lat="42.71047" lon="-5.48375">
        <ele>1084.8</ele>
        <time>2023-06-15T12:48:03.000+02:00</time>
      </trkpt>
      <trkpt lat="42.70822" lon="-5.48487">
        <ele>1083.8</ele>
        <time>2023-06-15T12:48:39.000+02:00</time>
      </trkpt>
      <trkpt lat="42.70761" lon="-5.48567">
        <ele>1086.2</ele>
        <time>2023-06-15T12:48:52.000+02:00</time>
      </trkpt>
      <trkpt lat="42.7056" lon="-5.48948">
        <ele>1078.5</ele>
        <time>2023-06-15T12:49:45.000+02:00</time>
      </trkpt>
      <trkpt lat="42.70436" lon="-5.49093">
        <ele>1082</ele>
        <time>2023-06-15T12:50:10.000+02:00</time>
      </trkpt>
      <trkpt lat="42.70275" lon="-5.49529">
        <ele>1077</ele>
        <time>2023-06-15T12:51:04.000+02:00</time>
      </trkpt>
      <trkpt lat="42.69969" lon="-5.49887">
        <ele>1075</ele>
        <time>2023-06-15T12:52:06.000+02:00</time>
      </trkpt>
      <trkpt lat="42.70036" lon="-5.49995">
        <ele>1073.8</ele>
        <time>2023-06-15T12:52:22.000+02:00</time>
      </trkpt>
      <trkpt lat="42.70222" lon="-5.50119">
        <ele>1034.5</ele>
        <time>2023-06-15T12:52:54.000+02:00</time>
      </trkpt>
      <trkpt lat="42.70361" lon="-5.50278">
        <ele>1012</ele>
        <time>2023-06-15T12:53:21.000+02:00</time>
      </trkpt>
      <trkpt lat="42.70447" lon="-5.50508">
        <ele>1012</ele>
        <time>2023-06-15T12:53:50.000+02:00</time>
      </trkpt>
      <trkpt lat="42.70598" lon="-5.50497">
        <ele>1005.8</ele>
        <time>2023-06-15T12:54:14.000+02:00</time>
      </trkpt>
      <trkpt lat="42.70698" lon="-5.50541">
        <ele>998.8</ele>
        <time>2023-06-15T12:54:30.000+02:00</time>
      </trkpt>
      <trkpt lat="42.70706" lon="-5.50444">
        <ele>992.7</ele>
        <time>2023-06-15T12:54:41.000+02:00</time>
      </trkpt>
      <trkpt lat="42.70757" lon="-5.50346">
        <ele>979.9</ele>
        <time>2023-06-15T12:54:54.000+02:00</time>
      </trkpt>
      <trkpt lat="42.70667" lon="-5.50256">
        <ele>972</ele>
        <time>2023-06-15T12:55:11.000+02:00</time>
      </trkpt>
      <trkpt lat="42.70727" lon="-5.50202">
        <ele>967.3</ele>
        <time>2023-06-15T12:55:22.000+02:00</time>
      </trkpt>
      <trkpt lat="42.70923" lon="-5.50251">
        <ele>957.2</ele>
        <time>2023-06-15T12:55:52.000+02:00</time>
      </trkpt>
      <trkpt lat="42.71087" lon="-5.50402">
        <ele>945.3</ele>
        <time>2023-06-15T12:56:23.000+02:00</time>
      </trkpt>
      <trkpt lat="42.71307" lon="-5.50319">
        <ele>936.5</ele>
        <time>2023-06-15T12:56:58.000+02:00</time>
      </trkpt>
      <trkpt lat="42.71357" lon="-5.50328">
        <ele>938.4</ele>
        <time>2023-06-15T12:57:05.000+02:00</time>
      </trkpt>
      <trkpt lat="42.7143" lon="-5.50422">
        <ele>932</ele>
        <time>2023-06-15T12:57:21.000+02:00</time>
      </trkpt>
      <trkpt lat="42.71426" lon="-5.50542">
        <ele>931</ele>
        <time>2023-06-15T12:57:34.000+02:00</time>
      </trkpt>
      <trkpt lat="42.7149" lon="-5.50673">
        <ele>925.9</ele>
        <time>2023-06-15T12:57:52.000+02:00</time>
      </trkpt>
      <trkpt lat="42.71474" lon="-5.51103">
        <ele>907.5</ele>
        <time>2023-06-15T12:58:40.000+02:00</time>
      </trkpt>
      <trkpt lat="42.71389" lon="-5.51396">
        <ele>899</ele>
        <time>2023-06-15T12:59:16.000+02:00</time>
      </trkpt>
      <trkpt lat="42.71452" lon="-5.51409">
        <ele>897.4</ele>
        <time>2023-06-15T12:59:25.000+02:00</time>
      </trkpt>
      <trkpt lat="42.71676" lon="-5.51235">
        <ele>908.3</ele>
        <time>2023-06-15T13:00:05.000+02:00</time>
      </trkpt>
      <trkpt lat="42.72024" lon="-5.51125">
        <ele>928.3</ele>
        <time>2023-06-15T13:00:59.000+02:00</time>
      </trkpt>
      <trkpt lat="42.72173" lon="-5.5117">
        <ele>923.1</ele>
        <time>2023-06-15T13:01:23.000+02:00</time>
      </trkpt>
      <trkpt lat="42.72625" lon="-5.5122">
        <ele>912.2</ele>
        <time>2023-06-15T13:02:32.000+02:00</time>
      </trkpt>
      <trkpt lat="42.72785" lon="-5.51151">
        <ele>915.3</ele>
        <time>2023-06-15T13:02:58.000+02:00</time>
      </trkpt>
      <trkpt lat="42.72864" lon="-5.51163">
        <ele>912.2</ele>
        <time>2023-06-15T13:03:10.000+02:00</time>
      </trkpt>
      <trkpt lat="42.72972" lon="-5.51113">
        <ele>909</ele>
        <time>2023-06-15T13:03:27.000+02:00</time>
      </trkpt>
      <trkpt lat="42.73054" lon="-5.51152">
        <ele>905.6</ele>
        <time>2023-06-15T13:03:40.000+02:00</time>
      </trkpt>
      <trkpt lat="42.73251" lon="-5.51065">
        <ele>905</ele>
        <time>2023-06-15T13:04:12.000+02:00</time>
      </trkpt>
      <trkpt lat="42.73704" lon="-5.51057">
        <ele>908</ele>
        <time>2023-06-15T13:05:21.000+02:00</time>
      </trkpt>
      <trkpt lat="42.73805" lon="-5.50991">
        <ele>910.4</ele>
        <time>2023-06-15T13:05:39.000+02:00</time>
      </trkpt>
      <trkpt lat="42.74009" lon="-5.50922">
        <ele>913.6</ele>
        <time>2023-06-15T13:06:11.000+02:00</time>
      </trkpt>
      <trkpt lat="42.74341" lon="-5.5089">
        <ele>917.7</ele>
        <time>2023-06-15T13:07:02.000+02:00</time>
      </trkpt>
      <trkpt lat="42.74559" lon="-5.50801">
        <ele>917.9</ele>
        <time>2023-06-15T13:07:36.000+02:00</time>
      </trkpt>
      <trkpt lat="42.74739" lon="-5.50835">
        <ele>917.3</ele>
        <time>2023-06-15T13:08:04.000+02:00</time>
      </trkpt>
      <trkpt lat="42.74943" lon="-5.50784">
        <ele>918.6</ele>
        <time>2023-06-15T13:08:36.000+02:00</time>
      </trkpt>
      <trkpt lat="42.75001" lon="-5.50726">
        <ele>921.6</ele>
        <time>2023-06-15T13:08:47.000+02:00</time>
      </trkpt>
      <trkpt lat="42.75229" lon="-5.50685">
        <ele>922.9</ele>
        <time>2023-06-15T13:09:22.000+02:00</time>
      </trkpt>
      <trkpt lat="42.75477" lon="-5.50506">
        <ele>925.1</ele>
        <time>2023-06-15T13:10:05.000+02:00</time>
      </trkpt>
      <trkpt lat="42.7571" lon="-5.50491">
        <ele>925.6</ele>
        <time>2023-06-15T13:10:40.000+02:00</time>
      </trkpt>
      <trkpt lat="42.76157" lon="-5.50391">
        <ele>929.8</ele>
        <time>2023-06-15T13:11:50.000+02:00</time>
      </trkpt>
      <trkpt lat="42.76195" lon="-5.50405">
        <ele>927.4</ele>
        <time>2023-06-15T13:11:56.000+02:00</time>
      </trkpt>
      <trkpt lat="42.76248" lon="-5.50339">
        <ele>928.6</ele>
        <time>2023-06-15T13:12:07.000+02:00</time>
      </trkpt>
      <trkpt lat="42.76344" lon="-5.50297">
        <ele>933</ele>
        <time>2023-06-15T13:12:22.000+02:00</time>
      </trkpt>
      <trkpt lat="42.76471" lon="-5.50343">
        <ele>930</ele>
        <time>2023-06-15T13:12:42.000+02:00</time>
      </trkpt>
      <trkpt lat="42.76611" lon="-5.50314">
        <ele>933.5</ele>
        <time>2023-06-15T13:13:04.000+02:00</time>
      </trkpt>
      <trkpt lat="42.7688" lon="-5.50315">
        <ele>931.5</ele>
        <time>2023-06-15T13:13:45.000+02:00</time>
      </trkpt>
      <trkpt lat="42.76921" lon="-5.50382">
        <ele>930</ele>
        <time>2023-06-15T13:13:55.000+02:00</time>
      </trkpt>
      <trkpt lat="42.77106" lon="-5.50242">
        <ele>931.3</ele>
        <time>2023-06-15T13:14:27.000+02:00</time>
      </trkpt>
      <trkpt lat="42.77247" lon="-5.50221">
        <ele>932</ele>
        <time>2023-06-15T13:14:49.000+02:00</time>
      </trkpt>
      <trkpt lat="42.77346" lon="-5.50246">
        <ele>933</ele>
        <time>2023-06-15T13:15:04.000+02:00</time>
      </trkpt>
      <trkpt lat="42.77522" lon="-5.50216">
        <ele>934.2</ele>
        <time>2023-06-15T13:15:31.000+02:00</time>
      </trkpt>
      <trkpt lat="42.77578" lon="-5.50149">
        <ele>938.1</ele>
        <time>2023-06-15T13:15:43.000+02:00</time>
      </trkpt>
      <trkpt lat="42.7785" lon="-5.50099">
        <ele>940.7</ele>
        <time>2023-06-15T13:16:24.000+02:00</time>
      </trkpt>
      <trkpt lat="42.78046" lon="-5.49975">
        <ele>945.6</ele>
        <time>2023-06-15T13:16:57.000+02:00</time>
      </trkpt>
      <trkpt lat="42.78361" lon="-5.50078">
        <ele>944.3</ele>
        <time>2023-06-15T13:17:47.000+02:00</time>
      </trkpt>
      <trkpt lat="42.78581" lon="-5.49979">
        <ele>954.9</ele>
        <time>2023-06-15T13:18:22.000+02:00</time>
      </trkpt>
      <trkpt lat="42.78623" lon="-5.49847">
        <ele>957.3</ele>
        <time>2023-06-15T13:18:38.000+02:00</time>
      </trkpt>
      <trkpt lat="42.78695" lon="-5.50273">
        <ele>943</ele>
        <time>2023-06-15T13:19:27.000+02:00</time>
      </trkpt>
      <trkpt lat="42.78781" lon="-5.5061">
        <ele>948.1</ele>
        <time>2023-06-15T13:20:07.000+02:00</time>
      </trkpt>
      <trkpt lat="42.77973" lon="-5.50809">
        <ele>941.1</ele>
        <time>2023-06-15T13:22:13.000+02:00</time>
      </trkpt>
      <trkpt lat="42.77772" lon="-5.50904">
        <ele>937</ele>
        <time>2023-06-15T13:22:45.000+02:00</time>
      </trkpt>
      <trkpt lat="42.77373" lon="-5.50987">
        <ele>935.5</ele>
        <time>2023-06-15T13:23:47.000+02:00</time>
      </trkpt>
      <trkpt lat="42.77035" lon="-5.51113">
        <ele>936</ele>
        <time>2023-06-15T13:24:41.000+02:00</time>
      </trkpt>
      <trkpt lat="42.77069" lon="-5.51183">
        <ele>937.7</ele>
        <time>2023-06-15T13:24:50.000+02:00</time>
      </trkpt>
      <trkpt lat="42.7707" lon="-5.51339">
        <ele>938.1</ele>
        <time>2023-06-15T13:25:08.000+02:00</time>
      </trkpt>
      <trkpt lat="42.77193" lon="-5.51717">
        <ele>944.1</ele>
        <time>2023-06-15T13:25:54.000+02:00</time>
      </trkpt>
      <trkpt lat="42.77248" lon="-5.51993">
        <ele>950.3</ele>
        <time>2023-06-15T13:26:26.000+02:00</time>
      </trkpt>
      <trkpt lat="42.7733" lon="-5.52215">
        <ele>950.6</ele>
        <time>2023-06-15T13:26:54.000+02:00</time>
      </trkpt>
      <trkpt lat="42.77419" lon="-5.52372">
        <ele>957.6</ele>
        <time>2023-06-15T13:27:16.000+02:00</time>
      </trkpt>
      <trkpt lat="42.77493" lon="-5.52417">
        <ele>959.2</ele>
        <time>2023-06-15T13:27:29.000+02:00</time>
      </trkpt>
      <trkpt lat="42.77965" lon="-5.52871">
        <ele>965.8</ele>
        <time>2023-06-15T13:28:57.000+02:00</time>
      </trkpt>
      <trkpt lat="42.78475" lon="-5.5339">
        <ele>981.9</ele>
        <time>2023-06-15T13:30:34.000+02:00</time>
      </trkpt>
      <trkpt lat="42.78752" lon="-5.53925">
        <ele>1018.5</ele>
        <time>2023-06-15T13:31:47.000+02:00</time>
      </trkpt>
      <trkpt lat="42.78818" lon="-5.54132">
        <ele>1029.8</ele>
        <time>2023-06-15T13:32:13.000+02:00</time>
      </trkpt>
      <trkpt lat="42.78973" lon="-5.54424">
        <ele>1044</ele>
        <time>2023-06-15T13:32:53.000+02:00</time>
      </trkpt>
      <trkpt lat="42.79013" lon="-5.54688">
        <ele>1051.1</ele>
        <time>2023-06-15T13:33:23.000+02:00</time>
      </trkpt>
      <trkpt lat="42.79113" lon="-5.54861">
        <ele>1060.9</ele>
        <time>2023-06-15T13:33:48.000+02:00</time>
      </trkpt>
      <trkpt lat="42.79146" lon="-5.55094">
        <ele>1066.2</ele>
        <time>2023-06-15T13:34:15.000+02:00</time>
      </trkpt>
      <trkpt lat="42.79186" lon="-5.55191">
        <ele>1075.3</ele>
        <time>2023-06-15T13:34:27.000+02:00</time>
      </trkpt>
      <trkpt lat="42.79177" lon="-5.55505">
        <ele>1089.1</ele>
        <time>2023-06-15T13:35:02.000+02:00</time>
      </trkpt>
      <trkpt lat="42.79285" lon="-5.5572">
        <ele>1094.3</ele>
        <time>2023-06-15T13:35:32.000+02:00</time>
      </trkpt>
      <trkpt lat="42.7931" lon="-5.5587">
        <ele>1098.9</ele>
        <time>2023-06-15T13:35:49.000+02:00</time>
      </trkpt>
      <trkpt lat="42.79321" lon="-5.55989">
        <ele>1101</ele>
        <time>2023-06-15T13:36:02.000+02:00</time>
      </trkpt>
      <trkpt lat="42.79272" lon="-5.56542">
        <ele>1124.1</ele>
        <time>2023-06-15T13:37:05.000+02:00</time>
      </trkpt>
      <trkpt lat="42.79251" lon="-5.56685">
        <ele>1131.4</ele>
        <time>2023-06-15T13:37:21.000+02:00</time>
      </trkpt>
      <trkpt lat="42.7922" lon="-5.56744">
        <ele>1132.3</ele>
        <time>2023-06-15T13:37:29.000+02:00</time>
      </trkpt>
      <trkpt lat="42.7976" lon="-5.56795">
        <ele>1127.4</ele>
        <time>2023-06-15T13:38:52.000+02:00</time>
      </trkpt>
      <trkpt lat="42.7972" lon="-5.57582">
        <ele>1111.5</ele>
        <time>2023-06-15T13:40:21.000+02:00</time>
      </trkpt>
      <trkpt lat="42.79743" lon="-5.5789">
        <ele>1103.7</ele>
        <time>2023-06-15T13:40:55.000+02:00</time>
      </trkpt>
      <trkpt lat="42.79713" lon="-5.58224">
        <ele>1090.6</ele>
        <time>2023-06-15T13:41:33.000+02:00</time>
      </trkpt>
      <trkpt lat="42.79746" lon="-5.58359">
        <ele>1086.3</ele>
        <time>2023-06-15T13:41:49.000+02:00</time>
      </trkpt>
      <trkpt lat="42.79699" lon="-5.58855">
        <ele>1074.4</ele>
        <time>2023-06-15T13:42:45.000+02:00</time>
      </trkpt>
      <trkpt lat="42.797" lon="-5.59893">
        <ele>1051.6</ele>
        <time>2023-06-15T13:44:42.000+02:00</time>
      </trkpt>
      <trkpt lat="42.79677" lon="-5.60029">
        <ele>1047</ele>
        <time>2023-06-15T13:44:57.000+02:00</time>
      </trkpt>
      <trkpt lat="42.79689" lon="-5.60265">
        <ele>1036.8</ele>
        <time>2023-06-15T13:45:24.000+02:00</time>
      </trkpt>
      <trkpt lat="42.79724" lon="-5.60348">
        <ele>1035.8</ele>
        <time>2023-06-15T13:45:34.000+02:00</time>
      </trkpt>
      <trkpt lat="42.79711" lon="-5.60645">
        <ele>1024.8</ele>
        <time>2023-06-15T13:46:08.000+02:00</time>
      </trkpt>
      <trkpt lat="42.79781" lon="-5.60941">
        <ele>1010.5</ele>
        <time>2023-06-15T13:46:43.000+02:00</time>
      </trkpt>
      <trkpt lat="42.79854" lon="-5.60968">
        <ele>997.1</ele>
        <time>2023-06-15T13:46:54.000+02:00</time>
      </trkpt>
      <trkpt lat="42.79905" lon="-5.61045">
        <ele>985.6</ele>
        <time>2023-06-15T13:47:06.000+02:00</time>
      </trkpt>
      <trkpt lat="42.79958" lon="-5.60927">
        <ele>980.5</ele>
        <time>2023-06-15T13:47:21.000+02:00</time>
      </trkpt>
      <trkpt lat="42.79996" lon="-5.60645">
        <ele>983.3</ele>
        <time>2023-06-15T13:47:53.000+02:00</time>
      </trkpt>
      <trkpt lat="42.80008" lon="-5.6032">
        <ele>987.9</ele>
        <time>2023-06-15T13:48:30.000+02:00</time>
      </trkpt>
      <trkpt lat="42.80205" lon="-5.60372">
        <ele>985</ele>
        <time>2023-06-15T13:49:01.000+02:00</time>
      </trkpt>
      <trkpt lat="42.80175" lon="-5.60552">
        <ele>983.6</ele>
        <time>2023-06-15T13:49:21.000+02:00</time>
      </trkpt>
      <trkpt lat="42.80237" lon="-5.6091">
        <ele>983.7</ele>
        <time>2023-06-15T13:50:03.000+02:00</time>
      </trkpt>
      <trkpt lat="42.80144" lon="-5.61859">
        <ele>978</ele>
        <time>2023-06-15T13:51:50.000+02:00</time>
      </trkpt>
      <trkpt lat="42.80137" lon="-5.61864">
        <ele>977</ele>
        <time>2023-06-15T13:51:51.000+02:00</time>
      </trkpt>
      <trkpt lat="42.80132" lon="-5.61877">
        <ele>976</ele>
        <time>2023-06-15T13:51:53.000+02:00</time>
      </trkpt>
      <trkpt lat="42.80128" lon="-5.61887">
        <ele>975.5</ele>
        <time>2023-06-15T13:51:54.000+02:00</time>
      </trkpt>
      <trkpt lat="42.80123" lon="-5.61908">
        <ele>974.8</ele>
        <time>2023-06-15T13:51:56.000+02:00</time>
      </trkpt>
      <trkpt lat="42.80102" lon="-5.62082">
        <ele>971.5</ele>
        <time>2023-06-15T13:52:16.000+02:00</time>
      </trkpt>
      <trkpt lat="42.80097" lon="-5.62109">
        <ele>970.8</ele>
        <time>2023-06-15T13:52:19.000+02:00</time>
      </trkpt>
      <trkpt lat="42.80089" lon="-5.62138">
        <ele>969.8</ele>
        <time>2023-06-15T13:52:23.000+02:00</time>
      </trkpt>
      <trkpt lat="42.80048" lon="-5.62283">
        <ele>966.8</ele>
        <time>2023-06-15T13:52:40.000+02:00</time>
      </trkpt>
      <trkpt lat="42.80048" lon="-5.62295">
        <ele>966.3</ele>
        <time>2023-06-15T13:52:42.000+02:00</time>
      </trkpt>
      <trkpt lat="42.80046" lon="-5.62364">
        <ele>964.3</ele>
        <time>2023-06-15T13:52:49.000+02:00</time>
      </trkpt>
      <trkpt lat="42.80047" lon="-5.62394">
        <ele>963</ele>
        <time>2023-06-15T13:52:53.000+02:00</time>
      </trkpt>
      <trkpt lat="42.80049" lon="-5.62426">
        <ele>961.8</ele>
        <time>2023-06-15T13:52:56.000+02:00</time>
      </trkpt>
      <trkpt lat="42.80068" lon="-5.62512">
        <ele>958.5</ele>
        <time>2023-06-15T13:53:06.000+02:00</time>
      </trkpt>
      <trkpt lat="42.80072" lon="-5.62544">
        <ele>958.3</ele>
        <time>2023-06-15T13:53:10.000+02:00</time>
      </trkpt>
      <trkpt lat="42.80074" lon="-5.62564">
        <ele>958</ele>
        <time>2023-06-15T13:53:12.000+02:00</time>
      </trkpt>
      <trkpt lat="42.80075" lon="-5.62579">
        <ele>957.8</ele>
        <time>2023-06-15T13:53:14.000+02:00</time>
      </trkpt>
      <trkpt lat="42.80074" lon="-5.62606">
        <ele>957.8</ele>
        <time>2023-06-15T13:53:17.000+02:00</time>
      </trkpt>
      <trkpt lat="42.80071" lon="-5.62622">
        <ele>957.3</ele>
        <time>2023-06-15T13:53:19.000+02:00</time>
      </trkpt>
      <trkpt lat="42.80069" lon="-5.62634">
        <ele>957.3</ele>
        <time>2023-06-15T13:53:20.000+02:00</time>
      </trkpt>
      <trkpt lat="42.80067" lon="-5.62645">
        <ele>957</ele>
        <time>2023-06-15T13:53:21.000+02:00</time>
      </trkpt>
      <trkpt lat="42.80064" lon="-5.62655">
        <ele>957</ele>
        <time>2023-06-15T13:53:23.000+02:00</time>
      </trkpt>
      <trkpt lat="42.8006" lon="-5.62667">
        <ele>957</ele>
        <time>2023-06-15T13:53:24.000+02:00</time>
      </trkpt>
      <trkpt lat="42.80058" lon="-5.62673">
        <ele>957</ele>
        <time>2023-06-15T13:53:25.000+02:00</time>
      </trkpt>
      <trkpt lat="42.80054" lon="-5.62682">
        <ele>957</ele>
        <time>2023-06-15T13:53:26.000+02:00</time>
      </trkpt>
      <trkpt lat="42.80042" lon="-5.62707">
        <ele>957</ele>
        <time>2023-06-15T13:53:29.000+02:00</time>
      </trkpt>
      <trkpt lat="42.80033" lon="-5.62724">
        <ele>957.3</ele>
        <time>2023-06-15T13:53:32.000+02:00</time>
      </trkpt>
      <trkpt lat="42.80016" lon="-5.62746">
        <ele>957</ele>
        <time>2023-06-15T13:53:35.000+02:00</time>
      </trkpt>
      <trkpt lat="42.79995" lon="-5.62761">
        <ele>957</ele>
        <time>2023-06-15T13:53:39.000+02:00</time>
      </trkpt>
      <trkpt lat="42.79989" lon="-5.62765">
        <ele>957</ele>
        <time>2023-06-15T13:53:40.000+02:00</time>
      </trkpt>
      <trkpt lat="42.79957" lon="-5.62776">
        <ele>957</ele>
        <time>2023-06-15T13:53:45.000+02:00</time>
      </trkpt>
      <trkpt lat="42.79928" lon="-5.62778">
        <ele>957</ele>
        <time>2023-06-15T13:53:49.000+02:00</time>
      </trkpt>
      <trkpt lat="42.79911" lon="-5.62784">
        <ele>956.8</ele>
        <time>2023-06-15T13:53:52.000+02:00</time>
      </trkpt>
      <trkpt lat="42.79866" lon="-5.62815">
        <ele>954.8</ele>
        <time>2023-06-15T13:54:00.000+02:00</time>
      </trkpt>
      <trkpt lat="42.79851" lon="-5.62827">
        <ele>953.8</ele>
        <time>2023-06-15T13:54:03.000+02:00</time>
      </trkpt>
      <trkpt lat="42.79845" lon="-5.62838">
        <ele>953.5</ele>
        <time>2023-06-15T13:54:04.000+02:00</time>
      </trkpt>
      <trkpt lat="42.79844" lon="-5.62843">
        <ele>953.3</ele>
        <time>2023-06-15T13:54:05.000+02:00</time>
      </trkpt>
      <trkpt lat="42.79845" lon="-5.62851">
        <ele>953.3</ele>
        <time>2023-06-15T13:54:06.000+02:00</time>
      </trkpt>
      <trkpt lat="42.79848" lon="-5.62857">
        <ele>953.5</ele>
        <time>2023-06-15T13:54:06.000+02:00</time>
      </trkpt>
      <trkpt lat="42.79853" lon="-5.62859">
        <ele>953.5</ele>
        <time>2023-06-15T13:54:07.000+02:00</time>
      </trkpt>
      <trkpt lat="42.79866" lon="-5.62862">
        <ele>954</ele>
        <time>2023-06-15T13:54:09.000+02:00</time>
      </trkpt>
      <trkpt lat="42.79875" lon="-5.62864">
        <ele>954.3</ele>
        <time>2023-06-15T13:54:11.000+02:00</time>
      </trkpt>
      <trkpt lat="42.79904" lon="-5.62871">
        <ele>955.3</ele>
        <time>2023-06-15T13:54:15.000+02:00</time>
      </trkpt>
      <trkpt lat="42.79922" lon="-5.62875">
        <ele>955.5</ele>
        <time>2023-06-15T13:54:18.000+02:00</time>
      </trkpt>
      <trkpt lat="42.79968" lon="-5.62885">
        <ele>956.5</ele>
        <time>2023-06-15T13:54:25.000+02:00</time>
      </trkpt>
      <trkpt lat="42.80011" lon="-5.62895">
        <ele>957</ele>
        <time>2023-06-15T13:54:32.000+02:00</time>
      </trkpt>
      <trkpt lat="42.80025" lon="-5.62899">
        <ele>956.8</ele>
        <time>2023-06-15T13:54:34.000+02:00</time>
      </trkpt>
      <trkpt lat="42.8004" lon="-5.62902">
        <ele>956.5</ele>
        <time>2023-06-15T13:54:36.000+02:00</time>
      </trkpt>
      <trkpt lat="42.80073" lon="-5.6291">
        <ele>956</ele>
        <time>2023-06-15T13:54:41.000+02:00</time>
      </trkpt>
      <trkpt lat="42.8011" lon="-5.62911">
        <ele>956.8</ele>
        <time>2023-06-15T13:54:47.000+02:00</time>
      </trkpt>
      <trkpt lat="42.80158" lon="-5.62903">
        <ele>958.5</ele>
        <time>2023-06-15T13:54:54.000+02:00</time>
      </trkpt>
      <trkpt lat="42.80169" lon="-5.629">
        <ele>958.5</ele>
        <time>2023-06-15T13:54:56.000+02:00</time>
      </trkpt>
      <trkpt lat="42.80179" lon="-5.62898">
        <ele>958.5</ele>
        <time>2023-06-15T13:54:58.000+02:00</time>
      </trkpt>
      <trkpt lat="42.8021" lon="-5.62893">
        <ele>957.8</ele>
        <time>2023-06-15T13:55:02.000+02:00</time>
      </trkpt>
      <trkpt lat="42.80217" lon="-5.62891">
        <ele>957.8</ele>
        <time>2023-06-15T13:55:04.000+02:00</time>
      </trkpt>
      <trkpt lat="42.80241" lon="-5.62887">
        <ele>957.3</ele>
        <time>2023-06-15T13:55:07.000+02:00</time>
      </trkpt>
      <trkpt lat="42.8025" lon="-5.62886">
        <ele>957.3</ele>
        <time>2023-06-15T13:55:09.000+02:00</time>
      </trkpt>
      <trkpt lat="42.80273" lon="-5.62881">
        <ele>956.8</ele>
        <time>2023-06-15T13:55:12.000+02:00</time>
      </trkpt>
      <trkpt lat="42.803" lon="-5.62875">
        <ele>956.3</ele>
        <time>2023-06-15T13:55:16.000+02:00</time>
      </trkpt>
      <trkpt lat="42.8031" lon="-5.62873">
        <ele>956</ele>
        <time>2023-06-15T13:55:18.000+02:00</time>
      </trkpt>
      <trkpt lat="42.80318" lon="-5.62907">
        <ele>955.3</ele>
        <time>2023-06-15T13:55:22.000+02:00</time>
      </trkpt>
      <trkpt lat="42.80323" lon="-5.62921">
        <ele>955</ele>
        <time>2023-06-15T13:55:24.000+02:00</time>
      </trkpt>
      <trkpt lat="42.80324" lon="-5.62923">
        <ele>954.8</ele>
        <time>2023-06-15T13:55:25.000+02:00</time>
      </trkpt>
      <trkpt lat="42.8033" lon="-5.62934">
        <ele>954.8</ele>
        <time>2023-06-15T13:55:26.000+02:00</time>
      </trkpt>
      <trkpt lat="42.80334" lon="-5.62939">
        <ele>954.5</ele>
        <time>2023-06-15T13:55:27.000+02:00</time>
      </trkpt>
      <trkpt lat="42.80338" lon="-5.62944">
        <ele>954.5</ele>
        <time>2023-06-15T13:55:28.000+02:00</time>
      </trkpt>
      <trkpt lat="42.80347" lon="-5.6295">
        <ele>954.5</ele>
        <time>2023-06-15T13:55:30.000+02:00</time>
      </trkpt>
      <trkpt lat="42.80366" lon="-5.62962">
        <ele>954</ele>
        <time>2023-06-15T13:55:33.000+02:00</time>
      </trkpt>
      <trkpt lat="42.80372" lon="-5.62965">
        <ele>954</ele>
        <time>2023-06-15T13:55:34.000+02:00</time>
      </trkpt>
      <trkpt lat="42.80379" lon="-5.62966">
        <ele>954</ele>
        <time>2023-06-15T13:55:35.000+02:00</time>
      </trkpt>
      <trkpt lat="42.80392" lon="-5.62998">
        <ele>953.3</ele>
        <time>2023-06-15T13:55:39.000+02:00</time>
      </trkpt>
      <trkpt lat="42.80401" lon="-5.63015">
        <ele>952.8</ele>
        <time>2023-06-15T13:55:41.000+02:00</time>
      </trkpt>
      <trkpt lat="42.8041" lon="-5.63029">
        <ele>952.3</ele>
        <time>2023-06-15T13:55:43.000+02:00</time>
      </trkpt>
      <trkpt lat="42.80412" lon="-5.63032">
        <ele>952.3</ele>
        <time>2023-06-15T13:55:44.000+02:00</time>
      </trkpt>
      <trkpt lat="42.8048" lon="-5.63111">
        <ele>951</ele>
        <time>2023-06-15T13:55:58.000+02:00</time>
      </trkpt>
      <trkpt lat="42.80521" lon="-5.63156">
        <ele>951.8</ele>
        <time>2023-06-15T13:56:06.000+02:00</time>
      </trkpt>
      <trkpt lat="42.80524" lon="-5.63159">
        <ele>951.8</ele>
        <time>2023-06-15T13:56:06.000+02:00</time>
      </trkpt>
      <trkpt lat="42.80533" lon="-5.6317">
        <ele>951.5</ele>
        <time>2023-06-15T13:56:08.000+02:00</time>
      </trkpt>
      <trkpt lat="42.80545" lon="-5.6318">
        <ele>950.8</ele>
        <time>2023-06-15T13:56:10.000+02:00</time>
      </trkpt>
      <trkpt lat="42.80561" lon="-5.63189">
        <ele>950</ele>
        <time>2023-06-15T13:56:13.000+02:00</time>
      </trkpt>
      <trkpt lat="42.80568" lon="-5.63186">
        <ele>950</ele>
        <time>2023-06-15T13:56:14.000+02:00</time>
      </trkpt>
      <trkpt lat="42.80644" lon="-5.6339">
        <ele>949.2</ele>
        <time>2023-06-15T13:56:40.000+02:00</time>
      </trkpt>
      <trkpt lat="42.80302" lon="-5.63563">
        <ele>947.1</ele>
        <time>2023-06-15T13:57:35.000+02:00</time>
      </trkpt>
      <trkpt lat="42.80145" lon="-5.63686">
        <ele>947.5</ele>
        <time>2023-06-15T13:58:03.000+02:00</time>
      </trkpt>
      <trkpt lat="42.80073" lon="-5.63686">
        <ele>946.9</ele>
        <time>2023-06-15T13:58:14.000+02:00</time>
      </trkpt>
      <trkpt lat="42.80031" lon="-5.63756">
        <ele>946.8</ele>
        <time>2023-06-15T13:58:24.000+02:00</time>
      </trkpt>
      <trkpt lat="42.79984" lon="-5.63747">
        <ele>945.9</ele>
        <time>2023-06-15T13:58:32.000+02:00</time>
      </trkpt>
      <trkpt lat="42.79972" lon="-5.63873">
        <ele>947</ele>
        <time>2023-06-15T13:58:46.000+02:00</time>
      </trkpt>
      <trkpt lat="42.79653" lon="-5.63949">
        <ele>946.6</ele>
        <time>2023-06-15T13:59:35.000+02:00</time>
      </trkpt>
      <trkpt lat="42.79607" lon="-5.64001">
        <ele>947.6</ele>
        <time>2023-06-15T13:59:44.000+02:00</time>
      </trkpt>
      <trkpt lat="42.79604" lon="-5.64036">
        <ele>948.7</ele>
        <time>2023-06-15T13:59:48.000+02:00</time>
      </trkpt>
      <trkpt lat="42.79719" lon="-5.64159">
        <ele>958.6</ele>
        <time>2023-06-15T14:00:11.000+02:00</time>
      </trkpt>
      <trkpt lat="42.79785" lon="-5.6448">
        <ele>978.3</ele>
        <time>2023-06-15T14:00:48.000+02:00</time>
      </trkpt>
      <trkpt lat="42.79852" lon="-5.64574">
        <ele>986.9</ele>
        <time>2023-06-15T14:01:03.000+02:00</time>
      </trkpt>
      <trkpt lat="42.79825" lon="-5.6474">
        <ele>994.1</ele>
        <time>2023-06-15T14:01:22.000+02:00</time>
      </trkpt>
      <trkpt lat="42.79683" lon="-5.64927">
        <ele>979.6</ele>
        <time>2023-06-15T14:01:52.000+02:00</time>
      </trkpt>
      <trkpt lat="42.79617" lon="-5.64972">
        <ele>976.4</ele>
        <time>2023-06-15T14:02:03.000+02:00</time>
      </trkpt>
      <trkpt lat="42.79517" lon="-5.64956">
        <ele>967.1</ele>
        <time>2023-06-15T14:02:19.000+02:00</time>
      </trkpt>
      <trkpt lat="42.79396" lon="-5.6498">
        <ele>969.8</ele>
        <time>2023-06-15T14:02:37.000+02:00</time>
      </trkpt>
      <trkpt lat="42.79335" lon="-5.65158">
        <ele>988</ele>
        <time>2023-06-15T14:03:00.000+02:00</time>
      </trkpt>
      <trkpt lat="42.79213" lon="-5.65289">
        <ele>1009.8</ele>
        <time>2023-06-15T14:03:23.000+02:00</time>
      </trkpt>
      <trkpt lat="42.79215" lon="-5.65325">
        <ele>1013.6</ele>
        <time>2023-06-15T14:03:27.000+02:00</time>
      </trkpt>
      <trkpt lat="42.79112" lon="-5.65471">
        <ele>1030</ele>
        <time>2023-06-15T14:03:50.000+02:00</time>
      </trkpt>
      <trkpt lat="42.78974" lon="-5.6575">
        <ele>1064.5</ele>
        <time>2023-06-15T14:04:28.000+02:00</time>
      </trkpt>
      <trkpt lat="42.78966" lon="-5.65756">
        <ele>1065.8</ele>
        <time>2023-06-15T14:04:29.000+02:00</time>
      </trkpt>
      <trkpt lat="42.78935" lon="-5.65769">
        <ele>1068.8</ele>
        <time>2023-06-15T14:04:34.000+02:00</time>
      </trkpt>
      <trkpt lat="42.78908" lon="-5.65784">
        <ele>1072</ele>
        <time>2023-06-15T14:04:39.000+02:00</time>
      </trkpt>
      <trkpt lat="42.7888" lon="-5.65803">
        <ele>1076.3</ele>
        <time>2023-06-15T14:04:43.000+02:00</time>
      </trkpt>
      <trkpt lat="42.78841" lon="-5.65831">
        <ele>1081.3</ele>
        <time>2023-06-15T14:04:50.000+02:00</time>
      </trkpt>
      <trkpt lat="42.78796" lon="-5.65871">
        <ele>1094</ele>
        <time>2023-06-15T14:04:58.000+02:00</time>
      </trkpt>
      <trkpt lat="42.78785" lon="-5.65885">
        <ele>1097.5</ele>
        <time>2023-06-15T14:05:00.000+02:00</time>
      </trkpt>
      <trkpt lat="42.7878" lon="-5.65887">
        <ele>1098.8</ele>
        <time>2023-06-15T14:05:01.000+02:00</time>
      </trkpt>
      <trkpt lat="42.78776" lon="-5.65886">
        <ele>1099.3</ele>
        <time>2023-06-15T14:05:02.000+02:00</time>
      </trkpt>
      <trkpt lat="42.78772" lon="-5.65881">
        <ele>1099.5</ele>
        <time>2023-06-15T14:05:03.000+02:00</time>
      </trkpt>
      <trkpt lat="42.78763" lon="-5.65765">
        <ele>1096.3</ele>
        <time>2023-06-15T14:05:16.000+02:00</time>
      </trkpt>
      <trkpt lat="42.78761" lon="-5.65733">
        <ele>1096.8</ele>
        <time>2023-06-15T14:05:19.000+02:00</time>
      </trkpt>
      <trkpt lat="42.78759" lon="-5.65699">
        <ele>1097</ele>
        <time>2023-06-15T14:05:23.000+02:00</time>
      </trkpt>
      <trkpt lat="42.78735" lon="-5.65735">
        <ele>1104.1</ele>
        <time>2023-06-15T14:05:29.000+02:00</time>
      </trkpt>
      <trkpt lat="42.78703" lon="-5.65967">
        <ele>1120.7</ele>
        <time>2023-06-15T14:05:55.000+02:00</time>
      </trkpt>
      <trkpt lat="42.78733" lon="-5.66099">
        <ele>1129.8</ele>
        <time>2023-06-15T14:06:11.000+02:00</time>
      </trkpt>
      <trkpt lat="42.7872" lon="-5.66358">
        <ele>1136.5</ele>
        <time>2023-06-15T14:06:40.000+02:00</time>
      </trkpt>
      <trkpt lat="42.78671" lon="-5.6647">
        <ele>1141.7</ele>
        <time>2023-06-15T14:06:54.000+02:00</time>
      </trkpt>
      <trkpt lat="42.78585" lon="-5.66577">
        <ele>1144.8</ele>
        <time>2023-06-15T14:07:12.000+02:00</time>
      </trkpt>
      <trkpt lat="42.78561" lon="-5.66822">
        <ele>1152.4</ele>
        <time>2023-06-15T14:07:40.000+02:00</time>
      </trkpt>
      <trkpt lat="42.78645" lon="-5.66979">
        <ele>1160.2</ele>
        <time>2023-06-15T14:08:02.000+02:00</time>
      </trkpt>
      <trkpt lat="42.78641" lon="-5.67435">
        <ele>1168.1</ele>
        <time>2023-06-15T14:08:53.000+02:00</time>
      </trkpt>
      <trkpt lat="42.78666" lon="-5.67513">
        <ele>1167.1</ele>
        <time>2023-06-15T14:09:02.000+02:00</time>
      </trkpt>
      <trkpt lat="42.78589" lon="-5.67773">
        <ele>1167.9</ele>
        <time>2023-06-15T14:09:34.000+02:00</time>
      </trkpt>
      <trkpt lat="42.78612" lon="-5.68152">
        <ele>1170.1</ele>
        <time>2023-06-15T14:10:16.000+02:00</time>
      </trkpt>
      <trkpt lat="42.78573" lon="-5.68815">
        <ele>1206.7</ele>
        <time>2023-06-15T14:11:31.000+02:00</time>
      </trkpt>
      <trkpt lat="42.78615" lon="-5.69113">
        <ele>1209.2</ele>
        <time>2023-06-15T14:12:05.000+02:00</time>
      </trkpt>
      <trkpt lat="42.78659" lon="-5.69219">
        <ele>1205.5</ele>
        <time>2023-06-15T14:12:19.000+02:00</time>
      </trkpt>
      <trkpt lat="42.7868" lon="-5.69441">
        <ele>1198.9</ele>
        <time>2023-06-15T14:12:44.000+02:00</time>
      </trkpt>
      <trkpt lat="42.78857" lon="-5.69626">
        <ele>1213.3</ele>
        <time>2023-06-15T14:13:18.000+02:00</time>
      </trkpt>
      <trkpt lat="42.78854" lon="-5.69682">
        <ele>1217</ele>
        <time>2023-06-15T14:13:24.000+02:00</time>
      </trkpt>
      <trkpt lat="42.78794" lon="-5.69716">
        <ele>1218</ele>
        <time>2023-06-15T14:13:34.000+02:00</time>
      </trkpt>
      <trkpt lat="42.78808" lon="-5.69862">
        <ele>1221.8</ele>
        <time>2023-06-15T14:13:50.000+02:00</time>
      </trkpt>
      <trkpt lat="42.78752" lon="-5.69873">
        <ele>1220.9</ele>
        <time>2023-06-15T14:13:59.000+02:00</time>
      </trkpt>
      <trkpt lat="42.78729" lon="-5.69926">
        <ele>1223</ele>
        <time>2023-06-15T14:14:06.000+02:00</time>
      </trkpt>
      <trkpt lat="42.78755" lon="-5.701">
        <ele>1227.6</ele>
        <time>2023-06-15T14:14:26.000+02:00</time>
      </trkpt>
      <trkpt lat="42.78843" lon="-5.70235">
        <ele>1233.5</ele>
        <time>2023-06-15T14:14:46.000+02:00</time>
      </trkpt>
      <trkpt lat="42.7885" lon="-5.70346">
        <ele>1235.6</ele>
        <time>2023-06-15T14:14:59.000+02:00</time>
      </trkpt>
      <trkpt lat="42.78917" lon="-5.70474">
        <ele>1238</ele>
        <time>2023-06-15T14:15:16.000+02:00</time>
      </trkpt>
      <trkpt lat="42.78923" lon="-5.70551">
        <ele>1238</ele>
        <time>2023-06-15T14:15:25.000+02:00</time>
      </trkpt>
      <trkpt lat="42.78775" lon="-5.70443">
        <ele>1230.6</ele>
        <time>2023-06-15T14:15:50.000+02:00</time>
      </trkpt>
      <trkpt lat="42.78721" lon="-5.7046">
        <ele>1228.2</ele>
        <time>2023-06-15T14:15:59.000+02:00</time>
      </trkpt>
      <trkpt lat="42.78705" lon="-5.70371">
        <ele>1226.8</ele>
        <time>2023-06-15T14:16:09.000+02:00</time>
      </trkpt>
      <trkpt lat="42.7867" lon="-5.70336">
        <ele>1225.7</ele>
        <time>2023-06-15T14:16:16.000+02:00</time>
      </trkpt>
      <trkpt lat="42.78581" lon="-5.70368">
        <ele>1227.2</ele>
        <time>2023-06-15T14:16:30.000+02:00</time>
      </trkpt>
      <trkpt lat="42.78559" lon="-5.70261">
        <ele>1223.3</ele>
        <time>2023-06-15T14:16:42.000+02:00</time>
      </trkpt>
      <trkpt lat="42.78472" lon="-5.70211">
        <ele>1227.1</ele>
        <time>2023-06-15T14:16:57.000+02:00</time>
      </trkpt>
      <trkpt lat="42.78423" lon="-5.70088">
        <ele>1224.2</ele>
        <time>2023-06-15T14:17:13.000+02:00</time>
      </trkpt>
      <trkpt lat="42.7835" lon="-5.69989">
        <ele>1221.2</ele>
        <time>2023-06-15T14:17:28.000+02:00</time>
      </trkpt>
      <trkpt lat="42.78322" lon="-5.70033">
        <ele>1223</ele>
        <time>2023-06-15T14:17:35.000+02:00</time>
      </trkpt>
      <trkpt lat="42.78315" lon="-5.70229">
        <ele>1231.7</ele>
        <time>2023-06-15T14:17:57.000+02:00</time>
      </trkpt>
      <trkpt lat="42.78212" lon="-5.70171">
        <ele>1230.2</ele>
        <time>2023-06-15T14:18:14.000+02:00</time>
      </trkpt>
      <trkpt lat="42.78109" lon="-5.6998">
        <ele>1224.2</ele>
        <time>2023-06-15T14:18:41.000+02:00</time>
      </trkpt>
      <trkpt lat="42.78074" lon="-5.69744">
        <ele>1216</ele>
        <time>2023-06-15T14:19:07.000+02:00</time>
      </trkpt>
      <trkpt lat="42.77989" lon="-5.69676">
        <ele>1213.2</ele>
        <time>2023-06-15T14:19:23.000+02:00</time>
      </trkpt>
      <trkpt lat="42.77965" lon="-5.69708">
        <ele>1213.6</ele>
        <time>2023-06-15T14:19:28.000+02:00</time>
      </trkpt>
      <trkpt lat="42.77965" lon="-5.69893">
        <ele>1217.3</ele>
        <time>2023-06-15T14:19:49.000+02:00</time>
      </trkpt>
      <trkpt lat="42.7813" lon="-5.70381">
        <ele>1225.8</ele>
        <time>2023-06-15T14:20:49.000+02:00</time>
      </trkpt>
      <trkpt lat="42.77932" lon="-5.70224">
        <ele>1222.4</ele>
        <time>2023-06-15T14:21:24.000+02:00</time>
      </trkpt>
      <trkpt lat="42.77831" lon="-5.70106">
        <ele>1222.5</ele>
        <time>2023-06-15T14:21:44.000+02:00</time>
      </trkpt>
      <trkpt lat="42.77783" lon="-5.70126">
        <ele>1223.8</ele>
        <time>2023-06-15T14:21:52.000+02:00</time>
      </trkpt>
      <trkpt lat="42.77776" lon="-5.70178">
        <ele>1225.1</ele>
        <time>2023-06-15T14:21:58.000+02:00</time>
      </trkpt>
      <trkpt lat="42.77934" lon="-5.70448">
        <ele>1239.7</ele>
        <time>2023-06-15T14:22:36.000+02:00</time>
      </trkpt>
      <trkpt lat="42.77931" lon="-5.70599">
        <ele>1244.1</ele>
        <time>2023-06-15T14:22:53.000+02:00</time>
      </trkpt>
      <trkpt lat="42.78077" lon="-5.70822">
        <ele>1254.9</ele>
        <time>2023-06-15T14:23:27.000+02:00</time>
      </trkpt>
      <trkpt lat="42.77961" lon="-5.70847">
        <ele>1252.3</ele>
        <time>2023-06-15T14:23:45.000+02:00</time>
      </trkpt>
      <trkpt lat="42.77824" lon="-5.70778">
        <ele>1245.6</ele>
        <time>2023-06-15T14:24:07.000+02:00</time>
      </trkpt>
      <trkpt lat="42.777" lon="-5.70868">
        <ele>1244.4</ele>
        <time>2023-06-15T14:24:28.000+02:00</time>
      </trkpt>
      <trkpt lat="42.77789" lon="-5.71003">
        <ele>1243.8</ele>
        <time>2023-06-15T14:24:49.000+02:00</time>
      </trkpt>
      <trkpt lat="42.77925" lon="-5.71125">
        <ele>1242.8</ele>
        <time>2023-06-15T14:25:14.000+02:00</time>
      </trkpt>
      <trkpt lat="42.77994" lon="-5.71146">
        <ele>1245.2</ele>
        <time>2023-06-15T14:25:24.000+02:00</time>
      </trkpt>
      <trkpt lat="42.77997" lon="-5.71174">
        <ele>1244.8</ele>
        <time>2023-06-15T14:25:28.000+02:00</time>
      </trkpt>
      <trkpt lat="42.77781" lon="-5.71325">
        <ele>1256.9</ele>
        <time>2023-06-15T14:26:05.000+02:00</time>
      </trkpt>
      <trkpt lat="42.77695" lon="-5.71293">
        <ele>1258.7</ele>
        <time>2023-06-15T14:26:18.000+02:00</time>
      </trkpt>
      <trkpt lat="42.77651" lon="-5.71339">
        <ele>1262.9</ele>
        <time>2023-06-15T14:26:27.000+02:00</time>
      </trkpt>
      <trkpt lat="42.77459" lon="-5.71229">
        <ele>1259.8</ele>
        <time>2023-06-15T14:26:59.000+02:00</time>
      </trkpt>
      <trkpt lat="42.77342" lon="-5.71246">
        <ele>1261.1</ele>
        <time>2023-06-15T14:27:16.000+02:00</time>
      </trkpt>
      <trkpt lat="42.77257" lon="-5.71183">
        <ele>1259.7</ele>
        <time>2023-06-15T14:27:31.000+02:00</time>
      </trkpt>
      <trkpt lat="42.77206" lon="-5.71233">
        <ele>1259.2</ele>
        <time>2023-06-15T14:27:41.000+02:00</time>
      </trkpt>
      <trkpt lat="42.7721" lon="-5.713">
        <ele>1260.1</ele>
        <time>2023-06-15T14:27:49.000+02:00</time>
      </trkpt>
      <trkpt lat="42.7739" lon="-5.71526">
        <ele>1265.3</ele>
        <time>2023-06-15T14:28:26.000+02:00</time>
      </trkpt>
      <trkpt lat="42.77513" lon="-5.71635">
        <ele>1266.2</ele>
        <time>2023-06-15T14:28:48.000+02:00</time>
      </trkpt>
      <trkpt lat="42.7751" lon="-5.71663">
        <ele>1266.9</ele>
        <time>2023-06-15T14:28:51.000+02:00</time>
      </trkpt>
      <trkpt lat="42.77461" lon="-5.71685">
        <ele>1266.6</ele>
        <time>2023-06-15T14:28:59.000+02:00</time>
      </trkpt>
      <trkpt lat="42.77088" lon="-5.71514">
        <ele>1256.3</ele>
        <time>2023-06-15T14:30:00.000+02:00</time>
      </trkpt>
      <trkpt lat="42.76922" lon="-5.71608">
        <ele>1256.1</ele>
        <time>2023-06-15T14:30:27.000+02:00</time>
      </trkpt>
      <trkpt lat="42.76873" lon="-5.71686">
        <ele>1256.4</ele>
        <time>2023-06-15T14:30:39.000+02:00</time>
      </trkpt>
      <trkpt lat="42.76899" lon="-5.71782">
        <ele>1257.6</ele>
        <time>2023-06-15T14:30:50.000+02:00</time>
      </trkpt>
      <trkpt lat="42.76968" lon="-5.71856">
        <ele>1260.2</ele>
        <time>2023-06-15T14:31:03.000+02:00</time>
      </trkpt>
      <trkpt lat="42.7739" lon="-5.72013">
        <ele>1267.7</ele>
        <time>2023-06-15T14:32:10.000+02:00</time>
      </trkpt>
      <trkpt lat="42.77379" lon="-5.72045">
        <ele>1267.5</ele>
        <time>2023-06-15T14:32:14.000+02:00</time>
      </trkpt>
      <trkpt lat="42.77272" lon="-5.721">
        <ele>1265.8</ele>
        <time>2023-06-15T14:32:32.000+02:00</time>
      </trkpt>
      <trkpt lat="42.77266" lon="-5.72195">
        <ele>1266.8</ele>
        <time>2023-06-15T14:32:43.000+02:00</time>
      </trkpt>
      <trkpt lat="42.77088" lon="-5.72099">
        <ele>1261.3</ele>
        <time>2023-06-15T14:33:12.000+02:00</time>
      </trkpt>
      <trkpt lat="42.76981" lon="-5.72195">
        <ele>1261.4</ele>
        <time>2023-06-15T14:33:32.000+02:00</time>
      </trkpt>
      <trkpt lat="42.76774" lon="-5.72088">
        <ele>1258.4</ele>
        <time>2023-06-15T14:34:05.000+02:00</time>
      </trkpt>
      <trkpt lat="42.766" lon="-5.71956">
        <ele>1257</ele>
        <time>2023-06-15T14:34:36.000+02:00</time>
      </trkpt>
      <trkpt lat="42.76513" lon="-5.71963">
        <ele>1255.9</ele>
        <time>2023-06-15T14:34:49.000+02:00</time>
      </trkpt>
      <trkpt lat="42.76396" lon="-5.71876">
        <ele>1251.2</ele>
        <time>2023-06-15T14:35:10.000+02:00</time>
      </trkpt>
      <trkpt lat="42.76281" lon="-5.71864">
        <ele>1244.4</ele>
        <time>2023-06-15T14:35:27.000+02:00</time>
      </trkpt>
      <trkpt lat="42.75977" lon="-5.71639">
        <ele>1239.2</ele>
        <time>2023-06-15T14:36:20.000+02:00</time>
      </trkpt>
      <trkpt lat="42.75926" lon="-5.71628">
        <ele>1235</ele>
        <time>2023-06-15T14:36:28.000+02:00</time>
      </trkpt>
      <trkpt lat="42.7584" lon="-5.7166">
        <ele>1230.4</ele>
        <time>2023-06-15T14:36:42.000+02:00</time>
      </trkpt>
      <trkpt lat="42.75702" lon="-5.71763">
        <ele>1223</ele>
        <time>2023-06-15T14:37:06.000+02:00</time>
      </trkpt>
      <trkpt lat="42.75445" lon="-5.71752">
        <ele>1208.1</ele>
        <time>2023-06-15T14:37:45.000+02:00</time>
      </trkpt>
      <trkpt lat="42.74951" lon="-5.72047">
        <ele>1178.8</ele>
        <time>2023-06-15T14:39:07.000+02:00</time>
      </trkpt>
      <trkpt lat="42.74654" lon="-5.72012">
        <ele>1165.5</ele>
        <time>2023-06-15T14:39:53.000+02:00</time>
      </trkpt>
      <trkpt lat="42.74641" lon="-5.72053">
        <ele>1165</ele>
        <time>2023-06-15T14:39:58.000+02:00</time>
      </trkpt>
      <trkpt lat="42.7407" lon="-5.72185">
        <ele>1146.7</ele>
        <time>2023-06-15T14:41:26.000+02:00</time>
      </trkpt>
      <trkpt lat="42.73477" lon="-5.72516">
        <ele>1134.6</ele>
        <time>2023-06-15T14:43:04.000+02:00</time>
      </trkpt>
      <trkpt lat="42.73437" lon="-5.72496">
        <ele>1134</ele>
        <time>2023-06-15T14:43:11.000+02:00</time>
      </trkpt>
      <trkpt lat="42.73345" lon="-5.72535">
        <ele>1131.7</ele>
        <time>2023-06-15T14:43:25.000+02:00</time>
      </trkpt>
      <trkpt lat="42.73303" lon="-5.72592">
        <ele>1131</ele>
        <time>2023-06-15T14:43:35.000+02:00</time>
      </trkpt>
      <trkpt lat="42.73271" lon="-5.72572">
        <ele>1131</ele>
        <time>2023-06-15T14:43:40.000+02:00</time>
      </trkpt>
      <trkpt lat="42.73275" lon="-5.72665">
        <ele>1128</ele>
        <time>2023-06-15T14:43:50.000+02:00</time>
      </trkpt>
      <trkpt lat="42.73325" lon="-5.72786">
        <ele>1130.2</ele>
        <time>2023-06-15T14:44:06.000+02:00</time>
      </trkpt>
      <trkpt lat="42.73196" lon="-5.73128">
        <ele>1129.6</ele>
        <time>2023-06-15T14:44:49.000+02:00</time>
      </trkpt>
      <trkpt lat="42.73126" lon="-5.73492">
        <ele>1130.2</ele>
        <time>2023-06-15T14:45:31.000+02:00</time>
      </trkpt>
      <trkpt lat="42.72855" lon="-5.74009">
        <ele>1138</ele>
        <time>2023-06-15T14:46:43.000+02:00</time>
      </trkpt>
      <trkpt lat="42.7263" lon="-5.74594">
        <ele>1137</ele>
        <time>2023-06-15T14:47:57.000+02:00</time>
      </trkpt>
      <trkpt lat="42.72213" lon="-5.75532">
        <ele>1132.6</ele>
        <time>2023-06-15T14:50:00.000+02:00</time>
      </trkpt>
      <trkpt lat="42.72195" lon="-5.75725">
        <ele>1129.9</ele>
        <time>2023-06-15T14:50:22.000+02:00</time>
      </trkpt>
      <trkpt lat="42.72129" lon="-5.75913">
        <ele>1127</ele>
        <time>2023-06-15T14:50:45.000+02:00</time>
      </trkpt>
      <trkpt lat="42.72126" lon="-5.76024">
        <ele>1126.5</ele>
        <time>2023-06-15T14:50:57.000+02:00</time>
      </trkpt>
      <trkpt lat="42.72051" lon="-5.76329">
        <ele>1124</ele>
        <time>2023-06-15T14:51:34.000+02:00</time>
      </trkpt>
      <trkpt lat="42.7196" lon="-5.76455">
        <ele>1121.4</ele>
        <time>2023-06-15T14:51:53.000+02:00</time>
      </trkpt>
      <trkpt lat="42.71918" lon="-5.77055">
        <ele>1117</ele>
        <time>2023-06-15T14:53:01.000+02:00</time>
      </trkpt>
      <trkpt lat="42.71987" lon="-5.77647">
        <ele>1115</ele>
        <time>2023-06-15T14:54:08.000+02:00</time>
      </trkpt>
      <trkpt lat="42.72126" lon="-5.78046">
        <ele>1096.1</ele>
        <time>2023-06-15T14:54:58.000+02:00</time>
      </trkpt>
      <trkpt lat="42.72169" lon="-5.78236">
        <ele>1081.6</ele>
        <time>2023-06-15T14:55:20.000+02:00</time>
      </trkpt>
      <trkpt lat="42.72172" lon="-5.78666">
        <ele>1044.3</ele>
        <time>2023-06-15T14:56:09.000+02:00</time>
      </trkpt>
      <trkpt lat="42.72261" lon="-5.78882">
        <ele>1019.7</ele>
        <time>2023-06-15T14:56:36.000+02:00</time>
      </trkpt>
      <trkpt lat="42.72439" lon="-5.78893">
        <ele>997.3</ele>
        <time>2023-06-15T14:57:13.000+02:00</time>
      </trkpt>
      <trkpt lat="42.72461" lon="-5.78875">
        <ele>996</ele>
        <time>2023-06-15T14:57:18.000+02:00</time>
      </trkpt>
      <trkpt lat="42.72495" lon="-5.78844">
        <ele>993.5</ele>
        <time>2023-06-15T14:57:27.000+02:00</time>
      </trkpt>
      <trkpt lat="42.72516" lon="-5.78828">
        <ele>992.3</ele>
        <time>2023-06-15T14:57:32.000+02:00</time>
      </trkpt>
      <trkpt lat="42.72541" lon="-5.7881">
        <ele>990.3</ele>
        <time>2023-06-15T14:57:38.000+02:00</time>
      </trkpt>
      <trkpt lat="42.72566" lon="-5.78789">
        <ele>987.3</ele>
        <time>2023-06-15T14:57:44.000+02:00</time>
      </trkpt>
      <trkpt lat="42.72573" lon="-5.78781">
        <ele>986</ele>
        <time>2023-06-15T14:57:46.000+02:00</time>
      </trkpt>
      <trkpt lat="42.72578" lon="-5.78775">
        <ele>985.3</ele>
        <time>2023-06-15T14:57:47.000+02:00</time>
      </trkpt>
      <trkpt lat="42.7258" lon="-5.78769">
        <ele>985</ele>
        <time>2023-06-15T14:57:48.000+02:00</time>
      </trkpt>
      <trkpt lat="42.72581" lon="-5.78758">
        <ele>985.3</ele>
        <time>2023-06-15T14:57:50.000+02:00</time>
      </trkpt>
      <trkpt lat="42.72578" lon="-5.78739">
        <ele>985.5</ele>
        <time>2023-06-15T14:57:53.000+02:00</time>
      </trkpt>
      <trkpt lat="42.72573" lon="-5.78706">
        <ele>985.5</ele>
        <time>2023-06-15T14:57:58.000+02:00</time>
      </trkpt>
      <trkpt lat="42.72568" lon="-5.78683">
        <ele>986</ele>
        <time>2023-06-15T14:58:02.000+02:00</time>
      </trkpt>
      <trkpt lat="42.7257" lon="-5.78676">
        <ele>984.8</ele>
        <time>2023-06-15T14:58:03.000+02:00</time>
      </trkpt>
      <trkpt lat="42.72572" lon="-5.78673">
        <ele>984</ele>
        <time>2023-06-15T14:58:04.000+02:00</time>
      </trkpt>
      <trkpt lat="42.72584" lon="-5.78704">
        <ele>982</ele>
        <time>2023-06-15T14:58:09.000+02:00</time>
      </trkpt>
      <trkpt lat="42.72675" lon="-5.78889">
        <ele>970</ele>
        <time>2023-06-15T14:58:43.000+02:00</time>
      </trkpt>
      <trkpt lat="42.72729" lon="-5.78997">
        <ele>962</ele>
        <time>2023-06-15T14:59:03.000+02:00</time>
      </trkpt>
      <trkpt lat="42.72731" lon="-5.79002">
        <ele>961.5</ele>
        <time>2023-06-15T14:59:04.000+02:00</time>
      </trkpt>
      <trkpt lat="42.72748" lon="-5.79015">
        <ele>959</ele>
        <time>2023-06-15T14:59:08.000+02:00</time>
      </trkpt>
      <trkpt lat="42.7275" lon="-5.79017">
        <ele>958.8</ele>
        <time>2023-06-15T14:59:08.000+02:00</time>
      </trkpt>
      <trkpt lat="42.72764" lon="-5.79026">
        <ele>958.3</ele>
        <time>2023-06-15T14:59:12.000+02:00</time>
      </trkpt>
      <trkpt lat="42.72782" lon="-5.7904">
        <ele>957.8</ele>
        <time>2023-06-15T14:59:16.000+02:00</time>
      </trkpt>
      <trkpt lat="42.72797" lon="-5.79068">
        <ele>956.5</ele>
        <time>2023-06-15T14:59:21.000+02:00</time>
      </trkpt>
      <trkpt lat="42.72829" lon="-5.79175">
        <ele>953.8</ele>
        <time>2023-06-15T14:59:39.000+02:00</time>
      </trkpt>
      <trkpt lat="42.7284" lon="-5.7921">
        <ele>952.8</ele>
        <time>2023-06-15T14:59:45.000+02:00</time>
      </trkpt>
      <trkpt lat="42.72844" lon="-5.79207">
        <ele>952.5</ele>
        <time>2023-06-15T14:59:46.000+02:00</time>
      </trkpt>
      <trkpt lat="42.7284" lon="-5.7921">
        <ele>952.8</ele>
        <time>2023-06-15T14:59:47.000+02:00</time>
      </trkpt>
      <trkpt lat="42.72821" lon="-5.79227">
        <ele>952.3</ele>
        <time>2023-06-15T14:59:54.000+02:00</time>
      </trkpt>
      <trkpt lat="42.72804" lon="-5.79241">
        <ele>951.5</ele>
        <time>2023-06-15T15:00:00.000+02:00</time>
      </trkpt>
      <trkpt lat="42.72789" lon="-5.79253">
        <ele>950.5</ele>
        <time>2023-06-15T15:00:06.000+02:00</time>
      </trkpt>
      <trkpt lat="42.72774" lon="-5.79263">
        <ele>949.5</ele>
        <time>2023-06-15T15:00:11.000+02:00</time>
      </trkpt>
      <trkpt lat="42.72734" lon="-5.79286">
        <ele>946.3</ele>
        <time>2023-06-15T15:00:24.000+02:00</time>
      </trkpt>
      <trkpt lat="42.72554" lon="-5.79371">
        <ele>945.3</ele>
        <time>2023-06-15T15:01:23.000+02:00</time>
      </trkpt>
      <trkpt lat="42.7222" lon="-5.79452">
        <ele>949</ele>
        <time>2023-06-15T15:03:07.000+02:00</time>
      </trkpt>
      <trkpt lat="42.722" lon="-5.79461">
        <ele>950.3</ele>
        <time>2023-06-15T15:03:13.000+02:00</time>
      </trkpt>
      <trkpt lat="42.72181" lon="-5.79478">
        <ele>949.8</ele>
        <time>2023-06-15T15:03:20.000+02:00</time>
      </trkpt>
      <trkpt lat="42.721" lon="-5.79589">
        <ele>947.3</ele>
        <time>2023-06-15T15:03:56.000+02:00</time>
      </trkpt>
      <trkpt lat="42.7184" lon="-5.79812">
        <ele>943</ele>
        <time>2023-06-15T15:05:30.000+02:00</time>
      </trkpt>
      <trkpt lat="42.71492" lon="-5.80309">
        <ele>941.3</ele>
        <time>2023-06-15T15:08:05.000+02:00</time>
      </trkpt>
      <trkpt lat="42.71267" lon="-5.80628">
        <ele>939.3</ele>
        <time>2023-06-15T15:09:45.000+02:00</time>
      </trkpt>
      <trkpt lat="42.71063" lon="-5.807">
        <ele>932</ele>
        <time>2023-06-15T15:10:17.000+02:00</time>
      </trkpt>
      <trkpt lat="42.71078" lon="-5.8078">
        <ele>932</ele>
        <time>2023-06-15T15:10:26.000+02:00</time>
      </trkpt>
      <trkpt lat="42.71171" lon="-5.8095">
        <ele>931.9</ele>
        <time>2023-06-15T15:10:50.000+02:00</time>
      </trkpt>
      <trkpt lat="42.71201" lon="-5.81122">
        <ele>931.7</ele>
        <time>2023-06-15T15:11:10.000+02:00</time>
      </trkpt>
      <trkpt lat="42.71382" lon="-5.81328">
        <ele>932</ele>
        <time>2023-06-15T15:11:46.000+02:00</time>
      </trkpt>
      <trkpt lat="42.71418" lon="-5.8144">
        <ele>932</ele>
        <time>2023-06-15T15:12:00.000+02:00</time>
      </trkpt>
      <trkpt lat="42.71518" lon="-5.81598">
        <ele>930.8</ele>
        <time>2023-06-15T15:12:23.000+02:00</time>
      </trkpt>
      <trkpt lat="42.71602" lon="-5.816">
        <ele>931</ele>
        <time>2023-06-15T15:12:36.000+02:00</time>
      </trkpt>
      <trkpt lat="42.71668" lon="-5.81691">
        <ele>931.9</ele>
        <time>2023-06-15T15:12:50.000+02:00</time>
      </trkpt>
      <trkpt lat="42.71684" lon="-5.8195">
        <ele>933.4</ele>
        <time>2023-06-15T15:13:19.000+02:00</time>
      </trkpt>
      <trkpt lat="42.71663" lon="-5.81988">
        <ele>936.5</ele>
        <time>2023-06-15T15:13:25.000+02:00</time>
      </trkpt>
      <trkpt lat="42.71684" lon="-5.81998">
        <ele>939</ele>
        <time>2023-06-15T15:13:28.000+02:00</time>
      </trkpt>
      <trkpt lat="42.7167" lon="-5.82045">
        <ele>942.5</ele>
        <time>2023-06-15T15:13:34.000+02:00</time>
      </trkpt>
      <trkpt lat="42.71703" lon="-5.82166">
        <ele>958.1</ele>
        <time>2023-06-15T15:13:48.000+02:00</time>
      </trkpt>
      <trkpt lat="42.7176" lon="-5.8226">
        <ele>970</ele>
        <time>2023-06-15T15:14:02.000+02:00</time>
      </trkpt>
      <trkpt lat="42.71779" lon="-5.82486">
        <ele>981.5</ele>
        <time>2023-06-15T15:14:28.000+02:00</time>
      </trkpt>
      <trkpt lat="42.71844" lon="-5.82747">
        <ele>995</ele>
        <time>2023-06-15T15:14:59.000+02:00</time>
      </trkpt>
      <trkpt lat="42.71848" lon="-5.82823">
        <ele>997.9</ele>
        <time>2023-06-15T15:15:07.000+02:00</time>
      </trkpt>
      <trkpt lat="42.71821" lon="-5.82888">
        <ele>1000.1</ele>
        <time>2023-06-15T15:15:16.000+02:00</time>
      </trkpt>
      <trkpt lat="42.71866" lon="-5.83003">
        <ele>1006.4</ele>
        <time>2023-06-15T15:15:30.000+02:00</time>
      </trkpt>
      <trkpt lat="42.71863" lon="-5.83279">
        <ele>1013.8</ele>
        <time>2023-06-15T15:16:01.000+02:00</time>
      </trkpt>
      <trkpt lat="42.71769" lon="-5.83644">
        <ele>1036.3</ele>
        <time>2023-06-15T15:16:45.000+02:00</time>
      </trkpt>
      <trkpt lat="42.71769" lon="-5.83891">
        <ele>1047.4</ele>
        <time>2023-06-15T15:17:12.000+02:00</time>
      </trkpt>
      <trkpt lat="42.71712" lon="-5.84144">
        <ele>1056.1</ele>
        <time>2023-06-15T15:17:42.000+02:00</time>
      </trkpt>
      <trkpt lat="42.71739" lon="-5.84449">
        <ele>1060</ele>
        <time>2023-06-15T15:18:17.000+02:00</time>
      </trkpt>
      <trkpt lat="42.71782" lon="-5.84592">
        <ele>1060.4</ele>
        <time>2023-06-15T15:18:34.000+02:00</time>
      </trkpt>
      <trkpt lat="42.71743" lon="-5.85342">
        <ele>1047.5</ele>
        <time>2023-06-15T15:19:58.000+02:00</time>
      </trkpt>
      <trkpt lat="42.71821" lon="-5.85448">
        <ele>1031.2</ele>
        <time>2023-06-15T15:20:15.000+02:00</time>
      </trkpt>
      <trkpt lat="42.7197" lon="-5.85188">
        <ele>1007.9</ele>
        <time>2023-06-15T15:20:52.000+02:00</time>
      </trkpt>
      <trkpt lat="42.72063" lon="-5.85179">
        <ele>1007.3</ele>
        <time>2023-06-15T15:21:06.000+02:00</time>
      </trkpt>
      <trkpt lat="42.72179" lon="-5.85205">
        <ele>1004.5</ele>
        <time>2023-06-15T15:21:24.000+02:00</time>
      </trkpt>
      <trkpt lat="42.72295" lon="-5.85296">
        <ele>1007.8</ele>
        <time>2023-06-15T15:21:45.000+02:00</time>
      </trkpt>
      <trkpt lat="42.72366" lon="-5.85393">
        <ele>1010.3</ele>
        <time>2023-06-15T15:22:00.000+02:00</time>
      </trkpt>
      <trkpt lat="42.72441" lon="-5.85367">
        <ele>1015.9</ele>
        <time>2023-06-15T15:22:12.000+02:00</time>
      </trkpt>
      <trkpt lat="42.72436" lon="-5.85633">
        <ele>1028.2</ele>
        <time>2023-06-15T15:22:42.000+02:00</time>
      </trkpt>
      <trkpt lat="42.72379" lon="-5.85934">
        <ele>1041.5</ele>
        <time>2023-06-15T15:23:17.000+02:00</time>
      </trkpt>
      <trkpt lat="42.72396" lon="-5.86326">
        <ele>1061.7</ele>
        <time>2023-06-15T15:24:01.000+02:00</time>
      </trkpt>
      <trkpt lat="42.72317" lon="-5.86893">
        <ele>1090.8</ele>
        <time>2023-06-15T15:25:06.000+02:00</time>
      </trkpt>
      <trkpt lat="42.72311" lon="-5.87159">
        <ele>1100.9</ele>
        <time>2023-06-15T15:25:35.000+02:00</time>
      </trkpt>
      <trkpt lat="42.72322" lon="-5.87236">
        <ele>1104.1</ele>
        <time>2023-06-15T15:25:44.000+02:00</time>
      </trkpt>
      <trkpt lat="42.72392" lon="-5.87379">
        <ele>1108.9</ele>
        <time>2023-06-15T15:26:03.000+02:00</time>
      </trkpt>
      <trkpt lat="42.72381" lon="-5.87556">
        <ele>1109.1</ele>
        <time>2023-06-15T15:26:23.000+02:00</time>
      </trkpt>
      <trkpt lat="42.72425" lon="-5.87888">
        <ele>1106.4</ele>
        <time>2023-06-15T15:27:01.000+02:00</time>
      </trkpt>
      <trkpt lat="42.72386" lon="-5.8813">
        <ele>1108.3</ele>
        <time>2023-06-15T15:27:29.000+02:00</time>
      </trkpt>
      <trkpt lat="42.7247" lon="-5.88485">
        <ele>1105.2</ele>
        <time>2023-06-15T15:28:11.000+02:00</time>
      </trkpt>
      <trkpt lat="42.72559" lon="-5.88618">
        <ele>1099.8</ele>
        <time>2023-06-15T15:28:31.000+02:00</time>
      </trkpt>
      <trkpt lat="42.72552" lon="-5.88688">
        <ele>1103.9</ele>
        <time>2023-06-15T15:28:39.000+02:00</time>
      </trkpt>
      <trkpt lat="42.72421" lon="-5.88655">
        <ele>1090.3</ele>
        <time>2023-06-15T15:28:59.000+02:00</time>
      </trkpt>
      <trkpt lat="42.72374" lon="-5.88675">
        <ele>1087.6</ele>
        <time>2023-06-15T15:29:07.000+02:00</time>
      </trkpt>
      <trkpt lat="42.72261" lon="-5.88572">
        <ele>1082.9</ele>
        <time>2023-06-15T15:29:28.000+02:00</time>
      </trkpt>
      <trkpt lat="42.72139" lon="-5.8852">
        <ele>1077.2</ele>
        <time>2023-06-15T15:29:47.000+02:00</time>
      </trkpt>
      <trkpt lat="42.71793" lon="-5.88578">
        <ele>1060.6</ele>
        <time>2023-06-15T15:30:40.000+02:00</time>
      </trkpt>
      <trkpt lat="42.71704" lon="-5.88568">
        <ele>1055.7</ele>
        <time>2023-06-15T15:30:54.000+02:00</time>
      </trkpt>
      <trkpt lat="42.71556" lon="-5.88491">
        <ele>1044.4</ele>
        <time>2023-06-15T15:31:18.000+02:00</time>
      </trkpt>
      <trkpt lat="42.71194" lon="-5.88442">
        <ele>1024.8</ele>
        <time>2023-06-15T15:32:14.000+02:00</time>
      </trkpt>
      <trkpt lat="42.70942" lon="-5.88081">
        <ele>1008</ele>
        <time>2023-06-15T15:33:10.000+02:00</time>
      </trkpt>
      <trkpt lat="42.70652" lon="-5.87836">
        <ele>993.7</ele>
        <time>2023-06-15T15:34:02.000+02:00</time>
      </trkpt>
      <trkpt lat="42.705" lon="-5.8784">
        <ele>988.5</ele>
        <time>2023-06-15T15:34:25.000+02:00</time>
      </trkpt>
      <trkpt lat="42.70273" lon="-5.87899">
        <ele>982</ele>
        <time>2023-06-15T15:35:01.000+02:00</time>
      </trkpt>
      <trkpt lat="42.70009" lon="-5.87868">
        <ele>977.6</ele>
        <time>2023-06-15T15:35:41.000+02:00</time>
      </trkpt>
      <trkpt lat="42.69722" lon="-5.87978">
        <ele>967.1</ele>
        <time>2023-06-15T15:36:27.000+02:00</time>
      </trkpt>
      <trkpt lat="42.69645" lon="-5.87945">
        <ele>958.5</ele>
        <time>2023-06-15T15:36:39.000+02:00</time>
      </trkpt>
      <trkpt lat="42.69584" lon="-5.87879">
        <ele>956.7</ele>
        <time>2023-06-15T15:36:51.000+02:00</time>
      </trkpt>
      <trkpt lat="42.69643" lon="-5.87796">
        <ele>965</ele>
        <time>2023-06-15T15:37:04.000+02:00</time>
      </trkpt>
      <trkpt lat="42.69711" lon="-5.87777">
        <ele>975.7</ele>
        <time>2023-06-15T15:37:14.000+02:00</time>
      </trkpt>
      <trkpt lat="42.69774" lon="-5.87641">
        <ele>1000.5</ele>
        <time>2023-06-15T15:37:32.000+02:00</time>
      </trkpt>
      <trkpt lat="42.69634" lon="-5.87482">
        <ele>1023.8</ele>
        <time>2023-06-15T15:38:00.000+02:00</time>
      </trkpt>
      <trkpt lat="42.69505" lon="-5.87147">
        <ele>1055.6</ele>
        <time>2023-06-15T15:38:43.000+02:00</time>
      </trkpt>
      <trkpt lat="42.69462" lon="-5.86902">
        <ele>1079.1</ele>
        <time>2023-06-15T15:39:11.000+02:00</time>
      </trkpt>
      <trkpt lat="42.69516" lon="-5.86757">
        <ele>1094.5</ele>
        <time>2023-06-15T15:39:29.000+02:00</time>
      </trkpt>
      <trkpt lat="42.69585" lon="-5.86693">
        <ele>1108</ele>
        <time>2023-06-15T15:39:42.000+02:00</time>
      </trkpt>
      <trkpt lat="42.69594" lon="-5.86649">
        <ele>1107.2</ele>
        <time>2023-06-15T15:39:47.000+02:00</time>
      </trkpt>
      <trkpt lat="42.69496" lon="-5.86561">
        <ele>1094.7</ele>
        <time>2023-06-15T15:40:05.000+02:00</time>
      </trkpt>
      <trkpt lat="42.69487" lon="-5.86509">
        <ele>1094.1</ele>
        <time>2023-06-15T15:40:11.000+02:00</time>
      </trkpt>
      <trkpt lat="42.69509" lon="-5.8644">
        <ele>1090.1</ele>
        <time>2023-06-15T15:40:20.000+02:00</time>
      </trkpt>
      <trkpt lat="42.69446" lon="-5.86271">
        <ele>1080</ele>
        <time>2023-06-15T15:40:41.000+02:00</time>
      </trkpt>
      <trkpt lat="42.69265" lon="-5.86194">
        <ele>1052.6</ele>
        <time>2023-06-15T15:41:10.000+02:00</time>
      </trkpt>
      <trkpt lat="42.69214" lon="-5.86142">
        <ele>1043.5</ele>
        <time>2023-06-15T15:41:20.000+02:00</time>
      </trkpt>
      <trkpt lat="42.69225" lon="-5.86099">
        <ele>1047.7</ele>
        <time>2023-06-15T15:41:25.000+02:00</time>
      </trkpt>
      <trkpt lat="42.6917" lon="-5.86012">
        <ele>1060.9</ele>
        <time>2023-06-15T15:41:38.000+02:00</time>
      </trkpt>
      <trkpt lat="42.69094" lon="-5.86112">
        <ele>1071.3</ele>
        <time>2023-06-15T15:41:54.000+02:00</time>
      </trkpt>
      <trkpt lat="42.69001" lon="-5.86116">
        <ele>1083.9</ele>
        <time>2023-06-15T15:42:08.000+02:00</time>
      </trkpt>
      <trkpt lat="42.68917" lon="-5.86183">
        <ele>1099.2</ele>
        <time>2023-06-15T15:42:23.000+02:00</time>
      </trkpt>
      <trkpt lat="42.68702" lon="-5.86043">
        <ele>1100.5</ele>
        <time>2023-06-15T15:42:59.000+02:00</time>
      </trkpt>
      <trkpt lat="42.68241" lon="-5.8597">
        <ele>1073.1</ele>
        <time>2023-06-15T15:44:10.000+02:00</time>
      </trkpt>
      <trkpt lat="42.68121" lon="-5.85856">
        <ele>1055.2</ele>
        <time>2023-06-15T15:44:33.000+02:00</time>
      </trkpt>
      <trkpt lat="42.67975" lon="-5.85784">
        <ele>1039</ele>
        <time>2023-06-15T15:44:56.000+02:00</time>
      </trkpt>
      <trkpt lat="42.67818" lon="-5.85573">
        <ele>1025.5</ele>
        <time>2023-06-15T15:45:30.000+02:00</time>
      </trkpt>
      <trkpt lat="42.67658" lon="-5.85441">
        <ele>990.9</ele>
        <time>2023-06-15T15:45:58.000+02:00</time>
      </trkpt>
      <trkpt lat="42.67464" lon="-5.8533">
        <ele>935</ele>
        <time>2023-06-15T15:46:31.000+02:00</time>
      </trkpt>
      <trkpt lat="42.67404" lon="-5.85329">
        <ele>928.7</ele>
        <time>2023-06-15T15:46:40.000+02:00</time>
      </trkpt>
      <trkpt lat="42.67256" lon="-5.85231">
        <ele>923.5</ele>
        <time>2023-06-15T15:47:05.000+02:00</time>
      </trkpt>
      <trkpt lat="42.67182" lon="-5.84904">
        <ele>921</ele>
        <time>2023-06-15T15:47:43.000+02:00</time>
      </trkpt>
      <trkpt lat="42.67104" lon="-5.847">
        <ele>920</ele>
        <time>2023-06-15T15:48:09.000+02:00</time>
      </trkpt>
      <trkpt lat="42.67" lon="-5.84511">
        <ele>918.4</ele>
        <time>2023-06-15T15:48:36.000+02:00</time>
      </trkpt>
      <trkpt lat="42.66989" lon="-5.84425">
        <ele>918.2</ele>
        <time>2023-06-15T15:48:46.000+02:00</time>
      </trkpt>
      <trkpt lat="42.66938" lon="-5.84312">
        <ele>917.2</ele>
        <time>2023-06-15T15:49:01.000+02:00</time>
      </trkpt>
      <trkpt lat="42.66845" lon="-5.84337">
        <ele>916.9</ele>
        <time>2023-06-15T15:49:15.000+02:00</time>
      </trkpt>
      <trkpt lat="42.66755" lon="-5.83725">
        <ele>913.8</ele>
        <time>2023-06-15T15:50:25.000+02:00</time>
      </trkpt>
      <trkpt lat="42.66615" lon="-5.83778">
        <ele>914</ele>
        <time>2023-06-15T15:50:47.000+02:00</time>
      </trkpt>
      <trkpt lat="42.66366" lon="-5.83818">
        <ele>913.1</ele>
        <time>2023-06-15T15:51:26.000+02:00</time>
      </trkpt>
      <trkpt lat="42.66203" lon="-5.83164">
        <ele>909</ele>
        <time>2023-06-15T15:52:43.000+02:00</time>
      </trkpt>
      <trkpt lat="42.66108" lon="-5.83282">
        <ele>908.9</ele>
        <time>2023-06-15T15:53:03.000+02:00</time>
      </trkpt>
      <trkpt lat="42.66073" lon="-5.83285">
        <ele>908.5</ele>
        <time>2023-06-15T15:53:08.000+02:00</time>
      </trkpt>
      <trkpt lat="42.65994" lon="-5.83211">
        <ele>908</ele>
        <time>2023-06-15T15:53:23.000+02:00</time>
      </trkpt>
      <trkpt lat="42.65954" lon="-5.83204">
        <ele>908</ele>
        <time>2023-06-15T15:53:29.000+02:00</time>
      </trkpt>
      <trkpt lat="42.65866" lon="-5.83252">
        <ele>907.8</ele>
        <time>2023-06-15T15:53:44.000+02:00</time>
      </trkpt>
      <trkpt lat="42.65725" lon="-5.83239">
        <ele>907.6</ele>
        <time>2023-06-15T15:54:05.000+02:00</time>
      </trkpt>
      <trkpt lat="42.65755" lon="-5.83508">
        <ele>909.7</ele>
        <time>2023-06-15T15:54:36.000+02:00</time>
      </trkpt>
      <trkpt lat="42.6589" lon="-5.83751">
        <ele>911</ele>
        <time>2023-06-15T15:55:10.000+02:00</time>
      </trkpt>
      <trkpt lat="42.65772" lon="-5.83944">
        <ele>911.8</ele>
        <time>2023-06-15T15:55:38.000+02:00</time>
      </trkpt>
      <trkpt lat="42.65692" lon="-5.84152">
        <ele>911.5</ele>
        <time>2023-06-15T15:56:05.000+02:00</time>
      </trkpt>
      <trkpt lat="42.65457" lon="-5.8451">
        <ele>913.9</ele>
        <time>2023-06-15T15:56:59.000+02:00</time>
      </trkpt>
      <trkpt lat="42.65358" lon="-5.8436">
        <ele>912</ele>
        <time>2023-06-15T15:57:21.000+02:00</time>
      </trkpt>
      <trkpt lat="42.65077" lon="-5.84198">
        <ele>911.6</ele>
        <time>2023-06-15T15:58:08.000+02:00</time>
      </trkpt>
      <trkpt lat="42.64898" lon="-5.84144">
        <ele>914.7</ele>
        <time>2023-06-15T15:58:36.000+02:00</time>
      </trkpt>
      <trkpt lat="42.64859" lon="-5.83999">
        <ele>909.1</ele>
        <time>2023-06-15T15:58:53.000+02:00</time>
      </trkpt>
      <trkpt lat="42.64449" lon="-5.84035">
        <ele>906.2</ele>
        <time>2023-06-15T15:59:56.000+02:00</time>
      </trkpt>
      <trkpt lat="42.64301" lon="-5.83982">
        <ele>904</ele>
        <time>2023-06-15T16:00:19.000+02:00</time>
      </trkpt>
      <trkpt lat="42.64196" lon="-5.83894">
        <ele>903.8</ele>
        <time>2023-06-15T16:00:38.000+02:00</time>
      </trkpt>
      <trkpt lat="42.64204" lon="-5.83874">
        <ele>903.1</ele>
        <time>2023-06-15T16:00:41.000+02:00</time>
      </trkpt>
      <trkpt lat="42.63955" lon="-5.83696">
        <ele>902.7</ele>
        <time>2023-06-15T16:01:24.000+02:00</time>
      </trkpt>
      <trkpt lat="42.6373" lon="-5.83744">
        <ele>901.8</ele>
        <time>2023-06-15T16:01:59.000+02:00</time>
      </trkpt>
      <trkpt lat="42.63532" lon="-5.83859">
        <ele>901.9</ele>
        <time>2023-06-15T16:02:31.000+02:00</time>
      </trkpt>
      <trkpt lat="42.63223" lon="-5.84245">
        <ele>901</ele>
        <time>2023-06-15T16:03:36.000+02:00</time>
      </trkpt>
      <trkpt lat="42.63087" lon="-5.84282">
        <ele>901.1</ele>
        <time>2023-06-15T16:03:57.000+02:00</time>
      </trkpt>
      <trkpt lat="42.63098" lon="-5.84049">
        <ele>897.9</ele>
        <time>2023-06-15T16:04:23.000+02:00</time>
      </trkpt>
      <trkpt lat="42.63075" lon="-5.83837">
        <ele>895</ele>
        <time>2023-06-15T16:04:47.000+02:00</time>
      </trkpt>
      <trkpt lat="42.63118" lon="-5.83466">
        <ele>894</ele>
        <time>2023-06-15T16:05:29.000+02:00</time>
      </trkpt>
      <trkpt lat="42.62826" lon="-5.83444">
        <ele>893</ele>
        <time>2023-06-15T16:06:14.000+02:00</time>
      </trkpt>
      <trkpt lat="42.62102" lon="-5.83247">
        <ele>888</ele>
        <time>2023-06-15T16:08:07.000+02:00</time>
      </trkpt>
      <trkpt lat="42.61361" lon="-5.83101">
        <ele>884</ele>
        <time>2023-06-15T16:10:01.000+02:00</time>
      </trkpt>
      <trkpt lat="42.61174" lon="-5.83091">
        <ele>883</ele>
        <time>2023-06-15T16:10:30.000+02:00</time>
      </trkpt>
      <trkpt lat="42.61198" lon="-5.84281">
        <ele>883.1</ele>
        <time>2023-06-15T16:12:44.000+02:00</time>
      </trkpt>
      <trkpt lat="42.60973" lon="-5.84311">
        <ele>882</ele>
        <time>2023-06-15T16:13:18.000+02:00</time>
      </trkpt>
      <trkpt lat="42.61023" lon="-5.84413">
        <ele>882.8</ele>
        <time>2023-06-15T16:13:32.000+02:00</time>
      </trkpt>
      <trkpt lat="42.61373" lon="-5.8557">
        <ele>902.5</ele>
        <time>2023-06-15T16:15:53.000+02:00</time>
      </trkpt>
      <trkpt lat="42.61364" lon="-5.85658">
        <ele>905.7</ele>
        <time>2023-06-15T16:16:03.000+02:00</time>
      </trkpt>
      <trkpt lat="42.61391" lon="-5.85763">
        <ele>909.4</ele>
        <time>2023-06-15T16:16:15.000+02:00</time>
      </trkpt>
      <trkpt lat="42.61384" lon="-5.86349">
        <ele>937</ele>
        <time>2023-06-15T16:17:21.000+02:00</time>
      </trkpt>
      <trkpt lat="42.61332" lon="-5.86386">
        <ele>943.2</ele>
        <time>2023-06-15T16:17:30.000+02:00</time>
      </trkpt>
      <trkpt lat="42.61312" lon="-5.8644">
        <ele>948.1</ele>
        <time>2023-06-15T16:17:37.000+02:00</time>
      </trkpt>
      <trkpt lat="42.61339" lon="-5.86676">
        <ele>961.3</ele>
        <time>2023-06-15T16:18:04.000+02:00</time>
      </trkpt>
      <trkpt lat="42.61302" lon="-5.86859">
        <ele>965</ele>
        <time>2023-06-15T16:18:25.000+02:00</time>
      </trkpt>
      <trkpt lat="42.61305" lon="-5.8697">
        <ele>966</ele>
        <time>2023-06-15T16:18:37.000+02:00</time>
      </trkpt>
      <trkpt lat="42.61248" lon="-5.87172">
        <ele>965.9</ele>
        <time>2023-06-15T16:19:02.000+02:00</time>
      </trkpt>
      <trkpt lat="42.61173" lon="-5.87388">
        <ele>964</ele>
        <time>2023-06-15T16:19:29.000+02:00</time>
      </trkpt>
      <trkpt lat="42.60974" lon="-5.87742">
        <ele>964.3</ele>
        <time>2023-06-15T16:20:19.000+02:00</time>
      </trkpt>
      <trkpt lat="42.60979" lon="-5.87777">
        <ele>965</ele>
        <time>2023-06-15T16:20:23.000+02:00</time>
      </trkpt>
      <trkpt lat="42.60837" lon="-5.88105">
        <ele>970.3</ele>
        <time>2023-06-15T16:21:05.000+02:00</time>
      </trkpt>
      <trkpt lat="42.60243" lon="-5.87933">
        <ele>959.6</ele>
        <time>2023-06-15T16:22:38.000+02:00</time>
      </trkpt>
      <trkpt lat="42.59897" lon="-5.87605">
        <ele>951.7</ele>
        <time>2023-06-15T16:23:43.000+02:00</time>
      </trkpt>
      <trkpt lat="42.5981" lon="-5.87486">
        <ele>947.4</ele>
        <time>2023-06-15T16:24:02.000+02:00</time>
      </trkpt>
      <trkpt lat="42.59361" lon="-5.8728">
        <ele>911.1</ele>
        <time>2023-06-15T16:25:14.000+02:00</time>
      </trkpt>
      <trkpt lat="42.59296" lon="-5.87223">
        <ele>904</ele>
        <time>2023-06-15T16:25:26.000+02:00</time>
      </trkpt>
      <trkpt lat="42.59156" lon="-5.87244">
        <ele>900</ele>
        <time>2023-06-15T16:25:47.000+02:00</time>
      </trkpt>
      <trkpt lat="42.59339" lon="-5.87474">
        <ele>903</ele>
        <time>2023-06-15T16:26:25.000+02:00</time>
      </trkpt>
      <trkpt lat="42.59206" lon="-5.87586">
        <ele>902.4</ele>
        <time>2023-06-15T16:26:49.000+02:00</time>
      </trkpt>
      <trkpt lat="42.59419" lon="-5.87903">
        <ele>906.5</ele>
        <time>2023-06-15T16:27:37.000+02:00</time>
      </trkpt>
      <trkpt lat="42.5964" lon="-5.88402">
        <ele>915.9</ele>
        <time>2023-06-15T16:28:43.000+02:00</time>
      </trkpt>
      <trkpt lat="42.59331" lon="-5.8915">
        <ele>971</ele>
        <time>2023-06-15T16:30:19.000+02:00</time>
      </trkpt>
      <trkpt lat="42.59808" lon="-5.89762">
        <ele>975.1</ele>
        <time>2023-06-15T16:32:00.000+02:00</time>
      </trkpt>
      <trkpt lat="42.59721" lon="-5.90976">
        <ele>950.9</ele>
        <time>2023-06-15T16:34:17.000+02:00</time>
      </trkpt>
      <trkpt lat="42.59764" lon="-5.91078">
        <ele>952.4</ele>
        <time>2023-06-15T16:34:30.000+02:00</time>
      </trkpt>
      <trkpt lat="42.59582" lon="-5.91514">
        <ele>958.5</ele>
        <time>2023-06-15T16:35:27.000+02:00</time>
      </trkpt>
      <trkpt lat="42.59511" lon="-5.91616">
        <ele>952.3</ele>
        <time>2023-06-15T16:35:42.000+02:00</time>
      </trkpt>
      <trkpt lat="42.59401" lon="-5.91709">
        <ele>949.9</ele>
        <time>2023-06-15T16:36:02.000+02:00</time>
      </trkpt>
      <trkpt lat="42.59389" lon="-5.91771">
        <ele>950.7</ele>
        <time>2023-06-15T16:36:09.000+02:00</time>
      </trkpt>
      <trkpt lat="42.5933" lon="-5.91745">
        <ele>948.7</ele>
        <time>2023-06-15T16:36:19.000+02:00</time>
      </trkpt>
      <trkpt lat="42.58897" lon="-5.91938">
        <ele>939.4</ele>
        <time>2023-06-15T16:37:28.000+02:00</time>
      </trkpt>
      <trkpt lat="42.58609" lon="-5.92206">
        <ele>959.5</ele>
        <time>2023-06-15T16:38:22.000+02:00</time>
      </trkpt>
      <trkpt lat="42.58475" lon="-5.92369">
        <ele>960.7</ele>
        <time>2023-06-15T16:38:49.000+02:00</time>
      </trkpt>
      <trkpt lat="42.58323" lon="-5.92431">
        <ele>937.9</ele>
        <time>2023-06-15T16:39:13.000+02:00</time>
      </trkpt>
      <trkpt lat="42.58242" lon="-5.92428">
        <ele>927.3</ele>
        <time>2023-06-15T16:39:26.000+02:00</time>
      </trkpt>
      <trkpt lat="42.58091" lon="-5.92597">
        <ele>904.3</ele>
        <time>2023-06-15T16:39:56.000+02:00</time>
      </trkpt>
      <trkpt lat="42.58116" lon="-5.92729">
        <ele>901.9</ele>
        <time>2023-06-15T16:40:11.000+02:00</time>
      </trkpt>
      <trkpt lat="42.58005" lon="-5.92841">
        <ele>900</ele>
        <time>2023-06-15T16:40:32.000+02:00</time>
      </trkpt>
      <trkpt lat="42.58084" lon="-5.92886">
        <ele>900.9</ele>
        <time>2023-06-15T16:40:45.000+02:00</time>
      </trkpt>
      <trkpt lat="42.5811" lon="-5.92954">
        <ele>901</ele>
        <time>2023-06-15T16:40:54.000+02:00</time>
      </trkpt>
      <trkpt lat="42.58085" lon="-5.93118">
        <ele>902</ele>
        <time>2023-06-15T16:41:13.000+02:00</time>
      </trkpt>
      <trkpt lat="42.58018" lon="-5.93293">
        <ele>902</ele>
        <time>2023-06-15T16:41:35.000+02:00</time>
      </trkpt>
      <trkpt lat="42.58036" lon="-5.93454">
        <ele>902.8</ele>
        <time>2023-06-15T16:41:53.000+02:00</time>
      </trkpt>
      <trkpt lat="42.58104" lon="-5.93545">
        <ele>903.8</ele>
        <time>2023-06-15T16:42:08.000+02:00</time>
      </trkpt>
      <trkpt lat="42.58161" lon="-5.93852">
        <ele>907.8</ele>
        <time>2023-06-15T16:42:44.000+02:00</time>
      </trkpt>
      <trkpt lat="42.58122" lon="-5.94103">
        <ele>925.9</ele>
        <time>2023-06-15T16:43:12.000+02:00</time>
      </trkpt>
      <trkpt lat="42.57779" lon="-5.9437">
        <ele>962.2</ele>
        <time>2023-06-15T16:44:13.000+02:00</time>
      </trkpt>
      <trkpt lat="42.57684" lon="-5.94345">
        <ele>971.9</ele>
        <time>2023-06-15T16:44:28.000+02:00</time>
      </trkpt>
      <trkpt lat="42.57672" lon="-5.94386">
        <ele>972.6</ele>
        <time>2023-06-15T16:44:33.000+02:00</time>
      </trkpt>
      <trkpt lat="42.57697" lon="-5.94582">
        <ele>977.1</ele>
        <time>2023-06-15T16:44:55.000+02:00</time>
      </trkpt>
      <trkpt lat="42.5768" lon="-5.94767">
        <ele>975.5</ele>
        <time>2023-06-15T16:45:16.000+02:00</time>
      </trkpt>
      <trkpt lat="42.57861" lon="-5.94972">
        <ele>978</ele>
        <time>2023-06-15T16:45:52.000+02:00</time>
      </trkpt>
      <trkpt lat="42.5795" lon="-5.95155">
        <ele>985.6</ele>
        <time>2023-06-15T16:46:17.000+02:00</time>
      </trkpt>
      <trkpt lat="42.58112" lon="-5.95382">
        <ele>990</ele>
        <time>2023-06-15T16:46:52.000+02:00</time>
      </trkpt>
      <trkpt lat="42.58257" lon="-5.9568">
        <ele>992</ele>
        <time>2023-06-15T16:47:33.000+02:00</time>
      </trkpt>
      <trkpt lat="42.58008" lon="-5.96203">
        <ele>988.3</ele>
        <time>2023-06-15T16:48:43.000+02:00</time>
      </trkpt>
      <trkpt lat="42.5845" lon="-5.9669">
        <ele>994</ele>
        <time>2023-06-15T16:50:10.000+02:00</time>
      </trkpt>
      <trkpt lat="42.58409" lon="-5.9784">
        <ele>993.5</ele>
        <time>2023-06-15T16:52:19.000+02:00</time>
      </trkpt>
      <trkpt lat="42.58129" lon="-5.99574">
        <ele>991.7</ele>
        <time>2023-06-15T16:55:39.000+02:00</time>
      </trkpt>
      <trkpt lat="42.59093" lon="-5.99764">
        <ele>999.7</ele>
        <time>2023-06-15T16:58:08.000+02:00</time>
      </trkpt>
      <trkpt lat="42.59567" lon="-6.00075">
        <ele>1003.4</ele>
        <time>2023-06-15T16:59:28.000+02:00</time>
      </trkpt>
      <trkpt lat="42.59979" lon="-6.00664">
        <ele>1004</ele>
        <time>2023-06-15T17:01:00.000+02:00</time>
      </trkpt>
      <trkpt lat="42.60494" lon="-6.01611">
        <ele>999.2</ele>
        <time>2023-06-15T17:03:12.000+02:00</time>
      </trkpt>
      <trkpt lat="42.60673" lon="-6.01585">
        <ele>999</ele>
        <time>2023-06-15T17:03:39.000+02:00</time>
      </trkpt>
      <trkpt lat="42.60966" lon="-6.01663">
        <ele>1000</ele>
        <time>2023-06-15T17:04:25.000+02:00</time>
      </trkpt>
      <trkpt lat="42.61127" lon="-6.01733">
        <ele>1001.7</ele>
        <time>2023-06-15T17:04:51.000+02:00</time>
      </trkpt>
      <trkpt lat="42.61701" lon="-6.02078">
        <ele>1010.4</ele>
        <time>2023-06-15T17:06:27.000+02:00</time>
      </trkpt>
      <trkpt lat="42.61808" lon="-6.02101">
        <ele>1012.4</ele>
        <time>2023-06-15T17:06:43.000+02:00</time>
      </trkpt>
      <trkpt lat="42.61914" lon="-6.02072">
        <ele>1012.5</ele>
        <time>2023-06-15T17:07:00.000+02:00</time>
      </trkpt>
      <trkpt lat="42.61862" lon="-6.0237">
        <ele>990</ele>
        <time>2023-06-15T17:07:34.000+02:00</time>
      </trkpt>
      <trkpt lat="42.6184" lon="-6.02995">
        <ele>963.1</ele>
        <time>2023-06-15T17:08:45.000+02:00</time>
      </trkpt>
      <trkpt lat="42.61715" lon="-6.03242">
        <ele>947.4</ele>
        <time>2023-06-15T17:09:18.000+02:00</time>
      </trkpt>
      <trkpt lat="42.61527" lon="-6.03364">
        <ele>944.9</ele>
        <time>2023-06-15T17:09:50.000+02:00</time>
      </trkpt>
      <trkpt lat="42.61606" lon="-6.03478">
        <ele>943.8</ele>
        <time>2023-06-15T17:10:08.000+02:00</time>
      </trkpt>
      <trkpt lat="42.61529" lon="-6.03584">
        <ele>942.9</ele>
        <time>2023-06-15T17:10:25.000+02:00</time>
      </trkpt>
      <trkpt lat="42.61445" lon="-6.03607">
        <ele>942.9</ele>
        <time>2023-06-15T17:10:38.000+02:00</time>
      </trkpt>
      <trkpt lat="42.61625" lon="-6.03804">
        <ele>945.5</ele>
        <time>2023-06-15T17:11:13.000+02:00</time>
      </trkpt>
      <trkpt lat="42.61818" lon="-6.04233">
        <ele>948.2</ele>
        <time>2023-06-15T17:12:09.000+02:00</time>
      </trkpt>
      <trkpt lat="42.61586" lon="-6.04331">
        <ele>953.7</ele>
        <time>2023-06-15T17:12:47.000+02:00</time>
      </trkpt>
      <trkpt lat="42.61789" lon="-6.0486">
        <ele>955</ele>
        <time>2023-06-15T17:13:54.000+02:00</time>
      </trkpt>
      <trkpt lat="42.61798" lon="-6.05137">
        <ele>957</ele>
        <time>2023-06-15T17:14:25.000+02:00</time>
      </trkpt>
      <trkpt lat="42.6166" lon="-6.05184">
        <ele>959</ele>
        <time>2023-06-15T17:14:47.000+02:00</time>
      </trkpt>
      <trkpt lat="42.61688" lon="-6.05491">
        <ele>961</ele>
        <time>2023-06-15T17:15:21.000+02:00</time>
      </trkpt>
      <trkpt lat="42.61938" lon="-6.0596">
        <ele>962</ele>
        <time>2023-06-15T17:16:26.000+02:00</time>
      </trkpt>
      <trkpt lat="42.62014" lon="-6.05989">
        <ele>962</ele>
        <time>2023-06-15T17:16:38.000+02:00</time>
      </trkpt>
      <trkpt lat="42.62082" lon="-6.05951">
        <ele>962.2</ele>
        <time>2023-06-15T17:16:50.000+02:00</time>
      </trkpt>
      <trkpt lat="42.62077" lon="-6.05789">
        <ele>962.3</ele>
        <time>2023-06-15T17:17:08.000+02:00</time>
      </trkpt>
      <trkpt lat="42.62224" lon="-6.05769">
        <ele>964.7</ele>
        <time>2023-06-15T17:17:31.000+02:00</time>
      </trkpt>
      <trkpt lat="42.62228" lon="-6.05901">
        <ele>967.2</ele>
        <time>2023-06-15T17:17:45.000+02:00</time>
      </trkpt>
      <trkpt lat="42.62524" lon="-6.06059">
        <ele>967</ele>
        <time>2023-06-15T17:18:34.000+02:00</time>
      </trkpt>
      <trkpt lat="42.62633" lon="-6.06233">
        <ele>967.5</ele>
        <time>2023-06-15T17:19:00.000+02:00</time>
      </trkpt>
      <trkpt lat="42.62698" lon="-6.06448">
        <ele>968</ele>
        <time>2023-06-15T17:19:26.000+02:00</time>
      </trkpt>
      <trkpt lat="42.62799" lon="-6.0651">
        <ele>968.5</ele>
        <time>2023-06-15T17:19:43.000+02:00</time>
      </trkpt>
      <trkpt lat="42.629" lon="-6.0662">
        <ele>969.4</ele>
        <time>2023-06-15T17:20:02.000+02:00</time>
      </trkpt>
      <trkpt lat="42.62827" lon="-6.06679">
        <ele>969.3</ele>
        <time>2023-06-15T17:20:15.000+02:00</time>
      </trkpt>
      <trkpt lat="42.62368" lon="-6.06852">
        <ele>974.5</ele>
        <time>2023-06-15T17:21:28.000+02:00</time>
      </trkpt>
      <trkpt lat="42.62189" lon="-6.0689">
        <ele>970.2</ele>
        <time>2023-06-15T17:21:56.000+02:00</time>
      </trkpt>
      <trkpt lat="42.62172" lon="-6.07149">
        <ele>969.9</ele>
        <time>2023-06-15T17:22:25.000+02:00</time>
      </trkpt>
      <trkpt lat="42.62202" lon="-6.07309">
        <ele>972.2</ele>
        <time>2023-06-15T17:22:44.000+02:00</time>
      </trkpt>
      <trkpt lat="42.62274" lon="-6.07499">
        <ele>973.5</ele>
        <time>2023-06-15T17:23:08.000+02:00</time>
      </trkpt>
      <trkpt lat="42.62336" lon="-6.07596">
        <ele>973.9</ele>
        <time>2023-06-15T17:23:22.000+02:00</time>
      </trkpt>
      <trkpt lat="42.6238" lon="-6.07625">
        <ele>974.3</ele>
        <time>2023-06-15T17:23:30.000+02:00</time>
      </trkpt>
      <trkpt lat="42.62515" lon="-6.07625">
        <ele>974.3</ele>
        <time>2023-06-15T17:23:50.000+02:00</time>
      </trkpt>
      <trkpt lat="42.62715" lon="-6.07737">
        <ele>976.4</ele>
        <time>2023-06-15T17:24:23.000+02:00</time>
      </trkpt>
      <trkpt lat="42.62835" lon="-6.0804">
        <ele>975.1</ele>
        <time>2023-06-15T17:25:02.000+02:00</time>
      </trkpt>
      <trkpt lat="42.62947" lon="-6.08247">
        <ele>977.1</ele>
        <time>2023-06-15T17:25:31.000+02:00</time>
      </trkpt>
      <trkpt lat="42.63028" lon="-6.08296">
        <ele>979</ele>
        <time>2023-06-15T17:25:44.000+02:00</time>
      </trkpt>
      <trkpt lat="42.6312" lon="-6.08225">
        <ele>980</ele>
        <time>2023-06-15T17:26:01.000+02:00</time>
      </trkpt>
      <trkpt lat="42.63134" lon="-6.08251">
        <ele>980</ele>
        <time>2023-06-15T17:26:04.000+02:00</time>
      </trkpt>
      <trkpt lat="42.63071" lon="-6.08335">
        <ele>979.6</ele>
        <time>2023-06-15T17:26:18.000+02:00</time>
      </trkpt>
      <trkpt lat="42.63041" lon="-6.08545">
        <ele>980.2</ele>
        <time>2023-06-15T17:26:42.000+02:00</time>
      </trkpt>
      <trkpt lat="42.63021" lon="-6.08863">
        <ele>981</ele>
        <time>2023-06-15T17:27:17.000+02:00</time>
      </trkpt>
      <trkpt lat="42.63035" lon="-6.09401">
        <ele>982.9</ele>
        <time>2023-06-15T17:28:18.000+02:00</time>
      </trkpt>
      <trkpt lat="42.63002" lon="-6.0991">
        <ele>986</ele>
        <time>2023-06-15T17:29:15.000+02:00</time>
      </trkpt>
      <trkpt lat="42.62977" lon="-6.10027">
        <ele>987</ele>
        <time>2023-06-15T17:29:29.000+02:00</time>
      </trkpt>
      <trkpt lat="42.6297" lon="-6.10491">
        <ele>989.4</ele>
        <time>2023-06-15T17:30:21.000+02:00</time>
      </trkpt>
      <trkpt lat="42.62616" lon="-6.10496">
        <ele>993.8</ele>
        <time>2023-06-15T17:31:15.000+02:00</time>
      </trkpt>
      <trkpt lat="42.62564" lon="-6.11313">
        <ele>999</ele>
        <time>2023-06-15T17:32:48.000+02:00</time>
      </trkpt>
      <trkpt lat="42.62622" lon="-6.11762">
        <ele>1002.4</ele>
        <time>2023-06-15T17:33:39.000+02:00</time>
      </trkpt>
      <trkpt lat="42.62621" lon="-6.12099">
        <ele>1003.5</ele>
        <time>2023-06-15T17:34:17.000+02:00</time>
      </trkpt>
      <trkpt lat="42.62657" lon="-6.1247">
        <ele>1005.3</ele>
        <time>2023-06-15T17:34:59.000+02:00</time>
      </trkpt>
      <trkpt lat="42.62727" lon="-6.12679">
        <ele>1006.4</ele>
        <time>2023-06-15T17:35:25.000+02:00</time>
      </trkpt>
      <trkpt lat="42.63152" lon="-6.13628">
        <ele>1022</ele>
        <time>2023-06-15T17:37:30.000+02:00</time>
      </trkpt>
      <trkpt lat="42.63072" lon="-6.13576">
        <ele>1021</ele>
        <time>2023-06-15T17:37:43.000+02:00</time>
      </trkpt>
      <trkpt lat="42.62939" lon="-6.13957">
        <ele>1013.2</ele>
        <time>2023-06-15T17:38:30.000+02:00</time>
      </trkpt>
      <trkpt lat="42.62688" lon="-6.1412">
        <ele>1007.8</ele>
        <time>2023-06-15T17:39:13.000+02:00</time>
      </trkpt>
      <trkpt lat="42.62539" lon="-6.14314">
        <ele>998.3</ele>
        <time>2023-06-15T17:39:45.000+02:00</time>
      </trkpt>
      <trkpt lat="42.62555" lon="-6.14539">
        <ele>992</ele>
        <time>2023-06-15T17:40:10.000+02:00</time>
      </trkpt>
      <trkpt lat="42.6254" lon="-6.14553">
        <ele>993</ele>
        <time>2023-06-15T17:40:13.000+02:00</time>
      </trkpt>
      <trkpt lat="42.62478" lon="-6.1447">
        <ele>996.4</ele>
        <time>2023-06-15T17:40:26.000+02:00</time>
      </trkpt>
      <trkpt lat="42.62398" lon="-6.14472">
        <ele>997.7</ele>
        <time>2023-06-15T17:40:38.000+02:00</time>
      </trkpt>
      <trkpt lat="42.62418" lon="-6.14519">
        <ele>1000.6</ele>
        <time>2023-06-15T17:40:44.000+02:00</time>
      </trkpt>
      <trkpt lat="42.62357" lon="-6.14505">
        <ele>999.5</ele>
        <time>2023-06-15T17:40:54.000+02:00</time>
      </trkpt>
      <trkpt lat="42.62264" lon="-6.14609">
        <ele>992.5</ele>
        <time>2023-06-15T17:41:12.000+02:00</time>
      </trkpt>
      <trkpt lat="42.62174" lon="-6.14655">
        <ele>995</ele>
        <time>2023-06-15T17:41:27.000+02:00</time>
      </trkpt>
      <trkpt lat="42.62149" lon="-6.14721">
        <ele>1000.9</ele>
        <time>2023-06-15T17:41:35.000+02:00</time>
      </trkpt>
      <trkpt lat="42.62136" lon="-6.14884">
        <ele>1004.1</ele>
        <time>2023-06-15T17:41:53.000+02:00</time>
      </trkpt>
      <trkpt lat="42.62057" lon="-6.14977">
        <ele>1009</ele>
        <time>2023-06-15T17:42:09.000+02:00</time>
      </trkpt>
      <trkpt lat="42.61995" lon="-6.15139">
        <ele>1019.4</ele>
        <time>2023-06-15T17:42:30.000+02:00</time>
      </trkpt>
      <trkpt lat="42.62076" lon="-6.15634">
        <ele>1015.1</ele>
        <time>2023-06-15T17:43:27.000+02:00</time>
      </trkpt>
      <trkpt lat="42.62156" lon="-6.15863">
        <ele>1005.7</ele>
        <time>2023-06-15T17:43:56.000+02:00</time>
      </trkpt>
      <trkpt lat="42.62139" lon="-6.15964">
        <ele>1008.3</ele>
        <time>2023-06-15T17:44:07.000+02:00</time>
      </trkpt>
      <trkpt lat="42.62011" lon="-6.16069">
        <ele>1024.4</ele>
        <time>2023-06-15T17:44:30.000+02:00</time>
      </trkpt>
      <trkpt lat="42.61993" lon="-6.16557">
        <ele>1029.5</ele>
        <time>2023-06-15T17:45:25.000+02:00</time>
      </trkpt>
      <trkpt lat="42.62053" lon="-6.16679">
        <ele>1022.4</ele>
        <time>2023-06-15T17:45:41.000+02:00</time>
      </trkpt>
      <trkpt lat="42.62035" lon="-6.16807">
        <ele>1016.6</ele>
        <time>2023-06-15T17:45:56.000+02:00</time>
      </trkpt>
      <trkpt lat="42.62091" lon="-6.17076">
        <ele>1017.8</ele>
        <time>2023-06-15T17:46:28.000+02:00</time>
      </trkpt>
      <trkpt lat="42.62092" lon="-6.17225">
        <ele>1016.9</ele>
        <time>2023-06-15T17:46:44.000+02:00</time>
      </trkpt>
      <trkpt lat="42.6205" lon="-6.17349">
        <ele>1018.5</ele>
        <time>2023-06-15T17:47:00.000+02:00</time>
      </trkpt>
      <trkpt lat="42.62083" lon="-6.17427">
        <ele>1016.1</ele>
        <time>2023-06-15T17:47:10.000+02:00</time>
      </trkpt>
      <trkpt lat="42.62112" lon="-6.17685">
        <ele>1024</ele>
        <time>2023-06-15T17:47:39.000+02:00</time>
      </trkpt>
      <trkpt lat="42.62181" lon="-6.17929">
        <ele>1025.1</ele>
        <time>2023-06-15T17:48:09.000+02:00</time>
      </trkpt>
      <trkpt lat="42.62178" lon="-6.18141">
        <ele>1022.4</ele>
        <time>2023-06-15T17:48:32.000+02:00</time>
      </trkpt>
      <trkpt lat="42.62089" lon="-6.18278">
        <ele>1026.9</ele>
        <time>2023-06-15T17:48:53.000+02:00</time>
      </trkpt>
      <trkpt lat="42.62059" lon="-6.1841">
        <ele>1027.6</ele>
        <time>2023-06-15T17:49:08.000+02:00</time>
      </trkpt>
      <trkpt lat="42.61994" lon="-6.18554">
        <ele>1029.8</ele>
        <time>2023-06-15T17:49:27.000+02:00</time>
      </trkpt>
      <trkpt lat="42.61925" lon="-6.18937">
        <ele>1032.2</ele>
        <time>2023-06-15T17:50:12.000+02:00</time>
      </trkpt>
      <trkpt lat="42.61901" lon="-6.19299">
        <ele>1036</ele>
        <time>2023-06-15T17:50:53.000+02:00</time>
      </trkpt>
      <trkpt lat="42.61942" lon="-6.19682">
        <ele>1035.1</ele>
        <time>2023-06-15T17:51:36.000+02:00</time>
      </trkpt>
      <trkpt lat="42.61896" lon="-6.20077">
        <ele>1041.7</ele>
        <time>2023-06-15T17:52:21.000+02:00</time>
      </trkpt>
      <trkpt lat="42.6194" lon="-6.20271">
        <ele>1041.1</ele>
        <time>2023-06-15T17:52:44.000+02:00</time>
      </trkpt>
      <trkpt lat="42.6196" lon="-6.20555">
        <ele>1046.8</ele>
        <time>2023-06-15T17:53:16.000+02:00</time>
      </trkpt>
      <trkpt lat="42.61949" lon="-6.20694">
        <ele>1046.2</ele>
        <time>2023-06-15T17:53:32.000+02:00</time>
      </trkpt>
      <trkpt lat="42.61847" lon="-6.20804">
        <ele>1086.1</ele>
        <time>2023-06-15T17:53:52.000+02:00</time>
      </trkpt>
      <trkpt lat="42.61751" lon="-6.20846">
        <ele>1101.9</ele>
        <time>2023-06-15T17:54:07.000+02:00</time>
      </trkpt>
      <trkpt lat="42.61681" lon="-6.20919">
        <ele>1118</ele>
        <time>2023-06-15T17:54:21.000+02:00</time>
      </trkpt>
      <trkpt lat="42.61638" lon="-6.21247">
        <ele>1099.5</ele>
        <time>2023-06-15T17:54:58.000+02:00</time>
      </trkpt>
      <trkpt lat="42.61522" lon="-6.21141">
        <ele>1129.9</ele>
        <time>2023-06-15T17:55:19.000+02:00</time>
      </trkpt>
      <trkpt lat="42.61424" lon="-6.20993">
        <ele>1144.4</ele>
        <time>2023-06-15T17:55:42.000+02:00</time>
      </trkpt>
      <trkpt lat="42.61224" lon="-6.21409">
        <ele>1111.9</ele>
        <time>2023-06-15T17:56:37.000+02:00</time>
      </trkpt>
      <trkpt lat="42.61135" lon="-6.21451">
        <ele>1098.8</ele>
        <time>2023-06-15T17:56:52.000+02:00</time>
      </trkpt>
      <trkpt lat="42.60994" lon="-6.21459">
        <ele>1081.1</ele>
        <time>2023-06-15T17:57:13.000+02:00</time>
      </trkpt>
      <trkpt lat="42.61027" lon="-6.21552">
        <ele>1067.9</ele>
        <time>2023-06-15T17:57:25.000+02:00</time>
      </trkpt>
      <trkpt lat="42.61021" lon="-6.21601">
        <ele>1065.7</ele>
        <time>2023-06-15T17:57:31.000+02:00</time>
      </trkpt>
      <trkpt lat="42.60946" lon="-6.2162">
        <ele>1071.8</ele>
        <time>2023-06-15T17:57:42.000+02:00</time>
      </trkpt>
      <trkpt lat="42.60817" lon="-6.21721">
        <ele>1094.1</ele>
        <time>2023-06-15T17:58:05.000+02:00</time>
      </trkpt>
      <trkpt lat="42.601" lon="-6.22048">
        <ele>1111.4</ele>
        <time>2023-06-15T18:00:01.000+02:00</time>
      </trkpt>
      <trkpt lat="42.59903" lon="-6.2204">
        <ele>1118.3</ele>
        <time>2023-06-15T18:00:31.000+02:00</time>
      </trkpt>
      <trkpt lat="42.59641" lon="-6.22089">
        <ele>1122.8</ele>
        <time>2023-06-15T18:01:11.000+02:00</time>
      </trkpt>
      <trkpt lat="42.59523" lon="-6.22083">
        <ele>1125.9</ele>
        <time>2023-06-15T18:01:29.000+02:00</time>
      </trkpt>
      <trkpt lat="42.59473" lon="-6.22124">
        <ele>1118.2</ele>
        <time>2023-06-15T18:01:38.000+02:00</time>
      </trkpt>
      <trkpt lat="42.59748" lon="-6.22375">
        <ele>1109.6</ele>
        <time>2023-06-15T18:02:29.000+02:00</time>
      </trkpt>
      <trkpt lat="42.59931" lon="-6.22599">
        <ele>1102.1</ele>
        <time>2023-06-15T18:03:06.000+02:00</time>
      </trkpt>
      <trkpt lat="42.60113" lon="-6.23214">
        <ele>1114.6</ele>
        <time>2023-06-15T18:04:21.000+02:00</time>
      </trkpt>
      <trkpt lat="42.6018" lon="-6.23308">
        <ele>1114.7</ele>
        <time>2023-06-15T18:04:36.000+02:00</time>
      </trkpt>
      <trkpt lat="42.60291" lon="-6.23719">
        <ele>1095.8</ele>
        <time>2023-06-15T18:05:25.000+02:00</time>
      </trkpt>
      <trkpt lat="42.60421" lon="-6.23959">
        <ele>1094.5</ele>
        <time>2023-06-15T18:05:58.000+02:00</time>
      </trkpt>
      <trkpt lat="42.60547" lon="-6.24297">
        <ele>1084.2</ele>
        <time>2023-06-15T18:06:41.000+02:00</time>
      </trkpt>
      <trkpt lat="42.60635" lon="-6.24338">
        <ele>1079</ele>
        <time>2023-06-15T18:06:55.000+02:00</time>
      </trkpt>
      <trkpt lat="42.60692" lon="-6.24329">
        <ele>1078</ele>
        <time>2023-06-15T18:07:04.000+02:00</time>
      </trkpt>
      <trkpt lat="42.60762" lon="-6.24274">
        <ele>1073.7</ele>
        <time>2023-06-15T18:07:16.000+02:00</time>
      </trkpt>
      <trkpt lat="42.60803" lon="-6.24189">
        <ele>1068.6</ele>
        <time>2023-06-15T18:07:28.000+02:00</time>
      </trkpt>
      <trkpt lat="42.60852" lon="-6.24182">
        <ele>1065.7</ele>
        <time>2023-06-15T18:07:35.000+02:00</time>
      </trkpt>
      <trkpt lat="42.60877" lon="-6.24297">
        <ele>1064.8</ele>
        <time>2023-06-15T18:07:49.000+02:00</time>
      </trkpt>
      <trkpt lat="42.60924" lon="-6.24373">
        <ele>1060.7</ele>
        <time>2023-06-15T18:08:00.000+02:00</time>
      </trkpt>
      <trkpt lat="42.60961" lon="-6.24423">
        <ele>1057.9</ele>
        <time>2023-06-15T18:08:08.000+02:00</time>
      </trkpt>
      <trkpt lat="42.61021" lon="-6.24434">
        <ele>1055.1</ele>
        <time>2023-06-15T18:08:17.000+02:00</time>
      </trkpt>
      <trkpt lat="42.61006" lon="-6.24648">
        <ele>1050.8</ele>
        <time>2023-06-15T18:08:42.000+02:00</time>
      </trkpt>
      <trkpt lat="42.61088" lon="-6.24681">
        <ele>1044.8</ele>
        <time>2023-06-15T18:08:55.000+02:00</time>
      </trkpt>
      <trkpt lat="42.61081" lon="-6.24723">
        <ele>1046.6</ele>
        <time>2023-06-15T18:08:59.000+02:00</time>
      </trkpt>
      <trkpt lat="42.61023" lon="-6.2477">
        <ele>1049.8</ele>
        <time>2023-06-15T18:09:10.000+02:00</time>
      </trkpt>
      <trkpt lat="42.60953" lon="-6.24756">
        <ele>1053.5</ele>
        <time>2023-06-15T18:09:20.000+02:00</time>
      </trkpt>
      <trkpt lat="42.6085" lon="-6.24788">
        <ele>1058.1</ele>
        <time>2023-06-15T18:09:37.000+02:00</time>
      </trkpt>
      <trkpt lat="42.60702" lon="-6.24875">
        <ele>1065.7</ele>
        <time>2023-06-15T18:10:01.000+02:00</time>
      </trkpt>
      <trkpt lat="42.60632" lon="-6.24997">
        <ele>1068.3</ele>
        <time>2023-06-15T18:10:19.000+02:00</time>
      </trkpt>
      <trkpt lat="42.60699" lon="-6.2515">
        <ele>1065.1</ele>
        <time>2023-06-15T18:10:39.000+02:00</time>
      </trkpt>
      <trkpt lat="42.60695" lon="-6.25192">
        <ele>1064.9</ele>
        <time>2023-06-15T18:10:43.000+02:00</time>
      </trkpt>
      <trkpt lat="42.60617" lon="-6.25286">
        <ele>1067.7</ele>
        <time>2023-06-15T18:10:59.000+02:00</time>
      </trkpt>
      <trkpt lat="42.60617" lon="-6.25352">
        <ele>1066.9</ele>
        <time>2023-06-15T18:11:07.000+02:00</time>
      </trkpt>
      <trkpt lat="42.60718" lon="-6.25509">
        <ele>1057.5</ele>
        <time>2023-06-15T18:11:30.000+02:00</time>
      </trkpt>
      <trkpt lat="42.60873" lon="-6.25569">
        <ele>1052.9</ele>
        <time>2023-06-15T18:11:55.000+02:00</time>
      </trkpt>
      <trkpt lat="42.60893" lon="-6.25629">
        <ele>1050.4</ele>
        <time>2023-06-15T18:12:02.000+02:00</time>
      </trkpt>
      <trkpt lat="42.60867" lon="-6.25786">
        <ele>1042.6</ele>
        <time>2023-06-15T18:12:20.000+02:00</time>
      </trkpt>
      <trkpt lat="42.60884" lon="-6.25854">
        <ele>1039.4</ele>
        <time>2023-06-15T18:12:28.000+02:00</time>
      </trkpt>
      <trkpt lat="42.60809" lon="-6.25935">
        <ele>1034.6</ele>
        <time>2023-06-15T18:12:43.000+02:00</time>
      </trkpt>
      <trkpt lat="42.60823" lon="-6.26111">
        <ele>1031.1</ele>
        <time>2023-06-15T18:13:03.000+02:00</time>
      </trkpt>
      <trkpt lat="42.60816" lon="-6.26139">
        <ele>1030.3</ele>
        <time>2023-06-15T18:13:06.000+02:00</time>
      </trkpt>
      <trkpt lat="42.60796" lon="-6.26083">
        <ele>1025.6</ele>
        <time>2023-06-15T18:13:13.000+02:00</time>
      </trkpt>
      <trkpt lat="42.60764" lon="-6.26087">
        <ele>1021.1</ele>
        <time>2023-06-15T18:13:18.000+02:00</time>
      </trkpt>
      <trkpt lat="42.60679" lon="-6.26402">
        <ele>1011.3</ele>
        <time>2023-06-15T18:13:56.000+02:00</time>
      </trkpt>
      <trkpt lat="42.60665" lon="-6.26561">
        <ele>998.4</ele>
        <time>2023-06-15T18:14:14.000+02:00</time>
      </trkpt>
      <trkpt lat="42.606" lon="-6.26737">
        <ele>967.5</ele>
        <time>2023-06-15T18:14:36.000+02:00</time>
      </trkpt>
      <trkpt lat="42.60608" lon="-6.26975">
        <ele>983.4</ele>
        <time>2023-06-15T18:15:03.000+02:00</time>
      </trkpt>
      <trkpt lat="42.60573" lon="-6.27051">
        <ele>980.7</ele>
        <time>2023-06-15T18:15:13.000+02:00</time>
      </trkpt>
      <trkpt lat="42.60609" lon="-6.27219">
        <ele>982.1</ele>
        <time>2023-06-15T18:15:33.000+02:00</time>
      </trkpt>
      <trkpt lat="42.60593" lon="-6.27434">
        <ele>974.6</ele>
        <time>2023-06-15T18:15:57.000+02:00</time>
      </trkpt>
      <trkpt lat="42.60654" lon="-6.27439">
        <ele>969.8</ele>
        <time>2023-06-15T18:16:06.000+02:00</time>
      </trkpt>
      <trkpt lat="42.60646" lon="-6.2738">
        <ele>973.8</ele>
        <time>2023-06-15T18:16:13.000+02:00</time>
      </trkpt>
      <trkpt lat="42.6072" lon="-6.27311">
        <ele>954.5</ele>
        <time>2023-06-15T18:16:27.000+02:00</time>
      </trkpt>
      <trkpt lat="42.60725" lon="-6.27225">
        <ele>943.7</ele>
        <time>2023-06-15T18:16:36.000+02:00</time>
      </trkpt>
      <trkpt lat="42.60812" lon="-6.27119">
        <ele>919.3</ele>
        <time>2023-06-15T18:16:54.000+02:00</time>
      </trkpt>
      <trkpt lat="42.60882" lon="-6.27136">
        <ele>901.6</ele>
        <time>2023-06-15T18:17:05.000+02:00</time>
      </trkpt>
      <trkpt lat="42.60963" lon="-6.27267">
        <ele>871.9</ele>
        <time>2023-06-15T18:17:24.000+02:00</time>
      </trkpt>
      <trkpt lat="42.61011" lon="-6.27272">
        <ele>869</ele>
        <time>2023-06-15T18:17:32.000+02:00</time>
      </trkpt>
      <trkpt lat="42.60969" lon="-6.27369">
        <ele>862.1</ele>
        <time>2023-06-15T18:17:44.000+02:00</time>
      </trkpt>
      <trkpt lat="42.61023" lon="-6.27462">
        <ele>857.8</ele>
        <time>2023-06-15T18:17:58.000+02:00</time>
      </trkpt>
      <trkpt lat="42.61042" lon="-6.27545">
        <ele>847.4</ele>
        <time>2023-06-15T18:18:07.000+02:00</time>
      </trkpt>
      <trkpt lat="42.61242" lon="-6.2767">
        <ele>830.8</ele>
        <time>2023-06-15T18:18:41.000+02:00</time>
      </trkpt>
      <trkpt lat="42.61317" lon="-6.2777">
        <ele>828</ele>
        <time>2023-06-15T18:18:57.000+02:00</time>
      </trkpt>
      <trkpt lat="42.61363" lon="-6.27908">
        <ele>825.5</ele>
        <time>2023-06-15T18:19:14.000+02:00</time>
      </trkpt>
      <trkpt lat="42.61378" lon="-6.27905">
        <ele>823.8</ele>
        <time>2023-06-15T18:19:17.000+02:00</time>
      </trkpt>
      <trkpt lat="42.61381" lon="-6.27828">
        <ele>827.1</ele>
        <time>2023-06-15T18:19:25.000+02:00</time>
      </trkpt>
      <trkpt lat="42.61412" lon="-6.2783">
        <ele>826.9</ele>
        <time>2023-06-15T18:19:30.000+02:00</time>
      </trkpt>
      <trkpt lat="42.61442" lon="-6.2789">
        <ele>822.6</ele>
        <time>2023-06-15T18:19:38.000+02:00</time>
      </trkpt>
      <trkpt lat="42.61516" lon="-6.27942">
        <ele>822.5</ele>
        <time>2023-06-15T18:19:51.000+02:00</time>
      </trkpt>
      <trkpt lat="42.61533" lon="-6.27998">
        <ele>817.1</ele>
        <time>2023-06-15T18:19:58.000+02:00</time>
      </trkpt>
      <trkpt lat="42.61634" lon="-6.2813">
        <ele>799.2</ele>
        <time>2023-06-15T18:20:19.000+02:00</time>
      </trkpt>
      <trkpt lat="42.61706" lon="-6.28127">
        <ele>795.1</ele>
        <time>2023-06-15T18:20:30.000+02:00</time>
      </trkpt>
      <trkpt lat="42.61653" lon="-6.282">
        <ele>786.6</ele>
        <time>2023-06-15T18:20:42.000+02:00</time>
      </trkpt>
      <trkpt lat="42.61673" lon="-6.28344">
        <ele>776.3</ele>
        <time>2023-06-15T18:20:58.000+02:00</time>
      </trkpt>
      <trkpt lat="42.61795" lon="-6.28277">
        <ele>774.7</ele>
        <time>2023-06-15T18:21:18.000+02:00</time>
      </trkpt>
      <trkpt lat="42.62088" lon="-6.28266">
        <ele>777</ele>
        <time>2023-06-15T18:22:03.000+02:00</time>
      </trkpt>
      <trkpt lat="42.62226" lon="-6.28193">
        <ele>776.1</ele>
        <time>2023-06-15T18:22:26.000+02:00</time>
      </trkpt>
      <trkpt lat="42.62282" lon="-6.28103">
        <ele>777.1</ele>
        <time>2023-06-15T18:22:39.000+02:00</time>
      </trkpt>
      <trkpt lat="42.62455" lon="-6.27975">
        <ele>783.2</ele>
        <time>2023-06-15T18:23:09.000+02:00</time>
      </trkpt>
      <trkpt lat="42.6253" lon="-6.28006">
        <ele>782.6</ele>
        <time>2023-06-15T18:23:21.000+02:00</time>
      </trkpt>
      <trkpt lat="42.62564" lon="-6.2796">
        <ele>784.3</ele>
        <time>2023-06-15T18:23:28.000+02:00</time>
      </trkpt>
      <trkpt lat="42.6268" lon="-6.28023">
        <ele>782.3</ele>
        <time>2023-06-15T18:23:47.000+02:00</time>
      </trkpt>
      <trkpt lat="42.62803" lon="-6.27988">
        <ele>784.9</ele>
        <time>2023-06-15T18:24:07.000+02:00</time>
      </trkpt>
      <trkpt lat="42.62816" lon="-6.28024">
        <ele>781</ele>
        <time>2023-06-15T18:24:11.000+02:00</time>
      </trkpt>
      <trkpt lat="42.62648" lon="-6.28169">
        <ele>790.7</ele>
        <time>2023-06-15T18:24:42.000+02:00</time>
      </trkpt>
      <trkpt lat="42.62531" lon="-6.28198">
        <ele>802</ele>
        <time>2023-06-15T18:25:00.000+02:00</time>
      </trkpt>
      <trkpt lat="42.62454" lon="-6.28185">
        <ele>799.1</ele>
        <time>2023-06-15T18:25:12.000+02:00</time>
      </trkpt>
      <trkpt lat="42.62434" lon="-6.28258">
        <ele>809.9</ele>
        <time>2023-06-15T18:25:20.000+02:00</time>
      </trkpt>
      <trkpt lat="42.62498" lon="-6.28207">
        <ele>809.4</ele>
        <time>2023-06-15T18:25:32.000+02:00</time>
      </trkpt>
      <trkpt lat="42.62507" lon="-6.28229">
        <ele>813.1</ele>
        <time>2023-06-15T18:25:34.000+02:00</time>
      </trkpt>
      <trkpt lat="42.62443" lon="-6.28339">
        <ele>825.2</ele>
        <time>2023-06-15T18:25:50.000+02:00</time>
      </trkpt>
      <trkpt lat="42.62392" lon="-6.28346">
        <ele>821.3</ele>
        <time>2023-06-15T18:25:58.000+02:00</time>
      </trkpt>
      <trkpt lat="42.62354" lon="-6.28388">
        <ele>829.4</ele>
        <time>2023-06-15T18:26:06.000+02:00</time>
      </trkpt>
      <trkpt lat="42.62414" lon="-6.28435">
        <ele>835.3</ele>
        <time>2023-06-15T18:26:16.000+02:00</time>
      </trkpt>
      <trkpt lat="42.62418" lon="-6.28634">
        <ele>854</ele>
        <time>2023-06-15T18:26:38.000+02:00</time>
      </trkpt>
      <trkpt lat="42.62518" lon="-6.28647">
        <ele>855.8</ele>
        <time>2023-06-15T18:26:54.000+02:00</time>
      </trkpt>
      <trkpt lat="42.6256" lon="-6.28871">
        <ele>856.9</ele>
        <time>2023-06-15T18:27:20.000+02:00</time>
      </trkpt>
      <trkpt lat="42.6254" lon="-6.29063">
        <ele>873.7</ele>
        <time>2023-06-15T18:27:42.000+02:00</time>
      </trkpt>
      <trkpt lat="42.62551" lon="-6.29169">
        <ele>884.2</ele>
        <time>2023-06-15T18:27:54.000+02:00</time>
      </trkpt>
      <trkpt lat="42.62382" lon="-6.29424">
        <ele>913.7</ele>
        <time>2023-06-15T18:28:32.000+02:00</time>
      </trkpt>
      <trkpt lat="42.62432" lon="-6.29686">
        <ele>927.7</ele>
        <time>2023-06-15T18:29:03.000+02:00</time>
      </trkpt>
      <trkpt lat="42.62445" lon="-6.29618">
        <ele>926.3</ele>
        <time>2023-06-15T18:29:11.000+02:00</time>
      </trkpt>
      <trkpt lat="42.62515" lon="-6.29541">
        <ele>937.4</ele>
        <time>2023-06-15T18:29:24.000+02:00</time>
      </trkpt>
      <trkpt lat="42.62721" lon="-6.29485">
        <ele>950.7</ele>
        <time>2023-06-15T18:29:57.000+02:00</time>
      </trkpt>
      <trkpt lat="42.62784" lon="-6.29414">
        <ele>957.3</ele>
        <time>2023-06-15T18:30:09.000+02:00</time>
      </trkpt>
      <trkpt lat="42.62883" lon="-6.29435">
        <ele>958.7</ele>
        <time>2023-06-15T18:30:24.000+02:00</time>
      </trkpt>
      <trkpt lat="42.62966" lon="-6.29404">
        <ele>962.9</ele>
        <time>2023-06-15T18:30:38.000+02:00</time>
      </trkpt>
      <trkpt lat="42.63031" lon="-6.29193">
        <ele>967.4</ele>
        <time>2023-06-15T18:31:03.000+02:00</time>
      </trkpt>
      <trkpt lat="42.63065" lon="-6.29153">
        <ele>965.1</ele>
        <time>2023-06-15T18:31:10.000+02:00</time>
      </trkpt>
      <trkpt lat="42.63321" lon="-6.29253">
        <ele>995.1</ele>
        <time>2023-06-15T18:31:51.000+02:00</time>
      </trkpt>
      <trkpt lat="42.63363" lon="-6.291">
        <ele>1005.2</ele>
        <time>2023-06-15T18:32:09.000+02:00</time>
      </trkpt>
      <trkpt lat="42.63435" lon="-6.28982">
        <ele>1010.5</ele>
        <time>2023-06-15T18:32:26.000+02:00</time>
      </trkpt>
      <trkpt lat="42.63527" lon="-6.28952">
        <ele>1013.3</ele>
        <time>2023-06-15T18:32:41.000+02:00</time>
      </trkpt>
      <trkpt lat="42.63666" lon="-6.28993">
        <ele>1017.7</ele>
        <time>2023-06-15T18:33:03.000+02:00</time>
      </trkpt>
      <trkpt lat="42.63683" lon="-6.28847">
        <ele>1022.1</ele>
        <time>2023-06-15T18:33:19.000+02:00</time>
      </trkpt>
      <trkpt lat="42.63733" lon="-6.28725">
        <ele>1019.8</ele>
        <time>2023-06-15T18:33:35.000+02:00</time>
      </trkpt>
      <trkpt lat="42.63799" lon="-6.28659">
        <ele>1019.8</ele>
        <time>2023-06-15T18:33:48.000+02:00</time>
      </trkpt>
      <trkpt lat="42.63937" lon="-6.28602">
        <ele>1022.2</ele>
        <time>2023-06-15T18:34:10.000+02:00</time>
      </trkpt>
      <trkpt lat="42.63956" lon="-6.28617">
        <ele>1019.8</ele>
        <time>2023-06-15T18:34:13.000+02:00</time>
      </trkpt>
      <trkpt lat="42.63978" lon="-6.28775">
        <ele>1017</ele>
        <time>2023-06-15T18:34:31.000+02:00</time>
      </trkpt>
      <trkpt lat="42.64047" lon="-6.28792">
        <ele>1015.1</ele>
        <time>2023-06-15T18:34:42.000+02:00</time>
      </trkpt>
      <trkpt lat="42.6415" lon="-6.28739">
        <ele>1018.3</ele>
        <time>2023-06-15T18:34:59.000+02:00</time>
      </trkpt>
      <trkpt lat="42.64191" lon="-6.28876">
        <ele>1030.4</ele>
        <time>2023-06-15T18:35:15.000+02:00</time>
      </trkpt>
      <trkpt lat="42.64283" lon="-6.2897">
        <ele>1041.4</ele>
        <time>2023-06-15T18:35:33.000+02:00</time>
      </trkpt>
      <trkpt lat="42.64308" lon="-6.2911">
        <ele>1013.8</ele>
        <time>2023-06-15T18:35:49.000+02:00</time>
      </trkpt>
      <trkpt lat="42.64301" lon="-6.29242">
        <ele>996</ele>
        <time>2023-06-15T18:36:04.000+02:00</time>
      </trkpt>
      <trkpt lat="42.64365" lon="-6.29372">
        <ele>964.2</ele>
        <time>2023-06-15T18:36:21.000+02:00</time>
      </trkpt>
      <trkpt lat="42.64391" lon="-6.29534">
        <ele>932.2</ele>
        <time>2023-06-15T18:36:40.000+02:00</time>
      </trkpt>
      <trkpt lat="42.6436" lon="-6.29603">
        <ele>931.3</ele>
        <time>2023-06-15T18:36:49.000+02:00</time>
      </trkpt>
      <trkpt lat="42.64367" lon="-6.2979">
        <ele>935.9</ele>
        <time>2023-06-15T18:37:10.000+02:00</time>
      </trkpt>
      <trkpt lat="42.64412" lon="-6.29998">
        <ele>931.2</ele>
        <time>2023-06-15T18:37:34.000+02:00</time>
      </trkpt>
      <trkpt lat="42.64346" lon="-6.30032">
        <ele>918.5</ele>
        <time>2023-06-15T18:37:45.000+02:00</time>
      </trkpt>
      <trkpt lat="42.64313" lon="-6.3011">
        <ele>909.3</ele>
        <time>2023-06-15T18:37:55.000+02:00</time>
      </trkpt>
      <trkpt lat="42.64276" lon="-6.30313">
        <ele>894.5</ele>
        <time>2023-06-15T18:38:19.000+02:00</time>
      </trkpt>
      <trkpt lat="42.64105" lon="-6.30801">
        <ele>877.1</ele>
        <time>2023-06-15T18:39:20.000+02:00</time>
      </trkpt>
      <trkpt lat="42.64078" lon="-6.31209">
        <ele>850.9</ele>
        <time>2023-06-15T18:40:06.000+02:00</time>
      </trkpt>
      <trkpt lat="42.64097" lon="-6.31427">
        <ele>837.9</ele>
        <time>2023-06-15T18:40:30.000+02:00</time>
      </trkpt>
      <trkpt lat="42.64053" lon="-6.31626">
        <ele>819</ele>
        <time>2023-06-15T18:40:54.000+02:00</time>
      </trkpt>
      <trkpt lat="42.64071" lon="-6.31753">
        <ele>807.7</ele>
        <time>2023-06-15T18:41:08.000+02:00</time>
      </trkpt>
      <trkpt lat="42.64146" lon="-6.31839">
        <ele>796.8</ele>
        <time>2023-06-15T18:41:23.000+02:00</time>
      </trkpt>
      <trkpt lat="42.64221" lon="-6.31845">
        <ele>789.3</ele>
        <time>2023-06-15T18:41:35.000+02:00</time>
      </trkpt>
      <trkpt lat="42.64273" lon="-6.3181">
        <ele>781.8</ele>
        <time>2023-06-15T18:41:43.000+02:00</time>
      </trkpt>
      <trkpt lat="42.6432" lon="-6.32012">
        <ele>771.3</ele>
        <time>2023-06-15T18:42:07.000+02:00</time>
      </trkpt>
      <trkpt lat="42.64301" lon="-6.32128">
        <ele>766</ele>
        <time>2023-06-15T18:42:21.000+02:00</time>
      </trkpt>
      <trkpt lat="42.64197" lon="-6.32393">
        <ele>760</ele>
        <time>2023-06-15T18:42:54.000+02:00</time>
      </trkpt>
      <trkpt lat="42.63904" lon="-6.32729">
        <ele>752.1</ele>
        <time>2023-06-15T18:43:53.000+02:00</time>
      </trkpt>
      <trkpt lat="42.63884" lon="-6.32807">
        <ele>746.5</ele>
        <time>2023-06-15T18:44:02.000+02:00</time>
      </trkpt>
      <trkpt lat="42.63892" lon="-6.32875">
        <ele>748.9</ele>
        <time>2023-06-15T18:44:10.000+02:00</time>
      </trkpt>
      <trkpt lat="42.63929" lon="-6.3293">
        <ele>752.5</ele>
        <time>2023-06-15T18:44:18.000+02:00</time>
      </trkpt>
      <trkpt lat="42.63862" lon="-6.33029">
        <ele>764.1</ele>
        <time>2023-06-15T18:44:33.000+02:00</time>
      </trkpt>
      <trkpt lat="42.63842" lon="-6.33109">
        <ele>765.3</ele>
        <time>2023-06-15T18:44:43.000+02:00</time>
      </trkpt>
      <trkpt lat="42.63902" lon="-6.33323">
        <ele>773.4</ele>
        <time>2023-06-15T18:45:09.000+02:00</time>
      </trkpt>
      <trkpt lat="42.63878" lon="-6.33549">
        <ele>792.1</ele>
        <time>2023-06-15T18:45:34.000+02:00</time>
      </trkpt>
      <trkpt lat="42.63718" lon="-6.33666">
        <ele>811.6</ele>
        <time>2023-06-15T18:46:02.000+02:00</time>
      </trkpt>
      <trkpt lat="42.63668" lon="-6.3375">
        <ele>821.3</ele>
        <time>2023-06-15T18:46:14.000+02:00</time>
      </trkpt>
      <trkpt lat="42.63575" lon="-6.33826">
        <ele>832.9</ele>
        <time>2023-06-15T18:46:31.000+02:00</time>
      </trkpt>
      <trkpt lat="42.63516" lon="-6.33932">
        <ele>842.9</ele>
        <time>2023-06-15T18:46:46.000+02:00</time>
      </trkpt>
      <trkpt lat="42.63552" lon="-6.34004">
        <ele>849</ele>
        <time>2023-06-15T18:46:56.000+02:00</time>
      </trkpt>
      <trkpt lat="42.63599" lon="-6.33962">
        <ele>850.6</ele>
        <time>2023-06-15T18:47:04.000+02:00</time>
      </trkpt>
      <trkpt lat="42.63652" lon="-6.34301">
        <ele>851.5</ele>
        <time>2023-06-15T18:47:43.000+02:00</time>
      </trkpt>
      <trkpt lat="42.63729" lon="-6.34492">
        <ele>854.2</ele>
        <time>2023-06-15T18:48:08.000+02:00</time>
      </trkpt>
      <trkpt lat="42.63809" lon="-6.34615">
        <ele>855.1</ele>
        <time>2023-06-15T18:48:26.000+02:00</time>
      </trkpt>
      <trkpt lat="42.63767" lon="-6.3467">
        <ele>854</ele>
        <time>2023-06-15T18:48:35.000+02:00</time>
      </trkpt>
      <trkpt lat="42.63804" lon="-6.34763">
        <ele>853</ele>
        <time>2023-06-15T18:48:47.000+02:00</time>
      </trkpt>
      <trkpt lat="42.63728" lon="-6.34982">
        <ele>847.9</ele>
        <time>2023-06-15T18:49:14.000+02:00</time>
      </trkpt>
      <trkpt lat="42.63617" lon="-6.35151">
        <ele>844.6</ele>
        <time>2023-06-15T18:49:39.000+02:00</time>
      </trkpt>
      <trkpt lat="42.63481" lon="-6.35436">
        <ele>839</ele>
        <time>2023-06-15T18:50:18.000+02:00</time>
      </trkpt>
      <trkpt lat="42.63432" lon="-6.35583">
        <ele>836.5</ele>
        <time>2023-06-15T18:50:36.000+02:00</time>
      </trkpt>
      <trkpt lat="42.63475" lon="-6.35619">
        <ele>835.9</ele>
        <time>2023-06-15T18:50:43.000+02:00</time>
      </trkpt>
      <trkpt lat="42.6329" lon="-6.35702">
        <ele>833.9</ele>
        <time>2023-06-15T18:51:13.000+02:00</time>
      </trkpt>
      <trkpt lat="42.6316" lon="-6.36199">
        <ele>825.1</ele>
        <time>2023-06-15T18:52:13.000+02:00</time>
      </trkpt>
      <trkpt lat="42.63106" lon="-6.36268">
        <ele>825</ele>
        <time>2023-06-15T18:52:24.000+02:00</time>
      </trkpt>
      <trkpt lat="42.63105" lon="-6.36675">
        <ele>820</ele>
        <time>2023-06-15T18:53:10.000+02:00</time>
      </trkpt>
      <trkpt lat="42.63083" lon="-6.3681">
        <ele>816.8</ele>
        <time>2023-06-15T18:53:25.000+02:00</time>
      </trkpt>
      <trkpt lat="42.63177" lon="-6.36904">
        <ele>798.9</ele>
        <time>2023-06-15T18:53:43.000+02:00</time>
      </trkpt>
      <trkpt lat="42.63237" lon="-6.36915">
        <ele>788.5</ele>
        <time>2023-06-15T18:53:52.000+02:00</time>
      </trkpt>
      <trkpt lat="42.63362" lon="-6.37096">
        <ele>779</ele>
        <time>2023-06-15T18:54:20.000+02:00</time>
      </trkpt>
      <trkpt lat="42.63459" lon="-6.37095">
        <ele>773</ele>
        <time>2023-06-15T18:54:35.000+02:00</time>
      </trkpt>
      <trkpt lat="42.63536" lon="-6.37149">
        <ele>762.8</ele>
        <time>2023-06-15T18:54:48.000+02:00</time>
      </trkpt>
      <trkpt lat="42.63554" lon="-6.37242">
        <ele>755.7</ele>
        <time>2023-06-15T18:54:59.000+02:00</time>
      </trkpt>
      <trkpt lat="42.63596" lon="-6.37286">
        <ele>749.9</ele>
        <time>2023-06-15T18:55:07.000+02:00</time>
      </trkpt>
      <trkpt lat="42.638" lon="-6.37226">
        <ele>731.1</ele>
        <time>2023-06-15T18:55:39.000+02:00</time>
      </trkpt>
      <trkpt lat="42.63712" lon="-6.38193">
        <ele>714.5</ele>
        <time>2023-06-15T18:57:28.000+02:00</time>
      </trkpt>
      <trkpt lat="42.63716" lon="-6.38545">
        <ele>698.6</ele>
        <time>2023-06-15T18:58:08.000+02:00</time>
      </trkpt>
      <trkpt lat="42.63455" lon="-6.39025">
        <ele>692.8</ele>
        <time>2023-06-15T18:59:15.000+02:00</time>
      </trkpt>
      <trkpt lat="42.6345" lon="-6.39086">
        <ele>690.8</ele>
        <time>2023-06-15T18:59:22.000+02:00</time>
      </trkpt>
      <trkpt lat="42.63334" lon="-6.39328">
        <ele>685</ele>
        <time>2023-06-15T18:59:54.000+02:00</time>
      </trkpt>
      <trkpt lat="42.63307" lon="-6.39342">
        <ele>685</ele>
        <time>2023-06-15T18:59:59.000+02:00</time>
      </trkpt>
      <trkpt lat="42.63376" lon="-6.39409">
        <ele>689.2</ele>
        <time>2023-06-15T19:00:12.000+02:00</time>
      </trkpt>
      <trkpt lat="42.63338" lon="-6.3953">
        <ele>700.1</ele>
        <time>2023-06-15T19:00:27.000+02:00</time>
      </trkpt>
      <trkpt lat="42.63298" lon="-6.39571">
        <ele>698.2</ele>
        <time>2023-06-15T19:00:35.000+02:00</time>
      </trkpt>
      <trkpt lat="42.63338" lon="-6.39702">
        <ele>689.4</ele>
        <time>2023-06-15T19:00:51.000+02:00</time>
      </trkpt>
      <trkpt lat="42.63371" lon="-6.40102">
        <ele>672</ele>
        <time>2023-06-15T19:01:36.000+02:00</time>
      </trkpt>
      <trkpt lat="42.63422" lon="-6.40186">
        <ele>670.3</ele>
        <time>2023-06-15T19:01:48.000+02:00</time>
      </trkpt>
      <trkpt lat="42.63277" lon="-6.4025">
        <ele>676.1</ele>
        <time>2023-06-15T19:02:11.000+02:00</time>
      </trkpt>
      <trkpt lat="42.6309" lon="-6.40257">
        <ele>684.7</ele>
        <time>2023-06-15T19:02:40.000+02:00</time>
      </trkpt>
      <trkpt lat="42.6299" lon="-6.40214">
        <ele>690.2</ele>
        <time>2023-06-15T19:02:56.000+02:00</time>
      </trkpt>
      <trkpt lat="42.62964" lon="-6.40589">
        <ele>702.6</ele>
        <time>2023-06-15T19:03:38.000+02:00</time>
      </trkpt>
      <trkpt lat="42.62911" lon="-6.40742">
        <ele>714</ele>
        <time>2023-06-15T19:03:57.000+02:00</time>
      </trkpt>
      <trkpt lat="42.62943" lon="-6.40884">
        <ele>722.2</ele>
        <time>2023-06-15T19:04:14.000+02:00</time>
      </trkpt>
      <trkpt lat="42.62867" lon="-6.41014">
        <ele>731.5</ele>
        <time>2023-06-15T19:04:33.000+02:00</time>
      </trkpt>
      <trkpt lat="42.62954" lon="-6.4118">
        <ele>720.6</ele>
        <time>2023-06-15T19:04:56.000+02:00</time>
      </trkpt>
      <trkpt lat="42.62957" lon="-6.41338">
        <ele>705.1</ele>
        <time>2023-06-15T19:05:13.000+02:00</time>
      </trkpt>
      <trkpt lat="42.63088" lon="-6.41638">
        <ele>676.6</ele>
        <time>2023-06-15T19:05:53.000+02:00</time>
      </trkpt>
      <trkpt lat="42.63139" lon="-6.41868">
        <ele>650.8</ele>
        <time>2023-06-15T19:06:20.000+02:00</time>
      </trkpt>
      <trkpt lat="42.63262" lon="-6.41919">
        <ele>650.3</ele>
        <time>2023-06-15T19:06:39.000+02:00</time>
      </trkpt>
      <trkpt lat="42.63381" lon="-6.4191">
        <ele>663</ele>
        <time>2023-06-15T19:06:57.000+02:00</time>
      </trkpt>
      <trkpt lat="42.63525" lon="-6.41828">
        <ele>674.2</ele>
        <time>2023-06-15T19:07:21.000+02:00</time>
      </trkpt>
      <trkpt lat="42.63886" lon="-6.41753">
        <ele>679.9</ele>
        <time>2023-06-15T19:08:17.000+02:00</time>
      </trkpt>
      <trkpt lat="42.64078" lon="-6.41623">
        <ele>684.5</ele>
        <time>2023-06-15T19:08:50.000+02:00</time>
      </trkpt>
      <trkpt lat="42.64113" lon="-6.41619">
        <ele>685</ele>
        <time>2023-06-15T19:08:55.000+02:00</time>
      </trkpt>
      <trkpt lat="42.64124" lon="-6.41696">
        <ele>682.3</ele>
        <time>2023-06-15T19:09:04.000+02:00</time>
      </trkpt>
      <trkpt lat="42.64186" lon="-6.41697">
        <ele>681</ele>
        <time>2023-06-15T19:09:13.000+02:00</time>
      </trkpt>
      <trkpt lat="42.6409" lon="-6.4185">
        <ele>662.4</ele>
        <time>2023-06-15T19:09:36.000+02:00</time>
      </trkpt>
      <trkpt lat="42.64058" lon="-6.41864">
        <ele>660.9</ele>
        <time>2023-06-15T19:09:41.000+02:00</time>
      </trkpt>
      <trkpt lat="42.64074" lon="-6.41941">
        <ele>657.5</ele>
        <time>2023-06-15T19:09:50.000+02:00</time>
      </trkpt>
      <trkpt lat="42.63987" lon="-6.42069">
        <ele>653</ele>
        <time>2023-06-15T19:10:10.000+02:00</time>
      </trkpt>
      <trkpt lat="42.64011" lon="-6.42128">
        <ele>649.5</ele>
        <time>2023-06-15T19:10:18.000+02:00</time>
      </trkpt>
      <trkpt lat="42.63982" lon="-6.42146">
        <ele>648.3</ele>
        <time>2023-06-15T19:10:22.000+02:00</time>
      </trkpt>
      <trkpt lat="42.63982" lon="-6.42249">
        <ele>647.8</ele>
        <time>2023-06-15T19:10:34.000+02:00</time>
      </trkpt>
      <trkpt lat="42.64016" lon="-6.42286">
        <ele>649</ele>
        <time>2023-06-15T19:10:41.000+02:00</time>
      </trkpt>
      <trkpt lat="42.64219" lon="-6.42237">
        <ele>656.8</ele>
        <time>2023-06-15T19:11:12.000+02:00</time>
      </trkpt>
      <trkpt lat="42.64257" lon="-6.42365">
        <ele>670.3</ele>
        <time>2023-06-15T19:11:28.000+02:00</time>
      </trkpt>
      <trkpt lat="42.64195" lon="-6.42533">
        <ele>692</ele>
        <time>2023-06-15T19:11:49.000+02:00</time>
      </trkpt>
      <trkpt lat="42.64219" lon="-6.42609">
        <ele>706.3</ele>
        <time>2023-06-15T19:11:58.000+02:00</time>
      </trkpt>
      <trkpt lat="42.64375" lon="-6.42627">
        <ele>735.1</ele>
        <time>2023-06-15T19:12:22.000+02:00</time>
      </trkpt>
      <trkpt lat="42.64297" lon="-6.42717">
        <ele>735</ele>
        <time>2023-06-15T19:12:38.000+02:00</time>
      </trkpt>
      <trkpt lat="42.64279" lon="-6.42819">
        <ele>738</ele>
        <time>2023-06-15T19:12:49.000+02:00</time>
      </trkpt>
      <trkpt lat="42.64454" lon="-6.42963">
        <ele>716</ele>
        <time>2023-06-15T19:13:21.000+02:00</time>
      </trkpt>
      <trkpt lat="42.64514" lon="-6.4328">
        <ele>702.4</ele>
        <time>2023-06-15T19:13:57.000+02:00</time>
      </trkpt>
      <trkpt lat="42.6449" lon="-6.43474">
        <ele>695.6</ele>
        <time>2023-06-15T19:14:20.000+02:00</time>
      </trkpt>
      <trkpt lat="42.64513" lon="-6.43628">
        <ele>690.9</ele>
        <time>2023-06-15T19:14:37.000+02:00</time>
      </trkpt>
      <trkpt lat="42.6462" lon="-6.4378">
        <ele>683.9</ele>
        <time>2023-06-15T19:15:01.000+02:00</time>
      </trkpt>
      <trkpt lat="42.6461" lon="-6.43895">
        <ele>684.6</ele>
        <time>2023-06-15T19:15:14.000+02:00</time>
      </trkpt>
      <trkpt lat="42.64641" lon="-6.43956">
        <ele>690.1</ele>
        <time>2023-06-15T19:15:22.000+02:00</time>
      </trkpt>
      <trkpt lat="42.64519" lon="-6.44013">
        <ele>700.1</ele>
        <time>2023-06-15T19:15:42.000+02:00</time>
      </trkpt>
      <trkpt lat="42.64441" lon="-6.44158">
        <ele>704.6</ele>
        <time>2023-06-15T19:16:02.000+02:00</time>
      </trkpt>
      <trkpt lat="42.64422" lon="-6.44261">
        <ele>707.7</ele>
        <time>2023-06-15T19:16:14.000+02:00</time>
      </trkpt>
      <trkpt lat="42.64435" lon="-6.44306">
        <ele>708.7</ele>
        <time>2023-06-15T19:16:20.000+02:00</time>
      </trkpt>
      <trkpt lat="42.64469" lon="-6.44294">
        <ele>710.4</ele>
        <time>2023-06-15T19:16:25.000+02:00</time>
      </trkpt>
      <trkpt lat="42.64533" lon="-6.44333">
        <ele>712.2</ele>
        <time>2023-06-15T19:16:36.000+02:00</time>
      </trkpt>
      <trkpt lat="42.64542" lon="-6.44544">
        <ele>721.1</ele>
        <time>2023-06-15T19:16:59.000+02:00</time>
      </trkpt>
      <trkpt lat="42.64455" lon="-6.45109">
        <ele>725.6</ele>
        <time>2023-06-15T19:18:04.000+02:00</time>
      </trkpt>
      <trkpt lat="42.6428" lon="-6.44982">
        <ele>712.2</ele>
        <time>2023-06-15T19:18:35.000+02:00</time>
      </trkpt>
      <trkpt lat="42.64287" lon="-6.45116">
        <ele>709.6</ele>
        <time>2023-06-15T19:18:50.000+02:00</time>
      </trkpt>
      <trkpt lat="42.64212" lon="-6.45499">
        <ele>708.3</ele>
        <time>2023-06-15T19:19:34.000+02:00</time>
      </trkpt>
      <trkpt lat="42.64224" lon="-6.45546">
        <ele>705.8</ele>
        <time>2023-06-15T19:19:40.000+02:00</time>
      </trkpt>
      <trkpt lat="42.64162" lon="-6.45576">
        <ele>707</ele>
        <time>2023-06-15T19:19:50.000+02:00</time>
      </trkpt>
      <trkpt lat="42.64213" lon="-6.45722">
        <ele>712.6</ele>
        <time>2023-06-15T19:20:08.000+02:00</time>
      </trkpt>
      <trkpt lat="42.64188" lon="-6.45853">
        <ele>722.1</ele>
        <time>2023-06-15T19:20:23.000+02:00</time>
      </trkpt>
      <trkpt lat="42.64262" lon="-6.46248">
        <ele>741.7</ele>
        <time>2023-06-15T19:21:09.000+02:00</time>
      </trkpt>
      <trkpt lat="42.64264" lon="-6.46503">
        <ele>749.7</ele>
        <time>2023-06-15T19:21:38.000+02:00</time>
      </trkpt>
      <trkpt lat="42.64278" lon="-6.46577">
        <ele>755.5</ele>
        <time>2023-06-15T19:21:46.000+02:00</time>
      </trkpt>
      <trkpt lat="42.64333" lon="-6.46618">
        <ele>760</ele>
        <time>2023-06-15T19:21:56.000+02:00</time>
      </trkpt>
      <trkpt lat="42.6436" lon="-6.46681">
        <ele>765.7</ele>
        <time>2023-06-15T19:22:04.000+02:00</time>
      </trkpt>
      <trkpt lat="42.64495" lon="-6.47788">
        <ele>825.4</ele>
        <time>2023-06-15T19:24:10.000+02:00</time>
      </trkpt>
      <trkpt lat="42.64614" lon="-6.479">
        <ele>830.5</ele>
        <time>2023-06-15T19:24:32.000+02:00</time>
      </trkpt>
      <trkpt lat="42.64896" lon="-6.48007">
        <ele>837.8</ele>
        <time>2023-06-15T19:25:17.000+02:00</time>
      </trkpt>
      <trkpt lat="42.64987" lon="-6.4799">
        <ele>840</ele>
        <time>2023-06-15T19:25:31.000+02:00</time>
      </trkpt>
      <trkpt lat="42.65068" lon="-6.47916">
        <ele>844.6</ele>
        <time>2023-06-15T19:25:46.000+02:00</time>
      </trkpt>
      <trkpt lat="42.6519" lon="-6.48066">
        <ele>835.9</ele>
        <time>2023-06-15T19:26:11.000+02:00</time>
      </trkpt>
      <trkpt lat="42.65207" lon="-6.48155">
        <ele>833.9</ele>
        <time>2023-06-15T19:26:22.000+02:00</time>
      </trkpt>
      <trkpt lat="42.65285" lon="-6.48318">
        <ele>822.9</ele>
        <time>2023-06-15T19:26:43.000+02:00</time>
      </trkpt>
      <trkpt lat="42.65341" lon="-6.48543">
        <ele>801.9</ele>
        <time>2023-06-15T19:27:10.000+02:00</time>
      </trkpt>
      <trkpt lat="42.653" lon="-6.4852">
        <ele>803</ele>
        <time>2023-06-15T19:27:17.000+02:00</time>
      </trkpt>
      <trkpt lat="42.65243" lon="-6.48537">
        <ele>797.2</ele>
        <time>2023-06-15T19:27:26.000+02:00</time>
      </trkpt>
      <trkpt lat="42.65164" lon="-6.48431">
        <ele>781.4</ele>
        <time>2023-06-15T19:27:43.000+02:00</time>
      </trkpt>
      <trkpt lat="42.65086" lon="-6.48379">
        <ele>769.9</ele>
        <time>2023-06-15T19:27:56.000+02:00</time>
      </trkpt>
      <trkpt lat="42.65035" lon="-6.48399">
        <ele>762.2</ele>
        <time>2023-06-15T19:28:04.000+02:00</time>
      </trkpt>
      <trkpt lat="42.65026" lon="-6.48554">
        <ele>747.6</ele>
        <time>2023-06-15T19:28:21.000+02:00</time>
      </trkpt>
      <trkpt lat="42.65035" lon="-6.48603">
        <ele>742.6</ele>
        <time>2023-06-15T19:28:27.000+02:00</time>
      </trkpt>
      <trkpt lat="42.65162" lon="-6.48786">
        <ele>728.8</ele>
        <time>2023-06-15T19:28:56.000+02:00</time>
      </trkpt>
      <trkpt lat="42.65181" lon="-6.48994">
        <ele>718.7</ele>
        <time>2023-06-15T19:29:19.000+02:00</time>
      </trkpt>
      <trkpt lat="42.65327" lon="-6.49207">
        <ele>699.6</ele>
        <time>2023-06-15T19:29:52.000+02:00</time>
      </trkpt>
      <trkpt lat="42.65278" lon="-6.49268">
        <ele>698.5</ele>
        <time>2023-06-15T19:30:02.000+02:00</time>
      </trkpt>
      <trkpt lat="42.65256" lon="-6.4939">
        <ele>698.1</ele>
        <time>2023-06-15T19:30:16.000+02:00</time>
      </trkpt>
      <trkpt lat="42.65216" lon="-6.49436">
        <ele>695.9</ele>
        <time>2023-06-15T19:30:24.000+02:00</time>
      </trkpt>
      <trkpt lat="42.65261" lon="-6.49536">
        <ele>687.6</ele>
        <time>2023-06-15T19:30:37.000+02:00</time>
      </trkpt>
      <trkpt lat="42.65284" lon="-6.4976">
        <ele>682</ele>
        <time>2023-06-15T19:31:03.000+02:00</time>
      </trkpt>
      <trkpt lat="42.65334" lon="-6.49919">
        <ele>676.5</ele>
        <time>2023-06-15T19:31:22.000+02:00</time>
      </trkpt>
      <trkpt lat="42.65426" lon="-6.5004">
        <ele>673.7</ele>
        <time>2023-06-15T19:31:42.000+02:00</time>
      </trkpt>
      <trkpt lat="42.65469" lon="-6.50173">
        <ele>694.8</ele>
        <time>2023-06-15T19:31:58.000+02:00</time>
      </trkpt>
      <trkpt lat="42.65547" lon="-6.50235">
        <ele>714</ele>
        <time>2023-06-15T19:32:12.000+02:00</time>
      </trkpt>
      <trkpt lat="42.6553" lon="-6.50407">
        <ele>716.3</ele>
        <time>2023-06-15T19:32:31.000+02:00</time>
      </trkpt>
      <trkpt lat="42.65491" lon="-6.50476">
        <ele>709.2</ele>
        <time>2023-06-15T19:32:41.000+02:00</time>
      </trkpt>
      <trkpt lat="42.6555" lon="-6.50687">
        <ele>701.4</ele>
        <time>2023-06-15T19:33:06.000+02:00</time>
      </trkpt>
      <trkpt lat="42.65691" lon="-6.50704">
        <ele>697.3</ele>
        <time>2023-06-15T19:33:28.000+02:00</time>
      </trkpt>
      <trkpt lat="42.65729" lon="-6.50665">
        <ele>700.2</ele>
        <time>2023-06-15T19:33:35.000+02:00</time>
      </trkpt>
      <trkpt lat="42.65815" lon="-6.50646">
        <ele>691.6</ele>
        <time>2023-06-15T19:33:49.000+02:00</time>
      </trkpt>
      <trkpt lat="42.65878" lon="-6.50574">
        <ele>684.5</ele>
        <time>2023-06-15T19:34:01.000+02:00</time>
      </trkpt>
      <trkpt lat="42.65924" lon="-6.50584">
        <ele>675.4</ele>
        <time>2023-06-15T19:34:08.000+02:00</time>
      </trkpt>
      <trkpt lat="42.65967" lon="-6.50557">
        <ele>672.5</ele>
        <time>2023-06-15T19:34:16.000+02:00</time>
      </trkpt>
      <trkpt lat="42.66018" lon="-6.50575">
        <ele>667.7</ele>
        <time>2023-06-15T19:34:24.000+02:00</time>
      </trkpt>
      <trkpt lat="42.66072" lon="-6.50543">
        <ele>665.5</ele>
        <time>2023-06-15T19:34:33.000+02:00</time>
      </trkpt>
      <trkpt lat="42.66204" lon="-6.5057">
        <ele>652.2</ele>
        <time>2023-06-15T19:34:53.000+02:00</time>
      </trkpt>
      <trkpt lat="42.66331" lon="-6.50411">
        <ele>648</ele>
        <time>2023-06-15T19:35:19.000+02:00</time>
      </trkpt>
      <trkpt lat="42.66413" lon="-6.50401">
        <ele>644.2</ele>
        <time>2023-06-15T19:35:32.000+02:00</time>
      </trkpt>
      <trkpt lat="42.66446" lon="-6.50428">
        <ele>641.3</ele>
        <time>2023-06-15T19:35:38.000+02:00</time>
      </trkpt>
      <trkpt lat="42.66507" lon="-6.50391">
        <ele>634.3</ele>
        <time>2023-06-15T19:35:48.000+02:00</time>
      </trkpt>
      <trkpt lat="42.66541" lon="-6.503">
        <ele>628.6</ele>
        <time>2023-06-15T19:36:00.000+02:00</time>
      </trkpt>
      <trkpt lat="42.66561" lon="-6.50318">
        <ele>626.4</ele>
        <time>2023-06-15T19:36:03.000+02:00</time>
      </trkpt>
      <trkpt lat="42.66636" lon="-6.50274">
        <ele>619.6</ele>
        <time>2023-06-15T19:36:16.000+02:00</time>
      </trkpt>
      <trkpt lat="42.66663" lon="-6.50287">
        <ele>617.8</ele>
        <time>2023-06-15T19:36:20.000+02:00</time>
      </trkpt>
      <trkpt lat="42.66591" lon="-6.50358">
        <ele>617.9</ele>
        <time>2023-06-15T19:36:34.000+02:00</time>
      </trkpt>
      <trkpt lat="42.66475" lon="-6.506">
        <ele>616.7</ele>
        <time>2023-06-15T19:37:06.000+02:00</time>
      </trkpt>
      <trkpt lat="42.66345" lon="-6.50762">
        <ele>613.9</ele>
        <time>2023-06-15T19:37:33.000+02:00</time>
      </trkpt>
      <trkpt lat="42.66306" lon="-6.50855">
        <ele>609.2</ele>
        <time>2023-06-15T19:37:45.000+02:00</time>
      </trkpt>
      <trkpt lat="42.66407" lon="-6.50826">
        <ele>610</ele>
        <time>2023-06-15T19:38:01.000+02:00</time>
      </trkpt>
      <trkpt lat="42.66454" lon="-6.50862">
        <ele>610.6</ele>
        <time>2023-06-15T19:38:09.000+02:00</time>
      </trkpt>
      <trkpt lat="42.66595" lon="-6.50823">
        <ele>612.1</ele>
        <time>2023-06-15T19:38:31.000+02:00</time>
      </trkpt>
      <trkpt lat="42.66705" lon="-6.5073">
        <ele>612.5</ele>
        <time>2023-06-15T19:38:51.000+02:00</time>
      </trkpt>
      <trkpt lat="42.66707" lon="-6.50694">
        <ele>613</ele>
        <time>2023-06-15T19:38:55.000+02:00</time>
      </trkpt>
      <trkpt lat="42.66842" lon="-6.50474">
        <ele>615</ele>
        <time>2023-06-15T19:39:27.000+02:00</time>
      </trkpt>
      <trkpt lat="42.67007" lon="-6.50402">
        <ele>615.5</ele>
        <time>2023-06-15T19:39:54.000+02:00</time>
      </trkpt>
      <trkpt lat="42.6697" lon="-6.50372">
        <ele>616</ele>
        <time>2023-06-15T19:40:00.000+02:00</time>
      </trkpt>
      <trkpt lat="42.66949" lon="-6.5012">
        <ele>625.2</ele>
        <time>2023-06-15T19:40:29.000+02:00</time>
      </trkpt>
      <trkpt lat="42.67173" lon="-6.50113">
        <ele>626.8</ele>
        <time>2023-06-15T19:41:03.000+02:00</time>
      </trkpt>
      <trkpt lat="42.67196" lon="-6.50065">
        <ele>631.9</ele>
        <time>2023-06-15T19:41:09.000+02:00</time>
      </trkpt>
      <trkpt lat="42.67188" lon="-6.49986">
        <ele>638.7</ele>
        <time>2023-06-15T19:41:18.000+02:00</time>
      </trkpt>
      <trkpt lat="42.67305" lon="-6.49991">
        <ele>631</ele>
        <time>2023-06-15T19:41:36.000+02:00</time>
      </trkpt>
      <trkpt lat="42.67828" lon="-6.50198">
        <ele>635.5</ele>
        <time>2023-06-15T19:42:59.000+02:00</time>
      </trkpt>
      <trkpt lat="42.68053" lon="-6.50381">
        <ele>644.9</ele>
        <time>2023-06-15T19:43:39.000+02:00</time>
      </trkpt>
      <trkpt lat="42.68161" lon="-6.5053">
        <ele>642.4</ele>
        <time>2023-06-15T19:44:03.000+02:00</time>
      </trkpt>
      <trkpt lat="42.6832" lon="-6.50624">
        <ele>640.5</ele>
        <time>2023-06-15T19:44:29.000+02:00</time>
      </trkpt>
      <trkpt lat="42.68657" lon="-6.50616">
        <ele>645</ele>
        <time>2023-06-15T19:45:21.000+02:00</time>
      </trkpt>
      <trkpt lat="42.68823" lon="-6.5053">
        <ele>651.5</ele>
        <time>2023-06-15T19:45:48.000+02:00</time>
      </trkpt>
      <trkpt lat="42.6921" lon="-6.50485">
        <ele>653.6</ele>
        <time>2023-06-15T19:46:47.000+02:00</time>
      </trkpt>
      <trkpt lat="42.69689" lon="-6.50633">
        <ele>649.2</ele>
        <time>2023-06-15T19:48:02.000+02:00</time>
      </trkpt>
      <trkpt lat="42.69827" lon="-6.5077">
        <ele>652</ele>
        <time>2023-06-15T19:48:29.000+02:00</time>
      </trkpt>
      <trkpt lat="42.69986" lon="-6.50815">
        <ele>653.3</ele>
        <time>2023-06-15T19:48:53.000+02:00</time>
      </trkpt>
      <trkpt lat="42.70056" lon="-6.50994">
        <ele>649.8</ele>
        <time>2023-06-15T19:49:16.000+02:00</time>
      </trkpt>
      <trkpt lat="42.70146" lon="-6.51038">
        <ele>650.1</ele>
        <time>2023-06-15T19:49:31.000+02:00</time>
      </trkpt>
      <trkpt lat="42.70339" lon="-6.51339">
        <ele>663.9</ele>
        <time>2023-06-15T19:50:16.000+02:00</time>
      </trkpt>
      <trkpt lat="42.701" lon="-6.5118">
        <ele>679.5</ele>
        <time>2023-06-15T19:50:56.000+02:00</time>
      </trkpt>
      <trkpt lat="42.69829" lon="-6.51339">
        <ele>683.5</ele>
        <time>2023-06-15T19:51:41.000+02:00</time>
      </trkpt>
      <trkpt lat="42.69788" lon="-6.51418">
        <ele>685.4</ele>
        <time>2023-06-15T19:51:52.000+02:00</time>
      </trkpt>
      <trkpt lat="42.69688" lon="-6.51523">
        <ele>689</ele>
        <time>2023-06-15T19:52:12.000+02:00</time>
      </trkpt>
      <trkpt lat="42.69507" lon="-6.51872">
        <ele>688.8</ele>
        <time>2023-06-15T19:53:00.000+02:00</time>
      </trkpt>
      <trkpt lat="42.69564" lon="-6.52063">
        <ele>669.1</ele>
        <time>2023-06-15T19:53:23.000+02:00</time>
      </trkpt>
      <trkpt lat="42.69377" lon="-6.52463">
        <ele>671.7</ele>
        <time>2023-06-15T19:54:16.000+02:00</time>
      </trkpt>
      <trkpt lat="42.69328" lon="-6.52719">
        <ele>677.9</ele>
        <time>2023-06-15T19:54:46.000+02:00</time>
      </trkpt>
      <trkpt lat="42.69331" lon="-6.52771">
        <ele>678.7</ele>
        <time>2023-06-15T19:54:52.000+02:00</time>
      </trkpt>
      <trkpt lat="42.69487" lon="-6.5282">
        <ele>680.8</ele>
        <time>2023-06-15T19:55:16.000+02:00</time>
      </trkpt>
      <trkpt lat="42.69404" lon="-6.52965">
        <ele>684.3</ele>
        <time>2023-06-15T19:55:37.000+02:00</time>
      </trkpt>
      <trkpt lat="42.6942" lon="-6.5299">
        <ele>684.7</ele>
        <time>2023-06-15T19:55:41.000+02:00</time>
      </trkpt>
      <trkpt lat="42.69406" lon="-6.53019">
        <ele>686.1</ele>
        <time>2023-06-15T19:55:44.000+02:00</time>
      </trkpt>
      <trkpt lat="42.69086" lon="-6.53424">
        <ele>704.6</ele>
        <time>2023-06-15T19:56:51.000+02:00</time>
      </trkpt>
      <trkpt lat="42.68959" lon="-6.5367">
        <ele>697.5</ele>
        <time>2023-06-15T19:57:25.000+02:00</time>
      </trkpt>
      <trkpt lat="42.68967" lon="-6.53764">
        <ele>693.7</ele>
        <time>2023-06-15T19:57:36.000+02:00</time>
      </trkpt>
      <trkpt lat="42.69051" lon="-6.53892">
        <ele>690.9</ele>
        <time>2023-06-15T19:57:55.000+02:00</time>
      </trkpt>
      <trkpt lat="42.69033" lon="-6.53949">
        <ele>690</ele>
        <time>2023-06-15T19:58:02.000+02:00</time>
      </trkpt>
      <trkpt lat="42.68927" lon="-6.53949">
        <ele>696.1</ele>
        <time>2023-06-15T19:58:18.000+02:00</time>
      </trkpt>
      <trkpt lat="42.68896" lon="-6.53979">
        <ele>698.7</ele>
        <time>2023-06-15T19:58:24.000+02:00</time>
      </trkpt>
      <trkpt lat="42.68943" lon="-6.54214">
        <ele>703.5</ele>
        <time>2023-06-15T19:58:51.000+02:00</time>
      </trkpt>
      <trkpt lat="42.68997" lon="-6.54199">
        <ele>714.4</ele>
        <time>2023-06-15T19:59:00.000+02:00</time>
      </trkpt>
      <trkpt lat="42.69047" lon="-6.54285">
        <ele>719.3</ele>
        <time>2023-06-15T19:59:12.000+02:00</time>
      </trkpt>
      <trkpt lat="42.6907" lon="-6.54503">
        <ele>732.6</ele>
        <time>2023-06-15T19:59:37.000+02:00</time>
      </trkpt>
      <trkpt lat="42.69149" lon="-6.54727">
        <ele>754.4</ele>
        <time>2023-06-15T20:00:05.000+02:00</time>
      </trkpt>
      <trkpt lat="42.69225" lon="-6.54814">
        <ele>760.1</ele>
        <time>2023-06-15T20:00:20.000+02:00</time>
      </trkpt>
      <trkpt lat="42.69259" lon="-6.54918">
        <ele>773.5</ele>
        <time>2023-06-15T20:00:33.000+02:00</time>
      </trkpt>
      <trkpt lat="42.69327" lon="-6.54858">
        <ele>788.6</ele>
        <time>2023-06-15T20:00:45.000+02:00</time>
      </trkpt>
      <trkpt lat="42.69386" lon="-6.54891">
        <ele>798.3</ele>
        <time>2023-06-15T20:00:55.000+02:00</time>
      </trkpt>
      <trkpt lat="42.69427" lon="-6.54986">
        <ele>799.5</ele>
        <time>2023-06-15T20:01:07.000+02:00</time>
      </trkpt>
      <trkpt lat="42.69312" lon="-6.5508">
        <ele>813</ele>
        <time>2023-06-15T20:01:28.000+02:00</time>
      </trkpt>
      <trkpt lat="42.69189" lon="-6.55448">
        <ele>824.3</ele>
        <time>2023-06-15T20:02:13.000+02:00</time>
      </trkpt>
      <trkpt lat="42.69124" lon="-6.55498">
        <ele>826.7</ele>
        <time>2023-06-15T20:02:24.000+02:00</time>
      </trkpt>
      <trkpt lat="42.69079" lon="-6.55594">
        <ele>824.4</ele>
        <time>2023-06-15T20:02:37.000+02:00</time>
      </trkpt>
      <trkpt lat="42.69117" lon="-6.55673">
        <ele>848.6</ele>
        <time>2023-06-15T20:02:48.000+02:00</time>
      </trkpt>
      <trkpt lat="42.69058" lon="-6.55806">
        <ele>875.8</ele>
        <time>2023-06-15T20:03:05.000+02:00</time>
      </trkpt>
      <trkpt lat="42.68858" lon="-6.56063">
        <ele>892.2</ele>
        <time>2023-06-15T20:03:47.000+02:00</time>
      </trkpt>
      <trkpt lat="42.68817" lon="-6.56148">
        <ele>882.3</ele>
        <time>2023-06-15T20:03:59.000+02:00</time>
      </trkpt>
      <trkpt lat="42.68829" lon="-6.56323">
        <ele>842</ele>
        <time>2023-06-15T20:04:19.000+02:00</time>
      </trkpt>
      <trkpt lat="42.68813" lon="-6.5641">
        <ele>834.8</ele>
        <time>2023-06-15T20:04:29.000+02:00</time>
      </trkpt>
      <trkpt lat="42.68881" lon="-6.56588">
        <ele>817.8</ele>
        <time>2023-06-15T20:04:51.000+02:00</time>
      </trkpt>
      <trkpt lat="42.68862" lon="-6.56615">
        <ele>814.5</ele>
        <time>2023-06-15T20:04:55.000+02:00</time>
      </trkpt>
      <trkpt lat="42.68667" lon="-6.56627">
        <ele>806</ele>
        <time>2023-06-15T20:05:25.000+02:00</time>
      </trkpt>
      <trkpt lat="42.68637" lon="-6.56797">
        <ele>802.3</ele>
        <time>2023-06-15T20:05:45.000+02:00</time>
      </trkpt>
      <trkpt lat="42.68645" lon="-6.56946">
        <ele>791.6</ele>
        <time>2023-06-15T20:06:02.000+02:00</time>
      </trkpt>
      <trkpt lat="42.68617" lon="-6.57057">
        <ele>783.8</ele>
        <time>2023-06-15T20:06:15.000+02:00</time>
      </trkpt>
      <trkpt lat="42.68646" lon="-6.57201">
        <ele>766</ele>
        <time>2023-06-15T20:06:31.000+02:00</time>
      </trkpt>
      <trkpt lat="42.68626" lon="-6.57242">
        <ele>761.7</ele>
        <time>2023-06-15T20:06:37.000+02:00</time>
      </trkpt>
      <trkpt lat="42.68569" lon="-6.5724">
        <ele>758.5</ele>
        <time>2023-06-15T20:06:46.000+02:00</time>
      </trkpt>
      <trkpt lat="42.68515" lon="-6.57267">
        <ele>757</ele>
        <time>2023-06-15T20:06:55.000+02:00</time>
      </trkpt>
      <trkpt lat="42.68488" lon="-6.57317">
        <ele>756.7</ele>
        <time>2023-06-15T20:07:02.000+02:00</time>
      </trkpt>
      <trkpt lat="42.68333" lon="-6.57354">
        <ele>761.7</ele>
        <time>2023-06-15T20:07:26.000+02:00</time>
      </trkpt>
      <trkpt lat="42.68266" lon="-6.57523">
        <ele>765.2</ele>
        <time>2023-06-15T20:07:47.000+02:00</time>
      </trkpt>
      <trkpt lat="42.68019" lon="-6.57985">
        <ele>736.6</ele>
        <time>2023-06-15T20:08:51.000+02:00</time>
      </trkpt>
      <trkpt lat="42.67951" lon="-6.58058">
        <ele>735.4</ele>
        <time>2023-06-15T20:09:05.000+02:00</time>
      </trkpt>
      <trkpt lat="42.67917" lon="-6.58184">
        <ele>731</ele>
        <time>2023-06-15T20:09:20.000+02:00</time>
      </trkpt>
      <trkpt lat="42.67931" lon="-6.58454">
        <ele>736.2</ele>
        <time>2023-06-15T20:09:50.000+02:00</time>
      </trkpt>
      <trkpt lat="42.67827" lon="-6.58638">
        <ele>731.5</ele>
        <time>2023-06-15T20:10:16.000+02:00</time>
      </trkpt>
      <trkpt lat="42.67844" lon="-6.58732">
        <ele>735</ele>
        <time>2023-06-15T20:10:27.000+02:00</time>
      </trkpt>
      <trkpt lat="42.67719" lon="-6.5878">
        <ele>746.8</ele>
        <time>2023-06-15T20:10:47.000+02:00</time>
      </trkpt>
      <trkpt lat="42.67621" lon="-6.58956">
        <ele>750.3</ele>
        <time>2023-06-15T20:11:12.000+02:00</time>
      </trkpt>
      <trkpt lat="42.67559" lon="-6.58981">
        <ele>745</ele>
        <time>2023-06-15T20:11:22.000+02:00</time>
      </trkpt>
      <trkpt lat="42.67392" lon="-6.59235">
        <ele>767.5</ele>
        <time>2023-06-15T20:12:00.000+02:00</time>
      </trkpt>
      <trkpt lat="42.67296" lon="-6.59305">
        <ele>763.2</ele>
        <time>2023-06-15T20:12:16.000+02:00</time>
      </trkpt>
      <trkpt lat="42.67074" lon="-6.59327">
        <ele>749.9</ele>
        <time>2023-06-15T20:12:50.000+02:00</time>
      </trkpt>
      <trkpt lat="42.66888" lon="-6.59392">
        <ele>737.7</ele>
        <time>2023-06-15T20:13:20.000+02:00</time>
      </trkpt>
      <trkpt lat="42.66724" lon="-6.59579">
        <ele>727.8</ele>
        <time>2023-06-15T20:13:53.000+02:00</time>
      </trkpt>
      <trkpt lat="42.6659" lon="-6.59668">
        <ele>713.9</ele>
        <time>2023-06-15T20:14:15.000+02:00</time>
      </trkpt>
      <trkpt lat="42.66555" lon="-6.59725">
        <ele>710.7</ele>
        <time>2023-06-15T20:14:24.000+02:00</time>
      </trkpt>
      <trkpt lat="42.66044" lon="-6.60146">
        <ele>690.6</ele>
        <time>2023-06-15T20:15:55.000+02:00</time>
      </trkpt>
      <trkpt lat="42.65831" lon="-6.60253">
        <ele>698.9</ele>
        <time>2023-06-15T20:16:30.000+02:00</time>
      </trkpt>
      <trkpt lat="42.65693" lon="-6.60419">
        <ele>692.9</ele>
        <time>2023-06-15T20:16:58.000+02:00</time>
      </trkpt>
      <trkpt lat="42.65503" lon="-6.60759">
        <ele>677.2</ele>
        <time>2023-06-15T20:17:46.000+02:00</time>
      </trkpt>
      <trkpt lat="42.65362" lon="-6.61196">
        <ele>667.1</ele>
        <time>2023-06-15T20:18:39.000+02:00</time>
      </trkpt>
      <trkpt lat="42.65332" lon="-6.61419">
        <ele>662.9</ele>
        <time>2023-06-15T20:19:05.000+02:00</time>
      </trkpt>
      <trkpt lat="42.65257" lon="-6.61576">
        <ele>658.4</ele>
        <time>2023-06-15T20:19:26.000+02:00</time>
      </trkpt>
      <trkpt lat="42.65227" lon="-6.61697">
        <ele>655.6</ele>
        <time>2023-06-15T20:19:40.000+02:00</time>
      </trkpt>
      <trkpt lat="42.65017" lon="-6.62">
        <ele>652.6</ele>
        <time>2023-06-15T20:20:27.000+02:00</time>
      </trkpt>
      <trkpt lat="42.64675" lon="-6.62947">
        <ele>629.7</ele>
        <time>2023-06-15T20:22:26.000+02:00</time>
      </trkpt>
      <trkpt lat="42.64423" lon="-6.63353">
        <ele>610</ele>
        <time>2023-06-15T20:23:25.000+02:00</time>
      </trkpt>
      <trkpt lat="42.64303" lon="-6.6385">
        <ele>604.4</ele>
        <time>2023-06-15T20:24:24.000+02:00</time>
      </trkpt>
      <trkpt lat="42.643" lon="-6.64017">
        <ele>605.5</ele>
        <time>2023-06-15T20:24:43.000+02:00</time>
      </trkpt>
      <trkpt lat="42.64259" lon="-6.6425">
        <ele>610</ele>
        <time>2023-06-15T20:25:10.000+02:00</time>
      </trkpt>
      <trkpt lat="42.6437" lon="-6.64579">
        <ele>616.4</ele>
        <time>2023-06-15T20:25:51.000+02:00</time>
      </trkpt>
      <trkpt lat="42.64444" lon="-6.64658">
        <ele>617</ele>
        <time>2023-06-15T20:26:05.000+02:00</time>
      </trkpt>
      <trkpt lat="42.64414" lon="-6.64867">
        <ele>618.7</ele>
        <time>2023-06-15T20:26:29.000+02:00</time>
      </trkpt>
      <trkpt lat="42.64429" lon="-6.64969">
        <ele>617.1</ele>
        <time>2023-06-15T20:26:40.000+02:00</time>
      </trkpt>
      <trkpt lat="42.64462" lon="-6.6505">
        <ele>617.4</ele>
        <time>2023-06-15T20:26:51.000+02:00</time>
      </trkpt>
      <trkpt lat="42.64547" lon="-6.65154">
        <ele>611.1</ele>
        <time>2023-06-15T20:27:08.000+02:00</time>
      </trkpt>
      <trkpt lat="42.64541" lon="-6.65217">
        <ele>608</ele>
        <time>2023-06-15T20:27:16.000+02:00</time>
      </trkpt>
      <trkpt lat="42.64457" lon="-6.65325">
        <ele>605.5</ele>
        <time>2023-06-15T20:27:33.000+02:00</time>
      </trkpt>
      <trkpt lat="42.64441" lon="-6.65394">
        <ele>607.6</ele>
        <time>2023-06-15T20:27:41.000+02:00</time>
      </trkpt>
      <trkpt lat="42.64549" lon="-6.65691">
        <ele>617.1</ele>
        <time>2023-06-15T20:28:19.000+02:00</time>
      </trkpt>
      <trkpt lat="42.64587" lon="-6.66079">
        <ele>615.3</ele>
        <time>2023-06-15T20:29:03.000+02:00</time>
      </trkpt>
      <trkpt lat="42.64576" lon="-6.66213">
        <ele>604.5</ele>
        <time>2023-06-15T20:29:18.000+02:00</time>
      </trkpt>
      <trkpt lat="42.64503" lon="-6.66327">
        <ele>590.2</ele>
        <time>2023-06-15T20:29:35.000+02:00</time>
      </trkpt>
      <trkpt lat="42.64474" lon="-6.66437">
        <ele>581.5</ele>
        <time>2023-06-15T20:29:48.000+02:00</time>
      </trkpt>
      <trkpt lat="42.64529" lon="-6.66561">
        <ele>582.5</ele>
        <time>2023-06-15T20:30:16.000+02:00</time>
      </trkpt>
      <trkpt lat="42.6453" lon="-6.66562">
        <ele>582.8</ele>
        <time>2023-06-15T20:30:16.000+02:00</time>
      </trkpt>
      <trkpt lat="42.64511" lon="-6.66569">
        <ele>582.3</ele>
        <time>2023-06-15T20:30:21.000+02:00</time>
      </trkpt>
      <trkpt lat="42.64492" lon="-6.66584">
        <ele>581.5</ele>
        <time>2023-06-15T20:30:27.000+02:00</time>
      </trkpt>
      <trkpt lat="42.64472" lon="-6.66612">
        <ele>583.3</ele>
        <time>2023-06-15T20:30:35.000+02:00</time>
      </trkpt>
      <trkpt lat="42.6446" lon="-6.66616">
        <ele>583</ele>
        <time>2023-06-15T20:30:38.000+02:00</time>
      </trkpt>
      <trkpt lat="42.64436" lon="-6.66592">
        <ele>580.3</ele>
        <time>2023-06-15T20:30:46.000+02:00</time>
      </trkpt>
      <trkpt lat="42.64421" lon="-6.66589">
        <ele>579.5</ele>
        <time>2023-06-15T20:30:50.000+02:00</time>
      </trkpt>
      <trkpt lat="42.64404" lon="-6.66593">
        <ele>579</ele>
        <time>2023-06-15T20:30:55.000+02:00</time>
      </trkpt>
      <trkpt lat="42.64371" lon="-6.66624">
        <ele>579.3</ele>
        <time>2023-06-15T20:31:05.000+02:00</time>
      </trkpt>
      <trkpt lat="42.64291" lon="-6.66656">
        <ele>577</ele>
        <time>2023-06-15T20:31:27.000+02:00</time>
      </trkpt>
      <trkpt lat="42.64268" lon="-6.66656">
        <ele>576.3</ele>
        <time>2023-06-15T20:31:34.000+02:00</time>
      </trkpt>
      <trkpt lat="42.64186" lon="-6.66604">
        <ele>569.8</ele>
        <time>2023-06-15T20:31:58.000+02:00</time>
      </trkpt>
      <trkpt lat="42.64172" lon="-6.666">
        <ele>568.5</ele>
        <time>2023-06-15T20:32:02.000+02:00</time>
      </trkpt>
      <trkpt lat="42.64162" lon="-6.666">
        <ele>568.8</ele>
        <time>2023-06-15T20:32:04.000+02:00</time>
      </trkpt>
      <trkpt lat="42.64156" lon="-6.66599">
        <ele>569.3</ele>
        <time>2023-06-15T20:32:06.000+02:00</time>
      </trkpt>
      <trkpt lat="42.63956" lon="-6.66596">
        <ele>568</ele>
        <time>2023-06-15T20:32:59.000+02:00</time>
      </trkpt>
      <trkpt lat="42.63951" lon="-6.66568">
        <ele>569.3</ele>
        <time>2023-06-15T20:33:04.000+02:00</time>
      </trkpt>
      <trkpt lat="42.63943" lon="-6.66541">
        <ele>570.3</ele>
        <time>2023-06-15T20:33:10.000+02:00</time>
      </trkpt>
      <trkpt lat="42.63933" lon="-6.6652">
        <ele>570.8</ele>
        <time>2023-06-15T20:33:15.000+02:00</time>
      </trkpt>
      <trkpt lat="42.63853" lon="-6.66428">
        <ele>568</ele>
        <time>2023-06-15T20:33:43.000+02:00</time>
      </trkpt>
      <trkpt lat="42.63843" lon="-6.66416">
        <ele>567.5</ele>
        <time>2023-06-15T20:33:46.000+02:00</time>
      </trkpt>
      <trkpt lat="42.63816" lon="-6.66369">
        <ele>564.8</ele>
        <time>2023-06-15T20:33:58.000+02:00</time>
      </trkpt>
      <trkpt lat="42.63804" lon="-6.66327">
        <ele>563.8</ele>
        <time>2023-06-15T20:34:07.000+02:00</time>
      </trkpt>
      <trkpt lat="42.63801" lon="-6.663">
        <ele>564.5</ele>
        <time>2023-06-15T20:34:12.000+02:00</time>
      </trkpt>
      <trkpt lat="42.63801" lon="-6.66283">
        <ele>565</ele>
        <time>2023-06-15T20:34:15.000+02:00</time>
      </trkpt>
      <trkpt lat="42.6375" lon="-6.66273">
        <ele>565</ele>
        <time>2023-06-15T20:34:29.000+02:00</time>
      </trkpt>
      <trkpt lat="42.62897" lon="-6.67174">
        <ele>544.8</ele>
        <time>2023-06-15T20:39:16.000+02:00</time>
      </trkpt>
      <trkpt lat="42.6265" lon="-6.67391">
        <ele>541.8</ele>
        <time>2023-06-15T20:40:34.000+02:00</time>
      </trkpt>
      <trkpt lat="42.62629" lon="-6.67399">
        <ele>541.8</ele>
        <time>2023-06-15T20:40:40.000+02:00</time>
      </trkpt>
      <trkpt lat="42.62528" lon="-6.6741">
        <ele>542</ele>
        <time>2023-06-15T20:41:06.000+02:00</time>
      </trkpt>
      <trkpt lat="42.62478" lon="-6.67416">
        <ele>542.8</ele>
        <time>2023-06-15T20:41:20.000+02:00</time>
      </trkpt>
      <trkpt lat="42.62339" lon="-6.67547">
        <ele>540.3</ele>
        <time>2023-06-15T20:42:05.000+02:00</time>
      </trkpt>
      <trkpt lat="42.62147" lon="-6.67727">
        <ele>538.5</ele>
        <time>2023-06-15T20:43:07.000+02:00</time>
      </trkpt>
      <trkpt lat="42.62065" lon="-6.67898">
        <ele>535.5</ele>
        <time>2023-06-15T20:43:46.000+02:00</time>
      </trkpt>
      <trkpt lat="42.61982" lon="-6.6807">
        <ele>533.8</ele>
        <time>2023-06-15T20:44:27.000+02:00</time>
      </trkpt>
      <trkpt lat="42.61962" lon="-6.68112">
        <ele>533.8</ele>
        <time>2023-06-15T20:44:36.000+02:00</time>
      </trkpt>
      <trkpt lat="42.61944" lon="-6.68141">
        <ele>533</ele>
        <time>2023-06-15T20:44:44.000+02:00</time>
      </trkpt>
      <trkpt lat="42.61829" lon="-6.68309">
        <ele>526.3</ele>
        <time>2023-06-15T20:45:28.000+02:00</time>
      </trkpt>
      <trkpt lat="42.61766" lon="-6.68397">
        <ele>524.5</ele>
        <time>2023-06-15T20:45:52.000+02:00</time>
      </trkpt>
      <trkpt lat="42.61745" lon="-6.68427">
        <ele>524.5</ele>
        <time>2023-06-15T20:46:00.000+02:00</time>
      </trkpt>
      <trkpt lat="42.61749" lon="-6.68436">
        <ele>523.8</ele>
        <time>2023-06-15T20:46:02.000+02:00</time>
      </trkpt>
      <trkpt lat="42.61782" lon="-6.68652">
        <ele>519.3</ele>
        <time>2023-06-15T20:46:45.000+02:00</time>
      </trkpt>
      <trkpt lat="42.61785" lon="-6.68719">
        <ele>520.8</ele>
        <time>2023-06-15T20:46:58.000+02:00</time>
      </trkpt>
      <trkpt lat="42.61797" lon="-6.68777">
        <ele>522.5</ele>
        <time>2023-06-15T20:47:10.000+02:00</time>
      </trkpt>
      <trkpt lat="42.61804" lon="-6.68835">
        <ele>525</ele>
        <time>2023-06-15T20:47:21.000+02:00</time>
      </trkpt>
      <trkpt lat="42.61809" lon="-6.68917">
        <ele>530.8</ele>
        <time>2023-06-15T20:47:37.000+02:00</time>
      </trkpt>
      <trkpt lat="42.61813" lon="-6.68943">
        <ele>531</ele>
        <time>2023-06-15T20:47:42.000+02:00</time>
      </trkpt>
      <trkpt lat="42.61813" lon="-6.69007">
        <ele>530.8</ele>
        <time>2023-06-15T20:47:55.000+02:00</time>
      </trkpt>
      <trkpt lat="42.6182" lon="-6.69046">
        <ele>533.9</ele>
        <time>2023-06-15T20:48:03.000+02:00</time>
      </trkpt>
      <trkpt lat="42.61938" lon="-6.69185">
        <ele>533</ele>
        <time>2023-06-15T20:48:27.000+02:00</time>
      </trkpt>
      <trkpt lat="42.6221" lon="-6.69382">
        <ele>552.4</ele>
        <time>2023-06-15T20:49:14.000+02:00</time>
      </trkpt>
      <trkpt lat="42.62298" lon="-6.69414">
        <ele>558.7</ele>
        <time>2023-06-15T20:49:28.000+02:00</time>
      </trkpt>
      <trkpt lat="42.62396" lon="-6.69377">
        <ele>566.7</ele>
        <time>2023-06-15T20:49:44.000+02:00</time>
      </trkpt>
      <trkpt lat="42.62392" lon="-6.69448">
        <ele>566.4</ele>
        <time>2023-06-15T20:49:52.000+02:00</time>
      </trkpt>
      <trkpt lat="42.62347" lon="-6.69489">
        <ele>566</ele>
        <time>2023-06-15T20:50:00.000+02:00</time>
      </trkpt>
      <trkpt lat="42.62197" lon="-6.69466">
        <ele>564.2</ele>
        <time>2023-06-15T20:50:23.000+02:00</time>
      </trkpt>
      <trkpt lat="42.62135" lon="-6.69484">
        <ele>565.8</ele>
        <time>2023-06-15T20:50:33.000+02:00</time>
      </trkpt>
      <trkpt lat="42.62125" lon="-6.69513">
        <ele>565.8</ele>
        <time>2023-06-15T20:50:36.000+02:00</time>
      </trkpt>
      <trkpt lat="42.62207" lon="-6.69773">
        <ele>566.6</ele>
        <time>2023-06-15T20:51:08.000+02:00</time>
      </trkpt>
      <trkpt lat="42.62272" lon="-6.69866">
        <ele>566.3</ele>
        <time>2023-06-15T20:51:23.000+02:00</time>
      </trkpt>
      <trkpt lat="42.62176" lon="-6.70119">
        <ele>565.3</ele>
        <time>2023-06-15T20:51:55.000+02:00</time>
      </trkpt>
      <trkpt lat="42.62198" lon="-6.70316">
        <ele>564.1</ele>
        <time>2023-06-15T20:52:17.000+02:00</time>
      </trkpt>
      <trkpt lat="42.61958" lon="-6.70689">
        <ele>550.2</ele>
        <time>2023-06-15T20:53:13.000+02:00</time>
      </trkpt>
      <trkpt lat="42.61834" lon="-6.70678">
        <ele>549.6</ele>
        <time>2023-06-15T20:53:32.000+02:00</time>
      </trkpt>
      <trkpt lat="42.61649" lon="-6.70873">
        <ele>536.4</ele>
        <time>2023-06-15T20:54:08.000+02:00</time>
      </trkpt>
      <trkpt lat="42.61536" lon="-6.71046">
        <ele>521.7</ele>
        <time>2023-06-15T20:54:34.000+02:00</time>
      </trkpt>
      <trkpt lat="42.61476" lon="-6.71407">
        <ele>511.6</ele>
        <time>2023-06-15T20:55:15.000+02:00</time>
      </trkpt>
      <trkpt lat="42.61304" lon="-6.7154">
        <ele>499.1</ele>
        <time>2023-06-15T20:55:46.000+02:00</time>
      </trkpt>
      <trkpt lat="42.61281" lon="-6.71721">
        <ele>493</ele>
        <time>2023-06-15T20:56:06.000+02:00</time>
      </trkpt>
      <trkpt lat="42.61091" lon="-6.71713">
        <ele>491</ele>
        <time>2023-06-15T20:56:35.000+02:00</time>
      </trkpt>
      <trkpt lat="42.60804" lon="-6.71867">
        <ele>488</ele>
        <time>2023-06-15T20:57:22.000+02:00</time>
      </trkpt>
      <trkpt lat="42.60782" lon="-6.7191">
        <ele>488.1</ele>
        <time>2023-06-15T20:57:28.000+02:00</time>
      </trkpt>
      <trkpt lat="42.60769" lon="-6.72143">
        <ele>488</ele>
        <time>2023-06-15T20:57:55.000+02:00</time>
      </trkpt>
      <trkpt lat="42.60775" lon="-6.7253">
        <ele>486</ele>
        <time>2023-06-15T20:58:38.000+02:00</time>
      </trkpt>
      <trkpt lat="42.60563" lon="-6.72659">
        <ele>484</ele>
        <time>2023-06-15T20:59:14.000+02:00</time>
      </trkpt>
      <trkpt lat="42.59988" lon="-6.72775">
        <ele>476.6</ele>
        <time>2023-06-15T21:00:42.000+02:00</time>
      </trkpt>
      <trkpt lat="42.6001" lon="-6.73138">
        <ele>474.7</ele>
        <time>2023-06-15T21:01:23.000+02:00</time>
      </trkpt>
      <trkpt lat="42.60077" lon="-6.73416">
        <ele>475.8</ele>
        <time>2023-06-15T21:01:56.000+02:00</time>
      </trkpt>
      <trkpt lat="42.59854" lon="-6.73524">
        <ele>473.8</ele>
        <time>2023-06-15T21:02:32.000+02:00</time>
      </trkpt>
      <trkpt lat="42.59785" lon="-6.73758">
        <ele>473.5</ele>
        <time>2023-06-15T21:03:01.000+02:00</time>
      </trkpt>
      <trkpt lat="42.59763" lon="-6.74009">
        <ele>482</ele>
        <time>2023-06-15T21:03:29.000+02:00</time>
      </trkpt>
      <trkpt lat="42.59795" lon="-6.74027">
        <ele>486.1</ele>
        <time>2023-06-15T21:03:34.000+02:00</time>
      </trkpt>
      <trkpt lat="42.59838" lon="-6.74227">
        <ele>522.5</ele>
        <time>2023-06-15T21:03:58.000+02:00</time>
      </trkpt>
      <trkpt lat="42.59928" lon="-6.7431">
        <ele>539.3</ele>
        <time>2023-06-15T21:04:14.000+02:00</time>
      </trkpt>
      <trkpt lat="42.59921" lon="-6.74381">
        <ele>550.9</ele>
        <time>2023-06-15T21:04:23.000+02:00</time>
      </trkpt>
      <trkpt lat="42.59865" lon="-6.74391">
        <ele>552.1</ele>
        <time>2023-06-15T21:04:31.000+02:00</time>
      </trkpt>
      <trkpt lat="42.59866" lon="-6.74613">
        <ele>567.9</ele>
        <time>2023-06-15T21:04:56.000+02:00</time>
      </trkpt>
      <trkpt lat="42.59981" lon="-6.74661">
        <ele>567.3</ele>
        <time>2023-06-15T21:05:14.000+02:00</time>
      </trkpt>
      <trkpt lat="42.59931" lon="-6.74704">
        <ele>574</ele>
        <time>2023-06-15T21:05:24.000+02:00</time>
      </trkpt>
      <trkpt lat="42.599" lon="-6.74899">
        <ele>586.9</ele>
        <time>2023-06-15T21:05:46.000+02:00</time>
      </trkpt>
      <trkpt lat="42.59797" lon="-6.75026">
        <ele>587.9</ele>
        <time>2023-06-15T21:06:07.000+02:00</time>
      </trkpt>
      <trkpt lat="42.5974" lon="-6.7504">
        <ele>585</ele>
        <time>2023-06-15T21:06:16.000+02:00</time>
      </trkpt>
      <trkpt lat="42.59504" lon="-6.75203">
        <ele>585.9</ele>
        <time>2023-06-15T21:06:57.000+02:00</time>
      </trkpt>
      <trkpt lat="42.59579" lon="-6.75505">
        <ele>587.4</ele>
        <time>2023-06-15T21:07:33.000+02:00</time>
      </trkpt>
      <trkpt lat="42.59663" lon="-6.75604">
        <ele>600.9</ele>
        <time>2023-06-15T21:07:49.000+02:00</time>
      </trkpt>
      <trkpt lat="42.5971" lon="-6.75584">
        <ele>610.7</ele>
        <time>2023-06-15T21:07:57.000+02:00</time>
      </trkpt>
      <trkpt lat="42.5966" lon="-6.75637">
        <ele>596.3</ele>
        <time>2023-06-15T21:08:07.000+02:00</time>
      </trkpt>
      <trkpt lat="42.59607" lon="-6.76008">
        <ele>539.8</ele>
        <time>2023-06-15T21:08:49.000+02:00</time>
      </trkpt>
      <trkpt lat="42.59571" lon="-6.76151">
        <ele>524.4</ele>
        <time>2023-06-15T21:09:06.000+02:00</time>
      </trkpt>
      <trkpt lat="42.59513" lon="-6.76203">
        <ele>512.5</ele>
        <time>2023-06-15T21:09:17.000+02:00</time>
      </trkpt>
      <trkpt lat="42.59491" lon="-6.76346">
        <ele>501.4</ele>
        <time>2023-06-15T21:09:33.000+02:00</time>
      </trkpt>
      <trkpt lat="42.59562" lon="-6.7634">
        <ele>503.1</ele>
        <time>2023-06-15T21:09:44.000+02:00</time>
      </trkpt>
      <trkpt lat="42.5957" lon="-6.7647">
        <ele>502.5</ele>
        <time>2023-06-15T21:09:59.000+02:00</time>
      </trkpt>
      <trkpt lat="42.59531" lon="-6.76499">
        <ele>502</ele>
        <time>2023-06-15T21:10:06.000+02:00</time>
      </trkpt>
      <trkpt lat="42.59429" lon="-6.76484">
        <ele>500</ele>
        <time>2023-06-15T21:10:21.000+02:00</time>
      </trkpt>
      <trkpt lat="42.59486" lon="-6.76791">
        <ele>511.5</ele>
        <time>2023-06-15T21:10:57.000+02:00</time>
      </trkpt>
      <trkpt lat="42.59447" lon="-6.76971">
        <ele>523</ele>
        <time>2023-06-15T21:11:18.000+02:00</time>
      </trkpt>
      <trkpt lat="42.59476" lon="-6.77294">
        <ele>498.7</ele>
        <time>2023-06-15T21:11:55.000+02:00</time>
      </trkpt>
      <trkpt lat="42.59432" lon="-6.77338">
        <ele>499.1</ele>
        <time>2023-06-15T21:12:03.000+02:00</time>
      </trkpt>
      <trkpt lat="42.59434" lon="-6.77379">
        <ele>500</ele>
        <time>2023-06-15T21:12:08.000+02:00</time>
      </trkpt>
      <trkpt lat="42.59464" lon="-6.77524">
        <ele>504.2</ele>
        <time>2023-06-15T21:12:25.000+02:00</time>
      </trkpt>
      <trkpt lat="42.59611" lon="-6.77876">
        <ele>515.5</ele>
        <time>2023-06-15T21:13:10.000+02:00</time>
      </trkpt>
      <trkpt lat="42.59591" lon="-6.78142">
        <ele>507.9</ele>
        <time>2023-06-15T21:13:40.000+02:00</time>
      </trkpt>
      <trkpt lat="42.59553" lon="-6.78267">
        <ele>506.6</ele>
        <time>2023-06-15T21:13:55.000+02:00</time>
      </trkpt>
      <trkpt lat="42.59543" lon="-6.78405">
        <ele>511.8</ele>
        <time>2023-06-15T21:14:11.000+02:00</time>
      </trkpt>
      <trkpt lat="42.59603" lon="-6.78655">
        <ele>506.6</ele>
        <time>2023-06-15T21:14:41.000+02:00</time>
      </trkpt>
      <trkpt lat="42.59605" lon="-6.7884">
        <ele>517.6</ele>
        <time>2023-06-15T21:15:01.000+02:00</time>
      </trkpt>
      <trkpt lat="42.59781" lon="-6.78798">
        <ele>522.7</ele>
        <time>2023-06-15T21:15:29.000+02:00</time>
      </trkpt>
      <trkpt lat="42.59872" lon="-6.78962">
        <ele>529.3</ele>
        <time>2023-06-15T21:15:52.000+02:00</time>
      </trkpt>
      <trkpt lat="42.5998" lon="-6.79038">
        <ele>535.6</ele>
        <time>2023-06-15T21:16:10.000+02:00</time>
      </trkpt>
      <trkpt lat="42.59977" lon="-6.78889">
        <ele>535.3</ele>
        <time>2023-06-15T21:16:27.000+02:00</time>
      </trkpt>
      <trkpt lat="42.6029" lon="-6.78835">
        <ele>555.4</ele>
        <time>2023-06-15T21:17:15.000+02:00</time>
      </trkpt>
      <trkpt lat="42.60393" lon="-6.7896">
        <ele>562</ele>
        <time>2023-06-15T21:17:37.000+02:00</time>
      </trkpt>
      <trkpt lat="42.60474" lon="-6.79179">
        <ele>574.4</ele>
        <time>2023-06-15T21:18:04.000+02:00</time>
      </trkpt>
      <trkpt lat="42.60516" lon="-6.79109">
        <ele>574.6</ele>
        <time>2023-06-15T21:18:14.000+02:00</time>
      </trkpt>
      <trkpt lat="42.60549" lon="-6.79124">
        <ele>578.5</ele>
        <time>2023-06-15T21:18:20.000+02:00</time>
      </trkpt>
      <trkpt lat="42.60614" lon="-6.79243">
        <ele>595</ele>
        <time>2023-06-15T21:18:36.000+02:00</time>
      </trkpt>
      <trkpt lat="42.60698" lon="-6.79253">
        <ele>592.9</ele>
        <time>2023-06-15T21:18:49.000+02:00</time>
      </trkpt>
      <trkpt lat="42.60795" lon="-6.79343">
        <ele>592.5</ele>
        <time>2023-06-15T21:19:07.000+02:00</time>
      </trkpt>
      <trkpt lat="42.60847" lon="-6.79446">
        <ele>598.5</ele>
        <time>2023-06-15T21:19:21.000+02:00</time>
      </trkpt>
      <trkpt lat="42.60853" lon="-6.79581">
        <ele>601.1</ele>
        <time>2023-06-15T21:19:36.000+02:00</time>
      </trkpt>
      <trkpt lat="42.60897" lon="-6.79741">
        <ele>616.6</ele>
        <time>2023-06-15T21:19:56.000+02:00</time>
      </trkpt>
      <trkpt lat="42.60938" lon="-6.79764">
        <ele>615</ele>
        <time>2023-06-15T21:20:02.000+02:00</time>
      </trkpt>
      <trkpt lat="42.60911" lon="-6.80098">
        <ele>574.9</ele>
        <time>2023-06-15T21:20:40.000+02:00</time>
      </trkpt>
      <trkpt lat="42.60924" lon="-6.80218">
        <ele>560.5</ele>
        <time>2023-06-15T21:20:54.000+02:00</time>
      </trkpt>
      <trkpt lat="42.6089" lon="-6.80429">
        <ele>542.3</ele>
        <time>2023-06-15T21:21:18.000+02:00</time>
      </trkpt>
      <trkpt lat="42.60904" lon="-6.80472">
        <ele>534.2</ele>
        <time>2023-06-15T21:21:23.000+02:00</time>
      </trkpt>
      <trkpt lat="42.6094" lon="-6.80476">
        <ele>529</ele>
        <time>2023-06-15T21:21:29.000+02:00</time>
      </trkpt>
      <trkpt lat="42.60943" lon="-6.80635">
        <ele>516.3</ele>
        <time>2023-06-15T21:21:47.000+02:00</time>
      </trkpt>
      <trkpt lat="42.6097" lon="-6.80738">
        <ele>509.5</ele>
        <time>2023-06-15T21:21:59.000+02:00</time>
      </trkpt>
      <trkpt lat="42.60837" lon="-6.80843">
        <ele>508</ele>
        <time>2023-06-15T21:22:23.000+02:00</time>
      </trkpt>
      <trkpt lat="42.6085" lon="-6.80864">
        <ele>507.2</ele>
        <time>2023-06-15T21:22:26.000+02:00</time>
      </trkpt>
      <trkpt lat="42.60979" lon="-6.80869">
        <ele>504</ele>
        <time>2023-06-15T21:22:45.000+02:00</time>
      </trkpt>
      <trkpt lat="42.60974" lon="-6.81026">
        <ele>498.8</ele>
        <time>2023-06-15T21:23:03.000+02:00</time>
      </trkpt>
      <trkpt lat="42.60899" lon="-6.81123">
        <ele>494.7</ele>
        <time>2023-06-15T21:23:19.000+02:00</time>
      </trkpt>
      <trkpt lat="42.60954" lon="-6.81253">
        <ele>509.4</ele>
        <time>2023-06-15T21:23:36.000+02:00</time>
      </trkpt>
      <trkpt lat="42.61017" lon="-6.81307">
        <ele>528.1</ele>
        <time>2023-06-15T21:23:47.000+02:00</time>
      </trkpt>
      <trkpt lat="42.61189" lon="-6.81312">
        <ele>562.9</ele>
        <time>2023-06-15T21:24:13.000+02:00</time>
      </trkpt>
      <trkpt lat="42.61363" lon="-6.81198">
        <ele>607.5</ele>
        <time>2023-06-15T21:24:43.000+02:00</time>
      </trkpt>
      <trkpt lat="42.61477" lon="-6.81304">
        <ele>623.6</ele>
        <time>2023-06-15T21:25:04.000+02:00</time>
      </trkpt>
      <trkpt lat="42.61621" lon="-6.81364">
        <ele>652.6</ele>
        <time>2023-06-15T21:25:27.000+02:00</time>
      </trkpt>
      <trkpt lat="42.61733" lon="-6.81546">
        <ele>670.1</ele>
        <time>2023-06-15T21:25:54.000+02:00</time>
      </trkpt>
      <trkpt lat="42.61789" lon="-6.81701">
        <ele>675.3</ele>
        <time>2023-06-15T21:26:13.000+02:00</time>
      </trkpt>
      <trkpt lat="42.61736" lon="-6.81837">
        <ele>683.3</ele>
        <time>2023-06-15T21:26:30.000+02:00</time>
      </trkpt>
      <trkpt lat="42.61741" lon="-6.81889">
        <ele>688.9</ele>
        <time>2023-06-15T21:26:36.000+02:00</time>
      </trkpt>
      <trkpt lat="42.62089" lon="-6.82484">
        <ele>738.6</ele>
        <time>2023-06-15T21:28:02.000+02:00</time>
      </trkpt>
      <trkpt lat="42.62159" lon="-6.82521">
        <ele>742</ele>
        <time>2023-06-15T21:28:13.000+02:00</time>
      </trkpt>
      <trkpt lat="42.62275" lon="-6.82418">
        <ele>751.1</ele>
        <time>2023-06-15T21:28:34.000+02:00</time>
      </trkpt>
      <trkpt lat="42.62362" lon="-6.82414">
        <ele>760.1</ele>
        <time>2023-06-15T21:28:48.000+02:00</time>
      </trkpt>
      <trkpt lat="42.6272" lon="-6.82677">
        <ele>791.3</ele>
        <time>2023-06-15T21:29:50.000+02:00</time>
      </trkpt>
      <trkpt lat="42.62866" lon="-6.82938">
        <ele>817.5</ele>
        <time>2023-06-15T21:30:27.000+02:00</time>
      </trkpt>
      <trkpt lat="42.62877" lon="-6.8317">
        <ele>832.7</ele>
        <time>2023-06-15T21:30:53.000+02:00</time>
      </trkpt>
      <trkpt lat="42.62853" lon="-6.83231">
        <ele>837.7</ele>
        <time>2023-06-15T21:31:00.000+02:00</time>
      </trkpt>
      <trkpt lat="42.62908" lon="-6.83341">
        <ele>839.2</ele>
        <time>2023-06-15T21:31:15.000+02:00</time>
      </trkpt>
      <trkpt lat="42.63007" lon="-6.83463">
        <ele>838.1</ele>
        <time>2023-06-15T21:31:36.000+02:00</time>
      </trkpt>
      <trkpt lat="42.63095" lon="-6.83511">
        <ele>836.1</ele>
        <time>2023-06-15T21:31:50.000+02:00</time>
      </trkpt>
      <trkpt lat="42.63183" lon="-6.83692">
        <ele>841.3</ele>
        <time>2023-06-15T21:32:15.000+02:00</time>
      </trkpt>
      <trkpt lat="42.63302" lon="-6.83777">
        <ele>842</ele>
        <time>2023-06-15T21:32:35.000+02:00</time>
      </trkpt>
      <trkpt lat="42.6341" lon="-6.83931">
        <ele>842.3</ele>
        <time>2023-06-15T21:32:59.000+02:00</time>
      </trkpt>
      <trkpt lat="42.63516" lon="-6.84001">
        <ele>843.1</ele>
        <time>2023-06-15T21:33:17.000+02:00</time>
      </trkpt>
      <trkpt lat="42.6357" lon="-6.84224">
        <ele>856.5</ele>
        <time>2023-06-15T21:33:44.000+02:00</time>
      </trkpt>
      <trkpt lat="42.6364" lon="-6.84304">
        <ele>860.5</ele>
        <time>2023-06-15T21:33:57.000+02:00</time>
      </trkpt>
      <trkpt lat="42.63706" lon="-6.8449">
        <ele>865.3</ele>
        <time>2023-06-15T21:34:21.000+02:00</time>
      </trkpt>
      <trkpt lat="42.63876" lon="-6.84527">
        <ele>866.2</ele>
        <time>2023-06-15T21:34:47.000+02:00</time>
      </trkpt>
      <trkpt lat="42.63979" lon="-6.84599">
        <ele>862.1</ele>
        <time>2023-06-15T21:35:05.000+02:00</time>
      </trkpt>
      <trkpt lat="42.64158" lon="-6.84838">
        <ele>875</ele>
        <time>2023-06-15T21:35:43.000+02:00</time>
      </trkpt>
      <trkpt lat="42.6424" lon="-6.85011">
        <ele>879</ele>
        <time>2023-06-15T21:36:06.000+02:00</time>
      </trkpt>
      <trkpt lat="42.64393" lon="-6.85134">
        <ele>891.6</ele>
        <time>2023-06-15T21:36:33.000+02:00</time>
      </trkpt>
      <trkpt lat="42.64454" lon="-6.85269">
        <ele>896.6</ele>
        <time>2023-06-15T21:36:51.000+02:00</time>
      </trkpt>
      <trkpt lat="42.64578" lon="-6.85427">
        <ele>915.5</ele>
        <time>2023-06-15T21:37:17.000+02:00</time>
      </trkpt>
      <trkpt lat="42.64608" lon="-6.85536">
        <ele>918.9</ele>
        <time>2023-06-15T21:37:30.000+02:00</time>
      </trkpt>
      <trkpt lat="42.64583" lon="-6.85606">
        <ele>923.1</ele>
        <time>2023-06-15T21:37:39.000+02:00</time>
      </trkpt>
      <trkpt lat="42.646" lon="-6.85651">
        <ele>926</ele>
        <time>2023-06-15T21:37:45.000+02:00</time>
      </trkpt>
      <trkpt lat="42.64722" lon="-6.8578">
        <ele>915.6</ele>
        <time>2023-06-15T21:38:08.000+02:00</time>
      </trkpt>
      <trkpt lat="42.64992" lon="-6.85965">
        <ele>895.9</ele>
        <time>2023-06-15T21:38:54.000+02:00</time>
      </trkpt>
      <trkpt lat="42.65133" lon="-6.86149">
        <ele>890.3</ele>
        <time>2023-06-15T21:39:24.000+02:00</time>
      </trkpt>
      <trkpt lat="42.65228" lon="-6.86206">
        <ele>890.4</ele>
        <time>2023-06-15T21:39:40.000+02:00</time>
      </trkpt>
      <trkpt lat="42.65327" lon="-6.86223">
        <ele>890.5</ele>
        <time>2023-06-15T21:39:55.000+02:00</time>
      </trkpt>
      <trkpt lat="42.65567" lon="-6.86381">
        <ele>897.6</ele>
        <time>2023-06-15T21:40:36.000+02:00</time>
      </trkpt>
      <trkpt lat="42.65701" lon="-6.86433">
        <ele>905.7</ele>
        <time>2023-06-15T21:40:58.000+02:00</time>
      </trkpt>
      <trkpt lat="42.65954" lon="-6.8647">
        <ele>923.3</ele>
        <time>2023-06-15T21:41:36.000+02:00</time>
      </trkpt>
      <trkpt lat="42.66048" lon="-6.86447">
        <ele>924.8</ele>
        <time>2023-06-15T21:41:51.000+02:00</time>
      </trkpt>
      <trkpt lat="42.66098" lon="-6.86381">
        <ele>925</ele>
        <time>2023-06-15T21:42:02.000+02:00</time>
      </trkpt>
      <trkpt lat="42.66155" lon="-6.86365">
        <ele>926.5</ele>
        <time>2023-06-15T21:42:10.000+02:00</time>
      </trkpt>
      <trkpt lat="42.66316" lon="-6.86386">
        <ele>931.3</ele>
        <time>2023-06-15T21:42:35.000+02:00</time>
      </trkpt>
      <trkpt lat="42.66321" lon="-6.86457">
        <ele>938.6</ele>
        <time>2023-06-15T21:42:43.000+02:00</time>
      </trkpt>
      <trkpt lat="42.66422" lon="-6.8646">
        <ele>944.3</ele>
        <time>2023-06-15T21:42:58.000+02:00</time>
      </trkpt>
      <trkpt lat="42.66487" lon="-6.86506">
        <ele>953</ele>
        <time>2023-06-15T21:43:10.000+02:00</time>
      </trkpt>
      <trkpt lat="42.66538" lon="-6.86586">
        <ele>964.1</ele>
        <time>2023-06-15T21:43:22.000+02:00</time>
      </trkpt>
      <trkpt lat="42.66584" lon="-6.8667">
        <ele>972.2</ele>
        <time>2023-06-15T21:43:33.000+02:00</time>
      </trkpt>
      <trkpt lat="42.66576" lon="-6.86833">
        <ele>990.7</ele>
        <time>2023-06-15T21:43:52.000+02:00</time>
      </trkpt>
      <trkpt lat="42.66598" lon="-6.86882">
        <ele>996.1</ele>
        <time>2023-06-15T21:43:58.000+02:00</time>
      </trkpt>
      <trkpt lat="42.66906" lon="-6.8709">
        <ele>1029</ele>
        <time>2023-06-15T21:44:51.000+02:00</time>
      </trkpt>
      <trkpt lat="42.67017" lon="-6.87256">
        <ele>1041.9</ele>
        <time>2023-06-15T21:45:16.000+02:00</time>
      </trkpt>
      <trkpt lat="42.67143" lon="-6.87262">
        <ele>1055.4</ele>
        <time>2023-06-15T21:45:35.000+02:00</time>
      </trkpt>
      <trkpt lat="42.67192" lon="-6.87196">
        <ele>1066.3</ele>
        <time>2023-06-15T21:45:46.000+02:00</time>
      </trkpt>
      <trkpt lat="42.67258" lon="-6.87178">
        <ele>1074.5</ele>
        <time>2023-06-15T21:45:56.000+02:00</time>
      </trkpt>
      <trkpt lat="42.67466" lon="-6.87384">
        <ele>1088.6</ele>
        <time>2023-06-15T21:46:35.000+02:00</time>
      </trkpt>
      <trkpt lat="42.67589" lon="-6.87395">
        <ele>1096.6</ele>
        <time>2023-06-15T21:46:54.000+02:00</time>
      </trkpt>
      <trkpt lat="42.67873" lon="-6.87193">
        <ele>1135.2</ele>
        <time>2023-06-15T21:47:43.000+02:00</time>
      </trkpt>
      <trkpt lat="42.68031" lon="-6.8714">
        <ele>1153.5</ele>
        <time>2023-06-15T21:48:08.000+02:00</time>
      </trkpt>
      <trkpt lat="42.68121" lon="-6.8705">
        <ele>1173.2</ele>
        <time>2023-06-15T21:48:25.000+02:00</time>
      </trkpt>
      <trkpt lat="42.68209" lon="-6.87103">
        <ele>1184.2</ele>
        <time>2023-06-15T21:48:40.000+02:00</time>
      </trkpt>
      <trkpt lat="42.68316" lon="-6.87099">
        <ele>1191.4</ele>
        <time>2023-06-15T21:48:56.000+02:00</time>
      </trkpt>
      <trkpt lat="42.68493" lon="-6.87181">
        <ele>1184.6</ele>
        <time>2023-06-15T21:49:25.000+02:00</time>
      </trkpt>
      <trkpt lat="42.68662" lon="-6.872">
        <ele>1191.7</ele>
        <time>2023-06-15T21:49:51.000+02:00</time>
      </trkpt>
      <trkpt lat="42.68747" lon="-6.87159">
        <ele>1202</ele>
        <time>2023-06-15T21:50:04.000+02:00</time>
      </trkpt>
      <trkpt lat="42.68985" lon="-6.86947">
        <ele>1232.3</ele>
        <time>2023-06-15T21:50:48.000+02:00</time>
      </trkpt>
      <trkpt lat="42.69055" lon="-6.86812">
        <ele>1246</ele>
        <time>2023-06-15T21:51:06.000+02:00</time>
      </trkpt>
      <trkpt lat="42.69222" lon="-6.86674">
        <ele>1257</ele>
        <time>2023-06-15T21:51:36.000+02:00</time>
      </trkpt>
      <trkpt lat="42.69274" lon="-6.86567">
        <ele>1253.9</ele>
        <time>2023-06-15T21:51:51.000+02:00</time>
      </trkpt>
      <trkpt lat="42.6931" lon="-6.86359">
        <ele>1254.1</ele>
        <time>2023-06-15T21:52:15.000+02:00</time>
      </trkpt>
      <trkpt lat="42.69421" lon="-6.86372">
        <ele>1251.1</ele>
        <time>2023-06-15T21:52:32.000+02:00</time>
      </trkpt>
      <trkpt lat="42.69529" lon="-6.8644">
        <ele>1250.2</ele>
        <time>2023-06-15T21:52:50.000+02:00</time>
      </trkpt>
      <trkpt lat="42.69755" lon="-6.86724">
        <ele>1249.4</ele>
        <time>2023-06-15T21:53:37.000+02:00</time>
      </trkpt>
      <trkpt lat="42.69765" lon="-6.86846">
        <ele>1249.8</ele>
        <time>2023-06-15T21:53:51.000+02:00</time>
      </trkpt>
      <trkpt lat="42.69862" lon="-6.87094">
        <ele>1264.1</ele>
        <time>2023-06-15T21:54:22.000+02:00</time>
      </trkpt>
      <trkpt lat="42.70027" lon="-6.87161">
        <ele>1253</ele>
        <time>2023-06-15T21:54:49.000+02:00</time>
      </trkpt>
      <trkpt lat="42.70185" lon="-6.87107">
        <ele>1250.6</ele>
        <time>2023-06-15T21:55:13.000+02:00</time>
      </trkpt>
      <trkpt lat="42.70468" lon="-6.87236">
        <ele>1237</ele>
        <time>2023-06-15T21:55:59.000+02:00</time>
      </trkpt>
      <trkpt lat="42.70446" lon="-6.87588">
        <ele>1218.7</ele>
        <time>2023-06-15T21:56:39.000+02:00</time>
      </trkpt>
      <trkpt lat="42.70515" lon="-6.87738">
        <ele>1210.6</ele>
        <time>2023-06-15T21:56:59.000+02:00</time>
      </trkpt>
      <trkpt lat="42.70707" lon="-6.87673">
        <ele>1206</ele>
        <time>2023-06-15T21:57:29.000+02:00</time>
      </trkpt>
      <trkpt lat="42.70793" lon="-6.87745">
        <ele>1199</ele>
        <time>2023-06-15T21:57:44.000+02:00</time>
      </trkpt>
      <trkpt lat="42.70927" lon="-6.87805">
        <ele>1192.7</ele>
        <time>2023-06-15T21:58:06.000+02:00</time>
      </trkpt>
      <trkpt lat="42.7102" lon="-6.8778">
        <ele>1192.2</ele>
        <time>2023-06-15T21:58:20.000+02:00</time>
      </trkpt>
      <trkpt lat="42.71104" lon="-6.87804">
        <ele>1179.1</ele>
        <time>2023-06-15T21:58:34.000+02:00</time>
      </trkpt>
      <trkpt lat="42.71211" lon="-6.87788">
        <ele>1173.1</ele>
        <time>2023-06-15T21:58:50.000+02:00</time>
      </trkpt>
      <trkpt lat="42.70934" lon="-6.88013">
        <ele>1118</ele>
        <time>2023-06-15T21:59:39.000+02:00</time>
      </trkpt>
      <trkpt lat="42.70717" lon="-6.87997">
        <ele>1087.8</ele>
        <time>2023-06-15T22:00:13.000+02:00</time>
      </trkpt>
      <trkpt lat="42.70695" lon="-6.88027">
        <ele>1080.2</ele>
        <time>2023-06-15T22:00:17.000+02:00</time>
      </trkpt>
      <trkpt lat="42.70684" lon="-6.88096">
        <ele>1079.3</ele>
        <time>2023-06-15T22:00:25.000+02:00</time>
      </trkpt>
      <trkpt lat="42.70715" lon="-6.88187">
        <ele>1069.4</ele>
        <time>2023-06-15T22:00:37.000+02:00</time>
      </trkpt>
      <trkpt lat="42.70691" lon="-6.88283">
        <ele>1069.7</ele>
        <time>2023-06-15T22:00:48.000+02:00</time>
      </trkpt>
      <trkpt lat="42.70713" lon="-6.88409">
        <ele>1066.9</ele>
        <time>2023-06-15T22:01:03.000+02:00</time>
      </trkpt>
      <trkpt lat="42.70714" lon="-6.88675">
        <ele>1067.7</ele>
        <time>2023-06-15T22:01:32.000+02:00</time>
      </trkpt>
      <trkpt lat="42.70556" lon="-6.88923">
        <ele>1085.2</ele>
        <time>2023-06-15T22:02:09.000+02:00</time>
      </trkpt>
      <trkpt lat="42.70432" lon="-6.88984">
        <ele>1100.9</ele>
        <time>2023-06-15T22:02:29.000+02:00</time>
      </trkpt>
      <trkpt lat="42.70446" lon="-6.89092">
        <ele>1112.3</ele>
        <time>2023-06-15T22:02:42.000+02:00</time>
      </trkpt>
      <trkpt lat="42.70643" lon="-6.89275">
        <ele>1097.7</ele>
        <time>2023-06-15T22:03:18.000+02:00</time>
      </trkpt>
      <trkpt lat="42.70716" lon="-6.89479">
        <ele>1097</ele>
        <time>2023-06-15T22:03:44.000+02:00</time>
      </trkpt>
      <trkpt lat="42.70698" lon="-6.89616">
        <ele>1096.8</ele>
        <time>2023-06-15T22:03:59.000+02:00</time>
      </trkpt>
      <trkpt lat="42.70658" lon="-6.89663">
        <ele>1085.2</ele>
        <time>2023-06-15T22:04:07.000+02:00</time>
      </trkpt>
      <trkpt lat="42.7063" lon="-6.89637">
        <ele>1078.6</ele>
        <time>2023-06-15T22:04:13.000+02:00</time>
      </trkpt>
      <trkpt lat="42.70619" lon="-6.89678">
        <ele>1075.2</ele>
        <time>2023-06-15T22:04:18.000+02:00</time>
      </trkpt>
      <trkpt lat="42.7065" lon="-6.89913">
        <ele>1051.6</ele>
        <time>2023-06-15T22:04:44.000+02:00</time>
      </trkpt>
      <trkpt lat="42.70632" lon="-6.89905">
        <ele>1052.5</ele>
        <time>2023-06-15T22:04:47.000+02:00</time>
      </trkpt>
      <trkpt lat="42.70476" lon="-6.90055">
        <ele>1037.2</ele>
        <time>2023-06-15T22:05:16.000+02:00</time>
      </trkpt>
      <trkpt lat="42.70315" lon="-6.90011">
        <ele>1017.8</ele>
        <time>2023-06-15T22:05:42.000+02:00</time>
      </trkpt>
      <trkpt lat="42.70362" lon="-6.9009">
        <ele>1040.8</ele>
        <time>2023-06-15T22:05:53.000+02:00</time>
      </trkpt>
      <trkpt lat="42.70349" lon="-6.90194">
        <ele>1042.7</ele>
        <time>2023-06-15T22:06:05.000+02:00</time>
      </trkpt>
      <trkpt lat="42.70288" lon="-6.90298">
        <ele>1051.1</ele>
        <time>2023-06-15T22:06:20.000+02:00</time>
      </trkpt>
      <trkpt lat="42.70381" lon="-6.90496">
        <ele>1036.9</ele>
        <time>2023-06-15T22:06:46.000+02:00</time>
      </trkpt>
      <trkpt lat="42.70476" lon="-6.90502">
        <ele>1040.8</ele>
        <time>2023-06-15T22:07:01.000+02:00</time>
      </trkpt>
      <trkpt lat="42.70644" lon="-6.90614">
        <ele>1027.5</ele>
        <time>2023-06-15T22:07:29.000+02:00</time>
      </trkpt>
      <trkpt lat="42.70714" lon="-6.90451">
        <ele>1002.1</ele>
        <time>2023-06-15T22:07:51.000+02:00</time>
      </trkpt>
      <trkpt lat="42.7092" lon="-6.90421">
        <ele>978.1</ele>
        <time>2023-06-15T22:08:22.000+02:00</time>
      </trkpt>
      <trkpt lat="42.71096" lon="-6.90312">
        <ele>957.1</ele>
        <time>2023-06-15T22:08:52.000+02:00</time>
      </trkpt>
      <trkpt lat="42.71149" lon="-6.9036">
        <ele>948.2</ele>
        <time>2023-06-15T22:09:01.000+02:00</time>
      </trkpt>
      <trkpt lat="42.71114" lon="-6.90495">
        <ele>926</ele>
        <time>2023-06-15T22:09:18.000+02:00</time>
      </trkpt>
      <trkpt lat="42.71021" lon="-6.905">
        <ele>911.7</ele>
        <time>2023-06-15T22:09:32.000+02:00</time>
      </trkpt>
      <trkpt lat="42.70953" lon="-6.90604">
        <ele>887.8</ele>
        <time>2023-06-15T22:09:47.000+02:00</time>
      </trkpt>
      <trkpt lat="42.7085" lon="-6.9066">
        <ele>879.8</ele>
        <time>2023-06-15T22:10:04.000+02:00</time>
      </trkpt>
      <trkpt lat="42.70851" lon="-6.90878">
        <ele>877.6</ele>
        <time>2023-06-15T22:10:29.000+02:00</time>
      </trkpt>
      <trkpt lat="42.70741" lon="-6.91014">
        <ele>862.8</ele>
        <time>2023-06-15T22:10:52.000+02:00</time>
      </trkpt>
      <trkpt lat="42.70812" lon="-6.90996">
        <ele>854.7</ele>
        <time>2023-06-15T22:11:03.000+02:00</time>
      </trkpt>
      <trkpt lat="42.70769" lon="-6.91048">
        <ele>849.3</ele>
        <time>2023-06-15T22:11:11.000+02:00</time>
      </trkpt>
      <trkpt lat="42.70672" lon="-6.91087">
        <ele>843.3</ele>
        <time>2023-06-15T22:11:27.000+02:00</time>
      </trkpt>
      <trkpt lat="42.70623" lon="-6.91258">
        <ele>823.3</ele>
        <time>2023-06-15T22:11:47.000+02:00</time>
      </trkpt>
      <trkpt lat="42.70522" lon="-6.91284">
        <ele>808</ele>
        <time>2023-06-15T22:12:03.000+02:00</time>
      </trkpt>
      <trkpt lat="42.70484" lon="-6.91212">
        <ele>810.1</ele>
        <time>2023-06-15T22:12:13.000+02:00</time>
      </trkpt>
      <trkpt lat="42.70384" lon="-6.91311">
        <ele>798.6</ele>
        <time>2023-06-15T22:12:32.000+02:00</time>
      </trkpt>
      <trkpt lat="42.70404" lon="-6.9138">
        <ele>791.7</ele>
        <time>2023-06-15T22:12:40.000+02:00</time>
      </trkpt>
      <trkpt lat="42.70396" lon="-6.91478">
        <ele>790.8</ele>
        <time>2023-06-15T22:12:51.000+02:00</time>
      </trkpt>
      <trkpt lat="42.7052" lon="-6.91544">
        <ele>772.9</ele>
        <time>2023-06-15T22:13:12.000+02:00</time>
      </trkpt>
      <trkpt lat="42.70528" lon="-6.91656">
        <ele>762.5</ele>
        <time>2023-06-15T22:13:24.000+02:00</time>
      </trkpt>
      <trkpt lat="42.70523" lon="-6.91735">
        <ele>755.2</ele>
        <time>2023-06-15T22:13:33.000+02:00</time>
      </trkpt>
      <trkpt lat="42.70441" lon="-6.91972">
        <ele>734</ele>
        <time>2023-06-15T22:14:03.000+02:00</time>
      </trkpt>
      <trkpt lat="42.7043" lon="-6.92317">
        <ele>700.8</ele>
        <time>2023-06-15T22:14:41.000+02:00</time>
      </trkpt>
      <trkpt lat="42.70484" lon="-6.92241">
        <ele>691.4</ele>
        <time>2023-06-15T22:14:53.000+02:00</time>
      </trkpt>
      <trkpt lat="42.7058" lon="-6.92326">
        <ele>686.2</ele>
        <time>2023-06-15T22:15:11.000+02:00</time>
      </trkpt>
      <trkpt lat="42.70652" lon="-6.9233">
        <ele>684.1</ele>
        <time>2023-06-15T22:15:22.000+02:00</time>
      </trkpt>
      <trkpt lat="42.70716" lon="-6.9242">
        <ele>687.4</ele>
        <time>2023-06-15T22:15:36.000+02:00</time>
      </trkpt>
      <trkpt lat="42.70878" lon="-6.92409">
        <ele>697.4</ele>
        <time>2023-06-15T22:16:01.000+02:00</time>
      </trkpt>
      <trkpt lat="42.71044" lon="-6.92442">
        <ele>704.4</ele>
        <time>2023-06-15T22:16:26.000+02:00</time>
      </trkpt>
      <trkpt lat="42.7115" lon="-6.9242">
        <ele>699.4</ele>
        <time>2023-06-15T22:16:43.000+02:00</time>
      </trkpt>
      <trkpt lat="42.71195" lon="-6.92469">
        <ele>703.1</ele>
        <time>2023-06-15T22:16:51.000+02:00</time>
      </trkpt>
      <trkpt lat="42.71222" lon="-6.92635">
        <ele>716.4</ele>
        <time>2023-06-15T22:17:10.000+02:00</time>
      </trkpt>
      <trkpt lat="42.71258" lon="-6.92719">
        <ele>727</ele>
        <time>2023-06-15T22:17:21.000+02:00</time>
      </trkpt>
      <trkpt lat="42.71313" lon="-6.92765">
        <ele>736.1</ele>
        <time>2023-06-15T22:17:31.000+02:00</time>
      </trkpt>
      <trkpt lat="42.71324" lon="-6.92751">
        <ele>744.6</ele>
        <time>2023-06-15T22:17:34.000+02:00</time>
      </trkpt>
      <trkpt lat="42.71271" lon="-6.92646">
        <ele>750.9</ele>
        <time>2023-06-15T22:17:48.000+02:00</time>
      </trkpt>
      <trkpt lat="42.71286" lon="-6.92473">
        <ele>763.9</ele>
        <time>2023-06-15T22:18:07.000+02:00</time>
      </trkpt>
      <trkpt lat="42.71505" lon="-6.92436">
        <ele>792.5</ele>
        <time>2023-06-15T22:18:41.000+02:00</time>
      </trkpt>
      <trkpt lat="42.71474" lon="-6.92491">
        <ele>800</ele>
        <time>2023-06-15T22:18:49.000+02:00</time>
      </trkpt>
      <trkpt lat="42.71399" lon="-6.92513">
        <ele>807.5</ele>
        <time>2023-06-15T22:19:01.000+02:00</time>
      </trkpt>
      <trkpt lat="42.71405" lon="-6.92547">
        <ele>812.2</ele>
        <time>2023-06-15T22:19:05.000+02:00</time>
      </trkpt>
      <trkpt lat="42.71612" lon="-6.92545">
        <ele>838.2</ele>
        <time>2023-06-15T22:19:36.000+02:00</time>
      </trkpt>
      <trkpt lat="42.71699" lon="-6.92595">
        <ele>852.9</ele>
        <time>2023-06-15T22:19:51.000+02:00</time>
      </trkpt>
      <trkpt lat="42.71918" lon="-6.92493">
        <ele>874.5</ele>
        <time>2023-06-15T22:20:26.000+02:00</time>
      </trkpt>
      <trkpt lat="42.72036" lon="-6.92481">
        <ele>886.1</ele>
        <time>2023-06-15T22:20:44.000+02:00</time>
      </trkpt>
      <trkpt lat="42.7215" lon="-6.92548">
        <ele>910.4</ele>
        <time>2023-06-15T22:21:03.000+02:00</time>
      </trkpt>
      <trkpt lat="42.72188" lon="-6.92644">
        <ele>913.2</ele>
        <time>2023-06-15T22:21:15.000+02:00</time>
      </trkpt>
      <trkpt lat="42.72223" lon="-6.92675">
        <ele>914.6</ele>
        <time>2023-06-15T22:21:22.000+02:00</time>
      </trkpt>
      <trkpt lat="42.72509" lon="-6.92716">
        <ele>942.3</ele>
        <time>2023-06-15T22:22:06.000+02:00</time>
      </trkpt>
      <trkpt lat="42.72714" lon="-6.92855">
        <ele>970.4</ele>
        <time>2023-06-15T22:22:41.000+02:00</time>
      </trkpt>
      <trkpt lat="42.72773" lon="-6.92869">
        <ele>980.2</ele>
        <time>2023-06-15T22:22:50.000+02:00</time>
      </trkpt>
      <trkpt lat="42.72809" lon="-6.93032">
        <ele>996.9</ele>
        <time>2023-06-15T22:23:09.000+02:00</time>
      </trkpt>
      <trkpt lat="42.72829" lon="-6.93299">
        <ele>1008.9</ele>
        <time>2023-06-15T22:23:39.000+02:00</time>
      </trkpt>
      <trkpt lat="42.72773" lon="-6.9332">
        <ele>1015.1</ele>
        <time>2023-06-15T22:23:48.000+02:00</time>
      </trkpt>
      <trkpt lat="42.72757" lon="-6.93431">
        <ele>1029.2</ele>
        <time>2023-06-15T22:24:01.000+02:00</time>
      </trkpt>
      <trkpt lat="42.72727" lon="-6.93471">
        <ele>1031.1</ele>
        <time>2023-06-15T22:24:07.000+02:00</time>
      </trkpt>
      <trkpt lat="42.72633" lon="-6.93524">
        <ele>1046.4</ele>
        <time>2023-06-15T22:24:23.000+02:00</time>
      </trkpt>
      <trkpt lat="42.72581" lon="-6.93466">
        <ele>1051</ele>
        <time>2023-06-15T22:24:33.000+02:00</time>
      </trkpt>
      <trkpt lat="42.72536" lon="-6.93457">
        <ele>1056.7</ele>
        <time>2023-06-15T22:24:40.000+02:00</time>
      </trkpt>
      <trkpt lat="42.72447" lon="-6.93524">
        <ele>1070.1</ele>
        <time>2023-06-15T22:24:55.000+02:00</time>
      </trkpt>
      <trkpt lat="42.72375" lon="-6.93634">
        <ele>1081.6</ele>
        <time>2023-06-15T22:25:12.000+02:00</time>
      </trkpt>
      <trkpt lat="42.72407" lon="-6.93712">
        <ele>1081</ele>
        <time>2023-06-15T22:25:22.000+02:00</time>
      </trkpt>
      <trkpt lat="42.7264" lon="-6.93835">
        <ele>1067</ele>
        <time>2023-06-15T22:26:00.000+02:00</time>
      </trkpt>
      <trkpt lat="42.7275" lon="-6.93993">
        <ele>1063.5</ele>
        <time>2023-06-15T22:26:24.000+02:00</time>
      </trkpt>
      <trkpt lat="42.72849" lon="-6.9404">
        <ele>1065.5</ele>
        <time>2023-06-15T22:26:40.000+02:00</time>
      </trkpt>
      <trkpt lat="42.72796" lon="-6.94086">
        <ele>1060.3</ele>
        <time>2023-06-15T22:26:50.000+02:00</time>
      </trkpt>
      <trkpt lat="42.72777" lon="-6.94158">
        <ele>1066.1</ele>
        <time>2023-06-15T22:26:59.000+02:00</time>
      </trkpt>
      <trkpt lat="42.72696" lon="-6.94203">
        <ele>1068.9</ele>
        <time>2023-06-15T22:27:12.000+02:00</time>
      </trkpt>
      <trkpt lat="42.72652" lon="-6.94282">
        <ele>1074.8</ele>
        <time>2023-06-15T22:27:23.000+02:00</time>
      </trkpt>
      <trkpt lat="42.72637" lon="-6.94505">
        <ele>1078.1</ele>
        <time>2023-06-15T22:27:48.000+02:00</time>
      </trkpt>
      <trkpt lat="42.72751" lon="-6.94723">
        <ele>1077.2</ele>
        <time>2023-06-15T22:28:18.000+02:00</time>
      </trkpt>
      <trkpt lat="42.72838" lon="-6.94811">
        <ele>1077.4</ele>
        <time>2023-06-15T22:28:35.000+02:00</time>
      </trkpt>
      <trkpt lat="42.72927" lon="-6.94853">
        <ele>1076.5</ele>
        <time>2023-06-15T22:28:49.000+02:00</time>
      </trkpt>
      <trkpt lat="42.73038" lon="-6.94897">
        <ele>1075.7</ele>
        <time>2023-06-15T22:29:07.000+02:00</time>
      </trkpt>
      <trkpt lat="42.73128" lon="-6.94894">
        <ele>1071.9</ele>
        <time>2023-06-15T22:29:21.000+02:00</time>
      </trkpt>
      <trkpt lat="42.73283" lon="-6.94801">
        <ele>1064.8</ele>
        <time>2023-06-15T22:29:47.000+02:00</time>
      </trkpt>
      <trkpt lat="42.73307" lon="-6.94728">
        <ele>1063.4</ele>
        <time>2023-06-15T22:29:56.000+02:00</time>
      </trkpt>
      <trkpt lat="42.73464" lon="-6.94624">
        <ele>1041.9</ele>
        <time>2023-06-15T22:30:22.000+02:00</time>
      </trkpt>
      <trkpt lat="42.7353" lon="-6.94514">
        <ele>1034.7</ele>
        <time>2023-06-15T22:30:38.000+02:00</time>
      </trkpt>
      <trkpt lat="42.73546" lon="-6.9469">
        <ele>1040.6</ele>
        <time>2023-06-15T22:30:58.000+02:00</time>
      </trkpt>
      <trkpt lat="42.73533" lon="-6.94783">
        <ele>1046.6</ele>
        <time>2023-06-15T22:31:09.000+02:00</time>
      </trkpt>
      <trkpt lat="42.73606" lon="-6.95097">
        <ele>1072.4</ele>
        <time>2023-06-15T22:31:46.000+02:00</time>
      </trkpt>
      <trkpt lat="42.73584" lon="-6.9514">
        <ele>1072.1</ele>
        <time>2023-06-15T22:31:52.000+02:00</time>
      </trkpt>
      <trkpt lat="42.73643" lon="-6.95312">
        <ele>1073.6</ele>
        <time>2023-06-15T22:32:13.000+02:00</time>
      </trkpt>
      <trkpt lat="42.73699" lon="-6.95401">
        <ele>1069.1</ele>
        <time>2023-06-15T22:32:26.000+02:00</time>
      </trkpt>
      <trkpt lat="42.73857" lon="-6.95432">
        <ele>1061.9</ele>
        <time>2023-06-15T22:32:51.000+02:00</time>
      </trkpt>
      <trkpt lat="42.74052" lon="-6.95536">
        <ele>1051.7</ele>
        <time>2023-06-15T22:33:23.000+02:00</time>
      </trkpt>
      <trkpt lat="42.74209" lon="-6.95578">
        <ele>1042.5</ele>
        <time>2023-06-15T22:33:47.000+02:00</time>
      </trkpt>
      <trkpt lat="42.7428" lon="-6.95584">
        <ele>1040</ele>
        <time>2023-06-15T22:33:58.000+02:00</time>
      </trkpt>
      <trkpt lat="42.74324" lon="-6.95519">
        <ele>1042</ele>
        <time>2023-06-15T22:34:08.000+02:00</time>
      </trkpt>
      <trkpt lat="42.74389" lon="-6.95581">
        <ele>1034.9</ele>
        <time>2023-06-15T22:34:20.000+02:00</time>
      </trkpt>
      <trkpt lat="42.7452" lon="-6.95614">
        <ele>1027.9</ele>
        <time>2023-06-15T22:34:40.000+02:00</time>
      </trkpt>
      <trkpt lat="42.74487" lon="-6.95691">
        <ele>1031.6</ele>
        <time>2023-06-15T22:34:50.000+02:00</time>
      </trkpt>
      <trkpt lat="42.74433" lon="-6.95696">
        <ele>1025.7</ele>
        <time>2023-06-15T22:34:58.000+02:00</time>
      </trkpt>
      <trkpt lat="42.74271" lon="-6.95801">
        <ele>1016.4</ele>
        <time>2023-06-15T22:35:26.000+02:00</time>
      </trkpt>
      <trkpt lat="42.74108" lon="-6.95842">
        <ele>1004.1</ele>
        <time>2023-06-15T22:35:51.000+02:00</time>
      </trkpt>
      <trkpt lat="42.74087" lon="-6.96028">
        <ele>999.9</ele>
        <time>2023-06-15T22:36:12.000+02:00</time>
      </trkpt>
      <trkpt lat="42.74032" lon="-6.95942">
        <ele>1004.2</ele>
        <time>2023-06-15T22:36:25.000+02:00</time>
      </trkpt>
      <trkpt lat="42.73894" lon="-6.96075">
        <ele>1025.4</ele>
        <time>2023-06-15T22:36:51.000+02:00</time>
      </trkpt>
      <trkpt lat="42.73849" lon="-6.96079">
        <ele>1029.2</ele>
        <time>2023-06-15T22:36:58.000+02:00</time>
      </trkpt>
      <trkpt lat="42.73736" lon="-6.96014">
        <ele>1038.6</ele>
        <time>2023-06-15T22:37:17.000+02:00</time>
      </trkpt>
      <trkpt lat="42.73602" lon="-6.9607">
        <ele>1052.4</ele>
        <time>2023-06-15T22:37:38.000+02:00</time>
      </trkpt>
      <trkpt lat="42.73626" lon="-6.9618">
        <ele>1053.4</ele>
        <time>2023-06-15T22:37:51.000+02:00</time>
      </trkpt>
      <trkpt lat="42.73784" lon="-6.96431">
        <ele>1056.7</ele>
        <time>2023-06-15T22:38:28.000+02:00</time>
      </trkpt>
      <trkpt lat="42.73786" lon="-6.96517">
        <ele>1057.5</ele>
        <time>2023-06-15T22:38:38.000+02:00</time>
      </trkpt>
      <trkpt lat="42.73815" lon="-6.96562">
        <ele>1060.3</ele>
        <time>2023-06-15T22:38:44.000+02:00</time>
      </trkpt>
      <trkpt lat="42.73812" lon="-6.9664">
        <ele>1062</ele>
        <time>2023-06-15T22:38:53.000+02:00</time>
      </trkpt>
      <trkpt lat="42.73894" lon="-6.968">
        <ele>1067.3</ele>
        <time>2023-06-15T22:39:15.000+02:00</time>
      </trkpt>
      <trkpt lat="42.73888" lon="-6.96843">
        <ele>1067</ele>
        <time>2023-06-15T22:39:20.000+02:00</time>
      </trkpt>
    </trkseg>
  </trk>
</gpx>